pelas margens da cidade (2017)

Três caminhantes dão a volta na sua cidade.

Duzentos e vinte kilometros, quinze dias ao redor da mancha urbana de SP 

com Edith Derdyk e Renato Hofer.

[São Miguel - São Mateus]]></name><trkseg></trkpt><trkpt lat="-23.491062" lon="-46.445359"><ele>754.0</ele><time>2017-02-11T09:19:25Z</time></trkpt><trkpt lat="-23.491119" lon="-46.445273"><ele>746.0</ele><time>2017-02-11T09:38:00Z</time></trkpt><trkpt lat="-23.491178" lon="-46.445191"><ele>745.0</ele><time>2017-02-11T09:38:09Z</time></trkpt><trkpt lat="-23.491248" lon="-46.44511"><ele>748.0</ele><time>2017-02-11T09:38:18Z</time></trkpt><trkpt lat="-23.491317" lon="-46.445042"><ele>749.0</ele><time>2017-02-11T09:38:25Z</time></trkpt><trkpt lat="-23.491387" lon="-46.444977"><ele>749.0</ele><time>2017-02-11T09:38:32Z</time></trkpt><trkpt lat="-23.491455" lon="-46.44491"><ele>746.0</ele><time>2017-02-11T09:38:40Z</time></trkpt><trkpt lat="-23.491523" lon="-46.444845"><ele>750.0</ele><time>2017-02-11T09:38:47Z</time></trkpt><trkpt lat="-23.491587" lon="-46.444758"><ele>752.0</ele><time>2017-02-11T09:38:54Z</time></trkpt><trkpt lat="-23.491665" lon="-46.444698"><ele>751.0</ele><time>2017-02-11T09:39:03Z</time></trkpt><trkpt lat="-23.491755" lon="-46.444675"><ele>751.0</ele><time>2017-02-11T09:39:12Z</time></trkpt><trkpt lat="-23.491847" lon="-46.444677"><ele>752.0</ele><time>2017-02-11T09:39:24Z</time></trkpt><trkpt lat="-23.491885" lon="-46.444774"><ele>751.0</ele><time>2017-02-11T09:39:32Z</time></trkpt><trkpt lat="-23.491972" lon="-46.444721"><ele>756.0</ele><time>2017-02-11T09:39:43Z</time></trkpt><trkpt lat="-23.492038" lon="-46.444647"><ele>755.0</ele><time>2017-02-11T09:39:50Z</time></trkpt><trkpt lat="-23.492118" lon="-46.444596"><ele>755.0</ele><time>2017-02-11T09:39:57Z</time></trkpt><trkpt lat="-23.492204" lon="-46.44456"><ele>757.0</ele><time>2017-02-11T09:40:05Z</time></trkpt><trkpt lat="-23.49228" lon="-46.444488"><ele>753.0</ele><time>2017-02-11T09:40:14Z</time></trkpt><trkpt lat="-23.492359" lon="-46.444434"><ele>753.0</ele><time>2017-02-11T09:40:22Z</time></trkpt><trkpt lat="-23.492449" lon="-46.444399"><ele>752.0</ele><time>2017-02-11T09:40:32Z</time></trkpt><trkpt lat="-23.492545" lon="-46.444407"><ele>748.0</ele><time>2017-02-11T09:40:43Z</time></trkpt><trkpt lat="-23.492615" lon="-46.444345"><ele>748.0</ele><time>2017-02-11T09:40:58Z</time></trkpt><trkpt lat="-23.492697" lon="-46.44429"><ele>748.0</ele><time>2017-02-11T09:41:08Z</time></trkpt><trkpt lat="-23.492777" lon="-46.444228"><ele>745.0</ele><time>2017-02-11T09:41:18Z</time></trkpt><trkpt lat="-23.492848" lon="-46.444162"><ele>749.0</ele><time>2017-02-11T09:41:32Z</time></trkpt><trkpt lat="-23.492934" lon="-46.44412"><ele>753.0</ele><time>2017-02-11T09:41:41Z</time></trkpt><trkpt lat="-23.493017" lon="-46.444059"><ele>749.0</ele><time>2017-02-11T09:41:50Z</time></trkpt><trkpt lat="-23.493094" lon="-46.443997"><ele>743.0</ele><time>2017-02-11T09:42:20Z</time></trkpt><trkpt lat="-23.49315" lon="-46.44391"><ele>743.0</ele><time>2017-02-11T09:42:25Z</time></trkpt><trkpt lat="-23.493242" lon="-46.443907"><ele>748.0</ele><time>2017-02-11T09:42:31Z</time></trkpt><trkpt lat="-23.493335" lon="-46.443851"><ele>747.0</ele><time>2017-02-11T09:42:38Z</time></trkpt><trkpt lat="-23.493421" lon="-46.443816"><ele>750.0</ele><time>2017-02-11T09:42:46Z</time></trkpt><trkpt lat="-23.493481" lon="-46.443743"><ele>754.0</ele><time>2017-02-11T09:42:57Z</time></trkpt><trkpt lat="-23.493505" lon="-46.443637"><ele>749.0</ele><time>2017-02-11T09:43:19Z</time></trkpt><trkpt lat="-23.493599" lon="-46.443655"><ele>755.0</ele><time>2017-02-11T09:43:55Z</time></trkpt><trkpt lat="-23.493685" lon="-46.443699"><ele>756.0</ele><time>2017-02-11T09:44:00Z</time></trkpt><trkpt lat="-23.493755" lon="-46.443631"><ele>757.0</ele><time>2017-02-11T09:44:08Z</time></trkpt><trkpt lat="-23.493843" lon="-46.443595"><ele>758.0</ele><time>2017-02-11T09:44:16Z</time></trkpt><trkpt lat="-23.493921" lon="-46.443532"><ele>764.0</ele><time>2017-02-11T09:44:28Z</time></trkpt><trkpt lat="-23.493988" lon="-46.443466"><ele>762.0</ele><time>2017-02-11T09:44:39Z</time></trkpt><trkpt lat="-23.49404" lon="-46.44338"><ele>761.0</ele><time>2017-02-11T09:44:49Z</time></trkpt><trkpt lat="-23.494094" lon="-46.4433"><ele>761.0</ele><time>2017-02-11T09:44:58Z</time></trkpt><trkpt lat="-23.494194" lon="-46.4433"><ele>762.0</ele><time>2017-02-11T09:45:06Z</time></trkpt><trkpt lat="-23.494278" lon="-46.443255"><ele>762.0</ele><time>2017-02-11T09:45:18Z</time></trkpt><trkpt lat="-23.49435" lon="-46.443188"><ele>761.0</ele><time>2017-02-11T09:45:28Z</time></trkpt><trkpt lat="-23.494446" lon="-46.443172"><ele>761.0</ele><time>2017-02-11T09:45:38Z</time></trkpt><trkpt lat="-23.49452" lon="-46.44311"><ele>759.0</ele><time>2017-02-11T09:45:48Z</time></trkpt><trkpt lat="-23.494612" lon="-46.443078"><ele>761.0</ele><time>2017-02-11T09:45:58Z</time></trkpt><trkpt lat="-23.494686" lon="-46.443009"><ele>764.0</ele><time>2017-02-11T09:46:06Z</time></trkpt><trkpt lat="-23.494762" lon="-46.442944"><ele>767.0</ele><time>2017-02-11T09:46:19Z</time></trkpt><trkpt lat="-23.494853" lon="-46.442902"><ele>762.0</ele><time>2017-02-11T09:46:50Z</time></trkpt><trkpt lat="-23.494937" lon="-46.44286"><ele>763.0</ele><time>2017-02-11T09:46:57Z</time></trkpt><trkpt lat="-23.495021" lon="-46.442823"><ele>760.0</ele><time>2017-02-11T09:47:05Z</time></trkpt><trkpt lat="-23.495097" lon="-46.442769"><ele>764.0</ele><time>2017-02-11T09:47:44Z</time></trkpt><trkpt lat="-23.495171" lon="-46.442712"><ele>767.0</ele><time>2017-02-11T09:48:00Z</time></trkpt><trkpt lat="-23.495256" lon="-46.442653"><ele>770.0</ele><time>2017-02-11T09:48:06Z</time></trkpt><trkpt lat="-23.495351" lon="-46.442618"><ele>773.0</ele><time>2017-02-11T09:48:12Z</time></trkpt><trkpt lat="-23.495434" lon="-46.442571"><ele>771.0</ele><time>2017-02-11T09:48:19Z</time></trkpt><trkpt lat="-23.495505" lon="-46.442499"><ele>771.0</ele><time>2017-02-11T09:48:27Z</time></trkpt><trkpt lat="-23.495586" lon="-46.442439"><ele>771.0</ele><time>2017-02-11T09:48:36Z</time></trkpt><trkpt lat="-23.495673" lon="-46.442382"><ele>771.0</ele><time>2017-02-11T09:48:45Z</time></trkpt><trkpt lat="-23.495763" lon="-46.44233"><ele>769.0</ele><time>2017-02-11T09:48:54Z</time></trkpt><trkpt lat="-23.495852" lon="-46.442287"><ele>770.0</ele><time>2017-02-11T09:49:02Z</time></trkpt><trkpt lat="-23.495932" lon="-46.44223"><ele>773.0</ele><time>2017-02-11T09:49:11Z</time></trkpt><trkpt lat="-23.496028" lon="-46.442208"><ele>768.0</ele><time>2017-02-11T09:49:33Z</time></trkpt><trkpt lat="-23.496109" lon="-46.442147"><ele>763.0</ele><time>2017-02-11T09:49:41Z</time></trkpt><trkpt lat="-23.496196" lon="-46.442109"><ele>764.0</ele><time>2017-02-11T09:49:50Z</time></trkpt><trkpt lat="-23.496289" lon="-46.442075"><ele>769.0</ele><time>2017-02-11T09:50:03Z</time></trkpt><trkpt lat="-23.496379" lon="-46.442068"><ele>771.0</ele><time>2017-02-11T09:50:21Z</time></trkpt><trkpt lat="-23.496418" lon="-46.44197"><ele>768.0</ele><time>2017-02-11T09:52:52Z</time></trkpt><trkpt lat="-23.496494" lon="-46.441901"><ele>761.0</ele><time>2017-02-11T09:52:58Z</time></trkpt><trkpt lat="-23.496574" lon="-46.441848"><ele>761.0</ele><time>2017-02-11T09:53:07Z</time></trkpt><trkpt lat="-23.49664" lon="-46.441771"><ele>763.0</ele><time>2017-02-11T09:53:17Z</time></trkpt><trkpt lat="-23.496698" lon="-46.441688"><ele>758.0</ele><time>2017-02-11T09:53:29Z</time></trkpt><trkpt lat="-23.496783" lon="-46.441646"><ele>754.0</ele><time>2017-02-11T09:53:36Z</time></trkpt><trkpt lat="-23.496871" lon="-46.441596"><ele>760.0</ele><time>2017-02-11T09:53:44Z</time></trkpt><trkpt lat="-23.496963" lon="-46.441578"><ele>759.0</ele><time>2017-02-11T09:53:52Z</time></trkpt><trkpt lat="-23.497051" lon="-46.441543"><ele>765.0</ele><time>2017-02-11T09:54:00Z</time></trkpt><trkpt lat="-23.49713" lon="-46.441473"><ele>765.0</ele><time>2017-02-11T09:54:13Z</time></trkpt><trkpt lat="-23.497207" lon="-46.441421"><ele>768.0</ele><time>2017-02-11T09:54:21Z</time></trkpt><trkpt lat="-23.49727" lon="-46.441349"><ele>768.0</ele><time>2017-02-11T09:54:31Z</time></trkpt><trkpt lat="-23.497334" lon="-46.441277"><ele>767.0</ele><time>2017-02-11T09:54:43Z</time></trkpt><trkpt lat="-23.497426" lon="-46.441246"><ele>766.0</ele><time>2017-02-11T09:54:53Z</time></trkpt><trkpt lat="-23.497498" lon="-46.441183"><ele>761.0</ele><time>2017-02-11T09:55:02Z</time></trkpt><trkpt lat="-23.497588" lon="-46.44115"><ele>766.0</ele><time>2017-02-11T09:55:13Z</time></trkpt><trkpt lat="-23.497659" lon="-46.441077"><ele>774.0</ele><time>2017-02-11T09:55:46Z</time></trkpt><trkpt lat="-23.497744" lon="-46.441028"><ele>773.0</ele><time>2017-02-11T09:55:55Z</time></trkpt><trkpt lat="-23.497829" lon="-46.440985"><ele>772.0</ele><time>2017-02-11T09:56:04Z</time></trkpt><trkpt lat="-23.497922" lon="-46.440937"><ele>771.0</ele><time>2017-02-11T09:56:12Z</time></trkpt><trkpt lat="-23.498006" lon="-46.440893"><ele>776.0</ele><time>2017-02-11T09:56:23Z</time></trkpt><trkpt lat="-23.498076" lon="-46.440824"><ele>780.0</ele><time>2017-02-11T09:56:34Z</time></trkpt><trkpt lat="-23.498153" lon="-46.440761"><ele>781.0</ele><time>2017-02-11T09:56:46Z</time></trkpt><trkpt lat="-23.498232" lon="-46.440712"><ele>781.0</ele><time>2017-02-11T09:56:56Z</time></trkpt><trkpt lat="-23.498323" lon="-46.44068"><ele>776.0</ele><time>2017-02-11T09:57:07Z</time></trkpt><trkpt lat="-23.498417" lon="-46.440726"><ele>774.0</ele><time>2017-02-11T09:57:15Z</time></trkpt><trkpt lat="-23.498475" lon="-46.440632"><ele>769.0</ele><time>2017-02-11T09:57:22Z</time></trkpt><trkpt lat="-23.498542" lon="-46.44056"><ele>776.0</ele><time>2017-02-11T09:57:29Z</time></trkpt><trkpt lat="-23.498622" lon="-46.4405"><ele>776.0</ele><time>2017-02-11T09:57:42Z</time></trkpt><trkpt lat="-23.498638" lon="-46.440396"><ele>777.0</ele><time>2017-02-11T09:57:51Z</time></trkpt><trkpt lat="-23.498679" lon="-46.440302"><ele>776.0</ele><time>2017-02-11T09:58:00Z</time></trkpt><trkpt lat="-23.498673" lon="-46.4402"><ele>779.0</ele><time>2017-02-11T09:58:09Z</time></trkpt><trkpt lat="-23.498772" lon="-46.44018"><ele>782.0</ele><time>2017-02-11T09:59:23Z</time></trkpt><trkpt lat="-23.498872" lon="-46.440168"><ele>788.0</ele><time>2017-02-11T09:59:29Z</time></trkpt><trkpt lat="-23.498962" lon="-46.440139"><ele>787.0</ele><time>2017-02-11T09:59:34Z</time></trkpt><trkpt lat="-23.499057" lon="-46.440096"><ele>787.0</ele><time>2017-02-11T09:59:40Z</time></trkpt><trkpt lat="-23.499133" lon="-46.44015"><ele>790.0</ele><time>2017-02-11T09:59:53Z</time></trkpt><trkpt lat="-23.499233" lon="-46.44014"><ele>793.0</ele><time>2017-02-11T10:00:14Z</time></trkpt><trkpt lat="-23.499334" lon="-46.440114"><ele>792.0</ele><time>2017-02-11T10:00:19Z</time></trkpt><trkpt lat="-23.499421" lon="-46.440078"><ele>793.0</ele><time>2017-02-11T10:00:24Z</time></trkpt><trkpt lat="-23.499522" lon="-46.440092"><ele>792.0</ele><time>2017-02-11T10:00:30Z</time></trkpt><trkpt lat="-23.499593" lon="-46.440163"><ele>788.0</ele><time>2017-02-11T10:00:37Z</time></trkpt><trkpt lat="-23.499686" lon="-46.440133"><ele>787.0</ele><time>2017-02-11T10:00:45Z</time></trkpt><trkpt lat="-23.499779" lon="-46.440114"><ele>788.0</ele><time>2017-02-11T10:00:58Z</time></trkpt><trkpt lat="-23.499871" lon="-46.440101"><ele>788.0</ele><time>2017-02-11T10:01:07Z</time></trkpt><trkpt lat="-23.499968" lon="-46.440108"><ele>782.0</ele><time>2017-02-11T10:01:16Z</time></trkpt><trkpt lat="-23.500067" lon="-46.440098"><ele>779.0</ele><time>2017-02-11T10:01:50Z</time></trkpt><trkpt lat="-23.500158" lon="-46.440085"><ele>782.0</ele><time>2017-02-11T10:01:58Z</time></trkpt><trkpt lat="-23.500252" lon="-46.440079"><ele>786.0</ele><time>2017-02-11T10:02:11Z</time></trkpt><trkpt lat="-23.500359" lon="-46.440097"><ele>786.0</ele><time>2017-02-11T10:02:16Z</time></trkpt><trkpt lat="-23.500428" lon="-46.440024"><ele>787.0</ele><time>2017-02-11T10:02:22Z</time></trkpt><trkpt lat="-23.500473" lon="-46.439937"><ele>782.0</ele><time>2017-02-11T10:02:52Z</time></trkpt><trkpt lat="-23.500494" lon="-46.439836"><ele>779.0</ele><time>2017-02-11T10:03:00Z</time></trkpt><trkpt lat="-23.500469" lon="-46.439739"><ele>772.0</ele><time>2017-02-11T10:03:09Z</time></trkpt><trkpt lat="-23.500471" lon="-46.439632"><ele>773.0</ele><time>2017-02-11T10:03:17Z</time></trkpt><trkpt lat="-23.50044" lon="-46.439521"><ele>771.0</ele><time>2017-02-11T10:03:22Z</time></trkpt><trkpt lat="-23.500443" lon="-46.439418"><ele>774.0</ele><time>2017-02-11T10:03:31Z</time></trkpt><trkpt lat="-23.500483" lon="-46.439326"><ele>776.0</ele><time>2017-02-11T10:03:44Z</time></trkpt><trkpt lat="-23.500575" lon="-46.439332"><ele>772.0</ele><time>2017-02-11T10:05:15Z</time></trkpt><trkpt lat="-23.500664" lon="-46.439309"><ele>772.0</ele><time>2017-02-11T10:09:01Z</time></trkpt><trkpt lat="-23.500763" lon="-46.439309"><ele>773.0</ele><time>2017-02-11T10:09:08Z</time></trkpt><trkpt lat="-23.500854" lon="-46.439305"><ele>771.0</ele><time>2017-02-11T10:09:17Z</time></trkpt><trkpt lat="-23.500946" lon="-46.43927"><ele>773.0</ele><time>2017-02-11T10:09:28Z</time></trkpt><trkpt lat="-23.500955" lon="-46.439169"><ele>778.0</ele><time>2017-02-11T10:09:37Z</time></trkpt><trkpt lat="-23.500952" lon="-46.43907"><ele>775.0</ele><time>2017-02-11T10:09:45Z</time></trkpt><trkpt lat="-23.500936" lon="-46.438968"><ele>776.0</ele><time>2017-02-11T10:09:53Z</time></trkpt><trkpt lat="-23.500918" lon="-46.438871"><ele>774.0</ele><time>2017-02-11T10:10:01Z</time></trkpt><trkpt lat="-23.500898" lon="-46.438771"><ele>778.0</ele><time>2017-02-11T10:10:09Z</time></trkpt><trkpt lat="-23.500863" lon="-46.43867"><ele>774.0</ele><time>2017-02-11T10:10:16Z</time></trkpt><trkpt lat="-23.500846" lon="-46.438564"><ele>771.0</ele><time>2017-02-11T10:10:24Z</time></trkpt><trkpt lat="-23.500844" lon="-46.438456"><ele>773.0</ele><time>2017-02-11T10:10:35Z</time></trkpt><trkpt lat="-23.500846" lon="-46.438347"><ele>772.0</ele><time>2017-02-11T10:10:45Z</time></trkpt><trkpt lat="-23.500818" lon="-46.438243"><ele>770.0</ele><time>2017-02-11T10:10:53Z</time></trkpt><trkpt lat="-23.500824" lon="-46.438133"><ele>769.0</ele><time>2017-02-11T10:11:04Z</time></trkpt><trkpt lat="-23.500812" lon="-46.438035"><ele>769.0</ele><time>2017-02-11T10:11:17Z</time></trkpt><trkpt lat="-23.500805" lon="-46.43793"><ele>762.0</ele><time>2017-02-11T10:11:28Z</time></trkpt><trkpt lat="-23.500905" lon="-46.43791"><ele>762.0</ele><time>2017-02-11T10:11:35Z</time></trkpt><trkpt lat="-23.50101" lon="-46.437921"><ele>765.0</ele><time>2017-02-11T10:11:43Z</time></trkpt><trkpt lat="-23.501103" lon="-46.437906"><ele>768.0</ele><time>2017-02-11T10:11:49Z</time></trkpt><trkpt lat="-23.501193" lon="-46.437878"><ele>763.0</ele><time>2017-02-11T10:11:58Z</time></trkpt><trkpt lat="-23.501296" lon="-46.437836"><ele>759.0</ele><time>2017-02-11T10:12:06Z</time></trkpt><trkpt lat="-23.501395" lon="-46.437829"><ele>765.0</ele><time>2017-02-11T10:12:16Z</time></trkpt><trkpt lat="-23.501482" lon="-46.437863"><ele>767.0</ele><time>2017-02-11T10:12:26Z</time></trkpt><trkpt lat="-23.501578" lon="-46.437897"><ele>768.0</ele><time>2017-02-11T10:12:34Z</time></trkpt><trkpt lat="-23.501673" lon="-46.437874"><ele>763.0</ele><time>2017-02-11T10:12:48Z</time></trkpt><trkpt lat="-23.501761" lon="-46.437843"><ele>761.0</ele><time>2017-02-11T10:12:59Z</time></trkpt><trkpt lat="-23.501852" lon="-46.437806"><ele>765.0</ele><time>2017-02-11T10:14:10Z</time></trkpt><trkpt lat="-23.501947" lon="-46.437788"><ele>770.0</ele><time>2017-02-11T10:14:16Z</time></trkpt><trkpt lat="-23.50203" lon="-46.437835"><ele>772.0</ele><time>2017-02-11T10:14:59Z</time></trkpt><trkpt lat="-23.502123" lon="-46.437834"><ele>774.0</ele><time>2017-02-11T10:15:06Z</time></trkpt><trkpt lat="-23.502222" lon="-46.437817"><ele>773.0</ele><time>2017-02-11T10:15:14Z</time></trkpt><trkpt lat="-23.50231" lon="-46.437792"><ele>764.0</ele><time>2017-02-11T10:15:24Z</time></trkpt><trkpt lat="-23.502401" lon="-46.437819"><ele>770.0</ele><time>2017-02-11T10:16:10Z</time></trkpt><trkpt lat="-23.502502" lon="-46.437798"><ele>776.0</ele><time>2017-02-11T10:16:16Z</time></trkpt><trkpt lat="-23.502597" lon="-46.437759"><ele>775.0</ele><time>2017-02-11T10:16:22Z</time></trkpt><trkpt lat="-23.502691" lon="-46.437736"><ele>776.0</ele><time>2017-02-11T10:16:28Z</time></trkpt><trkpt lat="-23.502785" lon="-46.437727"><ele>775.0</ele><time>2017-02-11T10:16:37Z</time></trkpt><trkpt lat="-23.502877" lon="-46.437724"><ele>772.0</ele><time>2017-02-11T10:16:50Z</time></trkpt><trkpt lat="-23.502975" lon="-46.437723"><ele>770.0</ele><time>2017-02-11T10:17:10Z</time></trkpt><trkpt lat="-23.503068" lon="-46.437709"><ele>774.0</ele><time>2017-02-11T10:17:18Z</time></trkpt><trkpt lat="-23.503163" lon="-46.437698"><ele>775.0</ele><time>2017-02-11T10:17:27Z</time></trkpt><trkpt lat="-23.503254" lon="-46.437703"><ele>770.0</ele><time>2017-02-11T10:17:40Z</time></trkpt><trkpt lat="-23.503344" lon="-46.437696"><ele>775.0</ele><time>2017-02-11T10:17:52Z</time></trkpt><trkpt lat="-23.503442" lon="-46.437684"><ele>770.0</ele><time>2017-02-11T10:18:02Z</time></trkpt><trkpt lat="-23.503534" lon="-46.437665"><ele>768.0</ele><time>2017-02-11T10:18:30Z</time></trkpt><trkpt lat="-23.503638" lon="-46.437648"><ele>764.0</ele><time>2017-02-11T10:18:37Z</time></trkpt><trkpt lat="-23.503738" lon="-46.437646"><ele>764.0</ele><time>2017-02-11T10:18:43Z</time></trkpt><trkpt lat="-23.503835" lon="-46.437636"><ele>767.0</ele><time>2017-02-11T10:18:50Z</time></trkpt><trkpt lat="-23.503935" lon="-46.437624"><ele>770.0</ele><time>2017-02-11T10:18:58Z</time></trkpt><trkpt lat="-23.504035" lon="-46.437607"><ele>769.0</ele><time>2017-02-11T10:19:05Z</time></trkpt><trkpt lat="-23.504127" lon="-46.437614"><ele>770.0</ele><time>2017-02-11T10:19:13Z</time></trkpt><trkpt lat="-23.504218" lon="-46.437613"><ele>774.0</ele><time>2017-02-11T10:19:26Z</time></trkpt><trkpt lat="-23.504309" lon="-46.437588"><ele>773.0</ele><time>2017-02-11T10:19:35Z</time></trkpt><trkpt lat="-23.504411" lon="-46.437586"><ele>773.0</ele><time>2017-02-11T10:19:42Z</time></trkpt><trkpt lat="-23.504508" lon="-46.437578"><ele>768.0</ele><time>2017-02-11T10:19:51Z</time></trkpt><trkpt lat="-23.504595" lon="-46.437548"><ele>771.0</ele><time>2017-02-11T10:19:56Z</time></trkpt><trkpt lat="-23.504692" lon="-46.437541"><ele>771.0</ele><time>2017-02-11T10:20:05Z</time></trkpt><trkpt lat="-23.504785" lon="-46.437536"><ele>771.0</ele><time>2017-02-11T10:20:12Z</time></trkpt><trkpt lat="-23.504874" lon="-46.437517"><ele>770.0</ele><time>2017-02-11T10:20:25Z</time></trkpt><trkpt lat="-23.504967" lon="-46.437517"><ele>767.0</ele><time>2017-02-11T10:20:35Z</time></trkpt><trkpt lat="-23.505051" lon="-46.437558"><ele>765.0</ele><time>2017-02-11T10:20:42Z</time></trkpt><trkpt lat="-23.505127" lon="-46.437621"><ele>762.0</ele><time>2017-02-11T10:20:49Z</time></trkpt><trkpt lat="-23.505193" lon="-46.437698"><ele>760.0</ele><time>2017-02-11T10:20:56Z</time></trkpt><trkpt lat="-23.505265" lon="-46.437767"><ele>758.0</ele><time>2017-02-11T10:21:04Z</time></trkpt><trkpt lat="-23.505323" lon="-46.437846"><ele>758.0</ele><time>2017-02-11T10:21:11Z</time></trkpt><trkpt lat="-23.505381" lon="-46.437929"><ele>756.0</ele><time>2017-02-11T10:21:19Z</time></trkpt><trkpt lat="-23.505433" lon="-46.438014"><ele>758.0</ele><time>2017-02-11T10:21:26Z</time></trkpt><trkpt lat="-23.505484" lon="-46.4381"><ele>762.0</ele><time>2017-02-11T10:21:34Z</time></trkpt><trkpt lat="-23.505529" lon="-46.438195"><ele>764.0</ele><time>2017-02-11T10:21:43Z</time></trkpt><trkpt lat="-23.50556" lon="-46.438299"><ele>766.0</ele><time>2017-02-11T10:21:51Z</time></trkpt><trkpt lat="-23.505595" lon="-46.438394"><ele>766.0</ele><time>2017-02-11T10:21:58Z</time></trkpt><trkpt lat="-23.505622" lon="-46.438495"><ele>765.0</ele><time>2017-02-11T10:22:07Z</time></trkpt><trkpt lat="-23.505662" lon="-46.438587"><ele>765.0</ele><time>2017-02-11T10:22:18Z</time></trkpt><trkpt lat="-23.505724" lon="-46.438669"><ele>765.0</ele><time>2017-02-11T10:22:27Z</time></trkpt><trkpt lat="-23.505777" lon="-46.438767"><ele>768.0</ele><time>2017-02-11T10:22:55Z</time></trkpt><trkpt lat="-23.505844" lon="-46.438845"><ele>764.0</ele><time>2017-02-11T10:23:04Z</time></trkpt><trkpt lat="-23.505854" lon="-46.438943"><ele>762.0</ele><time>2017-02-11T10:23:35Z</time></trkpt><trkpt lat="-23.505877" lon="-46.439043"><ele>762.0</ele><time>2017-02-11T10:23:45Z</time></trkpt><trkpt lat="-23.505919" lon="-46.439145"><ele>761.0</ele><time>2017-02-11T10:23:50Z</time></trkpt><trkpt lat="-23.50596" lon="-46.43924"><ele>762.0</ele><time>2017-02-11T10:23:54Z</time></trkpt><trkpt lat="-23.505965" lon="-46.439338"><ele>770.0</ele><time>2017-02-11T10:24:02Z</time></trkpt><trkpt lat="-23.505992" lon="-46.439447"><ele>769.0</ele><time>2017-02-11T10:24:12Z</time></trkpt><trkpt lat="-23.50608" lon="-46.439479"><ele>767.0</ele><time>2017-02-11T10:24:22Z</time></trkpt><trkpt lat="-23.506168" lon="-46.439451"><ele>763.0</ele><time>2017-02-11T10:24:34Z</time></trkpt><trkpt lat="-23.506259" lon="-46.439494"><ele>766.0</ele><time>2017-02-11T10:24:43Z</time></trkpt><trkpt lat="-23.506356" lon="-46.439494"><ele>768.0</ele><time>2017-02-11T10:24:49Z</time></trkpt><trkpt lat="-23.50645" lon="-46.439501"><ele>767.0</ele><time>2017-02-11T10:24:55Z</time></trkpt><trkpt lat="-23.50655" lon="-46.439491"><ele>769.0</ele><time>2017-02-11T10:25:04Z</time></trkpt><trkpt lat="-23.506653" lon="-46.439511"><ele>764.0</ele><time>2017-02-11T10:25:10Z</time></trkpt><trkpt lat="-23.506752" lon="-46.439505"><ele>761.0</ele><time>2017-02-11T10:25:14Z</time></trkpt><trkpt lat="-23.506849" lon="-46.439479"><ele>746.0</ele><time>2017-02-11T10:25:38Z</time></trkpt><trkpt lat="-23.506919" lon="-46.439409"><ele>750.0</ele><time>2017-02-11T10:25:47Z</time></trkpt><trkpt lat="-23.507016" lon="-46.439416"><ele>754.0</ele><time>2017-02-11T10:26:01Z</time></trkpt><trkpt lat="-23.507094" lon="-46.439346"><ele>753.0</ele><time>2017-02-11T10:26:09Z</time></trkpt><trkpt lat="-23.507189" lon="-46.43931"><ele>754.0</ele><time>2017-02-11T10:26:15Z</time></trkpt><trkpt lat="-23.50729" lon="-46.439296"><ele>752.0</ele><time>2017-02-11T10:26:21Z</time></trkpt><trkpt lat="-23.507399" lon="-46.439297"><ele>757.0</ele><time>2017-02-11T10:26:32Z</time></trkpt><trkpt lat="-23.507473" lon="-46.439427"><ele>761.0</ele><time>2017-02-11T10:26:36Z</time></trkpt><trkpt lat="-23.507486" lon="-46.439529"><ele>755.0</ele><time>2017-02-11T10:26:43Z</time></trkpt><trkpt lat="-23.507441" lon="-46.439618"><ele>764.0</ele><time>2017-02-11T10:26:59Z</time></trkpt><trkpt lat="-23.507436" lon="-46.439729"><ele>758.0</ele><time>2017-02-11T10:27:06Z</time></trkpt><trkpt lat="-23.507423" lon="-46.439828"><ele>756.0</ele><time>2017-02-11T10:27:16Z</time></trkpt><trkpt lat="-23.507336" lon="-46.439858"><ele>759.0</ele><time>2017-02-11T10:27:21Z</time></trkpt><trkpt lat="-23.50727" lon="-46.439942"><ele>760.0</ele><time>2017-02-11T10:27:58Z</time></trkpt><trkpt lat="-23.507291" lon="-46.440071"><ele>759.0</ele><time>2017-02-11T10:28:03Z</time></trkpt><trkpt lat="-23.507345" lon="-46.44016"><ele>766.0</ele><time>2017-02-11T10:28:06Z</time></trkpt><trkpt lat="-23.507386" lon="-46.440252"><ele>772.0</ele><time>2017-02-11T10:28:15Z</time></trkpt><trkpt lat="-23.507451" lon="-46.440322"><ele>772.0</ele><time>2017-02-11T10:28:24Z</time></trkpt><trkpt lat="-23.507528" lon="-46.440414"><ele>761.0</ele><time>2017-02-11T10:28:35Z</time></trkpt><trkpt lat="-23.507593" lon="-46.440486"><ele>764.0</ele><time>2017-02-11T10:28:43Z</time></trkpt><trkpt lat="-23.50758" lon="-46.440586"><ele>766.0</ele><time>2017-02-11T10:29:18Z</time></trkpt><trkpt lat="-23.507595" lon="-46.440684"><ele>767.0</ele><time>2017-02-11T10:31:08Z</time></trkpt><trkpt lat="-23.507627" lon="-46.44078"><ele>770.0</ele><time>2017-02-11T10:31:31Z</time></trkpt><trkpt lat="-23.507634" lon="-46.440884"><ele>768.0</ele><time>2017-02-11T10:31:41Z</time></trkpt><trkpt lat="-23.507568" lon="-46.440961"><ele>764.0</ele><time>2017-02-11T10:32:01Z</time></trkpt><trkpt lat="-23.507627" lon="-46.441052"><ele>763.0</ele><time>2017-02-11T10:32:35Z</time></trkpt><trkpt lat="-23.50762" lon="-46.441156"><ele>765.0</ele><time>2017-02-11T10:32:38Z</time></trkpt><trkpt lat="-23.507648" lon="-46.441256"><ele>769.0</ele><time>2017-02-11T10:32:42Z</time></trkpt><trkpt lat="-23.507694" lon="-46.441359"><ele>767.0</ele><time>2017-02-11T10:32:48Z</time></trkpt><trkpt lat="-23.507724" lon="-46.44146"><ele>766.0</ele><time>2017-02-11T10:32:55Z</time></trkpt><trkpt lat="-23.507771" lon="-46.441552"><ele>771.0</ele><time>2017-02-11T10:33:01Z</time></trkpt><trkpt lat="-23.507788" lon="-46.441649"><ele>767.0</ele><time>2017-02-11T10:33:13Z</time></trkpt><trkpt lat="-23.507787" lon="-46.441749"><ele>768.0</ele><time>2017-02-11T10:33:22Z</time></trkpt><trkpt lat="-23.507799" lon="-46.441852"><ele>771.0</ele><time>2017-02-11T10:33:31Z</time></trkpt><trkpt lat="-23.50775" lon="-46.441946"><ele>774.0</ele><time>2017-02-11T10:34:26Z</time></trkpt><trkpt lat="-23.507819" lon="-46.442032"><ele>771.0</ele><time>2017-02-11T10:34:31Z</time></trkpt><trkpt lat="-23.507873" lon="-46.442109"><ele>769.0</ele><time>2017-02-11T10:34:49Z</time></trkpt><trkpt lat="-23.507907" lon="-46.442213"><ele>769.0</ele><time>2017-02-11T10:35:27Z</time></trkpt><trkpt lat="-23.507892" lon="-46.442318"><ele>772.0</ele><time>2017-02-11T10:35:36Z</time></trkpt><trkpt lat="-23.507852" lon="-46.442409"><ele>778.0</ele><time>2017-02-11T10:37:02Z</time></trkpt><trkpt lat="-23.507907" lon="-46.442497"><ele>774.0</ele><time>2017-02-11T10:39:21Z</time></trkpt><trkpt lat="-23.507948" lon="-46.442586"><ele>774.0</ele><time>2017-02-11T10:39:32Z</time></trkpt><trkpt lat="-23.508001" lon="-46.442675"><ele>772.0</ele><time>2017-02-11T10:39:45Z</time></trkpt><trkpt lat="-23.508031" lon="-46.442776"><ele>771.0</ele><time>2017-02-11T10:39:57Z</time></trkpt><trkpt lat="-23.508033" lon="-46.442883"><ele>772.0</ele><time>2017-02-11T10:40:09Z</time></trkpt><trkpt lat="-23.508057" lon="-46.442984"><ele>775.0</ele><time>2017-02-11T10:40:18Z</time></trkpt><trkpt lat="-23.508062" lon="-46.443084"><ele>780.0</ele><time>2017-02-11T10:40:27Z</time></trkpt><trkpt lat="-23.508094" lon="-46.443178"><ele>778.0</ele><time>2017-02-11T10:40:35Z</time></trkpt><trkpt lat="-23.508187" lon="-46.443199"><ele>776.0</ele><time>2017-02-11T10:41:24Z</time></trkpt><trkpt lat="-23.508279" lon="-46.443193"><ele>774.0</ele><time>2017-02-11T10:41:32Z</time></trkpt><trkpt lat="-23.508369" lon="-46.443205"><ele>777.0</ele><time>2017-02-11T10:41:38Z</time></trkpt><trkpt lat="-23.508463" lon="-46.443221"><ele>779.0</ele><time>2017-02-11T10:41:48Z</time></trkpt><trkpt lat="-23.508556" lon="-46.443231"><ele>777.0</ele><time>2017-02-11T10:41:59Z</time></trkpt><trkpt lat="-23.508653" lon="-46.443216"><ele>774.0</ele><time>2017-02-11T10:42:09Z</time></trkpt><trkpt lat="-23.508742" lon="-46.443233"><ele>770.0</ele><time>2017-02-11T10:42:27Z</time></trkpt><trkpt lat="-23.508841" lon="-46.443261"><ele>775.0</ele><time>2017-02-11T10:42:35Z</time></trkpt><trkpt lat="-23.508939" lon="-46.443277"><ele>777.0</ele><time>2017-02-11T10:42:45Z</time></trkpt><trkpt lat="-23.509038" lon="-46.443293"><ele>779.0</ele><time>2017-02-11T10:42:52Z</time></trkpt><trkpt lat="-23.509134" lon="-46.443324"><ele>782.0</ele><time>2017-02-11T10:43:02Z</time></trkpt><trkpt lat="-23.509227" lon="-46.443332"><ele>779.0</ele><time>2017-02-11T10:43:18Z</time></trkpt><trkpt lat="-23.509295" lon="-46.443267"><ele>778.0</ele><time>2017-02-11T10:43:36Z</time></trkpt><trkpt lat="-23.509387" lon="-46.443266"><ele>775.0</ele><time>2017-02-11T10:44:58Z</time></trkpt><trkpt lat="-23.509477" lon="-46.443292"><ele>775.0</ele><time>2017-02-11T10:45:08Z</time></trkpt><trkpt lat="-23.509575" lon="-46.443291"><ele>775.0</ele><time>2017-02-11T10:45:27Z</time></trkpt><trkpt lat="-23.509664" lon="-46.44332"><ele>772.0</ele><time>2017-02-11T10:45:37Z</time></trkpt><trkpt lat="-23.509758" lon="-46.443344"><ele>777.0</ele><time>2017-02-11T10:45:53Z</time></trkpt><trkpt lat="-23.509846" lon="-46.443369"><ele>775.0</ele><time>2017-02-11T10:45:57Z</time></trkpt><trkpt lat="-23.509939" lon="-46.443384"><ele>774.0</ele><time>2017-02-11T10:46:06Z</time></trkpt><trkpt lat="-23.510038" lon="-46.443396"><ele>782.0</ele><time>2017-02-11T10:46:16Z</time></trkpt><trkpt lat="-23.510125" lon="-46.443453"><ele>785.0</ele><time>2017-02-11T10:46:25Z</time></trkpt><trkpt lat="-23.510214" lon="-46.443471"><ele>787.0</ele><time>2017-02-11T10:46:32Z</time></trkpt><trkpt lat="-23.510312" lon="-46.443482"><ele>792.0</ele><time>2017-02-11T10:46:41Z</time></trkpt><trkpt lat="-23.510403" lon="-46.443491"><ele>791.0</ele><time>2017-02-11T10:46:51Z</time></trkpt><trkpt lat="-23.5105" lon="-46.443492"><ele>791.0</ele><time>2017-02-11T10:47:01Z</time></trkpt><trkpt lat="-23.510591" lon="-46.443503"><ele>785.0</ele><time>2017-02-11T10:47:09Z</time></trkpt><trkpt lat="-23.510682" lon="-46.443507"><ele>785.0</ele><time>2017-02-11T10:47:19Z</time></trkpt><trkpt lat="-23.510762" lon="-46.443455"><ele>778.0</ele><time>2017-02-11T10:47:30Z</time></trkpt><trkpt lat="-23.510858" lon="-46.443425"><ele>776.0</ele><time>2017-02-11T10:47:40Z</time></trkpt><trkpt lat="-23.51095" lon="-46.443447"><ele>774.0</ele><time>2017-02-11T10:47:48Z</time></trkpt><trkpt lat="-23.511045" lon="-46.443465"><ele>778.0</ele><time>2017-02-11T10:47:59Z</time></trkpt><trkpt lat="-23.511136" lon="-46.443496"><ele>778.0</ele><time>2017-02-11T10:48:07Z</time></trkpt><trkpt lat="-23.511227" lon="-46.443526"><ele>777.0</ele><time>2017-02-11T10:48:15Z</time></trkpt><trkpt lat="-23.511321" lon="-46.44354"><ele>781.0</ele><time>2017-02-11T10:48:25Z</time></trkpt><trkpt lat="-23.511415" lon="-46.443557"><ele>783.0</ele><time>2017-02-11T10:48:34Z</time></trkpt><trkpt lat="-23.511508" lon="-46.443566"><ele>781.0</ele><time>2017-02-11T10:48:44Z</time></trkpt><trkpt lat="-23.511598" lon="-46.443568"><ele>782.0</ele><time>2017-02-11T10:48:54Z</time></trkpt><trkpt lat="-23.511691" lon="-46.443549"><ele>770.0</ele><time>2017-02-11T10:49:05Z</time></trkpt><trkpt lat="-23.511702" lon="-46.443654"><ele>776.0</ele><time>2017-02-11T10:50:16Z</time></trkpt><trkpt lat="-23.511765" lon="-46.443736"><ele>777.0</ele><time>2017-02-11T11:01:28Z</time></trkpt><trkpt lat="-23.511861" lon="-46.443729"><ele>778.0</ele><time>2017-02-11T11:01:33Z</time></trkpt><trkpt lat="-23.511969" lon="-46.443721"><ele>776.0</ele><time>2017-02-11T11:01:39Z</time></trkpt><trkpt lat="-23.512059" lon="-46.443725"><ele>774.0</ele><time>2017-02-11T11:01:45Z</time></trkpt><trkpt lat="-23.512156" lon="-46.443736"><ele>773.0</ele><time>2017-02-11T11:01:53Z</time></trkpt><trkpt lat="-23.512251" lon="-46.443742"><ele>774.0</ele><time>2017-02-11T11:02:07Z</time></trkpt><trkpt lat="-23.512343" lon="-46.443731"><ele>775.0</ele><time>2017-02-11T11:02:19Z</time></trkpt><trkpt lat="-23.51243" lon="-46.443761"><ele>778.0</ele><time>2017-02-11T11:02:26Z</time></trkpt><trkpt lat="-23.512527" lon="-46.443806"><ele>782.0</ele><time>2017-02-11T11:02:32Z</time></trkpt><trkpt lat="-23.512625" lon="-46.443822"><ele>778.0</ele><time>2017-02-11T11:02:42Z</time></trkpt><trkpt lat="-23.512714" lon="-46.443788"><ele>778.0</ele><time>2017-02-11T11:02:51Z</time></trkpt><trkpt lat="-23.512809" lon="-46.443773"><ele>776.0</ele><time>2017-02-11T11:03:01Z</time></trkpt><trkpt lat="-23.512896" lon="-46.443805"><ele>778.0</ele><time>2017-02-11T11:03:14Z</time></trkpt><trkpt lat="-23.512987" lon="-46.443796"><ele>782.0</ele><time>2017-02-11T11:03:24Z</time></trkpt><trkpt lat="-23.513079" lon="-46.443844"><ele>777.0</ele><time>2017-02-11T11:05:11Z</time></trkpt><trkpt lat="-23.51317" lon="-46.443902"><ele>770.0</ele><time>2017-02-11T11:05:16Z</time></trkpt><trkpt lat="-23.513259" lon="-46.443932"><ele>769.0</ele><time>2017-02-11T11:05:21Z</time></trkpt><trkpt lat="-23.513349" lon="-46.443885"><ele>776.0</ele><time>2017-02-11T11:05:47Z</time></trkpt><trkpt lat="-23.513449" lon="-46.443882"><ele>773.0</ele><time>2017-02-11T11:05:54Z</time></trkpt><trkpt lat="-23.513534" lon="-46.443844"><ele>773.0</ele><time>2017-02-11T11:06:43Z</time></trkpt><trkpt lat="-23.513625" lon="-46.443847"><ele>770.0</ele><time>2017-02-11T11:06:52Z</time></trkpt><trkpt lat="-23.513722" lon="-46.44387"><ele>770.0</ele><time>2017-02-11T11:07:00Z</time></trkpt><trkpt lat="-23.513818" lon="-46.443888"><ele>773.0</ele><time>2017-02-11T11:07:07Z</time></trkpt><trkpt lat="-23.513919" lon="-46.443886"><ele>769.0</ele><time>2017-02-11T11:07:15Z</time></trkpt><trkpt lat="-23.514011" lon="-46.443887"><ele>771.0</ele><time>2017-02-11T11:07:23Z</time></trkpt><trkpt lat="-23.514099" lon="-46.443915"><ele>772.0</ele><time>2017-02-11T11:07:31Z</time></trkpt><trkpt lat="-23.514191" lon="-46.443908"><ele>776.0</ele><time>2017-02-11T11:07:38Z</time></trkpt><trkpt lat="-23.514289" lon="-46.443912"><ele>779.0</ele><time>2017-02-11T11:07:47Z</time></trkpt><trkpt lat="-23.514382" lon="-46.443933"><ele>777.0</ele><time>2017-02-11T11:07:56Z</time></trkpt><trkpt lat="-23.514483" lon="-46.443928"><ele>773.0</ele><time>2017-02-11T11:08:03Z</time></trkpt><trkpt lat="-23.514574" lon="-46.443958"><ele>770.0</ele><time>2017-02-11T11:08:12Z</time></trkpt><trkpt lat="-23.514665" lon="-46.44398"><ele>773.0</ele><time>2017-02-11T11:08:22Z</time></trkpt><trkpt lat="-23.514759" lon="-46.443956"><ele>773.0</ele><time>2017-02-11T11:08:31Z</time></trkpt><trkpt lat="-23.514855" lon="-46.443967"><ele>773.0</ele><time>2017-02-11T11:08:40Z</time></trkpt><trkpt lat="-23.514939" lon="-46.443915"><ele>772.0</ele><time>2017-02-11T11:08:51Z</time></trkpt><trkpt lat="-23.515038" lon="-46.443895"><ele>766.0</ele><time>2017-02-11T11:09:00Z</time></trkpt><trkpt lat="-23.515128" lon="-46.443889"><ele>767.0</ele><time>2017-02-11T11:09:09Z</time></trkpt><trkpt lat="-23.515221" lon="-46.443907"><ele>767.0</ele><time>2017-02-11T11:09:18Z</time></trkpt><trkpt lat="-23.51531" lon="-46.443865"><ele>773.0</ele><time>2017-02-11T11:09:29Z</time></trkpt><trkpt lat="-23.515404" lon="-46.443829"><ele>771.0</ele><time>2017-02-11T11:09:39Z</time></trkpt><trkpt lat="-23.515499" lon="-46.44383"><ele>769.0</ele><time>2017-02-11T11:09:49Z</time></trkpt><trkpt lat="-23.515593" lon="-46.443833"><ele>767.0</ele><time>2017-02-11T11:09:57Z</time></trkpt><trkpt lat="-23.515687" lon="-46.443836"><ele>771.0</ele><time>2017-02-11T11:10:05Z</time></trkpt><trkpt lat="-23.515775" lon="-46.443797"><ele>770.0</ele><time>2017-02-11T11:10:15Z</time></trkpt><trkpt lat="-23.515864" lon="-46.443828"><ele>769.0</ele><time>2017-02-11T11:10:27Z</time></trkpt><trkpt lat="-23.515947" lon="-46.443782"><ele>772.0</ele><time>2017-02-11T11:10:47Z</time></trkpt><trkpt lat="-23.516045" lon="-46.443756"><ele>773.0</ele><time>2017-02-11T11:10:56Z</time></trkpt><trkpt lat="-23.516136" lon="-46.443744"><ele>776.0</ele><time>2017-02-11T11:11:03Z</time></trkpt><trkpt lat="-23.516233" lon="-46.443728"><ele>778.0</ele><time>2017-02-11T11:11:12Z</time></trkpt><trkpt lat="-23.516327" lon="-46.443761"><ele>781.0</ele><time>2017-02-11T11:11:22Z</time></trkpt><trkpt lat="-23.516424" lon="-46.443787"><ele>779.0</ele><time>2017-02-11T11:11:32Z</time></trkpt><trkpt lat="-23.516516" lon="-46.443798"><ele>782.0</ele><time>2017-02-11T11:11:44Z</time></trkpt><trkpt lat="-23.516552" lon="-46.443699"><ele>781.0</ele><time>2017-02-11T11:12:05Z</time></trkpt><trkpt lat="-23.516643" lon="-46.443687"><ele>786.0</ele><time>2017-02-11T11:12:14Z</time></trkpt><trkpt lat="-23.516738" lon="-46.443701"><ele>788.0</ele><time>2017-02-11T11:12:24Z</time></trkpt><trkpt lat="-23.516829" lon="-46.443715"><ele>789.0</ele><time>2017-02-11T11:12:34Z</time></trkpt><trkpt lat="-23.516927" lon="-46.443716"><ele>787.0</ele><time>2017-02-11T11:12:46Z</time></trkpt><trkpt lat="-23.51702" lon="-46.443726"><ele>792.0</ele><time>2017-02-11T11:13:55Z</time></trkpt><trkpt lat="-23.51712" lon="-46.443728"><ele>792.0</ele><time>2017-02-11T11:14:04Z</time></trkpt><trkpt lat="-23.517218" lon="-46.443747"><ele>787.0</ele><time>2017-02-11T11:14:12Z</time></trkpt><trkpt lat="-23.517312" lon="-46.443748"><ele>785.0</ele><time>2017-02-11T11:14:21Z</time></trkpt><trkpt lat="-23.517402" lon="-46.443753"><ele>781.0</ele><time>2017-02-11T11:14:28Z</time></trkpt><trkpt lat="-23.517496" lon="-46.44376"><ele>784.0</ele><time>2017-02-11T11:14:35Z</time></trkpt><trkpt lat="-23.517588" lon="-46.443764"><ele>785.0</ele><time>2017-02-11T11:14:46Z</time></trkpt><trkpt lat="-23.517679" lon="-46.443793"><ele>786.0</ele><time>2017-02-11T11:14:56Z</time></trkpt><trkpt lat="-23.517776" lon="-46.443803"><ele>786.0</ele><time>2017-02-11T11:15:06Z</time></trkpt><trkpt lat="-23.517867" lon="-46.443828"><ele>788.0</ele><time>2017-02-11T11:15:13Z</time></trkpt><trkpt lat="-23.517955" lon="-46.443852"><ele>786.0</ele><time>2017-02-11T11:15:21Z</time></trkpt><trkpt lat="-23.518049" lon="-46.443856"><ele>785.0</ele><time>2017-02-11T11:15:32Z</time></trkpt><trkpt lat="-23.518139" lon="-46.443878"><ele>790.0</ele><time>2017-02-11T11:15:41Z</time></trkpt><trkpt lat="-23.518227" lon="-46.443904"><ele>791.0</ele><time>2017-02-11T11:15:53Z</time></trkpt><trkpt lat="-23.518317" lon="-46.443941"><ele>796.0</ele><time>2017-02-11T11:16:03Z</time></trkpt><trkpt lat="-23.518404" lon="-46.443973"><ele>798.0</ele><time>2017-02-11T11:16:10Z</time></trkpt><trkpt lat="-23.518501" lon="-46.443945"><ele>797.0</ele><time>2017-02-11T11:16:33Z</time></trkpt><trkpt lat="-23.518595" lon="-46.443933"><ele>794.0</ele><time>2017-02-11T11:16:40Z</time></trkpt><trkpt lat="-23.518687" lon="-46.443932"><ele>792.0</ele><time>2017-02-11T11:16:47Z</time></trkpt><trkpt lat="-23.518778" lon="-46.443963"><ele>793.0</ele><time>2017-02-11T11:16:55Z</time></trkpt><trkpt lat="-23.518869" lon="-46.443972"><ele>792.0</ele><time>2017-02-11T11:17:04Z</time></trkpt><trkpt lat="-23.518968" lon="-46.443972"><ele>791.0</ele><time>2017-02-11T11:17:30Z</time></trkpt><trkpt lat="-23.519059" lon="-46.44397"><ele>787.0</ele><time>2017-02-11T11:17:39Z</time></trkpt><trkpt lat="-23.519166" lon="-46.443986"><ele>790.0</ele><time>2017-02-11T11:17:48Z</time></trkpt><trkpt lat="-23.519257" lon="-46.44399"><ele>789.0</ele><time>2017-02-11T11:17:58Z</time></trkpt><trkpt lat="-23.519356" lon="-46.444001"><ele>786.0</ele><time>2017-02-11T11:18:08Z</time></trkpt><trkpt lat="-23.519446" lon="-46.444023"><ele>783.0</ele><time>2017-02-11T11:18:53Z</time></trkpt><trkpt lat="-23.519541" lon="-46.444022"><ele>784.0</ele><time>2017-02-11T11:19:03Z</time></trkpt><trkpt lat="-23.519638" lon="-46.44403"><ele>789.0</ele><time>2017-02-11T11:19:15Z</time></trkpt><trkpt lat="-23.519729" lon="-46.444023"><ele>791.0</ele><time>2017-02-11T11:19:27Z</time></trkpt><trkpt lat="-23.519822" lon="-46.444067"><ele>791.0</ele><time>2017-02-11T11:19:37Z</time></trkpt><trkpt lat="-23.519914" lon="-46.444083"><ele>792.0</ele><time>2017-02-11T11:19:45Z</time></trkpt><trkpt lat="-23.520009" lon="-46.444073"><ele>791.0</ele><time>2017-02-11T11:20:29Z</time></trkpt><trkpt lat="-23.520108" lon="-46.444094"><ele>791.0</ele><time>2017-02-11T11:20:38Z</time></trkpt><trkpt lat="-23.520201" lon="-46.444102"><ele>793.0</ele><time>2017-02-11T11:20:45Z</time></trkpt><trkpt lat="-23.520295" lon="-46.444109"><ele>794.0</ele><time>2017-02-11T11:20:53Z</time></trkpt><trkpt lat="-23.520388" lon="-46.444099"><ele>796.0</ele><time>2017-02-11T11:21:05Z</time></trkpt><trkpt lat="-23.520488" lon="-46.444119"><ele>801.0</ele><time>2017-02-11T11:21:13Z</time></trkpt><trkpt lat="-23.52058" lon="-46.444144"><ele>799.0</ele><time>2017-02-11T11:21:19Z</time></trkpt><trkpt lat="-23.520672" lon="-46.444135"><ele>799.0</ele><time>2017-02-11T11:21:28Z</time></trkpt><trkpt lat="-23.520764" lon="-46.444118"><ele>807.0</ele><time>2017-02-11T11:21:52Z</time></trkpt><trkpt lat="-23.520861" lon="-46.4441"><ele>805.0</ele><time>2017-02-11T11:22:00Z</time></trkpt><trkpt lat="-23.520962" lon="-46.444069"><ele>795.0</ele><time>2017-02-11T11:22:19Z</time></trkpt><trkpt lat="-23.521043" lon="-46.444006"><ele>788.0</ele><time>2017-02-11T11:22:25Z</time></trkpt><trkpt lat="-23.521135" lon="-46.443964"><ele>791.0</ele><time>2017-02-11T11:22:32Z</time></trkpt><trkpt lat="-23.521226" lon="-46.443928"><ele>793.0</ele><time>2017-02-11T11:22:40Z</time></trkpt><trkpt lat="-23.521295" lon="-46.443856"><ele>794.0</ele><time>2017-02-11T11:22:56Z</time></trkpt><trkpt lat="-23.521363" lon="-46.443775"><ele>788.0</ele><time>2017-02-11T11:23:04Z</time></trkpt><trkpt lat="-23.521438" lon="-46.443706"><ele>789.0</ele><time>2017-02-11T11:23:11Z</time></trkpt><trkpt lat="-23.521531" lon="-46.443664"><ele>793.0</ele><time>2017-02-11T11:23:19Z</time></trkpt><trkpt lat="-23.521622" lon="-46.443617"><ele>794.0</ele><time>2017-02-11T11:23:28Z</time></trkpt><trkpt lat="-23.521689" lon="-46.443545"><ele>793.0</ele><time>2017-02-11T11:23:36Z</time></trkpt><trkpt lat="-23.521776" lon="-46.443509"><ele>796.0</ele><time>2017-02-11T11:23:45Z</time></trkpt><trkpt lat="-23.521862" lon="-46.443466"><ele>791.0</ele><time>2017-02-11T11:23:54Z</time></trkpt><trkpt lat="-23.521945" lon="-46.44342"><ele>790.0</ele><time>2017-02-11T11:24:02Z</time></trkpt><trkpt lat="-23.522027" lon="-46.443366"><ele>792.0</ele><time>2017-02-11T11:24:12Z</time></trkpt><trkpt lat="-23.521984" lon="-46.443279"><ele>793.0</ele><time>2017-02-11T11:25:07Z</time></trkpt><trkpt lat="-23.521916" lon="-46.443208"><ele>793.0</ele><time>2017-02-11T11:25:14Z</time></trkpt><trkpt lat="-23.521831" lon="-46.443135"><ele>790.0</ele><time>2017-02-11T11:26:34Z</time></trkpt><trkpt lat="-23.521759" lon="-46.443071"><ele>795.0</ele><time>2017-02-11T11:26:39Z</time></trkpt><trkpt lat="-23.521673" lon="-46.443023"><ele>794.0</ele><time>2017-02-11T11:26:46Z</time></trkpt><trkpt lat="-23.521727" lon="-46.443117"><ele>798.0</ele><time>2017-02-11T11:27:30Z</time></trkpt><trkpt lat="-23.521811" lon="-46.443171"><ele>794.0</ele><time>2017-02-11T11:27:55Z</time></trkpt><trkpt lat="-23.5219" lon="-46.443229"><ele>794.0</ele><time>2017-02-11T11:28:26Z</time></trkpt><trkpt lat="-23.52197" lon="-46.443294"><ele>796.0</ele><time>2017-02-11T11:28:38Z</time></trkpt><trkpt lat="-23.522073" lon="-46.443309"><ele>794.0</ele><time>2017-02-11T11:28:57Z</time></trkpt><trkpt lat="-23.522172" lon="-46.443315"><ele>794.0</ele><time>2017-02-11T11:29:11Z</time></trkpt><trkpt lat="-23.522272" lon="-46.443309"><ele>792.0</ele><time>2017-02-11T11:30:11Z</time></trkpt><trkpt lat="-23.522375" lon="-46.443303"><ele>793.0</ele><time>2017-02-11T11:30:16Z</time></trkpt><trkpt lat="-23.52248" lon="-46.443321"><ele>797.0</ele><time>2017-02-11T11:30:22Z</time></trkpt><trkpt lat="-23.522577" lon="-46.443316"><ele>796.0</ele><time>2017-02-11T11:30:39Z</time></trkpt><trkpt lat="-23.522675" lon="-46.44332"><ele>794.0</ele><time>2017-02-11T11:30:48Z</time></trkpt><trkpt lat="-23.522767" lon="-46.443332"><ele>795.0</ele><time>2017-02-11T11:30:59Z</time></trkpt><trkpt lat="-23.522863" lon="-46.443371"><ele>801.0</ele><time>2017-02-11T11:31:09Z</time></trkpt><trkpt lat="-23.522951" lon="-46.443408"><ele>804.0</ele><time>2017-02-11T11:31:18Z</time></trkpt><trkpt lat="-23.523041" lon="-46.443457"><ele>802.0</ele><time>2017-02-11T11:31:27Z</time></trkpt><trkpt lat="-23.523137" lon="-46.443487"><ele>799.0</ele><time>2017-02-11T11:31:42Z</time></trkpt><trkpt lat="-23.523224" lon="-46.443523"><ele>799.0</ele><time>2017-02-11T11:31:49Z</time></trkpt><trkpt lat="-23.523322" lon="-46.44354"><ele>800.0</ele><time>2017-02-11T11:31:57Z</time></trkpt><trkpt lat="-23.523277" lon="-46.443452"><ele>794.0</ele><time>2017-02-11T11:33:35Z</time></trkpt><trkpt lat="-23.523175" lon="-46.443403"><ele>797.0</ele><time>2017-02-11T11:33:55Z</time></trkpt><trkpt lat="-23.523112" lon="-46.443481"><ele>801.0</ele><time>2017-02-11T11:34:04Z</time></trkpt><trkpt lat="-23.523203" lon="-46.443453"><ele>797.0</ele><time>2017-02-11T11:34:15Z</time></trkpt><trkpt lat="-23.523277" lon="-46.443379"><ele>796.0</ele><time>2017-02-11T11:35:47Z</time></trkpt><trkpt lat="-23.523303" lon="-46.443473"><ele>801.0</ele><time>2017-02-11T11:35:56Z</time></trkpt><trkpt lat="-23.523329" lon="-46.443568"><ele>804.0</ele><time>2017-02-11T11:36:05Z</time></trkpt><trkpt lat="-23.523387" lon="-46.443643"><ele>798.0</ele><time>2017-02-11T11:36:15Z</time></trkpt><trkpt lat="-23.523436" lon="-46.443729"><ele>801.0</ele><time>2017-02-11T11:36:27Z</time></trkpt><trkpt lat="-23.52348" lon="-46.443822"><ele>803.0</ele><time>2017-02-11T11:36:36Z</time></trkpt><trkpt lat="-23.523536" lon="-46.443906"><ele>803.0</ele><time>2017-02-11T11:36:46Z</time></trkpt><trkpt lat="-23.523568" lon="-46.444004"><ele>797.0</ele><time>2017-02-11T11:36:54Z</time></trkpt><trkpt lat="-23.523628" lon="-46.444078"><ele>797.0</ele><time>2017-02-11T11:37:03Z</time></trkpt><trkpt lat="-23.523692" lon="-46.444154"><ele>792.0</ele><time>2017-02-11T11:37:13Z</time></trkpt><trkpt lat="-23.523751" lon="-46.44424"><ele>791.0</ele><time>2017-02-11T11:37:24Z</time></trkpt><trkpt lat="-23.523817" lon="-46.444317"><ele>786.0</ele><time>2017-02-11T11:37:34Z</time></trkpt><trkpt lat="-23.523796" lon="-46.444415"><ele>780.0</ele><time>2017-02-11T11:37:56Z</time></trkpt><trkpt lat="-23.523698" lon="-46.444442"><ele>783.0</ele><time>2017-02-11T11:38:03Z</time></trkpt><trkpt lat="-23.523772" lon="-46.444499"><ele>791.0</ele><time>2017-02-11T11:39:27Z</time></trkpt><trkpt lat="-23.523856" lon="-46.444546"><ele>783.0</ele><time>2017-02-11T11:42:03Z</time></trkpt><trkpt lat="-23.523908" lon="-46.444636"><ele>783.0</ele><time>2017-02-11T11:42:11Z</time></trkpt><trkpt lat="-23.523943" lon="-46.444734"><ele>781.0</ele><time>2017-02-11T11:42:21Z</time></trkpt><trkpt lat="-23.523979" lon="-46.444834"><ele>780.0</ele><time>2017-02-11T11:42:30Z</time></trkpt><trkpt lat="-23.524057" lon="-46.444889"><ele>779.0</ele><time>2017-02-11T11:42:38Z</time></trkpt><trkpt lat="-23.524156" lon="-46.444908"><ele>780.0</ele><time>2017-02-11T11:42:48Z</time></trkpt><trkpt lat="-23.524203" lon="-46.444999"><ele>777.0</ele><time>2017-02-11T11:42:55Z</time></trkpt><trkpt lat="-23.524281" lon="-46.44507"><ele>777.0</ele><time>2017-02-11T11:43:04Z</time></trkpt><trkpt lat="-23.524344" lon="-46.44515"><ele>776.0</ele><time>2017-02-11T11:43:17Z</time></trkpt><trkpt lat="-23.52444" lon="-46.445174"><ele>777.0</ele><time>2017-02-11T11:43:28Z</time></trkpt><trkpt lat="-23.524537" lon="-46.445175"><ele>774.0</ele><time>2017-02-11T11:43:44Z</time></trkpt><trkpt lat="-23.524613" lon="-46.445228"><ele>778.0</ele><time>2017-02-11T11:43:58Z</time></trkpt><trkpt lat="-23.524695" lon="-46.445285"><ele>782.0</ele><time>2017-02-11T11:44:07Z</time></trkpt><trkpt lat="-23.524788" lon="-46.445321"><ele>775.0</ele><time>2017-02-11T11:44:15Z</time></trkpt><trkpt lat="-23.524876" lon="-46.445362"><ele>780.0</ele><time>2017-02-11T11:44:24Z</time></trkpt><trkpt lat="-23.524968" lon="-46.445387"><ele>784.0</ele><time>2017-02-11T11:44:35Z</time></trkpt><trkpt lat="-23.525045" lon="-46.445445"><ele>785.0</ele><time>2017-02-11T11:44:45Z</time></trkpt><trkpt lat="-23.525133" lon="-46.445476"><ele>788.0</ele><time>2017-02-11T11:44:59Z</time></trkpt><trkpt lat="-23.525227" lon="-46.44552"><ele>786.0</ele><time>2017-02-11T11:45:09Z</time></trkpt><trkpt lat="-23.525305" lon="-46.445577"><ele>789.0</ele><time>2017-02-11T11:45:17Z</time></trkpt><trkpt lat="-23.525392" lon="-46.44561"><ele>784.0</ele><time>2017-02-11T11:45:24Z</time></trkpt><trkpt lat="-23.525485" lon="-46.445616"><ele>785.0</ele><time>2017-02-11T11:45:32Z</time></trkpt><trkpt lat="-23.52555" lon="-46.445533"><ele>785.0</ele><time>2017-02-11T11:45:45Z</time></trkpt><trkpt lat="-23.525641" lon="-46.445557"><ele>785.0</ele><time>2017-02-11T11:45:54Z</time></trkpt><trkpt lat="-23.525722" lon="-46.445611"><ele>790.0</ele><time>2017-02-11T11:46:04Z</time></trkpt><trkpt lat="-23.525807" lon="-46.445657"><ele>798.0</ele><time>2017-02-11T11:46:13Z</time></trkpt><trkpt lat="-23.525864" lon="-46.445747"><ele>795.0</ele><time>2017-02-11T11:47:04Z</time></trkpt><trkpt lat="-23.525962" lon="-46.445764"><ele>800.0</ele><time>2017-02-11T11:47:22Z</time></trkpt><trkpt lat="-23.526048" lon="-46.445807"><ele>801.0</ele><time>2017-02-11T11:47:53Z</time></trkpt><trkpt lat="-23.526147" lon="-46.44577"><ele>799.0</ele><time>2017-02-11T11:47:58Z</time></trkpt><trkpt lat="-23.526214" lon="-46.445842"><ele>796.0</ele><time>2017-02-11T11:48:05Z</time></trkpt><trkpt lat="-23.526293" lon="-46.445893"><ele>791.0</ele><time>2017-02-11T11:48:15Z</time></trkpt><trkpt lat="-23.526379" lon="-46.445941"><ele>788.0</ele><time>2017-02-11T11:48:24Z</time></trkpt><trkpt lat="-23.526461" lon="-46.44599"><ele>791.0</ele><time>2017-02-11T11:48:32Z</time></trkpt><trkpt lat="-23.526541" lon="-46.446039"><ele>788.0</ele><time>2017-02-11T11:48:40Z</time></trkpt><trkpt lat="-23.526637" lon="-46.446044"><ele>784.0</ele><time>2017-02-11T11:48:49Z</time></trkpt><trkpt lat="-23.526728" lon="-46.446091"><ele>785.0</ele><time>2017-02-11T11:49:46Z</time></trkpt><trkpt lat="-23.526802" lon="-46.446157"><ele>788.0</ele><time>2017-02-11T11:49:53Z</time></trkpt><trkpt lat="-23.526901" lon="-46.44619"><ele>790.0</ele><time>2017-02-11T11:50:01Z</time></trkpt><trkpt lat="-23.526994" lon="-46.446194"><ele>790.0</ele><time>2017-02-11T11:50:12Z</time></trkpt><trkpt lat="-23.527083" lon="-46.446214"><ele>790.0</ele><time>2017-02-11T11:50:24Z</time></trkpt><trkpt lat="-23.527183" lon="-46.446264"><ele>789.0</ele><time>2017-02-11T11:50:38Z</time></trkpt><trkpt lat="-23.527267" lon="-46.446312"><ele>787.0</ele><time>2017-02-11T11:50:44Z</time></trkpt><trkpt lat="-23.527333" lon="-46.44639"><ele>785.0</ele><time>2017-02-11T11:51:27Z</time></trkpt><trkpt lat="-23.527396" lon="-46.44647"><ele>784.0</ele><time>2017-02-11T11:51:38Z</time></trkpt><trkpt lat="-23.527485" lon="-46.446502"><ele>780.0</ele><time>2017-02-11T11:51:59Z</time></trkpt><trkpt lat="-23.527565" lon="-46.446455"><ele>777.0</ele><time>2017-02-11T11:52:04Z</time></trkpt><trkpt lat="-23.527658" lon="-46.446427"><ele>776.0</ele><time>2017-02-11T11:52:14Z</time></trkpt><trkpt lat="-23.527723" lon="-46.446355"><ele>768.0</ele><time>2017-02-11T11:52:22Z</time></trkpt><trkpt lat="-23.527746" lon="-46.44625"><ele>774.0</ele><time>2017-02-11T11:52:40Z</time></trkpt><trkpt lat="-23.52781" lon="-46.446177"><ele>777.0</ele><time>2017-02-11T11:52:55Z</time></trkpt><trkpt lat="-23.527887" lon="-46.446113"><ele>775.0</ele><time>2017-02-11T11:54:16Z</time></trkpt><trkpt lat="-23.52797" lon="-46.446058"><ele>773.0</ele><time>2017-02-11T11:54:23Z</time></trkpt><trkpt lat="-23.52805" lon="-46.446012"><ele>773.0</ele><time>2017-02-11T11:55:10Z</time></trkpt><trkpt lat="-23.528139" lon="-46.445988"><ele>776.0</ele><time>2017-02-11T11:58:45Z</time></trkpt><trkpt lat="-23.528218" lon="-46.445922"><ele>773.0</ele><time>2017-02-11T12:09:02Z</time></trkpt><trkpt lat="-23.528303" lon="-46.445869"><ele>776.0</ele><time>2017-02-11T12:09:12Z</time></trkpt><trkpt lat="-23.528383" lon="-46.445813"><ele>776.0</ele><time>2017-02-11T12:09:20Z</time></trkpt><trkpt lat="-23.528466" lon="-46.445762"><ele>777.0</ele><time>2017-02-11T12:09:30Z</time></trkpt><trkpt lat="-23.528546" lon="-46.445708"><ele>777.0</ele><time>2017-02-11T12:09:40Z</time></trkpt><trkpt lat="-23.528628" lon="-46.445653"><ele>777.0</ele><time>2017-02-11T12:09:52Z</time></trkpt><trkpt lat="-23.528688" lon="-46.445566"><ele>781.0</ele><time>2017-02-11T12:10:25Z</time></trkpt><trkpt lat="-23.528773" lon="-46.445515"><ele>784.0</ele><time>2017-02-11T12:10:30Z</time></trkpt><trkpt lat="-23.528862" lon="-46.44549"><ele>784.0</ele><time>2017-02-11T12:10:36Z</time></trkpt><trkpt lat="-23.52895" lon="-46.445445"><ele>778.0</ele><time>2017-02-11T12:10:43Z</time></trkpt><trkpt lat="-23.529008" lon="-46.445364"><ele>786.0</ele><time>2017-02-11T12:10:56Z</time></trkpt><trkpt lat="-23.529095" lon="-46.445334"><ele>785.0</ele><time>2017-02-11T12:11:10Z</time></trkpt><trkpt lat="-23.529169" lon="-46.445271"><ele>787.0</ele><time>2017-02-11T12:11:21Z</time></trkpt><trkpt lat="-23.52923" lon="-46.445192"><ele>790.0</ele><time>2017-02-11T12:11:34Z</time></trkpt><trkpt lat="-23.529309" lon="-46.44514"><ele>787.0</ele><time>2017-02-11T12:11:47Z</time></trkpt><trkpt lat="-23.529401" lon="-46.445114"><ele>787.0</ele><time>2017-02-11T12:11:58Z</time></trkpt><trkpt lat="-23.529475" lon="-46.44505"><ele>784.0</ele><time>2017-02-11T12:12:10Z</time></trkpt><trkpt lat="-23.529545" lon="-46.444975"><ele>784.0</ele><time>2017-02-11T12:12:21Z</time></trkpt><trkpt lat="-23.529622" lon="-46.444925"><ele>784.0</ele><time>2017-02-11T12:12:31Z</time></trkpt><trkpt lat="-23.529704" lon="-46.44488"><ele>789.0</ele><time>2017-02-11T12:12:44Z</time></trkpt><trkpt lat="-23.52977" lon="-46.444813"><ele>793.0</ele><time>2017-02-11T12:12:56Z</time></trkpt><trkpt lat="-23.529846" lon="-46.44475"><ele>792.0</ele><time>2017-02-11T12:13:06Z</time></trkpt><trkpt lat="-23.529935" lon="-46.444712"><ele>794.0</ele><time>2017-02-11T12:13:16Z</time></trkpt><trkpt lat="-23.530013" lon="-46.444646"><ele>793.0</ele><time>2017-02-11T12:13:28Z</time></trkpt><trkpt lat="-23.530094" lon="-46.444583"><ele>793.0</ele><time>2017-02-11T12:13:38Z</time></trkpt><trkpt lat="-23.530165" lon="-46.444519"><ele>793.0</ele><time>2017-02-11T12:13:49Z</time></trkpt><trkpt lat="-23.530238" lon="-46.444453"><ele>793.0</ele><time>2017-02-11T12:14:01Z</time></trkpt><trkpt lat="-23.530319" lon="-46.444409"><ele>796.0</ele><time>2017-02-11T12:14:19Z</time></trkpt><trkpt lat="-23.530391" lon="-46.444483"><ele>793.0</ele><time>2017-02-11T12:15:18Z</time></trkpt><trkpt lat="-23.530416" lon="-46.444581"><ele>793.0</ele><time>2017-02-11T12:15:27Z</time></trkpt><trkpt lat="-23.530477" lon="-46.44467"><ele>786.0</ele><time>2017-02-11T12:15:35Z</time></trkpt><trkpt lat="-23.530535" lon="-46.444754"><ele>785.0</ele><time>2017-02-11T12:15:44Z</time></trkpt><trkpt lat="-23.530583" lon="-46.444845"><ele>787.0</ele><time>2017-02-11T12:15:53Z</time></trkpt><trkpt lat="-23.530629" lon="-46.444933"><ele>788.0</ele><time>2017-02-11T12:16:04Z</time></trkpt><trkpt lat="-23.530682" lon="-46.445018"><ele>785.0</ele><time>2017-02-11T12:16:14Z</time></trkpt><trkpt lat="-23.530738" lon="-46.445098"><ele>784.0</ele><time>2017-02-11T12:16:26Z</time></trkpt><trkpt lat="-23.53083" lon="-46.445087"><ele>779.0</ele><time>2017-02-11T12:16:36Z</time></trkpt><trkpt lat="-23.530744" lon="-46.445129"><ele>777.0</ele><time>2017-02-11T12:16:46Z</time></trkpt><trkpt lat="-23.530831" lon="-46.445193"><ele>776.0</ele><time>2017-02-11T12:16:57Z</time></trkpt><trkpt lat="-23.530864" lon="-46.445294"><ele>785.0</ele><time>2017-02-11T12:17:06Z</time></trkpt><trkpt lat="-23.530908" lon="-46.445392"><ele>783.0</ele><time>2017-02-11T12:17:14Z</time></trkpt><trkpt lat="-23.530941" lon="-46.445493"><ele>782.0</ele><time>2017-02-11T12:17:23Z</time></trkpt><trkpt lat="-23.530996" lon="-46.445578"><ele>780.0</ele><time>2017-02-11T12:17:32Z</time></trkpt><trkpt lat="-23.531061" lon="-46.445658"><ele>783.0</ele><time>2017-02-11T12:17:42Z</time></trkpt><trkpt lat="-23.531109" lon="-46.445751"><ele>788.0</ele><time>2017-02-11T12:18:13Z</time></trkpt><trkpt lat="-23.531057" lon="-46.445832"><ele>785.0</ele><time>2017-02-11T12:18:24Z</time></trkpt><trkpt lat="-23.531119" lon="-46.445752"><ele>781.0</ele><time>2017-02-11T12:19:22Z</time></trkpt><trkpt lat="-23.531221" lon="-46.445768"><ele>784.0</ele><time>2017-02-11T12:20:34Z</time></trkpt><trkpt lat="-23.531296" lon="-46.445821"><ele>785.0</ele><time>2017-02-11T12:20:45Z</time></trkpt><trkpt lat="-23.53137" lon="-46.445887"><ele>785.0</ele><time>2017-02-11T12:20:55Z</time></trkpt><trkpt lat="-23.531396" lon="-46.44599"><ele>790.0</ele><time>2017-02-11T12:21:08Z</time></trkpt><trkpt lat="-23.531364" lon="-46.446097"><ele>798.0</ele><time>2017-02-11T12:21:33Z</time></trkpt><trkpt lat="-23.531413" lon="-46.446193"><ele>798.0</ele><time>2017-02-11T12:21:39Z</time></trkpt><trkpt lat="-23.531489" lon="-46.446255"><ele>795.0</ele><time>2017-02-11T12:21:45Z</time></trkpt><trkpt lat="-23.531521" lon="-46.446348"><ele>797.0</ele><time>2017-02-11T12:21:52Z</time></trkpt><trkpt lat="-23.53158" lon="-46.446432"><ele>801.0</ele><time>2017-02-11T12:22:11Z</time></trkpt><trkpt lat="-23.531653" lon="-46.446493"><ele>793.0</ele><time>2017-02-11T12:22:19Z</time></trkpt><trkpt lat="-23.531728" lon="-46.446555"><ele>799.0</ele><time>2017-02-11T12:22:26Z</time></trkpt><trkpt lat="-23.531819" lon="-46.446592"><ele>791.0</ele><time>2017-02-11T12:28:04Z</time></trkpt><trkpt lat="-23.531878" lon="-46.446676"><ele>790.0</ele><time>2017-02-11T12:28:13Z</time></trkpt><trkpt lat="-23.531894" lon="-46.446785"><ele>791.0</ele><time>2017-02-11T12:28:21Z</time></trkpt><trkpt lat="-23.531917" lon="-46.446885"><ele>792.0</ele><time>2017-02-11T12:28:27Z</time></trkpt><trkpt lat="-23.531965" lon="-46.446978"><ele>788.0</ele><time>2017-02-11T12:28:38Z</time></trkpt><trkpt lat="-23.532042" lon="-46.44704"><ele>784.0</ele><time>2017-02-11T12:28:46Z</time></trkpt><trkpt lat="-23.532115" lon="-46.447112"><ele>786.0</ele><time>2017-02-11T12:28:54Z</time></trkpt><trkpt lat="-23.532162" lon="-46.447203"><ele>785.0</ele><time>2017-02-11T12:29:02Z</time></trkpt><trkpt lat="-23.532233" lon="-46.447264"><ele>783.0</ele><time>2017-02-11T12:29:11Z</time></trkpt><trkpt lat="-23.532307" lon="-46.447325"><ele>782.0</ele><time>2017-02-11T12:29:19Z</time></trkpt><trkpt lat="-23.532349" lon="-46.447419"><ele>785.0</ele><time>2017-02-11T12:29:26Z</time></trkpt><trkpt lat="-23.532409" lon="-46.447498"><ele>785.0</ele><time>2017-02-11T12:29:33Z</time></trkpt><trkpt lat="-23.532475" lon="-46.447565"><ele>785.0</ele><time>2017-02-11T12:29:40Z</time></trkpt><trkpt lat="-23.532551" lon="-46.447621"><ele>783.0</ele><time>2017-02-11T12:29:48Z</time></trkpt><trkpt lat="-23.532587" lon="-46.447723"><ele>779.0</ele><time>2017-02-11T12:29:57Z</time></trkpt><trkpt lat="-23.532635" lon="-46.447816"><ele>780.0</ele><time>2017-02-11T12:30:05Z</time></trkpt><trkpt lat="-23.532664" lon="-46.44791"><ele>781.0</ele><time>2017-02-11T12:30:14Z</time></trkpt><trkpt lat="-23.532709" lon="-46.447998"><ele>780.0</ele><time>2017-02-11T12:30:23Z</time></trkpt><trkpt lat="-23.532753" lon="-46.448098"><ele>781.0</ele><time>2017-02-11T12:30:32Z</time></trkpt><trkpt lat="-23.532796" lon="-46.448184"><ele>777.0</ele><time>2017-02-11T12:30:41Z</time></trkpt><trkpt lat="-23.532853" lon="-46.448263"><ele>775.0</ele><time>2017-02-11T12:30:48Z</time></trkpt><trkpt lat="-23.532932" lon="-46.448321"><ele>773.0</ele><time>2017-02-11T12:30:58Z</time></trkpt><trkpt lat="-23.533001" lon="-46.4484"><ele>769.0</ele><time>2017-02-11T12:31:06Z</time></trkpt><trkpt lat="-23.533056" lon="-46.448495"><ele>768.0</ele><time>2017-02-11T12:31:13Z</time></trkpt><trkpt lat="-23.533058" lon="-46.448597"><ele>766.0</ele><time>2017-02-11T12:31:21Z</time></trkpt><trkpt lat="-23.533075" lon="-46.448697"><ele>768.0</ele><time>2017-02-11T12:31:30Z</time></trkpt><trkpt lat="-23.533134" lon="-46.448774"><ele>766.0</ele><time>2017-02-11T12:31:38Z</time></trkpt><trkpt lat="-23.53322" lon="-46.44882"><ele>763.0</ele><time>2017-02-11T12:31:45Z</time></trkpt><trkpt lat="-23.5333" lon="-46.44888"><ele>763.0</ele><time>2017-02-11T12:31:54Z</time></trkpt><trkpt lat="-23.53336" lon="-46.44897"><ele>764.0</ele><time>2017-02-11T12:32:05Z</time></trkpt><trkpt lat="-23.533398" lon="-46.44907"><ele>765.0</ele><time>2017-02-11T12:32:13Z</time></trkpt><trkpt lat="-23.533427" lon="-46.449165"><ele>762.0</ele><time>2017-02-11T12:32:21Z</time></trkpt><trkpt lat="-23.533484" lon="-46.44925"><ele>759.0</ele><time>2017-02-11T12:32:29Z</time></trkpt><trkpt lat="-23.533545" lon="-46.449326"><ele>756.0</ele><time>2017-02-11T12:32:38Z</time></trkpt><trkpt lat="-23.533583" lon="-46.449422"><ele>760.0</ele><time>2017-02-11T12:32:48Z</time></trkpt><trkpt lat="-23.533646" lon="-46.4495"><ele>760.0</ele><time>2017-02-11T12:33:22Z</time></trkpt><trkpt lat="-23.533712" lon="-46.449584"><ele>756.0</ele><time>2017-02-11T12:33:30Z</time></trkpt><trkpt lat="-23.533777" lon="-46.449666"><ele>757.0</ele><time>2017-02-11T12:33:37Z</time></trkpt><trkpt lat="-23.533823" lon="-46.449754"><ele>758.0</ele><time>2017-02-11T12:33:44Z</time></trkpt><trkpt lat="-23.533868" lon="-46.449848"><ele>756.0</ele><time>2017-02-11T12:33:53Z</time></trkpt><trkpt lat="-23.533916" lon="-46.449932"><ele>759.0</ele><time>2017-02-11T12:34:01Z</time></trkpt><trkpt lat="-23.533976" lon="-46.450014"><ele>760.0</ele><time>2017-02-11T12:34:11Z</time></trkpt><trkpt lat="-23.534022" lon="-46.450107"><ele>762.0</ele><time>2017-02-11T12:34:21Z</time></trkpt><trkpt lat="-23.534035" lon="-46.450215"><ele>762.0</ele><time>2017-02-11T12:34:31Z</time></trkpt><trkpt lat="-23.534059" lon="-46.450311"><ele>775.0</ele><time>2017-02-11T12:34:43Z</time></trkpt><trkpt lat="-23.534155" lon="-46.450273"><ele>769.0</ele><time>2017-02-11T12:35:07Z</time></trkpt><trkpt lat="-23.534217" lon="-46.450185"><ele>767.0</ele><time>2017-02-11T12:35:13Z</time></trkpt><trkpt lat="-23.534313" lon="-46.450182"><ele>766.0</ele><time>2017-02-11T12:35:19Z</time></trkpt><trkpt lat="-23.534377" lon="-46.450102"><ele>758.0</ele><time>2017-02-11T12:35:23Z</time></trkpt><trkpt lat="-23.53445" lon="-46.450029"><ele>763.0</ele><time>2017-02-11T12:35:31Z</time></trkpt><trkpt lat="-23.534516" lon="-46.449944"><ele>763.0</ele><time>2017-02-11T12:35:40Z</time></trkpt><trkpt lat="-23.534588" lon="-46.44988"><ele>762.0</ele><time>2017-02-11T12:35:50Z</time></trkpt><trkpt lat="-23.534677" lon="-46.449839"><ele>760.0</ele><time>2017-02-11T12:36:03Z</time></trkpt><trkpt lat="-23.534749" lon="-46.44978"><ele>760.0</ele><time>2017-02-11T12:36:11Z</time></trkpt><trkpt lat="-23.534822" lon="-46.449713"><ele>753.0</ele><time>2017-02-11T12:36:23Z</time></trkpt><trkpt lat="-23.534908" lon="-46.449653"><ele>754.0</ele><time>2017-02-11T12:36:31Z</time></trkpt><trkpt lat="-23.534998" lon="-46.449635"><ele>759.0</ele><time>2017-02-11T12:36:59Z</time></trkpt><trkpt lat="-23.535047" lon="-46.449552"><ele>758.0</ele><time>2017-02-11T12:37:11Z</time></trkpt><trkpt lat="-23.535144" lon="-46.449515"><ele>753.0</ele><time>2017-02-11T12:37:31Z</time></trkpt><trkpt lat="-23.535224" lon="-46.449457"><ele>754.0</ele><time>2017-02-11T12:37:35Z</time></trkpt><trkpt lat="-23.535302" lon="-46.4494"><ele>754.0</ele><time>2017-02-11T12:37:45Z</time></trkpt><trkpt lat="-23.535382" lon="-46.449351"><ele>754.0</ele><time>2017-02-11T12:37:53Z</time></trkpt><trkpt lat="-23.535466" lon="-46.449271"><ele>756.0</ele><time>2017-02-11T12:38:00Z</time></trkpt><trkpt lat="-23.535568" lon="-46.449199"><ele>757.0</ele><time>2017-02-11T12:38:06Z</time></trkpt><trkpt lat="-23.535654" lon="-46.44915"><ele>757.0</ele><time>2017-02-11T12:38:15Z</time></trkpt><trkpt lat="-23.535759" lon="-46.449143"><ele>757.0</ele><time>2017-02-11T12:38:38Z</time></trkpt><trkpt lat="-23.53583" lon="-46.449211"><ele>755.0</ele><time>2017-02-11T12:38:54Z</time></trkpt><trkpt lat="-23.535904" lon="-46.449271"><ele>751.0</ele><time>2017-02-11T12:39:03Z</time></trkpt><trkpt lat="-23.535973" lon="-46.449337"><ele>751.0</ele><time>2017-02-11T12:39:14Z</time></trkpt><trkpt lat="-23.536038" lon="-46.449411"><ele>755.0</ele><time>2017-02-11T12:39:28Z</time></trkpt><trkpt lat="-23.536124" lon="-46.449463"><ele>754.0</ele><time>2017-02-11T12:39:38Z</time></trkpt><trkpt lat="-23.536152" lon="-46.449564"><ele>756.0</ele><time>2017-02-11T12:40:17Z</time></trkpt><trkpt lat="-23.536196" lon="-46.449661"><ele>752.0</ele><time>2017-02-11T12:40:24Z</time></trkpt><trkpt lat="-23.536283" lon="-46.449687"><ele>747.0</ele><time>2017-02-11T12:40:29Z</time></trkpt><trkpt lat="-23.536364" lon="-46.449743"><ele>754.0</ele><time>2017-02-11T12:40:34Z</time></trkpt><trkpt lat="-23.536404" lon="-46.449847"><ele>751.0</ele><time>2017-02-11T12:40:42Z</time></trkpt><trkpt lat="-23.536455" lon="-46.449928"><ele>755.0</ele><time>2017-02-11T12:40:53Z</time></trkpt><trkpt lat="-23.536547" lon="-46.449918"><ele>763.0</ele><time>2017-02-11T12:41:23Z</time></trkpt><trkpt lat="-23.536614" lon="-46.449825"><ele>753.0</ele><time>2017-02-11T12:41:28Z</time></trkpt><trkpt lat="-23.536684" lon="-46.449755"><ele>756.0</ele><time>2017-02-11T12:41:32Z</time></trkpt><trkpt lat="-23.53676" lon="-46.449683"><ele>757.0</ele><time>2017-02-11T12:41:39Z</time></trkpt><trkpt lat="-23.536851" lon="-46.449639"><ele>756.0</ele><time>2017-02-11T12:41:48Z</time></trkpt><trkpt lat="-23.536906" lon="-46.449554"><ele>755.0</ele><time>2017-02-11T12:41:51Z</time></trkpt><trkpt lat="-23.53699" lon="-46.449506"><ele>759.0</ele><time>2017-02-11T12:41:58Z</time></trkpt><trkpt lat="-23.537015" lon="-46.449399"><ele>757.0</ele><time>2017-02-11T12:42:04Z</time></trkpt><trkpt lat="-23.537104" lon="-46.449365"><ele>757.0</ele><time>2017-02-11T12:42:19Z</time></trkpt><trkpt lat="-23.537205" lon="-46.449368"><ele>758.0</ele><time>2017-02-11T12:42:29Z</time></trkpt><trkpt lat="-23.537296" lon="-46.449337"><ele>756.0</ele><time>2017-02-11T12:43:27Z</time></trkpt><trkpt lat="-23.53738" lon="-46.449282"><ele>754.0</ele><time>2017-02-11T12:43:35Z</time></trkpt><trkpt lat="-23.537466" lon="-46.449244"><ele>753.0</ele><time>2017-02-11T12:43:48Z</time></trkpt><trkpt lat="-23.537538" lon="-46.449171"><ele>760.0</ele><time>2017-02-11T12:45:07Z</time></trkpt><trkpt lat="-23.53762" lon="-46.449102"><ele>760.0</ele><time>2017-02-11T12:45:13Z</time></trkpt><trkpt lat="-23.537685" lon="-46.449016"><ele>754.0</ele><time>2017-02-11T12:45:19Z</time></trkpt><trkpt lat="-23.537763" lon="-46.448965"><ele>756.0</ele><time>2017-02-11T12:45:25Z</time></trkpt><trkpt lat="-23.53784" lon="-46.448907"><ele>752.0</ele><time>2017-02-11T12:45:35Z</time></trkpt><trkpt lat="-23.537928" lon="-46.448871"><ele>757.0</ele><time>2017-02-11T12:45:45Z</time></trkpt><trkpt lat="-23.538017" lon="-46.448839"><ele>757.0</ele><time>2017-02-11T12:46:07Z</time></trkpt><trkpt lat="-23.538073" lon="-46.448751"><ele>757.0</ele><time>2017-02-11T12:46:13Z</time></trkpt><trkpt lat="-23.538148" lon="-46.448695"><ele>759.0</ele><time>2017-02-11T12:46:24Z</time></trkpt><trkpt lat="-23.538242" lon="-46.448669"><ele>762.0</ele><time>2017-02-11T12:46:38Z</time></trkpt><trkpt lat="-23.538275" lon="-46.448567"><ele>757.0</ele><time>2017-02-11T12:46:47Z</time></trkpt><trkpt lat="-23.538356" lon="-46.448516"><ele>748.0</ele><time>2017-02-11T12:46:57Z</time></trkpt><trkpt lat="-23.538438" lon="-46.448468"><ele>744.0</ele><time>2017-02-11T12:47:09Z</time></trkpt><trkpt lat="-23.538523" lon="-46.44842"><ele>747.0</ele><time>2017-02-11T12:47:20Z</time></trkpt><trkpt lat="-23.538605" lon="-46.448375"><ele>757.0</ele><time>2017-02-11T12:47:27Z</time></trkpt><trkpt lat="-23.538685" lon="-46.448317"><ele>758.0</ele><time>2017-02-11T12:47:35Z</time></trkpt><trkpt lat="-23.538767" lon="-46.448257"><ele>754.0</ele><time>2017-02-11T12:48:45Z</time></trkpt><trkpt lat="-23.53884" lon="-46.448197"><ele>754.0</ele><time>2017-02-11T12:48:51Z</time></trkpt><trkpt lat="-23.538917" lon="-46.448144"><ele>756.0</ele><time>2017-02-11T12:49:02Z</time></trkpt><trkpt lat="-23.538993" lon="-46.448082"><ele>756.0</ele><time>2017-02-11T12:49:28Z</time></trkpt><trkpt lat="-23.539072" lon="-46.448024"><ele>757.0</ele><time>2017-02-11T12:49:37Z</time></trkpt><trkpt lat="-23.539159" lon="-46.447995"><ele>757.0</ele><time>2017-02-11T12:50:05Z</time></trkpt><trkpt lat="-23.539251" lon="-46.447961"><ele>757.0</ele><time>2017-02-11T12:50:16Z</time></trkpt><trkpt lat="-23.539345" lon="-46.447923"><ele>759.0</ele><time>2017-02-11T12:50:30Z</time></trkpt><trkpt lat="-23.539447" lon="-46.44792"><ele>760.0</ele><time>2017-02-11T12:51:30Z</time></trkpt><trkpt lat="-23.539533" lon="-46.447867"><ele>768.0</ele><time>2017-02-11T12:51:38Z</time></trkpt><trkpt lat="-23.539594" lon="-46.447778"><ele>767.0</ele><time>2017-02-11T12:51:46Z</time></trkpt><trkpt lat="-23.539668" lon="-46.447704"><ele>761.0</ele><time>2017-02-11T12:51:53Z</time></trkpt><trkpt lat="-23.53972" lon="-46.447616"><ele>764.0</ele><time>2017-02-11T12:52:01Z</time></trkpt><trkpt lat="-23.539792" lon="-46.447549"><ele>761.0</ele><time>2017-02-11T12:52:10Z</time></trkpt><trkpt lat="-23.539859" lon="-46.447626"><ele>764.0</ele><time>2017-02-11T12:52:34Z</time></trkpt><trkpt lat="-23.53989" lon="-46.44773"><ele>761.0</ele><time>2017-02-11T12:52:45Z</time></trkpt><trkpt lat="-23.539979" lon="-46.447774"><ele>758.0</ele><time>2017-02-11T12:53:03Z</time></trkpt><trkpt lat="-23.540022" lon="-46.447874"><ele>756.0</ele><time>2017-02-11T12:53:11Z</time></trkpt><trkpt lat="-23.540079" lon="-46.447952"><ele>757.0</ele><time>2017-02-11T12:53:17Z</time></trkpt><trkpt lat="-23.540116" lon="-46.448056"><ele>758.0</ele><time>2017-02-11T12:53:30Z</time></trkpt><trkpt lat="-23.540158" lon="-46.44815"><ele>758.0</ele><time>2017-02-11T12:53:37Z</time></trkpt><trkpt lat="-23.5402" lon="-46.448242"><ele>758.0</ele><time>2017-02-11T12:53:44Z</time></trkpt><trkpt lat="-23.54027" lon="-46.448303"><ele>755.0</ele><time>2017-02-11T12:53:51Z</time></trkpt><trkpt lat="-23.54034" lon="-46.448367"><ele>750.0</ele><time>2017-02-11T12:54:00Z</time></trkpt><trkpt lat="-23.540374" lon="-46.448458"><ele>752.0</ele><time>2017-02-11T12:54:09Z</time></trkpt><trkpt lat="-23.540404" lon="-46.448552"><ele>751.0</ele><time>2017-02-11T12:54:18Z</time></trkpt><trkpt lat="-23.54047" lon="-46.448625"><ele>751.0</ele><time>2017-02-11T12:54:27Z</time></trkpt><trkpt lat="-23.540517" lon="-46.448719"><ele>754.0</ele><time>2017-02-11T12:54:35Z</time></trkpt><trkpt lat="-23.54055" lon="-46.448817"><ele>753.0</ele><time>2017-02-11T12:54:44Z</time></trkpt><trkpt lat="-23.540593" lon="-46.448906"><ele>750.0</ele><time>2017-02-11T12:54:54Z</time></trkpt><trkpt lat="-23.54068" lon="-46.448945"><ele>752.0</ele><time>2017-02-11T12:55:02Z</time></trkpt><trkpt lat="-23.540767" lon="-46.448992"><ele>748.0</ele><time>2017-02-11T12:55:10Z</time></trkpt><trkpt lat="-23.54085" lon="-46.449032"><ele>750.0</ele><time>2017-02-11T12:55:22Z</time></trkpt><trkpt lat="-23.540887" lon="-46.449124"><ele>752.0</ele><time>2017-02-11T12:55:30Z</time></trkpt><trkpt lat="-23.540903" lon="-46.449223"><ele>754.0</ele><time>2017-02-11T12:55:38Z</time></trkpt><trkpt lat="-23.540982" lon="-46.449274"><ele>748.0</ele><time>2017-02-11T12:56:09Z</time></trkpt><trkpt lat="-23.54102" lon="-46.449374"><ele>750.0</ele><time>2017-02-11T12:57:19Z</time></trkpt><trkpt lat="-23.541071" lon="-46.449459"><ele>751.0</ele><time>2017-02-11T12:57:26Z</time></trkpt><trkpt lat="-23.541157" lon="-46.449497"><ele>747.0</ele><time>2017-02-11T12:57:33Z</time></trkpt><trkpt lat="-23.541257" lon="-46.449474"><ele>749.0</ele><time>2017-02-11T12:57:40Z</time></trkpt><trkpt lat="-23.541314" lon="-46.449397"><ele>748.0</ele><time>2017-02-11T12:57:50Z</time></trkpt><trkpt lat="-23.541411" lon="-46.449357"><ele>750.0</ele><time>2017-02-11T12:58:04Z</time></trkpt><trkpt lat="-23.541503" lon="-46.449318"><ele>743.0</ele><time>2017-02-11T12:58:10Z</time></trkpt><trkpt lat="-23.541594" lon="-46.449292"><ele>746.0</ele><time>2017-02-11T12:58:27Z</time></trkpt><trkpt lat="-23.54167" lon="-46.449233"><ele>744.0</ele><time>2017-02-11T12:58:39Z</time></trkpt><trkpt lat="-23.541759" lon="-46.449202"><ele>743.0</ele><time>2017-02-11T12:58:50Z</time></trkpt><trkpt lat="-23.541831" lon="-46.449142"><ele>751.0</ele><time>2017-02-11T13:01:14Z</time></trkpt><trkpt lat="-23.541918" lon="-46.449104"><ele>758.0</ele><time>2017-02-11T13:01:22Z</time></trkpt><trkpt lat="-23.54201" lon="-46.449057"><ele>757.0</ele><time>2017-02-11T13:01:29Z</time></trkpt><trkpt lat="-23.542091" lon="-46.449011"><ele>758.0</ele><time>2017-02-11T13:01:48Z</time></trkpt><trkpt lat="-23.542187" lon="-46.448977"><ele>751.0</ele><time>2017-02-11T13:02:21Z</time></trkpt><trkpt lat="-23.542267" lon="-46.448923"><ele>754.0</ele><time>2017-02-11T13:02:26Z</time></trkpt><trkpt lat="-23.542351" lon="-46.448866"><ele>753.0</ele><time>2017-02-11T13:02:33Z</time></trkpt><trkpt lat="-23.542429" lon="-46.44881"><ele>748.0</ele><time>2017-02-11T13:02:42Z</time></trkpt><trkpt lat="-23.542508" lon="-46.448747"><ele>746.0</ele><time>2017-02-11T13:02:51Z</time></trkpt><trkpt lat="-23.542588" lon="-46.448687"><ele>745.0</ele><time>2017-02-11T13:03:00Z</time></trkpt><trkpt lat="-23.542679" lon="-46.448658"><ele>741.0</ele><time>2017-02-11T13:03:11Z</time></trkpt><trkpt lat="-23.542759" lon="-46.448604"><ele>732.0</ele><time>2017-02-11T13:03:23Z</time></trkpt><trkpt lat="-23.542851" lon="-46.448606"><ele>743.0</ele><time>2017-02-11T13:03:38Z</time></trkpt><trkpt lat="-23.542903" lon="-46.448525"><ele>760.0</ele><time>2017-02-11T13:03:54Z</time></trkpt><trkpt lat="-23.542995" lon="-46.448502"><ele>754.0</ele><time>2017-02-11T13:04:13Z</time></trkpt><trkpt lat="-23.543087" lon="-46.448454"><ele>754.0</ele><time>2017-02-11T13:04:22Z</time></trkpt><trkpt lat="-23.543175" lon="-46.448426"><ele>752.0</ele><time>2017-02-11T13:04:30Z</time></trkpt><trkpt lat="-23.543268" lon="-46.448387"><ele>756.0</ele><time>2017-02-11T13:04:41Z</time></trkpt><trkpt lat="-23.543353" lon="-46.448343"><ele>751.0</ele><time>2017-02-11T13:04:50Z</time></trkpt><trkpt lat="-23.543442" lon="-46.44831"><ele>752.0</ele><time>2017-02-11T13:05:12Z</time></trkpt><trkpt lat="-23.54353" lon="-46.448262"><ele>748.0</ele><time>2017-02-11T13:05:20Z</time></trkpt><trkpt lat="-23.543612" lon="-46.448221"><ele>746.0</ele><time>2017-02-11T13:05:29Z</time></trkpt><trkpt lat="-23.543704" lon="-46.448186"><ele>753.0</ele><time>2017-02-11T13:05:38Z</time></trkpt><trkpt lat="-23.543784" lon="-46.448137"><ele>751.0</ele><time>2017-02-11T13:05:46Z</time></trkpt><trkpt lat="-23.543883" lon="-46.448142"><ele>749.0</ele><time>2017-02-11T13:05:58Z</time></trkpt><trkpt lat="-23.543904" lon="-46.448247"><ele>749.0</ele><time>2017-02-11T13:06:33Z</time></trkpt><trkpt lat="-23.543931" lon="-46.448346"><ele>745.0</ele><time>2017-02-11T13:06:44Z</time></trkpt><trkpt lat="-23.543955" lon="-46.448447"><ele>747.0</ele><time>2017-02-11T13:06:56Z</time></trkpt><trkpt lat="-23.544044" lon="-46.448488"><ele>758.0</ele><time>2017-02-11T13:07:43Z</time></trkpt><trkpt lat="-23.544137" lon="-46.448508"><ele>759.0</ele><time>2017-02-11T13:07:49Z</time></trkpt><trkpt lat="-23.54423" lon="-46.44853"><ele>757.0</ele><time>2017-02-11T13:07:57Z</time></trkpt><trkpt lat="-23.544324" lon="-46.448498"><ele>758.0</ele><time>2017-02-11T13:08:06Z</time></trkpt><trkpt lat="-23.544403" lon="-46.448547"><ele>760.0</ele><time>2017-02-11T13:08:11Z</time></trkpt><trkpt lat="-23.54445" lon="-46.448451"><ele>764.0</ele><time>2017-02-11T13:08:19Z</time></trkpt><trkpt lat="-23.544548" lon="-46.448442"><ele>766.0</ele><time>2017-02-11T13:08:31Z</time></trkpt><trkpt lat="-23.54464" lon="-46.44844"><ele>766.0</ele><time>2017-02-11T13:08:42Z</time></trkpt><trkpt lat="-23.544725" lon="-46.448399"><ele>767.0</ele><time>2017-02-11T13:08:54Z</time></trkpt><trkpt lat="-23.544819" lon="-46.448384"><ele>767.0</ele><time>2017-02-11T13:09:04Z</time></trkpt><trkpt lat="-23.544909" lon="-46.448352"><ele>764.0</ele><time>2017-02-11T13:09:12Z</time></trkpt><trkpt lat="-23.544989" lon="-46.448292"><ele>765.0</ele><time>2017-02-11T13:09:31Z</time></trkpt><trkpt lat="-23.545067" lon="-46.448244"><ele>765.0</ele><time>2017-02-11T13:09:38Z</time></trkpt><trkpt lat="-23.545141" lon="-46.448177"><ele>765.0</ele><time>2017-02-11T13:09:46Z</time></trkpt><trkpt lat="-23.545222" lon="-46.448108"><ele>762.0</ele><time>2017-02-11T13:09:54Z</time></trkpt><trkpt lat="-23.545291" lon="-46.448037"><ele>758.0</ele><time>2017-02-11T13:10:03Z</time></trkpt><trkpt lat="-23.545375" lon="-46.447985"><ele>756.0</ele><time>2017-02-11T13:10:10Z</time></trkpt><trkpt lat="-23.545461" lon="-46.447955"><ele>754.0</ele><time>2017-02-11T13:10:19Z</time></trkpt><trkpt lat="-23.545554" lon="-46.447937"><ele>762.0</ele><time>2017-02-11T13:10:29Z</time></trkpt><trkpt lat="-23.545654" lon="-46.447929"><ele>764.0</ele><time>2017-02-11T13:10:38Z</time></trkpt><trkpt lat="-23.545726" lon="-46.447857"><ele>761.0</ele><time>2017-02-11T13:11:24Z</time></trkpt><trkpt lat="-23.545817" lon="-46.447865"><ele>758.0</ele><time>2017-02-11T13:11:31Z</time></trkpt><trkpt lat="-23.545917" lon="-46.447886"><ele>755.0</ele><time>2017-02-11T13:11:38Z</time></trkpt><trkpt lat="-23.546007" lon="-46.447905"><ele>755.0</ele><time>2017-02-11T13:11:45Z</time></trkpt><trkpt lat="-23.546099" lon="-46.447901"><ele>756.0</ele><time>2017-02-11T13:11:55Z</time></trkpt><trkpt lat="-23.546188" lon="-46.44787"><ele>755.0</ele><time>2017-02-11T13:12:09Z</time></trkpt><trkpt lat="-23.546153" lon="-46.447774"><ele>752.0</ele><time>2017-02-11T13:12:46Z</time></trkpt><trkpt lat="-23.546245" lon="-46.447806"><ele>754.0</ele><time>2017-02-11T13:16:04Z</time></trkpt><trkpt lat="-23.546324" lon="-46.447857"><ele>758.0</ele><time>2017-02-11T13:16:11Z</time></trkpt><trkpt lat="-23.546405" lon="-46.447901"><ele>763.0</ele><time>2017-02-11T13:16:19Z</time></trkpt><trkpt lat="-23.546486" lon="-46.447959"><ele>760.0</ele><time>2017-02-11T13:16:49Z</time></trkpt><trkpt lat="-23.546582" lon="-46.447981"><ele>756.0</ele><time>2017-02-11T13:17:26Z</time></trkpt><trkpt lat="-23.546646" lon="-46.447904"><ele>757.0</ele><time>2017-02-11T13:17:33Z</time></trkpt><trkpt lat="-23.546718" lon="-46.447833"><ele>759.0</ele><time>2017-02-11T13:17:40Z</time></trkpt><trkpt lat="-23.546787" lon="-46.447755"><ele>759.0</ele><time>2017-02-11T13:17:49Z</time></trkpt><trkpt lat="-23.546881" lon="-46.447747"><ele>760.0</ele><time>2017-02-11T13:18:01Z</time></trkpt><trkpt lat="-23.546953" lon="-46.447819"><ele>760.0</ele><time>2017-02-11T13:18:10Z</time></trkpt><trkpt lat="-23.547029" lon="-46.447879"><ele>764.0</ele><time>2017-02-11T13:18:20Z</time></trkpt><trkpt lat="-23.547097" lon="-46.447951"><ele>761.0</ele><time>2017-02-11T13:18:32Z</time></trkpt><trkpt lat="-23.547189" lon="-46.447938"><ele>761.0</ele><time>2017-02-11T13:18:40Z</time></trkpt><trkpt lat="-23.547275" lon="-46.44797"><ele>772.0</ele><time>2017-02-11T13:18:52Z</time></trkpt><trkpt lat="-23.547352" lon="-46.448039"><ele>770.0</ele><time>2017-02-11T13:19:23Z</time></trkpt><trkpt lat="-23.547386" lon="-46.448133"><ele>775.0</ele><time>2017-02-11T13:19:32Z</time></trkpt><trkpt lat="-23.547458" lon="-46.448199"><ele>776.0</ele><time>2017-02-11T13:19:43Z</time></trkpt><trkpt lat="-23.547548" lon="-46.448213"><ele>775.0</ele><time>2017-02-11T13:19:53Z</time></trkpt><trkpt lat="-23.547643" lon="-46.448234"><ele>776.0</ele><time>2017-02-11T13:20:09Z</time></trkpt><trkpt lat="-23.547734" lon="-46.448277"><ele>782.0</ele><time>2017-02-11T13:20:17Z</time></trkpt><trkpt lat="-23.547802" lon="-46.448352"><ele>786.0</ele><time>2017-02-11T13:20:32Z</time></trkpt><trkpt lat="-23.547893" lon="-46.448385"><ele>790.0</ele><time>2017-02-11T13:20:46Z</time></trkpt><trkpt lat="-23.547975" lon="-46.448433"><ele>789.0</ele><time>2017-02-11T13:20:56Z</time></trkpt><trkpt lat="-23.548063" lon="-46.448463"><ele>780.0</ele><time>2017-02-11T13:21:08Z</time></trkpt><trkpt lat="-23.548137" lon="-46.448523"><ele>782.0</ele><time>2017-02-11T13:21:22Z</time></trkpt><trkpt lat="-23.548205" lon="-46.448597"><ele>787.0</ele><time>2017-02-11T13:21:32Z</time></trkpt><trkpt lat="-23.548284" lon="-46.448658"><ele>787.0</ele><time>2017-02-11T13:21:44Z</time></trkpt><trkpt lat="-23.548375" lon="-46.448682"><ele>789.0</ele><time>2017-02-11T13:22:17Z</time></trkpt><trkpt lat="-23.548454" lon="-46.44876"><ele>795.0</ele><time>2017-02-11T13:22:25Z</time></trkpt><trkpt lat="-23.548521" lon="-46.448829"><ele>796.0</ele><time>2017-02-11T13:22:33Z</time></trkpt><trkpt lat="-23.548606" lon="-46.448865"><ele>800.0</ele><time>2017-02-11T13:23:43Z</time></trkpt><trkpt lat="-23.548686" lon="-46.448917"><ele>806.0</ele><time>2017-02-11T13:23:56Z</time></trkpt><trkpt lat="-23.548777" lon="-46.448947"><ele>799.0</ele><time>2017-02-11T13:24:07Z</time></trkpt><trkpt lat="-23.548848" lon="-46.449012"><ele>794.0</ele><time>2017-02-11T13:24:17Z</time></trkpt><trkpt lat="-23.548917" lon="-46.449076"><ele>801.0</ele><time>2017-02-11T13:24:29Z</time></trkpt><trkpt lat="-23.549006" lon="-46.449104"><ele>790.0</ele><time>2017-02-11T13:24:38Z</time></trkpt><trkpt lat="-23.549043" lon="-46.449194"><ele>799.0</ele><time>2017-02-11T13:25:10Z</time></trkpt><trkpt lat="-23.549113" lon="-46.449258"><ele>793.0</ele><time>2017-02-11T13:27:01Z</time></trkpt><trkpt lat="-23.549215" lon="-46.449291"><ele>795.0</ele><time>2017-02-11T13:27:10Z</time></trkpt><trkpt lat="-23.549307" lon="-46.449274"><ele>797.0</ele><time>2017-02-11T13:27:15Z</time></trkpt><trkpt lat="-23.549308" lon="-46.449382"><ele>793.0</ele><time>2017-02-11T13:27:21Z</time></trkpt><trkpt lat="-23.549386" lon="-46.449441"><ele>793.0</ele><time>2017-02-11T13:27:29Z</time></trkpt><trkpt lat="-23.549457" lon="-46.449508"><ele>794.0</ele><time>2017-02-11T13:27:39Z</time></trkpt><trkpt lat="-23.549549" lon="-46.449529"><ele>799.0</ele><time>2017-02-11T13:27:47Z</time></trkpt><trkpt lat="-23.549638" lon="-46.449559"><ele>800.0</ele><time>2017-02-11T13:27:57Z</time></trkpt><trkpt lat="-23.54969" lon="-46.449648"><ele>803.0</ele><time>2017-02-11T13:28:08Z</time></trkpt><trkpt lat="-23.549637" lon="-46.449732"><ele>799.0</ele><time>2017-02-11T13:28:19Z</time></trkpt><trkpt lat="-23.549675" lon="-46.44964"><ele>804.0</ele><time>2017-02-11T13:28:28Z</time></trkpt><trkpt lat="-23.549771" lon="-46.449653"><ele>806.0</ele><time>2017-02-11T13:28:37Z</time></trkpt><trkpt lat="-23.549852" lon="-46.449701"><ele>806.0</ele><time>2017-02-11T13:28:45Z</time></trkpt><trkpt lat="-23.549919" lon="-46.449769"><ele>802.0</ele><time>2017-02-11T13:28:51Z</time></trkpt><trkpt lat="-23.549991" lon="-46.449837"><ele>800.0</ele><time>2017-02-11T13:29:01Z</time></trkpt><trkpt lat="-23.550082" lon="-46.449879"><ele>802.0</ele><time>2017-02-11T13:29:11Z</time></trkpt><trkpt lat="-23.550172" lon="-46.449908"><ele>801.0</ele><time>2017-02-11T13:29:20Z</time></trkpt><trkpt lat="-23.550268" lon="-46.449938"><ele>802.0</ele><time>2017-02-11T13:29:28Z</time></trkpt><trkpt lat="-23.550317" lon="-46.450024"><ele>802.0</ele><time>2017-02-11T13:29:37Z</time></trkpt><trkpt lat="-23.550411" lon="-46.450021"><ele>805.0</ele><time>2017-02-11T13:29:46Z</time></trkpt><trkpt lat="-23.550485" lon="-46.450092"><ele>804.0</ele><time>2017-02-11T13:29:55Z</time></trkpt><trkpt lat="-23.550528" lon="-46.450191"><ele>805.0</ele><time>2017-02-11T13:30:03Z</time></trkpt><trkpt lat="-23.550595" lon="-46.450266"><ele>805.0</ele><time>2017-02-11T13:30:13Z</time></trkpt><trkpt lat="-23.550675" lon="-46.450323"><ele>808.0</ele><time>2017-02-11T13:30:22Z</time></trkpt><trkpt lat="-23.550766" lon="-46.450343"><ele>803.0</ele><time>2017-02-11T13:31:28Z</time></trkpt><trkpt lat="-23.550845" lon="-46.450415"><ele>798.0</ele><time>2017-02-11T13:31:36Z</time></trkpt><trkpt lat="-23.550928" lon="-46.450469"><ele>803.0</ele><time>2017-02-11T13:31:43Z</time></trkpt><trkpt lat="-23.551021" lon="-46.450464"><ele>805.0</ele><time>2017-02-11T13:31:48Z</time></trkpt><trkpt lat="-23.551094" lon="-46.450533"><ele>804.0</ele><time>2017-02-11T13:31:55Z</time></trkpt><trkpt lat="-23.55116" lon="-46.450601"><ele>811.0</ele><time>2017-02-11T13:32:07Z</time></trkpt><trkpt lat="-23.551246" lon="-46.450663"><ele>809.0</ele><time>2017-02-11T13:32:16Z</time></trkpt><trkpt lat="-23.551323" lon="-46.450714"><ele>809.0</ele><time>2017-02-11T13:32:25Z</time></trkpt><trkpt lat="-23.551414" lon="-46.450744"><ele>809.0</ele><time>2017-02-11T13:32:34Z</time></trkpt><trkpt lat="-23.551467" lon="-46.450846"><ele>808.0</ele><time>2017-02-11T13:32:48Z</time></trkpt><trkpt lat="-23.551561" lon="-46.450882"><ele>813.0</ele><time>2017-02-11T13:32:56Z</time></trkpt><trkpt lat="-23.551645" lon="-46.450938"><ele>804.0</ele><time>2017-02-11T13:33:04Z</time></trkpt><trkpt lat="-23.551709" lon="-46.451009"><ele>808.0</ele><time>2017-02-11T13:33:11Z</time></trkpt><trkpt lat="-23.551775" lon="-46.451088"><ele>813.0</ele><time>2017-02-11T13:33:21Z</time></trkpt><trkpt lat="-23.551856" lon="-46.451151"><ele>807.0</ele><time>2017-02-11T13:33:36Z</time></trkpt><trkpt lat="-23.55194" lon="-46.451208"><ele>806.0</ele><time>2017-02-11T13:33:43Z</time></trkpt><trkpt lat="-23.552026" lon="-46.451282"><ele>805.0</ele><time>2017-02-11T13:33:52Z</time></trkpt><trkpt lat="-23.552113" lon="-46.451325"><ele>806.0</ele><time>2017-02-11T13:34:01Z</time></trkpt><trkpt lat="-23.552206" lon="-46.451367"><ele>803.0</ele><time>2017-02-11T13:34:11Z</time></trkpt><trkpt lat="-23.552279" lon="-46.451428"><ele>810.0</ele><time>2017-02-11T13:34:23Z</time></trkpt><trkpt lat="-23.552376" lon="-46.45145"><ele>809.0</ele><time>2017-02-11T13:34:34Z</time></trkpt><trkpt lat="-23.552462" lon="-46.451497"><ele>812.0</ele><time>2017-02-11T13:34:45Z</time></trkpt><trkpt lat="-23.55255" lon="-46.451534"><ele>812.0</ele><time>2017-02-11T13:34:53Z</time></trkpt><trkpt lat="-23.55261" lon="-46.451615"><ele>813.0</ele><time>2017-02-11T13:35:01Z</time></trkpt><trkpt lat="-23.552693" lon="-46.451667"><ele>810.0</ele><time>2017-02-11T13:35:08Z</time></trkpt><trkpt lat="-23.552771" lon="-46.451717"><ele>807.0</ele><time>2017-02-11T13:35:20Z</time></trkpt><trkpt lat="-23.552854" lon="-46.451767"><ele>814.0</ele><time>2017-02-11T13:35:32Z</time></trkpt><trkpt lat="-23.552932" lon="-46.451823"><ele>815.0</ele><time>2017-02-11T13:35:42Z</time></trkpt><trkpt lat="-23.553001" lon="-46.451904"><ele>810.0</ele><time>2017-02-11T13:35:52Z</time></trkpt><trkpt lat="-23.553091" lon="-46.451948"><ele>802.0</ele><time>2017-02-11T13:36:02Z</time></trkpt><trkpt lat="-23.553175" lon="-46.451995"><ele>801.0</ele><time>2017-02-11T13:36:14Z</time></trkpt><trkpt lat="-23.553268" lon="-46.452022"><ele>802.0</ele><time>2017-02-11T13:36:58Z</time></trkpt><trkpt lat="-23.553335" lon="-46.452091"><ele>801.0</ele><time>2017-02-11T13:37:09Z</time></trkpt><trkpt lat="-23.553414" lon="-46.452151"><ele>796.0</ele><time>2017-02-11T13:37:19Z</time></trkpt><trkpt lat="-23.553502" lon="-46.452193"><ele>795.0</ele><time>2017-02-11T13:37:31Z</time></trkpt><trkpt lat="-23.553584" lon="-46.452242"><ele>792.0</ele><time>2017-02-11T13:37:41Z</time></trkpt><trkpt lat="-23.55366" lon="-46.452301"><ele>791.0</ele><time>2017-02-11T13:37:51Z</time></trkpt><trkpt lat="-23.553735" lon="-46.452356"><ele>789.0</ele><time>2017-02-11T13:37:59Z</time></trkpt><trkpt lat="-23.553813" lon="-46.452417"><ele>789.0</ele><time>2017-02-11T13:38:10Z</time></trkpt><trkpt lat="-23.553896" lon="-46.452467"><ele>789.0</ele><time>2017-02-11T13:38:19Z</time></trkpt><trkpt lat="-23.553979" lon="-46.452527"><ele>787.0</ele><time>2017-02-11T13:38:29Z</time></trkpt><trkpt lat="-23.554056" lon="-46.452594"><ele>784.0</ele><time>2017-02-11T13:38:38Z</time></trkpt><trkpt lat="-23.554139" lon="-46.452638"><ele>786.0</ele><time>2017-02-11T13:38:46Z</time></trkpt><trkpt lat="-23.554209" lon="-46.452711"><ele>793.0</ele><time>2017-02-11T13:38:57Z</time></trkpt><trkpt lat="-23.554292" lon="-46.452754"><ele>790.0</ele><time>2017-02-11T13:39:05Z</time></trkpt><trkpt lat="-23.554361" lon="-46.452821"><ele>792.0</ele><time>2017-02-11T13:39:16Z</time></trkpt><trkpt lat="-23.554455" lon="-46.452845"><ele>790.0</ele><time>2017-02-11T13:39:27Z</time></trkpt><trkpt lat="-23.554532" lon="-46.452896"><ele>793.0</ele><time>2017-02-11T13:39:38Z</time></trkpt><trkpt lat="-23.554601" lon="-46.45297"><ele>793.0</ele><time>2017-02-11T13:39:50Z</time></trkpt><trkpt lat="-23.554673" lon="-46.453034"><ele>794.0</ele><time>2017-02-11T13:40:00Z</time></trkpt><trkpt lat="-23.554764" lon="-46.453089"><ele>791.0</ele><time>2017-02-11T13:40:22Z</time></trkpt><trkpt lat="-23.554839" lon="-46.453148"><ele>793.0</ele><time>2017-02-11T13:40:29Z</time></trkpt><trkpt lat="-23.554925" lon="-46.453202"><ele>797.0</ele><time>2017-02-11T13:40:42Z</time></trkpt><trkpt lat="-23.55497" lon="-46.453287"><ele>794.0</ele><time>2017-02-11T13:40:50Z</time></trkpt><trkpt lat="-23.555068" lon="-46.453326"><ele>804.0</ele><time>2017-02-11T13:41:02Z</time></trkpt><trkpt lat="-23.555109" lon="-46.453546"><ele>809.0</ele><time>2017-02-11T13:49:02Z</time></trkpt><trkpt lat="-23.555048" lon="-46.453438"><ele>803.0</ele><time>2017-02-11T13:49:03Z</time></trkpt><trkpt lat="-23.555142" lon="-46.453472"><ele>805.0</ele><time>2017-02-11T14:38:51Z</time></trkpt><trkpt lat="-23.555221" lon="-46.453414"><ele>804.0</ele><time>2017-02-11T14:59:16Z</time></trkpt><trkpt lat="-23.555317" lon="-46.453425"><ele>803.0</ele><time>2017-02-11T15:00:06Z</time></trkpt><trkpt lat="-23.555386" lon="-46.453502"><ele>805.0</ele><time>2017-02-11T15:00:15Z</time></trkpt><trkpt lat="-23.555463" lon="-46.453563"><ele>806.0</ele><time>2017-02-11T15:00:24Z</time></trkpt><trkpt lat="-23.55554" lon="-46.453626"><ele>806.0</ele><time>2017-02-11T15:00:32Z</time></trkpt><trkpt lat="-23.555623" lon="-46.453684"><ele>807.0</ele><time>2017-02-11T15:00:44Z</time></trkpt><trkpt lat="-23.555715" lon="-46.453722"><ele>807.0</ele><time>2017-02-11T15:00:53Z</time></trkpt><trkpt lat="-23.55578" lon="-46.453792"><ele>808.0</ele><time>2017-02-11T15:01:01Z</time></trkpt><trkpt lat="-23.55587" lon="-46.453817"><ele>807.0</ele><time>2017-02-11T15:01:08Z</time></trkpt><trkpt lat="-23.555956" lon="-46.453847"><ele>801.0</ele><time>2017-02-11T15:01:16Z</time></trkpt><trkpt lat="-23.556016" lon="-46.453926"><ele>804.0</ele><time>2017-02-11T15:01:24Z</time></trkpt><trkpt lat="-23.556093" lon="-46.453995"><ele>802.0</ele><time>2017-02-11T15:01:32Z</time></trkpt><trkpt lat="-23.556175" lon="-46.454054"><ele>804.0</ele><time>2017-02-11T15:01:41Z</time></trkpt><trkpt lat="-23.556258" lon="-46.454107"><ele>806.0</ele><time>2017-02-11T15:01:50Z</time></trkpt><trkpt lat="-23.556339" lon="-46.45416"><ele>802.0</ele><time>2017-02-11T15:02:02Z</time></trkpt><trkpt lat="-23.556426" lon="-46.454186"><ele>800.0</ele><time>2017-02-11T15:02:10Z</time></trkpt><trkpt lat="-23.556496" lon="-46.454264"><ele>804.0</ele><time>2017-02-11T15:02:19Z</time></trkpt><trkpt lat="-23.556545" lon="-46.454351"><ele>804.0</ele><time>2017-02-11T15:02:28Z</time></trkpt><trkpt lat="-23.556627" lon="-46.454398"><ele>808.0</ele><time>2017-02-11T15:02:37Z</time></trkpt><trkpt lat="-23.556719" lon="-46.45447"><ele>808.0</ele><time>2017-02-11T15:02:48Z</time></trkpt><trkpt lat="-23.556802" lon="-46.454508"><ele>815.0</ele><time>2017-02-11T15:02:58Z</time></trkpt><trkpt lat="-23.556892" lon="-46.454546"><ele>815.0</ele><time>2017-02-11T15:03:08Z</time></trkpt><trkpt lat="-23.556977" lon="-46.454603"><ele>812.0</ele><time>2017-02-11T15:03:18Z</time></trkpt><trkpt lat="-23.557056" lon="-46.454664"><ele>810.0</ele><time>2017-02-11T15:03:32Z</time></trkpt><trkpt lat="-23.557158" lon="-46.454725"><ele>806.0</ele><time>2017-02-11T15:03:40Z</time></trkpt><trkpt lat="-23.557238" lon="-46.454785"><ele>807.0</ele><time>2017-02-11T15:03:49Z</time></trkpt><trkpt lat="-23.557318" lon="-46.45484"><ele>806.0</ele><time>2017-02-11T15:03:57Z</time></trkpt><trkpt lat="-23.557399" lon="-46.454884"><ele>805.0</ele><time>2017-02-11T15:04:05Z</time></trkpt><trkpt lat="-23.55746" lon="-46.45496"><ele>804.0</ele><time>2017-02-11T15:04:14Z</time></trkpt><trkpt lat="-23.55751" lon="-46.455044"><ele>804.0</ele><time>2017-02-11T15:04:23Z</time></trkpt><trkpt lat="-23.557601" lon="-46.45506"><ele>805.0</ele><time>2017-02-11T15:04:31Z</time></trkpt><trkpt lat="-23.557707" lon="-46.455112"><ele>809.0</ele><time>2017-02-11T15:04:40Z</time></trkpt><trkpt lat="-23.557794" lon="-46.455139"><ele>810.0</ele><time>2017-02-11T15:04:51Z</time></trkpt><trkpt lat="-23.557872" lon="-46.455203"><ele>808.0</ele><time>2017-02-11T15:04:58Z</time></trkpt><trkpt lat="-23.557914" lon="-46.455291"><ele>812.0</ele><time>2017-02-11T15:05:07Z</time></trkpt><trkpt lat="-23.557998" lon="-46.455338"><ele>814.0</ele><time>2017-02-11T15:05:18Z</time></trkpt><trkpt lat="-23.558085" lon="-46.455384"><ele>811.0</ele><time>2017-02-11T15:05:26Z</time></trkpt><trkpt lat="-23.55818" lon="-46.455426"><ele>810.0</ele><time>2017-02-11T15:05:34Z</time></trkpt><trkpt lat="-23.55824" lon="-46.455502"><ele>812.0</ele><time>2017-02-11T15:05:42Z</time></trkpt><trkpt lat="-23.558292" lon="-46.455415"><ele>813.0</ele><time>2017-02-11T15:06:07Z</time></trkpt><trkpt lat="-23.558336" lon="-46.455328"><ele>814.0</ele><time>2017-02-11T15:06:26Z</time></trkpt><trkpt lat="-23.558396" lon="-46.455408"><ele>814.0</ele><time>2017-02-11T15:06:50Z</time></trkpt><trkpt lat="-23.558455" lon="-46.455493"><ele>812.0</ele><time>2017-02-11T15:06:59Z</time></trkpt><trkpt lat="-23.558537" lon="-46.455552"><ele>813.0</ele><time>2017-02-11T15:07:10Z</time></trkpt><trkpt lat="-23.558608" lon="-46.455612"><ele>814.0</ele><time>2017-02-11T15:07:21Z</time></trkpt><trkpt lat="-23.558665" lon="-46.45569"><ele>814.0</ele><time>2017-02-11T15:07:29Z</time></trkpt><trkpt lat="-23.55874" lon="-46.455752"><ele>814.0</ele><time>2017-02-11T15:07:37Z</time></trkpt><trkpt lat="-23.558828" lon="-46.455789"><ele>817.0</ele><time>2017-02-11T15:07:46Z</time></trkpt><trkpt lat="-23.558902" lon="-46.455852"><ele>817.0</ele><time>2017-02-11T15:07:55Z</time></trkpt><trkpt lat="-23.558988" lon="-46.455888"><ele>816.0</ele><time>2017-02-11T15:08:05Z</time></trkpt><trkpt lat="-23.559062" lon="-46.455959"><ele>817.0</ele><time>2017-02-11T15:08:15Z</time></trkpt><trkpt lat="-23.559137" lon="-46.456021"><ele>817.0</ele><time>2017-02-11T15:08:26Z</time></trkpt><trkpt lat="-23.559223" lon="-46.456053"><ele>816.0</ele><time>2017-02-11T15:08:35Z</time></trkpt><trkpt lat="-23.559317" lon="-46.456065"><ele>815.0</ele><time>2017-02-11T15:08:49Z</time></trkpt><trkpt lat="-23.559421" lon="-46.456069"><ele>812.0</ele><time>2017-02-11T15:08:58Z</time></trkpt><trkpt lat="-23.559513" lon="-46.456051"><ele>812.0</ele><time>2017-02-11T15:09:04Z</time></trkpt><trkpt lat="-23.559601" lon="-46.456011"><ele>819.0</ele><time>2017-02-11T15:09:12Z</time></trkpt><trkpt lat="-23.559688" lon="-46.45598"><ele>813.0</ele><time>2017-02-11T15:09:24Z</time></trkpt><trkpt lat="-23.559768" lon="-46.455927"><ele>815.0</ele><time>2017-02-11T15:09:58Z</time></trkpt><trkpt lat="-23.559851" lon="-46.455879"><ele>815.0</ele><time>2017-02-11T15:10:04Z</time></trkpt><trkpt lat="-23.559938" lon="-46.455831"><ele>815.0</ele><time>2017-02-11T15:10:12Z</time></trkpt><trkpt lat="-23.560009" lon="-46.455757"><ele>814.0</ele><time>2017-02-11T15:10:22Z</time></trkpt><trkpt lat="-23.560091" lon="-46.455714"><ele>815.0</ele><time>2017-02-11T15:10:29Z</time></trkpt><trkpt lat="-23.560179" lon="-46.455774"><ele>821.0</ele><time>2017-02-11T15:11:13Z</time></trkpt><trkpt lat="-23.560273" lon="-46.455753"><ele>817.0</ele><time>2017-02-11T15:11:21Z</time></trkpt><trkpt lat="-23.560372" lon="-46.45575"><ele>820.0</ele><time>2017-02-11T15:11:29Z</time></trkpt><trkpt lat="-23.560464" lon="-46.45575"><ele>819.0</ele><time>2017-02-11T15:11:36Z</time></trkpt><trkpt lat="-23.560558" lon="-46.455785"><ele>824.0</ele><time>2017-02-11T15:11:45Z</time></trkpt><trkpt lat="-23.560655" lon="-46.455751"><ele>819.0</ele><time>2017-02-11T15:12:03Z</time></trkpt><trkpt lat="-23.56075" lon="-46.455789"><ele>818.0</ele><time>2017-02-11T15:13:07Z</time></trkpt><trkpt lat="-23.560842" lon="-46.455799"><ele>817.0</ele><time>2017-02-11T15:13:15Z</time></trkpt><trkpt lat="-23.56093" lon="-46.455826"><ele>820.0</ele><time>2017-02-11T15:13:23Z</time></trkpt><trkpt lat="-23.561021" lon="-46.455841"><ele>819.0</ele><time>2017-02-11T15:13:31Z</time></trkpt><trkpt lat="-23.561122" lon="-46.455831"><ele>822.0</ele><time>2017-02-11T15:13:41Z</time></trkpt><trkpt lat="-23.561209" lon="-46.455861"><ele>825.0</ele><time>2017-02-11T15:13:49Z</time></trkpt><trkpt lat="-23.561305" lon="-46.455886"><ele>823.0</ele><time>2017-02-11T15:14:00Z</time></trkpt><trkpt lat="-23.561398" lon="-46.455898"><ele>824.0</ele><time>2017-02-11T15:14:10Z</time></trkpt><trkpt lat="-23.561498" lon="-46.455902"><ele>828.0</ele><time>2017-02-11T15:14:18Z</time></trkpt><trkpt lat="-23.561598" lon="-46.455903"><ele>830.0</ele><time>2017-02-11T15:14:31Z</time></trkpt><trkpt lat="-23.561688" lon="-46.455931"><ele>829.0</ele><time>2017-02-11T15:14:39Z</time></trkpt><trkpt lat="-23.561779" lon="-46.455962"><ele>827.0</ele><time>2017-02-11T15:14:50Z</time></trkpt><trkpt lat="-23.561874" lon="-46.455984"><ele>831.0</ele><time>2017-02-11T15:14:59Z</time></trkpt><trkpt lat="-23.56197" lon="-46.45598"><ele>830.0</ele><time>2017-02-11T15:15:08Z</time></trkpt><trkpt lat="-23.56207" lon="-46.45601"><ele>827.0</ele><time>2017-02-11T15:15:18Z</time></trkpt><trkpt lat="-23.562164" lon="-46.456035"><ele>828.0</ele><time>2017-02-11T15:15:29Z</time></trkpt><trkpt lat="-23.562258" lon="-46.456069"><ele>829.0</ele><time>2017-02-11T15:15:39Z</time></trkpt><trkpt lat="-23.562351" lon="-46.456087"><ele>830.0</ele><time>2017-02-11T15:15:48Z</time></trkpt><trkpt lat="-23.562444" lon="-46.456085"><ele>832.0</ele><time>2017-02-11T15:15:57Z</time></trkpt><trkpt lat="-23.562541" lon="-46.456094"><ele>837.0</ele><time>2017-02-11T15:16:12Z</time></trkpt><trkpt lat="-23.56264" lon="-46.456103"><ele>836.0</ele><time>2017-02-11T15:16:21Z</time></trkpt><trkpt lat="-23.562737" lon="-46.456099"><ele>838.0</ele><time>2017-02-11T15:16:34Z</time></trkpt><trkpt lat="-23.562827" lon="-46.456135"><ele>836.0</ele><time>2017-02-11T15:16:45Z</time></trkpt><trkpt lat="-23.562922" lon="-46.456147"><ele>838.0</ele><time>2017-02-11T15:16:57Z</time></trkpt><trkpt lat="-23.563017" lon="-46.456162"><ele>835.0</ele><time>2017-02-11T15:17:25Z</time></trkpt><trkpt lat="-23.563108" lon="-46.456171"><ele>833.0</ele><time>2017-02-11T15:17:33Z</time></trkpt><trkpt lat="-23.563198" lon="-46.456189"><ele>833.0</ele><time>2017-02-11T15:18:20Z</time></trkpt><trkpt lat="-23.563254" lon="-46.456274"><ele>833.0</ele><time>2017-02-11T15:18:30Z</time></trkpt><trkpt lat="-23.563345" lon="-46.456326"><ele>821.0</ele><time>2017-02-11T15:18:57Z</time></trkpt><trkpt lat="-23.563439" lon="-46.456395"><ele>817.0</ele><time>2017-02-11T15:19:01Z</time></trkpt><trkpt lat="-23.563523" lon="-46.45644"><ele>820.0</ele><time>2017-02-11T15:19:08Z</time></trkpt><trkpt lat="-23.563609" lon="-46.456475"><ele>819.0</ele><time>2017-02-11T15:19:14Z</time></trkpt><trkpt lat="-23.563704" lon="-46.456509"><ele>819.0</ele><time>2017-02-11T15:19:22Z</time></trkpt><trkpt lat="-23.56378" lon="-46.456572"><ele>819.0</ele><time>2017-02-11T15:19:32Z</time></trkpt><trkpt lat="-23.56387" lon="-46.456612"><ele>820.0</ele><time>2017-02-11T15:19:41Z</time></trkpt><trkpt lat="-23.563958" lon="-46.456633"><ele>818.0</ele><time>2017-02-11T15:19:49Z</time></trkpt><trkpt lat="-23.564054" lon="-46.456658"><ele>817.0</ele><time>2017-02-11T15:19:57Z</time></trkpt><trkpt lat="-23.564128" lon="-46.456714"><ele>818.0</ele><time>2017-02-11T15:20:08Z</time></trkpt><trkpt lat="-23.564206" lon="-46.456775"><ele>819.0</ele><time>2017-02-11T15:20:19Z</time></trkpt><trkpt lat="-23.564293" lon="-46.45682"><ele>822.0</ele><time>2017-02-11T15:20:30Z</time></trkpt><trkpt lat="-23.564374" lon="-46.45687"><ele>817.0</ele><time>2017-02-11T15:20:39Z</time></trkpt><trkpt lat="-23.564463" lon="-46.456892"><ele>816.0</ele><time>2017-02-11T15:21:00Z</time></trkpt><trkpt lat="-23.564557" lon="-46.456939"><ele>814.0</ele><time>2017-02-11T15:21:09Z</time></trkpt><trkpt lat="-23.564646" lon="-46.456977"><ele>810.0</ele><time>2017-02-11T15:21:14Z</time></trkpt><trkpt lat="-23.564743" lon="-46.457012"><ele>810.0</ele><time>2017-02-11T15:21:22Z</time></trkpt><trkpt lat="-23.56484" lon="-46.457033"><ele>811.0</ele><time>2017-02-11T15:21:28Z</time></trkpt><trkpt lat="-23.564939" lon="-46.457046"><ele>818.0</ele><time>2017-02-11T15:21:35Z</time></trkpt><trkpt lat="-23.565027" lon="-46.457079"><ele>817.0</ele><time>2017-02-11T15:21:43Z</time></trkpt><trkpt lat="-23.565101" lon="-46.45715"><ele>820.0</ele><time>2017-02-11T15:21:52Z</time></trkpt><trkpt lat="-23.56518" lon="-46.457205"><ele>818.0</ele><time>2017-02-11T15:22:02Z</time></trkpt><trkpt lat="-23.565271" lon="-46.457242"><ele>817.0</ele><time>2017-02-11T15:22:12Z</time></trkpt><trkpt lat="-23.565362" lon="-46.457253"><ele>819.0</ele><time>2017-02-11T15:22:21Z</time></trkpt><trkpt lat="-23.565461" lon="-46.457272"><ele>813.0</ele><time>2017-02-11T15:22:32Z</time></trkpt><trkpt lat="-23.565557" lon="-46.457298"><ele>806.0</ele><time>2017-02-11T15:22:41Z</time></trkpt><trkpt lat="-23.565647" lon="-46.457331"><ele>807.0</ele><time>2017-02-11T15:22:52Z</time></trkpt><trkpt lat="-23.565735" lon="-46.457373"><ele>805.0</ele><time>2017-02-11T15:23:01Z</time></trkpt><trkpt lat="-23.565826" lon="-46.457359"><ele>814.0</ele><time>2017-02-11T15:23:20Z</time></trkpt><trkpt lat="-23.565894" lon="-46.457432"><ele>811.0</ele><time>2017-02-11T15:23:43Z</time></trkpt><trkpt lat="-23.565988" lon="-46.457459"><ele>813.0</ele><time>2017-02-11T15:23:50Z</time></trkpt><trkpt lat="-23.566078" lon="-46.457487"><ele>814.0</ele><time>2017-02-11T15:23:59Z</time></trkpt><trkpt lat="-23.566165" lon="-46.457524"><ele>812.0</ele><time>2017-02-11T15:24:08Z</time></trkpt><trkpt lat="-23.566261" lon="-46.457564"><ele>811.0</ele><time>2017-02-11T15:24:15Z</time></trkpt><trkpt lat="-23.566358" lon="-46.457594"><ele>809.0</ele><time>2017-02-11T15:24:28Z</time></trkpt><trkpt lat="-23.566444" lon="-46.457635"><ele>810.0</ele><time>2017-02-11T15:24:36Z</time></trkpt><trkpt lat="-23.566535" lon="-46.457673"><ele>807.0</ele><time>2017-02-11T15:24:46Z</time></trkpt><trkpt lat="-23.566614" lon="-46.457727"><ele>804.0</ele><time>2017-02-11T15:24:56Z</time></trkpt><trkpt lat="-23.566703" lon="-46.457748"><ele>806.0</ele><time>2017-02-11T15:25:03Z</time></trkpt><trkpt lat="-23.5668" lon="-46.457751"><ele>807.0</ele><time>2017-02-11T15:25:13Z</time></trkpt><trkpt lat="-23.566888" lon="-46.457778"><ele>806.0</ele><time>2017-02-11T15:25:22Z</time></trkpt><trkpt lat="-23.566984" lon="-46.457809"><ele>807.0</ele><time>2017-02-11T15:25:34Z</time></trkpt><trkpt lat="-23.56707" lon="-46.457854"><ele>805.0</ele><time>2017-02-11T15:25:43Z</time></trkpt><trkpt lat="-23.567159" lon="-46.457888"><ele>804.0</ele><time>2017-02-11T15:25:52Z</time></trkpt><trkpt lat="-23.567248" lon="-46.457921"><ele>803.0</ele><time>2017-02-11T15:26:01Z</time></trkpt><trkpt lat="-23.567342" lon="-46.457959"><ele>803.0</ele><time>2017-02-11T15:26:10Z</time></trkpt><trkpt lat="-23.56744" lon="-46.457955"><ele>804.0</ele><time>2017-02-11T15:26:17Z</time></trkpt><trkpt lat="-23.567528" lon="-46.457989"><ele>808.0</ele><time>2017-02-11T15:26:25Z</time></trkpt><trkpt lat="-23.56761" lon="-46.458038"><ele>810.0</ele><time>2017-02-11T15:26:35Z</time></trkpt><trkpt lat="-23.567702" lon="-46.458055"><ele>812.0</ele><time>2017-02-11T15:26:45Z</time></trkpt><trkpt lat="-23.567793" lon="-46.458069"><ele>816.0</ele><time>2017-02-11T15:26:56Z</time></trkpt><trkpt lat="-23.567888" lon="-46.458085"><ele>816.0</ele><time>2017-02-11T15:27:12Z</time></trkpt><trkpt lat="-23.567987" lon="-46.458103"><ele>819.0</ele><time>2017-02-11T15:27:18Z</time></trkpt><trkpt lat="-23.568065" lon="-46.458049"><ele>824.0</ele><time>2017-02-11T15:27:24Z</time></trkpt><trkpt lat="-23.568149" lon="-46.458096"><ele>814.0</ele><time>2017-02-11T15:27:48Z</time></trkpt><trkpt lat="-23.568241" lon="-46.458143"><ele>799.0</ele><time>2017-02-11T15:28:00Z</time></trkpt><trkpt lat="-23.568316" lon="-46.45821"><ele>804.0</ele><time>2017-02-11T15:28:08Z</time></trkpt><trkpt lat="-23.568415" lon="-46.458226"><ele>807.0</ele><time>2017-02-11T15:28:12Z</time></trkpt><trkpt lat="-23.56843" lon="-46.458325"><ele>817.0</ele><time>2017-02-11T15:28:26Z</time></trkpt><trkpt lat="-23.568519" lon="-46.458347"><ele>819.0</ele><time>2017-02-11T15:28:32Z</time></trkpt><trkpt lat="-23.568592" lon="-46.458415"><ele>822.0</ele><time>2017-02-11T15:28:43Z</time></trkpt><trkpt lat="-23.568687" lon="-46.458447"><ele>821.0</ele><time>2017-02-11T15:28:55Z</time></trkpt><trkpt lat="-23.568773" lon="-46.458515"><ele>818.0</ele><time>2017-02-11T15:29:01Z</time></trkpt><trkpt lat="-23.568853" lon="-46.458585"><ele>817.0</ele><time>2017-02-11T15:29:07Z</time></trkpt><trkpt lat="-23.568892" lon="-46.45868"><ele>814.0</ele><time>2017-02-11T15:29:21Z</time></trkpt><trkpt lat="-23.568979" lon="-46.458728"><ele>813.0</ele><time>2017-02-11T15:29:32Z</time></trkpt><trkpt lat="-23.56905" lon="-46.458788"><ele>812.0</ele><time>2017-02-11T15:29:40Z</time></trkpt><trkpt lat="-23.569137" lon="-46.458815"><ele>814.0</ele><time>2017-02-11T15:29:47Z</time></trkpt><trkpt lat="-23.569197" lon="-46.458893"><ele>810.0</ele><time>2017-02-11T15:29:55Z</time></trkpt><trkpt lat="-23.569275" lon="-46.458973"><ele>807.0</ele><time>2017-02-11T15:30:06Z</time></trkpt><trkpt lat="-23.569352" lon="-46.459028"><ele>805.0</ele><time>2017-02-11T15:30:15Z</time></trkpt><trkpt lat="-23.569417" lon="-46.459101"><ele>799.0</ele><time>2017-02-11T15:30:25Z</time></trkpt><trkpt lat="-23.569495" lon="-46.459151"><ele>802.0</ele><time>2017-02-11T15:30:34Z</time></trkpt><trkpt lat="-23.569574" lon="-46.459204"><ele>805.0</ele><time>2017-02-11T15:30:43Z</time></trkpt><trkpt lat="-23.569672" lon="-46.459221"><ele>811.0</ele><time>2017-02-11T15:30:50Z</time></trkpt><trkpt lat="-23.569761" lon="-46.459249"><ele>811.0</ele><time>2017-02-11T15:30:58Z</time></trkpt><trkpt lat="-23.569857" lon="-46.459268"><ele>810.0</ele><time>2017-02-11T15:31:08Z</time></trkpt><trkpt lat="-23.569953" lon="-46.459303"><ele>807.0</ele><time>2017-02-11T15:31:17Z</time></trkpt><trkpt lat="-23.57002" lon="-46.459378"><ele>806.0</ele><time>2017-02-11T15:31:27Z</time></trkpt><trkpt lat="-23.570118" lon="-46.459409"><ele>810.0</ele><time>2017-02-11T15:31:43Z</time></trkpt><trkpt lat="-23.57021" lon="-46.459461"><ele>808.0</ele><time>2017-02-11T15:32:06Z</time></trkpt><trkpt lat="-23.570303" lon="-46.45947"><ele>809.0</ele><time>2017-02-11T15:32:13Z</time></trkpt><trkpt lat="-23.570365" lon="-46.459389"><ele>811.0</ele><time>2017-02-11T15:32:23Z</time></trkpt><trkpt lat="-23.570461" lon="-46.459367"><ele>812.0</ele><time>2017-02-11T15:32:31Z</time></trkpt><trkpt lat="-23.570555" lon="-46.459361"><ele>808.0</ele><time>2017-02-11T15:32:40Z</time></trkpt><trkpt lat="-23.570648" lon="-46.459348"><ele>810.0</ele><time>2017-02-11T15:32:50Z</time></trkpt><trkpt lat="-23.570748" lon="-46.459342"><ele>807.0</ele><time>2017-02-11T15:33:00Z</time></trkpt><trkpt lat="-23.570838" lon="-46.459317"><ele>805.0</ele><time>2017-02-11T15:33:09Z</time></trkpt><trkpt lat="-23.570933" lon="-46.459289"><ele>803.0</ele><time>2017-02-11T15:33:18Z</time></trkpt><trkpt lat="-23.571026" lon="-46.459254"><ele>804.0</ele><time>2017-02-11T15:33:26Z</time></trkpt><trkpt lat="-23.571115" lon="-46.459215"><ele>803.0</ele><time>2017-02-11T15:33:35Z</time></trkpt><trkpt lat="-23.571196" lon="-46.459165"><ele>804.0</ele><time>2017-02-11T15:33:43Z</time></trkpt><trkpt lat="-23.571276" lon="-46.459105"><ele>805.0</ele><time>2017-02-11T15:33:56Z</time></trkpt><trkpt lat="-23.571343" lon="-46.459029"><ele>798.0</ele><time>2017-02-11T15:34:08Z</time></trkpt><trkpt lat="-23.57142" lon="-46.458964"><ele>803.0</ele><time>2017-02-11T15:34:17Z</time></trkpt><trkpt lat="-23.571499" lon="-46.458913"><ele>804.0</ele><time>2017-02-11T15:34:26Z</time></trkpt><trkpt lat="-23.571576" lon="-46.458857"><ele>811.0</ele><time>2017-02-11T15:34:34Z</time></trkpt><trkpt lat="-23.571655" lon="-46.458797"><ele>809.0</ele><time>2017-02-11T15:34:41Z</time></trkpt><trkpt lat="-23.571734" lon="-46.458729"><ele>814.0</ele><time>2017-02-11T15:34:50Z</time></trkpt><trkpt lat="-23.571814" lon="-46.45868"><ele>811.0</ele><time>2017-02-11T15:34:58Z</time></trkpt><trkpt lat="-23.571897" lon="-46.458642"><ele>810.0</ele><time>2017-02-11T15:35:07Z</time></trkpt><trkpt lat="-23.57199" lon="-46.458611"><ele>807.0</ele><time>2017-02-11T15:35:17Z</time></trkpt><trkpt lat="-23.572081" lon="-46.458584"><ele>810.0</ele><time>2017-02-11T15:35:24Z</time></trkpt><trkpt lat="-23.572177" lon="-46.458565"><ele>811.0</ele><time>2017-02-11T15:35:33Z</time></trkpt><trkpt lat="-23.572271" lon="-46.458554"><ele>811.0</ele><time>2017-02-11T15:35:42Z</time></trkpt><trkpt lat="-23.572362" lon="-46.458543"><ele>810.0</ele><time>2017-02-11T15:35:51Z</time></trkpt><trkpt lat="-23.572458" lon="-46.458544"><ele>810.0</ele><time>2017-02-11T15:36:01Z</time></trkpt><trkpt lat="-23.572559" lon="-46.45855"><ele>808.0</ele><time>2017-02-11T15:36:10Z</time></trkpt><trkpt lat="-23.57266" lon="-46.458545"><ele>803.0</ele><time>2017-02-11T15:36:18Z</time></trkpt><trkpt lat="-23.572753" lon="-46.458546"><ele>808.0</ele><time>2017-02-11T15:36:26Z</time></trkpt><trkpt lat="-23.572851" lon="-46.458543"><ele>807.0</ele><time>2017-02-11T15:36:36Z</time></trkpt><trkpt lat="-23.572947" lon="-46.458539"><ele>808.0</ele><time>2017-02-11T15:36:46Z</time></trkpt><trkpt lat="-23.573041" lon="-46.458533"><ele>812.0</ele><time>2017-02-11T15:36:54Z</time></trkpt><trkpt lat="-23.573134" lon="-46.458529"><ele>812.0</ele><time>2017-02-11T15:37:02Z</time></trkpt><trkpt lat="-23.573233" lon="-46.458527"><ele>812.0</ele><time>2017-02-11T15:37:12Z</time></trkpt><trkpt lat="-23.573324" lon="-46.458514"><ele>811.0</ele><time>2017-02-11T15:37:20Z</time></trkpt><trkpt lat="-23.573419" lon="-46.45852"><ele>810.0</ele><time>2017-02-11T15:37:32Z</time></trkpt><trkpt lat="-23.573511" lon="-46.458519"><ele>811.0</ele><time>2017-02-11T15:37:41Z</time></trkpt><trkpt lat="-23.57361" lon="-46.458523"><ele>809.0</ele><time>2017-02-11T15:37:50Z</time></trkpt><trkpt lat="-23.573708" lon="-46.458516"><ele>811.0</ele><time>2017-02-11T15:37:58Z</time></trkpt><trkpt lat="-23.573807" lon="-46.458511"><ele>810.0</ele><time>2017-02-11T15:38:08Z</time></trkpt><trkpt lat="-23.573906" lon="-46.458509"><ele>807.0</ele><time>2017-02-11T15:38:16Z</time></trkpt><trkpt lat="-23.574005" lon="-46.458505"><ele>808.0</ele><time>2017-02-11T15:38:25Z</time></trkpt><trkpt lat="-23.574103" lon="-46.458491"><ele>806.0</ele><time>2017-02-11T15:38:34Z</time></trkpt><trkpt lat="-23.57419" lon="-46.458462"><ele>809.0</ele><time>2017-02-11T15:38:44Z</time></trkpt><trkpt lat="-23.574278" lon="-46.45849"><ele>810.0</ele><time>2017-02-11T15:39:52Z</time></trkpt><trkpt lat="-23.574377" lon="-46.458491"><ele>804.0</ele><time>2017-02-11T15:39:59Z</time></trkpt><trkpt lat="-23.57447" lon="-46.458519"><ele>803.0</ele><time>2017-02-11T15:40:08Z</time></trkpt><trkpt lat="-23.574563" lon="-46.458507"><ele>808.0</ele><time>2017-02-11T15:40:18Z</time></trkpt><trkpt lat="-23.574654" lon="-46.458495"><ele>817.0</ele><time>2017-02-11T15:40:30Z</time></trkpt><trkpt lat="-23.57474" lon="-46.458463"><ele>816.0</ele><time>2017-02-11T15:40:39Z</time></trkpt><trkpt lat="-23.574833" lon="-46.458432"><ele>813.0</ele><time>2017-02-11T15:40:55Z</time></trkpt><trkpt lat="-23.574937" lon="-46.458424"><ele>813.0</ele><time>2017-02-11T15:41:04Z</time></trkpt><trkpt lat="-23.575027" lon="-46.458404"><ele>814.0</ele><time>2017-02-11T15:41:13Z</time></trkpt><trkpt lat="-23.575124" lon="-46.458384"><ele>814.0</ele><time>2017-02-11T15:41:23Z</time></trkpt><trkpt lat="-23.575223" lon="-46.458377"><ele>813.0</ele><time>2017-02-11T15:41:34Z</time></trkpt><trkpt lat="-23.575318" lon="-46.458358"><ele>814.0</ele><time>2017-02-11T15:41:46Z</time></trkpt><trkpt lat="-23.57541" lon="-46.458346"><ele>821.0</ele><time>2017-02-11T15:41:56Z</time></trkpt><trkpt lat="-23.575506" lon="-46.458334"><ele>819.0</ele><time>2017-02-11T15:42:06Z</time></trkpt><trkpt lat="-23.5756" lon="-46.458314"><ele>817.0</ele><time>2017-02-11T15:42:17Z</time></trkpt><trkpt lat="-23.5757" lon="-46.458316"><ele>816.0</ele><time>2017-02-11T15:42:28Z</time></trkpt><trkpt lat="-23.575794" lon="-46.458307"><ele>817.0</ele><time>2017-02-11T15:42:41Z</time></trkpt><trkpt lat="-23.575884" lon="-46.458293"><ele>820.0</ele><time>2017-02-11T15:42:51Z</time></trkpt><trkpt lat="-23.575978" lon="-46.458274"><ele>819.0</ele><time>2017-02-11T15:43:03Z</time></trkpt><trkpt lat="-23.576071" lon="-46.458258"><ele>817.0</ele><time>2017-02-11T15:43:16Z</time></trkpt><trkpt lat="-23.576169" lon="-46.458264"><ele>813.0</ele><time>2017-02-11T15:43:28Z</time></trkpt><trkpt lat="-23.57626" lon="-46.458243"><ele>818.0</ele><time>2017-02-11T15:43:37Z</time></trkpt><trkpt lat="-23.576358" lon="-46.45823"><ele>820.0</ele><time>2017-02-11T15:43:50Z</time></trkpt><trkpt lat="-23.57645" lon="-46.45824"><ele>817.0</ele><time>2017-02-11T15:43:59Z</time></trkpt><trkpt lat="-23.576546" lon="-46.458232"><ele>817.0</ele><time>2017-02-11T15:44:11Z</time></trkpt><trkpt lat="-23.576637" lon="-46.458219"><ele>818.0</ele><time>2017-02-11T15:44:22Z</time></trkpt><trkpt lat="-23.576729" lon="-46.45822"><ele>821.0</ele><time>2017-02-11T15:44:35Z</time></trkpt><trkpt lat="-23.576819" lon="-46.458189"><ele>822.0</ele><time>2017-02-11T15:44:46Z</time></trkpt><trkpt lat="-23.576908" lon="-46.458175"><ele>826.0</ele><time>2017-02-11T15:45:00Z</time></trkpt><trkpt lat="-23.577002" lon="-46.458169"><ele>828.0</ele><time>2017-02-11T15:45:10Z</time></trkpt><trkpt lat="-23.577089" lon="-46.458196"><ele>829.0</ele><time>2017-02-11T15:45:19Z</time></trkpt><trkpt lat="-23.577187" lon="-46.458236"><ele>831.0</ele><time>2017-02-11T15:45:31Z</time></trkpt><trkpt lat="-23.577277" lon="-46.458285"><ele>829.0</ele><time>2017-02-11T15:45:41Z</time></trkpt><trkpt lat="-23.577356" lon="-46.458344"><ele>827.0</ele><time>2017-02-11T15:45:52Z</time></trkpt><trkpt lat="-23.577453" lon="-46.458374"><ele>826.0</ele><time>2017-02-11T15:46:03Z</time></trkpt><trkpt lat="-23.57753" lon="-46.458427"><ele>829.0</ele><time>2017-02-11T15:46:12Z</time></trkpt><trkpt lat="-23.577606" lon="-46.45849"><ele>828.0</ele><time>2017-02-11T15:46:23Z</time></trkpt><trkpt lat="-23.577698" lon="-46.458526"><ele>830.0</ele><time>2017-02-11T15:47:03Z</time></trkpt><trkpt lat="-23.577776" lon="-46.458589"><ele>828.0</ele><time>2017-02-11T15:47:12Z</time></trkpt><trkpt lat="-23.577854" lon="-46.458641"><ele>832.0</ele><time>2017-02-11T15:47:22Z</time></trkpt><trkpt lat="-23.577923" lon="-46.458716"><ele>829.0</ele><time>2017-02-11T15:47:32Z</time></trkpt><trkpt lat="-23.577983" lon="-46.458795"><ele>832.0</ele><time>2017-02-11T15:47:48Z</time></trkpt><trkpt lat="-23.578003" lon="-46.458896"><ele>833.0</ele><time>2017-02-11T15:48:07Z</time></trkpt><trkpt lat="-23.578027" lon="-46.459003"><ele>835.0</ele><time>2017-02-11T15:48:18Z</time></trkpt><trkpt lat="-23.578113" lon="-46.458975"><ele>834.0</ele><time>2017-02-11T15:51:20Z</time></trkpt><trkpt lat="-23.578196" lon="-46.458932"><ele>835.0</ele><time>2017-02-11T15:51:45Z</time></trkpt><trkpt lat="-23.578288" lon="-46.458944"><ele>833.0</ele><time>2017-02-11T15:51:57Z</time></trkpt><trkpt lat="-23.578355" lon="-46.459012"><ele>831.0</ele><time>2017-02-11T15:52:06Z</time></trkpt><trkpt lat="-23.57843" lon="-46.459071"><ele>836.0</ele><time>2017-02-11T15:52:16Z</time></trkpt><trkpt lat="-23.578493" lon="-46.459146"><ele>837.0</ele><time>2017-02-11T15:52:38Z</time></trkpt><trkpt lat="-23.578569" lon="-46.459208"><ele>833.0</ele><time>2017-02-11T15:52:49Z</time></trkpt><trkpt lat="-23.578644" lon="-46.459267"><ele>831.0</ele><time>2017-02-11T15:53:02Z</time></trkpt><trkpt lat="-23.578723" lon="-46.459329"><ele>836.0</ele><time>2017-02-11T15:53:13Z</time></trkpt><trkpt lat="-23.578808" lon="-46.459383"><ele>838.0</ele><time>2017-02-11T15:53:20Z</time></trkpt><trkpt lat="-23.578895" lon="-46.45943"><ele>839.0</ele><time>2017-02-11T15:53:29Z</time></trkpt><trkpt lat="-23.578985" lon="-46.459462"><ele>841.0</ele><time>2017-02-11T15:53:39Z</time></trkpt><trkpt lat="-23.579075" lon="-46.459505"><ele>839.0</ele><time>2017-02-11T15:53:51Z</time></trkpt><trkpt lat="-23.579152" lon="-46.45957"><ele>842.0</ele><time>2017-02-11T15:54:02Z</time></trkpt><trkpt lat="-23.579245" lon="-46.459608"><ele>837.0</ele><time>2017-02-11T15:54:12Z</time></trkpt><trkpt lat="-23.579334" lon="-46.459644"><ele>845.0</ele><time>2017-02-11T15:54:22Z</time></trkpt><trkpt lat="-23.579421" lon="-46.45969"><ele>845.0</ele><time>2017-02-11T15:54:33Z</time></trkpt><trkpt lat="-23.579495" lon="-46.459756"><ele>843.0</ele><time>2017-02-11T15:54:41Z</time></trkpt><trkpt lat="-23.579575" lon="-46.459801"><ele>844.0</ele><time>2017-02-11T15:54:49Z</time></trkpt><trkpt lat="-23.579663" lon="-46.459859"><ele>851.0</ele><time>2017-02-11T15:57:48Z</time></trkpt><trkpt lat="-23.579749" lon="-46.459913"><ele>852.0</ele><time>2017-02-11T15:57:55Z</time></trkpt><trkpt lat="-23.579836" lon="-46.459965"><ele>851.0</ele><time>2017-02-11T15:58:01Z</time></trkpt><trkpt lat="-23.57992" lon="-46.460016"><ele>846.0</ele><time>2017-02-11T15:58:10Z</time></trkpt><trkpt lat="-23.579989" lon="-46.460086"><ele>847.0</ele><time>2017-02-11T15:58:19Z</time></trkpt><trkpt lat="-23.580067" lon="-46.460145"><ele>847.0</ele><time>2017-02-11T15:58:27Z</time></trkpt><trkpt lat="-23.580153" lon="-46.4602"><ele>850.0</ele><time>2017-02-11T15:58:36Z</time></trkpt><trkpt lat="-23.580241" lon="-46.460238"><ele>849.0</ele><time>2017-02-11T15:58:46Z</time></trkpt><trkpt lat="-23.580325" lon="-46.460302"><ele>849.0</ele><time>2017-02-11T15:58:57Z</time></trkpt><trkpt lat="-23.580394" lon="-46.460375"><ele>852.0</ele><time>2017-02-11T15:59:07Z</time></trkpt><trkpt lat="-23.580486" lon="-46.46042"><ele>849.0</ele><time>2017-02-11T15:59:15Z</time></trkpt><trkpt lat="-23.580563" lon="-46.460485"><ele>854.0</ele><time>2017-02-11T15:59:25Z</time></trkpt><trkpt lat="-23.58062" lon="-46.460566"><ele>855.0</ele><time>2017-02-11T15:59:34Z</time></trkpt><trkpt lat="-23.580666" lon="-46.460661"><ele>854.0</ele><time>2017-02-11T15:59:45Z</time></trkpt><trkpt lat="-23.580718" lon="-46.460745"><ele>857.0</ele><time>2017-02-11T15:59:56Z</time></trkpt><trkpt lat="-23.58078" lon="-46.46082"><ele>857.0</ele><time>2017-02-11T16:00:07Z</time></trkpt><trkpt lat="-23.580792" lon="-46.460927"><ele>860.0</ele><time>2017-02-11T16:00:18Z</time></trkpt><trkpt lat="-23.580812" lon="-46.46103"><ele>858.0</ele><time>2017-02-11T16:00:29Z</time></trkpt><trkpt lat="-23.580818" lon="-46.461131"><ele>857.0</ele><time>2017-02-11T16:00:38Z</time></trkpt><trkpt lat="-23.580856" lon="-46.461222"><ele>854.0</ele><time>2017-02-11T16:00:47Z</time></trkpt><trkpt lat="-23.580916" lon="-46.46132"><ele>854.0</ele><time>2017-02-11T16:00:56Z</time></trkpt><trkpt lat="-23.580978" lon="-46.46142"><ele>849.0</ele><time>2017-02-11T16:01:08Z</time></trkpt><trkpt lat="-23.581015" lon="-46.461521"><ele>852.0</ele><time>2017-02-11T16:01:19Z</time></trkpt><trkpt lat="-23.581063" lon="-46.461606"><ele>853.0</ele><time>2017-02-11T16:01:28Z</time></trkpt><trkpt lat="-23.581119" lon="-46.461687"><ele>852.0</ele><time>2017-02-11T16:01:37Z</time></trkpt><trkpt lat="-23.581186" lon="-46.461755"><ele>855.0</ele><time>2017-02-11T16:01:46Z</time></trkpt><trkpt lat="-23.581247" lon="-46.461832"><ele>857.0</ele><time>2017-02-11T16:01:54Z</time></trkpt><trkpt lat="-23.581316" lon="-46.46191"><ele>860.0</ele><time>2017-02-11T16:02:04Z</time></trkpt><trkpt lat="-23.581363" lon="-46.461996"><ele>858.0</ele><time>2017-02-11T16:02:12Z</time></trkpt><trkpt lat="-23.581402" lon="-46.462087"><ele>861.0</ele><time>2017-02-11T16:02:21Z</time></trkpt><trkpt lat="-23.581459" lon="-46.462164"><ele>858.0</ele><time>2017-02-11T16:03:09Z</time></trkpt><trkpt lat="-23.581449" lon="-46.462264"><ele>853.0</ele><time>2017-02-11T16:05:30Z</time></trkpt><trkpt lat="-23.581448" lon="-46.462362"><ele>855.0</ele><time>2017-02-11T16:05:39Z</time></trkpt><trkpt lat="-23.581441" lon="-46.462462"><ele>854.0</ele><time>2017-02-11T16:05:47Z</time></trkpt><trkpt lat="-23.581455" lon="-46.462562"><ele>856.0</ele><time>2017-02-11T16:05:59Z</time></trkpt><trkpt lat="-23.581501" lon="-46.462648"><ele>858.0</ele><time>2017-02-11T16:06:10Z</time></trkpt><trkpt lat="-23.581519" lon="-46.462759"><ele>856.0</ele><time>2017-02-11T16:06:21Z</time></trkpt><trkpt lat="-23.581495" lon="-46.462859"><ele>849.0</ele><time>2017-02-11T16:06:32Z</time></trkpt><trkpt lat="-23.581473" lon="-46.462959"><ele>850.0</ele><time>2017-02-11T16:06:42Z</time></trkpt><trkpt lat="-23.581467" lon="-46.463058"><ele>844.0</ele><time>2017-02-11T16:06:52Z</time></trkpt><trkpt lat="-23.581495" lon="-46.463154"><ele>840.0</ele><time>2017-02-11T16:07:01Z</time></trkpt><trkpt lat="-23.581468" lon="-46.463257"><ele>840.0</ele><time>2017-02-11T16:07:09Z</time></trkpt><trkpt lat="-23.58146" lon="-46.463355"><ele>841.0</ele><time>2017-02-11T16:07:17Z</time></trkpt><trkpt lat="-23.581453" lon="-46.463454"><ele>836.0</ele><time>2017-02-11T16:07:25Z</time></trkpt><trkpt lat="-23.581421" lon="-46.463549"><ele>837.0</ele><time>2017-02-11T16:07:34Z</time></trkpt><trkpt lat="-23.581441" lon="-46.463649"><ele>843.0</ele><time>2017-02-11T16:07:43Z</time></trkpt><trkpt lat="-23.58143" lon="-46.463748"><ele>841.0</ele><time>2017-02-11T16:07:53Z</time></trkpt><trkpt lat="-23.581495" lon="-46.463825"><ele>850.0</ele><time>2017-02-11T16:08:01Z</time></trkpt><trkpt lat="-23.581427" lon="-46.463903"><ele>851.0</ele><time>2017-02-11T16:08:15Z</time></trkpt><trkpt lat="-23.581353" lon="-46.463977"><ele>850.0</ele><time>2017-02-11T16:08:23Z</time></trkpt><trkpt lat="-23.581295" lon="-46.46406"><ele>854.0</ele><time>2017-02-11T16:08:32Z</time></trkpt><trkpt lat="-23.581228" lon="-46.464132"><ele>853.0</ele><time>2017-02-11T16:08:40Z</time></trkpt><trkpt lat="-23.581155" lon="-46.464208"><ele>845.0</ele><time>2017-02-11T16:08:48Z</time></trkpt><trkpt lat="-23.581091" lon="-46.464292"><ele>845.0</ele><time>2017-02-11T16:08:55Z</time></trkpt><trkpt lat="-23.581032" lon="-46.464373"><ele>843.0</ele><time>2017-02-11T16:09:04Z</time></trkpt><trkpt lat="-23.580963" lon="-46.464447"><ele>843.0</ele><time>2017-02-11T16:09:13Z</time></trkpt><trkpt lat="-23.580907" lon="-46.464535"><ele>842.0</ele><time>2017-02-11T16:09:23Z</time></trkpt><trkpt lat="-23.580829" lon="-46.464593"><ele>838.0</ele><time>2017-02-11T16:09:31Z</time></trkpt><trkpt lat="-23.580738" lon="-46.464655"><ele>843.0</ele><time>2017-02-11T16:09:41Z</time></trkpt><trkpt lat="-23.580668" lon="-46.464716"><ele>843.0</ele><time>2017-02-11T16:09:50Z</time></trkpt><trkpt lat="-23.580614" lon="-46.464797"><ele>839.0</ele><time>2017-02-11T16:09:58Z</time></trkpt><trkpt lat="-23.5806" lon="-46.464905"><ele>839.0</ele><time>2017-02-11T16:10:06Z</time></trkpt><trkpt lat="-23.580567" lon="-46.465005"><ele>841.0</ele><time>2017-02-11T16:10:15Z</time></trkpt><trkpt lat="-23.580538" lon="-46.4651"><ele>841.0</ele><time>2017-02-11T16:10:24Z</time></trkpt><trkpt lat="-23.580521" lon="-46.4652"><ele>833.0</ele><time>2017-02-11T16:10:36Z</time></trkpt><trkpt lat="-23.580505" lon="-46.465316"><ele>832.0</ele><time>2017-02-11T16:10:44Z</time></trkpt><trkpt lat="-23.580486" lon="-46.465424"><ele>832.0</ele><time>2017-02-11T16:10:52Z</time></trkpt><trkpt lat="-23.580467" lon="-46.465522"><ele>831.0</ele><time>2017-02-11T16:10:59Z</time></trkpt><trkpt lat="-23.58046" lon="-46.465619"><ele>831.0</ele><time>2017-02-11T16:11:09Z</time></trkpt><trkpt lat="-23.580419" lon="-46.465717"><ele>830.0</ele><time>2017-02-11T16:11:18Z</time></trkpt><trkpt lat="-23.580413" lon="-46.465815"><ele>830.0</ele><time>2017-02-11T16:11:29Z</time></trkpt><trkpt lat="-23.580398" lon="-46.465913"><ele>831.0</ele><time>2017-02-11T16:11:38Z</time></trkpt><trkpt lat="-23.580368" lon="-46.466013"><ele>828.0</ele><time>2017-02-11T16:11:47Z</time></trkpt><trkpt lat="-23.580331" lon="-46.466109"><ele>825.0</ele><time>2017-02-11T16:11:56Z</time></trkpt><trkpt lat="-23.580305" lon="-46.46621"><ele>826.0</ele><time>2017-02-11T16:12:05Z</time></trkpt><trkpt lat="-23.580245" lon="-46.466285"><ele>826.0</ele><time>2017-02-11T16:12:13Z</time></trkpt><trkpt lat="-23.580195" lon="-46.466372"><ele>827.0</ele><time>2017-02-11T16:12:20Z</time></trkpt><trkpt lat="-23.580137" lon="-46.466455"><ele>825.0</ele><time>2017-02-11T16:12:28Z</time></trkpt><trkpt lat="-23.580075" lon="-46.466527"><ele>815.0</ele><time>2017-02-11T16:12:38Z</time></trkpt><trkpt lat="-23.579995" lon="-46.466573"><ele>829.0</ele><time>2017-02-11T16:13:06Z</time></trkpt><trkpt lat="-23.579926" lon="-46.466653"><ele>823.0</ele><time>2017-02-11T16:13:13Z</time></trkpt><trkpt lat="-23.579876" lon="-46.46674"><ele>822.0</ele><time>2017-02-11T16:13:19Z</time></trkpt><trkpt lat="-23.579815" lon="-46.466813"><ele>818.0</ele><time>2017-02-11T16:13:26Z</time></trkpt><trkpt lat="-23.579778" lon="-46.466907"><ele>820.0</ele><time>2017-02-11T16:13:36Z</time></trkpt><trkpt lat="-23.579726" lon="-46.467"><ele>817.0</ele><time>2017-02-11T16:13:45Z</time></trkpt><trkpt lat="-23.57969" lon="-46.467099"><ele>814.0</ele><time>2017-02-11T16:13:54Z</time></trkpt><trkpt lat="-23.579639" lon="-46.467183"><ele>808.0</ele><time>2017-02-11T16:14:03Z</time></trkpt><trkpt lat="-23.579593" lon="-46.467274"><ele>813.0</ele><time>2017-02-11T16:14:14Z</time></trkpt><trkpt lat="-23.579548" lon="-46.467367"><ele>815.0</ele><time>2017-02-11T16:14:24Z</time></trkpt><trkpt lat="-23.579507" lon="-46.467462"><ele>822.0</ele><time>2017-02-11T16:14:36Z</time></trkpt><trkpt lat="-23.579449" lon="-46.467547"><ele>819.0</ele><time>2017-02-11T16:14:45Z</time></trkpt><trkpt lat="-23.579409" lon="-46.467645"><ele>814.0</ele><time>2017-02-11T16:14:54Z</time></trkpt><trkpt lat="-23.579362" lon="-46.467729"><ele>820.0</ele><time>2017-02-11T16:15:04Z</time></trkpt><trkpt lat="-23.579302" lon="-46.467811"><ele>815.0</ele><time>2017-02-11T16:15:13Z</time></trkpt><trkpt lat="-23.579261" lon="-46.467904"><ele>817.0</ele><time>2017-02-11T16:15:24Z</time></trkpt><trkpt lat="-23.579203" lon="-46.467983"><ele>813.0</ele><time>2017-02-11T16:15:34Z</time></trkpt><trkpt lat="-23.57915" lon="-46.468069"><ele>810.0</ele><time>2017-02-11T16:15:43Z</time></trkpt><trkpt lat="-23.579109" lon="-46.468158"><ele>812.0</ele><time>2017-02-11T16:15:53Z</time></trkpt><trkpt lat="-23.579048" lon="-46.468261"><ele>808.0</ele><time>2017-02-11T16:16:02Z</time></trkpt><trkpt lat="-23.579037" lon="-46.468359"><ele>811.0</ele><time>2017-02-11T16:16:11Z</time></trkpt><trkpt lat="-23.579015" lon="-46.468457"><ele>810.0</ele><time>2017-02-11T16:16:20Z</time></trkpt><trkpt lat="-23.578999" lon="-46.468561"><ele>810.0</ele><time>2017-02-11T16:16:30Z</time></trkpt><trkpt lat="-23.579019" lon="-46.46866"><ele>807.0</ele><time>2017-02-11T16:16:39Z</time></trkpt><trkpt lat="-23.579044" lon="-46.468759"><ele>805.0</ele><time>2017-02-11T16:16:47Z</time></trkpt><trkpt lat="-23.579109" lon="-46.468839"><ele>800.0</ele><time>2017-02-11T16:16:55Z</time></trkpt><trkpt lat="-23.579193" lon="-46.468891"><ele>794.0</ele><time>2017-02-11T16:17:04Z</time></trkpt><trkpt lat="-23.579274" lon="-46.468945"><ele>798.0</ele><time>2017-02-11T16:17:14Z</time></trkpt><trkpt lat="-23.579356" lon="-46.468998"><ele>800.0</ele><time>2017-02-11T16:17:24Z</time></trkpt><trkpt lat="-23.579444" lon="-46.469034"><ele>798.0</ele><time>2017-02-11T16:17:32Z</time></trkpt><trkpt lat="-23.579535" lon="-46.469051"><ele>797.0</ele><time>2017-02-11T16:17:40Z</time></trkpt><trkpt lat="-23.57963" lon="-46.469046"><ele>801.0</ele><time>2017-02-11T16:17:49Z</time></trkpt><trkpt lat="-23.57973" lon="-46.46905"><ele>793.0</ele><time>2017-02-11T16:17:57Z</time></trkpt><trkpt lat="-23.579828" lon="-46.469058"><ele>797.0</ele><time>2017-02-11T16:18:05Z</time></trkpt><trkpt lat="-23.579923" lon="-46.469047"><ele>794.0</ele><time>2017-02-11T16:18:14Z</time></trkpt><trkpt lat="-23.580026" lon="-46.469034"><ele>793.0</ele><time>2017-02-11T16:18:25Z</time></trkpt><trkpt lat="-23.580111" lon="-46.468995"><ele>796.0</ele><time>2017-02-11T16:18:34Z</time></trkpt><trkpt lat="-23.5802" lon="-46.469042"><ele>789.0</ele><time>2017-02-11T16:18:43Z</time></trkpt><trkpt lat="-23.580288" lon="-46.469079"><ele>787.0</ele><time>2017-02-11T16:18:52Z</time></trkpt><trkpt lat="-23.580367" lon="-46.469128"><ele>790.0</ele><time>2017-02-11T16:19:05Z</time></trkpt><trkpt lat="-23.580435" lon="-46.469196"><ele>785.0</ele><time>2017-02-11T16:19:16Z</time></trkpt><trkpt lat="-23.580473" lon="-46.469103"><ele>782.0</ele><time>2017-02-11T16:19:28Z</time></trkpt><trkpt lat="-23.580435" lon="-46.469011"><ele>783.0</ele><time>2017-02-11T16:19:36Z</time></trkpt><trkpt lat="-23.580508" lon="-46.468944"><ele>782.0</ele><time>2017-02-11T16:20:03Z</time></trkpt><trkpt lat="-23.58082" lon="-46.469014"><ele>788.0</ele><time>2017-02-11T16:39:52Z</time></trkpt><trkpt lat="-23.580855" lon="-46.469107"><ele>779.0</ele><time>2017-02-11T16:40:12Z</time></trkpt><trkpt lat="-23.580832" lon="-46.469213"><ele>779.0</ele><time>2017-02-11T16:40:22Z</time></trkpt><trkpt lat="-23.580826" lon="-46.469313"><ele>776.0</ele><time>2017-02-11T16:40:33Z</time></trkpt><trkpt lat="-23.580795" lon="-46.469408"><ele>776.0</ele><time>2017-02-11T16:40:43Z</time></trkpt><trkpt lat="-23.580723" lon="-46.469475"><ele>777.0</ele><time>2017-02-11T16:40:50Z</time></trkpt><trkpt lat="-23.58068" lon="-46.469572"><ele>777.0</ele><time>2017-02-11T16:40:59Z</time></trkpt><trkpt lat="-23.580672" lon="-46.469674"><ele>777.0</ele><time>2017-02-11T16:41:08Z</time></trkpt><trkpt lat="-23.580685" lon="-46.469776"><ele>779.0</ele><time>2017-02-11T16:41:18Z</time></trkpt><trkpt lat="-23.580695" lon="-46.469883"><ele>773.0</ele><time>2017-02-11T16:41:27Z</time></trkpt><trkpt lat="-23.580749" lon="-46.469967"><ele>770.0</ele><time>2017-02-11T16:41:39Z</time></trkpt><trkpt lat="-23.58082" lon="-46.470028"><ele>768.0</ele><time>2017-02-11T16:41:47Z</time></trkpt><trkpt lat="-23.580906" lon="-46.470081"><ele>772.0</ele><time>2017-02-11T16:41:54Z</time></trkpt><trkpt lat="-23.580989" lon="-46.470125"><ele>772.0</ele><time>2017-02-11T16:42:02Z</time></trkpt><trkpt lat="-23.581062" lon="-46.470188"><ele>772.0</ele><time>2017-02-11T16:42:10Z</time></trkpt><trkpt lat="-23.581131" lon="-46.470263"><ele>773.0</ele><time>2017-02-11T16:42:19Z</time></trkpt><trkpt lat="-23.581193" lon="-46.470347"><ele>773.0</ele><time>2017-02-11T16:42:28Z</time></trkpt><trkpt lat="-23.581239" lon="-46.470441"><ele>775.0</ele><time>2017-02-11T16:42:39Z</time></trkpt><trkpt lat="-23.581271" lon="-46.470535"><ele>774.0</ele><time>2017-02-11T16:42:47Z</time></trkpt><trkpt lat="-23.581313" lon="-46.470625"><ele>770.0</ele><time>2017-02-11T16:42:55Z</time></trkpt><trkpt lat="-23.581358" lon="-46.470721"><ele>771.0</ele><time>2017-02-11T16:43:05Z</time></trkpt><trkpt lat="-23.581369" lon="-46.470829"><ele>771.0</ele><time>2017-02-11T16:43:14Z</time></trkpt><trkpt lat="-23.581375" lon="-46.470935"><ele>770.0</ele><time>2017-02-11T16:43:23Z</time></trkpt><trkpt lat="-23.581353" lon="-46.471031"><ele>769.0</ele><time>2017-02-11T16:43:30Z</time></trkpt><trkpt lat="-23.581331" lon="-46.471137"><ele>769.0</ele><time>2017-02-11T16:43:39Z</time></trkpt><trkpt lat="-23.581318" lon="-46.47124"><ele>768.0</ele><time>2017-02-11T16:43:48Z</time></trkpt><trkpt lat="-23.581347" lon="-46.471334"><ele>767.0</ele><time>2017-02-11T16:43:57Z</time></trkpt><trkpt lat="-23.581387" lon="-46.471431"><ele>769.0</ele><time>2017-02-11T16:44:07Z</time></trkpt><trkpt lat="-23.581412" lon="-46.471534"><ele>770.0</ele><time>2017-02-11T16:44:18Z</time></trkpt><trkpt lat="-23.581427" lon="-46.471631"><ele>772.0</ele><time>2017-02-11T16:44:26Z</time></trkpt><trkpt lat="-23.581419" lon="-46.471732"><ele>769.0</ele><time>2017-02-11T16:44:34Z</time></trkpt><trkpt lat="-23.581421" lon="-46.471833"><ele>771.0</ele><time>2017-02-11T16:44:42Z</time></trkpt><trkpt lat="-23.581393" lon="-46.471947"><ele>772.0</ele><time>2017-02-11T16:44:50Z</time></trkpt><trkpt lat="-23.581363" lon="-46.472044"><ele>771.0</ele><time>2017-02-11T16:44:59Z</time></trkpt><trkpt lat="-23.581341" lon="-46.47214"><ele>766.0</ele><time>2017-02-11T16:45:10Z</time></trkpt><trkpt lat="-23.581288" lon="-46.472224"><ele>769.0</ele><time>2017-02-11T16:45:19Z</time></trkpt><trkpt lat="-23.581317" lon="-46.472319"><ele>768.0</ele><time>2017-02-11T16:45:29Z</time></trkpt><trkpt lat="-23.581312" lon="-46.472424"><ele>767.0</ele><time>2017-02-11T16:45:37Z</time></trkpt><trkpt lat="-23.58131" lon="-46.472523"><ele>765.0</ele><time>2017-02-11T16:45:45Z</time></trkpt><trkpt lat="-23.581354" lon="-46.472635"><ele>762.0</ele><time>2017-02-11T16:45:54Z</time></trkpt><trkpt lat="-23.581417" lon="-46.472716"><ele>762.0</ele><time>2017-02-11T16:46:03Z</time></trkpt><trkpt lat="-23.581465" lon="-46.472801"><ele>763.0</ele><time>2017-02-11T16:46:13Z</time></trkpt><trkpt lat="-23.581393" lon="-46.472866"><ele>766.0</ele><time>2017-02-11T16:47:00Z</time></trkpt><trkpt lat="-23.581302" lon="-46.47285"><ele>765.0</ele><time>2017-02-11T16:47:08Z</time></trkpt><trkpt lat="-23.581255" lon="-46.472947"><ele>764.0</ele><time>2017-02-11T16:47:19Z</time></trkpt><trkpt lat="-23.581285" lon="-46.473043"><ele>763.0</ele><time>2017-02-11T16:47:27Z</time></trkpt><trkpt lat="-23.581313" lon="-46.473146"><ele>764.0</ele><time>2017-02-11T16:47:36Z</time></trkpt><trkpt lat="-23.581338" lon="-46.473252"><ele>764.0</ele><time>2017-02-11T16:47:47Z</time></trkpt><trkpt lat="-23.581284" lon="-46.473344"><ele>765.0</ele><time>2017-02-11T16:47:55Z</time></trkpt><trkpt lat="-23.581263" lon="-46.473446"><ele>763.0</ele><time>2017-02-11T16:48:03Z</time></trkpt><trkpt lat="-23.581289" lon="-46.47355"><ele>767.0</ele><time>2017-02-11T16:48:11Z</time></trkpt><trkpt lat="-23.581314" lon="-46.47365"><ele>771.0</ele><time>2017-02-11T16:48:20Z</time></trkpt><trkpt lat="-23.581337" lon="-46.473761"><ele>767.0</ele><time>2017-02-11T16:49:00Z</time></trkpt><trkpt lat="-23.581345" lon="-46.473872"><ele>768.0</ele><time>2017-02-11T16:49:06Z</time></trkpt><trkpt lat="-23.581371" lon="-46.473974"><ele>769.0</ele><time>2017-02-11T16:49:12Z</time></trkpt><trkpt lat="-23.581384" lon="-46.474075"><ele>766.0</ele><time>2017-02-11T16:49:20Z</time></trkpt><trkpt lat="-23.581373" lon="-46.474175"><ele>764.0</ele><time>2017-02-11T16:49:27Z</time></trkpt><trkpt lat="-23.581346" lon="-46.474271"><ele>767.0</ele><time>2017-02-11T16:49:35Z</time></trkpt><trkpt lat="-23.581351" lon="-46.474381"><ele>767.0</ele><time>2017-02-11T16:49:43Z</time></trkpt><trkpt lat="-23.581379" lon="-46.474475"><ele>769.0</ele><time>2017-02-11T16:49:50Z</time></trkpt><trkpt lat="-23.581419" lon="-46.474578"><ele>765.0</ele><time>2017-02-11T16:49:58Z</time></trkpt><trkpt lat="-23.581469" lon="-46.474664"><ele>764.0</ele><time>2017-02-11T16:50:05Z</time></trkpt><trkpt lat="-23.581519" lon="-46.474758"><ele>764.0</ele><time>2017-02-11T16:50:14Z</time></trkpt><trkpt lat="-23.581585" lon="-46.474828"><ele>763.0</ele><time>2017-02-11T16:50:24Z</time></trkpt><trkpt lat="-23.581681" lon="-46.474841"><ele>764.0</ele><time>2017-02-11T16:50:32Z</time></trkpt><trkpt lat="-23.581771" lon="-46.474855"><ele>765.0</ele><time>2017-02-11T16:50:39Z</time></trkpt><trkpt lat="-23.581868" lon="-46.474873"><ele>765.0</ele><time>2017-02-11T16:50:46Z</time></trkpt><trkpt lat="-23.581958" lon="-46.474862"><ele>761.0</ele><time>2017-02-11T16:50:54Z</time></trkpt><trkpt lat="-23.581991" lon="-46.474964"><ele>760.0</ele><time>2017-02-11T16:51:04Z</time></trkpt><trkpt lat="-23.582029" lon="-46.475058"><ele>759.0</ele><time>2017-02-11T16:51:14Z</time></trkpt><trkpt lat="-23.58205" lon="-46.475155"><ele>760.0</ele><time>2017-02-11T16:51:22Z</time></trkpt><trkpt lat="-23.582104" lon="-46.475243"><ele>758.0</ele><time>2017-02-11T16:51:33Z</time></trkpt><trkpt lat="-23.582195" lon="-46.475284"><ele>759.0</ele><time>2017-02-11T16:51:45Z</time></trkpt><trkpt lat="-23.582231" lon="-46.475378"><ele>761.0</ele><time>2017-02-11T16:51:52Z</time></trkpt><trkpt lat="-23.582263" lon="-46.475472"><ele>758.0</ele><time>2017-02-11T16:51:59Z</time></trkpt><trkpt lat="-23.582265" lon="-46.475583"><ele>758.0</ele><time>2017-02-11T16:52:09Z</time></trkpt><trkpt lat="-23.582302" lon="-46.475674"><ele>761.0</ele><time>2017-02-11T16:52:15Z</time></trkpt><trkpt lat="-23.582327" lon="-46.475769"><ele>763.0</ele><time>2017-02-11T16:52:21Z</time></trkpt><trkpt lat="-23.582373" lon="-46.475855"><ele>760.0</ele><time>2017-02-11T16:52:30Z</time></trkpt><trkpt lat="-23.582375" lon="-46.475954"><ele>758.0</ele><time>2017-02-11T16:52:40Z</time></trkpt><trkpt lat="-23.582429" lon="-46.476045"><ele>758.0</ele><time>2017-02-11T16:52:49Z</time></trkpt><trkpt lat="-23.582498" lon="-46.476124"><ele>754.0</ele><time>2017-02-11T16:52:57Z</time></trkpt><trkpt lat="-23.582552" lon="-46.476214"><ele>751.0</ele><time>2017-02-11T16:53:06Z</time></trkpt><trkpt lat="-23.582576" lon="-46.476312"><ele>751.0</ele><time>2017-02-11T16:53:14Z</time></trkpt><trkpt lat="-23.582605" lon="-46.476422"><ele>754.0</ele><time>2017-02-11T16:53:22Z</time></trkpt><trkpt lat="-23.582623" lon="-46.476527"><ele>755.0</ele><time>2017-02-11T16:53:29Z</time></trkpt><trkpt lat="-23.582681" lon="-46.476612"><ele>754.0</ele><time>2017-02-11T16:53:38Z</time></trkpt><trkpt lat="-23.582679" lon="-46.476721"><ele>755.0</ele><time>2017-02-11T16:53:44Z</time></trkpt><trkpt lat="-23.58273" lon="-46.476802"><ele>755.0</ele><time>2017-02-11T16:53:52Z</time></trkpt><trkpt lat="-23.582772" lon="-46.476893"><ele>754.0</ele><time>2017-02-11T16:54:01Z</time></trkpt><trkpt lat="-23.582779" lon="-46.476994"><ele>755.0</ele><time>2017-02-11T16:54:08Z</time></trkpt><trkpt lat="-23.582798" lon="-46.477096"><ele>753.0</ele><time>2017-02-11T16:54:19Z</time></trkpt><trkpt lat="-23.582844" lon="-46.47719"><ele>755.0</ele><time>2017-02-11T16:54:26Z</time></trkpt><trkpt lat="-23.5829" lon="-46.477274"><ele>757.0</ele><time>2017-02-11T16:54:38Z</time></trkpt><trkpt lat="-23.582922" lon="-46.477382"><ele>758.0</ele><time>2017-02-11T16:54:45Z</time></trkpt><trkpt lat="-23.582983" lon="-46.477466"><ele>757.0</ele><time>2017-02-11T16:54:52Z</time></trkpt><trkpt lat="-23.58307" lon="-46.477533"><ele>756.0</ele><time>2017-02-11T16:54:59Z</time></trkpt><trkpt lat="-23.583153" lon="-46.477596"><ele>752.0</ele><time>2017-02-11T16:55:08Z</time></trkpt><trkpt lat="-23.583228" lon="-46.477663"><ele>753.0</ele><time>2017-02-11T16:55:15Z</time></trkpt><trkpt lat="-23.583313" lon="-46.477705"><ele>753.0</ele><time>2017-02-11T16:55:26Z</time></trkpt><trkpt lat="-23.58335" lon="-46.4778"><ele>750.0</ele><time>2017-02-11T16:55:35Z</time></trkpt><trkpt lat="-23.583417" lon="-46.477874"><ele>754.0</ele><time>2017-02-11T16:55:41Z</time></trkpt><trkpt lat="-23.583486" lon="-46.477947"><ele>757.0</ele><time>2017-02-11T16:55:47Z</time></trkpt><trkpt lat="-23.583532" lon="-46.47804"><ele>758.0</ele><time>2017-02-11T16:55:54Z</time></trkpt><trkpt lat="-23.583592" lon="-46.478116"><ele>756.0</ele><time>2017-02-11T16:56:02Z</time></trkpt><trkpt lat="-23.58368" lon="-46.478173"><ele>756.0</ele><time>2017-02-11T16:56:10Z</time></trkpt><trkpt lat="-23.583763" lon="-46.478228"><ele>757.0</ele><time>2017-02-11T16:56:20Z</time></trkpt><trkpt lat="-23.583843" lon="-46.47829"><ele>756.0</ele><time>2017-02-11T16:56:30Z</time></trkpt><trkpt lat="-23.583915" lon="-46.478366"><ele>758.0</ele><time>2017-02-11T16:56:39Z</time></trkpt><trkpt lat="-23.583971" lon="-46.47845"><ele>757.0</ele><time>2017-02-11T16:56:47Z</time></trkpt><trkpt lat="-23.584029" lon="-46.478535"><ele>754.0</ele><time>2017-02-11T16:56:55Z</time></trkpt><trkpt lat="-23.584091" lon="-46.47862"><ele>753.0</ele><time>2017-02-11T16:57:03Z</time></trkpt><trkpt lat="-23.584155" lon="-46.4787"><ele>753.0</ele><time>2017-02-11T16:57:13Z</time></trkpt><trkpt lat="-23.584221" lon="-46.478782"><ele>752.0</ele><time>2017-02-11T16:57:22Z</time></trkpt><trkpt lat="-23.584286" lon="-46.478858"><ele>752.0</ele><time>2017-02-11T16:57:30Z</time></trkpt><trkpt lat="-23.58435" lon="-46.478939"><ele>751.0</ele><time>2017-02-11T16:57:38Z</time></trkpt><trkpt lat="-23.584418" lon="-46.47903"><ele>750.0</ele><time>2017-02-11T16:57:46Z</time></trkpt><trkpt lat="-23.584481" lon="-46.479106"><ele>750.0</ele><time>2017-02-11T16:57:55Z</time></trkpt><trkpt lat="-23.584535" lon="-46.479187"><ele>752.0</ele><time>2017-02-11T16:58:03Z</time></trkpt><trkpt lat="-23.584595" lon="-46.479263"><ele>754.0</ele><time>2017-02-11T16:58:12Z</time></trkpt><trkpt lat="-23.584652" lon="-46.479345"><ele>754.0</ele><time>2017-02-11T16:58:20Z</time></trkpt><trkpt lat="-23.584716" lon="-46.479423"><ele>754.0</ele><time>2017-02-11T16:58:29Z</time></trkpt><trkpt lat="-23.584785" lon="-46.479496"><ele>754.0</ele><time>2017-02-11T16:58:38Z</time></trkpt><trkpt lat="-23.584848" lon="-46.479574"><ele>753.0</ele><time>2017-02-11T16:58:46Z</time></trkpt><trkpt lat="-23.584916" lon="-46.479657"><ele>750.0</ele><time>2017-02-11T16:58:56Z</time></trkpt><trkpt lat="-23.584999" lon="-46.479712"><ele>752.0</ele><time>2017-02-11T16:59:05Z</time></trkpt><trkpt lat="-23.585078" lon="-46.479766"><ele>753.0</ele><time>2017-02-11T16:59:16Z</time></trkpt><trkpt lat="-23.585134" lon="-46.479851"><ele>754.0</ele><time>2017-02-11T16:59:47Z</time></trkpt><trkpt lat="-23.585148" lon="-46.479952"><ele>754.0</ele><time>2017-02-11T16:59:55Z</time></trkpt><trkpt lat="-23.585197" lon="-46.480042"><ele>757.0</ele><time>2017-02-11T17:00:03Z</time></trkpt><trkpt lat="-23.585248" lon="-46.480127"><ele>755.0</ele><time>2017-02-11T17:00:11Z</time></trkpt><trkpt lat="-23.585279" lon="-46.48022"><ele>760.0</ele><time>2017-02-11T17:00:18Z</time></trkpt><trkpt lat="-23.585347" lon="-46.48029"><ele>759.0</ele><time>2017-02-11T17:00:26Z</time></trkpt><trkpt lat="-23.585429" lon="-46.480345"><ele>753.0</ele><time>2017-02-11T17:00:34Z</time></trkpt><trkpt lat="-23.585508" lon="-46.480394"><ele>755.0</ele><time>2017-02-11T17:00:42Z</time></trkpt><trkpt lat="-23.585569" lon="-46.480477"><ele>753.0</ele><time>2017-02-11T17:00:51Z</time></trkpt><trkpt lat="-23.585635" lon="-46.480547"><ele>748.0</ele><time>2017-02-11T17:00:59Z</time></trkpt><trkpt lat="-23.585695" lon="-46.480632"><ele>749.0</ele><time>2017-02-11T17:01:08Z</time></trkpt><trkpt lat="-23.585765" lon="-46.480703"><ele>747.0</ele><time>2017-02-11T17:01:16Z</time></trkpt><trkpt lat="-23.585836" lon="-46.480771"><ele>745.0</ele><time>2017-02-11T17:01:24Z</time></trkpt><trkpt lat="-23.5859" lon="-46.48084"><ele>750.0</ele><time>2017-02-11T17:01:32Z</time></trkpt><trkpt lat="-23.585951" lon="-46.480922"><ele>750.0</ele><time>2017-02-11T17:01:40Z</time></trkpt><trkpt lat="-23.586016" lon="-46.481001"><ele>752.0</ele><time>2017-02-11T17:01:49Z</time></trkpt><trkpt lat="-23.586088" lon="-46.481075"><ele>748.0</ele><time>2017-02-11T17:01:58Z</time></trkpt><trkpt lat="-23.586169" lon="-46.481134"><ele>746.0</ele><time>2017-02-11T17:02:06Z</time></trkpt><trkpt lat="-23.586234" lon="-46.481208"><ele>746.0</ele><time>2017-02-11T17:02:14Z</time></trkpt><trkpt lat="-23.586304" lon="-46.481286"><ele>746.0</ele><time>2017-02-11T17:02:22Z</time></trkpt><trkpt lat="-23.586367" lon="-46.481364"><ele>744.0</ele><time>2017-02-11T17:02:30Z</time></trkpt><trkpt lat="-23.586426" lon="-46.481443"><ele>744.0</ele><time>2017-02-11T17:02:38Z</time></trkpt><trkpt lat="-23.586489" lon="-46.481519"><ele>744.0</ele><time>2017-02-11T17:02:47Z</time></trkpt><trkpt lat="-23.586548" lon="-46.481602"><ele>744.0</ele><time>2017-02-11T17:02:55Z</time></trkpt><trkpt lat="-23.586614" lon="-46.481675"><ele>744.0</ele><time>2017-02-11T17:03:03Z</time></trkpt><trkpt lat="-23.586594" lon="-46.481772"><ele>747.0</ele><time>2017-02-11T17:03:47Z</time></trkpt><trkpt lat="-23.586602" lon="-46.481881"><ele>745.0</ele><time>2017-02-11T17:03:56Z</time></trkpt><trkpt lat="-23.586636" lon="-46.481976"><ele>746.0</ele><time>2017-02-11T17:04:04Z</time></trkpt><trkpt lat="-23.58665" lon="-46.482083"><ele>748.0</ele><time>2017-02-11T17:04:13Z</time></trkpt><trkpt lat="-23.586667" lon="-46.48218"><ele>748.0</ele><time>2017-02-11T17:04:22Z</time></trkpt><trkpt lat="-23.586704" lon="-46.48228"><ele>748.0</ele><time>2017-02-11T17:04:32Z</time></trkpt><trkpt lat="-23.586665" lon="-46.482373"><ele>743.0</ele><time>2017-02-11T17:04:38Z</time></trkpt><trkpt lat="-23.586669" lon="-46.482477"><ele>744.0</ele><time>2017-02-11T17:04:45Z</time></trkpt><trkpt lat="-23.586703" lon="-46.48258"><ele>745.0</ele><time>2017-02-11T17:04:55Z</time></trkpt><trkpt lat="-23.58675" lon="-46.482672"><ele>745.0</ele><time>2017-02-11T17:05:05Z</time></trkpt><trkpt lat="-23.586844" lon="-46.482669"><ele>746.0</ele><time>2017-02-11T17:05:22Z</time></trkpt><trkpt lat="-23.586913" lon="-46.482737"><ele>745.0</ele><time>2017-02-11T17:05:29Z</time></trkpt><trkpt lat="-23.586975" lon="-46.482821"><ele>746.0</ele><time>2017-02-11T17:05:38Z</time></trkpt><trkpt lat="-23.587035" lon="-46.482904"><ele>746.0</ele><time>2017-02-11T17:05:48Z</time></trkpt><trkpt lat="-23.587107" lon="-46.482978"><ele>746.0</ele><time>2017-02-11T17:05:59Z</time></trkpt><trkpt lat="-23.587143" lon="-46.483077"><ele>746.0</ele><time>2017-02-11T17:06:09Z</time></trkpt><trkpt lat="-23.58712" lon="-46.483181"><ele>747.0</ele><time>2017-02-11T17:06:19Z</time></trkpt><trkpt lat="-23.587148" lon="-46.483287"><ele>746.0</ele><time>2017-02-11T17:08:51Z</time></trkpt><trkpt lat="-23.587219" lon="-46.48336"><ele>741.0</ele><time>2017-02-11T17:08:58Z</time></trkpt><trkpt lat="-23.587313" lon="-46.483365"><ele>751.0</ele><time>2017-02-11T17:09:19Z</time></trkpt><trkpt lat="-23.587392" lon="-46.483442"><ele>746.0</ele><time>2017-02-11T17:10:12Z</time></trkpt><trkpt lat="-23.587435" lon="-46.483531"><ele>743.0</ele><time>2017-02-11T17:10:17Z</time></trkpt><trkpt lat="-23.58748" lon="-46.483628"><ele>743.0</ele><time>2017-02-11T17:10:24Z</time></trkpt><trkpt lat="-23.587548" lon="-46.483696"><ele>743.0</ele><time>2017-02-11T17:10:31Z</time></trkpt><trkpt lat="-23.58761" lon="-46.483783"><ele>739.0</ele><time>2017-02-11T17:10:39Z</time></trkpt><trkpt lat="-23.587645" lon="-46.483879"><ele>738.0</ele><time>2017-02-11T17:10:47Z</time></trkpt><trkpt lat="-23.587699" lon="-46.483965"><ele>738.0</ele><time>2017-02-11T17:10:56Z</time></trkpt><trkpt lat="-23.587787" lon="-46.484019"><ele>743.0</ele><time>2017-02-11T17:11:02Z</time></trkpt><trkpt lat="-23.587848" lon="-46.484104"><ele>746.0</ele><time>2017-02-11T17:11:09Z</time></trkpt><trkpt lat="-23.587907" lon="-46.484185"><ele>746.0</ele><time>2017-02-11T17:11:18Z</time></trkpt><trkpt lat="-23.587977" lon="-46.484254"><ele>743.0</ele><time>2017-02-11T17:11:26Z</time></trkpt><trkpt lat="-23.588054" lon="-46.484318"><ele>742.0</ele><time>2017-02-11T17:11:35Z</time></trkpt><trkpt lat="-23.588102" lon="-46.484405"><ele>741.0</ele><time>2017-02-11T17:11:45Z</time></trkpt><trkpt lat="-23.588175" lon="-46.484477"><ele>743.0</ele><time>2017-02-11T17:11:54Z</time></trkpt><trkpt lat="-23.588249" lon="-46.484551"><ele>745.0</ele><time>2017-02-11T17:12:02Z</time></trkpt><trkpt lat="-23.588326" lon="-46.484618"><ele>745.0</ele><time>2017-02-11T17:12:09Z</time></trkpt><trkpt lat="-23.588377" lon="-46.484708"><ele>746.0</ele><time>2017-02-11T17:12:18Z</time></trkpt><trkpt lat="-23.588449" lon="-46.484778"><ele>749.0</ele><time>2017-02-11T17:12:27Z</time></trkpt><trkpt lat="-23.588517" lon="-46.484847"><ele>748.0</ele><time>2017-02-11T17:12:40Z</time></trkpt><trkpt lat="-23.588577" lon="-46.484925"><ele>751.0</ele><time>2017-02-11T17:13:40Z</time></trkpt><trkpt lat="-23.588641" lon="-46.484998"><ele>752.0</ele><time>2017-02-11T17:13:48Z</time></trkpt><trkpt lat="-23.588704" lon="-46.485076"><ele>754.0</ele><time>2017-02-11T17:13:56Z</time></trkpt><trkpt lat="-23.588746" lon="-46.485165"><ele>749.0</ele><time>2017-02-11T17:14:05Z</time></trkpt><trkpt lat="-23.588791" lon="-46.485253"><ele>751.0</ele><time>2017-02-11T17:14:15Z</time></trkpt><trkpt lat="-23.588835" lon="-46.485347"><ele>750.0</ele><time>2017-02-11T17:14:25Z</time></trkpt><trkpt lat="-23.58891" lon="-46.485411"><ele>751.0</ele><time>2017-02-11T17:14:32Z</time></trkpt><trkpt lat="-23.588988" lon="-46.485479"><ele>750.0</ele><time>2017-02-11T17:14:44Z</time></trkpt><trkpt lat="-23.589053" lon="-46.485551"><ele>747.0</ele><time>2017-02-11T17:14:55Z</time></trkpt><trkpt lat="-23.589122" lon="-46.485624"><ele>752.0</ele><time>2017-02-11T17:15:01Z</time></trkpt><trkpt lat="-23.589216" lon="-46.485649"><ele>759.0</ele><time>2017-02-11T17:15:07Z</time></trkpt><trkpt lat="-23.589315" lon="-46.485643"><ele>763.0</ele><time>2017-02-11T17:15:16Z</time></trkpt><trkpt lat="-23.589397" lon="-46.485697"><ele>762.0</ele><time>2017-02-11T17:15:30Z</time></trkpt><trkpt lat="-23.589443" lon="-46.485792"><ele>764.0</ele><time>2017-02-11T17:15:40Z</time></trkpt><trkpt lat="-23.589486" lon="-46.485884"><ele>764.0</ele><time>2017-02-11T17:15:50Z</time></trkpt><trkpt lat="-23.589547" lon="-46.485965"><ele>769.0</ele><time>2017-02-11T17:16:00Z</time></trkpt><trkpt lat="-23.589607" lon="-46.486045"><ele>768.0</ele><time>2017-02-11T17:16:09Z</time></trkpt><trkpt lat="-23.5897" lon="-46.486072"><ele>762.0</ele><time>2017-02-11T17:16:16Z</time></trkpt><trkpt lat="-23.589781" lon="-46.486134"><ele>764.0</ele><time>2017-02-11T17:16:37Z</time></trkpt><trkpt lat="-23.589825" lon="-46.486225"><ele>763.0</ele><time>2017-02-11T17:16:46Z</time></trkpt><trkpt lat="-23.589895" lon="-46.486299"><ele>763.0</ele><time>2017-02-11T17:16:53Z</time></trkpt><trkpt lat="-23.589964" lon="-46.486369"><ele>764.0</ele><time>2017-02-11T17:17:02Z</time></trkpt><trkpt lat="-23.589985" lon="-46.486466"><ele>764.0</ele><time>2017-02-11T17:17:17Z</time></trkpt><trkpt lat="-23.590041" lon="-46.486547"><ele>757.0</ele><time>2017-02-11T17:17:50Z</time></trkpt><trkpt lat="-23.590106" lon="-46.486618"><ele>759.0</ele><time>2017-02-11T17:17:58Z</time></trkpt><trkpt lat="-23.590159" lon="-46.486701"><ele>760.0</ele><time>2017-02-11T17:18:07Z</time></trkpt><trkpt lat="-23.590214" lon="-46.486782"><ele>760.0</ele><time>2017-02-11T17:18:35Z</time></trkpt><trkpt lat="-23.590285" lon="-46.486855"><ele>761.0</ele><time>2017-02-11T17:18:44Z</time></trkpt><trkpt lat="-23.590329" lon="-46.486941"><ele>765.0</ele><time>2017-02-11T17:18:53Z</time></trkpt><trkpt lat="-23.590371" lon="-46.487032"><ele>764.0</ele><time>2017-02-11T17:19:02Z</time></trkpt><trkpt lat="-23.590414" lon="-46.487134"><ele>764.0</ele><time>2017-02-11T17:19:10Z</time></trkpt><trkpt lat="-23.590463" lon="-46.48722"><ele>766.0</ele><time>2017-02-11T17:19:36Z</time></trkpt><trkpt lat="-23.590502" lon="-46.48732"><ele>767.0</ele><time>2017-02-11T17:19:48Z</time></trkpt><trkpt lat="-23.590544" lon="-46.487408"><ele>768.0</ele><time>2017-02-11T17:19:56Z</time></trkpt><trkpt lat="-23.590589" lon="-46.487494"><ele>769.0</ele><time>2017-02-11T17:20:21Z</time></trkpt><trkpt lat="-23.590611" lon="-46.487599"><ele>769.0</ele><time>2017-02-11T17:20:43Z</time></trkpt><trkpt lat="-23.590611" lon="-46.487698"><ele>768.0</ele><time>2017-02-11T17:21:26Z</time></trkpt><trkpt lat="-23.590648" lon="-46.487795"><ele>768.0</ele><time>2017-02-11T17:21:34Z</time></trkpt><trkpt lat="-23.590699" lon="-46.487883"><ele>770.0</ele><time>2017-02-11T17:21:46Z</time></trkpt><trkpt lat="-23.590716" lon="-46.487992"><ele>768.0</ele><time>2017-02-11T17:21:53Z</time></trkpt><trkpt lat="-23.590705" lon="-46.488091"><ele>765.0</ele><time>2017-02-11T17:22:00Z</time></trkpt><trkpt lat="-23.590762" lon="-46.488171"><ele>770.0</ele><time>2017-02-11T17:22:10Z</time></trkpt><trkpt lat="-23.590813" lon="-46.488257"><ele>772.0</ele><time>2017-02-11T17:22:21Z</time></trkpt><trkpt lat="-23.590817" lon="-46.488355"><ele>778.0</ele><time>2017-02-11T17:22:33Z</time></trkpt><trkpt lat="-23.590853" lon="-46.48845"><ele>775.0</ele><time>2017-02-11T17:22:41Z</time></trkpt><trkpt lat="-23.590921" lon="-46.488514"><ele>778.0</ele><time>2017-02-11T17:22:52Z</time></trkpt><trkpt lat="-23.591011" lon="-46.488522"><ele>779.0</ele><time>2017-02-11T17:22:59Z</time></trkpt><trkpt lat="-23.591107" lon="-46.488501"><ele>776.0</ele><time>2017-02-11T17:23:07Z</time></trkpt><trkpt lat="-23.591192" lon="-46.48846"><ele>776.0</ele><time>2017-02-11T17:23:16Z</time></trkpt><trkpt lat="-23.591287" lon="-46.488433"><ele>775.0</ele><time>2017-02-11T17:23:25Z</time></trkpt><trkpt lat="-23.591386" lon="-46.48842"><ele>775.0</ele><time>2017-02-11T17:23:32Z</time></trkpt><trkpt lat="-23.591466" lon="-46.488368"><ele>776.0</ele><time>2017-02-11T17:24:19Z</time></trkpt><trkpt lat="-23.591558" lon="-46.488327"><ele>781.0</ele><time>2017-02-11T17:24:27Z</time></trkpt><trkpt lat="-23.591654" lon="-46.488306"><ele>783.0</ele><time>2017-02-11T17:24:37Z</time></trkpt><trkpt lat="-23.59175" lon="-46.48829"><ele>781.0</ele><time>2017-02-11T17:24:45Z</time></trkpt><trkpt lat="-23.591837" lon="-46.488236"><ele>781.0</ele><time>2017-02-11T17:24:53Z</time></trkpt><trkpt lat="-23.591924" lon="-46.488198"><ele>779.0</ele><time>2017-02-11T17:25:02Z</time></trkpt><trkpt lat="-23.592016" lon="-46.488164"><ele>779.0</ele><time>2017-02-11T17:25:10Z</time></trkpt><trkpt lat="-23.592116" lon="-46.488143"><ele>786.0</ele><time>2017-02-11T17:25:30Z</time></trkpt><trkpt lat="-23.592205" lon="-46.488114"><ele>788.0</ele><time>2017-02-11T17:25:36Z</time></trkpt><trkpt lat="-23.592297" lon="-46.488077"><ele>791.0</ele><time>2017-02-11T17:25:42Z</time></trkpt><trkpt lat="-23.592393" lon="-46.488045"><ele>793.0</ele><time>2017-02-11T17:25:49Z</time></trkpt><trkpt lat="-23.592486" lon="-46.488002"><ele>793.0</ele><time>2017-02-11T17:25:57Z</time></trkpt><trkpt lat="-23.592578" lon="-46.48796"><ele>794.0</ele><time>2017-02-11T17:26:06Z</time></trkpt><trkpt lat="-23.592661" lon="-46.487918"><ele>795.0</ele><time>2017-02-11T17:26:18Z</time></trkpt><trkpt lat="-23.592742" lon="-46.487863"><ele>793.0</ele><time>2017-02-11T17:26:41Z</time></trkpt><trkpt lat="-23.592833" lon="-46.48786"><ele>789.0</ele><time>2017-02-11T17:26:47Z</time></trkpt><trkpt lat="-23.592928" lon="-46.487862"><ele>784.0</ele><time>2017-02-11T17:26:54Z</time></trkpt><trkpt lat="-23.593011" lon="-46.487812"><ele>786.0</ele><time>2017-02-11T17:27:03Z</time></trkpt><trkpt lat="-23.5931" lon="-46.487756"><ele>786.0</ele><time>2017-02-11T17:27:11Z</time></trkpt><trkpt lat="-23.5932" lon="-46.487748"><ele>787.0</ele><time>2017-02-11T17:27:21Z</time></trkpt><trkpt lat="-23.593297" lon="-46.48771"><ele>786.0</ele><time>2017-02-11T17:27:31Z</time></trkpt><trkpt lat="-23.593395" lon="-46.487686"><ele>785.0</ele><time>2017-02-11T17:27:38Z</time></trkpt><trkpt lat="-23.593481" lon="-46.487647"><ele>787.0</ele><time>2017-02-11T17:27:46Z</time></trkpt><trkpt lat="-23.593564" lon="-46.487606"><ele>786.0</ele><time>2017-02-11T17:27:55Z</time></trkpt><trkpt lat="-23.593655" lon="-46.487581"><ele>786.0</ele><time>2017-02-11T17:28:05Z</time></trkpt><trkpt lat="-23.593749" lon="-46.487542"><ele>791.0</ele><time>2017-02-11T17:28:19Z</time></trkpt><trkpt lat="-23.593839" lon="-46.487504"><ele>788.0</ele><time>2017-02-11T17:28:29Z</time></trkpt><trkpt lat="-23.593935" lon="-46.487513"><ele>787.0</ele><time>2017-02-11T17:28:40Z</time></trkpt><trkpt lat="-23.594021" lon="-46.487478"><ele>787.0</ele><time>2017-02-11T17:28:51Z</time></trkpt><trkpt lat="-23.594108" lon="-46.487438"><ele>787.0</ele><time>2017-02-11T17:29:02Z</time></trkpt><trkpt lat="-23.594195" lon="-46.487414"><ele>791.0</ele><time>2017-02-11T17:29:23Z</time></trkpt><trkpt lat="-23.594267" lon="-46.487354"><ele>795.0</ele><time>2017-02-11T17:29:33Z</time></trkpt><trkpt lat="-23.594357" lon="-46.487332"><ele>794.0</ele><time>2017-02-11T17:29:42Z</time></trkpt><trkpt lat="-23.594447" lon="-46.487303"><ele>795.0</ele><time>2017-02-11T17:29:53Z</time></trkpt><trkpt lat="-23.594523" lon="-46.487241"><ele>798.0</ele><time>2017-02-11T17:30:05Z</time></trkpt><trkpt lat="-23.594612" lon="-46.487195"><ele>800.0</ele><time>2017-02-11T17:30:14Z</time></trkpt><trkpt lat="-23.594702" lon="-46.487161"><ele>804.0</ele><time>2017-02-11T17:30:27Z</time></trkpt><trkpt lat="-23.594791" lon="-46.48713"><ele>807.0</ele><time>2017-02-11T17:30:38Z</time></trkpt><trkpt lat="-23.594887" lon="-46.487112"><ele>808.0</ele><time>2017-02-11T17:30:49Z</time></trkpt><trkpt lat="-23.594971" lon="-46.48707"><ele>802.0</ele><time>2017-02-11T17:30:56Z</time></trkpt><trkpt lat="-23.595067" lon="-46.487069"><ele>801.0</ele><time>2017-02-11T17:31:05Z</time></trkpt><trkpt lat="-23.595161" lon="-46.487039"><ele>804.0</ele><time>2017-02-11T17:31:16Z</time></trkpt><trkpt lat="-23.595251" lon="-46.486996"><ele>802.0</ele><time>2017-02-11T17:31:26Z</time></trkpt><trkpt lat="-23.595341" lon="-46.486978"><ele>798.0</ele><time>2017-02-11T17:31:41Z</time></trkpt><trkpt lat="-23.59544" lon="-46.48695"><ele>796.0</ele><time>2017-02-11T17:31:49Z</time></trkpt><trkpt lat="-23.595511" lon="-46.48688"><ele>806.0</ele><time>2017-02-11T17:32:02Z</time></trkpt><trkpt lat="-23.59561" lon="-46.486869"><ele>798.0</ele><time>2017-02-11T17:32:29Z</time></trkpt><trkpt lat="-23.595695" lon="-46.486822"><ele>798.0</ele><time>2017-02-11T17:32:34Z</time></trkpt><trkpt lat="-23.595781" lon="-46.486858"><ele>792.0</ele><time>2017-02-11T17:32:41Z</time></trkpt><trkpt lat="-23.595863" lon="-46.486815"><ele>797.0</ele><time>2017-02-11T17:32:48Z</time></trkpt><trkpt lat="-23.595933" lon="-46.486752"><ele>806.0</ele><time>2017-02-11T17:32:55Z</time></trkpt><trkpt lat="-23.596005" lon="-46.486683"><ele>808.0</ele><time>2017-02-11T17:33:05Z</time></trkpt><trkpt lat="-23.59609" lon="-46.48665"><ele>806.0</ele><time>2017-02-11T17:33:15Z</time></trkpt><trkpt lat="-23.596186" lon="-46.486631"><ele>810.0</ele><time>2017-02-11T17:33:26Z</time></trkpt><trkpt lat="-23.596275" lon="-46.486604"><ele>805.0</ele><time>2017-02-11T17:33:35Z</time></trkpt><trkpt lat="-23.59636" lon="-46.48657"><ele>800.0</ele><time>2017-02-11T17:33:45Z</time></trkpt><trkpt lat="-23.596455" lon="-46.486545"><ele>803.0</ele><time>2017-02-11T17:33:56Z</time></trkpt><trkpt lat="-23.596555" lon="-46.486485"><ele>809.0</ele><time>2017-02-11T17:34:13Z</time></trkpt><trkpt lat="-23.596625" lon="-46.486421"><ele>816.0</ele><time>2017-02-11T17:34:21Z</time></trkpt><trkpt lat="-23.596699" lon="-46.486358"><ele>818.0</ele><time>2017-02-11T17:34:30Z</time></trkpt><trkpt lat="-23.596791" lon="-46.486312"><ele>810.0</ele><time>2017-02-11T17:34:39Z</time></trkpt><trkpt lat="-23.596883" lon="-46.486294"><ele>812.0</ele><time>2017-02-11T17:34:48Z</time></trkpt><trkpt lat="-23.596954" lon="-46.486364"><ele>813.0</ele><time>2017-02-11T17:34:59Z</time></trkpt><trkpt lat="-23.597024" lon="-46.48643"><ele>809.0</ele><time>2017-02-11T17:35:06Z</time></trkpt><trkpt lat="-23.597076" lon="-46.48652"><ele>810.0</ele><time>2017-02-11T17:35:16Z</time></trkpt><trkpt lat="-23.597104" lon="-46.486616"><ele>805.0</ele><time>2017-02-11T17:35:26Z</time></trkpt><trkpt lat="-23.597152" lon="-46.486706"><ele>807.0</ele><time>2017-02-11T17:35:36Z</time></trkpt><trkpt lat="-23.597252" lon="-46.486706"><ele>802.0</ele><time>2017-02-11T17:35:45Z</time></trkpt><trkpt lat="-23.597359" lon="-46.486709"><ele>794.0</ele><time>2017-02-11T17:35:51Z</time></trkpt><trkpt lat="-23.597455" lon="-46.486712"><ele>808.0</ele><time>2017-02-11T17:36:14Z</time></trkpt><trkpt lat="-23.597543" lon="-46.486668"><ele>813.0</ele><time>2017-02-11T17:36:25Z</time></trkpt><trkpt lat="-23.597629" lon="-46.486628"><ele>812.0</ele><time>2017-02-11T17:36:36Z</time></trkpt><trkpt lat="-23.597714" lon="-46.486575"><ele>810.0</ele><time>2017-02-11T17:36:46Z</time></trkpt><trkpt lat="-23.597796" lon="-46.486516"><ele>812.0</ele><time>2017-02-11T17:36:55Z</time></trkpt><trkpt lat="-23.597866" lon="-46.486445"><ele>811.0</ele><time>2017-02-11T17:37:04Z</time></trkpt><trkpt lat="-23.59793" lon="-46.486375"><ele>812.0</ele><time>2017-02-11T17:37:13Z</time></trkpt><trkpt lat="-23.598008" lon="-46.486306"><ele>812.0</ele><time>2017-02-11T17:37:23Z</time></trkpt><trkpt lat="-23.598095" lon="-46.486236"><ele>814.0</ele><time>2017-02-11T17:37:32Z</time></trkpt><trkpt lat="-23.598176" lon="-46.486174"><ele>813.0</ele><time>2017-02-11T17:37:41Z</time></trkpt><trkpt lat="-23.598261" lon="-46.486128"><ele>810.0</ele><time>2017-02-11T17:37:49Z</time></trkpt><trkpt lat="-23.598352" lon="-46.48609"><ele>810.0</ele><time>2017-02-11T17:37:58Z</time></trkpt><trkpt lat="-23.59843" lon="-46.486033"><ele>809.0</ele><time>2017-02-11T17:38:07Z</time></trkpt><trkpt lat="-23.598486" lon="-46.485955"><ele>810.0</ele><time>2017-02-11T17:38:18Z</time></trkpt><trkpt lat="-23.598547" lon="-46.485867"><ele>808.0</ele><time>2017-02-11T17:38:48Z</time></trkpt><trkpt lat="-23.59862" lon="-46.485793"><ele>806.0</ele><time>2017-02-11T17:38:56Z</time></trkpt><trkpt lat="-23.59871" lon="-46.485762"><ele>804.0</ele><time>2017-02-11T17:39:02Z</time></trkpt><trkpt lat="-23.598797" lon="-46.485717"><ele>806.0</ele><time>2017-02-11T17:39:10Z</time></trkpt><trkpt lat="-23.598878" lon="-46.485671"><ele>806.0</ele><time>2017-02-11T17:39:18Z</time></trkpt><trkpt lat="-23.598945" lon="-46.485603"><ele>809.0</ele><time>2017-02-11T17:39:27Z</time></trkpt><trkpt lat="-23.599031" lon="-46.48555"><ele>808.0</ele><time>2017-02-11T17:39:36Z</time></trkpt><trkpt lat="-23.599111" lon="-46.485491"><ele>810.0</ele><time>2017-02-11T17:39:46Z</time></trkpt><trkpt lat="-23.599189" lon="-46.485428"><ele>811.0</ele><time>2017-02-11T17:39:55Z</time></trkpt><trkpt lat="-23.599258" lon="-46.485358"><ele>808.0</ele><time>2017-02-11T17:40:03Z</time></trkpt><trkpt lat="-23.599333" lon="-46.48529"><ele>810.0</ele><time>2017-02-11T17:40:12Z</time></trkpt><trkpt lat="-23.599387" lon="-46.485212"><ele>805.0</ele><time>2017-02-11T17:40:20Z</time></trkpt><trkpt lat="-23.599468" lon="-46.485164"><ele>810.0</ele><time>2017-02-11T17:40:37Z</time></trkpt><trkpt lat="-23.599549" lon="-46.485111"><ele>809.0</ele><time>2017-02-11T17:40:46Z</time></trkpt><trkpt lat="-23.599616" lon="-46.485046"><ele>809.0</ele><time>2017-02-11T17:40:54Z</time></trkpt><trkpt lat="-23.599668" lon="-46.484961"><ele>815.0</ele><time>2017-02-11T17:41:11Z</time></trkpt><trkpt lat="-23.599734" lon="-46.484894"><ele>818.0</ele><time>2017-02-11T17:41:19Z</time></trkpt><trkpt lat="-23.599818" lon="-46.484843"><ele>817.0</ele><time>2017-02-11T17:41:26Z</time></trkpt><trkpt lat="-23.599904" lon="-46.484802"><ele>814.0</ele><time>2017-02-11T17:41:32Z</time></trkpt><trkpt lat="-23.599984" lon="-46.48474"><ele>816.0</ele><time>2017-02-11T17:41:40Z</time></trkpt><trkpt lat="-23.600058" lon="-46.48468"><ele>820.0</ele><time>2017-02-11T17:41:51Z</time></trkpt><trkpt lat="-23.600139" lon="-46.48462"><ele>815.0</ele><time>2017-02-11T17:42:00Z</time></trkpt><trkpt lat="-23.600213" lon="-46.484549"><ele>820.0</ele><time>2017-02-11T17:42:10Z</time></trkpt><trkpt lat="-23.600283" lon="-46.484477"><ele>816.0</ele><time>2017-02-11T17:42:21Z</time></trkpt><trkpt lat="-23.600358" lon="-46.484421"><ele>817.0</ele><time>2017-02-11T17:42:29Z</time></trkpt><trkpt lat="-23.600433" lon="-46.484351"><ele>816.0</ele><time>2017-02-11T17:42:40Z</time></trkpt><trkpt lat="-23.600483" lon="-46.484263"><ele>819.0</ele><time>2017-02-11T17:42:51Z</time></trkpt><trkpt lat="-23.600547" lon="-46.484182"><ele>824.0</ele><time>2017-02-11T17:43:02Z</time></trkpt><trkpt lat="-23.600645" lon="-46.484157"><ele>822.0</ele><time>2017-02-11T17:43:12Z</time></trkpt><trkpt lat="-23.600737" lon="-46.484122"><ele>822.0</ele><time>2017-02-11T17:43:21Z</time></trkpt><trkpt lat="-23.600802" lon="-46.48404"><ele>824.0</ele><time>2017-02-11T17:43:28Z</time></trkpt><trkpt lat="-23.60086" lon="-46.483962"><ele>821.0</ele><time>2017-02-11T17:43:38Z</time></trkpt><trkpt lat="-23.600937" lon="-46.483905"><ele>821.0</ele><time>2017-02-11T17:43:51Z</time></trkpt><trkpt lat="-23.601025" lon="-46.483864"><ele>821.0</ele><time>2017-02-11T17:44:01Z</time></trkpt><trkpt lat="-23.601103" lon="-46.483799"><ele>823.0</ele><time>2017-02-11T17:44:10Z</time></trkpt><trkpt lat="-23.601166" lon="-46.483724"><ele>821.0</ele><time>2017-02-11T17:44:18Z</time></trkpt><trkpt lat="-23.601245" lon="-46.483675"><ele>817.0</ele><time>2017-02-11T17:44:26Z</time></trkpt><trkpt lat="-23.601304" lon="-46.483585"><ele>822.0</ele><time>2017-02-11T17:44:36Z</time></trkpt><trkpt lat="-23.601377" lon="-46.483519"><ele>821.0</ele><time>2017-02-11T17:44:46Z</time></trkpt><trkpt lat="-23.601437" lon="-46.483442"><ele>820.0</ele><time>2017-02-11T17:44:58Z</time></trkpt><trkpt lat="-23.601505" lon="-46.483375"><ele>821.0</ele><time>2017-02-11T17:45:07Z</time></trkpt><trkpt lat="-23.601569" lon="-46.483302"><ele>819.0</ele><time>2017-02-11T17:45:16Z</time></trkpt><trkpt lat="-23.601652" lon="-46.483244"><ele>820.0</ele><time>2017-02-11T17:45:25Z</time></trkpt><trkpt lat="-23.601726" lon="-46.48318"><ele>818.0</ele><time>2017-02-11T17:45:34Z</time></trkpt><trkpt lat="-23.601818" lon="-46.48318"><ele>814.0</ele><time>2017-02-11T17:45:54Z</time></trkpt><trkpt lat="-23.601885" lon="-46.4831"><ele>815.0</ele><time>2017-02-11T17:46:07Z</time></trkpt><trkpt lat="-23.601955" lon="-46.483034"><ele>814.0</ele><time>2017-02-11T17:46:18Z</time></trkpt><trkpt lat="-23.601999" lon="-46.482943"><ele>816.0</ele><time>2017-02-11T17:46:55Z</time></trkpt><trkpt lat="-23.60206" lon="-46.482859"><ele>821.0</ele><time>2017-02-11T17:47:02Z</time></trkpt><trkpt lat="-23.602147" lon="-46.482815"><ele>819.0</ele><time>2017-02-11T17:47:11Z</time></trkpt><trkpt lat="-23.602232" lon="-46.48277"><ele>815.0</ele><time>2017-02-11T17:47:19Z</time></trkpt><trkpt lat="-23.602314" lon="-46.482728"><ele>821.0</ele><time>2017-02-11T17:47:29Z</time></trkpt><trkpt lat="-23.602374" lon="-46.482648"><ele>823.0</ele><time>2017-02-11T17:47:38Z</time></trkpt><trkpt lat="-23.602456" lon="-46.482595"><ele>822.0</ele><time>2017-02-11T17:47:46Z</time></trkpt><trkpt lat="-23.602542" lon="-46.482562"><ele>818.0</ele><time>2017-02-11T17:47:56Z</time></trkpt><trkpt lat="-23.6026" lon="-46.48248"><ele>815.0</ele><time>2017-02-11T17:48:05Z</time></trkpt><trkpt lat="-23.602669" lon="-46.482398"><ele>814.0</ele><time>2017-02-11T17:48:13Z</time></trkpt><trkpt lat="-23.602748" lon="-46.482341"><ele>813.0</ele><time>2017-02-11T17:48:22Z</time></trkpt><trkpt lat="-23.602846" lon="-46.482311"><ele>809.0</ele><time>2017-02-11T17:48:32Z</time></trkpt><trkpt lat="-23.602906" lon="-46.48223"><ele>808.0</ele><time>2017-02-11T17:48:41Z</time></trkpt><trkpt lat="-23.602978" lon="-46.482166"><ele>811.0</ele><time>2017-02-11T17:48:55Z</time></trkpt><trkpt lat="-23.603065" lon="-46.48212"><ele>811.0</ele><time>2017-02-11T17:49:04Z</time></trkpt><trkpt lat="-23.603128" lon="-46.482041"><ele>812.0</ele><time>2017-02-11T17:49:14Z</time></trkpt><trkpt lat="-23.603177" lon="-46.481952"><ele>816.0</ele><time>2017-02-11T17:49:24Z</time></trkpt><trkpt lat="-23.603262" lon="-46.481914"><ele>817.0</ele><time>2017-02-11T17:49:34Z</time></trkpt><trkpt lat="-23.603342" lon="-46.481858"><ele>812.0</ele><time>2017-02-11T17:49:44Z</time></trkpt><trkpt lat="-23.603416" lon="-46.481796"><ele>813.0</ele><time>2017-02-11T17:49:54Z</time></trkpt><trkpt lat="-23.603498" lon="-46.481732"><ele>813.0</ele><time>2017-02-11T17:50:05Z</time></trkpt><trkpt lat="-23.603558" lon="-46.48166"><ele>817.0</ele><time>2017-02-11T17:50:11Z</time></trkpt><trkpt lat="-23.603618" lon="-46.481572"><ele>812.0</ele><time>2017-02-11T17:50:19Z</time></trkpt><trkpt lat="-23.6037" lon="-46.481528"><ele>823.0</ele><time>2017-02-11T17:50:29Z</time></trkpt><trkpt lat="-23.603754" lon="-46.481446"><ele>823.0</ele><time>2017-02-11T17:50:38Z</time></trkpt><trkpt lat="-23.603839" lon="-46.481407"><ele>819.0</ele><time>2017-02-11T17:50:47Z</time></trkpt><trkpt lat="-23.603919" lon="-46.481357"><ele>820.0</ele><time>2017-02-11T17:50:55Z</time></trkpt><trkpt lat="-23.603992" lon="-46.481294"><ele>812.0</ele><time>2017-02-11T17:51:06Z</time></trkpt><trkpt lat="-23.604076" lon="-46.481236"><ele>811.0</ele><time>2017-02-11T17:51:15Z</time></trkpt><trkpt lat="-23.604154" lon="-46.481182"><ele>809.0</ele><time>2017-02-11T17:51:24Z</time></trkpt><trkpt lat="-23.604213" lon="-46.481104"><ele>811.0</ele><time>2017-02-11T17:51:33Z</time></trkpt><trkpt lat="-23.604291" lon="-46.481045"><ele>814.0</ele><time>2017-02-11T17:51:44Z</time></trkpt><trkpt lat="-23.604358" lon="-46.480978"><ele>814.0</ele><time>2017-02-11T17:51:53Z</time></trkpt><trkpt lat="-23.604433" lon="-46.48091"><ele>813.0</ele><time>2017-02-11T17:52:02Z</time></trkpt><trkpt lat="-23.604485" lon="-46.480827"><ele>816.0</ele><time>2017-02-11T17:52:13Z</time></trkpt><trkpt lat="-23.604582" lon="-46.480801"><ele>816.0</ele><time>2017-02-11T17:52:26Z</time></trkpt><trkpt lat="-23.604626" lon="-46.480715"><ele>817.0</ele><time>2017-02-11T17:52:34Z</time></trkpt><trkpt lat="-23.604695" lon="-46.48065"><ele>820.0</ele><time>2017-02-11T17:52:40Z</time></trkpt><trkpt lat="-23.60478" lon="-46.480594"><ele>817.0</ele><time>2017-02-11T17:52:51Z</time></trkpt><trkpt lat="-23.604852" lon="-46.480535"><ele>814.0</ele><time>2017-02-11T17:52:59Z</time></trkpt><trkpt lat="-23.604911" lon="-46.480449"><ele>811.0</ele><time>2017-02-11T17:53:08Z</time></trkpt><trkpt lat="-23.604972" lon="-46.480375"><ele>812.0</ele><time>2017-02-11T17:53:17Z</time></trkpt><trkpt lat="-23.605054" lon="-46.480329"><ele>809.0</ele><time>2017-02-11T17:53:25Z</time></trkpt><trkpt lat="-23.60509" lon="-46.480237"><ele>817.0</ele><time>2017-02-11T17:53:34Z</time></trkpt><trkpt lat="-23.605182" lon="-46.480215"><ele>818.0</ele><time>2017-02-11T17:53:42Z</time></trkpt><trkpt lat="-23.605264" lon="-46.480151"><ele>816.0</ele><time>2017-02-11T17:53:53Z</time></trkpt><trkpt lat="-23.605349" lon="-46.480096"><ele>819.0</ele><time>2017-02-11T17:54:04Z</time></trkpt><trkpt lat="-23.605426" lon="-46.480044"><ele>822.0</ele><time>2017-02-11T17:54:13Z</time></trkpt><trkpt lat="-23.605479" lon="-46.479962"><ele>818.0</ele><time>2017-02-11T17:54:22Z</time></trkpt><trkpt lat="-23.605554" lon="-46.479888"><ele>817.0</ele><time>2017-02-11T17:54:30Z</time></trkpt><trkpt lat="-23.605638" lon="-46.479834"><ele>822.0</ele><time>2017-02-11T17:54:40Z</time></trkpt><trkpt lat="-23.605712" lon="-46.47976"><ele>817.0</ele><time>2017-02-11T17:54:53Z</time></trkpt><trkpt lat="-23.605775" lon="-46.47969"><ele>818.0</ele><time>2017-02-11T17:55:03Z</time></trkpt><trkpt lat="-23.60586" lon="-46.479647"><ele>816.0</ele><time>2017-02-11T17:55:14Z</time></trkpt><trkpt lat="-23.605929" lon="-46.479584"><ele>820.0</ele><time>2017-02-11T17:55:22Z</time></trkpt><trkpt lat="-23.606001" lon="-46.479507"><ele>817.0</ele><time>2017-02-11T17:55:31Z</time></trkpt><trkpt lat="-23.606091" lon="-46.479467"><ele>806.0</ele><time>2017-02-11T17:55:39Z</time></trkpt><trkpt lat="-23.606176" lon="-46.47941"><ele>807.0</ele><time>2017-02-11T17:55:50Z</time></trkpt><trkpt lat="-23.606259" lon="-46.479365"><ele>804.0</ele><time>2017-02-11T17:55:58Z</time></trkpt><trkpt lat="-23.606359" lon="-46.479292"><ele>801.0</ele><time>2017-02-11T17:56:08Z</time></trkpt><trkpt lat="-23.606417" lon="-46.479216"><ele>803.0</ele><time>2017-02-11T17:56:18Z</time></trkpt><trkpt lat="-23.606495" lon="-46.479161"><ele>808.0</ele><time>2017-02-11T17:56:26Z</time></trkpt><trkpt lat="-23.606568" lon="-46.479096"><ele>812.0</ele><time>2017-02-11T17:56:36Z</time></trkpt><trkpt lat="-23.606634" lon="-46.479024"><ele>808.0</ele><time>2017-02-11T17:56:45Z</time></trkpt><trkpt lat="-23.606728" lon="-46.478986"><ele>806.0</ele><time>2017-02-11T17:56:53Z</time></trkpt><trkpt lat="-23.606811" lon="-46.478939"><ele>811.0</ele><time>2017-02-11T17:57:02Z</time></trkpt><trkpt lat="-23.606891" lon="-46.478893"><ele>811.0</ele><time>2017-02-11T17:57:11Z</time></trkpt><trkpt lat="-23.606933" lon="-46.4788"><ele>815.0</ele><time>2017-02-11T17:57:23Z</time></trkpt><trkpt lat="-23.607024" lon="-46.478774"><ele>811.0</ele><time>2017-02-11T17:57:32Z</time></trkpt><trkpt lat="-23.607058" lon="-46.478672"><ele>811.0</ele><time>2017-02-11T17:57:43Z</time></trkpt><trkpt lat="-23.60714" lon="-46.478616"><ele>808.0</ele><time>2017-02-11T17:57:53Z</time></trkpt><trkpt lat="-23.607231" lon="-46.478576"><ele>805.0</ele><time>2017-02-11T17:58:03Z</time></trkpt><trkpt lat="-23.607324" lon="-46.478534"><ele>811.0</ele><time>2017-02-11T17:58:11Z</time></trkpt><trkpt lat="-23.607413" lon="-46.478497"><ele>810.0</ele><time>2017-02-11T17:58:19Z</time></trkpt><trkpt lat="-23.60751" lon="-46.478481"><ele>808.0</ele><time>2017-02-11T17:58:28Z</time></trkpt><trkpt lat="-23.607602" lon="-46.478449"><ele>805.0</ele><time>2017-02-11T17:58:41Z</time></trkpt><trkpt lat="-23.607682" lon="-46.478396"><ele>803.0</ele><time>2017-02-11T17:58:49Z</time></trkpt><trkpt lat="-23.607741" lon="-46.478318"><ele>801.0</ele><time>2017-02-11T17:58:57Z</time></trkpt><trkpt lat="-23.607815" lon="-46.478261"><ele>806.0</ele><time>2017-02-11T17:59:06Z</time></trkpt><trkpt lat="-23.607902" lon="-46.478215"><ele>804.0</ele><time>2017-02-11T17:59:15Z</time></trkpt><trkpt lat="-23.607996" lon="-46.478177"><ele>803.0</ele><time>2017-02-11T17:59:25Z</time></trkpt><trkpt lat="-23.608071" lon="-46.478106"><ele>804.0</ele><time>2017-02-11T17:59:36Z</time></trkpt><trkpt lat="-23.608154" lon="-46.478052"><ele>808.0</ele><time>2017-02-11T17:59:47Z</time></trkpt><trkpt lat="-23.608224" lon="-46.477983"><ele>807.0</ele><time>2017-02-11T17:59:58Z</time></trkpt><trkpt lat="-23.608306" lon="-46.477941"><ele>808.0</ele><time>2017-02-11T18:00:05Z</time></trkpt><trkpt lat="-23.608283" lon="-46.477841"><ele>812.0</ele><time>2017-02-11T18:01:45Z</time></trkpt><trkpt lat="-23.60854" lon="-46.477517"><ele>810.0</ele><time>2017-02-11T18:04:12Z</time></trkpt><trkpt lat="-23.608708" lon="-46.477258"><ele>802.0</ele><time>2017-02-11T18:04:14Z</time></trkpt><trkpt lat="-23.608698" lon="-46.478086"><ele>815.0</ele><time>2017-02-11T18:05:35Z</time></trkpt><trkpt lat="-23.608588" lon="-46.478138"><ele>815.0</ele><time>2017-02-11T18:05:39Z</time></trkpt><trkpt lat="-23.608536" lon="-46.477873"><ele>809.0</ele><time>2017-02-11T18:06:43Z</time></trkpt><trkpt lat="-23.608481" lon="-46.477779"><ele>811.0</ele><time>2017-02-11T18:06:46Z</time></trkpt><trkpt lat="-23.608379" lon="-46.477807"><ele>821.0</ele><time>2017-02-11T18:07:27Z</time></trkpt><trkpt lat="-23.608268" lon="-46.477812"><ele>821.0</ele><time>2017-02-11T18:08:35Z</time></trkpt><trkpt lat="-23.6085" lon="-46.477798"><ele>827.0</ele><time>2017-02-11T18:08:36Z</time></trkpt><trkpt lat="-23.608384" lon="-46.477792"><ele>829.0</ele><time>2017-02-11T18:08:50Z</time></trkpt><trkpt lat="-23.608321" lon="-46.477865"><ele>821.0</ele><time>2017-02-11T18:09:15Z</time></trkpt><trkpt lat="-23.608696" lon="-46.477679"><ele>823.0</ele><time>2017-02-11T18:09:33Z</time></trkpt><trkpt lat="-23.608658" lon="-46.477779"><ele>825.0</ele><time>2017-02-11T18:09:34Z</time></trkpt><trkpt lat="-23.608429" lon="-46.47782"><ele>803.0</ele><time>2017-02-11T18:09:38Z</time></trkpt><trkpt lat="-23.608518" lon="-46.477837"><ele>805.0</ele><time>2017-02-11T18:10:01Z</time></trkpt><trkpt lat="-23.608576" lon="-46.477756"><ele>809.0</ele><time>2017-02-11T18:10:16Z</time></trkpt><trkpt lat="-23.608634" lon="-46.47768"><ele>809.0</ele><time>2017-02-11T18:10:25Z</time></trkpt><trkpt lat="-23.608698" lon="-46.477587"><ele>814.0</ele><time>2017-02-11T18:10:36Z</time></trkpt><trkpt lat="-23.60879" lon="-46.477555"><ele>809.0</ele><time>2017-02-11T18:10:46Z</time></trkpt><trkpt lat="-23.608884" lon="-46.477561"><ele>810.0</ele><time>2017-02-11T18:10:53Z</time></trkpt><trkpt lat="-23.608978" lon="-46.477544"><ele>808.0</ele><time>2017-02-11T18:11:02Z</time></trkpt><trkpt lat="-23.60905" lon="-46.477478"><ele>813.0</ele><time>2017-02-11T18:11:16Z</time></trkpt><trkpt lat="-23.60912" lon="-46.477405"><ele>816.0</ele><time>2017-02-11T18:11:28Z</time></trkpt><trkpt lat="-23.609209" lon="-46.477366"><ele>816.0</ele><time>2017-02-11T18:11:36Z</time></trkpt><trkpt lat="-23.609297" lon="-46.477317"><ele>812.0</ele><time>2017-02-11T18:11:51Z</time></trkpt><trkpt lat="-23.609363" lon="-46.477243"><ele>813.0</ele><time>2017-02-11T18:12:10Z</time></trkpt><trkpt lat="-23.609464" lon="-46.477227"><ele>813.0</ele><time>2017-02-11T18:12:27Z</time></trkpt><trkpt lat="-23.609527" lon="-46.47715"><ele>810.0</ele><time>2017-02-11T18:12:34Z</time></trkpt><trkpt lat="-23.609617" lon="-46.477106"><ele>811.0</ele><time>2017-02-11T18:12:42Z</time></trkpt><trkpt lat="-23.609684" lon="-46.477031"><ele>813.0</ele><time>2017-02-11T18:12:53Z</time></trkpt><trkpt lat="-23.609762" lon="-46.476969"><ele>813.0</ele><time>2017-02-11T18:13:01Z</time></trkpt><trkpt lat="-23.609842" lon="-46.476902"><ele>817.0</ele><time>2017-02-11T18:13:12Z</time></trkpt><trkpt lat="-23.609922" lon="-46.476851"><ele>816.0</ele><time>2017-02-11T18:13:20Z</time></trkpt><trkpt lat="-23.610012" lon="-46.476803"><ele>813.0</ele><time>2017-02-11T18:13:28Z</time></trkpt><trkpt lat="-23.610096" lon="-46.476754"><ele>816.0</ele><time>2017-02-11T18:13:36Z</time></trkpt><trkpt lat="-23.610196" lon="-46.476758"><ele>812.0</ele><time>2017-02-11T18:13:43Z</time></trkpt><trkpt lat="-23.610204" lon="-46.476659"><ele>818.0</ele><time>2017-02-11T18:13:50Z</time></trkpt><trkpt lat="-23.610285" lon="-46.476609"><ele>818.0</ele><time>2017-02-11T18:13:57Z</time></trkpt><trkpt lat="-23.610356" lon="-46.476546"><ele>817.0</ele><time>2017-02-11T18:14:03Z</time></trkpt><trkpt lat="-23.610449" lon="-46.476517"><ele>813.0</ele><time>2017-02-11T18:14:11Z</time></trkpt><trkpt lat="-23.610524" lon="-46.476447"><ele>814.0</ele><time>2017-02-11T18:14:21Z</time></trkpt><trkpt lat="-23.610596" lon="-46.476386"><ele>812.0</ele><time>2017-02-11T18:14:31Z</time></trkpt><trkpt lat="-23.610685" lon="-46.476349"><ele>808.0</ele><time>2017-02-11T18:14:38Z</time></trkpt><trkpt lat="-23.610751" lon="-46.476275"><ele>810.0</ele><time>2017-02-11T18:14:48Z</time></trkpt><trkpt lat="-23.610839" lon="-46.476251"><ele>812.0</ele><time>2017-02-11T18:14:59Z</time></trkpt><trkpt lat="-23.610927" lon="-46.476202"><ele>815.0</ele><time>2017-02-11T18:15:07Z</time></trkpt><trkpt lat="-23.611022" lon="-46.47616"><ele>813.0</ele><time>2017-02-11T18:15:15Z</time></trkpt><trkpt lat="-23.611113" lon="-46.476138"><ele>814.0</ele><time>2017-02-11T18:15:24Z</time></trkpt><trkpt lat="-23.611213" lon="-46.476133"><ele>814.0</ele><time>2017-02-11T18:15:31Z</time></trkpt><trkpt lat="-23.611272" lon="-46.476054"><ele>812.0</ele><time>2017-02-11T18:15:42Z</time></trkpt><trkpt lat="-23.611249" lon="-46.47595"><ele>809.0</ele><time>2017-02-11T18:15:51Z</time></trkpt><trkpt lat="-23.611265" lon="-46.475847"><ele>807.0</ele><time>2017-02-11T18:15:58Z</time></trkpt><trkpt lat="-23.611254" lon="-46.475748"><ele>812.0</ele><time>2017-02-11T18:16:10Z</time></trkpt><trkpt lat="-23.61128" lon="-46.475647"><ele>813.0</ele><time>2017-02-11T18:16:21Z</time></trkpt><trkpt lat="-23.61122" lon="-46.475565"><ele>823.0</ele><time>2017-02-11T18:16:33Z</time></trkpt><trkpt lat="-23.6112" lon="-46.475468"><ele>827.0</ele><time>2017-02-11T18:16:46Z</time></trkpt><trkpt lat="-23.611137" lon="-46.475392"><ele>824.0</ele><time>2017-02-11T18:16:55Z</time></trkpt><trkpt lat="-23.611042" lon="-46.4754"><ele>820.0</ele><time>2017-02-11T18:17:06Z</time></trkpt><trkpt lat="-23.611069" lon="-46.475301"><ele>821.0</ele><time>2017-02-11T18:17:17Z</time></trkpt><trkpt lat="-23.611023" lon="-46.475209"><ele>823.0</ele><time>2017-02-11T18:17:26Z</time></trkpt><trkpt lat="-23.611009" lon="-46.475105"><ele>821.0</ele><time>2017-02-11T18:17:35Z</time></trkpt><trkpt lat="-23.61104" lon="-46.475005"><ele>823.0</ele><time>2017-02-11T18:17:43Z</time></trkpt><trkpt lat="-23.610957" lon="-46.474947"><ele>822.0</ele><time>2017-02-11T18:17:51Z</time></trkpt><trkpt lat="-23.610871" lon="-46.474896"><ele>823.0</ele><time>2017-02-11T18:17:59Z</time></trkpt><trkpt lat="-23.61086" lon="-46.474797"><ele>825.0</ele><time>2017-02-11T18:18:09Z</time></trkpt><trkpt lat="-23.6109" lon="-46.474699"><ele>821.0</ele><time>2017-02-11T18:18:19Z</time></trkpt><trkpt lat="-23.610976" lon="-46.47463"><ele>821.0</ele><time>2017-02-11T18:18:28Z</time></trkpt><trkpt lat="-23.611029" lon="-46.474547"><ele>818.0</ele><time>2017-02-11T18:18:38Z</time></trkpt><trkpt lat="-23.611063" lon="-46.474455"><ele>817.0</ele><time>2017-02-11T18:18:47Z</time></trkpt><trkpt lat="-23.611084" lon="-46.474355"><ele>827.0</ele><time>2017-02-11T18:18:57Z</time></trkpt><trkpt lat="-23.611121" lon="-46.474257"><ele>828.0</ele><time>2017-02-11T18:19:05Z</time></trkpt><trkpt lat="-23.611092" lon="-46.474155"><ele>829.0</ele><time>2017-02-11T18:19:28Z</time></trkpt><trkpt lat="-23.611078" lon="-46.474058"><ele>829.0</ele><time>2017-02-11T18:19:36Z</time></trkpt><trkpt lat="-23.611081" lon="-46.473955"><ele>826.0</ele><time>2017-02-11T18:19:47Z</time></trkpt><trkpt lat="-23.61113" lon="-46.473865"><ele>817.0</ele><time>2017-02-11T18:19:57Z</time></trkpt><trkpt lat="-23.611109" lon="-46.47376"><ele>811.0</ele><time>2017-02-11T18:20:12Z</time></trkpt><trkpt lat="-23.611142" lon="-46.473665"><ele>814.0</ele><time>2017-02-11T18:20:24Z</time></trkpt><trkpt lat="-23.611178" lon="-46.473573"><ele>812.0</ele><time>2017-02-11T18:20:36Z</time></trkpt><trkpt lat="-23.611203" lon="-46.473475"><ele>816.0</ele><time>2017-02-11T18:20:45Z</time></trkpt><trkpt lat="-23.611217" lon="-46.473369"><ele>820.0</ele><time>2017-02-11T18:20:53Z</time></trkpt><trkpt lat="-23.6112" lon="-46.473266"><ele>823.0</ele><time>2017-02-11T18:21:14Z</time></trkpt><trkpt lat="-23.611127" lon="-46.473204"><ele>820.0</ele><time>2017-02-11T18:21:25Z</time></trkpt><trkpt lat="-23.611125" lon="-46.473088"><ele>826.0</ele><time>2017-02-11T18:21:38Z</time></trkpt><trkpt lat="-23.611083" lon="-46.47299"><ele>825.0</ele><time>2017-02-11T18:21:50Z</time></trkpt><trkpt lat="-23.611072" lon="-46.472893"><ele>828.0</ele><time>2017-02-11T18:22:07Z</time></trkpt><trkpt lat="-23.611074" lon="-46.472784"><ele>833.0</ele><time>2017-02-11T18:22:19Z</time></trkpt><trkpt lat="-23.611075" lon="-46.472677"><ele>833.0</ele><time>2017-02-11T18:22:40Z</time></trkpt><trkpt lat="-23.611104" lon="-46.472572"><ele>833.0</ele><time>2017-02-11T18:22:50Z</time></trkpt><trkpt lat="-23.611111" lon="-46.472468"><ele>835.0</ele><time>2017-02-11T18:22:57Z</time></trkpt><trkpt lat="-23.611125" lon="-46.472363"><ele>833.0</ele><time>2017-02-11T18:23:04Z</time></trkpt><trkpt lat="-23.611116" lon="-46.472258"><ele>834.0</ele><time>2017-02-11T18:23:18Z</time></trkpt><trkpt lat="-23.611107" lon="-46.47215"><ele>835.0</ele><time>2017-02-11T18:23:27Z</time></trkpt><trkpt lat="-23.611133" lon="-46.472045"><ele>836.0</ele><time>2017-02-11T18:23:36Z</time></trkpt><trkpt lat="-23.61117" lon="-46.471953"><ele>837.0</ele><time>2017-02-11T18:23:44Z</time></trkpt><trkpt lat="-23.611183" lon="-46.471855"><ele>839.0</ele><time>2017-02-11T18:23:52Z</time></trkpt><trkpt lat="-23.61121" lon="-46.471758"><ele>837.0</ele><time>2017-02-11T18:24:02Z</time></trkpt><trkpt lat="-23.611216" lon="-46.471654"><ele>842.0</ele><time>2017-02-11T18:24:11Z</time></trkpt><trkpt lat="-23.611136" lon="-46.471609"><ele>837.0</ele><time>2017-02-11T18:31:21Z</time></trkpt></trkseg></trk><trk><name><![CDATA[São Mateus - Sto André]]></name><trkseg><trkpt lat="-23.61139" lon="-46.471644"><ele>824.0</ele><time>2017-02-12T08:01:19Z</time></trkpt><trkpt lat="-23.611435" lon="-46.471729"><ele>825.0</ele><time>2017-02-12T08:01:34Z</time></trkpt><trkpt lat="-23.611503" lon="-46.471796"><ele>831.0</ele><time>2017-02-12T08:01:44Z</time></trkpt><trkpt lat="-23.611574" lon="-46.471865"><ele>830.0</ele><time>2017-02-12T08:02:00Z</time></trkpt><trkpt lat="-23.611631" lon="-46.471949"><ele>832.0</ele><time>2017-02-12T08:02:10Z</time></trkpt><trkpt lat="-23.611716" lon="-46.472014"><ele>833.0</ele><time>2017-02-12T08:02:17Z</time></trkpt><trkpt lat="-23.611786" lon="-46.472096"><ele>834.0</ele><time>2017-02-12T08:02:24Z</time></trkpt><trkpt lat="-23.611844" lon="-46.472178"><ele>832.0</ele><time>2017-02-12T08:02:32Z</time></trkpt><trkpt lat="-23.611823" lon="-46.472277"><ele>832.0</ele><time>2017-02-12T08:03:29Z</time></trkpt><trkpt lat="-23.611792" lon="-46.472376"><ele>835.0</ele><time>2017-02-12T08:03:38Z</time></trkpt><trkpt lat="-23.611744" lon="-46.472468"><ele>836.0</ele><time>2017-02-12T08:03:46Z</time></trkpt><trkpt lat="-23.611668" lon="-46.472543"><ele>836.0</ele><time>2017-02-12T08:03:53Z</time></trkpt><trkpt lat="-23.611596" lon="-46.472617"><ele>838.0</ele><time>2017-02-12T08:04:02Z</time></trkpt><trkpt lat="-23.611524" lon="-46.472698"><ele>837.0</ele><time>2017-02-12T08:04:10Z</time></trkpt><trkpt lat="-23.611463" lon="-46.472788"><ele>836.0</ele><time>2017-02-12T08:04:18Z</time></trkpt><trkpt lat="-23.611419" lon="-46.472874"><ele>837.0</ele><time>2017-02-12T08:04:25Z</time></trkpt><trkpt lat="-23.61138" lon="-46.472976"><ele>838.0</ele><time>2017-02-12T08:04:33Z</time></trkpt><trkpt lat="-23.611332" lon="-46.473061"><ele>835.0</ele><time>2017-02-12T08:04:41Z</time></trkpt><trkpt lat="-23.611331" lon="-46.473166"><ele>830.0</ele><time>2017-02-12T08:04:53Z</time></trkpt><trkpt lat="-23.611418" lon="-46.473218"><ele>827.0</ele><time>2017-02-12T08:05:03Z</time></trkpt><trkpt lat="-23.611507" lon="-46.473243"><ele>826.0</ele><time>2017-02-12T08:05:12Z</time></trkpt><trkpt lat="-23.611603" lon="-46.473277"><ele>824.0</ele><time>2017-02-12T08:05:19Z</time></trkpt><trkpt lat="-23.611691" lon="-46.473312"><ele>824.0</ele><time>2017-02-12T08:05:26Z</time></trkpt><trkpt lat="-23.611774" lon="-46.473361"><ele>823.0</ele><time>2017-02-12T08:05:34Z</time></trkpt><trkpt lat="-23.611834" lon="-46.473434"><ele>829.0</ele><time>2017-02-12T08:05:43Z</time></trkpt><trkpt lat="-23.611908" lon="-46.473501"><ele>829.0</ele><time>2017-02-12T08:05:51Z</time></trkpt><trkpt lat="-23.611988" lon="-46.473563"><ele>826.0</ele><time>2017-02-12T08:05:58Z</time></trkpt><trkpt lat="-23.612014" lon="-46.473665"><ele>823.0</ele><time>2017-02-12T08:06:05Z</time></trkpt><trkpt lat="-23.611978" lon="-46.473764"><ele>823.0</ele><time>2017-02-12T08:06:12Z</time></trkpt><trkpt lat="-23.611947" lon="-46.473864"><ele>824.0</ele><time>2017-02-12T08:06:19Z</time></trkpt><trkpt lat="-23.61192" lon="-46.473968"><ele>823.0</ele><time>2017-02-12T08:06:28Z</time></trkpt><trkpt lat="-23.611904" lon="-46.474066"><ele>822.0</ele><time>2017-02-12T08:06:35Z</time></trkpt><trkpt lat="-23.611889" lon="-46.474166"><ele>824.0</ele><time>2017-02-12T08:06:43Z</time></trkpt><trkpt lat="-23.611879" lon="-46.474269"><ele>825.0</ele><time>2017-02-12T08:06:51Z</time></trkpt><trkpt lat="-23.611884" lon="-46.474372"><ele>824.0</ele><time>2017-02-12T08:06:59Z</time></trkpt><trkpt lat="-23.611883" lon="-46.474476"><ele>823.0</ele><time>2017-02-12T08:07:07Z</time></trkpt><trkpt lat="-23.611956" lon="-46.474544"><ele>818.0</ele><time>2017-02-12T08:07:16Z</time></trkpt><trkpt lat="-23.612043" lon="-46.474582"><ele>812.0</ele><time>2017-02-12T08:07:24Z</time></trkpt><trkpt lat="-23.612131" lon="-46.474646"><ele>815.0</ele><time>2017-02-12T08:07:45Z</time></trkpt><trkpt lat="-23.61183" lon="-46.474421"><ele>817.0</ele><time>2017-02-12T08:07:47Z</time></trkpt><trkpt lat="-23.6119" lon="-46.474519"><ele>818.0</ele><time>2017-02-12T08:07:51Z</time></trkpt><trkpt lat="-23.611975" lon="-46.474573"><ele>821.0</ele><time>2017-02-12T08:08:00Z</time></trkpt><trkpt lat="-23.611986" lon="-46.474677"><ele>813.0</ele><time>2017-02-12T08:11:47Z</time></trkpt><trkpt lat="-23.611985" lon="-46.474776"><ele>815.0</ele><time>2017-02-12T08:11:57Z</time></trkpt><trkpt lat="-23.61199" lon="-46.474876"><ele>811.0</ele><time>2017-02-12T08:12:09Z</time></trkpt><trkpt lat="-23.612068" lon="-46.474939"><ele>823.0</ele><time>2017-02-12T08:12:35Z</time></trkpt><trkpt lat="-23.612158" lon="-46.47498"><ele>821.0</ele><time>2017-02-12T08:12:50Z</time></trkpt><trkpt lat="-23.612246" lon="-46.475021"><ele>817.0</ele><time>2017-02-12T08:13:19Z</time></trkpt><trkpt lat="-23.612325" lon="-46.475081"><ele>816.0</ele><time>2017-02-12T08:13:35Z</time></trkpt><trkpt lat="-23.612398" lon="-46.475142"><ele>815.0</ele><time>2017-02-12T08:13:41Z</time></trkpt><trkpt lat="-23.612465" lon="-46.475219"><ele>810.0</ele><time>2017-02-12T08:13:48Z</time></trkpt><trkpt lat="-23.612511" lon="-46.475315"><ele>806.0</ele><time>2017-02-12T08:13:57Z</time></trkpt><trkpt lat="-23.612563" lon="-46.475407"><ele>806.0</ele><time>2017-02-12T08:14:08Z</time></trkpt><trkpt lat="-23.612573" lon="-46.47551"><ele>805.0</ele><time>2017-02-12T08:14:15Z</time></trkpt><trkpt lat="-23.612545" lon="-46.475608"><ele>803.0</ele><time>2017-02-12T08:14:23Z</time></trkpt><trkpt lat="-23.612537" lon="-46.47571"><ele>803.0</ele><time>2017-02-12T08:14:30Z</time></trkpt><trkpt lat="-23.612508" lon="-46.475806"><ele>803.0</ele><time>2017-02-12T08:14:38Z</time></trkpt><trkpt lat="-23.612496" lon="-46.475908"><ele>803.0</ele><time>2017-02-12T08:14:48Z</time></trkpt><trkpt lat="-23.612478" lon="-46.476016"><ele>807.0</ele><time>2017-02-12T08:14:58Z</time></trkpt><trkpt lat="-23.612444" lon="-46.47612"><ele>810.0</ele><time>2017-02-12T08:15:06Z</time></trkpt><trkpt lat="-23.612424" lon="-46.476216"><ele>810.0</ele><time>2017-02-12T08:15:13Z</time></trkpt><trkpt lat="-23.612399" lon="-46.476317"><ele>808.0</ele><time>2017-02-12T08:15:24Z</time></trkpt><trkpt lat="-23.61238" lon="-46.476419"><ele>814.0</ele><time>2017-02-12T08:15:34Z</time></trkpt><trkpt lat="-23.612367" lon="-46.476528"><ele>814.0</ele><time>2017-02-12T08:16:00Z</time></trkpt><trkpt lat="-23.612403" lon="-46.476624"><ele>811.0</ele><time>2017-02-12T08:16:37Z</time></trkpt><trkpt lat="-23.612428" lon="-46.476718"><ele>811.0</ele><time>2017-02-12T08:16:48Z</time></trkpt><trkpt lat="-23.612415" lon="-46.476826"><ele>812.0</ele><time>2017-02-12T08:16:57Z</time></trkpt><trkpt lat="-23.612415" lon="-46.476925"><ele>811.0</ele><time>2017-02-12T08:17:16Z</time></trkpt><trkpt lat="-23.612372" lon="-46.477022"><ele>811.0</ele><time>2017-02-12T08:18:32Z</time></trkpt><trkpt lat="-23.612387" lon="-46.477127"><ele>809.0</ele><time>2017-02-12T08:18:58Z</time></trkpt><trkpt lat="-23.61243" lon="-46.47722"><ele>816.0</ele><time>2017-02-12T08:19:40Z</time></trkpt><trkpt lat="-23.612452" lon="-46.477315"><ele>814.0</ele><time>2017-02-12T08:20:04Z</time></trkpt><trkpt lat="-23.612494" lon="-46.477414"><ele>815.0</ele><time>2017-02-12T08:21:27Z</time></trkpt><trkpt lat="-23.612554" lon="-46.477496"><ele>816.0</ele><time>2017-02-12T08:21:54Z</time></trkpt><trkpt lat="-23.612571" lon="-46.47761"><ele>818.0</ele><time>2017-02-12T08:22:01Z</time></trkpt><trkpt lat="-23.612581" lon="-46.47771"><ele>816.0</ele><time>2017-02-12T08:22:09Z</time></trkpt><trkpt lat="-23.612582" lon="-46.477808"><ele>812.0</ele><time>2017-02-12T08:22:17Z</time></trkpt><trkpt lat="-23.612616" lon="-46.477901"><ele>809.0</ele><time>2017-02-12T08:22:41Z</time></trkpt><trkpt lat="-23.612657" lon="-46.477991"><ele>811.0</ele><time>2017-02-12T08:22:48Z</time></trkpt><trkpt lat="-23.612648" lon="-46.478094"><ele>817.0</ele><time>2017-02-12T08:23:00Z</time></trkpt><trkpt lat="-23.612673" lon="-46.478196"><ele>816.0</ele><time>2017-02-12T08:23:13Z</time></trkpt><trkpt lat="-23.612715" lon="-46.478288"><ele>822.0</ele><time>2017-02-12T08:23:19Z</time></trkpt><trkpt lat="-23.612766" lon="-46.478373"><ele>822.0</ele><time>2017-02-12T08:23:27Z</time></trkpt><trkpt lat="-23.612771" lon="-46.478479"><ele>823.0</ele><time>2017-02-12T08:23:35Z</time></trkpt><trkpt lat="-23.612805" lon="-46.478574"><ele>820.0</ele><time>2017-02-12T08:24:29Z</time></trkpt><trkpt lat="-23.612808" lon="-46.478678"><ele>813.0</ele><time>2017-02-12T08:25:19Z</time></trkpt><trkpt lat="-23.612876" lon="-46.478753"><ele>820.0</ele><time>2017-02-12T08:26:28Z</time></trkpt><trkpt lat="-23.612878" lon="-46.478854"><ele>818.0</ele><time>2017-02-12T08:26:53Z</time></trkpt><trkpt lat="-23.612858" lon="-46.478957"><ele>814.0</ele><time>2017-02-12T08:27:27Z</time></trkpt><trkpt lat="-23.612883" lon="-46.479063"><ele>813.0</ele><time>2017-02-12T08:27:34Z</time></trkpt><trkpt lat="-23.612916" lon="-46.479156"><ele>811.0</ele><time>2017-02-12T08:27:56Z</time></trkpt><trkpt lat="-23.612944" lon="-46.479261"><ele>805.0</ele><time>2017-02-12T08:28:06Z</time></trkpt><trkpt lat="-23.612904" lon="-46.479362"><ele>802.0</ele><time>2017-02-12T08:28:15Z</time></trkpt><trkpt lat="-23.61289" lon="-46.479463"><ele>803.0</ele><time>2017-02-12T08:28:25Z</time></trkpt><trkpt lat="-23.612888" lon="-46.479569"><ele>805.0</ele><time>2017-02-12T08:28:33Z</time></trkpt><trkpt lat="-23.612868" lon="-46.47967"><ele>807.0</ele><time>2017-02-12T08:28:42Z</time></trkpt><trkpt lat="-23.612876" lon="-46.479771"><ele>810.0</ele><time>2017-02-12T08:28:50Z</time></trkpt><trkpt lat="-23.612893" lon="-46.479871"><ele>813.0</ele><time>2017-02-12T08:28:58Z</time></trkpt><trkpt lat="-23.61292" lon="-46.479969"><ele>814.0</ele><time>2017-02-12T08:29:06Z</time></trkpt><trkpt lat="-23.612903" lon="-46.48007"><ele>818.0</ele><time>2017-02-12T08:29:19Z</time></trkpt><trkpt lat="-23.612878" lon="-46.480165"><ele>818.0</ele><time>2017-02-12T08:29:28Z</time></trkpt><trkpt lat="-23.612846" lon="-46.480265"><ele>817.0</ele><time>2017-02-12T08:29:37Z</time></trkpt><trkpt lat="-23.612818" lon="-46.480362"><ele>817.0</ele><time>2017-02-12T08:29:47Z</time></trkpt><trkpt lat="-23.61291" lon="-46.480369"><ele>816.0</ele><time>2017-02-12T08:29:58Z</time></trkpt><trkpt lat="-23.612831" lon="-46.480438"><ele>815.0</ele><time>2017-02-12T08:30:20Z</time></trkpt><trkpt lat="-23.612761" lon="-46.480503"><ele>811.0</ele><time>2017-02-12T08:30:30Z</time></trkpt><trkpt lat="-23.612781" lon="-46.480599"><ele>814.0</ele><time>2017-02-12T08:31:08Z</time></trkpt><trkpt lat="-23.61276" lon="-46.480696"><ele>813.0</ele><time>2017-02-12T08:31:19Z</time></trkpt><trkpt lat="-23.612742" lon="-46.480802"><ele>810.0</ele><time>2017-02-12T08:31:28Z</time></trkpt><trkpt lat="-23.612717" lon="-46.480907"><ele>811.0</ele><time>2017-02-12T08:31:36Z</time></trkpt><trkpt lat="-23.612698" lon="-46.481013"><ele>810.0</ele><time>2017-02-12T08:31:45Z</time></trkpt><trkpt lat="-23.612688" lon="-46.481118"><ele>810.0</ele><time>2017-02-12T08:31:54Z</time></trkpt><trkpt lat="-23.612678" lon="-46.481223"><ele>807.0</ele><time>2017-02-12T08:32:04Z</time></trkpt><trkpt lat="-23.612678" lon="-46.481322"><ele>812.0</ele><time>2017-02-12T08:32:13Z</time></trkpt><trkpt lat="-23.612696" lon="-46.481425"><ele>817.0</ele><time>2017-02-12T08:32:21Z</time></trkpt><trkpt lat="-23.612707" lon="-46.481522"><ele>820.0</ele><time>2017-02-12T08:32:29Z</time></trkpt><trkpt lat="-23.61273" lon="-46.481618"><ele>822.0</ele><time>2017-02-12T08:32:38Z</time></trkpt><trkpt lat="-23.61278" lon="-46.481709"><ele>822.0</ele><time>2017-02-12T08:33:11Z</time></trkpt><trkpt lat="-23.612869" lon="-46.481746"><ele>826.0</ele><time>2017-02-12T08:33:18Z</time></trkpt><trkpt lat="-23.612968" lon="-46.48175"><ele>828.0</ele><time>2017-02-12T08:33:29Z</time></trkpt><trkpt lat="-23.613064" lon="-46.481782"><ele>829.0</ele><time>2017-02-12T08:33:38Z</time></trkpt><trkpt lat="-23.613141" lon="-46.481835"><ele>826.0</ele><time>2017-02-12T08:33:47Z</time></trkpt><trkpt lat="-23.613235" lon="-46.481868"><ele>827.0</ele><time>2017-02-12T08:33:59Z</time></trkpt><trkpt lat="-23.61333" lon="-46.48188"><ele>825.0</ele><time>2017-02-12T08:34:09Z</time></trkpt><trkpt lat="-23.613423" lon="-46.481914"><ele>826.0</ele><time>2017-02-12T08:34:19Z</time></trkpt><trkpt lat="-23.613518" lon="-46.481913"><ele>829.0</ele><time>2017-02-12T08:34:31Z</time></trkpt><trkpt lat="-23.613593" lon="-46.481974"><ele>835.0</ele><time>2017-02-12T08:34:43Z</time></trkpt><trkpt lat="-23.613675" lon="-46.482032"><ele>834.0</ele><time>2017-02-12T08:34:51Z</time></trkpt><trkpt lat="-23.613693" lon="-46.482132"><ele>834.0</ele><time>2017-02-12T08:34:58Z</time></trkpt><trkpt lat="-23.61377" lon="-46.482074"><ele>829.0</ele><time>2017-02-12T08:35:43Z</time></trkpt><trkpt lat="-23.613837" lon="-46.482008"><ele>830.0</ele><time>2017-02-12T08:35:59Z</time></trkpt><trkpt lat="-23.613923" lon="-46.481974"><ele>830.0</ele><time>2017-02-12T08:37:38Z</time></trkpt><trkpt lat="-23.614018" lon="-46.481965"><ele>832.0</ele><time>2017-02-12T08:37:57Z</time></trkpt><trkpt lat="-23.614119" lon="-46.481964"><ele>835.0</ele><time>2017-02-12T08:38:24Z</time></trkpt><trkpt lat="-23.61422" lon="-46.48195"><ele>831.0</ele><time>2017-02-12T08:38:31Z</time></trkpt><trkpt lat="-23.614326" lon="-46.481933"><ele>832.0</ele><time>2017-02-12T08:38:39Z</time></trkpt><trkpt lat="-23.614414" lon="-46.481886"><ele>831.0</ele><time>2017-02-12T08:38:50Z</time></trkpt><trkpt lat="-23.614501" lon="-46.481848"><ele>830.0</ele><time>2017-02-12T08:39:00Z</time></trkpt><trkpt lat="-23.614595" lon="-46.481829"><ele>828.0</ele><time>2017-02-12T08:39:10Z</time></trkpt><trkpt lat="-23.614685" lon="-46.481822"><ele>827.0</ele><time>2017-02-12T08:39:19Z</time></trkpt><trkpt lat="-23.614779" lon="-46.481806"><ele>825.0</ele><time>2017-02-12T08:39:28Z</time></trkpt><trkpt lat="-23.614876" lon="-46.481793"><ele>826.0</ele><time>2017-02-12T08:39:37Z</time></trkpt><trkpt lat="-23.614971" lon="-46.481778"><ele>825.0</ele><time>2017-02-12T08:39:46Z</time></trkpt><trkpt lat="-23.615062" lon="-46.481757"><ele>821.0</ele><time>2017-02-12T08:39:56Z</time></trkpt><trkpt lat="-23.615161" lon="-46.481755"><ele>824.0</ele><time>2017-02-12T08:40:07Z</time></trkpt><trkpt lat="-23.615255" lon="-46.481724"><ele>825.0</ele><time>2017-02-12T08:40:17Z</time></trkpt><trkpt lat="-23.615349" lon="-46.481697"><ele>825.0</ele><time>2017-02-12T08:40:27Z</time></trkpt><trkpt lat="-23.615441" lon="-46.481697"><ele>824.0</ele><time>2017-02-12T08:40:36Z</time></trkpt><trkpt lat="-23.615532" lon="-46.481668"><ele>823.0</ele><time>2017-02-12T08:40:46Z</time></trkpt><trkpt lat="-23.615631" lon="-46.481659"><ele>823.0</ele><time>2017-02-12T08:40:59Z</time></trkpt><trkpt lat="-23.61572" lon="-46.481643"><ele>830.0</ele><time>2017-02-12T08:41:48Z</time></trkpt><trkpt lat="-23.615808" lon="-46.481616"><ele>831.0</ele><time>2017-02-12T08:41:57Z</time></trkpt><trkpt lat="-23.615898" lon="-46.48158"><ele>830.0</ele><time>2017-02-12T08:42:06Z</time></trkpt><trkpt lat="-23.61599" lon="-46.481561"><ele>828.0</ele><time>2017-02-12T08:42:16Z</time></trkpt><trkpt lat="-23.616085" lon="-46.481556"><ele>828.0</ele><time>2017-02-12T08:42:47Z</time></trkpt><trkpt lat="-23.616177" lon="-46.481532"><ele>828.0</ele><time>2017-02-12T08:42:56Z</time></trkpt><trkpt lat="-23.616271" lon="-46.481535"><ele>827.0</ele><time>2017-02-12T08:43:05Z</time></trkpt><trkpt lat="-23.616362" lon="-46.481497"><ele>822.0</ele><time>2017-02-12T08:43:17Z</time></trkpt><trkpt lat="-23.61645" lon="-46.481458"><ele>818.0</ele><time>2017-02-12T08:43:30Z</time></trkpt><trkpt lat="-23.616547" lon="-46.481444"><ele>818.0</ele><time>2017-02-12T08:43:40Z</time></trkpt><trkpt lat="-23.616645" lon="-46.481446"><ele>819.0</ele><time>2017-02-12T08:43:49Z</time></trkpt><trkpt lat="-23.616741" lon="-46.481439"><ele>816.0</ele><time>2017-02-12T08:44:35Z</time></trkpt><trkpt lat="-23.616835" lon="-46.481434"><ele>817.0</ele><time>2017-02-12T08:44:44Z</time></trkpt><trkpt lat="-23.61693" lon="-46.481426"><ele>812.0</ele><time>2017-02-12T08:45:22Z</time></trkpt><trkpt lat="-23.617011" lon="-46.481469"><ele>811.0</ele><time>2017-02-12T08:45:34Z</time></trkpt><trkpt lat="-23.617104" lon="-46.481496"><ele>812.0</ele><time>2017-02-12T08:46:33Z</time></trkpt><trkpt lat="-23.617202" lon="-46.481516"><ele>813.0</ele><time>2017-02-12T08:46:56Z</time></trkpt><trkpt lat="-23.617286" lon="-46.481466"><ele>813.0</ele><time>2017-02-12T08:47:04Z</time></trkpt><trkpt lat="-23.617376" lon="-46.481445"><ele>816.0</ele><time>2017-02-12T08:47:18Z</time></trkpt><trkpt lat="-23.617466" lon="-46.481457"><ele>821.0</ele><time>2017-02-12T08:47:33Z</time></trkpt><trkpt lat="-23.617558" lon="-46.481427"><ele>815.0</ele><time>2017-02-12T08:48:51Z</time></trkpt><trkpt lat="-23.61765" lon="-46.481419"><ele>816.0</ele><time>2017-02-12T08:49:01Z</time></trkpt><trkpt lat="-23.617745" lon="-46.481405"><ele>812.0</ele><time>2017-02-12T08:49:11Z</time></trkpt><trkpt lat="-23.61784" lon="-46.481409"><ele>808.0</ele><time>2017-02-12T08:49:22Z</time></trkpt><trkpt lat="-23.617927" lon="-46.481383"><ele>808.0</ele><time>2017-02-12T08:49:31Z</time></trkpt><trkpt lat="-23.618022" lon="-46.481386"><ele>806.0</ele><time>2017-02-12T08:50:30Z</time></trkpt><trkpt lat="-23.618114" lon="-46.481359"><ele>805.0</ele><time>2017-02-12T08:50:39Z</time></trkpt><trkpt lat="-23.618211" lon="-46.481348"><ele>815.0</ele><time>2017-02-12T08:50:49Z</time></trkpt><trkpt lat="-23.61831" lon="-46.48136"><ele>805.0</ele><time>2017-02-12T08:50:58Z</time></trkpt><trkpt lat="-23.6184" lon="-46.481352"><ele>801.0</ele><time>2017-02-12T08:51:12Z</time></trkpt><trkpt lat="-23.618495" lon="-46.48133"><ele>801.0</ele><time>2017-02-12T08:51:21Z</time></trkpt><trkpt lat="-23.618585" lon="-46.481319"><ele>799.0</ele><time>2017-02-12T08:51:35Z</time></trkpt><trkpt lat="-23.618668" lon="-46.481274"><ele>797.0</ele><time>2017-02-12T08:52:05Z</time></trkpt><trkpt lat="-23.618759" lon="-46.481262"><ele>794.0</ele><time>2017-02-12T08:52:13Z</time></trkpt><trkpt lat="-23.618857" lon="-46.481253"><ele>793.0</ele><time>2017-02-12T08:52:22Z</time></trkpt><trkpt lat="-23.618954" lon="-46.48124"><ele>795.0</ele><time>2017-02-12T08:52:44Z</time></trkpt><trkpt lat="-23.619047" lon="-46.481212"><ele>793.0</ele><time>2017-02-12T08:52:52Z</time></trkpt><trkpt lat="-23.619142" lon="-46.481233"><ele>793.0</ele><time>2017-02-12T08:53:05Z</time></trkpt><trkpt lat="-23.619234" lon="-46.481217"><ele>791.0</ele><time>2017-02-12T08:53:18Z</time></trkpt><trkpt lat="-23.619326" lon="-46.48121"><ele>792.0</ele><time>2017-02-12T08:53:26Z</time></trkpt><trkpt lat="-23.619415" lon="-46.481197"><ele>791.0</ele><time>2017-02-12T08:53:34Z</time></trkpt><trkpt lat="-23.619509" lon="-46.481178"><ele>788.0</ele><time>2017-02-12T08:53:43Z</time></trkpt><trkpt lat="-23.619594" lon="-46.481133"><ele>788.0</ele><time>2017-02-12T08:53:54Z</time></trkpt><trkpt lat="-23.619684" lon="-46.481127"><ele>788.0</ele><time>2017-02-12T08:54:05Z</time></trkpt><trkpt lat="-23.619781" lon="-46.481106"><ele>787.0</ele><time>2017-02-12T08:54:15Z</time></trkpt><trkpt lat="-23.619872" lon="-46.481083"><ele>787.0</ele><time>2017-02-12T08:54:25Z</time></trkpt><trkpt lat="-23.619946" lon="-46.48114"><ele>790.0</ele><time>2017-02-12T08:54:33Z</time></trkpt><trkpt lat="-23.620032" lon="-46.481187"><ele>786.0</ele><time>2017-02-12T08:54:43Z</time></trkpt><trkpt lat="-23.620055" lon="-46.481285"><ele>783.0</ele><time>2017-02-12T08:54:51Z</time></trkpt><trkpt lat="-23.620051" lon="-46.481387"><ele>781.0</ele><time>2017-02-12T08:54:59Z</time></trkpt><trkpt lat="-23.620049" lon="-46.481486"><ele>782.0</ele><time>2017-02-12T08:55:07Z</time></trkpt><trkpt lat="-23.620074" lon="-46.481584"><ele>787.0</ele><time>2017-02-12T08:55:32Z</time></trkpt><trkpt lat="-23.620145" lon="-46.481646"><ele>789.0</ele><time>2017-02-12T08:55:58Z</time></trkpt><trkpt lat="-23.620153" lon="-46.48175"><ele>788.0</ele><time>2017-02-12T08:56:18Z</time></trkpt><trkpt lat="-23.620129" lon="-46.481853"><ele>791.0</ele><time>2017-02-12T08:56:26Z</time></trkpt><trkpt lat="-23.620113" lon="-46.481958"><ele>792.0</ele><time>2017-02-12T08:56:32Z</time></trkpt><trkpt lat="-23.620108" lon="-46.482059"><ele>790.0</ele><time>2017-02-12T08:56:39Z</time></trkpt><trkpt lat="-23.620121" lon="-46.482163"><ele>786.0</ele><time>2017-02-12T08:56:49Z</time></trkpt><trkpt lat="-23.620119" lon="-46.482261"><ele>783.0</ele><time>2017-02-12T08:57:13Z</time></trkpt><trkpt lat="-23.620135" lon="-46.48236"><ele>788.0</ele><time>2017-02-12T08:58:20Z</time></trkpt><trkpt lat="-23.62015" lon="-46.482461"><ele>789.0</ele><time>2017-02-12T08:59:54Z</time></trkpt><trkpt lat="-23.620202" lon="-46.482549"><ele>789.0</ele><time>2017-02-12T09:00:11Z</time></trkpt><trkpt lat="-23.620271" lon="-46.482617"><ele>788.0</ele><time>2017-02-12T09:00:20Z</time></trkpt><trkpt lat="-23.620329" lon="-46.482697"><ele>786.0</ele><time>2017-02-12T09:00:31Z</time></trkpt><trkpt lat="-23.620405" lon="-46.48277"><ele>787.0</ele><time>2017-02-12T09:00:40Z</time></trkpt><trkpt lat="-23.620473" lon="-46.482838"><ele>786.0</ele><time>2017-02-12T09:00:47Z</time></trkpt><trkpt lat="-23.620542" lon="-46.482902"><ele>791.0</ele><time>2017-02-12T09:01:07Z</time></trkpt><trkpt lat="-23.620607" lon="-46.482973"><ele>794.0</ele><time>2017-02-12T09:01:16Z</time></trkpt><trkpt lat="-23.620689" lon="-46.483032"><ele>790.0</ele><time>2017-02-12T09:01:27Z</time></trkpt><trkpt lat="-23.620755" lon="-46.483105"><ele>788.0</ele><time>2017-02-12T09:01:42Z</time></trkpt><trkpt lat="-23.620827" lon="-46.483177"><ele>788.0</ele><time>2017-02-12T09:01:51Z</time></trkpt><trkpt lat="-23.620897" lon="-46.483249"><ele>783.0</ele><time>2017-02-12T09:02:01Z</time></trkpt><trkpt lat="-23.621011" lon="-46.483251"><ele>776.0</ele><time>2017-02-12T09:02:34Z</time></trkpt><trkpt lat="-23.621098" lon="-46.483277"><ele>783.0</ele><time>2017-02-12T09:02:39Z</time></trkpt><trkpt lat="-23.621189" lon="-46.48328"><ele>780.0</ele><time>2017-02-12T09:03:04Z</time></trkpt><trkpt lat="-23.621233" lon="-46.483366"><ele>791.0</ele><time>2017-02-12T09:03:50Z</time></trkpt><trkpt lat="-23.621333" lon="-46.48336"><ele>794.0</ele><time>2017-02-12T09:04:00Z</time></trkpt><trkpt lat="-23.621426" lon="-46.483328"><ele>791.0</ele><time>2017-02-12T09:04:10Z</time></trkpt><trkpt lat="-23.621511" lon="-46.483378"><ele>789.0</ele><time>2017-02-12T09:04:20Z</time></trkpt><trkpt lat="-23.621598" lon="-46.483411"><ele>796.0</ele><time>2017-02-12T09:04:30Z</time></trkpt><trkpt lat="-23.621688" lon="-46.483436"><ele>792.0</ele><time>2017-02-12T09:04:39Z</time></trkpt><trkpt lat="-23.621783" lon="-46.483453"><ele>791.0</ele><time>2017-02-12T09:04:49Z</time></trkpt><trkpt lat="-23.621866" lon="-46.483495"><ele>800.0</ele><time>2017-02-12T09:05:00Z</time></trkpt><trkpt lat="-23.62196" lon="-46.483502"><ele>797.0</ele><time>2017-02-12T09:05:07Z</time></trkpt><trkpt lat="-23.622053" lon="-46.483514"><ele>798.0</ele><time>2017-02-12T09:05:16Z</time></trkpt><trkpt lat="-23.622145" lon="-46.483548"><ele>799.0</ele><time>2017-02-12T09:05:26Z</time></trkpt><trkpt lat="-23.622241" lon="-46.483576"><ele>800.0</ele><time>2017-02-12T09:05:36Z</time></trkpt><trkpt lat="-23.622335" lon="-46.483589"><ele>798.0</ele><time>2017-02-12T09:05:44Z</time></trkpt><trkpt lat="-23.622389" lon="-46.483672"><ele>795.0</ele><time>2017-02-12T09:05:54Z</time></trkpt><trkpt lat="-23.622481" lon="-46.483657"><ele>790.0</ele><time>2017-02-12T09:06:03Z</time></trkpt><trkpt lat="-23.622574" lon="-46.483677"><ele>788.0</ele><time>2017-02-12T09:06:21Z</time></trkpt><trkpt lat="-23.622667" lon="-46.483704"><ele>778.0</ele><time>2017-02-12T09:07:06Z</time></trkpt><trkpt lat="-23.622767" lon="-46.483705"><ele>780.0</ele><time>2017-02-12T09:07:13Z</time></trkpt><trkpt lat="-23.622854" lon="-46.483677"><ele>774.0</ele><time>2017-02-12T09:07:23Z</time></trkpt><trkpt lat="-23.622947" lon="-46.483663"><ele>777.0</ele><time>2017-02-12T09:07:31Z</time></trkpt><trkpt lat="-23.623038" lon="-46.483696"><ele>783.0</ele><time>2017-02-12T09:07:39Z</time></trkpt><trkpt lat="-23.623134" lon="-46.483717"><ele>782.0</ele><time>2017-02-12T09:07:47Z</time></trkpt><trkpt lat="-23.623234" lon="-46.483723"><ele>781.0</ele><time>2017-02-12T09:07:54Z</time></trkpt><trkpt lat="-23.623326" lon="-46.48374"><ele>781.0</ele><time>2017-02-12T09:08:05Z</time></trkpt><trkpt lat="-23.623421" lon="-46.483778"><ele>779.0</ele><time>2017-02-12T09:08:15Z</time></trkpt><trkpt lat="-23.623512" lon="-46.483784"><ele>788.0</ele><time>2017-02-12T09:08:44Z</time></trkpt><trkpt lat="-23.623603" lon="-46.483806"><ele>785.0</ele><time>2017-02-12T09:08:53Z</time></trkpt><trkpt lat="-23.623694" lon="-46.483818"><ele>786.0</ele><time>2017-02-12T09:09:01Z</time></trkpt><trkpt lat="-23.623781" lon="-46.483866"><ele>786.0</ele><time>2017-02-12T09:09:08Z</time></trkpt><trkpt lat="-23.623877" lon="-46.483893"><ele>783.0</ele><time>2017-02-12T09:09:16Z</time></trkpt><trkpt lat="-23.623968" lon="-46.483908"><ele>785.0</ele><time>2017-02-12T09:09:28Z</time></trkpt><trkpt lat="-23.624062" lon="-46.48393"><ele>783.0</ele><time>2017-02-12T09:09:41Z</time></trkpt><trkpt lat="-23.624154" lon="-46.483925"><ele>781.0</ele><time>2017-02-12T09:10:08Z</time></trkpt><trkpt lat="-23.624175" lon="-46.484037"><ele>780.0</ele><time>2017-02-12T09:10:18Z</time></trkpt><trkpt lat="-23.624212" lon="-46.484134"><ele>778.0</ele><time>2017-02-12T09:10:26Z</time></trkpt><trkpt lat="-23.624265" lon="-46.484224"><ele>780.0</ele><time>2017-02-12T09:10:35Z</time></trkpt><trkpt lat="-23.624342" lon="-46.484292"><ele>778.0</ele><time>2017-02-12T09:10:45Z</time></trkpt><trkpt lat="-23.62442" lon="-46.484353"><ele>776.0</ele><time>2017-02-12T09:10:54Z</time></trkpt><trkpt lat="-23.624518" lon="-46.484323"><ele>775.0</ele><time>2017-02-12T09:11:24Z</time></trkpt><trkpt lat="-23.624626" lon="-46.484319"><ele>774.0</ele><time>2017-02-12T09:11:34Z</time></trkpt><trkpt lat="-23.624688" lon="-46.484391"><ele>781.0</ele><time>2017-02-12T09:11:44Z</time></trkpt><trkpt lat="-23.624709" lon="-46.484498"><ele>785.0</ele><time>2017-02-12T09:11:53Z</time></trkpt><trkpt lat="-23.624717" lon="-46.484599"><ele>777.0</ele><time>2017-02-12T09:12:06Z</time></trkpt><trkpt lat="-23.624745" lon="-46.484698"><ele>778.0</ele><time>2017-02-12T09:12:17Z</time></trkpt><trkpt lat="-23.624753" lon="-46.4848"><ele>781.0</ele><time>2017-02-12T09:12:25Z</time></trkpt><trkpt lat="-23.624761" lon="-46.484904"><ele>781.0</ele><time>2017-02-12T09:12:35Z</time></trkpt><trkpt lat="-23.62476" lon="-46.485008"><ele>785.0</ele><time>2017-02-12T09:12:43Z</time></trkpt><trkpt lat="-23.624737" lon="-46.485112"><ele>790.0</ele><time>2017-02-12T09:12:55Z</time></trkpt><trkpt lat="-23.62474" lon="-46.485223"><ele>791.0</ele><time>2017-02-12T09:13:04Z</time></trkpt><trkpt lat="-23.624775" lon="-46.485321"><ele>784.0</ele><time>2017-02-12T09:13:14Z</time></trkpt><trkpt lat="-23.624776" lon="-46.485423"><ele>788.0</ele><time>2017-02-12T09:14:59Z</time></trkpt><trkpt lat="-23.624782" lon="-46.485522"><ele>796.0</ele><time>2017-02-12T09:15:04Z</time></trkpt><trkpt lat="-23.624773" lon="-46.48562"><ele>799.0</ele><time>2017-02-12T09:15:09Z</time></trkpt><trkpt lat="-23.62476" lon="-46.485721"><ele>789.0</ele><time>2017-02-12T09:15:16Z</time></trkpt><trkpt lat="-23.62478" lon="-46.485825"><ele>789.0</ele><time>2017-02-12T09:15:25Z</time></trkpt><trkpt lat="-23.624746" lon="-46.485921"><ele>790.0</ele><time>2017-02-12T09:15:34Z</time></trkpt><trkpt lat="-23.624762" lon="-46.486023"><ele>784.0</ele><time>2017-02-12T09:15:43Z</time></trkpt><trkpt lat="-23.62483" lon="-46.486094"><ele>782.0</ele><time>2017-02-12T09:15:50Z</time></trkpt><trkpt lat="-23.624907" lon="-46.486162"><ele>770.0</ele><time>2017-02-12T09:16:02Z</time></trkpt><trkpt lat="-23.624925" lon="-46.486267"><ele>774.0</ele><time>2017-02-12T09:16:30Z</time></trkpt><trkpt lat="-23.62496" lon="-46.48636"><ele>772.0</ele><time>2017-02-12T09:16:36Z</time></trkpt><trkpt lat="-23.625033" lon="-46.486427"><ele>772.0</ele><time>2017-02-12T09:16:42Z</time></trkpt><trkpt lat="-23.625103" lon="-46.48649"><ele>774.0</ele><time>2017-02-12T09:16:49Z</time></trkpt><trkpt lat="-23.625144" lon="-46.486584"><ele>775.0</ele><time>2017-02-12T09:16:58Z</time></trkpt><trkpt lat="-23.625204" lon="-46.486664"><ele>775.0</ele><time>2017-02-12T09:17:10Z</time></trkpt><trkpt lat="-23.625276" lon="-46.48673"><ele>775.0</ele><time>2017-02-12T09:17:25Z</time></trkpt><trkpt lat="-23.625312" lon="-46.486822"><ele>774.0</ele><time>2017-02-12T09:17:40Z</time></trkpt><trkpt lat="-23.625394" lon="-46.486874"><ele>775.0</ele><time>2017-02-12T09:17:50Z</time></trkpt><trkpt lat="-23.625464" lon="-46.486946"><ele>787.0</ele><time>2017-02-12T09:19:16Z</time></trkpt><trkpt lat="-23.625498" lon="-46.487044"><ele>783.0</ele><time>2017-02-12T09:19:29Z</time></trkpt><trkpt lat="-23.625572" lon="-46.487111"><ele>785.0</ele><time>2017-02-12T09:19:40Z</time></trkpt><trkpt lat="-23.625604" lon="-46.487202"><ele>783.0</ele><time>2017-02-12T09:19:50Z</time></trkpt><trkpt lat="-23.62567" lon="-46.487279"><ele>791.0</ele><time>2017-02-12T09:20:09Z</time></trkpt><trkpt lat="-23.625766" lon="-46.48728"><ele>784.0</ele><time>2017-02-12T09:21:02Z</time></trkpt><trkpt lat="-23.625869" lon="-46.487261"><ele>782.0</ele><time>2017-02-12T09:21:09Z</time></trkpt><trkpt lat="-23.625958" lon="-46.487241"><ele>779.0</ele><time>2017-02-12T09:22:00Z</time></trkpt><trkpt lat="-23.626031" lon="-46.487171"><ele>778.0</ele><time>2017-02-12T09:22:14Z</time></trkpt><trkpt lat="-23.626117" lon="-46.487128"><ele>781.0</ele><time>2017-02-12T09:22:23Z</time></trkpt><trkpt lat="-23.626201" lon="-46.487089"><ele>780.0</ele><time>2017-02-12T09:23:17Z</time></trkpt><trkpt lat="-23.626294" lon="-46.487072"><ele>780.0</ele><time>2017-02-12T09:23:23Z</time></trkpt><trkpt lat="-23.626377" lon="-46.487003"><ele>777.0</ele><time>2017-02-12T09:23:32Z</time></trkpt><trkpt lat="-23.626459" lon="-46.486957"><ele>779.0</ele><time>2017-02-12T09:23:41Z</time></trkpt><trkpt lat="-23.626559" lon="-46.486941"><ele>783.0</ele><time>2017-02-12T09:23:50Z</time></trkpt><trkpt lat="-23.626645" lon="-46.486895"><ele>784.0</ele><time>2017-02-12T09:24:00Z</time></trkpt><trkpt lat="-23.626728" lon="-46.486838"><ele>786.0</ele><time>2017-02-12T09:24:09Z</time></trkpt><trkpt lat="-23.626813" lon="-46.486789"><ele>782.0</ele><time>2017-02-12T09:24:20Z</time></trkpt><trkpt lat="-23.626906" lon="-46.486765"><ele>782.0</ele><time>2017-02-12T09:24:26Z</time></trkpt><trkpt lat="-23.626998" lon="-46.486734"><ele>779.0</ele><time>2017-02-12T09:24:32Z</time></trkpt><trkpt lat="-23.627093" lon="-46.486732"><ele>774.0</ele><time>2017-02-12T09:24:45Z</time></trkpt><trkpt lat="-23.627177" lon="-46.486669"><ele>784.0</ele><time>2017-02-12T09:24:54Z</time></trkpt><trkpt lat="-23.627262" lon="-46.486632"><ele>781.0</ele><time>2017-02-12T09:25:04Z</time></trkpt><trkpt lat="-23.627352" lon="-46.486589"><ele>777.0</ele><time>2017-02-12T09:25:15Z</time></trkpt><trkpt lat="-23.627437" lon="-46.486539"><ele>773.0</ele><time>2017-02-12T09:25:24Z</time></trkpt><trkpt lat="-23.627521" lon="-46.486489"><ele>777.0</ele><time>2017-02-12T09:25:32Z</time></trkpt><trkpt lat="-23.627611" lon="-46.486515"><ele>774.0</ele><time>2017-02-12T09:27:04Z</time></trkpt><trkpt lat="-23.627702" lon="-46.486474"><ele>774.0</ele><time>2017-02-12T09:27:12Z</time></trkpt><trkpt lat="-23.627783" lon="-46.486426"><ele>776.0</ele><time>2017-02-12T09:27:18Z</time></trkpt><trkpt lat="-23.627882" lon="-46.486423"><ele>776.0</ele><time>2017-02-12T09:27:27Z</time></trkpt><trkpt lat="-23.627962" lon="-46.486482"><ele>775.0</ele><time>2017-02-12T09:27:37Z</time></trkpt><trkpt lat="-23.628037" lon="-46.486544"><ele>777.0</ele><time>2017-02-12T09:28:14Z</time></trkpt><trkpt lat="-23.628129" lon="-46.486574"><ele>779.0</ele><time>2017-02-12T09:28:21Z</time></trkpt><trkpt lat="-23.628222" lon="-46.486559"><ele>785.0</ele><time>2017-02-12T09:28:30Z</time></trkpt><trkpt lat="-23.628308" lon="-46.486513"><ele>781.0</ele><time>2017-02-12T09:28:55Z</time></trkpt><trkpt lat="-23.62841" lon="-46.486528"><ele>780.0</ele><time>2017-02-12T09:29:02Z</time></trkpt><trkpt lat="-23.62851" lon="-46.486551"><ele>778.0</ele><time>2017-02-12T09:29:10Z</time></trkpt><trkpt lat="-23.628584" lon="-46.486625"><ele>776.0</ele><time>2017-02-12T09:29:20Z</time></trkpt><trkpt lat="-23.628675" lon="-46.486666"><ele>778.0</ele><time>2017-02-12T09:29:27Z</time></trkpt><trkpt lat="-23.628767" lon="-46.486659"><ele>779.0</ele><time>2017-02-12T09:29:33Z</time></trkpt><trkpt lat="-23.628868" lon="-46.486645"><ele>777.0</ele><time>2017-02-12T09:29:41Z</time></trkpt><trkpt lat="-23.628966" lon="-46.48666"><ele>779.0</ele><time>2017-02-12T09:29:51Z</time></trkpt><trkpt lat="-23.629057" lon="-46.486662"><ele>776.0</ele><time>2017-02-12T09:30:01Z</time></trkpt><trkpt lat="-23.629144" lon="-46.486695"><ele>775.0</ele><time>2017-02-12T09:30:12Z</time></trkpt><trkpt lat="-23.629228" lon="-46.486743"><ele>780.0</ele><time>2017-02-12T09:30:21Z</time></trkpt><trkpt lat="-23.629315" lon="-46.48678"><ele>781.0</ele><time>2017-02-12T09:30:34Z</time></trkpt><trkpt lat="-23.629412" lon="-46.486775"><ele>779.0</ele><time>2017-02-12T09:30:45Z</time></trkpt><trkpt lat="-23.62951" lon="-46.486787"><ele>779.0</ele><time>2017-02-12T09:30:56Z</time></trkpt><trkpt lat="-23.629603" lon="-46.486814"><ele>779.0</ele><time>2017-02-12T09:31:09Z</time></trkpt><trkpt lat="-23.629695" lon="-46.486837"><ele>780.0</ele><time>2017-02-12T09:31:20Z</time></trkpt><trkpt lat="-23.629783" lon="-46.486865"><ele>782.0</ele><time>2017-02-12T09:31:46Z</time></trkpt><trkpt lat="-23.629862" lon="-46.486934"><ele>780.0</ele><time>2017-02-12T09:31:55Z</time></trkpt><trkpt lat="-23.629951" lon="-46.486915"><ele>780.0</ele><time>2017-02-12T09:32:03Z</time></trkpt><trkpt lat="-23.630041" lon="-46.486925"><ele>781.0</ele><time>2017-02-12T09:32:12Z</time></trkpt><trkpt lat="-23.630134" lon="-46.486905"><ele>786.0</ele><time>2017-02-12T09:32:20Z</time></trkpt><trkpt lat="-23.630206" lon="-46.486973"><ele>793.0</ele><time>2017-02-12T09:32:31Z</time></trkpt><trkpt lat="-23.630291" lon="-46.487017"><ele>797.0</ele><time>2017-02-12T09:32:42Z</time></trkpt><trkpt lat="-23.630386" lon="-46.487051"><ele>789.0</ele><time>2017-02-12T09:32:52Z</time></trkpt><trkpt lat="-23.630469" lon="-46.487095"><ele>791.0</ele><time>2017-02-12T09:33:03Z</time></trkpt><trkpt lat="-23.63056" lon="-46.487126"><ele>790.0</ele><time>2017-02-12T09:33:15Z</time></trkpt><trkpt lat="-23.630657" lon="-46.487116"><ele>785.0</ele><time>2017-02-12T09:33:23Z</time></trkpt><trkpt lat="-23.63075" lon="-46.487102"><ele>785.0</ele><time>2017-02-12T09:33:31Z</time></trkpt><trkpt lat="-23.63084" lon="-46.487136"><ele>778.0</ele><time>2017-02-12T09:33:42Z</time></trkpt><trkpt lat="-23.63093" lon="-46.487116"><ele>780.0</ele><time>2017-02-12T09:33:53Z</time></trkpt><trkpt lat="-23.630998" lon="-46.487186"><ele>779.0</ele><time>2017-02-12T09:34:06Z</time></trkpt><trkpt lat="-23.631037" lon="-46.487294"><ele>787.0</ele><time>2017-02-12T09:34:12Z</time></trkpt><trkpt lat="-23.631115" lon="-46.487346"><ele>785.0</ele><time>2017-02-12T09:34:21Z</time></trkpt><trkpt lat="-23.631208" lon="-46.487366"><ele>781.0</ele><time>2017-02-12T09:34:30Z</time></trkpt><trkpt lat="-23.631278" lon="-46.487441"><ele>782.0</ele><time>2017-02-12T09:34:39Z</time></trkpt><trkpt lat="-23.631345" lon="-46.487523"><ele>781.0</ele><time>2017-02-12T09:34:46Z</time></trkpt><trkpt lat="-23.631434" lon="-46.487544"><ele>784.0</ele><time>2017-02-12T09:34:56Z</time></trkpt><trkpt lat="-23.631464" lon="-46.487644"><ele>784.0</ele><time>2017-02-12T09:35:02Z</time></trkpt><trkpt lat="-23.631538" lon="-46.487585"><ele>779.0</ele><time>2017-02-12T09:35:07Z</time></trkpt><trkpt lat="-23.631604" lon="-46.487665"><ele>779.0</ele><time>2017-02-12T09:35:15Z</time></trkpt><trkpt lat="-23.631688" lon="-46.487708"><ele>779.0</ele><time>2017-02-12T09:35:24Z</time></trkpt><trkpt lat="-23.631755" lon="-46.487779"><ele>780.0</ele><time>2017-02-12T09:35:34Z</time></trkpt><trkpt lat="-23.631836" lon="-46.487828"><ele>783.0</ele><time>2017-02-12T09:35:40Z</time></trkpt><trkpt lat="-23.631931" lon="-46.487834"><ele>785.0</ele><time>2017-02-12T09:35:51Z</time></trkpt><trkpt lat="-23.632002" lon="-46.487897"><ele>785.0</ele><time>2017-02-12T09:35:59Z</time></trkpt><trkpt lat="-23.632064" lon="-46.48798"><ele>784.0</ele><time>2017-02-12T09:36:06Z</time></trkpt><trkpt lat="-23.632165" lon="-46.487994"><ele>779.0</ele><time>2017-02-12T09:36:17Z</time></trkpt><trkpt lat="-23.632214" lon="-46.488083"><ele>778.0</ele><time>2017-02-12T09:36:26Z</time></trkpt><trkpt lat="-23.632244" lon="-46.488183"><ele>781.0</ele><time>2017-02-12T09:36:33Z</time></trkpt><trkpt lat="-23.632331" lon="-46.488209"><ele>779.0</ele><time>2017-02-12T09:36:41Z</time></trkpt><trkpt lat="-23.632406" lon="-46.488284"><ele>782.0</ele><time>2017-02-12T09:36:51Z</time></trkpt><trkpt lat="-23.63249" lon="-46.488328"><ele>784.0</ele><time>2017-02-12T09:37:00Z</time></trkpt><trkpt lat="-23.632588" lon="-46.488353"><ele>785.0</ele><time>2017-02-12T09:37:10Z</time></trkpt><trkpt lat="-23.632636" lon="-46.488437"><ele>785.0</ele><time>2017-02-12T09:37:19Z</time></trkpt><trkpt lat="-23.632708" lon="-46.488503"><ele>788.0</ele><time>2017-02-12T09:37:28Z</time></trkpt><trkpt lat="-23.632789" lon="-46.488553"><ele>784.0</ele><time>2017-02-12T09:37:37Z</time></trkpt><trkpt lat="-23.632891" lon="-46.488578"><ele>788.0</ele><time>2017-02-12T09:37:45Z</time></trkpt><trkpt lat="-23.632962" lon="-46.488641"><ele>786.0</ele><time>2017-02-12T09:37:55Z</time></trkpt><trkpt lat="-23.633058" lon="-46.488635"><ele>788.0</ele><time>2017-02-12T09:38:04Z</time></trkpt><trkpt lat="-23.633103" lon="-46.488735"><ele>786.0</ele><time>2017-02-12T09:38:16Z</time></trkpt><trkpt lat="-23.633174" lon="-46.488794"><ele>787.0</ele><time>2017-02-12T09:38:25Z</time></trkpt><trkpt lat="-23.633232" lon="-46.488886"><ele>789.0</ele><time>2017-02-12T09:38:31Z</time></trkpt><trkpt lat="-23.633304" lon="-46.488958"><ele>793.0</ele><time>2017-02-12T09:38:40Z</time></trkpt><trkpt lat="-23.633398" lon="-46.48891"><ele>790.0</ele><time>2017-02-12T09:38:47Z</time></trkpt><trkpt lat="-23.633509" lon="-46.488899"><ele>785.0</ele><time>2017-02-12T09:38:56Z</time></trkpt><trkpt lat="-23.633604" lon="-46.488881"><ele>787.0</ele><time>2017-02-12T09:39:06Z</time></trkpt><trkpt lat="-23.633689" lon="-46.488842"><ele>790.0</ele><time>2017-02-12T09:39:13Z</time></trkpt><trkpt lat="-23.633782" lon="-46.488837"><ele>787.0</ele><time>2017-02-12T09:39:29Z</time></trkpt><trkpt lat="-23.633871" lon="-46.488807"><ele>789.0</ele><time>2017-02-12T09:39:36Z</time></trkpt><trkpt lat="-23.633949" lon="-46.488749"><ele>790.0</ele><time>2017-02-12T09:39:43Z</time></trkpt><trkpt lat="-23.634045" lon="-46.488754"><ele>785.0</ele><time>2017-02-12T09:39:48Z</time></trkpt><trkpt lat="-23.634144" lon="-46.488738"><ele>789.0</ele><time>2017-02-12T09:40:06Z</time></trkpt><trkpt lat="-23.634233" lon="-46.488717"><ele>789.0</ele><time>2017-02-12T09:40:20Z</time></trkpt><trkpt lat="-23.634325" lon="-46.488661"><ele>795.0</ele><time>2017-02-12T09:40:30Z</time></trkpt><trkpt lat="-23.634419" lon="-46.488624"><ele>799.0</ele><time>2017-02-12T09:40:38Z</time></trkpt><trkpt lat="-23.6345" lon="-46.488577"><ele>799.0</ele><time>2017-02-12T09:40:45Z</time></trkpt><trkpt lat="-23.634592" lon="-46.488531"><ele>800.0</ele><time>2017-02-12T09:40:54Z</time></trkpt><trkpt lat="-23.634686" lon="-46.488531"><ele>800.0</ele><time>2017-02-12T09:41:04Z</time></trkpt><trkpt lat="-23.634776" lon="-46.48855"><ele>798.0</ele><time>2017-02-12T09:41:15Z</time></trkpt><trkpt lat="-23.634874" lon="-46.488547"><ele>793.0</ele><time>2017-02-12T09:41:27Z</time></trkpt><trkpt lat="-23.634972" lon="-46.488545"><ele>796.0</ele><time>2017-02-12T09:41:39Z</time></trkpt><trkpt lat="-23.635018" lon="-46.488457"><ele>792.0</ele><time>2017-02-12T09:41:50Z</time></trkpt><trkpt lat="-23.635109" lon="-46.488398"><ele>795.0</ele><time>2017-02-12T09:41:56Z</time></trkpt><trkpt lat="-23.635202" lon="-46.488435"><ele>792.0</ele><time>2017-02-12T09:42:03Z</time></trkpt><trkpt lat="-23.635296" lon="-46.488426"><ele>788.0</ele><time>2017-02-12T09:42:14Z</time></trkpt><trkpt lat="-23.635387" lon="-46.488467"><ele>791.0</ele><time>2017-02-12T09:42:23Z</time></trkpt><trkpt lat="-23.635482" lon="-46.488471"><ele>789.0</ele><time>2017-02-12T09:43:25Z</time></trkpt><trkpt lat="-23.635566" lon="-46.488519"><ele>791.0</ele><time>2017-02-12T09:43:38Z</time></trkpt><trkpt lat="-23.635657" lon="-46.488511"><ele>789.0</ele><time>2017-02-12T09:43:49Z</time></trkpt><trkpt lat="-23.635744" lon="-46.488479"><ele>792.0</ele><time>2017-02-12T09:43:59Z</time></trkpt><trkpt lat="-23.635833" lon="-46.488441"><ele>793.0</ele><time>2017-02-12T09:44:12Z</time></trkpt><trkpt lat="-23.635898" lon="-46.488531"><ele>796.0</ele><time>2017-02-12T09:44:20Z</time></trkpt><trkpt lat="-23.635979" lon="-46.488576"><ele>795.0</ele><time>2017-02-12T09:44:29Z</time></trkpt><trkpt lat="-23.636066" lon="-46.488545"><ele>794.0</ele><time>2017-02-12T09:44:40Z</time></trkpt><trkpt lat="-23.636162" lon="-46.488535"><ele>792.0</ele><time>2017-02-12T09:44:49Z</time></trkpt><trkpt lat="-23.636255" lon="-46.48858"><ele>796.0</ele><time>2017-02-12T09:45:00Z</time></trkpt><trkpt lat="-23.636346" lon="-46.488615"><ele>793.0</ele><time>2017-02-12T09:45:13Z</time></trkpt><trkpt lat="-23.636429" lon="-46.488673"><ele>795.0</ele><time>2017-02-12T09:45:24Z</time></trkpt><trkpt lat="-23.636514" lon="-46.48872"><ele>798.0</ele><time>2017-02-12T09:45:35Z</time></trkpt><trkpt lat="-23.636614" lon="-46.488709"><ele>796.0</ele><time>2017-02-12T09:45:43Z</time></trkpt><trkpt lat="-23.636705" lon="-46.488666"><ele>796.0</ele><time>2017-02-12T09:45:52Z</time></trkpt><trkpt lat="-23.636804" lon="-46.488664"><ele>797.0</ele><time>2017-02-12T09:46:01Z</time></trkpt><trkpt lat="-23.636896" lon="-46.488674"><ele>796.0</ele><time>2017-02-12T09:46:10Z</time></trkpt><trkpt lat="-23.636986" lon="-46.488698"><ele>799.0</ele><time>2017-02-12T09:46:19Z</time></trkpt><trkpt lat="-23.637078" lon="-46.488707"><ele>798.0</ele><time>2017-02-12T09:46:31Z</time></trkpt><trkpt lat="-23.637174" lon="-46.488762"><ele>798.0</ele><time>2017-02-12T09:46:42Z</time></trkpt><trkpt lat="-23.637262" lon="-46.488735"><ele>798.0</ele><time>2017-02-12T09:46:56Z</time></trkpt><trkpt lat="-23.637352" lon="-46.48877"><ele>799.0</ele><time>2017-02-12T09:47:05Z</time></trkpt><trkpt lat="-23.63745" lon="-46.488779"><ele>798.0</ele><time>2017-02-12T09:47:15Z</time></trkpt><trkpt lat="-23.637539" lon="-46.488817"><ele>800.0</ele><time>2017-02-12T09:47:25Z</time></trkpt><trkpt lat="-23.63765" lon="-46.48883"><ele>797.0</ele><time>2017-02-12T09:47:35Z</time></trkpt><trkpt lat="-23.637742" lon="-46.488838"><ele>797.0</ele><time>2017-02-12T09:47:45Z</time></trkpt><trkpt lat="-23.637835" lon="-46.488872"><ele>801.0</ele><time>2017-02-12T09:47:55Z</time></trkpt><trkpt lat="-23.637928" lon="-46.488908"><ele>801.0</ele><time>2017-02-12T09:48:10Z</time></trkpt><trkpt lat="-23.638028" lon="-46.488899"><ele>800.0</ele><time>2017-02-12T09:48:22Z</time></trkpt><trkpt lat="-23.638122" lon="-46.48892"><ele>800.0</ele><time>2017-02-12T09:48:32Z</time></trkpt><trkpt lat="-23.638221" lon="-46.488912"><ele>797.0</ele><time>2017-02-12T09:48:47Z</time></trkpt><trkpt lat="-23.638319" lon="-46.488933"><ele>800.0</ele><time>2017-02-12T09:48:57Z</time></trkpt><trkpt lat="-23.638413" lon="-46.488946"><ele>802.0</ele><time>2017-02-12T09:49:08Z</time></trkpt><trkpt lat="-23.638512" lon="-46.488931"><ele>801.0</ele><time>2017-02-12T09:49:22Z</time></trkpt><trkpt lat="-23.63859" lon="-46.48899"><ele>801.0</ele><time>2017-02-12T09:49:32Z</time></trkpt><trkpt lat="-23.638678" lon="-46.489021"><ele>799.0</ele><time>2017-02-12T09:49:48Z</time></trkpt><trkpt lat="-23.638767" lon="-46.488965"><ele>803.0</ele><time>2017-02-12T09:49:56Z</time></trkpt><trkpt lat="-23.638858" lon="-46.488998"><ele>802.0</ele><time>2017-02-12T09:50:03Z</time></trkpt><trkpt lat="-23.638948" lon="-46.489031"><ele>803.0</ele><time>2017-02-12T09:50:14Z</time></trkpt><trkpt lat="-23.639013" lon="-46.489105"><ele>804.0</ele><time>2017-02-12T09:50:23Z</time></trkpt><trkpt lat="-23.639092" lon="-46.489157"><ele>806.0</ele><time>2017-02-12T09:50:36Z</time></trkpt><trkpt lat="-23.639183" lon="-46.489184"><ele>805.0</ele><time>2017-02-12T09:50:48Z</time></trkpt><trkpt lat="-23.639206" lon="-46.48929"><ele>814.0</ele><time>2017-02-12T09:50:58Z</time></trkpt><trkpt lat="-23.639275" lon="-46.489365"><ele>815.0</ele><time>2017-02-12T09:51:13Z</time></trkpt><trkpt lat="-23.639353" lon="-46.489418"><ele>825.0</ele><time>2017-02-12T09:51:27Z</time></trkpt><trkpt lat="-23.639451" lon="-46.489419"><ele>822.0</ele><time>2017-02-12T09:51:41Z</time></trkpt><trkpt lat="-23.639541" lon="-46.489441"><ele>819.0</ele><time>2017-02-12T09:51:53Z</time></trkpt><trkpt lat="-23.639627" lon="-46.489495"><ele>817.0</ele><time>2017-02-12T09:52:02Z</time></trkpt><trkpt lat="-23.639723" lon="-46.489498"><ele>819.0</ele><time>2017-02-12T09:52:10Z</time></trkpt><trkpt lat="-23.639816" lon="-46.489479"><ele>823.0</ele><time>2017-02-12T09:52:23Z</time></trkpt><trkpt lat="-23.639891" lon="-46.489552"><ele>823.0</ele><time>2017-02-12T09:52:33Z</time></trkpt><trkpt lat="-23.639977" lon="-46.489582"><ele>820.0</ele><time>2017-02-12T09:52:40Z</time></trkpt><trkpt lat="-23.640069" lon="-46.48953"><ele>821.0</ele><time>2017-02-12T09:52:52Z</time></trkpt><trkpt lat="-23.640133" lon="-46.489444"><ele>816.0</ele><time>2017-02-12T09:52:57Z</time></trkpt><trkpt lat="-23.640204" lon="-46.489509"><ele>818.0</ele><time>2017-02-12T09:53:02Z</time></trkpt><trkpt lat="-23.640286" lon="-46.489571"><ele>819.0</ele><time>2017-02-12T09:53:10Z</time></trkpt><trkpt lat="-23.640331" lon="-46.489664"><ele>821.0</ele><time>2017-02-12T09:53:16Z</time></trkpt><trkpt lat="-23.640356" lon="-46.489763"><ele>822.0</ele><time>2017-02-12T09:53:21Z</time></trkpt><trkpt lat="-23.640448" lon="-46.48977"><ele>821.0</ele><time>2017-02-12T09:53:33Z</time></trkpt><trkpt lat="-23.640543" lon="-46.489759"><ele>820.0</ele><time>2017-02-12T09:53:45Z</time></trkpt><trkpt lat="-23.640636" lon="-46.489763"><ele>818.0</ele><time>2017-02-12T09:53:55Z</time></trkpt><trkpt lat="-23.640719" lon="-46.489803"><ele>819.0</ele><time>2017-02-12T09:54:17Z</time></trkpt><trkpt lat="-23.640809" lon="-46.489833"><ele>820.0</ele><time>2017-02-12T09:54:25Z</time></trkpt><trkpt lat="-23.641143" lon="-46.4899"><ele>846.0</ele><time>2017-02-12T10:04:43Z</time></trkpt><trkpt lat="-23.64089" lon="-46.489932"><ele>849.0</ele><time>2017-02-12T10:05:01Z</time></trkpt><trkpt lat="-23.640864" lon="-46.490028"><ele>851.0</ele><time>2017-02-12T10:05:08Z</time></trkpt><trkpt lat="-23.640981" lon="-46.48995"><ele>808.0</ele><time>2017-02-12T10:07:42Z</time></trkpt><trkpt lat="-23.640885" lon="-46.489691"><ele>804.0</ele><time>2017-02-12T10:07:44Z</time></trkpt><trkpt lat="-23.640898" lon="-46.489801"><ele>817.0</ele><time>2017-02-12T10:07:56Z</time></trkpt><trkpt lat="-23.640997" lon="-46.48982"><ele>810.0</ele><time>2017-02-12T10:08:24Z</time></trkpt><trkpt lat="-23.641088" lon="-46.489815"><ele>813.0</ele><time>2017-02-12T10:08:45Z</time></trkpt><trkpt lat="-23.641177" lon="-46.489835"><ele>815.0</ele><time>2017-02-12T10:09:24Z</time></trkpt><trkpt lat="-23.641181" lon="-46.489727"><ele>811.0</ele><time>2017-02-12T10:10:38Z</time></trkpt><trkpt lat="-23.64127" lon="-46.489743"><ele>813.0</ele><time>2017-02-12T10:11:10Z</time></trkpt><trkpt lat="-23.641351" lon="-46.489807"><ele>807.0</ele><time>2017-02-12T10:11:48Z</time></trkpt><trkpt lat="-23.641259" lon="-46.489842"><ele>803.0</ele><time>2017-02-12T10:12:28Z</time></trkpt><trkpt lat="-23.641198" lon="-46.489922"><ele>808.0</ele><time>2017-02-12T10:12:37Z</time></trkpt><trkpt lat="-23.641203" lon="-46.490021"><ele>813.0</ele><time>2017-02-12T10:13:43Z</time></trkpt><trkpt lat="-23.641203" lon="-46.490021"><ele>813.0</ele><time>2017-02-12T10:13:43Z</time></trkpt><trkpt lat="-23.641291" lon="-46.490047"><ele>811.0</ele><time>2017-02-12T10:14:01Z</time></trkpt><trkpt lat="-23.641384" lon="-46.490028"><ele>814.0</ele><time>2017-02-12T10:14:08Z</time></trkpt><trkpt lat="-23.641482" lon="-46.490034"><ele>815.0</ele><time>2017-02-12T10:14:15Z</time></trkpt><trkpt lat="-23.641573" lon="-46.490062"><ele>814.0</ele><time>2017-02-12T10:14:53Z</time></trkpt><trkpt lat="-23.641668" lon="-46.490089"><ele>814.0</ele><time>2017-02-12T10:15:05Z</time></trkpt><trkpt lat="-23.641741" lon="-46.49015"><ele>816.0</ele><time>2017-02-12T10:15:14Z</time></trkpt><trkpt lat="-23.641825" lon="-46.490187"><ele>815.0</ele><time>2017-02-12T10:15:22Z</time></trkpt><trkpt lat="-23.641912" lon="-46.490218"><ele>813.0</ele><time>2017-02-12T10:15:30Z</time></trkpt><trkpt lat="-23.641998" lon="-46.490252"><ele>816.0</ele><time>2017-02-12T10:15:38Z</time></trkpt><trkpt lat="-23.642094" lon="-46.490303"><ele>820.0</ele><time>2017-02-12T10:15:46Z</time></trkpt><trkpt lat="-23.642173" lon="-46.490359"><ele>817.0</ele><time>2017-02-12T10:16:59Z</time></trkpt><trkpt lat="-23.642269" lon="-46.490358"><ele>812.0</ele><time>2017-02-12T10:17:08Z</time></trkpt><trkpt lat="-23.64236" lon="-46.49038"><ele>817.0</ele><time>2017-02-12T10:17:17Z</time></trkpt><trkpt lat="-23.642462" lon="-46.490389"><ele>812.0</ele><time>2017-02-12T10:17:21Z</time></trkpt><trkpt lat="-23.642554" lon="-46.490419"><ele>811.0</ele><time>2017-02-12T10:17:28Z</time></trkpt><trkpt lat="-23.642651" lon="-46.490444"><ele>810.0</ele><time>2017-02-12T10:17:41Z</time></trkpt><trkpt lat="-23.64275" lon="-46.490476"><ele>809.0</ele><time>2017-02-12T10:17:48Z</time></trkpt><trkpt lat="-23.642836" lon="-46.490517"><ele>812.0</ele><time>2017-02-12T10:17:55Z</time></trkpt><trkpt lat="-23.64292" lon="-46.490573"><ele>817.0</ele><time>2017-02-12T10:18:04Z</time></trkpt><trkpt lat="-23.643015" lon="-46.490558"><ele>803.0</ele><time>2017-02-12T10:18:18Z</time></trkpt><trkpt lat="-23.643095" lon="-46.49061"><ele>806.0</ele><time>2017-02-12T10:18:49Z</time></trkpt><trkpt lat="-23.643194" lon="-46.490577"><ele>799.0</ele><time>2017-02-12T10:19:23Z</time></trkpt><trkpt lat="-23.643279" lon="-46.490614"><ele>800.0</ele><time>2017-02-12T10:19:30Z</time></trkpt><trkpt lat="-23.643376" lon="-46.490633"><ele>799.0</ele><time>2017-02-12T10:19:40Z</time></trkpt><trkpt lat="-23.64346" lon="-46.490669"><ele>801.0</ele><time>2017-02-12T10:19:48Z</time></trkpt><trkpt lat="-23.643549" lon="-46.490701"><ele>800.0</ele><time>2017-02-12T10:19:57Z</time></trkpt><trkpt lat="-23.643644" lon="-46.490696"><ele>797.0</ele><time>2017-02-12T10:20:06Z</time></trkpt><trkpt lat="-23.643741" lon="-46.490679"><ele>793.0</ele><time>2017-02-12T10:20:19Z</time></trkpt><trkpt lat="-23.643804" lon="-46.490752"><ele>795.0</ele><time>2017-02-12T10:20:40Z</time></trkpt><trkpt lat="-23.643881" lon="-46.490808"><ele>800.0</ele><time>2017-02-12T10:20:51Z</time></trkpt><trkpt lat="-23.643957" lon="-46.490748"><ele>795.0</ele><time>2017-02-12T10:21:51Z</time></trkpt><trkpt lat="-23.644021" lon="-46.490832"><ele>802.0</ele><time>2017-02-12T10:22:07Z</time></trkpt><trkpt lat="-23.644086" lon="-46.4909"><ele>802.0</ele><time>2017-02-12T10:22:14Z</time></trkpt><trkpt lat="-23.644175" lon="-46.490935"><ele>797.0</ele><time>2017-02-12T10:22:28Z</time></trkpt><trkpt lat="-23.644264" lon="-46.490913"><ele>797.0</ele><time>2017-02-12T10:22:53Z</time></trkpt><trkpt lat="-23.644358" lon="-46.49093"><ele>796.0</ele><time>2017-02-12T10:23:46Z</time></trkpt><trkpt lat="-23.644452" lon="-46.490944"><ele>795.0</ele><time>2017-02-12T10:23:56Z</time></trkpt><trkpt lat="-23.644548" lon="-46.490946"><ele>793.0</ele><time>2017-02-12T10:24:03Z</time></trkpt><trkpt lat="-23.644629" lon="-46.491"><ele>796.0</ele><time>2017-02-12T10:24:10Z</time></trkpt><trkpt lat="-23.644716" lon="-46.491041"><ele>793.0</ele><time>2017-02-12T10:24:23Z</time></trkpt><trkpt lat="-23.644807" lon="-46.491051"><ele>791.0</ele><time>2017-02-12T10:24:34Z</time></trkpt><trkpt lat="-23.644879" lon="-46.491132"><ele>798.0</ele><time>2017-02-12T10:24:43Z</time></trkpt><trkpt lat="-23.644967" lon="-46.491187"><ele>799.0</ele><time>2017-02-12T10:24:48Z</time></trkpt><trkpt lat="-23.645062" lon="-46.491171"><ele>795.0</ele><time>2017-02-12T10:25:00Z</time></trkpt><trkpt lat="-23.645154" lon="-46.491187"><ele>794.0</ele><time>2017-02-12T10:25:10Z</time></trkpt><trkpt lat="-23.645154" lon="-46.491187"><ele>794.0</ele><time>2017-02-12T10:25:10Z</time></trkpt><trkpt lat="-23.64524" lon="-46.491224"><ele>791.0</ele><time>2017-02-12T10:25:19Z</time></trkpt><trkpt lat="-23.645328" lon="-46.491255"><ele>790.0</ele><time>2017-02-12T10:25:32Z</time></trkpt><trkpt lat="-23.64542" lon="-46.491275"><ele>788.0</ele><time>2017-02-12T10:25:39Z</time></trkpt><trkpt lat="-23.645515" lon="-46.491278"><ele>786.0</ele><time>2017-02-12T10:25:49Z</time></trkpt><trkpt lat="-23.645515" lon="-46.491278"><ele>786.0</ele><time>2017-02-12T10:25:49Z</time></trkpt><trkpt lat="-23.645605" lon="-46.491337"><ele>794.0</ele><time>2017-02-12T10:25:54Z</time></trkpt><trkpt lat="-23.645676" lon="-46.491413"><ele>800.0</ele><time>2017-02-12T10:26:00Z</time></trkpt><trkpt lat="-23.645742" lon="-46.491486"><ele>797.0</ele><time>2017-02-12T10:26:10Z</time></trkpt><trkpt lat="-23.645832" lon="-46.491465"><ele>793.0</ele><time>2017-02-12T10:26:21Z</time></trkpt><trkpt lat="-23.64592" lon="-46.491496"><ele>794.0</ele><time>2017-02-12T10:26:33Z</time></trkpt><trkpt lat="-23.646013" lon="-46.491543"><ele>796.0</ele><time>2017-02-12T10:26:42Z</time></trkpt><trkpt lat="-23.646101" lon="-46.491595"><ele>796.0</ele><time>2017-02-12T10:26:49Z</time></trkpt><trkpt lat="-23.646202" lon="-46.49161"><ele>792.0</ele><time>2017-02-12T10:26:57Z</time></trkpt><trkpt lat="-23.646296" lon="-46.491631"><ele>792.0</ele><time>2017-02-12T10:27:06Z</time></trkpt><trkpt lat="-23.646389" lon="-46.491638"><ele>791.0</ele><time>2017-02-12T10:27:17Z</time></trkpt><trkpt lat="-23.646478" lon="-46.491674"><ele>792.0</ele><time>2017-02-12T10:27:26Z</time></trkpt><trkpt lat="-23.64658" lon="-46.491654"><ele>784.0</ele><time>2017-02-12T10:27:38Z</time></trkpt><trkpt lat="-23.646671" lon="-46.491625"><ele>785.0</ele><time>2017-02-12T10:28:00Z</time></trkpt><trkpt lat="-23.64676" lon="-46.491649"><ele>789.0</ele><time>2017-02-12T10:28:12Z</time></trkpt><trkpt lat="-23.646855" lon="-46.491688"><ele>788.0</ele><time>2017-02-12T10:28:50Z</time></trkpt><trkpt lat="-23.646941" lon="-46.491733"><ele>786.0</ele><time>2017-02-12T10:28:57Z</time></trkpt><trkpt lat="-23.647023" lon="-46.49178"><ele>788.0</ele><time>2017-02-12T10:29:09Z</time></trkpt><trkpt lat="-23.647108" lon="-46.491824"><ele>789.0</ele><time>2017-02-12T10:29:16Z</time></trkpt><trkpt lat="-23.647197" lon="-46.491845"><ele>788.0</ele><time>2017-02-12T10:29:26Z</time></trkpt><trkpt lat="-23.647276" lon="-46.491897"><ele>786.0</ele><time>2017-02-12T10:29:34Z</time></trkpt><trkpt lat="-23.64736" lon="-46.491861"><ele>785.0</ele><time>2017-02-12T10:29:48Z</time></trkpt><trkpt lat="-23.64746" lon="-46.491885"><ele>786.0</ele><time>2017-02-12T10:29:59Z</time></trkpt><trkpt lat="-23.647546" lon="-46.49193"><ele>791.0</ele><time>2017-02-12T10:30:06Z</time></trkpt><trkpt lat="-23.647637" lon="-46.491963"><ele>791.0</ele><time>2017-02-12T10:30:15Z</time></trkpt><trkpt lat="-23.647735" lon="-46.491954"><ele>789.0</ele><time>2017-02-12T10:30:25Z</time></trkpt><trkpt lat="-23.64782" lon="-46.492006"><ele>791.0</ele><time>2017-02-12T10:30:56Z</time></trkpt><trkpt lat="-23.647903" lon="-46.49205"><ele>790.0</ele><time>2017-02-12T10:31:06Z</time></trkpt><trkpt lat="-23.648" lon="-46.492078"><ele>790.0</ele><time>2017-02-12T10:31:14Z</time></trkpt><trkpt lat="-23.648092" lon="-46.49212"><ele>791.0</ele><time>2017-02-12T10:31:19Z</time></trkpt><trkpt lat="-23.648184" lon="-46.49214"><ele>794.0</ele><time>2017-02-12T10:31:29Z</time></trkpt><trkpt lat="-23.648266" lon="-46.492186"><ele>791.0</ele><time>2017-02-12T10:31:42Z</time></trkpt><trkpt lat="-23.648356" lon="-46.492223"><ele>791.0</ele><time>2017-02-12T10:31:58Z</time></trkpt><trkpt lat="-23.648393" lon="-46.492325"><ele>785.0</ele><time>2017-02-12T10:32:19Z</time></trkpt><trkpt lat="-23.648408" lon="-46.492432"><ele>791.0</ele><time>2017-02-12T10:32:27Z</time></trkpt><trkpt lat="-23.648339" lon="-46.492521"><ele>791.0</ele><time>2017-02-12T10:32:34Z</time></trkpt><trkpt lat="-23.648266" lon="-46.492583"><ele>784.0</ele><time>2017-02-12T10:32:42Z</time></trkpt><trkpt lat="-23.648269" lon="-46.492688"><ele>794.0</ele><time>2017-02-12T10:33:03Z</time></trkpt><trkpt lat="-23.648295" lon="-46.492788"><ele>797.0</ele><time>2017-02-12T10:33:08Z</time></trkpt><trkpt lat="-23.648363" lon="-46.492864"><ele>799.0</ele><time>2017-02-12T10:33:14Z</time></trkpt><trkpt lat="-23.648442" lon="-46.492917"><ele>800.0</ele><time>2017-02-12T10:33:22Z</time></trkpt><trkpt lat="-23.648522" lon="-46.492972"><ele>798.0</ele><time>2017-02-12T10:33:34Z</time></trkpt><trkpt lat="-23.648557" lon="-46.49307"><ele>797.0</ele><time>2017-02-12T10:33:44Z</time></trkpt><trkpt lat="-23.648584" lon="-46.493167"><ele>795.0</ele><time>2017-02-12T10:33:55Z</time></trkpt><trkpt lat="-23.648611" lon="-46.493268"><ele>794.0</ele><time>2017-02-12T10:34:05Z</time></trkpt><trkpt lat="-23.648683" lon="-46.493348"><ele>793.0</ele><time>2017-02-12T10:34:15Z</time></trkpt><trkpt lat="-23.648711" lon="-46.493442"><ele>793.0</ele><time>2017-02-12T10:34:20Z</time></trkpt><trkpt lat="-23.648723" lon="-46.493551"><ele>795.0</ele><time>2017-02-12T10:34:27Z</time></trkpt><trkpt lat="-23.648723" lon="-46.493665"><ele>793.0</ele><time>2017-02-12T10:34:34Z</time></trkpt><trkpt lat="-23.648775" lon="-46.493762"><ele>800.0</ele><time>2017-02-12T10:34:40Z</time></trkpt><trkpt lat="-23.648865" lon="-46.493738"><ele>794.0</ele><time>2017-02-12T10:34:49Z</time></trkpt><trkpt lat="-23.648958" lon="-46.49372"><ele>800.0</ele><time>2017-02-12T10:35:02Z</time></trkpt><trkpt lat="-23.649025" lon="-46.493645"><ele>791.0</ele><time>2017-02-12T10:35:11Z</time></trkpt><trkpt lat="-23.649115" lon="-46.493608"><ele>790.0</ele><time>2017-02-12T10:35:41Z</time></trkpt><trkpt lat="-23.649199" lon="-46.493562"><ele>792.0</ele><time>2017-02-12T10:35:48Z</time></trkpt><trkpt lat="-23.649293" lon="-46.493545"><ele>789.0</ele><time>2017-02-12T10:35:59Z</time></trkpt><trkpt lat="-23.649351" lon="-46.493621"><ele>785.0</ele><time>2017-02-12T10:36:15Z</time></trkpt><trkpt lat="-23.649447" lon="-46.493617"><ele>791.0</ele><time>2017-02-12T10:36:27Z</time></trkpt><trkpt lat="-23.649536" lon="-46.493567"><ele>784.0</ele><time>2017-02-12T10:36:38Z</time></trkpt><trkpt lat="-23.649624" lon="-46.49354"><ele>786.0</ele><time>2017-02-12T10:36:46Z</time></trkpt><trkpt lat="-23.649716" lon="-46.493547"><ele>793.0</ele><time>2017-02-12T10:36:54Z</time></trkpt><trkpt lat="-23.649809" lon="-46.4935"><ele>798.0</ele><time>2017-02-12T10:37:01Z</time></trkpt><trkpt lat="-23.649876" lon="-46.493427"><ele>783.0</ele><time>2017-02-12T10:37:15Z</time></trkpt><trkpt lat="-23.649918" lon="-46.493338"><ele>778.0</ele><time>2017-02-12T10:37:22Z</time></trkpt><trkpt lat="-23.650014" lon="-46.493341"><ele>775.0</ele><time>2017-02-12T10:37:29Z</time></trkpt><trkpt lat="-23.6501" lon="-46.493305"><ele>784.0</ele><time>2017-02-12T10:37:36Z</time></trkpt><trkpt lat="-23.650182" lon="-46.493252"><ele>778.0</ele><time>2017-02-12T10:37:43Z</time></trkpt><trkpt lat="-23.650187" lon="-46.493152"><ele>780.0</ele><time>2017-02-12T10:37:55Z</time></trkpt><trkpt lat="-23.650162" lon="-46.493051"><ele>775.0</ele><time>2017-02-12T10:38:04Z</time></trkpt><trkpt lat="-23.650175" lon="-46.49295"><ele>775.0</ele><time>2017-02-12T10:38:16Z</time></trkpt><trkpt lat="-23.650106" lon="-46.492864"><ele>775.0</ele><time>2017-02-12T10:38:20Z</time></trkpt><trkpt lat="-23.650039" lon="-46.492794"><ele>773.0</ele><time>2017-02-12T10:38:28Z</time></trkpt><trkpt lat="-23.650139" lon="-46.49278"><ele>764.0</ele><time>2017-02-12T10:38:38Z</time></trkpt><trkpt lat="-23.650213" lon="-46.492697"><ele>768.0</ele><time>2017-02-12T10:38:53Z</time></trkpt><trkpt lat="-23.65025" lon="-46.492604"><ele>765.0</ele><time>2017-02-12T10:39:39Z</time></trkpt><trkpt lat="-23.650281" lon="-46.492491"><ele>761.0</ele><time>2017-02-12T10:39:43Z</time></trkpt><trkpt lat="-23.650343" lon="-46.492387"><ele>760.0</ele><time>2017-02-12T10:39:48Z</time></trkpt><trkpt lat="-23.650419" lon="-46.49231"><ele>756.0</ele><time>2017-02-12T10:39:54Z</time></trkpt><trkpt lat="-23.650482" lon="-46.492235"><ele>758.0</ele><time>2017-02-12T10:40:00Z</time></trkpt><trkpt lat="-23.650518" lon="-46.49214"><ele>759.0</ele><time>2017-02-12T10:40:05Z</time></trkpt><trkpt lat="-23.650568" lon="-46.492051"><ele>758.0</ele><time>2017-02-12T10:40:12Z</time></trkpt><trkpt lat="-23.650646" lon="-46.492123"><ele>756.0</ele><time>2017-02-12T10:41:03Z</time></trkpt><trkpt lat="-23.650729" lon="-46.492172"><ele>759.0</ele><time>2017-02-12T10:41:09Z</time></trkpt><trkpt lat="-23.650767" lon="-46.492267"><ele>759.0</ele><time>2017-02-12T10:41:17Z</time></trkpt><trkpt lat="-23.650846" lon="-46.492357"><ele>760.0</ele><time>2017-02-12T10:41:55Z</time></trkpt><trkpt lat="-23.650897" lon="-46.492439"><ele>758.0</ele><time>2017-02-12T10:42:00Z</time></trkpt><trkpt lat="-23.650971" lon="-46.492536"><ele>752.0</ele><time>2017-02-12T10:43:14Z</time></trkpt><trkpt lat="-23.650971" lon="-46.492536"><ele>752.0</ele><time>2017-02-12T10:43:14Z</time></trkpt><trkpt lat="-23.651018" lon="-46.492641"><ele>753.0</ele><time>2017-02-12T10:43:17Z</time></trkpt><trkpt lat="-23.651086" lon="-46.492737"><ele>756.0</ele><time>2017-02-12T10:43:20Z</time></trkpt><trkpt lat="-23.651156" lon="-46.492804"><ele>757.0</ele><time>2017-02-12T10:43:24Z</time></trkpt><trkpt lat="-23.65121" lon="-46.492887"><ele>759.0</ele><time>2017-02-12T10:43:32Z</time></trkpt><trkpt lat="-23.651277" lon="-46.492956"><ele>762.0</ele><time>2017-02-12T10:43:39Z</time></trkpt><trkpt lat="-23.651348" lon="-46.493018"><ele>763.0</ele><time>2017-02-12T10:43:48Z</time></trkpt><trkpt lat="-23.651425" lon="-46.493078"><ele>762.0</ele><time>2017-02-12T10:43:59Z</time></trkpt><trkpt lat="-23.651511" lon="-46.493138"><ele>759.0</ele><time>2017-02-12T10:44:10Z</time></trkpt><trkpt lat="-23.651618" lon="-46.493157"><ele>761.0</ele><time>2017-02-12T10:44:34Z</time></trkpt><trkpt lat="-23.651711" lon="-46.493124"><ele>760.0</ele><time>2017-02-12T10:44:41Z</time></trkpt><trkpt lat="-23.651785" lon="-46.493065"><ele>760.0</ele><time>2017-02-12T10:44:56Z</time></trkpt><trkpt lat="-23.651831" lon="-46.492981"><ele>756.0</ele><time>2017-02-12T10:45:05Z</time></trkpt><trkpt lat="-23.651894" lon="-46.4929"><ele>756.0</ele><time>2017-02-12T10:45:38Z</time></trkpt><trkpt lat="-23.651961" lon="-46.492822"><ele>755.0</ele><time>2017-02-12T10:45:47Z</time></trkpt><trkpt lat="-23.65205" lon="-46.49284"><ele>755.0</ele><time>2017-02-12T10:45:59Z</time></trkpt><trkpt lat="-23.652131" lon="-46.49289"><ele>758.0</ele><time>2017-02-12T10:46:09Z</time></trkpt><trkpt lat="-23.652231" lon="-46.492875"><ele>758.0</ele><time>2017-02-12T10:46:15Z</time></trkpt><trkpt lat="-23.652324" lon="-46.492868"><ele>759.0</ele><time>2017-02-12T10:46:23Z</time></trkpt><trkpt lat="-23.65239" lon="-46.492951"><ele>758.0</ele><time>2017-02-12T10:46:31Z</time></trkpt><trkpt lat="-23.652468" lon="-46.493019"><ele>758.0</ele><time>2017-02-12T10:46:39Z</time></trkpt><trkpt lat="-23.652555" lon="-46.493075"><ele>759.0</ele><time>2017-02-12T10:46:46Z</time></trkpt><trkpt lat="-23.652639" lon="-46.493112"><ele>755.0</ele><time>2017-02-12T10:46:52Z</time></trkpt><trkpt lat="-23.65272" lon="-46.493177"><ele>756.0</ele><time>2017-02-12T10:46:58Z</time></trkpt><trkpt lat="-23.652802" lon="-46.493229"><ele>757.0</ele><time>2017-02-12T10:47:06Z</time></trkpt><trkpt lat="-23.652881" lon="-46.49329"><ele>759.0</ele><time>2017-02-12T10:47:18Z</time></trkpt><trkpt lat="-23.65298" lon="-46.493305"><ele>759.0</ele><time>2017-02-12T10:47:50Z</time></trkpt><trkpt lat="-23.65307" lon="-46.49333"><ele>758.0</ele><time>2017-02-12T10:47:56Z</time></trkpt><trkpt lat="-23.65313" lon="-46.493405"><ele>758.0</ele><time>2017-02-12T10:48:02Z</time></trkpt><trkpt lat="-23.65318" lon="-46.493489"><ele>759.0</ele><time>2017-02-12T10:48:09Z</time></trkpt><trkpt lat="-23.653267" lon="-46.493535"><ele>757.0</ele><time>2017-02-12T10:48:18Z</time></trkpt><trkpt lat="-23.653353" lon="-46.493567"><ele>760.0</ele><time>2017-02-12T10:48:28Z</time></trkpt><trkpt lat="-23.653441" lon="-46.493602"><ele>762.0</ele><time>2017-02-12T10:48:36Z</time></trkpt><trkpt lat="-23.653536" lon="-46.493648"><ele>757.0</ele><time>2017-02-12T10:48:42Z</time></trkpt><trkpt lat="-23.653621" lon="-46.493694"><ele>754.0</ele><time>2017-02-12T10:48:51Z</time></trkpt><trkpt lat="-23.653676" lon="-46.493773"><ele>756.0</ele><time>2017-02-12T10:49:00Z</time></trkpt><trkpt lat="-23.653741" lon="-46.493851"><ele>757.0</ele><time>2017-02-12T10:49:10Z</time></trkpt><trkpt lat="-23.65384" lon="-46.49384"><ele>761.0</ele><time>2017-02-12T10:49:18Z</time></trkpt><trkpt lat="-23.653927" lon="-46.493889"><ele>761.0</ele><time>2017-02-12T10:49:26Z</time></trkpt><trkpt lat="-23.654019" lon="-46.493979"><ele>762.0</ele><time>2017-02-12T10:50:18Z</time></trkpt><trkpt lat="-23.654132" lon="-46.494046"><ele>762.0</ele><time>2017-02-12T10:50:22Z</time></trkpt><trkpt lat="-23.654213" lon="-46.494121"><ele>761.0</ele><time>2017-02-12T10:50:28Z</time></trkpt><trkpt lat="-23.654294" lon="-46.494172"><ele>756.0</ele><time>2017-02-12T10:50:36Z</time></trkpt><trkpt lat="-23.654398" lon="-46.494209"><ele>755.0</ele><time>2017-02-12T10:50:40Z</time></trkpt><trkpt lat="-23.654493" lon="-46.494255"><ele>752.0</ele><time>2017-02-12T10:50:52Z</time></trkpt><trkpt lat="-23.654557" lon="-46.494324"><ele>759.0</ele><time>2017-02-12T10:50:59Z</time></trkpt><trkpt lat="-23.654671" lon="-46.494383"><ele>755.0</ele><time>2017-02-12T10:51:26Z</time></trkpt><trkpt lat="-23.65475" lon="-46.494447"><ele>756.0</ele><time>2017-02-12T10:51:31Z</time></trkpt><trkpt lat="-23.654849" lon="-46.494484"><ele>760.0</ele><time>2017-02-12T10:51:37Z</time></trkpt><trkpt lat="-23.654937" lon="-46.494517"><ele>759.0</ele><time>2017-02-12T10:51:43Z</time></trkpt><trkpt lat="-23.655001" lon="-46.494597"><ele>759.0</ele><time>2017-02-12T10:51:48Z</time></trkpt><trkpt lat="-23.65508" lon="-46.49465"><ele>757.0</ele><time>2017-02-12T10:52:27Z</time></trkpt><trkpt lat="-23.655172" lon="-46.494699"><ele>757.0</ele><time>2017-02-12T10:52:32Z</time></trkpt><trkpt lat="-23.655261" lon="-46.494729"><ele>753.0</ele><time>2017-02-12T10:52:37Z</time></trkpt><trkpt lat="-23.655346" lon="-46.494774"><ele>754.0</ele><time>2017-02-12T10:52:44Z</time></trkpt><trkpt lat="-23.655442" lon="-46.494813"><ele>757.0</ele><time>2017-02-12T10:52:53Z</time></trkpt><trkpt lat="-23.655515" lon="-46.494874"><ele>759.0</ele><time>2017-02-12T10:53:00Z</time></trkpt><trkpt lat="-23.655596" lon="-46.494939"><ele>762.0</ele><time>2017-02-12T10:53:08Z</time></trkpt><trkpt lat="-23.655684" lon="-46.49499"><ele>757.0</ele><time>2017-02-12T10:53:18Z</time></trkpt><trkpt lat="-23.655765" lon="-46.495037"><ele>754.0</ele><time>2017-02-12T10:53:27Z</time></trkpt><trkpt lat="-23.655849" lon="-46.495089"><ele>753.0</ele><time>2017-02-12T10:53:36Z</time></trkpt><trkpt lat="-23.655922" lon="-46.49515"><ele>750.0</ele><time>2017-02-12T10:54:28Z</time></trkpt><trkpt lat="-23.656001" lon="-46.495201"><ele>753.0</ele><time>2017-02-12T10:54:34Z</time></trkpt><trkpt lat="-23.656078" lon="-46.495259"><ele>757.0</ele><time>2017-02-12T10:54:41Z</time></trkpt><trkpt lat="-23.656165" lon="-46.495301"><ele>753.0</ele><time>2017-02-12T10:54:54Z</time></trkpt><trkpt lat="-23.656251" lon="-46.495343"><ele>752.0</ele><time>2017-02-12T10:55:03Z</time></trkpt><trkpt lat="-23.656323" lon="-46.495415"><ele>754.0</ele><time>2017-02-12T10:55:10Z</time></trkpt><trkpt lat="-23.6564" lon="-46.495489"><ele>757.0</ele><time>2017-02-12T10:55:17Z</time></trkpt><trkpt lat="-23.656383" lon="-46.495589"><ele>759.0</ele><time>2017-02-12T10:55:32Z</time></trkpt></trkseg></trk><wpt lat="-23.66741321" lon="-46.50527483"><ele>763.0</ele><name><![CDATA[perdemos tudo no carro da rosi]]></name><cmt><![CDATA[perdemos tudo no carro da rosi]]></cmt></wpt><wpt lat="-23.67757245" lon="-46.51285946"><ele>773.0</ele><name><![CDATA[parada 2 - Gustavo Hofer]]></name><cmt><![CDATA[parada 2 - Gustavo Hofer]]></cmt></wpt><trk><name><![CDATA[São Mateus - Santo André]]></name><trkseg><trkpt lat="-23.657215" lon="-46.497075"><ele>755.0</ele><time>2017-02-12T11:01:41Z</time></trkpt><trkpt lat="-23.657243" lon="-46.497184"><ele>756.0</ele><time>2017-02-12T11:01:50Z</time></trkpt><trkpt lat="-23.657274" lon="-46.497286"><ele>755.0</ele><time>2017-02-12T11:01:59Z</time></trkpt><trkpt lat="-23.657298" lon="-46.49739"><ele>755.0</ele><time>2017-02-12T11:02:08Z</time></trkpt><trkpt lat="-23.657308" lon="-46.497488"><ele>755.0</ele><time>2017-02-12T11:02:17Z</time></trkpt><trkpt lat="-23.657332" lon="-46.497594"><ele>754.0</ele><time>2017-02-12T11:02:26Z</time></trkpt><trkpt lat="-23.657361" lon="-46.497689"><ele>754.0</ele><time>2017-02-12T11:02:34Z</time></trkpt><trkpt lat="-23.657417" lon="-46.497772"><ele>755.0</ele><time>2017-02-12T11:02:51Z</time></trkpt><trkpt lat="-23.657472" lon="-46.497868"><ele>755.0</ele><time>2017-02-12T11:03:02Z</time></trkpt><trkpt lat="-23.65753" lon="-46.497944"><ele>757.0</ele><time>2017-02-12T11:03:10Z</time></trkpt><trkpt lat="-23.657602" lon="-46.498011"><ele>755.0</ele><time>2017-02-12T11:03:25Z</time></trkpt><trkpt lat="-23.657679" lon="-46.498064"><ele>755.0</ele><time>2017-02-12T11:03:35Z</time></trkpt><trkpt lat="-23.657759" lon="-46.498125"><ele>758.0</ele><time>2017-02-12T11:03:44Z</time></trkpt><trkpt lat="-23.657829" lon="-46.498189"><ele>756.0</ele><time>2017-02-12T11:03:53Z</time></trkpt><trkpt lat="-23.657906" lon="-46.498252"><ele>760.0</ele><time>2017-02-12T11:04:02Z</time></trkpt><trkpt lat="-23.657995" lon="-46.498301"><ele>758.0</ele><time>2017-02-12T11:04:11Z</time></trkpt><trkpt lat="-23.658084" lon="-46.498331"><ele>756.0</ele><time>2017-02-12T11:04:19Z</time></trkpt><trkpt lat="-23.658179" lon="-46.498367"><ele>758.0</ele><time>2017-02-12T11:04:29Z</time></trkpt><trkpt lat="-23.658275" lon="-46.498386"><ele>757.0</ele><time>2017-02-12T11:04:39Z</time></trkpt><trkpt lat="-23.658376" lon="-46.498378"><ele>755.0</ele><time>2017-02-12T11:04:48Z</time></trkpt><trkpt lat="-23.658469" lon="-46.498383"><ele>755.0</ele><time>2017-02-12T11:04:56Z</time></trkpt><trkpt lat="-23.658562" lon="-46.498388"><ele>753.0</ele><time>2017-02-12T11:05:04Z</time></trkpt><trkpt lat="-23.658662" lon="-46.498386"><ele>753.0</ele><time>2017-02-12T11:05:13Z</time></trkpt><trkpt lat="-23.658762" lon="-46.498374"><ele>753.0</ele><time>2017-02-12T11:05:20Z</time></trkpt><trkpt lat="-23.658863" lon="-46.49838"><ele>756.0</ele><time>2017-02-12T11:05:28Z</time></trkpt><trkpt lat="-23.658951" lon="-46.498359"><ele>754.0</ele><time>2017-02-12T11:05:41Z</time></trkpt><trkpt lat="-23.659026" lon="-46.498302"><ele>752.0</ele><time>2017-02-12T11:06:04Z</time></trkpt><trkpt lat="-23.659096" lon="-46.498239"><ele>753.0</ele><time>2017-02-12T11:06:48Z</time></trkpt><trkpt lat="-23.659174" lon="-46.498184"><ele>752.0</ele><time>2017-02-12T11:06:58Z</time></trkpt><trkpt lat="-23.659265" lon="-46.498129"><ele>755.0</ele><time>2017-02-12T11:07:05Z</time></trkpt><trkpt lat="-23.659352" lon="-46.498068"><ele>757.0</ele><time>2017-02-12T11:07:12Z</time></trkpt><trkpt lat="-23.659432" lon="-46.498022"><ele>759.0</ele><time>2017-02-12T11:07:20Z</time></trkpt><trkpt lat="-23.659501" lon="-46.497944"><ele>759.0</ele><time>2017-02-12T11:07:29Z</time></trkpt><trkpt lat="-23.659586" lon="-46.497892"><ele>762.0</ele><time>2017-02-12T11:07:38Z</time></trkpt><trkpt lat="-23.659678" lon="-46.497848"><ele>761.0</ele><time>2017-02-12T11:07:59Z</time></trkpt><trkpt lat="-23.659768" lon="-46.497781"><ele>763.0</ele><time>2017-02-12T11:08:05Z</time></trkpt><trkpt lat="-23.65985" lon="-46.497727"><ele>761.0</ele><time>2017-02-12T11:08:12Z</time></trkpt><trkpt lat="-23.659916" lon="-46.497657"><ele>760.0</ele><time>2017-02-12T11:08:50Z</time></trkpt><trkpt lat="-23.660004" lon="-46.497612"><ele>756.0</ele><time>2017-02-12T11:08:59Z</time></trkpt><trkpt lat="-23.660092" lon="-46.497582"><ele>757.0</ele><time>2017-02-12T11:09:06Z</time></trkpt><trkpt lat="-23.660174" lon="-46.497536"><ele>758.0</ele><time>2017-02-12T11:09:15Z</time></trkpt><trkpt lat="-23.660258" lon="-46.497479"><ele>756.0</ele><time>2017-02-12T11:09:24Z</time></trkpt><trkpt lat="-23.660348" lon="-46.497428"><ele>761.0</ele><time>2017-02-12T11:10:13Z</time></trkpt><trkpt lat="-23.660438" lon="-46.497388"><ele>762.0</ele><time>2017-02-12T11:10:29Z</time></trkpt><trkpt lat="-23.660528" lon="-46.497353"><ele>762.0</ele><time>2017-02-12T11:10:37Z</time></trkpt><trkpt lat="-23.660626" lon="-46.497335"><ele>761.0</ele><time>2017-02-12T11:10:45Z</time></trkpt><trkpt lat="-23.660721" lon="-46.497315"><ele>765.0</ele><time>2017-02-12T11:10:53Z</time></trkpt><trkpt lat="-23.660818" lon="-46.497295"><ele>767.0</ele><time>2017-02-12T11:11:03Z</time></trkpt><trkpt lat="-23.660909" lon="-46.497272"><ele>767.0</ele><time>2017-02-12T11:11:12Z</time></trkpt><trkpt lat="-23.661003" lon="-46.497274"><ele>768.0</ele><time>2017-02-12T11:11:20Z</time></trkpt><trkpt lat="-23.661095" lon="-46.497253"><ele>766.0</ele><time>2017-02-12T11:11:29Z</time></trkpt><trkpt lat="-23.661186" lon="-46.497247"><ele>768.0</ele><time>2017-02-12T11:11:37Z</time></trkpt><trkpt lat="-23.661276" lon="-46.497236"><ele>765.0</ele><time>2017-02-12T11:11:47Z</time></trkpt><trkpt lat="-23.661373" lon="-46.497243"><ele>767.0</ele><time>2017-02-12T11:11:57Z</time></trkpt><trkpt lat="-23.661466" lon="-46.49723"><ele>766.0</ele><time>2017-02-12T11:12:06Z</time></trkpt><trkpt lat="-23.661557" lon="-46.497262"><ele>766.0</ele><time>2017-02-12T11:13:26Z</time></trkpt><trkpt lat="-23.661659" lon="-46.497276"><ele>765.0</ele><time>2017-02-12T11:13:32Z</time></trkpt><trkpt lat="-23.661751" lon="-46.497296"><ele>762.0</ele><time>2017-02-12T11:13:38Z</time></trkpt><trkpt lat="-23.661841" lon="-46.497305"><ele>762.0</ele><time>2017-02-12T11:13:44Z</time></trkpt><trkpt lat="-23.661941" lon="-46.497319"><ele>763.0</ele><time>2017-02-12T11:13:52Z</time></trkpt><trkpt lat="-23.662035" lon="-46.497323"><ele>762.0</ele><time>2017-02-12T11:13:59Z</time></trkpt><trkpt lat="-23.66213" lon="-46.497326"><ele>758.0</ele><time>2017-02-12T11:14:07Z</time></trkpt><trkpt lat="-23.662215" lon="-46.497285"><ele>758.0</ele><time>2017-02-12T11:15:13Z</time></trkpt><trkpt lat="-23.662311" lon="-46.497311"><ele>759.0</ele><time>2017-02-12T11:15:20Z</time></trkpt><trkpt lat="-23.662407" lon="-46.497342"><ele>760.0</ele><time>2017-02-12T11:15:30Z</time></trkpt><trkpt lat="-23.662504" lon="-46.497354"><ele>759.0</ele><time>2017-02-12T11:15:40Z</time></trkpt><trkpt lat="-23.662601" lon="-46.497363"><ele>760.0</ele><time>2017-02-12T11:15:47Z</time></trkpt><trkpt lat="-23.662691" lon="-46.497348"><ele>758.0</ele><time>2017-02-12T11:16:02Z</time></trkpt><trkpt lat="-23.662781" lon="-46.497329"><ele>753.0</ele><time>2017-02-12T11:16:18Z</time></trkpt><trkpt lat="-23.662871" lon="-46.497303"><ele>752.0</ele><time>2017-02-12T11:16:45Z</time></trkpt><trkpt lat="-23.662961" lon="-46.497315"><ele>756.0</ele><time>2017-02-12T11:17:13Z</time></trkpt><trkpt lat="-23.663058" lon="-46.497303"><ele>759.0</ele><time>2017-02-12T11:17:22Z</time></trkpt><trkpt lat="-23.663149" lon="-46.497316"><ele>759.0</ele><time>2017-02-12T11:17:26Z</time></trkpt><trkpt lat="-23.66323" lon="-46.497363"><ele>757.0</ele><time>2017-02-12T11:17:32Z</time></trkpt><trkpt lat="-23.663319" lon="-46.497391"><ele>758.0</ele><time>2017-02-12T11:17:43Z</time></trkpt><trkpt lat="-23.663413" lon="-46.497371"><ele>762.0</ele><time>2017-02-12T11:17:51Z</time></trkpt><trkpt lat="-23.663519" lon="-46.497379"><ele>760.0</ele><time>2017-02-12T11:19:30Z</time></trkpt><trkpt lat="-23.663608" lon="-46.497416"><ele>771.0</ele><time>2017-02-12T11:19:36Z</time></trkpt><trkpt lat="-23.663708" lon="-46.497411"><ele>768.0</ele><time>2017-02-12T11:19:42Z</time></trkpt><trkpt lat="-23.663806" lon="-46.497411"><ele>764.0</ele><time>2017-02-12T11:19:48Z</time></trkpt><trkpt lat="-23.663901" lon="-46.497422"><ele>762.0</ele><time>2017-02-12T11:19:57Z</time></trkpt><trkpt lat="-23.664" lon="-46.49744"><ele>759.0</ele><time>2017-02-12T11:20:04Z</time></trkpt><trkpt lat="-23.664095" lon="-46.497441"><ele>760.0</ele><time>2017-02-12T11:20:12Z</time></trkpt><trkpt lat="-23.664188" lon="-46.497457"><ele>756.0</ele><time>2017-02-12T11:20:19Z</time></trkpt><trkpt lat="-23.664279" lon="-46.497481"><ele>754.0</ele><time>2017-02-12T11:20:27Z</time></trkpt><trkpt lat="-23.664366" lon="-46.497454"><ele>754.0</ele><time>2017-02-12T11:20:35Z</time></trkpt><trkpt lat="-23.664468" lon="-46.497466"><ele>753.0</ele><time>2017-02-12T11:20:45Z</time></trkpt><trkpt lat="-23.664561" lon="-46.49748"><ele>756.0</ele><time>2017-02-12T11:20:53Z</time></trkpt><trkpt lat="-23.664655" lon="-46.497498"><ele>757.0</ele><time>2017-02-12T11:21:03Z</time></trkpt><trkpt lat="-23.66475" lon="-46.49753"><ele>757.0</ele><time>2017-02-12T11:21:18Z</time></trkpt><trkpt lat="-23.664845" lon="-46.49756"><ele>755.0</ele><time>2017-02-12T11:21:38Z</time></trkpt><trkpt lat="-23.664942" lon="-46.49754"><ele>757.0</ele><time>2017-02-12T11:21:45Z</time></trkpt><trkpt lat="-23.665035" lon="-46.497507"><ele>758.0</ele><time>2017-02-12T11:21:52Z</time></trkpt><trkpt lat="-23.665119" lon="-46.497467"><ele>756.0</ele><time>2017-02-12T11:22:00Z</time></trkpt><trkpt lat="-23.665217" lon="-46.497521"><ele>755.0</ele><time>2017-02-12T11:22:36Z</time></trkpt><trkpt lat="-23.66528" lon="-46.497608"><ele>758.0</ele><time>2017-02-12T11:22:43Z</time></trkpt><trkpt lat="-23.665286" lon="-46.497729"><ele>757.0</ele><time>2017-02-12T11:22:52Z</time></trkpt><trkpt lat="-23.665285" lon="-46.497828"><ele>757.0</ele><time>2017-02-12T11:23:00Z</time></trkpt><trkpt lat="-23.665296" lon="-46.497936"><ele>758.0</ele><time>2017-02-12T11:23:09Z</time></trkpt><trkpt lat="-23.665322" lon="-46.498033"><ele>760.0</ele><time>2017-02-12T11:23:17Z</time></trkpt><trkpt lat="-23.665343" lon="-46.498133"><ele>760.0</ele><time>2017-02-12T11:23:25Z</time></trkpt><trkpt lat="-23.665373" lon="-46.498228"><ele>761.0</ele><time>2017-02-12T11:23:32Z</time></trkpt><trkpt lat="-23.665371" lon="-46.498335"><ele>761.0</ele><time>2017-02-12T11:23:41Z</time></trkpt><trkpt lat="-23.665359" lon="-46.498437"><ele>759.0</ele><time>2017-02-12T11:23:50Z</time></trkpt><trkpt lat="-23.665328" lon="-46.498532"><ele>762.0</ele><time>2017-02-12T11:23:58Z</time></trkpt><trkpt lat="-23.665314" lon="-46.498632"><ele>762.0</ele><time>2017-02-12T11:24:06Z</time></trkpt><trkpt lat="-23.665283" lon="-46.498736"><ele>764.0</ele><time>2017-02-12T11:24:16Z</time></trkpt><trkpt lat="-23.665261" lon="-46.498841"><ele>768.0</ele><time>2017-02-12T11:24:24Z</time></trkpt><trkpt lat="-23.665231" lon="-46.498934"><ele>769.0</ele><time>2017-02-12T11:24:31Z</time></trkpt><trkpt lat="-23.665155" lon="-46.498988"><ele>765.0</ele><time>2017-02-12T11:24:41Z</time></trkpt><trkpt lat="-23.665098" lon="-46.49907"><ele>769.0</ele><time>2017-02-12T11:24:49Z</time></trkpt><trkpt lat="-23.665041" lon="-46.499152"><ele>766.0</ele><time>2017-02-12T11:24:59Z</time></trkpt><trkpt lat="-23.665015" lon="-46.499246"><ele>766.0</ele><time>2017-02-12T11:25:08Z</time></trkpt><trkpt lat="-23.664968" lon="-46.499338"><ele>767.0</ele><time>2017-02-12T11:25:16Z</time></trkpt><trkpt lat="-23.664889" lon="-46.499401"><ele>761.0</ele><time>2017-02-12T11:25:25Z</time></trkpt><trkpt lat="-23.66482" lon="-46.499473"><ele>760.0</ele><time>2017-02-12T11:25:34Z</time></trkpt><trkpt lat="-23.664761" lon="-46.499557"><ele>757.0</ele><time>2017-02-12T11:25:43Z</time></trkpt><trkpt lat="-23.664706" lon="-46.499639"><ele>758.0</ele><time>2017-02-12T11:25:52Z</time></trkpt><trkpt lat="-23.664655" lon="-46.499725"><ele>760.0</ele><time>2017-02-12T11:26:01Z</time></trkpt><trkpt lat="-23.664601" lon="-46.499807"><ele>759.0</ele><time>2017-02-12T11:26:11Z</time></trkpt><trkpt lat="-23.664545" lon="-46.499892"><ele>759.0</ele><time>2017-02-12T11:26:26Z</time></trkpt><trkpt lat="-23.664499" lon="-46.499979"><ele>760.0</ele><time>2017-02-12T11:26:35Z</time></trkpt><trkpt lat="-23.664445" lon="-46.50006"><ele>761.0</ele><time>2017-02-12T11:26:44Z</time></trkpt><trkpt lat="-23.664393" lon="-46.500146"><ele>760.0</ele><time>2017-02-12T11:26:52Z</time></trkpt><trkpt lat="-23.664346" lon="-46.500233"><ele>759.0</ele><time>2017-02-12T11:27:00Z</time></trkpt><trkpt lat="-23.664293" lon="-46.500323"><ele>759.0</ele><time>2017-02-12T11:27:09Z</time></trkpt><trkpt lat="-23.664235" lon="-46.500412"><ele>759.0</ele><time>2017-02-12T11:27:19Z</time></trkpt><trkpt lat="-23.664184" lon="-46.5005"><ele>758.0</ele><time>2017-02-12T11:27:28Z</time></trkpt><trkpt lat="-23.664134" lon="-46.500585"><ele>757.0</ele><time>2017-02-12T11:27:38Z</time></trkpt><trkpt lat="-23.664075" lon="-46.500663"><ele>758.0</ele><time>2017-02-12T11:27:47Z</time></trkpt><trkpt lat="-23.664015" lon="-46.50075"><ele>758.0</ele><time>2017-02-12T11:27:56Z</time></trkpt><trkpt lat="-23.663969" lon="-46.500839"><ele>758.0</ele><time>2017-02-12T11:28:05Z</time></trkpt><trkpt lat="-23.663907" lon="-46.500927"><ele>759.0</ele><time>2017-02-12T11:28:14Z</time></trkpt><trkpt lat="-23.663857" lon="-46.501013"><ele>759.0</ele><time>2017-02-12T11:28:21Z</time></trkpt><trkpt lat="-23.663808" lon="-46.501105"><ele>758.0</ele><time>2017-02-12T11:28:30Z</time></trkpt><trkpt lat="-23.663765" lon="-46.501197"><ele>759.0</ele><time>2017-02-12T11:28:39Z</time></trkpt><trkpt lat="-23.663726" lon="-46.501286"><ele>758.0</ele><time>2017-02-12T11:28:48Z</time></trkpt><trkpt lat="-23.663676" lon="-46.501375"><ele>758.0</ele><time>2017-02-12T11:28:59Z</time></trkpt><trkpt lat="-23.663643" lon="-46.501474"><ele>757.0</ele><time>2017-02-12T11:29:08Z</time></trkpt><trkpt lat="-23.6636" lon="-46.501569"><ele>757.0</ele><time>2017-02-12T11:29:17Z</time></trkpt><trkpt lat="-23.663564" lon="-46.501669"><ele>758.0</ele><time>2017-02-12T11:29:26Z</time></trkpt><trkpt lat="-23.663526" lon="-46.501765"><ele>758.0</ele><time>2017-02-12T11:29:35Z</time></trkpt><trkpt lat="-23.663491" lon="-46.501862"><ele>759.0</ele><time>2017-02-12T11:29:45Z</time></trkpt><trkpt lat="-23.663461" lon="-46.501973"><ele>760.0</ele><time>2017-02-12T11:29:54Z</time></trkpt><trkpt lat="-23.663446" lon="-46.502079"><ele>761.0</ele><time>2017-02-12T11:30:03Z</time></trkpt><trkpt lat="-23.663413" lon="-46.502182"><ele>762.0</ele><time>2017-02-12T11:30:10Z</time></trkpt><trkpt lat="-23.663403" lon="-46.502283"><ele>761.0</ele><time>2017-02-12T11:30:19Z</time></trkpt><trkpt lat="-23.663384" lon="-46.502379"><ele>754.0</ele><time>2017-02-12T11:30:28Z</time></trkpt><trkpt lat="-23.66338" lon="-46.502488"><ele>758.0</ele><time>2017-02-12T11:30:38Z</time></trkpt><trkpt lat="-23.663364" lon="-46.502587"><ele>758.0</ele><time>2017-02-12T11:30:48Z</time></trkpt><trkpt lat="-23.663385" lon="-46.502687"><ele>761.0</ele><time>2017-02-12T11:30:56Z</time></trkpt><trkpt lat="-23.663381" lon="-46.502795"><ele>761.0</ele><time>2017-02-12T11:31:06Z</time></trkpt><trkpt lat="-23.663366" lon="-46.502892"><ele>762.0</ele><time>2017-02-12T11:31:14Z</time></trkpt><trkpt lat="-23.663326" lon="-46.503015"><ele>764.0</ele><time>2017-02-12T11:31:25Z</time></trkpt><trkpt lat="-23.663315" lon="-46.503117"><ele>759.0</ele><time>2017-02-12T11:31:35Z</time></trkpt><trkpt lat="-23.663382" lon="-46.503184"><ele>758.0</ele><time>2017-02-12T11:32:46Z</time></trkpt><trkpt lat="-23.66348" lon="-46.503186"><ele>755.0</ele><time>2017-02-12T11:33:01Z</time></trkpt><trkpt lat="-23.663545" lon="-46.503259"><ele>754.0</ele><time>2017-02-12T11:33:08Z</time></trkpt><trkpt lat="-23.663587" lon="-46.503356"><ele>754.0</ele><time>2017-02-12T11:33:17Z</time></trkpt><trkpt lat="-23.66368" lon="-46.503419"><ele>754.0</ele><time>2017-02-12T11:33:26Z</time></trkpt><trkpt lat="-23.663757" lon="-46.503479"><ele>756.0</ele><time>2017-02-12T11:33:36Z</time></trkpt><trkpt lat="-23.663793" lon="-46.503589"><ele>755.0</ele><time>2017-02-12T11:33:46Z</time></trkpt><trkpt lat="-23.663808" lon="-46.503695"><ele>754.0</ele><time>2017-02-12T11:33:56Z</time></trkpt><trkpt lat="-23.663901" lon="-46.503718"><ele>756.0</ele><time>2017-02-12T11:34:05Z</time></trkpt><trkpt lat="-23.663959" lon="-46.503801"><ele>749.0</ele><time>2017-02-12T11:34:37Z</time></trkpt><trkpt lat="-23.664052" lon="-46.503827"><ele>753.0</ele><time>2017-02-12T11:34:42Z</time></trkpt><trkpt lat="-23.664134" lon="-46.503887"><ele>760.0</ele><time>2017-02-12T11:34:48Z</time></trkpt><trkpt lat="-23.664225" lon="-46.503931"><ele>762.0</ele><time>2017-02-12T11:34:56Z</time></trkpt><trkpt lat="-23.664276" lon="-46.504018"><ele>767.0</ele><time>2017-02-12T11:35:04Z</time></trkpt><trkpt lat="-23.664347" lon="-46.504092"><ele>763.0</ele><time>2017-02-12T11:35:12Z</time></trkpt><trkpt lat="-23.664441" lon="-46.504109"><ele>762.0</ele><time>2017-02-12T11:35:22Z</time></trkpt><trkpt lat="-23.664513" lon="-46.504178"><ele>767.0</ele><time>2017-02-12T11:35:31Z</time></trkpt><trkpt lat="-23.664564" lon="-46.504261"><ele>768.0</ele><time>2017-02-12T11:35:42Z</time></trkpt><trkpt lat="-23.66465" lon="-46.50431"><ele>767.0</ele><time>2017-02-12T11:35:59Z</time></trkpt><trkpt lat="-23.664736" lon="-46.504367"><ele>766.0</ele><time>2017-02-12T11:36:09Z</time></trkpt><trkpt lat="-23.664806" lon="-46.504431"><ele>766.0</ele><time>2017-02-12T11:36:17Z</time></trkpt><trkpt lat="-23.664896" lon="-46.504458"><ele>763.0</ele><time>2017-02-12T11:36:25Z</time></trkpt><trkpt lat="-23.664982" lon="-46.504491"><ele>762.0</ele><time>2017-02-12T11:36:33Z</time></trkpt><trkpt lat="-23.665066" lon="-46.504546"><ele>762.0</ele><time>2017-02-12T11:36:43Z</time></trkpt><trkpt lat="-23.665132" lon="-46.504614"><ele>768.0</ele><time>2017-02-12T11:36:55Z</time></trkpt><trkpt lat="-23.665202" lon="-46.504677"><ele>767.0</ele><time>2017-02-12T11:37:14Z</time></trkpt><trkpt lat="-23.665263" lon="-46.504755"><ele>770.0</ele><time>2017-02-12T11:37:22Z</time></trkpt><trkpt lat="-23.66535" lon="-46.504785"><ele>768.0</ele><time>2017-02-12T11:37:32Z</time></trkpt><trkpt lat="-23.665443" lon="-46.504828"><ele>770.0</ele><time>2017-02-12T11:37:52Z</time></trkpt><trkpt lat="-23.665522" lon="-46.50489"><ele>765.0</ele><time>2017-02-12T11:38:01Z</time></trkpt><trkpt lat="-23.665596" lon="-46.504958"><ele>766.0</ele><time>2017-02-12T11:38:12Z</time></trkpt><trkpt lat="-23.665639" lon="-46.505052"><ele>767.0</ele><time>2017-02-12T11:38:20Z</time></trkpt><trkpt lat="-23.665729" lon="-46.505066"><ele>769.0</ele><time>2017-02-12T11:38:26Z</time></trkpt><trkpt lat="-23.665825" lon="-46.505104"><ele>769.0</ele><time>2017-02-12T11:38:37Z</time></trkpt><trkpt lat="-23.665867" lon="-46.505193"><ele>773.0</ele><time>2017-02-12T11:38:46Z</time></trkpt><trkpt lat="-23.665953" lon="-46.505247"><ele>769.0</ele><time>2017-02-12T11:38:55Z</time></trkpt><trkpt lat="-23.666031" lon="-46.50531"><ele>769.0</ele><time>2017-02-12T11:39:05Z</time></trkpt><trkpt lat="-23.666124" lon="-46.505349"><ele>759.0</ele><time>2017-02-12T11:39:14Z</time></trkpt><trkpt lat="-23.666203" lon="-46.505408"><ele>760.0</ele><time>2017-02-12T11:39:23Z</time></trkpt><trkpt lat="-23.666282" lon="-46.505461"><ele>761.0</ele><time>2017-02-12T11:39:35Z</time></trkpt><trkpt lat="-23.666366" lon="-46.505501"><ele>764.0</ele><time>2017-02-12T11:39:44Z</time></trkpt><trkpt lat="-23.666447" lon="-46.505558"><ele>765.0</ele><time>2017-02-12T11:39:52Z</time></trkpt><trkpt lat="-23.666516" lon="-46.505623"><ele>764.0</ele><time>2017-02-12T11:40:00Z</time></trkpt><trkpt lat="-23.666583" lon="-46.505694"><ele>765.0</ele><time>2017-02-12T11:40:18Z</time></trkpt><trkpt lat="-23.666673" lon="-46.505747"><ele>760.0</ele><time>2017-02-12T11:40:26Z</time></trkpt><trkpt lat="-23.666613" lon="-46.505823"><ele>760.0</ele><time>2017-02-12T11:40:32Z</time></trkpt><trkpt lat="-23.666702" lon="-46.505765"><ele>761.0</ele><time>2017-02-12T11:40:39Z</time></trkpt><trkpt lat="-23.666769" lon="-46.505698"><ele>767.0</ele><time>2017-02-12T11:40:46Z</time></trkpt><trkpt lat="-23.666855" lon="-46.50562"><ele>769.0</ele><time>2017-02-12T11:40:54Z</time></trkpt><trkpt lat="-23.666941" lon="-46.505579"><ele>770.0</ele><time>2017-02-12T11:41:03Z</time></trkpt><trkpt lat="-23.667036" lon="-46.505566"><ele>762.0</ele><time>2017-02-12T11:41:12Z</time></trkpt><trkpt lat="-23.667128" lon="-46.505576"><ele>764.0</ele><time>2017-02-12T11:41:24Z</time></trkpt><trkpt lat="-23.667166" lon="-46.50548"><ele>762.0</ele><time>2017-02-12T11:41:31Z</time></trkpt><trkpt lat="-23.667226" lon="-46.505392"><ele>763.0</ele><time>2017-02-12T11:41:40Z</time></trkpt><trkpt lat="-23.66728" lon="-46.505314"><ele>764.0</ele><time>2017-02-12T11:41:48Z</time></trkpt><trkpt lat="-23.667371" lon="-46.505303"><ele>762.0</ele><time>2017-02-12T11:42:57Z</time></trkpt><trkpt lat="-23.667442" lon="-46.50524"><ele>768.0</ele><time>2017-02-12T11:59:27Z</time></trkpt><trkpt lat="-23.667397" lon="-46.505333"><ele>769.0</ele><time>2017-02-12T12:00:47Z</time></trkpt><trkpt lat="-23.667322" lon="-46.505394"><ele>769.0</ele><time>2017-02-12T12:00:52Z</time></trkpt><trkpt lat="-23.667241" lon="-46.505445"><ele>768.0</ele><time>2017-02-12T12:00:57Z</time></trkpt><trkpt lat="-23.66715" lon="-46.505538"><ele>765.0</ele><time>2017-02-12T12:01:03Z</time></trkpt><trkpt lat="-23.667045" lon="-46.505534"><ele>766.0</ele><time>2017-02-12T12:01:11Z</time></trkpt><trkpt lat="-23.666999" lon="-46.50562"><ele>764.0</ele><time>2017-02-12T12:01:25Z</time></trkpt><trkpt lat="-23.666911" lon="-46.50565"><ele>769.0</ele><time>2017-02-12T12:01:36Z</time></trkpt><trkpt lat="-23.66685" lon="-46.505737"><ele>764.0</ele><time>2017-02-12T12:01:47Z</time></trkpt><trkpt lat="-23.666773" lon="-46.50579"><ele>763.0</ele><time>2017-02-12T12:01:58Z</time></trkpt><trkpt lat="-23.666697" lon="-46.505846"><ele>763.0</ele><time>2017-02-12T12:02:08Z</time></trkpt><trkpt lat="-23.666643" lon="-46.505931"><ele>759.0</ele><time>2017-02-12T12:02:20Z</time></trkpt><trkpt lat="-23.666682" lon="-46.50603"><ele>759.0</ele><time>2017-02-12T12:02:28Z</time></trkpt><trkpt lat="-23.666738" lon="-46.506116"><ele>759.0</ele><time>2017-02-12T12:02:44Z</time></trkpt><trkpt lat="-23.666801" lon="-46.50619"><ele>764.0</ele><time>2017-02-12T12:02:53Z</time></trkpt><trkpt lat="-23.666882" lon="-46.506259"><ele>765.0</ele><time>2017-02-12T12:03:01Z</time></trkpt><trkpt lat="-23.666965" lon="-46.506309"><ele>764.0</ele><time>2017-02-12T12:03:13Z</time></trkpt><trkpt lat="-23.667045" lon="-46.506364"><ele>762.0</ele><time>2017-02-12T12:03:25Z</time></trkpt><trkpt lat="-23.667099" lon="-46.506444"><ele>765.0</ele><time>2017-02-12T12:03:36Z</time></trkpt><trkpt lat="-23.667162" lon="-46.506515"><ele>763.0</ele><time>2017-02-12T12:03:45Z</time></trkpt><trkpt lat="-23.667242" lon="-46.506585"><ele>762.0</ele><time>2017-02-12T12:03:58Z</time></trkpt><trkpt lat="-23.667323" lon="-46.506655"><ele>763.0</ele><time>2017-02-12T12:04:08Z</time></trkpt><trkpt lat="-23.667409" lon="-46.506687"><ele>762.0</ele><time>2017-02-12T12:04:14Z</time></trkpt><trkpt lat="-23.667476" lon="-46.506758"><ele>762.0</ele><time>2017-02-12T12:04:25Z</time></trkpt><trkpt lat="-23.667557" lon="-46.506804"><ele>759.0</ele><time>2017-02-12T12:04:33Z</time></trkpt><trkpt lat="-23.667604" lon="-46.506894"><ele>754.0</ele><time>2017-02-12T12:04:46Z</time></trkpt><trkpt lat="-23.667691" lon="-46.506945"><ele>757.0</ele><time>2017-02-12T12:04:56Z</time></trkpt><trkpt lat="-23.667776" lon="-46.506981"><ele>756.0</ele><time>2017-02-12T12:05:06Z</time></trkpt><trkpt lat="-23.667796" lon="-46.507083"><ele>756.0</ele><time>2017-02-12T12:05:16Z</time></trkpt><trkpt lat="-23.667745" lon="-46.507172"><ele>761.0</ele><time>2017-02-12T12:05:37Z</time></trkpt><trkpt lat="-23.667707" lon="-46.507268"><ele>762.0</ele><time>2017-02-12T12:05:44Z</time></trkpt><trkpt lat="-23.667724" lon="-46.507371"><ele>763.0</ele><time>2017-02-12T12:05:53Z</time></trkpt><trkpt lat="-23.667733" lon="-46.507478"><ele>766.0</ele><time>2017-02-12T12:06:01Z</time></trkpt><trkpt lat="-23.66777" lon="-46.507569"><ele>766.0</ele><time>2017-02-12T12:06:08Z</time></trkpt><trkpt lat="-23.66782" lon="-46.507653"><ele>770.0</ele><time>2017-02-12T12:06:16Z</time></trkpt><trkpt lat="-23.667808" lon="-46.50776"><ele>772.0</ele><time>2017-02-12T12:06:25Z</time></trkpt><trkpt lat="-23.667868" lon="-46.507839"><ele>772.0</ele><time>2017-02-12T12:06:39Z</time></trkpt><trkpt lat="-23.667896" lon="-46.507942"><ele>772.0</ele><time>2017-02-12T12:07:02Z</time></trkpt><trkpt lat="-23.667938" lon="-46.508053"><ele>772.0</ele><time>2017-02-12T12:07:08Z</time></trkpt><trkpt lat="-23.667972" lon="-46.508147"><ele>772.0</ele><time>2017-02-12T12:07:13Z</time></trkpt><trkpt lat="-23.668023" lon="-46.508248"><ele>774.0</ele><time>2017-02-12T12:07:23Z</time></trkpt><trkpt lat="-23.668073" lon="-46.508338"><ele>773.0</ele><time>2017-02-12T12:07:29Z</time></trkpt><trkpt lat="-23.668126" lon="-46.508423"><ele>767.0</ele><time>2017-02-12T12:07:37Z</time></trkpt><trkpt lat="-23.668157" lon="-46.508527"><ele>769.0</ele><time>2017-02-12T12:07:46Z</time></trkpt><trkpt lat="-23.668163" lon="-46.508626"><ele>772.0</ele><time>2017-02-12T12:07:54Z</time></trkpt><trkpt lat="-23.668202" lon="-46.508731"><ele>770.0</ele><time>2017-02-12T12:08:04Z</time></trkpt><trkpt lat="-23.668251" lon="-46.508823"><ele>771.0</ele><time>2017-02-12T12:08:15Z</time></trkpt><trkpt lat="-23.66828" lon="-46.508918"><ele>776.0</ele><time>2017-02-12T12:08:23Z</time></trkpt><trkpt lat="-23.668313" lon="-46.509016"><ele>773.0</ele><time>2017-02-12T12:08:32Z</time></trkpt><trkpt lat="-23.668356" lon="-46.509105"><ele>771.0</ele><time>2017-02-12T12:08:40Z</time></trkpt><trkpt lat="-23.668399" lon="-46.509204"><ele>772.0</ele><time>2017-02-12T12:08:50Z</time></trkpt><trkpt lat="-23.668443" lon="-46.509292"><ele>774.0</ele><time>2017-02-12T12:09:03Z</time></trkpt><trkpt lat="-23.668524" lon="-46.50935"><ele>770.0</ele><time>2017-02-12T12:09:22Z</time></trkpt><trkpt lat="-23.668573" lon="-46.509444"><ele>771.0</ele><time>2017-02-12T12:09:33Z</time></trkpt><trkpt lat="-23.668578" lon="-46.509552"><ele>767.0</ele><time>2017-02-12T12:09:45Z</time></trkpt><trkpt lat="-23.668632" lon="-46.509642"><ele>764.0</ele><time>2017-02-12T12:09:55Z</time></trkpt><trkpt lat="-23.668636" lon="-46.509752"><ele>768.0</ele><time>2017-02-12T12:10:03Z</time></trkpt><trkpt lat="-23.668656" lon="-46.509849"><ele>767.0</ele><time>2017-02-12T12:10:12Z</time></trkpt><trkpt lat="-23.668667" lon="-46.509949"><ele>770.0</ele><time>2017-02-12T12:10:26Z</time></trkpt><trkpt lat="-23.66874" lon="-46.51001"><ele>772.0</ele><time>2017-02-12T12:10:35Z</time></trkpt><trkpt lat="-23.668808" lon="-46.510078"><ele>771.0</ele><time>2017-02-12T12:10:46Z</time></trkpt><trkpt lat="-23.668875" lon="-46.510149"><ele>771.0</ele><time>2017-02-12T12:10:56Z</time></trkpt><trkpt lat="-23.668906" lon="-46.510242"><ele>769.0</ele><time>2017-02-12T12:11:08Z</time></trkpt><trkpt lat="-23.668934" lon="-46.510345"><ele>767.0</ele><time>2017-02-12T12:12:17Z</time></trkpt><trkpt lat="-23.668971" lon="-46.510444"><ele>765.0</ele><time>2017-02-12T12:12:30Z</time></trkpt><trkpt lat="-23.66899" lon="-46.510543"><ele>765.0</ele><time>2017-02-12T12:12:38Z</time></trkpt><trkpt lat="-23.669035" lon="-46.510633"><ele>759.0</ele><time>2017-02-12T12:13:22Z</time></trkpt><trkpt lat="-23.669084" lon="-46.510733"><ele>756.0</ele><time>2017-02-12T12:13:28Z</time></trkpt><trkpt lat="-23.669109" lon="-46.510836"><ele>761.0</ele><time>2017-02-12T12:13:37Z</time></trkpt><trkpt lat="-23.669141" lon="-46.510941"><ele>755.0</ele><time>2017-02-12T12:13:46Z</time></trkpt><trkpt lat="-23.669185" lon="-46.511029"><ele>755.0</ele><time>2017-02-12T12:13:55Z</time></trkpt><trkpt lat="-23.669246" lon="-46.511126"><ele>753.0</ele><time>2017-02-12T12:14:09Z</time></trkpt><trkpt lat="-23.669254" lon="-46.511225"><ele>755.0</ele><time>2017-02-12T12:14:17Z</time></trkpt><trkpt lat="-23.669291" lon="-46.511318"><ele>757.0</ele><time>2017-02-12T12:14:25Z</time></trkpt><trkpt lat="-23.669307" lon="-46.511424"><ele>753.0</ele><time>2017-02-12T12:14:33Z</time></trkpt><trkpt lat="-23.669377" lon="-46.511499"><ele>754.0</ele><time>2017-02-12T12:14:49Z</time></trkpt><trkpt lat="-23.669439" lon="-46.511584"><ele>754.0</ele><time>2017-02-12T12:14:59Z</time></trkpt><trkpt lat="-23.669466" lon="-46.51169"><ele>756.0</ele><time>2017-02-12T12:15:08Z</time></trkpt><trkpt lat="-23.669503" lon="-46.511799"><ele>755.0</ele><time>2017-02-12T12:15:16Z</time></trkpt><trkpt lat="-23.669518" lon="-46.51191"><ele>758.0</ele><time>2017-02-12T12:15:23Z</time></trkpt><trkpt lat="-23.66956" lon="-46.512003"><ele>755.0</ele><time>2017-02-12T12:15:32Z</time></trkpt><trkpt lat="-23.669619" lon="-46.512078"><ele>754.0</ele><time>2017-02-12T12:15:56Z</time></trkpt><trkpt lat="-23.669715" lon="-46.512112"><ele>755.0</ele><time>2017-02-12T12:16:12Z</time></trkpt><trkpt lat="-23.669787" lon="-46.512178"><ele>752.0</ele><time>2017-02-12T12:16:18Z</time></trkpt><trkpt lat="-23.669892" lon="-46.512147"><ele>747.0</ele><time>2017-02-12T12:16:42Z</time></trkpt><trkpt lat="-23.669981" lon="-46.512079"><ele>746.0</ele><time>2017-02-12T12:16:45Z</time></trkpt><trkpt lat="-23.670063" lon="-46.512001"><ele>746.0</ele><time>2017-02-12T12:16:48Z</time></trkpt><trkpt lat="-23.670141" lon="-46.511943"><ele>747.0</ele><time>2017-02-12T12:16:51Z</time></trkpt><trkpt lat="-23.670235" lon="-46.511897"><ele>748.0</ele><time>2017-02-12T12:16:57Z</time></trkpt><trkpt lat="-23.670314" lon="-46.511842"><ele>744.0</ele><time>2017-02-12T12:17:04Z</time></trkpt><trkpt lat="-23.670354" lon="-46.511743"><ele>750.0</ele><time>2017-02-12T12:17:19Z</time></trkpt><trkpt lat="-23.670401" lon="-46.511658"><ele>751.0</ele><time>2017-02-12T12:17:27Z</time></trkpt><trkpt lat="-23.670472" lon="-46.511596"><ele>752.0</ele><time>2017-02-12T12:17:35Z</time></trkpt><trkpt lat="-23.670559" lon="-46.511569"><ele>754.0</ele><time>2017-02-12T12:17:46Z</time></trkpt><trkpt lat="-23.670647" lon="-46.511545"><ele>757.0</ele><time>2017-02-12T12:18:00Z</time></trkpt><trkpt lat="-23.670721" lon="-46.511487"><ele>753.0</ele><time>2017-02-12T12:18:06Z</time></trkpt><trkpt lat="-23.6708" lon="-46.511437"><ele>751.0</ele><time>2017-02-12T12:18:19Z</time></trkpt><trkpt lat="-23.670891" lon="-46.511408"><ele>751.0</ele><time>2017-02-12T12:18:40Z</time></trkpt><trkpt lat="-23.670977" lon="-46.511376"><ele>750.0</ele><time>2017-02-12T12:18:44Z</time></trkpt><trkpt lat="-23.671069" lon="-46.511336"><ele>750.0</ele><time>2017-02-12T12:18:49Z</time></trkpt><trkpt lat="-23.671157" lon="-46.511308"><ele>749.0</ele><time>2017-02-12T12:18:58Z</time></trkpt><trkpt lat="-23.671255" lon="-46.511274"><ele>751.0</ele><time>2017-02-12T12:19:08Z</time></trkpt><trkpt lat="-23.671341" lon="-46.511223"><ele>753.0</ele><time>2017-02-12T12:19:14Z</time></trkpt><trkpt lat="-23.671428" lon="-46.51118"><ele>755.0</ele><time>2017-02-12T12:19:23Z</time></trkpt><trkpt lat="-23.671513" lon="-46.511142"><ele>756.0</ele><time>2017-02-12T12:19:32Z</time></trkpt><trkpt lat="-23.671603" lon="-46.511098"><ele>754.0</ele><time>2017-02-12T12:19:50Z</time></trkpt><trkpt lat="-23.671696" lon="-46.511038"><ele>745.0</ele><time>2017-02-12T12:20:00Z</time></trkpt><trkpt lat="-23.671792" lon="-46.511002"><ele>748.0</ele><time>2017-02-12T12:20:05Z</time></trkpt><trkpt lat="-23.671886" lon="-46.510987"><ele>749.0</ele><time>2017-02-12T12:20:11Z</time></trkpt><trkpt lat="-23.67198" lon="-46.510948"><ele>752.0</ele><time>2017-02-12T12:20:18Z</time></trkpt><trkpt lat="-23.672077" lon="-46.510968"><ele>759.0</ele><time>2017-02-12T12:20:37Z</time></trkpt><trkpt lat="-23.672176" lon="-46.510971"><ele>761.0</ele><time>2017-02-12T12:20:43Z</time></trkpt><trkpt lat="-23.672261" lon="-46.511027"><ele>768.0</ele><time>2017-02-12T12:20:52Z</time></trkpt><trkpt lat="-23.672348" lon="-46.511087"><ele>768.0</ele><time>2017-02-12T12:21:00Z</time></trkpt><trkpt lat="-23.672412" lon="-46.511174"><ele>771.0</ele><time>2017-02-12T12:21:07Z</time></trkpt><trkpt lat="-23.672494" lon="-46.511216"><ele>769.0</ele><time>2017-02-12T12:21:16Z</time></trkpt><trkpt lat="-23.672588" lon="-46.511219"><ele>764.0</ele><time>2017-02-12T12:21:26Z</time></trkpt><trkpt lat="-23.672689" lon="-46.511217"><ele>758.0</ele><time>2017-02-12T12:21:36Z</time></trkpt><trkpt lat="-23.672781" lon="-46.511209"><ele>762.0</ele><time>2017-02-12T12:21:45Z</time></trkpt><trkpt lat="-23.672855" lon="-46.511278"><ele>769.0</ele><time>2017-02-12T12:21:57Z</time></trkpt><trkpt lat="-23.672926" lon="-46.511338"><ele>770.0</ele><time>2017-02-12T12:22:06Z</time></trkpt><trkpt lat="-23.673016" lon="-46.511324"><ele>769.0</ele><time>2017-02-12T12:22:26Z</time></trkpt><trkpt lat="-23.673074" lon="-46.511404"><ele>767.0</ele><time>2017-02-12T12:22:37Z</time></trkpt><trkpt lat="-23.673121" lon="-46.511488"><ele>771.0</ele><time>2017-02-12T12:22:45Z</time></trkpt><trkpt lat="-23.6732" lon="-46.511541"><ele>769.0</ele><time>2017-02-12T12:22:51Z</time></trkpt><trkpt lat="-23.673284" lon="-46.511582"><ele>770.0</ele><time>2017-02-12T12:23:02Z</time></trkpt><trkpt lat="-23.673356" lon="-46.511646"><ele>771.0</ele><time>2017-02-12T12:23:12Z</time></trkpt><trkpt lat="-23.673369" lon="-46.511758"><ele>774.0</ele><time>2017-02-12T12:23:19Z</time></trkpt><trkpt lat="-23.673385" lon="-46.511859"><ele>771.0</ele><time>2017-02-12T12:23:28Z</time></trkpt><trkpt lat="-23.673418" lon="-46.511953"><ele>769.0</ele><time>2017-02-12T12:23:35Z</time></trkpt><trkpt lat="-23.67341" lon="-46.512051"><ele>770.0</ele><time>2017-02-12T12:23:44Z</time></trkpt><trkpt lat="-23.673487" lon="-46.512105"><ele>768.0</ele><time>2017-02-12T12:23:52Z</time></trkpt><trkpt lat="-23.673503" lon="-46.512204"><ele>768.0</ele><time>2017-02-12T12:24:00Z</time></trkpt><trkpt lat="-23.673579" lon="-46.512257"><ele>772.0</ele><time>2017-02-12T12:24:08Z</time></trkpt><trkpt lat="-23.673662" lon="-46.512309"><ele>770.0</ele><time>2017-02-12T12:24:18Z</time></trkpt><trkpt lat="-23.673719" lon="-46.5124"><ele>770.0</ele><time>2017-02-12T12:24:28Z</time></trkpt><trkpt lat="-23.67378" lon="-46.512505"><ele>771.0</ele><time>2017-02-12T12:24:37Z</time></trkpt><trkpt lat="-23.673829" lon="-46.512594"><ele>769.0</ele><time>2017-02-12T12:24:45Z</time></trkpt><trkpt lat="-23.673884" lon="-46.512682"><ele>773.0</ele><time>2017-02-12T12:24:53Z</time></trkpt><trkpt lat="-23.67395" lon="-46.512759"><ele>773.0</ele><time>2017-02-12T12:25:02Z</time></trkpt><trkpt lat="-23.674043" lon="-46.512771"><ele>773.0</ele><time>2017-02-12T12:25:10Z</time></trkpt><trkpt lat="-23.674134" lon="-46.512795"><ele>773.0</ele><time>2017-02-12T12:25:19Z</time></trkpt><trkpt lat="-23.67424" lon="-46.512814"><ele>770.0</ele><time>2017-02-12T12:25:29Z</time></trkpt><trkpt lat="-23.674325" lon="-46.51286"><ele>777.0</ele><time>2017-02-12T12:25:39Z</time></trkpt><trkpt lat="-23.674367" lon="-46.512961"><ele>783.0</ele><time>2017-02-12T12:25:49Z</time></trkpt><trkpt lat="-23.674465" lon="-46.512912"><ele>778.0</ele><time>2017-02-12T12:25:55Z</time></trkpt><trkpt lat="-23.674554" lon="-46.512883"><ele>772.0</ele><time>2017-02-12T12:26:02Z</time></trkpt><trkpt lat="-23.674645" lon="-46.512857"><ele>770.0</ele><time>2017-02-12T12:26:14Z</time></trkpt><trkpt lat="-23.674748" lon="-46.512864"><ele>767.0</ele><time>2017-02-12T12:26:20Z</time></trkpt><trkpt lat="-23.674812" lon="-46.512943"><ele>769.0</ele><time>2017-02-12T12:26:28Z</time></trkpt><trkpt lat="-23.674869" lon="-46.513035"><ele>774.0</ele><time>2017-02-12T12:26:36Z</time></trkpt><trkpt lat="-23.674927" lon="-46.513113"><ele>777.0</ele><time>2017-02-12T12:26:45Z</time></trkpt><trkpt lat="-23.67502" lon="-46.513113"><ele>775.0</ele><time>2017-02-12T12:26:54Z</time></trkpt><trkpt lat="-23.675112" lon="-46.51313"><ele>781.0</ele><time>2017-02-12T12:27:04Z</time></trkpt><trkpt lat="-23.675202" lon="-46.51317"><ele>778.0</ele><time>2017-02-12T12:27:16Z</time></trkpt><trkpt lat="-23.675298" lon="-46.513132"><ele>769.0</ele><time>2017-02-12T12:27:23Z</time></trkpt><trkpt lat="-23.675396" lon="-46.51311"><ele>768.0</ele><time>2017-02-12T12:27:31Z</time></trkpt><trkpt lat="-23.675487" lon="-46.513125"><ele>765.0</ele><time>2017-02-12T12:27:49Z</time></trkpt><trkpt lat="-23.675585" lon="-46.513173"><ele>769.0</ele><time>2017-02-12T12:27:57Z</time></trkpt><trkpt lat="-23.675661" lon="-46.51325"><ele>775.0</ele><time>2017-02-12T12:28:03Z</time></trkpt><trkpt lat="-23.675736" lon="-46.51333"><ele>780.0</ele><time>2017-02-12T12:28:10Z</time></trkpt><trkpt lat="-23.675808" lon="-46.513395"><ele>783.0</ele><time>2017-02-12T12:28:18Z</time></trkpt><trkpt lat="-23.675894" lon="-46.513447"><ele>779.0</ele><time>2017-02-12T12:28:29Z</time></trkpt><trkpt lat="-23.675969" lon="-46.513506"><ele>781.0</ele><time>2017-02-12T12:28:38Z</time></trkpt><trkpt lat="-23.676069" lon="-46.513508"><ele>784.0</ele><time>2017-02-12T12:28:53Z</time></trkpt><trkpt lat="-23.676167" lon="-46.513462"><ele>782.0</ele><time>2017-02-12T12:29:00Z</time></trkpt><trkpt lat="-23.676257" lon="-46.513441"><ele>786.0</ele><time>2017-02-12T12:29:07Z</time></trkpt><trkpt lat="-23.67635" lon="-46.513417"><ele>785.0</ele><time>2017-02-12T12:29:16Z</time></trkpt><trkpt lat="-23.676438" lon="-46.513387"><ele>787.0</ele><time>2017-02-12T12:29:21Z</time></trkpt><trkpt lat="-23.676511" lon="-46.513324"><ele>780.0</ele><time>2017-02-12T12:29:37Z</time></trkpt><trkpt lat="-23.676602" lon="-46.513277"><ele>780.0</ele><time>2017-02-12T12:29:45Z</time></trkpt><trkpt lat="-23.676684" lon="-46.513218"><ele>779.0</ele><time>2017-02-12T12:29:58Z</time></trkpt><trkpt lat="-23.676755" lon="-46.513156"><ele>774.0</ele><time>2017-02-12T12:30:03Z</time></trkpt><trkpt lat="-23.676824" lon="-46.513089"><ele>772.0</ele><time>2017-02-12T12:30:12Z</time></trkpt><trkpt lat="-23.676924" lon="-46.513063"><ele>773.0</ele><time>2017-02-12T12:30:24Z</time></trkpt><trkpt lat="-23.677021" lon="-46.513079"><ele>778.0</ele><time>2017-02-12T12:30:37Z</time></trkpt><trkpt lat="-23.677115" lon="-46.513043"><ele>776.0</ele><time>2017-02-12T12:30:44Z</time></trkpt><trkpt lat="-23.677219" lon="-46.513044"><ele>778.0</ele><time>2017-02-12T12:31:01Z</time></trkpt><trkpt lat="-23.677308" lon="-46.512998"><ele>775.0</ele><time>2017-02-12T12:31:08Z</time></trkpt><trkpt lat="-23.677396" lon="-46.512958"><ele>779.0</ele><time>2017-02-12T12:31:24Z</time></trkpt><trkpt lat="-23.67748" lon="-46.512914"><ele>777.0</ele><time>2017-02-12T12:31:33Z</time></trkpt><trkpt lat="-23.67756" lon="-46.512867"><ele>774.0</ele><time>2017-02-12T12:31:47Z</time></trkpt></trkseg></trk><trk><name><![CDATA[Santo André - Batistini]]></name><trkseg><trkpt lat="-23.682075" lon="-46.523957"><ele>769.0</ele><time>2017-02-14T07:30:17Z</time></trkpt><trkpt lat="-23.682212" lon="-46.523873"><ele>765.0</ele><time>2017-02-14T07:30:23Z</time></trkpt><trkpt lat="-23.682211" lon="-46.523775"><ele>770.0</ele><time>2017-02-14T07:30:30Z</time></trkpt><trkpt lat="-23.6823" lon="-46.523752"><ele>780.0</ele><time>2017-02-14T07:30:47Z</time></trkpt><trkpt lat="-23.682356" lon="-46.52384"><ele>778.0</ele><time>2017-02-14T07:30:53Z</time></trkpt><trkpt lat="-23.682479" lon="-46.523843"><ele>779.0</ele><time>2017-02-14T07:31:02Z</time></trkpt><trkpt lat="-23.682671" lon="-46.523935"><ele>779.0</ele><time>2017-02-14T07:31:04Z</time></trkpt><trkpt lat="-23.682469" lon="-46.523854"><ele>779.0</ele><time>2017-02-14T07:31:07Z</time></trkpt><trkpt lat="-23.682367" lon="-46.523848"><ele>782.0</ele><time>2017-02-14T07:31:09Z</time></trkpt><trkpt lat="-23.682524" lon="-46.523844"><ele>781.0</ele><time>2017-02-14T07:31:12Z</time></trkpt><trkpt lat="-23.682587" lon="-46.523923"><ele>780.0</ele><time>2017-02-14T07:31:35Z</time></trkpt><trkpt lat="-23.682605" lon="-46.52402"><ele>785.0</ele><time>2017-02-14T07:31:44Z</time></trkpt><trkpt lat="-23.682677" lon="-46.524092"><ele>787.0</ele><time>2017-02-14T07:31:53Z</time></trkpt><trkpt lat="-23.682762" lon="-46.524129"><ele>787.0</ele><time>2017-02-14T07:32:01Z</time></trkpt><trkpt lat="-23.682821" lon="-46.524214"><ele>786.0</ele><time>2017-02-14T07:32:11Z</time></trkpt><trkpt lat="-23.682866" lon="-46.524312"><ele>781.0</ele><time>2017-02-14T07:32:18Z</time></trkpt><trkpt lat="-23.682938" lon="-46.524376"><ele>781.0</ele><time>2017-02-14T07:32:24Z</time></trkpt><trkpt lat="-23.682962" lon="-46.524482"><ele>792.0</ele><time>2017-02-14T07:32:33Z</time></trkpt><trkpt lat="-23.683033" lon="-46.52456"><ele>791.0</ele><time>2017-02-14T07:32:43Z</time></trkpt><trkpt lat="-23.683101" lon="-46.52463"><ele>793.0</ele><time>2017-02-14T07:32:51Z</time></trkpt><trkpt lat="-23.683163" lon="-46.524718"><ele>794.0</ele><time>2017-02-14T07:33:00Z</time></trkpt><trkpt lat="-23.683224" lon="-46.524802"><ele>795.0</ele><time>2017-02-14T07:33:07Z</time></trkpt><trkpt lat="-23.683239" lon="-46.524908"><ele>794.0</ele><time>2017-02-14T07:33:16Z</time></trkpt><trkpt lat="-23.683265" lon="-46.525005"><ele>795.0</ele><time>2017-02-14T07:33:24Z</time></trkpt><trkpt lat="-23.68332" lon="-46.525092"><ele>798.0</ele><time>2017-02-14T07:33:33Z</time></trkpt><trkpt lat="-23.683409" lon="-46.525127"><ele>791.0</ele><time>2017-02-14T07:33:49Z</time></trkpt><trkpt lat="-23.683462" lon="-46.525208"><ele>797.0</ele><time>2017-02-14T07:34:37Z</time></trkpt><trkpt lat="-23.683435" lon="-46.525319"><ele>793.0</ele><time>2017-02-14T07:35:30Z</time></trkpt><trkpt lat="-23.683435" lon="-46.525427"><ele>792.0</ele><time>2017-02-14T07:35:35Z</time></trkpt><trkpt lat="-23.683521" lon="-46.525493"><ele>788.0</ele><time>2017-02-14T07:35:41Z</time></trkpt><trkpt lat="-23.683597" lon="-46.525549"><ele>791.0</ele><time>2017-02-14T07:35:49Z</time></trkpt><trkpt lat="-23.683676" lon="-46.525602"><ele>786.0</ele><time>2017-02-14T07:36:01Z</time></trkpt><trkpt lat="-23.683727" lon="-46.525695"><ele>791.0</ele><time>2017-02-14T07:36:10Z</time></trkpt><trkpt lat="-23.683724" lon="-46.525802"><ele>792.0</ele><time>2017-02-14T07:36:18Z</time></trkpt><trkpt lat="-23.683815" lon="-46.52585"><ele>788.0</ele><time>2017-02-14T07:36:26Z</time></trkpt><trkpt lat="-23.683914" lon="-46.52587"><ele>789.0</ele><time>2017-02-14T07:36:35Z</time></trkpt><trkpt lat="-23.684005" lon="-46.525894"><ele>793.0</ele><time>2017-02-14T07:36:41Z</time></trkpt><trkpt lat="-23.684047" lon="-46.525993"><ele>793.0</ele><time>2017-02-14T07:36:50Z</time></trkpt><trkpt lat="-23.684111" lon="-46.526063"><ele>798.0</ele><time>2017-02-14T07:36:58Z</time></trkpt><trkpt lat="-23.684177" lon="-46.526131"><ele>794.0</ele><time>2017-02-14T07:37:07Z</time></trkpt><trkpt lat="-23.684249" lon="-46.526202"><ele>792.0</ele><time>2017-02-14T07:37:15Z</time></trkpt><trkpt lat="-23.684337" lon="-46.526242"><ele>792.0</ele><time>2017-02-14T07:37:24Z</time></trkpt><trkpt lat="-23.684434" lon="-46.526223"><ele>791.0</ele><time>2017-02-14T07:37:31Z</time></trkpt><trkpt lat="-23.684459" lon="-46.526322"><ele>800.0</ele><time>2017-02-14T07:37:40Z</time></trkpt><trkpt lat="-23.684546" lon="-46.526376"><ele>800.0</ele><time>2017-02-14T07:37:51Z</time></trkpt><trkpt lat="-23.684583" lon="-46.526474"><ele>798.0</ele><time>2017-02-14T07:38:00Z</time></trkpt><trkpt lat="-23.684681" lon="-46.526496"><ele>798.0</ele><time>2017-02-14T07:38:10Z</time></trkpt><trkpt lat="-23.684758" lon="-46.526558"><ele>799.0</ele><time>2017-02-14T07:38:18Z</time></trkpt><trkpt lat="-23.684844" lon="-46.526605"><ele>798.0</ele><time>2017-02-14T07:38:27Z</time></trkpt><trkpt lat="-23.684936" lon="-46.526623"><ele>804.0</ele><time>2017-02-14T07:38:36Z</time></trkpt><trkpt lat="-23.68493" lon="-46.526723"><ele>804.0</ele><time>2017-02-14T07:39:03Z</time></trkpt><trkpt lat="-23.685014" lon="-46.526764"><ele>803.0</ele><time>2017-02-14T07:39:13Z</time></trkpt><trkpt lat="-23.685112" lon="-46.526752"><ele>806.0</ele><time>2017-02-14T07:39:24Z</time></trkpt><trkpt lat="-23.685217" lon="-46.526778"><ele>799.0</ele><time>2017-02-14T07:39:38Z</time></trkpt><trkpt lat="-23.685311" lon="-46.526817"><ele>802.0</ele><time>2017-02-14T07:39:46Z</time></trkpt><trkpt lat="-23.685403" lon="-46.526857"><ele>804.0</ele><time>2017-02-14T07:39:52Z</time></trkpt><trkpt lat="-23.685478" lon="-46.526932"><ele>808.0</ele><time>2017-02-14T07:39:58Z</time></trkpt><trkpt lat="-23.685527" lon="-46.527023"><ele>805.0</ele><time>2017-02-14T07:40:05Z</time></trkpt><trkpt lat="-23.685614" lon="-46.527072"><ele>805.0</ele><time>2017-02-14T07:40:12Z</time></trkpt><trkpt lat="-23.685683" lon="-46.527142"><ele>797.0</ele><time>2017-02-14T07:40:20Z</time></trkpt><trkpt lat="-23.685766" lon="-46.52719"><ele>792.0</ele><time>2017-02-14T07:40:27Z</time></trkpt><trkpt lat="-23.68583" lon="-46.527263"><ele>794.0</ele><time>2017-02-14T07:40:36Z</time></trkpt><trkpt lat="-23.685893" lon="-46.527339"><ele>792.0</ele><time>2017-02-14T07:40:45Z</time></trkpt><trkpt lat="-23.68596" lon="-46.52741"><ele>791.0</ele><time>2017-02-14T07:40:53Z</time></trkpt><trkpt lat="-23.686037" lon="-46.527475"><ele>791.0</ele><time>2017-02-14T07:41:02Z</time></trkpt><trkpt lat="-23.68611" lon="-46.527554"><ele>791.0</ele><time>2017-02-14T07:41:10Z</time></trkpt><trkpt lat="-23.686194" lon="-46.527608"><ele>793.0</ele><time>2017-02-14T07:41:16Z</time></trkpt><trkpt lat="-23.686263" lon="-46.527676"><ele>790.0</ele><time>2017-02-14T07:41:23Z</time></trkpt><trkpt lat="-23.686339" lon="-46.527743"><ele>786.0</ele><time>2017-02-14T07:41:32Z</time></trkpt><trkpt lat="-23.686416" lon="-46.527818"><ele>786.0</ele><time>2017-02-14T07:41:41Z</time></trkpt><trkpt lat="-23.686503" lon="-46.527873"><ele>785.0</ele><time>2017-02-14T07:41:50Z</time></trkpt><trkpt lat="-23.686562" lon="-46.527955"><ele>788.0</ele><time>2017-02-14T07:41:59Z</time></trkpt><trkpt lat="-23.686651" lon="-46.527977"><ele>778.0</ele><time>2017-02-14T07:42:31Z</time></trkpt><trkpt lat="-23.686744" lon="-46.527999"><ele>774.0</ele><time>2017-02-14T07:42:39Z</time></trkpt><trkpt lat="-23.686834" lon="-46.528002"><ele>775.0</ele><time>2017-02-14T07:42:47Z</time></trkpt><trkpt lat="-23.686929" lon="-46.528021"><ele>774.0</ele><time>2017-02-14T07:42:53Z</time></trkpt><trkpt lat="-23.687017" lon="-46.528065"><ele>776.0</ele><time>2017-02-14T07:43:00Z</time></trkpt><trkpt lat="-23.687103" lon="-46.528098"><ele>777.0</ele><time>2017-02-14T07:43:06Z</time></trkpt><trkpt lat="-23.687141" lon="-46.528192"><ele>789.0</ele><time>2017-02-14T07:43:16Z</time></trkpt><trkpt lat="-23.687223" lon="-46.528251"><ele>785.0</ele><time>2017-02-14T07:43:24Z</time></trkpt><trkpt lat="-23.687258" lon="-46.528347"><ele>785.0</ele><time>2017-02-14T07:43:34Z</time></trkpt><trkpt lat="-23.687291" lon="-46.528443"><ele>784.0</ele><time>2017-02-14T07:43:41Z</time></trkpt><trkpt lat="-23.687331" lon="-46.528538"><ele>785.0</ele><time>2017-02-14T07:43:49Z</time></trkpt><trkpt lat="-23.687403" lon="-46.528602"><ele>782.0</ele><time>2017-02-14T07:43:59Z</time></trkpt><trkpt lat="-23.687468" lon="-46.528673"><ele>779.0</ele><time>2017-02-14T07:44:08Z</time></trkpt><trkpt lat="-23.687552" lon="-46.52872"><ele>775.0</ele><time>2017-02-14T07:44:17Z</time></trkpt><trkpt lat="-23.687576" lon="-46.52882"><ele>778.0</ele><time>2017-02-14T07:44:26Z</time></trkpt><trkpt lat="-23.687614" lon="-46.528923"><ele>783.0</ele><time>2017-02-14T07:44:32Z</time></trkpt><trkpt lat="-23.687617" lon="-46.529024"><ele>783.0</ele><time>2017-02-14T07:44:44Z</time></trkpt><trkpt lat="-23.687698" lon="-46.5291"><ele>783.0</ele><time>2017-02-14T07:44:53Z</time></trkpt><trkpt lat="-23.687783" lon="-46.529177"><ele>783.0</ele><time>2017-02-14T07:44:59Z</time></trkpt><trkpt lat="-23.687865" lon="-46.529245"><ele>778.0</ele><time>2017-02-14T07:45:11Z</time></trkpt><trkpt lat="-23.687953" lon="-46.529299"><ele>776.0</ele><time>2017-02-14T07:45:19Z</time></trkpt><trkpt lat="-23.687989" lon="-46.529396"><ele>779.0</ele><time>2017-02-14T07:45:28Z</time></trkpt><trkpt lat="-23.68806" lon="-46.529461"><ele>780.0</ele><time>2017-02-14T07:45:35Z</time></trkpt><trkpt lat="-23.688127" lon="-46.529533"><ele>779.0</ele><time>2017-02-14T07:45:43Z</time></trkpt><trkpt lat="-23.688166" lon="-46.529635"><ele>779.0</ele><time>2017-02-14T07:45:52Z</time></trkpt><trkpt lat="-23.688172" lon="-46.529747"><ele>776.0</ele><time>2017-02-14T07:46:00Z</time></trkpt><trkpt lat="-23.688138" lon="-46.529847"><ele>773.0</ele><time>2017-02-14T07:46:09Z</time></trkpt><trkpt lat="-23.68821" lon="-46.529925"><ele>774.0</ele><time>2017-02-14T07:46:21Z</time></trkpt><trkpt lat="-23.688226" lon="-46.530034"><ele>776.0</ele><time>2017-02-14T07:46:29Z</time></trkpt><trkpt lat="-23.688255" lon="-46.53013"><ele>777.0</ele><time>2017-02-14T07:46:35Z</time></trkpt><trkpt lat="-23.688322" lon="-46.530202"><ele>778.0</ele><time>2017-02-14T07:46:42Z</time></trkpt><trkpt lat="-23.688395" lon="-46.530264"><ele>776.0</ele><time>2017-02-14T07:46:49Z</time></trkpt><trkpt lat="-23.688483" lon="-46.530307"><ele>778.0</ele><time>2017-02-14T07:46:58Z</time></trkpt><trkpt lat="-23.688541" lon="-46.530386"><ele>774.0</ele><time>2017-02-14T07:47:06Z</time></trkpt><trkpt lat="-23.688576" lon="-46.530483"><ele>773.0</ele><time>2017-02-14T07:47:14Z</time></trkpt><trkpt lat="-23.688599" lon="-46.530578"><ele>774.0</ele><time>2017-02-14T07:47:42Z</time></trkpt><trkpt lat="-23.688634" lon="-46.530675"><ele>775.0</ele><time>2017-02-14T07:50:28Z</time></trkpt><trkpt lat="-23.68866" lon="-46.530769"><ele>773.0</ele><time>2017-02-14T07:50:36Z</time></trkpt><trkpt lat="-23.688685" lon="-46.530877"><ele>772.0</ele><time>2017-02-14T07:51:02Z</time></trkpt><trkpt lat="-23.68873" lon="-46.530964"><ele>774.0</ele><time>2017-02-14T07:51:10Z</time></trkpt><trkpt lat="-23.688746" lon="-46.531062"><ele>773.0</ele><time>2017-02-14T07:51:18Z</time></trkpt><trkpt lat="-23.68879" lon="-46.531166"><ele>777.0</ele><time>2017-02-14T07:51:25Z</time></trkpt><trkpt lat="-23.688832" lon="-46.531264"><ele>780.0</ele><time>2017-02-14T07:51:32Z</time></trkpt><trkpt lat="-23.688841" lon="-46.531369"><ele>776.0</ele><time>2017-02-14T07:51:44Z</time></trkpt><trkpt lat="-23.688882" lon="-46.531465"><ele>775.0</ele><time>2017-02-14T07:51:54Z</time></trkpt><trkpt lat="-23.688944" lon="-46.531544"><ele>776.0</ele><time>2017-02-14T07:52:02Z</time></trkpt><trkpt lat="-23.689012" lon="-46.531616"><ele>774.0</ele><time>2017-02-14T07:52:11Z</time></trkpt><trkpt lat="-23.689093" lon="-46.53167"><ele>771.0</ele><time>2017-02-14T07:52:20Z</time></trkpt><trkpt lat="-23.689174" lon="-46.531714"><ele>770.0</ele><time>2017-02-14T07:52:29Z</time></trkpt><trkpt lat="-23.689263" lon="-46.531731"><ele>770.0</ele><time>2017-02-14T07:52:37Z</time></trkpt><trkpt lat="-23.689356" lon="-46.531744"><ele>771.0</ele><time>2017-02-14T07:52:45Z</time></trkpt><trkpt lat="-23.689448" lon="-46.531742"><ele>774.0</ele><time>2017-02-14T07:52:55Z</time></trkpt><trkpt lat="-23.689533" lon="-46.531704"><ele>773.0</ele><time>2017-02-14T07:53:07Z</time></trkpt><trkpt lat="-23.689607" lon="-46.53164"><ele>775.0</ele><time>2017-02-14T07:53:15Z</time></trkpt><trkpt lat="-23.689688" lon="-46.531576"><ele>775.0</ele><time>2017-02-14T07:53:24Z</time></trkpt><trkpt lat="-23.689778" lon="-46.531531"><ele>775.0</ele><time>2017-02-14T07:53:32Z</time></trkpt><trkpt lat="-23.689861" lon="-46.531491"><ele>773.0</ele><time>2017-02-14T07:53:39Z</time></trkpt><trkpt lat="-23.689938" lon="-46.531436"><ele>769.0</ele><time>2017-02-14T07:53:46Z</time></trkpt><trkpt lat="-23.689989" lon="-46.531342"><ele>771.0</ele><time>2017-02-14T07:53:55Z</time></trkpt><trkpt lat="-23.690055" lon="-46.531271"><ele>769.0</ele><time>2017-02-14T07:54:03Z</time></trkpt><trkpt lat="-23.690097" lon="-46.531173"><ele>770.0</ele><time>2017-02-14T07:54:13Z</time></trkpt><trkpt lat="-23.690135" lon="-46.531068"><ele>771.0</ele><time>2017-02-14T07:54:23Z</time></trkpt><trkpt lat="-23.690212" lon="-46.530992"><ele>773.0</ele><time>2017-02-14T07:54:29Z</time></trkpt><trkpt lat="-23.690227" lon="-46.530895"><ele>773.0</ele><time>2017-02-14T07:54:37Z</time></trkpt><trkpt lat="-23.690336" lon="-46.530879"><ele>773.0</ele><time>2017-02-14T07:54:42Z</time></trkpt><trkpt lat="-23.690441" lon="-46.530868"><ele>775.0</ele><time>2017-02-14T07:54:48Z</time></trkpt><trkpt lat="-23.690491" lon="-46.530782"><ele>777.0</ele><time>2017-02-14T07:54:56Z</time></trkpt><trkpt lat="-23.690531" lon="-46.530685"><ele>775.0</ele><time>2017-02-14T07:55:06Z</time></trkpt><trkpt lat="-23.690537" lon="-46.530583"><ele>779.0</ele><time>2017-02-14T07:55:14Z</time></trkpt><trkpt lat="-23.690584" lon="-46.530497"><ele>781.0</ele><time>2017-02-14T07:55:21Z</time></trkpt><trkpt lat="-23.69068" lon="-46.530502"><ele>782.0</ele><time>2017-02-14T07:55:31Z</time></trkpt><trkpt lat="-23.690763" lon="-46.530455"><ele>784.0</ele><time>2017-02-14T07:56:20Z</time></trkpt><trkpt lat="-23.690808" lon="-46.530358"><ele>781.0</ele><time>2017-02-14T07:56:26Z</time></trkpt><trkpt lat="-23.690848" lon="-46.530261"><ele>783.0</ele><time>2017-02-14T07:56:32Z</time></trkpt><trkpt lat="-23.6909" lon="-46.530175"><ele>775.0</ele><time>2017-02-14T07:56:40Z</time></trkpt><trkpt lat="-23.690963" lon="-46.5301"><ele>776.0</ele><time>2017-02-14T07:56:47Z</time></trkpt><trkpt lat="-23.69102" lon="-46.529999"><ele>779.0</ele><time>2017-02-14T07:56:54Z</time></trkpt><trkpt lat="-23.691086" lon="-46.529923"><ele>779.0</ele><time>2017-02-14T07:57:02Z</time></trkpt><trkpt lat="-23.691154" lon="-46.529838"><ele>780.0</ele><time>2017-02-14T07:57:09Z</time></trkpt><trkpt lat="-23.691213" lon="-46.529761"><ele>779.0</ele><time>2017-02-14T07:57:16Z</time></trkpt><trkpt lat="-23.691279" lon="-46.529691"><ele>779.0</ele><time>2017-02-14T07:57:24Z</time></trkpt><trkpt lat="-23.691347" lon="-46.529623"><ele>780.0</ele><time>2017-02-14T07:57:32Z</time></trkpt><trkpt lat="-23.691425" lon="-46.529567"><ele>779.0</ele><time>2017-02-14T07:57:40Z</time></trkpt><trkpt lat="-23.691511" lon="-46.529526"><ele>781.0</ele><time>2017-02-14T07:57:49Z</time></trkpt><trkpt lat="-23.691567" lon="-46.529434"><ele>783.0</ele><time>2017-02-14T07:57:56Z</time></trkpt><trkpt lat="-23.691631" lon="-46.529358"><ele>784.0</ele><time>2017-02-14T07:58:03Z</time></trkpt><trkpt lat="-23.691698" lon="-46.529279"><ele>780.0</ele><time>2017-02-14T07:58:11Z</time></trkpt><trkpt lat="-23.691765" lon="-46.529206"><ele>779.0</ele><time>2017-02-14T07:58:21Z</time></trkpt><trkpt lat="-23.691824" lon="-46.529127"><ele>778.0</ele><time>2017-02-14T07:58:30Z</time></trkpt><trkpt lat="-23.6919" lon="-46.529057"><ele>775.0</ele><time>2017-02-14T07:58:38Z</time></trkpt><trkpt lat="-23.691976" lon="-46.528988"><ele>779.0</ele><time>2017-02-14T07:58:47Z</time></trkpt><trkpt lat="-23.692068" lon="-46.528999"><ele>781.0</ele><time>2017-02-14T07:58:57Z</time></trkpt><trkpt lat="-23.692157" lon="-46.528972"><ele>780.0</ele><time>2017-02-14T07:59:08Z</time></trkpt><trkpt lat="-23.69213" lon="-46.529077"><ele>781.0</ele><time>2017-02-14T07:59:45Z</time></trkpt><trkpt lat="-23.692177" lon="-46.528992"><ele>769.0</ele><time>2017-02-14T08:14:25Z</time></trkpt><trkpt lat="-23.692242" lon="-46.529061"><ele>772.0</ele><time>2017-02-14T08:16:37Z</time></trkpt><trkpt lat="-23.692251" lon="-46.529171"><ele>772.0</ele><time>2017-02-14T08:16:43Z</time></trkpt><trkpt lat="-23.692248" lon="-46.529274"><ele>771.0</ele><time>2017-02-14T08:16:54Z</time></trkpt><trkpt lat="-23.6923" lon="-46.529356"><ele>773.0</ele><time>2017-02-14T08:17:01Z</time></trkpt><trkpt lat="-23.692307" lon="-46.529467"><ele>773.0</ele><time>2017-02-14T08:17:07Z</time></trkpt><trkpt lat="-23.692332" lon="-46.529573"><ele>773.0</ele><time>2017-02-14T08:17:14Z</time></trkpt><trkpt lat="-23.692314" lon="-46.529677"><ele>772.0</ele><time>2017-02-14T08:17:23Z</time></trkpt><trkpt lat="-23.692357" lon="-46.52977"><ele>773.0</ele><time>2017-02-14T08:17:32Z</time></trkpt><trkpt lat="-23.692437" lon="-46.529817"><ele>766.0</ele><time>2017-02-14T08:17:40Z</time></trkpt><trkpt lat="-23.69253" lon="-46.529831"><ele>767.0</ele><time>2017-02-14T08:17:49Z</time></trkpt><trkpt lat="-23.692627" lon="-46.52985"><ele>763.0</ele><time>2017-02-14T08:17:59Z</time></trkpt><trkpt lat="-23.692713" lon="-46.529898"><ele>766.0</ele><time>2017-02-14T08:18:07Z</time></trkpt><trkpt lat="-23.692807" lon="-46.529933"><ele>765.0</ele><time>2017-02-14T08:18:18Z</time></trkpt><trkpt lat="-23.692904" lon="-46.529965"><ele>767.0</ele><time>2017-02-14T08:18:26Z</time></trkpt><trkpt lat="-23.692995" lon="-46.529948"><ele>769.0</ele><time>2017-02-14T08:18:33Z</time></trkpt><trkpt lat="-23.693091" lon="-46.529971"><ele>770.0</ele><time>2017-02-14T08:18:42Z</time></trkpt><trkpt lat="-23.693184" lon="-46.529984"><ele>766.0</ele><time>2017-02-14T08:18:51Z</time></trkpt><trkpt lat="-23.693278" lon="-46.530004"><ele>768.0</ele><time>2017-02-14T08:19:01Z</time></trkpt><trkpt lat="-23.693372" lon="-46.529984"><ele>772.0</ele><time>2017-02-14T08:19:08Z</time></trkpt><trkpt lat="-23.693466" lon="-46.529984"><ele>780.0</ele><time>2017-02-14T08:19:16Z</time></trkpt><trkpt lat="-23.693554" lon="-46.530018"><ele>782.0</ele><time>2017-02-14T08:19:25Z</time></trkpt><trkpt lat="-23.693651" lon="-46.530039"><ele>782.0</ele><time>2017-02-14T08:19:37Z</time></trkpt><trkpt lat="-23.693747" lon="-46.530059"><ele>783.0</ele><time>2017-02-14T08:19:45Z</time></trkpt><trkpt lat="-23.693831" lon="-46.5301"><ele>784.0</ele><time>2017-02-14T08:19:54Z</time></trkpt><trkpt lat="-23.693925" lon="-46.530113"><ele>782.0</ele><time>2017-02-14T08:20:04Z</time></trkpt><trkpt lat="-23.694011" lon="-46.530153"><ele>782.0</ele><time>2017-02-14T08:20:12Z</time></trkpt><trkpt lat="-23.694089" lon="-46.530202"><ele>784.0</ele><time>2017-02-14T08:20:20Z</time></trkpt><trkpt lat="-23.694168" lon="-46.530263"><ele>785.0</ele><time>2017-02-14T08:20:29Z</time></trkpt><trkpt lat="-23.694149" lon="-46.53037"><ele>785.0</ele><time>2017-02-14T08:20:36Z</time></trkpt><trkpt lat="-23.69414" lon="-46.530478"><ele>784.0</ele><time>2017-02-14T08:20:44Z</time></trkpt><trkpt lat="-23.694112" lon="-46.53058"><ele>785.0</ele><time>2017-02-14T08:20:51Z</time></trkpt><trkpt lat="-23.694106" lon="-46.530679"><ele>784.0</ele><time>2017-02-14T08:20:58Z</time></trkpt><trkpt lat="-23.694082" lon="-46.530783"><ele>791.0</ele><time>2017-02-14T08:21:06Z</time></trkpt><trkpt lat="-23.694061" lon="-46.53089"><ele>791.0</ele><time>2017-02-14T08:21:14Z</time></trkpt><trkpt lat="-23.694052" lon="-46.530999"><ele>792.0</ele><time>2017-02-14T08:21:23Z</time></trkpt><trkpt lat="-23.694047" lon="-46.531107"><ele>789.0</ele><time>2017-02-14T08:21:31Z</time></trkpt><trkpt lat="-23.694046" lon="-46.531213"><ele>794.0</ele><time>2017-02-14T08:21:41Z</time></trkpt><trkpt lat="-23.694018" lon="-46.531319"><ele>799.0</ele><time>2017-02-14T08:21:50Z</time></trkpt><trkpt lat="-23.693989" lon="-46.531419"><ele>796.0</ele><time>2017-02-14T08:21:57Z</time></trkpt><trkpt lat="-23.693949" lon="-46.531509"><ele>794.0</ele><time>2017-02-14T08:22:04Z</time></trkpt><trkpt lat="-23.693886" lon="-46.531584"><ele>794.0</ele><time>2017-02-14T08:22:33Z</time></trkpt><trkpt lat="-23.69388" lon="-46.53169"><ele>798.0</ele><time>2017-02-14T08:22:38Z</time></trkpt><trkpt lat="-23.693867" lon="-46.531801"><ele>796.0</ele><time>2017-02-14T08:22:45Z</time></trkpt><trkpt lat="-23.69378" lon="-46.531852"><ele>790.0</ele><time>2017-02-14T08:22:55Z</time></trkpt><trkpt lat="-23.693834" lon="-46.531932"><ele>790.0</ele><time>2017-02-14T08:23:09Z</time></trkpt><trkpt lat="-23.69388" lon="-46.532016"><ele>787.0</ele><time>2017-02-14T08:24:04Z</time></trkpt><trkpt lat="-23.693972" lon="-46.532046"><ele>789.0</ele><time>2017-02-14T08:24:14Z</time></trkpt><trkpt lat="-23.694065" lon="-46.532056"><ele>788.0</ele><time>2017-02-14T08:24:21Z</time></trkpt><trkpt lat="-23.694159" lon="-46.532085"><ele>787.0</ele><time>2017-02-14T08:24:31Z</time></trkpt><trkpt lat="-23.694235" lon="-46.532146"><ele>791.0</ele><time>2017-02-14T08:24:41Z</time></trkpt><trkpt lat="-23.694318" lon="-46.532196"><ele>795.0</ele><time>2017-02-14T08:24:50Z</time></trkpt><trkpt lat="-23.694406" lon="-46.532232"><ele>795.0</ele><time>2017-02-14T08:25:00Z</time></trkpt><trkpt lat="-23.694492" lon="-46.532265"><ele>799.0</ele><time>2017-02-14T08:25:33Z</time></trkpt><trkpt lat="-23.694569" lon="-46.532322"><ele>796.0</ele><time>2017-02-14T08:29:41Z</time></trkpt><trkpt lat="-23.694661" lon="-46.532335"><ele>800.0</ele><time>2017-02-14T08:29:49Z</time></trkpt><trkpt lat="-23.694753" lon="-46.532353"><ele>797.0</ele><time>2017-02-14T08:29:58Z</time></trkpt><trkpt lat="-23.694826" lon="-46.532413"><ele>796.0</ele><time>2017-02-14T08:30:06Z</time></trkpt><trkpt lat="-23.694908" lon="-46.532475"><ele>795.0</ele><time>2017-02-14T08:30:15Z</time></trkpt><trkpt lat="-23.695006" lon="-46.532474"><ele>801.0</ele><time>2017-02-14T08:30:23Z</time></trkpt><trkpt lat="-23.69511" lon="-46.532468"><ele>803.0</ele><time>2017-02-14T08:30:31Z</time></trkpt><trkpt lat="-23.695193" lon="-46.532511"><ele>803.0</ele><time>2017-02-14T08:30:39Z</time></trkpt><trkpt lat="-23.695284" lon="-46.53251"><ele>801.0</ele><time>2017-02-14T08:30:49Z</time></trkpt><trkpt lat="-23.695378" lon="-46.532542"><ele>802.0</ele><time>2017-02-14T08:30:58Z</time></trkpt><trkpt lat="-23.695473" lon="-46.53253"><ele>803.0</ele><time>2017-02-14T08:31:07Z</time></trkpt><trkpt lat="-23.695563" lon="-46.532566"><ele>800.0</ele><time>2017-02-14T08:31:17Z</time></trkpt><trkpt lat="-23.695653" lon="-46.532527"><ele>798.0</ele><time>2017-02-14T08:31:26Z</time></trkpt><trkpt lat="-23.695749" lon="-46.532497"><ele>804.0</ele><time>2017-02-14T08:31:36Z</time></trkpt><trkpt lat="-23.695839" lon="-46.532455"><ele>804.0</ele><time>2017-02-14T08:31:45Z</time></trkpt><trkpt lat="-23.695927" lon="-46.53243"><ele>797.0</ele><time>2017-02-14T08:31:55Z</time></trkpt><trkpt lat="-23.696008" lon="-46.532375"><ele>802.0</ele><time>2017-02-14T08:32:03Z</time></trkpt><trkpt lat="-23.696108" lon="-46.532377"><ele>805.0</ele><time>2017-02-14T08:32:12Z</time></trkpt><trkpt lat="-23.696207" lon="-46.532357"><ele>804.0</ele><time>2017-02-14T08:32:21Z</time></trkpt><trkpt lat="-23.696304" lon="-46.532401"><ele>806.0</ele><time>2017-02-14T08:32:30Z</time></trkpt><trkpt lat="-23.696333" lon="-46.532508"><ele>803.0</ele><time>2017-02-14T08:32:39Z</time></trkpt><trkpt lat="-23.696383" lon="-46.532594"><ele>802.0</ele><time>2017-02-14T08:32:46Z</time></trkpt><trkpt lat="-23.696425" lon="-46.532683"><ele>803.0</ele><time>2017-02-14T08:32:53Z</time></trkpt><trkpt lat="-23.696468" lon="-46.532776"><ele>802.0</ele><time>2017-02-14T08:33:01Z</time></trkpt><trkpt lat="-23.696511" lon="-46.532864"><ele>802.0</ele><time>2017-02-14T08:33:09Z</time></trkpt><trkpt lat="-23.696591" lon="-46.53292"><ele>804.0</ele><time>2017-02-14T08:33:30Z</time></trkpt><trkpt lat="-23.696684" lon="-46.532893"><ele>802.0</ele><time>2017-02-14T08:33:40Z</time></trkpt><trkpt lat="-23.69677" lon="-46.532847"><ele>803.0</ele><time>2017-02-14T08:33:47Z</time></trkpt><trkpt lat="-23.696858" lon="-46.532807"><ele>805.0</ele><time>2017-02-14T08:33:54Z</time></trkpt><trkpt lat="-23.696949" lon="-46.532795"><ele>803.0</ele><time>2017-02-14T08:34:03Z</time></trkpt><trkpt lat="-23.697039" lon="-46.532817"><ele>798.0</ele><time>2017-02-14T08:34:43Z</time></trkpt><trkpt lat="-23.697125" lon="-46.532778"><ele>796.0</ele><time>2017-02-14T08:35:27Z</time></trkpt><trkpt lat="-23.697172" lon="-46.532876"><ele>798.0</ele><time>2017-02-14T08:35:41Z</time></trkpt><trkpt lat="-23.697178" lon="-46.532982"><ele>798.0</ele><time>2017-02-14T08:35:49Z</time></trkpt><trkpt lat="-23.697222" lon="-46.533076"><ele>799.0</ele><time>2017-02-14T08:35:58Z</time></trkpt><trkpt lat="-23.697274" lon="-46.533163"><ele>798.0</ele><time>2017-02-14T08:36:06Z</time></trkpt><trkpt lat="-23.697325" lon="-46.533247"><ele>798.0</ele><time>2017-02-14T08:36:14Z</time></trkpt><trkpt lat="-23.697356" lon="-46.533344"><ele>797.0</ele><time>2017-02-14T08:36:23Z</time></trkpt><trkpt lat="-23.697416" lon="-46.533425"><ele>797.0</ele><time>2017-02-14T08:36:33Z</time></trkpt><trkpt lat="-23.697484" lon="-46.533489"><ele>799.0</ele><time>2017-02-14T08:36:41Z</time></trkpt><trkpt lat="-23.697509" lon="-46.533588"><ele>799.0</ele><time>2017-02-14T08:36:50Z</time></trkpt><trkpt lat="-23.697545" lon="-46.533679"><ele>799.0</ele><time>2017-02-14T08:37:00Z</time></trkpt><trkpt lat="-23.697638" lon="-46.533724"><ele>798.0</ele><time>2017-02-14T08:37:10Z</time></trkpt><trkpt lat="-23.697581" lon="-46.533802"><ele>802.0</ele><time>2017-02-14T08:38:09Z</time></trkpt><trkpt lat="-23.697625" lon="-46.53371"><ele>798.0</ele><time>2017-02-14T08:40:40Z</time></trkpt><trkpt lat="-23.697644" lon="-46.53361"><ele>797.0</ele><time>2017-02-14T08:40:59Z</time></trkpt><trkpt lat="-23.697653" lon="-46.533509"><ele>796.0</ele><time>2017-02-14T08:41:05Z</time></trkpt><trkpt lat="-23.69766" lon="-46.533401"><ele>796.0</ele><time>2017-02-14T08:41:13Z</time></trkpt><trkpt lat="-23.697683" lon="-46.533299"><ele>797.0</ele><time>2017-02-14T08:41:22Z</time></trkpt><trkpt lat="-23.697764" lon="-46.533234"><ele>797.0</ele><time>2017-02-14T08:41:31Z</time></trkpt><trkpt lat="-23.697833" lon="-46.533304"><ele>796.0</ele><time>2017-02-14T08:41:44Z</time></trkpt><trkpt lat="-23.697877" lon="-46.533391"><ele>795.0</ele><time>2017-02-14T08:41:53Z</time></trkpt><trkpt lat="-23.697912" lon="-46.533494"><ele>795.0</ele><time>2017-02-14T08:41:59Z</time></trkpt><trkpt lat="-23.697956" lon="-46.533588"><ele>796.0</ele><time>2017-02-14T08:42:07Z</time></trkpt><trkpt lat="-23.698007" lon="-46.533669"><ele>785.0</ele><time>2017-02-14T08:42:16Z</time></trkpt><trkpt lat="-23.698055" lon="-46.533759"><ele>783.0</ele><time>2017-02-14T08:42:26Z</time></trkpt><trkpt lat="-23.698097" lon="-46.533852"><ele>780.0</ele><time>2017-02-14T08:42:35Z</time></trkpt><trkpt lat="-23.698128" lon="-46.533946"><ele>784.0</ele><time>2017-02-14T08:42:42Z</time></trkpt><trkpt lat="-23.698196" lon="-46.534027"><ele>784.0</ele><time>2017-02-14T08:42:49Z</time></trkpt><trkpt lat="-23.698268" lon="-46.534096"><ele>785.0</ele><time>2017-02-14T08:42:57Z</time></trkpt><trkpt lat="-23.698347" lon="-46.534148"><ele>784.0</ele><time>2017-02-14T08:43:07Z</time></trkpt><trkpt lat="-23.69841" lon="-46.534229"><ele>790.0</ele><time>2017-02-14T08:43:30Z</time></trkpt><trkpt lat="-23.698428" lon="-46.534326"><ele>796.0</ele><time>2017-02-14T08:43:36Z</time></trkpt><trkpt lat="-23.698477" lon="-46.53441"><ele>793.0</ele><time>2017-02-14T08:43:48Z</time></trkpt><trkpt lat="-23.698524" lon="-46.534517"><ele>793.0</ele><time>2017-02-14T08:44:08Z</time></trkpt><trkpt lat="-23.698549" lon="-46.534626"><ele>796.0</ele><time>2017-02-14T08:44:12Z</time></trkpt><trkpt lat="-23.698585" lon="-46.534716"><ele>793.0</ele><time>2017-02-14T08:44:17Z</time></trkpt><trkpt lat="-23.698634" lon="-46.534809"><ele>801.0</ele><time>2017-02-14T08:44:23Z</time></trkpt><trkpt lat="-23.698679" lon="-46.534901"><ele>800.0</ele><time>2017-02-14T08:44:32Z</time></trkpt><trkpt lat="-23.698767" lon="-46.534939"><ele>800.0</ele><time>2017-02-14T08:44:53Z</time></trkpt><trkpt lat="-23.698819" lon="-46.535036"><ele>804.0</ele><time>2017-02-14T08:45:05Z</time></trkpt><trkpt lat="-23.698866" lon="-46.535135"><ele>804.0</ele><time>2017-02-14T08:45:13Z</time></trkpt><trkpt lat="-23.698891" lon="-46.535244"><ele>807.0</ele><time>2017-02-14T08:45:27Z</time></trkpt><trkpt lat="-23.698875" lon="-46.535346"><ele>807.0</ele><time>2017-02-14T08:45:38Z</time></trkpt><trkpt lat="-23.698815" lon="-46.535424"><ele>807.0</ele><time>2017-02-14T08:45:44Z</time></trkpt><trkpt lat="-23.69889" lon="-46.535482"><ele>807.0</ele><time>2017-02-14T08:46:03Z</time></trkpt><trkpt lat="-23.698969" lon="-46.535549"><ele>807.0</ele><time>2017-02-14T08:46:14Z</time></trkpt><trkpt lat="-23.699037" lon="-46.535615"><ele>808.0</ele><time>2017-02-14T08:46:24Z</time></trkpt><trkpt lat="-23.699119" lon="-46.535675"><ele>806.0</ele><time>2017-02-14T08:46:34Z</time></trkpt><trkpt lat="-23.699202" lon="-46.535723"><ele>808.0</ele><time>2017-02-14T08:46:42Z</time></trkpt><trkpt lat="-23.699274" lon="-46.535802"><ele>811.0</ele><time>2017-02-14T08:46:51Z</time></trkpt><trkpt lat="-23.699346" lon="-46.535873"><ele>818.0</ele><time>2017-02-14T08:47:00Z</time></trkpt><trkpt lat="-23.699431" lon="-46.535913"><ele>817.0</ele><time>2017-02-14T08:47:08Z</time></trkpt><trkpt lat="-23.699513" lon="-46.535965"><ele>819.0</ele><time>2017-02-14T08:47:16Z</time></trkpt><trkpt lat="-23.699591" lon="-46.536019"><ele>814.0</ele><time>2017-02-14T08:47:24Z</time></trkpt><trkpt lat="-23.699678" lon="-46.536072"><ele>811.0</ele><time>2017-02-14T08:47:33Z</time></trkpt><trkpt lat="-23.699759" lon="-46.536129"><ele>808.0</ele><time>2017-02-14T08:47:43Z</time></trkpt><trkpt lat="-23.699836" lon="-46.536187"><ele>806.0</ele><time>2017-02-14T08:47:52Z</time></trkpt><trkpt lat="-23.699913" lon="-46.536254"><ele>808.0</ele><time>2017-02-14T08:48:01Z</time></trkpt><trkpt lat="-23.699997" lon="-46.536297"><ele>808.0</ele><time>2017-02-14T08:48:11Z</time></trkpt><trkpt lat="-23.700083" lon="-46.536345"><ele>807.0</ele><time>2017-02-14T08:48:22Z</time></trkpt><trkpt lat="-23.700155" lon="-46.536411"><ele>805.0</ele><time>2017-02-14T08:48:31Z</time></trkpt><trkpt lat="-23.700222" lon="-46.536481"><ele>801.0</ele><time>2017-02-14T08:48:40Z</time></trkpt><trkpt lat="-23.700294" lon="-46.536558"><ele>799.0</ele><time>2017-02-14T08:48:49Z</time></trkpt><trkpt lat="-23.700377" lon="-46.536605"><ele>798.0</ele><time>2017-02-14T08:48:56Z</time></trkpt><trkpt lat="-23.700452" lon="-46.536662"><ele>791.0</ele><time>2017-02-14T08:49:05Z</time></trkpt><trkpt lat="-23.700528" lon="-46.536715"><ele>801.0</ele><time>2017-02-14T08:49:18Z</time></trkpt><trkpt lat="-23.700595" lon="-46.53679"><ele>802.0</ele><time>2017-02-14T08:49:35Z</time></trkpt><trkpt lat="-23.700543" lon="-46.536877"><ele>802.0</ele><time>2017-02-14T08:50:06Z</time></trkpt><trkpt lat="-23.700463" lon="-46.536932"><ele>801.0</ele><time>2017-02-14T08:50:17Z</time></trkpt><trkpt lat="-23.700397" lon="-46.537003"><ele>802.0</ele><time>2017-02-14T08:50:24Z</time></trkpt><trkpt lat="-23.70034" lon="-46.537091"><ele>813.0</ele><time>2017-02-14T08:50:33Z</time></trkpt><trkpt lat="-23.700326" lon="-46.537196"><ele>811.0</ele><time>2017-02-14T08:50:43Z</time></trkpt><trkpt lat="-23.700372" lon="-46.53728"><ele>806.0</ele><time>2017-02-14T08:51:16Z</time></trkpt><trkpt lat="-23.70037" lon="-46.53738"><ele>799.0</ele><time>2017-02-14T08:54:24Z</time></trkpt><trkpt lat="-23.700314" lon="-46.537479"><ele>796.0</ele><time>2017-02-14T08:54:57Z</time></trkpt><trkpt lat="-23.700318" lon="-46.537593"><ele>796.0</ele><time>2017-02-14T08:55:03Z</time></trkpt><trkpt lat="-23.700348" lon="-46.537689"><ele>799.0</ele><time>2017-02-14T08:55:10Z</time></trkpt><trkpt lat="-23.700339" lon="-46.53779"><ele>799.0</ele><time>2017-02-14T08:55:17Z</time></trkpt><trkpt lat="-23.700333" lon="-46.537902"><ele>805.0</ele><time>2017-02-14T08:55:36Z</time></trkpt><trkpt lat="-23.700371" lon="-46.537996"><ele>805.0</ele><time>2017-02-14T08:55:40Z</time></trkpt><trkpt lat="-23.700362" lon="-46.538094"><ele>805.0</ele><time>2017-02-14T08:55:48Z</time></trkpt><trkpt lat="-23.700395" lon="-46.538202"><ele>806.0</ele><time>2017-02-14T08:56:01Z</time></trkpt><trkpt lat="-23.700319" lon="-46.538269"><ele>805.0</ele><time>2017-02-14T08:56:09Z</time></trkpt><trkpt lat="-23.700266" lon="-46.53835"><ele>810.0</ele><time>2017-02-14T08:56:17Z</time></trkpt><trkpt lat="-23.70022" lon="-46.538441"><ele>810.0</ele><time>2017-02-14T08:56:30Z</time></trkpt><trkpt lat="-23.700213" lon="-46.538554"><ele>810.0</ele><time>2017-02-14T08:57:01Z</time></trkpt><trkpt lat="-23.700239" lon="-46.538653"><ele>814.0</ele><time>2017-02-14T09:00:02Z</time></trkpt><trkpt lat="-23.70029" lon="-46.538739"><ele>812.0</ele><time>2017-02-14T09:03:18Z</time></trkpt><trkpt lat="-23.700343" lon="-46.538836"><ele>814.0</ele><time>2017-02-14T09:04:02Z</time></trkpt><trkpt lat="-23.700363" lon="-46.538951"><ele>809.0</ele><time>2017-02-14T09:04:07Z</time></trkpt><trkpt lat="-23.700387" lon="-46.539056"><ele>809.0</ele><time>2017-02-14T09:04:12Z</time></trkpt><trkpt lat="-23.700423" lon="-46.539167"><ele>815.0</ele><time>2017-02-14T09:04:18Z</time></trkpt><trkpt lat="-23.700473" lon="-46.539264"><ele>816.0</ele><time>2017-02-14T09:04:24Z</time></trkpt><trkpt lat="-23.700559" lon="-46.53932"><ele>819.0</ele><time>2017-02-14T09:04:31Z</time></trkpt><trkpt lat="-23.700628" lon="-46.539398"><ele>818.0</ele><time>2017-02-14T09:04:38Z</time></trkpt><trkpt lat="-23.700688" lon="-46.539476"><ele>823.0</ele><time>2017-02-14T09:04:46Z</time></trkpt><trkpt lat="-23.70078" lon="-46.539474"><ele>825.0</ele><time>2017-02-14T09:04:59Z</time></trkpt><trkpt lat="-23.700879" lon="-46.539491"><ele>820.0</ele><time>2017-02-14T09:05:07Z</time></trkpt><trkpt lat="-23.700974" lon="-46.539513"><ele>822.0</ele><time>2017-02-14T09:05:17Z</time></trkpt><trkpt lat="-23.701009" lon="-46.539605"><ele>821.0</ele><time>2017-02-14T09:05:26Z</time></trkpt><trkpt lat="-23.701017" lon="-46.539705"><ele>811.0</ele><time>2017-02-14T09:05:40Z</time></trkpt><trkpt lat="-23.701103" lon="-46.539755"><ele>802.0</ele><time>2017-02-14T09:11:21Z</time></trkpt><trkpt lat="-23.701202" lon="-46.539748"><ele>801.0</ele><time>2017-02-14T09:11:27Z</time></trkpt><trkpt lat="-23.701296" lon="-46.539745"><ele>805.0</ele><time>2017-02-14T09:11:34Z</time></trkpt><trkpt lat="-23.701396" lon="-46.539736"><ele>807.0</ele><time>2017-02-14T09:11:41Z</time></trkpt><trkpt lat="-23.701489" lon="-46.539702"><ele>803.0</ele><time>2017-02-14T09:11:49Z</time></trkpt><trkpt lat="-23.701497" lon="-46.539589"><ele>795.0</ele><time>2017-02-14T09:12:03Z</time></trkpt><trkpt lat="-23.701559" lon="-46.539517"><ele>799.0</ele><time>2017-02-14T09:12:15Z</time></trkpt><trkpt lat="-23.701581" lon="-46.539419"><ele>796.0</ele><time>2017-02-14T09:13:35Z</time></trkpt><trkpt lat="-23.701642" lon="-46.539333"><ele>797.0</ele><time>2017-02-14T09:13:41Z</time></trkpt><trkpt lat="-23.701734" lon="-46.539347"><ele>794.0</ele><time>2017-02-14T09:14:05Z</time></trkpt><trkpt lat="-23.701762" lon="-46.539452"><ele>797.0</ele><time>2017-02-14T09:14:16Z</time></trkpt><trkpt lat="-23.7018" lon="-46.539545"><ele>799.0</ele><time>2017-02-14T09:14:23Z</time></trkpt><trkpt lat="-23.701868" lon="-46.539614"><ele>798.0</ele><time>2017-02-14T09:14:32Z</time></trkpt><trkpt lat="-23.701926" lon="-46.53969"><ele>799.0</ele><time>2017-02-14T09:14:43Z</time></trkpt><trkpt lat="-23.701915" lon="-46.539816"><ele>796.0</ele><time>2017-02-14T09:14:50Z</time></trkpt><trkpt lat="-23.702" lon="-46.539769"><ele>790.0</ele><time>2017-02-14T09:15:17Z</time></trkpt><trkpt lat="-23.702084" lon="-46.539727"><ele>787.0</ele><time>2017-02-14T09:15:22Z</time></trkpt><trkpt lat="-23.702044" lon="-46.539632"><ele>784.0</ele><time>2017-02-14T09:15:29Z</time></trkpt><trkpt lat="-23.702132" lon="-46.53958"><ele>785.0</ele><time>2017-02-14T09:15:34Z</time></trkpt><trkpt lat="-23.702203" lon="-46.539509"><ele>786.0</ele><time>2017-02-14T09:15:40Z</time></trkpt><trkpt lat="-23.702267" lon="-46.539429"><ele>787.0</ele><time>2017-02-14T09:15:49Z</time></trkpt><trkpt lat="-23.702363" lon="-46.539478"><ele>773.0</ele><time>2017-02-14T09:16:28Z</time></trkpt><trkpt lat="-23.70244" lon="-46.539538"><ele>771.0</ele><time>2017-02-14T09:16:36Z</time></trkpt><trkpt lat="-23.702522" lon="-46.539604"><ele>770.0</ele><time>2017-02-14T09:16:53Z</time></trkpt><trkpt lat="-23.702576" lon="-46.539687"><ele>776.0</ele><time>2017-02-14T09:16:58Z</time></trkpt><trkpt lat="-23.702668" lon="-46.539722"><ele>781.0</ele><time>2017-02-14T09:17:03Z</time></trkpt><trkpt lat="-23.702775" lon="-46.539731"><ele>787.0</ele><time>2017-02-14T09:17:07Z</time></trkpt><trkpt lat="-23.702857" lon="-46.539787"><ele>785.0</ele><time>2017-02-14T09:17:12Z</time></trkpt><trkpt lat="-23.702928" lon="-46.539874"><ele>779.0</ele><time>2017-02-14T09:17:17Z</time></trkpt><trkpt lat="-23.703019" lon="-46.539912"><ele>778.0</ele><time>2017-02-14T09:17:21Z</time></trkpt><trkpt lat="-23.703108" lon="-46.539958"><ele>776.0</ele><time>2017-02-14T09:17:31Z</time></trkpt><trkpt lat="-23.703176" lon="-46.540025"><ele>780.0</ele><time>2017-02-14T09:17:46Z</time></trkpt><trkpt lat="-23.703076" lon="-46.540052"><ele>772.0</ele><time>2017-02-14T09:17:52Z</time></trkpt><trkpt lat="-23.70309" lon="-46.540155"><ele>771.0</ele><time>2017-02-14T09:18:02Z</time></trkpt><trkpt lat="-23.703086" lon="-46.540259"><ele>767.0</ele><time>2017-02-14T09:18:05Z</time></trkpt><trkpt lat="-23.703099" lon="-46.540386"><ele>771.0</ele><time>2017-02-14T09:18:08Z</time></trkpt><trkpt lat="-23.703062" lon="-46.54048"><ele>765.0</ele><time>2017-02-14T09:18:12Z</time></trkpt><trkpt lat="-23.703035" lon="-46.540574"><ele>770.0</ele><time>2017-02-14T09:18:24Z</time></trkpt><trkpt lat="-23.703099" lon="-46.540649"><ele>773.0</ele><time>2017-02-14T09:18:29Z</time></trkpt><trkpt lat="-23.703095" lon="-46.540754"><ele>769.0</ele><time>2017-02-14T09:18:38Z</time></trkpt><trkpt lat="-23.703033" lon="-46.540841"><ele>765.0</ele><time>2017-02-14T09:18:43Z</time></trkpt><trkpt lat="-23.702946" lon="-46.540904"><ele>764.0</ele><time>2017-02-14T09:18:48Z</time></trkpt><trkpt lat="-23.702888" lon="-46.540979"><ele>763.0</ele><time>2017-02-14T09:19:02Z</time></trkpt><trkpt lat="-23.702833" lon="-46.541061"><ele>761.0</ele><time>2017-02-14T09:19:19Z</time></trkpt><trkpt lat="-23.70275" lon="-46.541101"><ele>766.0</ele><time>2017-02-14T09:19:42Z</time></trkpt><trkpt lat="-23.702742" lon="-46.541227"><ele>771.0</ele><time>2017-02-14T09:19:50Z</time></trkpt><trkpt lat="-23.702728" lon="-46.541366"><ele>774.0</ele><time>2017-02-14T09:19:53Z</time></trkpt><trkpt lat="-23.702673" lon="-46.541447"><ele>778.0</ele><time>2017-02-14T09:20:01Z</time></trkpt><trkpt lat="-23.702668" lon="-46.54155"><ele>777.0</ele><time>2017-02-14T09:20:07Z</time></trkpt><trkpt lat="-23.702592" lon="-46.541637"><ele>772.0</ele><time>2017-02-14T09:20:52Z</time></trkpt><trkpt lat="-23.702528" lon="-46.541716"><ele>771.0</ele><time>2017-02-14T09:20:57Z</time></trkpt><trkpt lat="-23.702478" lon="-46.5418"><ele>772.0</ele><time>2017-02-14T09:21:05Z</time></trkpt><trkpt lat="-23.702527" lon="-46.541894"><ele>773.0</ele><time>2017-02-14T09:21:11Z</time></trkpt><trkpt lat="-23.702534" lon="-46.542"><ele>772.0</ele><time>2017-02-14T09:21:22Z</time></trkpt><trkpt lat="-23.702611" lon="-46.542061"><ele>770.0</ele><time>2017-02-14T09:21:31Z</time></trkpt><trkpt lat="-23.702703" lon="-46.542074"><ele>768.0</ele><time>2017-02-14T09:21:37Z</time></trkpt><trkpt lat="-23.702792" lon="-46.542097"><ele>768.0</ele><time>2017-02-14T09:22:44Z</time></trkpt><trkpt lat="-23.702884" lon="-46.542126"><ele>770.0</ele><time>2017-02-14T09:22:48Z</time></trkpt><trkpt lat="-23.702981" lon="-46.542131"><ele>773.0</ele><time>2017-02-14T09:22:53Z</time></trkpt><trkpt lat="-23.703043" lon="-46.542202"><ele>775.0</ele><time>2017-02-14T09:22:58Z</time></trkpt><trkpt lat="-23.703066" lon="-46.542336"><ele>783.0</ele><time>2017-02-14T09:23:03Z</time></trkpt><trkpt lat="-23.703079" lon="-46.542436"><ele>787.0</ele><time>2017-02-14T09:23:05Z</time></trkpt><trkpt lat="-23.703153" lon="-46.542505"><ele>786.0</ele><time>2017-02-14T09:23:12Z</time></trkpt><trkpt lat="-23.703233" lon="-46.542435"><ele>786.0</ele><time>2017-02-14T09:23:19Z</time></trkpt><trkpt lat="-23.703306" lon="-46.542359"><ele>781.0</ele><time>2017-02-14T09:23:24Z</time></trkpt><trkpt lat="-23.703383" lon="-46.542292"><ele>780.0</ele><time>2017-02-14T09:23:30Z</time></trkpt><trkpt lat="-23.703462" lon="-46.542246"><ele>780.0</ele><time>2017-02-14T09:23:43Z</time></trkpt><trkpt lat="-23.703536" lon="-46.542312"><ele>777.0</ele><time>2017-02-14T09:23:53Z</time></trkpt><trkpt lat="-23.703574" lon="-46.542404"><ele>779.0</ele><time>2017-02-14T09:24:00Z</time></trkpt><trkpt lat="-23.703665" lon="-46.542399"><ele>777.0</ele><time>2017-02-14T09:24:08Z</time></trkpt><trkpt lat="-23.703762" lon="-46.542379"><ele>780.0</ele><time>2017-02-14T09:24:17Z</time></trkpt><trkpt lat="-23.703846" lon="-46.54242"><ele>779.0</ele><time>2017-02-14T09:24:35Z</time></trkpt><trkpt lat="-23.7039" lon="-46.542506"><ele>782.0</ele><time>2017-02-14T09:24:44Z</time></trkpt><trkpt lat="-23.703981" lon="-46.54258"><ele>778.0</ele><time>2017-02-14T09:24:51Z</time></trkpt><trkpt lat="-23.704076" lon="-46.542598"><ele>779.0</ele><time>2017-02-14T09:25:00Z</time></trkpt><trkpt lat="-23.704156" lon="-46.542647"><ele>779.0</ele><time>2017-02-14T09:25:08Z</time></trkpt><trkpt lat="-23.704235" lon="-46.542701"><ele>785.0</ele><time>2017-02-14T09:25:19Z</time></trkpt><trkpt lat="-23.704334" lon="-46.542691"><ele>780.0</ele><time>2017-02-14T09:25:31Z</time></trkpt><trkpt lat="-23.704423" lon="-46.542731"><ele>782.0</ele><time>2017-02-14T09:25:43Z</time></trkpt><trkpt lat="-23.704431" lon="-46.542865"><ele>794.0</ele><time>2017-02-14T09:25:49Z</time></trkpt><trkpt lat="-23.704523" lon="-46.54283"><ele>786.0</ele><time>2017-02-14T09:25:58Z</time></trkpt><trkpt lat="-23.704609" lon="-46.54288"><ele>788.0</ele><time>2017-02-14T09:26:12Z</time></trkpt><trkpt lat="-23.7047" lon="-46.542882"><ele>784.0</ele><time>2017-02-14T09:26:21Z</time></trkpt><trkpt lat="-23.704777" lon="-46.542937"><ele>787.0</ele><time>2017-02-14T09:26:31Z</time></trkpt><trkpt lat="-23.70487" lon="-46.542964"><ele>786.0</ele><time>2017-02-14T09:26:40Z</time></trkpt><trkpt lat="-23.704932" lon="-46.543043"><ele>788.0</ele><time>2017-02-14T09:26:50Z</time></trkpt><trkpt lat="-23.705014" lon="-46.543093"><ele>799.0</ele><time>2017-02-14T09:27:04Z</time></trkpt><trkpt lat="-23.705092" lon="-46.543156"><ele>804.0</ele><time>2017-02-14T09:27:15Z</time></trkpt><trkpt lat="-23.705136" lon="-46.543244"><ele>803.0</ele><time>2017-02-14T09:27:20Z</time></trkpt><trkpt lat="-23.705206" lon="-46.54332"><ele>796.0</ele><time>2017-02-14T09:27:31Z</time></trkpt><trkpt lat="-23.705298" lon="-46.543311"><ele>796.0</ele><time>2017-02-14T09:27:40Z</time></trkpt><trkpt lat="-23.705384" lon="-46.543347"><ele>796.0</ele><time>2017-02-14T09:27:52Z</time></trkpt><trkpt lat="-23.705483" lon="-46.54336"><ele>795.0</ele><time>2017-02-14T09:28:02Z</time></trkpt><trkpt lat="-23.705575" lon="-46.543377"><ele>797.0</ele><time>2017-02-14T09:28:11Z</time></trkpt><trkpt lat="-23.705668" lon="-46.543413"><ele>800.0</ele><time>2017-02-14T09:28:23Z</time></trkpt><trkpt lat="-23.705759" lon="-46.543436"><ele>804.0</ele><time>2017-02-14T09:28:34Z</time></trkpt><trkpt lat="-23.705851" lon="-46.54343"><ele>799.0</ele><time>2017-02-14T09:28:44Z</time></trkpt><trkpt lat="-23.705908" lon="-46.543522"><ele>797.0</ele><time>2017-02-14T09:28:51Z</time></trkpt><trkpt lat="-23.706001" lon="-46.543534"><ele>796.0</ele><time>2017-02-14T09:29:51Z</time></trkpt><trkpt lat="-23.706086" lon="-46.543595"><ele>799.0</ele><time>2017-02-14T09:29:59Z</time></trkpt><trkpt lat="-23.706154" lon="-46.543667"><ele>796.0</ele><time>2017-02-14T09:30:08Z</time></trkpt><trkpt lat="-23.706247" lon="-46.543681"><ele>800.0</ele><time>2017-02-14T09:30:29Z</time></trkpt><trkpt lat="-23.706347" lon="-46.543699"><ele>797.0</ele><time>2017-02-14T09:30:40Z</time></trkpt><trkpt lat="-23.706408" lon="-46.543778"><ele>800.0</ele><time>2017-02-14T09:30:50Z</time></trkpt><trkpt lat="-23.706421" lon="-46.543675"><ele>803.0</ele><time>2017-02-14T09:32:23Z</time></trkpt><trkpt lat="-23.706463" lon="-46.543581"><ele>804.0</ele><time>2017-02-14T09:32:31Z</time></trkpt><trkpt lat="-23.706525" lon="-46.543498"><ele>799.0</ele><time>2017-02-14T09:32:39Z</time></trkpt><trkpt lat="-23.706579" lon="-46.543417"><ele>794.0</ele><time>2017-02-14T09:32:47Z</time></trkpt><trkpt lat="-23.706625" lon="-46.543327"><ele>797.0</ele><time>2017-02-14T09:32:56Z</time></trkpt><trkpt lat="-23.706664" lon="-46.543232"><ele>798.0</ele><time>2017-02-14T09:33:05Z</time></trkpt><trkpt lat="-23.706704" lon="-46.543139"><ele>798.0</ele><time>2017-02-14T09:33:14Z</time></trkpt><trkpt lat="-23.706745" lon="-46.543051"><ele>798.0</ele><time>2017-02-14T09:33:23Z</time></trkpt><trkpt lat="-23.70677" lon="-46.542956"><ele>801.0</ele><time>2017-02-14T09:33:32Z</time></trkpt><trkpt lat="-23.706826" lon="-46.542872"><ele>807.0</ele><time>2017-02-14T09:33:40Z</time></trkpt><trkpt lat="-23.706865" lon="-46.542778"><ele>804.0</ele><time>2017-02-14T09:33:48Z</time></trkpt><trkpt lat="-23.70691" lon="-46.542685"><ele>805.0</ele><time>2017-02-14T09:33:58Z</time></trkpt><trkpt lat="-23.706958" lon="-46.542588"><ele>802.0</ele><time>2017-02-14T09:34:07Z</time></trkpt><trkpt lat="-23.706991" lon="-46.542482"><ele>802.0</ele><time>2017-02-14T09:34:15Z</time></trkpt><trkpt lat="-23.707044" lon="-46.542396"><ele>806.0</ele><time>2017-02-14T09:34:21Z</time></trkpt><trkpt lat="-23.707074" lon="-46.542294"><ele>805.0</ele><time>2017-02-14T09:34:30Z</time></trkpt><trkpt lat="-23.707099" lon="-46.542188"><ele>808.0</ele><time>2017-02-14T09:34:43Z</time></trkpt><trkpt lat="-23.707162" lon="-46.542107"><ele>812.0</ele><time>2017-02-14T09:34:51Z</time></trkpt><trkpt lat="-23.707216" lon="-46.542021"><ele>812.0</ele><time>2017-02-14T09:34:58Z</time></trkpt><trkpt lat="-23.707172" lon="-46.541935"><ele>807.0</ele><time>2017-02-14T09:35:08Z</time></trkpt><trkpt lat="-23.707204" lon="-46.541834"><ele>807.0</ele><time>2017-02-14T09:35:18Z</time></trkpt><trkpt lat="-23.70724" lon="-46.541742"><ele>805.0</ele><time>2017-02-14T09:35:32Z</time></trkpt><trkpt lat="-23.707224" lon="-46.54164"><ele>797.0</ele><time>2017-02-14T09:35:44Z</time></trkpt><trkpt lat="-23.70729" lon="-46.541573"><ele>803.0</ele><time>2017-02-14T09:35:51Z</time></trkpt><trkpt lat="-23.707354" lon="-46.541494"><ele>806.0</ele><time>2017-02-14T09:36:01Z</time></trkpt><trkpt lat="-23.707292" lon="-46.541407"><ele>805.0</ele><time>2017-02-14T09:36:36Z</time></trkpt><trkpt lat="-23.707245" lon="-46.541317"><ele>800.0</ele><time>2017-02-14T09:36:45Z</time></trkpt><trkpt lat="-23.707337" lon="-46.541345"><ele>799.0</ele><time>2017-02-14T10:08:55Z</time></trkpt><trkpt lat="-23.707427" lon="-46.541363"><ele>799.0</ele><time>2017-02-14T10:09:10Z</time></trkpt><trkpt lat="-23.707519" lon="-46.541339"><ele>800.0</ele><time>2017-02-14T10:09:22Z</time></trkpt><trkpt lat="-23.707611" lon="-46.541305"><ele>805.0</ele><time>2017-02-14T10:09:55Z</time></trkpt><trkpt lat="-23.707703" lon="-46.541278"><ele>798.0</ele><time>2017-02-14T10:10:01Z</time></trkpt><trkpt lat="-23.707774" lon="-46.541211"><ele>800.0</ele><time>2017-02-14T10:10:06Z</time></trkpt><trkpt lat="-23.707849" lon="-46.541144"><ele>800.0</ele><time>2017-02-14T10:10:14Z</time></trkpt><trkpt lat="-23.707932" lon="-46.541098"><ele>799.0</ele><time>2017-02-14T10:10:24Z</time></trkpt><trkpt lat="-23.708003" lon="-46.541028"><ele>800.0</ele><time>2017-02-14T10:10:30Z</time></trkpt><trkpt lat="-23.708081" lon="-46.540977"><ele>803.0</ele><time>2017-02-14T10:10:39Z</time></trkpt><trkpt lat="-23.708162" lon="-46.540924"><ele>801.0</ele><time>2017-02-14T10:10:52Z</time></trkpt><trkpt lat="-23.708235" lon="-46.540863"><ele>804.0</ele><time>2017-02-14T10:11:01Z</time></trkpt><trkpt lat="-23.708301" lon="-46.540785"><ele>808.0</ele><time>2017-02-14T10:11:11Z</time></trkpt><trkpt lat="-23.708411" lon="-46.540808"><ele>810.0</ele><time>2017-02-14T10:11:24Z</time></trkpt><trkpt lat="-23.708502" lon="-46.540782"><ele>809.0</ele><time>2017-02-14T10:11:31Z</time></trkpt><trkpt lat="-23.708593" lon="-46.540782"><ele>805.0</ele><time>2017-02-14T10:11:43Z</time></trkpt><trkpt lat="-23.708648" lon="-46.540864"><ele>806.0</ele><time>2017-02-14T10:11:54Z</time></trkpt><trkpt lat="-23.708695" lon="-46.540951"><ele>802.0</ele><time>2017-02-14T10:12:03Z</time></trkpt><trkpt lat="-23.708776" lon="-46.541022"><ele>799.0</ele><time>2017-02-14T10:12:13Z</time></trkpt><trkpt lat="-23.708857" lon="-46.541074"><ele>797.0</ele><time>2017-02-14T10:12:22Z</time></trkpt><trkpt lat="-23.708935" lon="-46.541131"><ele>797.0</ele><time>2017-02-14T10:12:30Z</time></trkpt><trkpt lat="-23.709028" lon="-46.54117"><ele>797.0</ele><time>2017-02-14T10:12:39Z</time></trkpt><trkpt lat="-23.70911" lon="-46.541221"><ele>798.0</ele><time>2017-02-14T10:12:44Z</time></trkpt><trkpt lat="-23.709192" lon="-46.541267"><ele>796.0</ele><time>2017-02-14T10:12:53Z</time></trkpt><trkpt lat="-23.709292" lon="-46.541299"><ele>793.0</ele><time>2017-02-14T10:13:04Z</time></trkpt><trkpt lat="-23.709407" lon="-46.541294"><ele>796.0</ele><time>2017-02-14T10:13:13Z</time></trkpt><trkpt lat="-23.709501" lon="-46.541307"><ele>796.0</ele><time>2017-02-14T10:13:21Z</time></trkpt><trkpt lat="-23.709594" lon="-46.541327"><ele>792.0</ele><time>2017-02-14T10:13:30Z</time></trkpt><trkpt lat="-23.709685" lon="-46.541284"><ele>791.0</ele><time>2017-02-14T10:13:39Z</time></trkpt><trkpt lat="-23.70975" lon="-46.541211"><ele>794.0</ele><time>2017-02-14T10:13:48Z</time></trkpt><trkpt lat="-23.709791" lon="-46.541119"><ele>790.0</ele><time>2017-02-14T10:13:55Z</time></trkpt><trkpt lat="-23.709891" lon="-46.541131"><ele>794.0</ele><time>2017-02-14T10:14:03Z</time></trkpt><trkpt lat="-23.709985" lon="-46.541111"><ele>792.0</ele><time>2017-02-14T10:14:20Z</time></trkpt><trkpt lat="-23.710061" lon="-46.541167"><ele>787.0</ele><time>2017-02-14T10:14:26Z</time></trkpt><trkpt lat="-23.710146" lon="-46.541224"><ele>784.0</ele><time>2017-02-14T10:14:40Z</time></trkpt><trkpt lat="-23.710237" lon="-46.541264"><ele>783.0</ele><time>2017-02-14T10:14:48Z</time></trkpt><trkpt lat="-23.710325" lon="-46.541297"><ele>787.0</ele><time>2017-02-14T10:14:59Z</time></trkpt><trkpt lat="-23.710414" lon="-46.541349"><ele>789.0</ele><time>2017-02-14T10:15:08Z</time></trkpt><trkpt lat="-23.71051" lon="-46.541376"><ele>785.0</ele><time>2017-02-14T10:15:17Z</time></trkpt><trkpt lat="-23.710593" lon="-46.541421"><ele>779.0</ele><time>2017-02-14T10:15:27Z</time></trkpt><trkpt lat="-23.710626" lon="-46.541513"><ele>782.0</ele><time>2017-02-14T10:15:35Z</time></trkpt><trkpt lat="-23.71067" lon="-46.541602"><ele>786.0</ele><time>2017-02-14T10:15:42Z</time></trkpt><trkpt lat="-23.71076" lon="-46.541626"><ele>786.0</ele><time>2017-02-14T10:15:54Z</time></trkpt><trkpt lat="-23.710843" lon="-46.541677"><ele>785.0</ele><time>2017-02-14T10:16:06Z</time></trkpt><trkpt lat="-23.710919" lon="-46.541735"><ele>782.0</ele><time>2017-02-14T10:16:19Z</time></trkpt><trkpt lat="-23.711001" lon="-46.541787"><ele>783.0</ele><time>2017-02-14T10:16:34Z</time></trkpt><trkpt lat="-23.711075" lon="-46.54185"><ele>786.0</ele><time>2017-02-14T10:16:45Z</time></trkpt><trkpt lat="-23.711159" lon="-46.541894"><ele>784.0</ele><time>2017-02-14T10:16:59Z</time></trkpt><trkpt lat="-23.711206" lon="-46.54198"><ele>788.0</ele><time>2017-02-14T10:17:08Z</time></trkpt><trkpt lat="-23.711266" lon="-46.542058"><ele>788.0</ele><time>2017-02-14T10:17:17Z</time></trkpt><trkpt lat="-23.711364" lon="-46.542092"><ele>788.0</ele><time>2017-02-14T10:17:35Z</time></trkpt><trkpt lat="-23.711404" lon="-46.542181"><ele>790.0</ele><time>2017-02-14T10:17:56Z</time></trkpt><trkpt lat="-23.71147" lon="-46.542248"><ele>788.0</ele><time>2017-02-14T10:18:33Z</time></trkpt><trkpt lat="-23.711542" lon="-46.542327"><ele>786.0</ele><time>2017-02-14T10:18:39Z</time></trkpt><trkpt lat="-23.711617" lon="-46.542396"><ele>795.0</ele><time>2017-02-14T10:18:43Z</time></trkpt><trkpt lat="-23.711689" lon="-46.542467"><ele>790.0</ele><time>2017-02-14T10:18:46Z</time></trkpt><trkpt lat="-23.711769" lon="-46.542518"><ele>782.0</ele><time>2017-02-14T10:18:49Z</time></trkpt><trkpt lat="-23.711856" lon="-46.542578"><ele>786.0</ele><time>2017-02-14T10:18:53Z</time></trkpt><trkpt lat="-23.711925" lon="-46.542653"><ele>792.0</ele><time>2017-02-14T10:18:59Z</time></trkpt><trkpt lat="-23.711993" lon="-46.542718"><ele>786.0</ele><time>2017-02-14T10:19:08Z</time></trkpt><trkpt lat="-23.712086" lon="-46.542744"><ele>785.0</ele><time>2017-02-14T10:19:19Z</time></trkpt><trkpt lat="-23.712163" lon="-46.542804"><ele>786.0</ele><time>2017-02-14T10:19:53Z</time></trkpt><trkpt lat="-23.712254" lon="-46.542812"><ele>784.0</ele><time>2017-02-14T10:20:10Z</time></trkpt><trkpt lat="-23.712327" lon="-46.542879"><ele>784.0</ele><time>2017-02-14T10:20:23Z</time></trkpt><trkpt lat="-23.712409" lon="-46.542805"><ele>781.0</ele><time>2017-02-14T10:21:09Z</time></trkpt><trkpt lat="-23.71245" lon="-46.542697"><ele>778.0</ele><time>2017-02-14T10:21:14Z</time></trkpt><trkpt lat="-23.712508" lon="-46.54261"><ele>779.0</ele><time>2017-02-14T10:21:21Z</time></trkpt><trkpt lat="-23.71257" lon="-46.54253"><ele>781.0</ele><time>2017-02-14T10:21:28Z</time></trkpt><trkpt lat="-23.712629" lon="-46.542443"><ele>783.0</ele><time>2017-02-14T10:21:38Z</time></trkpt><trkpt lat="-23.712726" lon="-46.542463"><ele>782.0</ele><time>2017-02-14T10:21:51Z</time></trkpt><trkpt lat="-23.712819" lon="-46.542497"><ele>788.0</ele><time>2017-02-14T10:21:55Z</time></trkpt><trkpt lat="-23.712922" lon="-46.542511"><ele>796.0</ele><time>2017-02-14T10:22:00Z</time></trkpt><trkpt lat="-23.713006" lon="-46.542557"><ele>798.0</ele><time>2017-02-14T10:22:08Z</time></trkpt><trkpt lat="-23.7131" lon="-46.542589"><ele>799.0</ele><time>2017-02-14T10:22:19Z</time></trkpt><trkpt lat="-23.713164" lon="-46.542671"><ele>801.0</ele><time>2017-02-14T10:22:28Z</time></trkpt><trkpt lat="-23.713223" lon="-46.542756"><ele>797.0</ele><time>2017-02-14T10:22:36Z</time></trkpt><trkpt lat="-23.7133" lon="-46.542703"><ele>784.0</ele><time>2017-02-14T10:23:26Z</time></trkpt><trkpt lat="-23.713379" lon="-46.542773"><ele>782.0</ele><time>2017-02-14T10:23:35Z</time></trkpt><trkpt lat="-23.713466" lon="-46.5428"><ele>778.0</ele><time>2017-02-14T10:23:46Z</time></trkpt><trkpt lat="-23.713464" lon="-46.542694"><ele>777.0</ele><time>2017-02-14T10:23:56Z</time></trkpt><trkpt lat="-23.71253" lon="-46.542384"><ele>775.0</ele><time>2017-02-14T10:24:53Z</time></trkpt><trkpt lat="-23.713545" lon="-46.542777"><ele>774.0</ele><time>2017-02-14T10:26:29Z</time></trkpt><trkpt lat="-23.713445" lon="-46.542803"><ele>784.0</ele><time>2017-02-14T10:26:33Z</time></trkpt><trkpt lat="-23.713348" lon="-46.542873"><ele>783.0</ele><time>2017-02-14T10:26:37Z</time></trkpt><trkpt lat="-23.713438" lon="-46.54286"><ele>787.0</ele><time>2017-02-14T10:26:43Z</time></trkpt><trkpt lat="-23.713604" lon="-46.542944"><ele>781.0</ele><time>2017-02-14T10:29:07Z</time></trkpt><trkpt lat="-23.713527" lon="-46.542891"><ele>784.0</ele><time>2017-02-14T10:29:10Z</time></trkpt><trkpt lat="-23.713535" lon="-46.542994"><ele>787.0</ele><time>2017-02-14T10:32:11Z</time></trkpt><trkpt lat="-23.713546" lon="-46.543102"><ele>794.0</ele><time>2017-02-14T10:32:21Z</time></trkpt><trkpt lat="-23.713633" lon="-46.543134"><ele>790.0</ele><time>2017-02-14T10:32:30Z</time></trkpt><trkpt lat="-23.71365" lon="-46.543248"><ele>791.0</ele><time>2017-02-14T10:32:42Z</time></trkpt><trkpt lat="-23.713734" lon="-46.543307"><ele>796.0</ele><time>2017-02-14T10:32:58Z</time></trkpt><trkpt lat="-23.713814" lon="-46.543353"><ele>793.0</ele><time>2017-02-14T10:33:31Z</time></trkpt><trkpt lat="-23.713891" lon="-46.543406"><ele>794.0</ele><time>2017-02-14T10:33:38Z</time></trkpt><trkpt lat="-23.713936" lon="-46.543494"><ele>802.0</ele><time>2017-02-14T10:33:47Z</time></trkpt><trkpt lat="-23.714012" lon="-46.543546"><ele>808.0</ele><time>2017-02-14T10:33:53Z</time></trkpt><trkpt lat="-23.714077" lon="-46.543615"><ele>814.0</ele><time>2017-02-14T10:34:03Z</time></trkpt><trkpt lat="-23.714132" lon="-46.543527"><ele>798.0</ele><time>2017-02-14T10:34:45Z</time></trkpt><trkpt lat="-23.714199" lon="-46.543456"><ele>788.0</ele><time>2017-02-14T10:35:00Z</time></trkpt><trkpt lat="-23.714278" lon="-46.543406"><ele>791.0</ele><time>2017-02-14T10:35:11Z</time></trkpt><trkpt lat="-23.714353" lon="-46.543348"><ele>790.0</ele><time>2017-02-14T10:35:20Z</time></trkpt><trkpt lat="-23.714461" lon="-46.543385"><ele>792.0</ele><time>2017-02-14T10:35:49Z</time></trkpt><trkpt lat="-23.714551" lon="-46.54342"><ele>796.0</ele><time>2017-02-14T10:35:53Z</time></trkpt><trkpt lat="-23.714635" lon="-46.54348"><ele>793.0</ele><time>2017-02-14T10:36:03Z</time></trkpt><trkpt lat="-23.714715" lon="-46.543528"><ele>794.0</ele><time>2017-02-14T10:36:11Z</time></trkpt><trkpt lat="-23.71475" lon="-46.543627"><ele>803.0</ele><time>2017-02-14T10:36:26Z</time></trkpt><trkpt lat="-23.714838" lon="-46.543657"><ele>806.0</ele><time>2017-02-14T10:37:45Z</time></trkpt><trkpt lat="-23.714877" lon="-46.543749"><ele>802.0</ele><time>2017-02-14T10:38:15Z</time></trkpt><trkpt lat="-23.714957" lon="-46.543826"><ele>796.0</ele><time>2017-02-14T10:38:19Z</time></trkpt><trkpt lat="-23.71503" lon="-46.54389"><ele>795.0</ele><time>2017-02-14T10:38:23Z</time></trkpt><trkpt lat="-23.715092" lon="-46.543961"><ele>792.0</ele><time>2017-02-14T10:38:28Z</time></trkpt><trkpt lat="-23.715162" lon="-46.544031"><ele>799.0</ele><time>2017-02-14T10:38:35Z</time></trkpt><trkpt lat="-23.715208" lon="-46.544116"><ele>800.0</ele><time>2017-02-14T10:38:42Z</time></trkpt><trkpt lat="-23.715255" lon="-46.544202"><ele>807.0</ele><time>2017-02-14T10:38:51Z</time></trkpt><trkpt lat="-23.715319" lon="-46.54428"><ele>803.0</ele><time>2017-02-14T10:39:01Z</time></trkpt><trkpt lat="-23.715399" lon="-46.544213"><ele>800.0</ele><time>2017-02-14T10:39:05Z</time></trkpt><trkpt lat="-23.715476" lon="-46.544162"><ele>799.0</ele><time>2017-02-14T10:39:09Z</time></trkpt><trkpt lat="-23.715516" lon="-46.54426"><ele>793.0</ele><time>2017-02-14T10:39:17Z</time></trkpt><trkpt lat="-23.71556" lon="-46.544352"><ele>797.0</ele><time>2017-02-14T10:39:32Z</time></trkpt><trkpt lat="-23.715606" lon="-46.54444"><ele>795.0</ele><time>2017-02-14T10:39:43Z</time></trkpt><trkpt lat="-23.715687" lon="-46.544487"><ele>795.0</ele><time>2017-02-14T10:39:51Z</time></trkpt><trkpt lat="-23.715765" lon="-46.544563"><ele>789.0</ele><time>2017-02-14T10:39:57Z</time></trkpt><trkpt lat="-23.715853" lon="-46.544619"><ele>788.0</ele><time>2017-02-14T10:40:02Z</time></trkpt><trkpt lat="-23.715921" lon="-46.544702"><ele>788.0</ele><time>2017-02-14T10:40:09Z</time></trkpt><trkpt lat="-23.716023" lon="-46.544729"><ele>791.0</ele><time>2017-02-14T10:40:14Z</time></trkpt><trkpt lat="-23.716096" lon="-46.544789"><ele>794.0</ele><time>2017-02-14T10:40:24Z</time></trkpt><trkpt lat="-23.716151" lon="-46.544885"><ele>799.0</ele><time>2017-02-14T10:40:42Z</time></trkpt><trkpt lat="-23.716233" lon="-46.544953"><ele>792.0</ele><time>2017-02-14T10:40:49Z</time></trkpt><trkpt lat="-23.716307" lon="-46.545023"><ele>796.0</ele><time>2017-02-14T10:40:56Z</time></trkpt><trkpt lat="-23.716363" lon="-46.545101"><ele>789.0</ele><time>2017-02-14T10:41:51Z</time></trkpt><trkpt lat="-23.716452" lon="-46.545136"><ele>787.0</ele><time>2017-02-14T10:42:02Z</time></trkpt><trkpt lat="-23.716545" lon="-46.54514"><ele>793.0</ele><time>2017-02-14T10:42:12Z</time></trkpt><trkpt lat="-23.716584" lon="-46.545229"><ele>794.0</ele><time>2017-02-14T10:42:20Z</time></trkpt><trkpt lat="-23.716631" lon="-46.545327"><ele>795.0</ele><time>2017-02-14T10:42:28Z</time></trkpt><trkpt lat="-23.716723" lon="-46.545301"><ele>794.0</ele><time>2017-02-14T10:42:42Z</time></trkpt><trkpt lat="-23.716802" lon="-46.545366"><ele>796.0</ele><time>2017-02-14T10:42:50Z</time></trkpt><trkpt lat="-23.716884" lon="-46.545431"><ele>797.0</ele><time>2017-02-14T10:42:58Z</time></trkpt><trkpt lat="-23.716873" lon="-46.545532"><ele>790.0</ele><time>2017-02-14T10:43:31Z</time></trkpt><trkpt lat="-23.716971" lon="-46.54561"><ele>789.0</ele><time>2017-02-14T10:43:35Z</time></trkpt><trkpt lat="-23.717055" lon="-46.545681"><ele>788.0</ele><time>2017-02-14T10:43:38Z</time></trkpt><trkpt lat="-23.717128" lon="-46.545774"><ele>789.0</ele><time>2017-02-14T10:43:42Z</time></trkpt><trkpt lat="-23.717228" lon="-46.545837"><ele>796.0</ele><time>2017-02-14T10:43:47Z</time></trkpt><trkpt lat="-23.71731" lon="-46.545892"><ele>787.0</ele><time>2017-02-14T10:44:03Z</time></trkpt><trkpt lat="-23.717307" lon="-46.546006"><ele>787.0</ele><time>2017-02-14T10:44:08Z</time></trkpt><trkpt lat="-23.717315" lon="-46.546104"><ele>792.0</ele><time>2017-02-14T10:44:13Z</time></trkpt><trkpt lat="-23.717408" lon="-46.546067"><ele>790.0</ele><time>2017-02-14T10:44:56Z</time></trkpt><trkpt lat="-23.71748" lon="-46.54615"><ele>800.0</ele><time>2017-02-14T10:45:01Z</time></trkpt><trkpt lat="-23.717534" lon="-46.546234"><ele>799.0</ele><time>2017-02-14T10:45:07Z</time></trkpt><trkpt lat="-23.717635" lon="-46.546247"><ele>796.0</ele><time>2017-02-14T10:45:15Z</time></trkpt><trkpt lat="-23.717708" lon="-46.546308"><ele>793.0</ele><time>2017-02-14T10:45:24Z</time></trkpt><trkpt lat="-23.717799" lon="-46.54631"><ele>784.0</ele><time>2017-02-14T10:45:34Z</time></trkpt><trkpt lat="-23.717814" lon="-46.546211"><ele>783.0</ele><time>2017-02-14T10:45:40Z</time></trkpt><trkpt lat="-23.717854" lon="-46.546114"><ele>779.0</ele><time>2017-02-14T10:45:47Z</time></trkpt><trkpt lat="-23.717921" lon="-46.546042"><ele>781.0</ele><time>2017-02-14T10:45:57Z</time></trkpt><trkpt lat="-23.718005" lon="-46.545988"><ele>785.0</ele><time>2017-02-14T10:46:11Z</time></trkpt><trkpt lat="-23.718095" lon="-46.545959"><ele>781.0</ele><time>2017-02-14T10:46:22Z</time></trkpt><trkpt lat="-23.718196" lon="-46.545934"><ele>785.0</ele><time>2017-02-14T10:46:30Z</time></trkpt><trkpt lat="-23.718263" lon="-46.54586"><ele>784.0</ele><time>2017-02-14T10:46:35Z</time></trkpt><trkpt lat="-23.718354" lon="-46.545847"><ele>784.0</ele><time>2017-02-14T10:46:42Z</time></trkpt><trkpt lat="-23.718413" lon="-46.545937"><ele>785.0</ele><time>2017-02-14T10:46:50Z</time></trkpt><trkpt lat="-23.718465" lon="-46.546022"><ele>787.0</ele><time>2017-02-14T10:46:57Z</time></trkpt><trkpt lat="-23.718512" lon="-46.546115"><ele>788.0</ele><time>2017-02-14T10:47:05Z</time></trkpt><trkpt lat="-23.718598" lon="-46.546172"><ele>787.0</ele><time>2017-02-14T10:47:18Z</time></trkpt><trkpt lat="-23.718624" lon="-46.546269"><ele>791.0</ele><time>2017-02-14T10:47:31Z</time></trkpt><trkpt lat="-23.71865" lon="-46.546365"><ele>793.0</ele><time>2017-02-14T10:47:46Z</time></trkpt><trkpt lat="-23.718691" lon="-46.54646"><ele>783.0</ele><time>2017-02-14T10:47:54Z</time></trkpt><trkpt lat="-23.718802" lon="-46.546494"><ele>784.0</ele><time>2017-02-14T10:47:59Z</time></trkpt><trkpt lat="-23.718828" lon="-46.546605"><ele>790.0</ele><time>2017-02-14T10:48:07Z</time></trkpt><trkpt lat="-23.718859" lon="-46.546711"><ele>783.0</ele><time>2017-02-14T10:48:17Z</time></trkpt><trkpt lat="-23.718912" lon="-46.546794"><ele>782.0</ele><time>2017-02-14T10:48:22Z</time></trkpt><trkpt lat="-23.718961" lon="-46.546884"><ele>783.0</ele><time>2017-02-14T10:48:31Z</time></trkpt><trkpt lat="-23.718966" lon="-46.546989"><ele>782.0</ele><time>2017-02-14T10:48:38Z</time></trkpt><trkpt lat="-23.718915" lon="-46.54708"><ele>780.0</ele><time>2017-02-14T10:48:46Z</time></trkpt><trkpt lat="-23.71889" lon="-46.547178"><ele>773.0</ele><time>2017-02-14T10:48:56Z</time></trkpt><trkpt lat="-23.718872" lon="-46.547283"><ele>777.0</ele><time>2017-02-14T10:49:06Z</time></trkpt><trkpt lat="-23.718819" lon="-46.547377"><ele>778.0</ele><time>2017-02-14T10:49:11Z</time></trkpt><trkpt lat="-23.718897" lon="-46.547442"><ele>777.0</ele><time>2017-02-14T10:49:20Z</time></trkpt><trkpt lat="-23.718982" lon="-46.547404"><ele>776.0</ele><time>2017-02-14T10:49:30Z</time></trkpt><trkpt lat="-23.719077" lon="-46.5474"><ele>776.0</ele><time>2017-02-14T10:49:41Z</time></trkpt><trkpt lat="-23.719174" lon="-46.547395"><ele>775.0</ele><time>2017-02-14T10:49:46Z</time></trkpt><trkpt lat="-23.719271" lon="-46.547413"><ele>779.0</ele><time>2017-02-14T10:49:52Z</time></trkpt><trkpt lat="-23.71937" lon="-46.547442"><ele>774.0</ele><time>2017-02-14T10:50:56Z</time></trkpt><trkpt lat="-23.719459" lon="-46.547463"><ele>785.0</ele><time>2017-02-14T10:51:25Z</time></trkpt><trkpt lat="-23.719545" lon="-46.547427"><ele>783.0</ele><time>2017-02-14T10:51:31Z</time></trkpt><trkpt lat="-23.719638" lon="-46.547448"><ele>793.0</ele><time>2017-02-14T10:51:37Z</time></trkpt><trkpt lat="-23.719732" lon="-46.547476"><ele>786.0</ele><time>2017-02-14T10:51:44Z</time></trkpt><trkpt lat="-23.719819" lon="-46.547528"><ele>786.0</ele><time>2017-02-14T10:51:52Z</time></trkpt><trkpt lat="-23.719878" lon="-46.547608"><ele>792.0</ele><time>2017-02-14T10:52:05Z</time></trkpt><trkpt lat="-23.719968" lon="-46.547623"><ele>796.0</ele><time>2017-02-14T10:52:21Z</time></trkpt><trkpt lat="-23.720058" lon="-46.547614"><ele>791.0</ele><time>2017-02-14T10:52:28Z</time></trkpt><trkpt lat="-23.720138" lon="-46.547561"><ele>790.0</ele><time>2017-02-14T10:52:37Z</time></trkpt><trkpt lat="-23.720226" lon="-46.547608"><ele>788.0</ele><time>2017-02-14T10:53:22Z</time></trkpt><trkpt lat="-23.720307" lon="-46.547659"><ele>785.0</ele><time>2017-02-14T10:53:40Z</time></trkpt><trkpt lat="-23.720404" lon="-46.547697"><ele>787.0</ele><time>2017-02-14T10:53:57Z</time></trkpt><trkpt lat="-23.720468" lon="-46.547785"><ele>790.0</ele><time>2017-02-14T10:54:03Z</time></trkpt><trkpt lat="-23.720543" lon="-46.547854"><ele>786.0</ele><time>2017-02-14T10:54:08Z</time></trkpt><trkpt lat="-23.720622" lon="-46.547905"><ele>781.0</ele><time>2017-02-14T10:54:14Z</time></trkpt><trkpt lat="-23.720721" lon="-46.547914"><ele>782.0</ele><time>2017-02-14T10:54:27Z</time></trkpt><trkpt lat="-23.72081" lon="-46.54795"><ele>791.0</ele><time>2017-02-14T10:55:07Z</time></trkpt><trkpt lat="-23.720865" lon="-46.547872"><ele>785.0</ele><time>2017-02-14T10:55:37Z</time></trkpt><trkpt lat="-23.720919" lon="-46.547788"><ele>788.0</ele><time>2017-02-14T10:55:42Z</time></trkpt><trkpt lat="-23.720982" lon="-46.547712"><ele>785.0</ele><time>2017-02-14T10:55:48Z</time></trkpt><trkpt lat="-23.721051" lon="-46.547639"><ele>784.0</ele><time>2017-02-14T10:55:55Z</time></trkpt><trkpt lat="-23.721099" lon="-46.547551"><ele>786.0</ele><time>2017-02-14T10:56:02Z</time></trkpt><trkpt lat="-23.721159" lon="-46.547464"><ele>786.0</ele><time>2017-02-14T10:56:08Z</time></trkpt><trkpt lat="-23.721174" lon="-46.547571"><ele>775.0</ele><time>2017-02-14T10:56:30Z</time></trkpt><trkpt lat="-23.721201" lon="-46.547473"><ele>778.0</ele><time>2017-02-14T10:56:35Z</time></trkpt><trkpt lat="-23.721244" lon="-46.547382"><ele>778.0</ele><time>2017-02-14T10:56:37Z</time></trkpt><trkpt lat="-23.721411" lon="-46.547137"><ele>777.0</ele><time>2017-02-14T10:56:38Z</time></trkpt><trkpt lat="-23.721564" lon="-46.547016"><ele>773.0</ele><time>2017-02-14T10:56:41Z</time></trkpt><trkpt lat="-23.721528" lon="-46.547116"><ele>771.0</ele><time>2017-02-14T10:56:43Z</time></trkpt><trkpt lat="-23.721449" lon="-46.547206"><ele>773.0</ele><time>2017-02-14T10:56:45Z</time></trkpt><trkpt lat="-23.721572" lon="-46.547203"><ele>773.0</ele><time>2017-02-14T10:56:47Z</time></trkpt><trkpt lat="-23.721588" lon="-46.547104"><ele>772.0</ele><time>2017-02-14T10:56:50Z</time></trkpt><trkpt lat="-23.721261" lon="-46.547399"><ele>774.0</ele><time>2017-02-14T10:56:54Z</time></trkpt><trkpt lat="-23.721184" lon="-46.547515"><ele>777.0</ele><time>2017-02-14T10:56:55Z</time></trkpt><trkpt lat="-23.720996" lon="-46.547823"><ele>780.0</ele><time>2017-02-14T10:56:56Z</time></trkpt><trkpt lat="-23.721065" lon="-46.547681"><ele>780.0</ele><time>2017-02-14T10:56:57Z</time></trkpt><trkpt lat="-23.721063" lon="-46.547796"><ele>778.0</ele><time>2017-02-14T10:56:59Z</time></trkpt><trkpt lat="-23.721041" lon="-46.547907"><ele>773.0</ele><time>2017-02-14T10:57:03Z</time></trkpt><trkpt lat="-23.721124" lon="-46.547686"><ele>776.0</ele><time>2017-02-14T10:57:07Z</time></trkpt><trkpt lat="-23.721162" lon="-46.547589"><ele>780.0</ele><time>2017-02-14T10:57:46Z</time></trkpt><trkpt lat="-23.721164" lon="-46.547491"><ele>777.0</ele><time>2017-02-14T11:07:55Z</time></trkpt><trkpt lat="-23.721193" lon="-46.547398"><ele>787.0</ele><time>2017-02-14T11:19:38Z</time></trkpt><trkpt lat="-23.721243" lon="-46.547297"><ele>790.0</ele><time>2017-02-14T11:19:47Z</time></trkpt><trkpt lat="-23.72129" lon="-46.547197"><ele>788.0</ele><time>2017-02-14T11:19:53Z</time></trkpt><trkpt lat="-23.721372" lon="-46.547145"><ele>780.0</ele><time>2017-02-14T11:20:01Z</time></trkpt><trkpt lat="-23.721418" lon="-46.547045"><ele>783.0</ele><time>2017-02-14T11:20:06Z</time></trkpt><trkpt lat="-23.721476" lon="-46.546962"><ele>780.0</ele><time>2017-02-14T11:20:13Z</time></trkpt><trkpt lat="-23.721507" lon="-46.546854"><ele>785.0</ele><time>2017-02-14T11:20:29Z</time></trkpt><trkpt lat="-23.721575" lon="-46.546786"><ele>783.0</ele><time>2017-02-14T11:20:35Z</time></trkpt><trkpt lat="-23.72162" lon="-46.546693"><ele>782.0</ele><time>2017-02-14T11:20:45Z</time></trkpt><trkpt lat="-23.721667" lon="-46.546605"><ele>781.0</ele><time>2017-02-14T11:20:54Z</time></trkpt><trkpt lat="-23.721697" lon="-46.54651"><ele>783.0</ele><time>2017-02-14T11:21:02Z</time></trkpt><trkpt lat="-23.721762" lon="-46.546441"><ele>784.0</ele><time>2017-02-14T11:21:10Z</time></trkpt><trkpt lat="-23.721838" lon="-46.546378"><ele>778.0</ele><time>2017-02-14T11:21:17Z</time></trkpt><trkpt lat="-23.721932" lon="-46.546378"><ele>775.0</ele><time>2017-02-14T11:25:50Z</time></trkpt><trkpt lat="-23.721988" lon="-46.546296"><ele>769.0</ele><time>2017-02-14T11:26:47Z</time></trkpt><trkpt lat="-23.72203" lon="-46.546181"><ele>764.0</ele><time>2017-02-14T11:26:52Z</time></trkpt><trkpt lat="-23.722077" lon="-46.546094"><ele>769.0</ele><time>2017-02-14T11:27:01Z</time></trkpt><trkpt lat="-23.722135" lon="-46.546008"><ele>770.0</ele><time>2017-02-14T11:27:12Z</time></trkpt><trkpt lat="-23.722196" lon="-46.545934"><ele>771.0</ele><time>2017-02-14T11:27:20Z</time></trkpt><trkpt lat="-23.722279" lon="-46.545884"><ele>771.0</ele><time>2017-02-14T11:27:27Z</time></trkpt><trkpt lat="-23.722251" lon="-46.54579"><ele>779.0</ele><time>2017-02-14T11:28:15Z</time></trkpt><trkpt lat="-23.722221" lon="-46.545685"><ele>770.0</ele><time>2017-02-14T11:29:18Z</time></trkpt><trkpt lat="-23.722252" lon="-46.545567"><ele>771.0</ele><time>2017-02-14T11:29:22Z</time></trkpt><trkpt lat="-23.722287" lon="-46.545461"><ele>772.0</ele><time>2017-02-14T11:29:26Z</time></trkpt><trkpt lat="-23.722326" lon="-46.545365"><ele>770.0</ele><time>2017-02-14T11:29:31Z</time></trkpt><trkpt lat="-23.72234" lon="-46.545258"><ele>775.0</ele><time>2017-02-14T11:29:39Z</time></trkpt><trkpt lat="-23.722413" lon="-46.545176"><ele>777.0</ele><time>2017-02-14T11:29:49Z</time></trkpt><trkpt lat="-23.722496" lon="-46.545122"><ele>779.0</ele><time>2017-02-14T11:29:56Z</time></trkpt><trkpt lat="-23.722423" lon="-46.545033"><ele>780.0</ele><time>2017-02-14T11:30:02Z</time></trkpt><trkpt lat="-23.722421" lon="-46.544925"><ele>776.0</ele><time>2017-02-14T11:30:11Z</time></trkpt><trkpt lat="-23.722377" lon="-46.544837"><ele>774.0</ele><time>2017-02-14T11:30:20Z</time></trkpt><trkpt lat="-23.722324" lon="-46.54474"><ele>771.0</ele><time>2017-02-14T11:30:28Z</time></trkpt><trkpt lat="-23.722306" lon="-46.544632"><ele>768.0</ele><time>2017-02-14T11:30:35Z</time></trkpt><trkpt lat="-23.722296" lon="-46.544529"><ele>770.0</ele><time>2017-02-14T11:30:42Z</time></trkpt><trkpt lat="-23.722303" lon="-46.544421"><ele>770.0</ele><time>2017-02-14T11:30:50Z</time></trkpt><trkpt lat="-23.722386" lon="-46.544361"><ele>772.0</ele><time>2017-02-14T11:31:37Z</time></trkpt><trkpt lat="-23.722445" lon="-46.544285"><ele>772.0</ele><time>2017-02-14T11:31:43Z</time></trkpt><trkpt lat="-23.722453" lon="-46.544174"><ele>774.0</ele><time>2017-02-14T11:31:51Z</time></trkpt><trkpt lat="-23.722445" lon="-46.544068"><ele>773.0</ele><time>2017-02-14T11:31:59Z</time></trkpt><trkpt lat="-23.722451" lon="-46.543963"><ele>773.0</ele><time>2017-02-14T11:32:07Z</time></trkpt><trkpt lat="-23.722467" lon="-46.543864"><ele>769.0</ele><time>2017-02-14T11:32:16Z</time></trkpt><trkpt lat="-23.722512" lon="-46.543779"><ele>760.0</ele><time>2017-02-14T11:32:23Z</time></trkpt><trkpt lat="-23.722485" lon="-46.543685"><ele>759.0</ele><time>2017-02-14T11:32:32Z</time></trkpt><trkpt lat="-23.722436" lon="-46.5436"><ele>757.0</ele><time>2017-02-14T11:32:41Z</time></trkpt><trkpt lat="-23.72242" lon="-46.543489"><ele>760.0</ele><time>2017-02-14T11:32:47Z</time></trkpt><trkpt lat="-23.722407" lon="-46.543389"><ele>768.0</ele><time>2017-02-14T11:33:02Z</time></trkpt><trkpt lat="-23.722395" lon="-46.54329"><ele>771.0</ele><time>2017-02-14T11:33:08Z</time></trkpt><trkpt lat="-23.722353" lon="-46.543186"><ele>773.0</ele><time>2017-02-14T11:33:12Z</time></trkpt><trkpt lat="-23.722334" lon="-46.543077"><ele>776.0</ele><time>2017-02-14T11:33:18Z</time></trkpt><trkpt lat="-23.72237" lon="-46.542984"><ele>770.0</ele><time>2017-02-14T11:33:28Z</time></trkpt><trkpt lat="-23.722351" lon="-46.542882"><ele>769.0</ele><time>2017-02-14T11:33:38Z</time></trkpt><trkpt lat="-23.722419" lon="-46.542813"><ele>774.0</ele><time>2017-02-14T11:33:48Z</time></trkpt><trkpt lat="-23.722512" lon="-46.54281"><ele>780.0</ele><time>2017-02-14T11:35:49Z</time></trkpt><trkpt lat="-23.722557" lon="-46.542898"><ele>782.0</ele><time>2017-02-14T11:35:57Z</time></trkpt><trkpt lat="-23.722656" lon="-46.542851"><ele>778.0</ele><time>2017-02-14T11:36:02Z</time></trkpt><trkpt lat="-23.72274" lon="-46.542806"><ele>778.0</ele><time>2017-02-14T11:36:13Z</time></trkpt><trkpt lat="-23.72283" lon="-46.542854"><ele>770.0</ele><time>2017-02-14T11:36:36Z</time></trkpt><trkpt lat="-23.722982" lon="-46.543548"><ele>768.0</ele><time>2017-02-14T12:05:12Z</time></trkpt><trkpt lat="-23.723156" lon="-46.543506"><ele>768.0</ele><time>2017-02-14T12:05:14Z</time></trkpt><trkpt lat="-23.723296" lon="-46.54343"><ele>769.0</ele><time>2017-02-14T12:05:15Z</time></trkpt><trkpt lat="-23.722922" lon="-46.54334"><ele>709.0</ele><time>2017-02-14T12:48:35Z</time></trkpt><trkpt lat="-23.723044" lon="-46.543025"><ele>759.0</ele><time>2017-02-14T12:50:03Z</time></trkpt><trkpt lat="-23.722938" lon="-46.543016"><ele>778.0</ele><time>2017-02-14T12:50:08Z</time></trkpt><trkpt lat="-23.722852" lon="-46.543046"><ele>788.0</ele><time>2017-02-14T12:59:01Z</time></trkpt><trkpt lat="-23.722776" lon="-46.543106"><ele>790.0</ele><time>2017-02-14T13:13:25Z</time></trkpt><trkpt lat="-23.722594" lon="-46.544417"><ele>801.0</ele><time>2017-02-14T15:11:30Z</time></trkpt><trkpt lat="-23.722781" lon="-46.544364"><ele>795.0</ele><time>2017-02-14T15:11:31Z</time></trkpt><trkpt lat="-23.722802" lon="-46.544462"><ele>778.0</ele><time>2017-02-14T15:11:50Z</time></trkpt><trkpt lat="-23.722798" lon="-46.544567"><ele>777.0</ele><time>2017-02-14T15:12:02Z</time></trkpt><trkpt lat="-23.72282" lon="-46.544664"><ele>774.0</ele><time>2017-02-14T15:12:11Z</time></trkpt><trkpt lat="-23.722786" lon="-46.544763"><ele>772.0</ele><time>2017-02-14T15:12:21Z</time></trkpt><trkpt lat="-23.7228" lon="-46.544864"><ele>769.0</ele><time>2017-02-14T15:12:31Z</time></trkpt><trkpt lat="-23.722803" lon="-46.544971"><ele>770.0</ele><time>2017-02-14T15:12:40Z</time></trkpt><trkpt lat="-23.722826" lon="-46.545067"><ele>771.0</ele><time>2017-02-14T15:12:48Z</time></trkpt><trkpt lat="-23.722791" lon="-46.545168"><ele>770.0</ele><time>2017-02-14T15:12:55Z</time></trkpt><trkpt lat="-23.722718" lon="-46.545235"><ele>771.0</ele><time>2017-02-14T15:13:06Z</time></trkpt><trkpt lat="-23.72262" lon="-46.545236"><ele>771.0</ele><time>2017-02-14T15:13:15Z</time></trkpt><trkpt lat="-23.722539" lon="-46.54529"><ele>768.0</ele><time>2017-02-14T15:13:23Z</time></trkpt><trkpt lat="-23.722485" lon="-46.545376"><ele>765.0</ele><time>2017-02-14T15:13:31Z</time></trkpt><trkpt lat="-23.72247" lon="-46.54548"><ele>765.0</ele><time>2017-02-14T15:13:40Z</time></trkpt><trkpt lat="-23.722462" lon="-46.545581"><ele>766.0</ele><time>2017-02-14T15:13:48Z</time></trkpt><trkpt lat="-23.72242" lon="-46.54567"><ele>768.0</ele><time>2017-02-14T15:14:26Z</time></trkpt><trkpt lat="-23.722389" lon="-46.545766"><ele>768.0</ele><time>2017-02-14T15:14:32Z</time></trkpt><trkpt lat="-23.722399" lon="-46.545871"><ele>766.0</ele><time>2017-02-14T15:14:40Z</time></trkpt><trkpt lat="-23.722373" lon="-46.545975"><ele>767.0</ele><time>2017-02-14T15:14:48Z</time></trkpt><trkpt lat="-23.722337" lon="-46.546066"><ele>771.0</ele><time>2017-02-14T15:14:56Z</time></trkpt><trkpt lat="-23.722315" lon="-46.546163"><ele>771.0</ele><time>2017-02-14T15:15:03Z</time></trkpt><trkpt lat="-23.722284" lon="-46.546259"><ele>773.0</ele><time>2017-02-14T15:15:10Z</time></trkpt><trkpt lat="-23.722247" lon="-46.546354"><ele>772.0</ele><time>2017-02-14T15:15:19Z</time></trkpt><trkpt lat="-23.722217" lon="-46.54645"><ele>769.0</ele><time>2017-02-14T15:15:30Z</time></trkpt><trkpt lat="-23.722187" lon="-46.546548"><ele>773.0</ele><time>2017-02-14T15:15:40Z</time></trkpt><trkpt lat="-23.72216" lon="-46.54665"><ele>770.0</ele><time>2017-02-14T15:15:51Z</time></trkpt><trkpt lat="-23.722122" lon="-46.54675"><ele>776.0</ele><time>2017-02-14T15:16:01Z</time></trkpt><trkpt lat="-23.722106" lon="-46.546849"><ele>778.0</ele><time>2017-02-14T15:16:11Z</time></trkpt><trkpt lat="-23.72208" lon="-46.546947"><ele>779.0</ele><time>2017-02-14T15:16:21Z</time></trkpt><trkpt lat="-23.722062" lon="-46.547052"><ele>782.0</ele><time>2017-02-14T15:16:32Z</time></trkpt><trkpt lat="-23.722055" lon="-46.54715"><ele>782.0</ele><time>2017-02-14T15:16:42Z</time></trkpt><trkpt lat="-23.722029" lon="-46.54725"><ele>779.0</ele><time>2017-02-14T15:16:55Z</time></trkpt><trkpt lat="-23.722" lon="-46.547347"><ele>780.0</ele><time>2017-02-14T15:17:07Z</time></trkpt><trkpt lat="-23.72197" lon="-46.547447"><ele>773.0</ele><time>2017-02-14T15:17:19Z</time></trkpt><trkpt lat="-23.721936" lon="-46.547543"><ele>770.0</ele><time>2017-02-14T15:17:30Z</time></trkpt><trkpt lat="-23.721896" lon="-46.547632"><ele>769.0</ele><time>2017-02-14T15:17:41Z</time></trkpt><trkpt lat="-23.72186" lon="-46.547729"><ele>770.0</ele><time>2017-02-14T15:17:52Z</time></trkpt><trkpt lat="-23.72184" lon="-46.547832"><ele>769.0</ele><time>2017-02-14T15:18:02Z</time></trkpt><trkpt lat="-23.721843" lon="-46.547931"><ele>770.0</ele><time>2017-02-14T15:18:11Z</time></trkpt><trkpt lat="-23.721836" lon="-46.548036"><ele>773.0</ele><time>2017-02-14T15:18:17Z</time></trkpt><trkpt lat="-23.72181" lon="-46.548155"><ele>773.0</ele><time>2017-02-14T15:18:26Z</time></trkpt><trkpt lat="-23.72177" lon="-46.548245"><ele>777.0</ele><time>2017-02-14T15:18:35Z</time></trkpt><trkpt lat="-23.721727" lon="-46.548332"><ele>774.0</ele><time>2017-02-14T15:18:45Z</time></trkpt><trkpt lat="-23.721708" lon="-46.548431"><ele>773.0</ele><time>2017-02-14T15:18:53Z</time></trkpt><trkpt lat="-23.72169" lon="-46.548537"><ele>778.0</ele><time>2017-02-14T15:19:03Z</time></trkpt><trkpt lat="-23.721685" lon="-46.548655"><ele>775.0</ele><time>2017-02-14T15:19:11Z</time></trkpt><trkpt lat="-23.72168" lon="-46.548756"><ele>770.0</ele><time>2017-02-14T15:19:22Z</time></trkpt><trkpt lat="-23.721698" lon="-46.54886"><ele>767.0</ele><time>2017-02-14T15:19:33Z</time></trkpt><trkpt lat="-23.721723" lon="-46.548964"><ele>766.0</ele><time>2017-02-14T15:19:45Z</time></trkpt><trkpt lat="-23.72176" lon="-46.549057"><ele>763.0</ele><time>2017-02-14T15:19:55Z</time></trkpt><trkpt lat="-23.721793" lon="-46.549157"><ele>772.0</ele><time>2017-02-14T15:21:57Z</time></trkpt><trkpt lat="-23.721883" lon="-46.549186"><ele>766.0</ele><time>2017-02-14T15:22:03Z</time></trkpt><trkpt lat="-23.72196" lon="-46.54925"><ele>762.0</ele><time>2017-02-14T15:22:09Z</time></trkpt><trkpt lat="-23.722045" lon="-46.549306"><ele>763.0</ele><time>2017-02-14T15:22:17Z</time></trkpt><trkpt lat="-23.722141" lon="-46.54934"><ele>764.0</ele><time>2017-02-14T15:22:56Z</time></trkpt><trkpt lat="-23.72223" lon="-46.549323"><ele>762.0</ele><time>2017-02-14T15:24:04Z</time></trkpt><trkpt lat="-23.722324" lon="-46.549299"><ele>765.0</ele><time>2017-02-14T15:24:16Z</time></trkpt><trkpt lat="-23.722414" lon="-46.549305"><ele>767.0</ele><time>2017-02-14T15:24:30Z</time></trkpt><trkpt lat="-23.722518" lon="-46.549303"><ele>767.0</ele><time>2017-02-14T15:24:42Z</time></trkpt><trkpt lat="-23.722619" lon="-46.549313"><ele>768.0</ele><time>2017-02-14T15:24:47Z</time></trkpt><trkpt lat="-23.722718" lon="-46.549313"><ele>767.0</ele><time>2017-02-14T15:24:55Z</time></trkpt><trkpt lat="-23.722818" lon="-46.549317"><ele>763.0</ele><time>2017-02-14T15:25:24Z</time></trkpt><trkpt lat="-23.72291" lon="-46.549301"><ele>764.0</ele><time>2017-02-14T15:25:33Z</time></trkpt><trkpt lat="-23.723013" lon="-46.549299"><ele>762.0</ele><time>2017-02-14T15:25:41Z</time></trkpt><trkpt lat="-23.723089" lon="-46.549374"><ele>763.0</ele><time>2017-02-14T15:25:49Z</time></trkpt><trkpt lat="-23.723152" lon="-46.54945"><ele>764.0</ele><time>2017-02-14T15:25:56Z</time></trkpt><trkpt lat="-23.723218" lon="-46.549529"><ele>764.0</ele><time>2017-02-14T15:26:05Z</time></trkpt><trkpt lat="-23.72329" lon="-46.549608"><ele>769.0</ele><time>2017-02-14T15:26:33Z</time></trkpt><trkpt lat="-23.723331" lon="-46.549703"><ele>769.0</ele><time>2017-02-14T15:26:39Z</time></trkpt><trkpt lat="-23.723318" lon="-46.549802"><ele>770.0</ele><time>2017-02-14T15:26:48Z</time></trkpt><trkpt lat="-23.723348" lon="-46.549905"><ele>769.0</ele><time>2017-02-14T15:26:56Z</time></trkpt><trkpt lat="-23.723358" lon="-46.550007"><ele>762.0</ele><time>2017-02-14T15:27:08Z</time></trkpt><trkpt lat="-23.723378" lon="-46.550111"><ele>762.0</ele><time>2017-02-14T15:27:37Z</time></trkpt><trkpt lat="-23.723434" lon="-46.550201"><ele>761.0</ele><time>2017-02-14T15:27:45Z</time></trkpt><trkpt lat="-23.723491" lon="-46.550283"><ele>761.0</ele><time>2017-02-14T15:27:52Z</time></trkpt><trkpt lat="-23.723475" lon="-46.550406"><ele>763.0</ele><time>2017-02-14T15:28:03Z</time></trkpt><trkpt lat="-23.723469" lon="-46.550507"><ele>762.0</ele><time>2017-02-14T15:28:09Z</time></trkpt><trkpt lat="-23.723521" lon="-46.5506"><ele>765.0</ele><time>2017-02-14T15:28:19Z</time></trkpt><trkpt lat="-23.72358" lon="-46.550683"><ele>766.0</ele><time>2017-02-14T15:28:28Z</time></trkpt><trkpt lat="-23.723632" lon="-46.550769"><ele>766.0</ele><time>2017-02-14T15:28:37Z</time></trkpt><trkpt lat="-23.723688" lon="-46.55085"><ele>768.0</ele><time>2017-02-14T15:28:46Z</time></trkpt><trkpt lat="-23.723746" lon="-46.550932"><ele>768.0</ele><time>2017-02-14T15:28:55Z</time></trkpt><trkpt lat="-23.723834" lon="-46.550973"><ele>771.0</ele><time>2017-02-14T15:29:21Z</time></trkpt><trkpt lat="-23.723905" lon="-46.551041"><ele>772.0</ele><time>2017-02-14T15:29:30Z</time></trkpt><trkpt lat="-23.723964" lon="-46.551129"><ele>771.0</ele><time>2017-02-14T15:29:38Z</time></trkpt><trkpt lat="-23.724026" lon="-46.551201"><ele>774.0</ele><time>2017-02-14T15:30:00Z</time></trkpt><trkpt lat="-23.724083" lon="-46.551279"><ele>773.0</ele><time>2017-02-14T15:30:09Z</time></trkpt><trkpt lat="-23.724137" lon="-46.551364"><ele>770.0</ele><time>2017-02-14T15:30:19Z</time></trkpt><trkpt lat="-23.724204" lon="-46.551441"><ele>774.0</ele><time>2017-02-14T15:30:35Z</time></trkpt><trkpt lat="-23.724266" lon="-46.551515"><ele>777.0</ele><time>2017-02-14T15:30:44Z</time></trkpt><trkpt lat="-23.72433" lon="-46.551599"><ele>776.0</ele><time>2017-02-14T15:30:53Z</time></trkpt><trkpt lat="-23.724392" lon="-46.551675"><ele>776.0</ele><time>2017-02-14T15:31:01Z</time></trkpt><trkpt lat="-23.724462" lon="-46.551748"><ele>774.0</ele><time>2017-02-14T15:31:08Z</time></trkpt><trkpt lat="-23.724526" lon="-46.551819"><ele>774.0</ele><time>2017-02-14T15:31:16Z</time></trkpt><trkpt lat="-23.724632" lon="-46.551894"><ele>774.0</ele><time>2017-02-14T15:31:28Z</time></trkpt><trkpt lat="-23.724632" lon="-46.551894"><ele>774.0</ele><time>2017-02-14T15:31:28Z</time></trkpt><trkpt lat="-23.724632" lon="-46.551894"><ele>774.0</ele><time>2017-02-14T15:31:28Z</time></trkpt><trkpt lat="-23.724707" lon="-46.551949"><ele>776.0</ele><time>2017-02-14T15:32:37Z</time></trkpt><trkpt lat="-23.724782" lon="-46.552008"><ele>778.0</ele><time>2017-02-14T15:32:45Z</time></trkpt><trkpt lat="-23.724868" lon="-46.552049"><ele>778.0</ele><time>2017-02-14T15:32:54Z</time></trkpt><trkpt lat="-23.724971" lon="-46.55205"><ele>777.0</ele><time>2017-02-14T15:33:06Z</time></trkpt><trkpt lat="-23.725068" lon="-46.552054"><ele>776.0</ele><time>2017-02-14T15:33:14Z</time></trkpt><trkpt lat="-23.725151" lon="-46.552007"><ele>775.0</ele><time>2017-02-14T15:33:22Z</time></trkpt><trkpt lat="-23.725225" lon="-46.551939"><ele>775.0</ele><time>2017-02-14T15:33:30Z</time></trkpt><trkpt lat="-23.725287" lon="-46.551859"><ele>774.0</ele><time>2017-02-14T15:33:39Z</time></trkpt><trkpt lat="-23.725363" lon="-46.551786"><ele>773.0</ele><time>2017-02-14T15:33:53Z</time></trkpt><trkpt lat="-23.725435" lon="-46.55171"><ele>772.0</ele><time>2017-02-14T15:34:00Z</time></trkpt><trkpt lat="-23.725505" lon="-46.551635"><ele>772.0</ele><time>2017-02-14T15:34:07Z</time></trkpt><trkpt lat="-23.725565" lon="-46.551549"><ele>771.0</ele><time>2017-02-14T15:34:15Z</time></trkpt><trkpt lat="-23.725621" lon="-46.55147"><ele>771.0</ele><time>2017-02-14T15:34:24Z</time></trkpt><trkpt lat="-23.725677" lon="-46.55139"><ele>768.0</ele><time>2017-02-14T15:34:32Z</time></trkpt><trkpt lat="-23.725753" lon="-46.551323"><ele>770.0</ele><time>2017-02-14T15:34:40Z</time></trkpt><trkpt lat="-23.725837" lon="-46.551262"><ele>772.0</ele><time>2017-02-14T15:34:47Z</time></trkpt><trkpt lat="-23.72593" lon="-46.551225"><ele>771.0</ele><time>2017-02-14T15:34:56Z</time></trkpt><trkpt lat="-23.726013" lon="-46.551175"><ele>772.0</ele><time>2017-02-14T15:35:29Z</time></trkpt><trkpt lat="-23.726111" lon="-46.551186"><ele>773.0</ele><time>2017-02-14T15:35:40Z</time></trkpt><trkpt lat="-23.72621" lon="-46.551212"><ele>776.0</ele><time>2017-02-14T15:35:49Z</time></trkpt><trkpt lat="-23.726288" lon="-46.551261"><ele>772.0</ele><time>2017-02-14T15:36:41Z</time></trkpt><trkpt lat="-23.726297" lon="-46.551367"><ele>773.0</ele><time>2017-02-14T15:36:53Z</time></trkpt><trkpt lat="-23.726308" lon="-46.551475"><ele>766.0</ele><time>2017-02-14T15:37:01Z</time></trkpt><trkpt lat="-23.726342" lon="-46.551571"><ele>770.0</ele><time>2017-02-14T15:37:09Z</time></trkpt><trkpt lat="-23.726301" lon="-46.551661"><ele>774.0</ele><time>2017-02-14T15:37:50Z</time></trkpt><trkpt lat="-23.726234" lon="-46.551733"><ele>776.0</ele><time>2017-02-14T15:38:04Z</time></trkpt><trkpt lat="-23.726152" lon="-46.551781"><ele>775.0</ele><time>2017-02-14T15:38:16Z</time></trkpt><trkpt lat="-23.726162" lon="-46.551884"><ele>775.0</ele><time>2017-02-14T15:38:43Z</time></trkpt><trkpt lat="-23.726153" lon="-46.551991"><ele>770.0</ele><time>2017-02-14T15:38:51Z</time></trkpt><trkpt lat="-23.726126" lon="-46.55209"><ele>771.0</ele><time>2017-02-14T15:38:59Z</time></trkpt><trkpt lat="-23.726125" lon="-46.552193"><ele>778.0</ele><time>2017-02-14T15:39:09Z</time></trkpt><trkpt lat="-23.726114" lon="-46.552293"><ele>777.0</ele><time>2017-02-14T15:39:21Z</time></trkpt><trkpt lat="-23.72605" lon="-46.552365"><ele>780.0</ele><time>2017-02-14T15:39:37Z</time></trkpt><trkpt lat="-23.72597" lon="-46.552428"><ele>781.0</ele><time>2017-02-14T15:39:51Z</time></trkpt><trkpt lat="-23.725884" lon="-46.55246"><ele>782.0</ele><time>2017-02-14T15:40:00Z</time></trkpt><trkpt lat="-23.725786" lon="-46.552481"><ele>788.0</ele><time>2017-02-14T15:40:17Z</time></trkpt><trkpt lat="-23.72569" lon="-46.552475"><ele>788.0</ele><time>2017-02-14T15:40:23Z</time></trkpt><trkpt lat="-23.72561" lon="-46.55253"><ele>787.0</ele><time>2017-02-14T15:40:41Z</time></trkpt><trkpt lat="-23.725519" lon="-46.552524"><ele>794.0</ele><time>2017-02-14T15:40:52Z</time></trkpt><trkpt lat="-23.725428" lon="-46.55255"><ele>800.0</ele><time>2017-02-14T15:41:03Z</time></trkpt><trkpt lat="-23.725331" lon="-46.552545"><ele>793.0</ele><time>2017-02-14T15:41:45Z</time></trkpt><trkpt lat="-23.725243" lon="-46.552595"><ele>795.0</ele><time>2017-02-14T15:41:54Z</time></trkpt><trkpt lat="-23.725169" lon="-46.552657"><ele>794.0</ele><time>2017-02-14T15:42:04Z</time></trkpt><trkpt lat="-23.725262" lon="-46.55267"><ele>805.0</ele><time>2017-02-14T15:46:06Z</time></trkpt><trkpt lat="-23.725348" lon="-46.552632"><ele>805.0</ele><time>2017-02-14T15:46:10Z</time></trkpt><trkpt lat="-23.725441" lon="-46.552589"><ele>803.0</ele><time>2017-02-14T15:46:15Z</time></trkpt><trkpt lat="-23.725525" lon="-46.552542"><ele>807.0</ele><time>2017-02-14T15:46:22Z</time></trkpt><trkpt lat="-23.725623" lon="-46.552555"><ele>804.0</ele><time>2017-02-14T15:46:33Z</time></trkpt><trkpt lat="-23.725717" lon="-46.552561"><ele>807.0</ele><time>2017-02-14T15:46:46Z</time></trkpt><trkpt lat="-23.725814" lon="-46.55257"><ele>804.0</ele><time>2017-02-14T15:46:58Z</time></trkpt><trkpt lat="-23.725906" lon="-46.552543"><ele>801.0</ele><time>2017-02-14T15:47:06Z</time></trkpt><trkpt lat="-23.726" lon="-46.552529"><ele>795.0</ele><time>2017-02-14T15:47:13Z</time></trkpt><trkpt lat="-23.726093" lon="-46.552495"><ele>794.0</ele><time>2017-02-14T15:47:20Z</time></trkpt><trkpt lat="-23.726165" lon="-46.552435"><ele>794.0</ele><time>2017-02-14T15:47:29Z</time></trkpt><trkpt lat="-23.72621" lon="-46.552343"><ele>791.0</ele><time>2017-02-14T15:47:37Z</time></trkpt><trkpt lat="-23.726222" lon="-46.552242"><ele>788.0</ele><time>2017-02-14T15:47:45Z</time></trkpt><trkpt lat="-23.726234" lon="-46.552124"><ele>785.0</ele><time>2017-02-14T15:48:05Z</time></trkpt><trkpt lat="-23.726227" lon="-46.552013"><ele>781.0</ele><time>2017-02-14T15:48:12Z</time></trkpt><trkpt lat="-23.72619" lon="-46.55192"><ele>776.0</ele><time>2017-02-14T15:48:19Z</time></trkpt><trkpt lat="-23.7262" lon="-46.55182"><ele>771.0</ele><time>2017-02-14T15:49:07Z</time></trkpt><trkpt lat="-23.726223" lon="-46.551723"><ele>770.0</ele><time>2017-02-14T15:49:12Z</time></trkpt><trkpt lat="-23.726324" lon="-46.551751"><ele>774.0</ele><time>2017-02-14T15:49:24Z</time></trkpt><trkpt lat="-23.726422" lon="-46.551749"><ele>778.0</ele><time>2017-02-14T15:49:32Z</time></trkpt><trkpt lat="-23.726515" lon="-46.551731"><ele>772.0</ele><time>2017-02-14T15:49:45Z</time></trkpt><trkpt lat="-23.726609" lon="-46.551734"><ele>769.0</ele><time>2017-02-14T15:49:59Z</time></trkpt><trkpt lat="-23.726692" lon="-46.551677"><ele>769.0</ele><time>2017-02-14T15:50:07Z</time></trkpt><trkpt lat="-23.726783" lon="-46.551642"><ele>771.0</ele><time>2017-02-14T15:50:17Z</time></trkpt><trkpt lat="-23.726868" lon="-46.551605"><ele>770.0</ele><time>2017-02-14T15:50:24Z</time></trkpt><trkpt lat="-23.726959" lon="-46.551584"><ele>771.0</ele><time>2017-02-14T15:50:31Z</time></trkpt><trkpt lat="-23.727057" lon="-46.551584"><ele>778.0</ele><time>2017-02-14T15:50:38Z</time></trkpt><trkpt lat="-23.727151" lon="-46.551608"><ele>779.0</ele><time>2017-02-14T15:50:45Z</time></trkpt><trkpt lat="-23.72724" lon="-46.551582"><ele>780.0</ele><time>2017-02-14T15:50:54Z</time></trkpt><trkpt lat="-23.727329" lon="-46.551553"><ele>779.0</ele><time>2017-02-14T15:51:05Z</time></trkpt><trkpt lat="-23.727414" lon="-46.551522"><ele>781.0</ele><time>2017-02-14T15:51:14Z</time></trkpt><trkpt lat="-23.727505" lon="-46.551527"><ele>784.0</ele><time>2017-02-14T15:51:23Z</time></trkpt><trkpt lat="-23.727584" lon="-46.551468"><ele>782.0</ele><time>2017-02-14T15:51:32Z</time></trkpt><trkpt lat="-23.727678" lon="-46.55146"><ele>773.0</ele><time>2017-02-14T15:51:44Z</time></trkpt><trkpt lat="-23.727771" lon="-46.551495"><ele>769.0</ele><time>2017-02-14T15:51:55Z</time></trkpt><trkpt lat="-23.727842" lon="-46.551426"><ele>773.0</ele><time>2017-02-14T15:52:06Z</time></trkpt><trkpt lat="-23.727931" lon="-46.551405"><ele>775.0</ele><time>2017-02-14T15:52:13Z</time></trkpt><trkpt lat="-23.728016" lon="-46.551357"><ele>773.0</ele><time>2017-02-14T15:52:22Z</time></trkpt><trkpt lat="-23.728104" lon="-46.551322"><ele>773.0</ele><time>2017-02-14T15:52:29Z</time></trkpt><trkpt lat="-23.728196" lon="-46.551317"><ele>775.0</ele><time>2017-02-14T15:52:36Z</time></trkpt><trkpt lat="-23.72829" lon="-46.551303"><ele>776.0</ele><time>2017-02-14T15:52:44Z</time></trkpt><trkpt lat="-23.728382" lon="-46.551315"><ele>773.0</ele><time>2017-02-14T15:52:51Z</time></trkpt><trkpt lat="-23.728474" lon="-46.55132"><ele>771.0</ele><time>2017-02-14T15:52:59Z</time></trkpt><trkpt lat="-23.728568" lon="-46.551325"><ele>778.0</ele><time>2017-02-14T15:53:09Z</time></trkpt><trkpt lat="-23.72866" lon="-46.551351"><ele>769.0</ele><time>2017-02-14T15:53:21Z</time></trkpt><trkpt lat="-23.728753" lon="-46.551359"><ele>776.0</ele><time>2017-02-14T15:53:32Z</time></trkpt><trkpt lat="-23.728823" lon="-46.551426"><ele>779.0</ele><time>2017-02-14T15:53:40Z</time></trkpt><trkpt lat="-23.728914" lon="-46.551414"><ele>776.0</ele><time>2017-02-14T15:54:42Z</time></trkpt><trkpt lat="-23.728971" lon="-46.551504"><ele>762.0</ele><time>2017-02-14T15:55:30Z</time></trkpt><trkpt lat="-23.729006" lon="-46.551602"><ele>768.0</ele><time>2017-02-14T15:55:39Z</time></trkpt><trkpt lat="-23.728991" lon="-46.551707"><ele>769.0</ele><time>2017-02-14T15:55:50Z</time></trkpt><trkpt lat="-23.728981" lon="-46.551806"><ele>769.0</ele><time>2017-02-14T15:56:02Z</time></trkpt><trkpt lat="-23.729066" lon="-46.55176"><ele>764.0</ele><time>2017-02-14T15:56:25Z</time></trkpt><trkpt lat="-23.729016" lon="-46.551668"><ele>766.0</ele><time>2017-02-14T15:56:45Z</time></trkpt><trkpt lat="-23.728883" lon="-46.551672"><ele>764.0</ele><time>2017-02-14T15:56:57Z</time></trkpt><trkpt lat="-23.728774" lon="-46.551683"><ele>761.0</ele><time>2017-02-14T15:57:00Z</time></trkpt><trkpt lat="-23.728672" lon="-46.551471"><ele>757.0</ele><time>2017-02-14T15:57:11Z</time></trkpt><trkpt lat="-23.728813" lon="-46.551752"><ele>753.0</ele><time>2017-02-14T15:57:23Z</time></trkpt><trkpt lat="-23.728829" lon="-46.552026"><ele>745.0</ele><time>2017-02-14T15:57:45Z</time></trkpt><trkpt lat="-23.728505" lon="-46.552093"><ele>755.0</ele><time>2017-02-14T16:02:46Z</time></trkpt><trkpt lat="-23.728654" lon="-46.551676"><ele>747.0</ele><time>2017-02-14T16:04:22Z</time></trkpt><trkpt lat="-23.7287" lon="-46.551766"><ele>736.0</ele><time>2017-02-14T16:04:28Z</time></trkpt><trkpt lat="-23.728734" lon="-46.551673"><ele>722.0</ele><time>2017-02-14T16:05:38Z</time></trkpt><trkpt lat="-23.7289" lon="-46.551358"><ele>751.0</ele><time>2017-02-14T16:05:41Z</time></trkpt><trkpt lat="-23.728966" lon="-46.551466"><ele>757.0</ele><time>2017-02-14T16:05:44Z</time></trkpt><trkpt lat="-23.729" lon="-46.551573"><ele>760.0</ele><time>2017-02-14T16:05:48Z</time></trkpt><trkpt lat="-23.728898" lon="-46.551623"><ele>768.0</ele><time>2017-02-14T16:06:46Z</time></trkpt><trkpt lat="-23.728828" lon="-46.551686"><ele>768.0</ele><time>2017-02-14T16:06:49Z</time></trkpt><trkpt lat="-23.728765" lon="-46.55176"><ele>763.0</ele><time>2017-02-14T16:06:56Z</time></trkpt><trkpt lat="-23.728763" lon="-46.551864"><ele>766.0</ele><time>2017-02-14T16:07:10Z</time></trkpt><trkpt lat="-23.728745" lon="-46.551965"><ele>767.0</ele><time>2017-02-14T16:07:17Z</time></trkpt><trkpt lat="-23.728739" lon="-46.551667"><ele>781.0</ele><time>2017-02-14T16:07:41Z</time></trkpt><trkpt lat="-23.728813" lon="-46.551727"><ele>789.0</ele><time>2017-02-14T16:07:58Z</time></trkpt><trkpt lat="-23.7289" lon="-46.551754"><ele>785.0</ele><time>2017-02-14T16:08:24Z</time></trkpt><trkpt lat="-23.728951" lon="-46.551163"><ele>779.0</ele><time>2017-02-14T16:10:10Z</time></trkpt><trkpt lat="-23.728973" lon="-46.551543"><ele>771.0</ele><time>2017-02-14T16:10:12Z</time></trkpt><trkpt lat="-23.72896" lon="-46.551429"><ele>771.0</ele><time>2017-02-14T16:10:20Z</time></trkpt><trkpt lat="-23.729117" lon="-46.551973"><ele>778.0</ele><time>2017-02-14T16:10:35Z</time></trkpt><trkpt lat="-23.729027" lon="-46.552021"><ele>781.0</ele><time>2017-02-14T16:10:40Z</time></trkpt><trkpt lat="-23.728941" lon="-46.552079"><ele>781.0</ele><time>2017-02-14T16:10:50Z</time></trkpt><trkpt lat="-23.728887" lon="-46.552175"><ele>786.0</ele><time>2017-02-14T16:10:57Z</time></trkpt><trkpt lat="-23.728792" lon="-46.55221"><ele>791.0</ele><time>2017-02-14T16:11:02Z</time></trkpt><trkpt lat="-23.72869" lon="-46.552212"><ele>790.0</ele><time>2017-02-14T16:11:08Z</time></trkpt><trkpt lat="-23.7286" lon="-46.55222"><ele>787.0</ele><time>2017-02-14T16:11:15Z</time></trkpt><trkpt lat="-23.728808" lon="-46.552004"><ele>789.0</ele><time>2017-02-14T16:11:58Z</time></trkpt><trkpt lat="-23.728793" lon="-46.55211"><ele>788.0</ele><time>2017-02-14T16:12:03Z</time></trkpt><trkpt lat="-23.72856" lon="-46.552109"><ele>796.0</ele><time>2017-02-14T16:12:04Z</time></trkpt><trkpt lat="-23.728671" lon="-46.552084"><ele>800.0</ele><time>2017-02-14T16:14:14Z</time></trkpt><trkpt lat="-23.728775" lon="-46.552056"><ele>802.0</ele><time>2017-02-14T16:14:17Z</time></trkpt><trkpt lat="-23.728848" lon="-46.551981"><ele>798.0</ele><time>2017-02-14T16:14:24Z</time></trkpt><trkpt lat="-23.728919" lon="-46.551914"><ele>791.0</ele><time>2017-02-14T16:14:31Z</time></trkpt><trkpt lat="-23.72891" lon="-46.551806"><ele>795.0</ele><time>2017-02-14T16:14:49Z</time></trkpt><trkpt lat="-23.728844" lon="-46.551709"><ele>796.0</ele><time>2017-02-14T16:15:00Z</time></trkpt><trkpt lat="-23.728832" lon="-46.551598"><ele>794.0</ele><time>2017-02-14T16:15:03Z</time></trkpt><trkpt lat="-23.729156" lon="-46.550761"><ele>794.0</ele><time>2017-02-14T16:15:44Z</time></trkpt><trkpt lat="-23.729064" lon="-46.550816"><ele>795.0</ele><time>2017-02-14T16:15:51Z</time></trkpt><trkpt lat="-23.728999" lon="-46.550914"><ele>795.0</ele><time>2017-02-14T16:16:00Z</time></trkpt><trkpt lat="-23.728904" lon="-46.550953"><ele>795.0</ele><time>2017-02-14T16:16:06Z</time></trkpt><trkpt lat="-23.72701" lon="-46.55191"><ele>778.0</ele><time>2017-02-14T19:03:30Z</time></trkpt></trkseg></trk><trk><name><![CDATA[Demachi - Ilha Boreré]]></name><trkseg><trkpt lat="-23.728672" lon="-46.552068"><ele>774.0</ele><time>2017-02-15T07:02:03Z</time></trkpt><trkpt lat="-23.728732" lon="-46.551976"><ele>773.0</ele><time>2017-02-15T07:03:46Z</time></trkpt><trkpt lat="-23.728755" lon="-46.551873"><ele>777.0</ele><time>2017-02-15T07:03:52Z</time></trkpt><trkpt lat="-23.72887" lon="-46.551821"><ele>769.0</ele><time>2017-02-15T07:04:12Z</time></trkpt><trkpt lat="-23.728956" lon="-46.551756"><ele>771.0</ele><time>2017-02-15T07:04:16Z</time></trkpt><trkpt lat="-23.729034" lon="-46.551674"><ele>773.0</ele><time>2017-02-15T07:04:21Z</time></trkpt><trkpt lat="-23.729076" lon="-46.551581"><ele>771.0</ele><time>2017-02-15T07:04:29Z</time></trkpt><trkpt lat="-23.729148" lon="-46.551509"><ele>770.0</ele><time>2017-02-15T07:04:39Z</time></trkpt><trkpt lat="-23.729234" lon="-46.551541"><ele>767.0</ele><time>2017-02-15T07:04:48Z</time></trkpt><trkpt lat="-23.729319" lon="-46.551579"><ele>768.0</ele><time>2017-02-15T07:04:54Z</time></trkpt><trkpt lat="-23.7294" lon="-46.551629"><ele>764.0</ele><time>2017-02-15T07:05:04Z</time></trkpt><trkpt lat="-23.729487" lon="-46.551663"><ele>763.0</ele><time>2017-02-15T07:05:13Z</time></trkpt><trkpt lat="-23.72958" lon="-46.551708"><ele>763.0</ele><time>2017-02-15T07:05:19Z</time></trkpt><trkpt lat="-23.729659" lon="-46.551775"><ele>762.0</ele><time>2017-02-15T07:05:27Z</time></trkpt><trkpt lat="-23.729738" lon="-46.551823"><ele>760.0</ele><time>2017-02-15T07:05:34Z</time></trkpt><trkpt lat="-23.729834" lon="-46.551861"><ele>763.0</ele><time>2017-02-15T07:05:44Z</time></trkpt><trkpt lat="-23.729921" lon="-46.551905"><ele>763.0</ele><time>2017-02-15T07:05:51Z</time></trkpt><trkpt lat="-23.730022" lon="-46.551888"><ele>772.0</ele><time>2017-02-15T07:06:02Z</time></trkpt><trkpt lat="-23.7301" lon="-46.551973"><ele>767.0</ele><time>2017-02-15T07:06:09Z</time></trkpt><trkpt lat="-23.730173" lon="-46.552036"><ele>767.0</ele><time>2017-02-15T07:06:14Z</time></trkpt><trkpt lat="-23.730257" lon="-46.552073"><ele>765.0</ele><time>2017-02-15T07:06:21Z</time></trkpt><trkpt lat="-23.730338" lon="-46.552121"><ele>764.0</ele><time>2017-02-15T07:06:28Z</time></trkpt><trkpt lat="-23.730412" lon="-46.5522"><ele>765.0</ele><time>2017-02-15T07:06:36Z</time></trkpt><trkpt lat="-23.730504" lon="-46.552248"><ele>770.0</ele><time>2017-02-15T07:06:45Z</time></trkpt><trkpt lat="-23.730596" lon="-46.552258"><ele>769.0</ele><time>2017-02-15T07:06:53Z</time></trkpt><trkpt lat="-23.730689" lon="-46.552251"><ele>768.0</ele><time>2017-02-15T07:07:01Z</time></trkpt><trkpt lat="-23.730781" lon="-46.552278"><ele>768.0</ele><time>2017-02-15T07:07:09Z</time></trkpt><trkpt lat="-23.730869" lon="-46.552307"><ele>766.0</ele><time>2017-02-15T07:07:16Z</time></trkpt><trkpt lat="-23.730967" lon="-46.552331"><ele>766.0</ele><time>2017-02-15T07:07:24Z</time></trkpt><trkpt lat="-23.731062" lon="-46.552365"><ele>763.0</ele><time>2017-02-15T07:07:32Z</time></trkpt><trkpt lat="-23.73115" lon="-46.552387"><ele>764.0</ele><time>2017-02-15T07:07:40Z</time></trkpt><trkpt lat="-23.731254" lon="-46.552388"><ele>766.0</ele><time>2017-02-15T07:07:52Z</time></trkpt><trkpt lat="-23.731344" lon="-46.552372"><ele>764.0</ele><time>2017-02-15T07:07:58Z</time></trkpt><trkpt lat="-23.731439" lon="-46.55235"><ele>762.0</ele><time>2017-02-15T07:08:07Z</time></trkpt><trkpt lat="-23.731536" lon="-46.552367"><ele>762.0</ele><time>2017-02-15T07:08:13Z</time></trkpt><trkpt lat="-23.731611" lon="-46.552448"><ele>762.0</ele><time>2017-02-15T07:08:20Z</time></trkpt><trkpt lat="-23.731663" lon="-46.552542"><ele>764.0</ele><time>2017-02-15T07:08:25Z</time></trkpt><trkpt lat="-23.731676" lon="-46.552646"><ele>763.0</ele><time>2017-02-15T07:08:32Z</time></trkpt><trkpt lat="-23.731632" lon="-46.552737"><ele>762.0</ele><time>2017-02-15T07:08:38Z</time></trkpt><trkpt lat="-23.731629" lon="-46.55284"><ele>763.0</ele><time>2017-02-15T07:08:44Z</time></trkpt><trkpt lat="-23.731715" lon="-46.552898"><ele>770.0</ele><time>2017-02-15T07:08:51Z</time></trkpt><trkpt lat="-23.731776" lon="-46.552982"><ele>769.0</ele><time>2017-02-15T07:09:23Z</time></trkpt><trkpt lat="-23.73184" lon="-46.553051"><ele>773.0</ele><time>2017-02-15T07:09:46Z</time></trkpt><trkpt lat="-23.731849" lon="-46.553166"><ele>775.0</ele><time>2017-02-15T07:09:59Z</time></trkpt><trkpt lat="-23.731859" lon="-46.553276"><ele>770.0</ele><time>2017-02-15T07:10:03Z</time></trkpt><trkpt lat="-23.731864" lon="-46.553378"><ele>769.0</ele><time>2017-02-15T07:10:09Z</time></trkpt><trkpt lat="-23.731842" lon="-46.553478"><ele>769.0</ele><time>2017-02-15T07:10:15Z</time></trkpt><trkpt lat="-23.731847" lon="-46.553589"><ele>772.0</ele><time>2017-02-15T07:10:24Z</time></trkpt><trkpt lat="-23.731842" lon="-46.553691"><ele>769.0</ele><time>2017-02-15T07:10:32Z</time></trkpt><trkpt lat="-23.731884" lon="-46.55378"><ele>769.0</ele><time>2017-02-15T07:11:13Z</time></trkpt><trkpt lat="-23.731861" lon="-46.55388"><ele>768.0</ele><time>2017-02-15T07:11:20Z</time></trkpt><trkpt lat="-23.73184" lon="-46.553975"><ele>768.0</ele><time>2017-02-15T07:11:40Z</time></trkpt><trkpt lat="-23.731831" lon="-46.554093"><ele>771.0</ele><time>2017-02-15T07:12:15Z</time></trkpt><trkpt lat="-23.731829" lon="-46.554212"><ele>774.0</ele><time>2017-02-15T07:12:20Z</time></trkpt><trkpt lat="-23.731781" lon="-46.554297"><ele>779.0</ele><time>2017-02-15T07:12:25Z</time></trkpt><trkpt lat="-23.731742" lon="-46.554386"><ele>778.0</ele><time>2017-02-15T07:12:30Z</time></trkpt><trkpt lat="-23.731727" lon="-46.554486"><ele>775.0</ele><time>2017-02-15T07:12:39Z</time></trkpt><trkpt lat="-23.731804" lon="-46.554552"><ele>772.0</ele><time>2017-02-15T07:12:45Z</time></trkpt><trkpt lat="-23.731796" lon="-46.554649"><ele>775.0</ele><time>2017-02-15T07:12:50Z</time></trkpt><trkpt lat="-23.731768" lon="-46.554743"><ele>776.0</ele><time>2017-02-15T07:12:56Z</time></trkpt><trkpt lat="-23.731812" lon="-46.554832"><ele>776.0</ele><time>2017-02-15T07:13:03Z</time></trkpt><trkpt lat="-23.731892" lon="-46.554895"><ele>778.0</ele><time>2017-02-15T07:13:10Z</time></trkpt><trkpt lat="-23.731896" lon="-46.555"><ele>777.0</ele><time>2017-02-15T07:13:16Z</time></trkpt><trkpt lat="-23.731863" lon="-46.555094"><ele>770.0</ele><time>2017-02-15T07:13:23Z</time></trkpt><trkpt lat="-23.731831" lon="-46.555196"><ele>773.0</ele><time>2017-02-15T07:13:30Z</time></trkpt><trkpt lat="-23.73186" lon="-46.555292"><ele>776.0</ele><time>2017-02-15T07:13:38Z</time></trkpt><trkpt lat="-23.73189" lon="-46.555401"><ele>778.0</ele><time>2017-02-15T07:13:46Z</time></trkpt><trkpt lat="-23.731921" lon="-46.555504"><ele>775.0</ele><time>2017-02-15T07:13:55Z</time></trkpt><trkpt lat="-23.731901" lon="-46.555603"><ele>773.0</ele><time>2017-02-15T07:14:03Z</time></trkpt><trkpt lat="-23.7319" lon="-46.555701"><ele>771.0</ele><time>2017-02-15T07:14:10Z</time></trkpt><trkpt lat="-23.731926" lon="-46.555801"><ele>774.0</ele><time>2017-02-15T07:14:21Z</time></trkpt><trkpt lat="-23.731934" lon="-46.555911"><ele>778.0</ele><time>2017-02-15T07:14:28Z</time></trkpt><trkpt lat="-23.731977" lon="-46.555999"><ele>777.0</ele><time>2017-02-15T07:14:37Z</time></trkpt><trkpt lat="-23.731974" lon="-46.556098"><ele>771.0</ele><time>2017-02-15T07:14:45Z</time></trkpt><trkpt lat="-23.731961" lon="-46.556199"><ele>771.0</ele><time>2017-02-15T07:14:52Z</time></trkpt><trkpt lat="-23.731972" lon="-46.5563"><ele>775.0</ele><time>2017-02-15T07:15:01Z</time></trkpt><trkpt lat="-23.731973" lon="-46.556412"><ele>779.0</ele><time>2017-02-15T07:15:07Z</time></trkpt><trkpt lat="-23.731998" lon="-46.556513"><ele>778.0</ele><time>2017-02-15T07:15:15Z</time></trkpt><trkpt lat="-23.732022" lon="-46.556615"><ele>778.0</ele><time>2017-02-15T07:15:24Z</time></trkpt><trkpt lat="-23.732039" lon="-46.556724"><ele>775.0</ele><time>2017-02-15T07:15:34Z</time></trkpt><trkpt lat="-23.732036" lon="-46.556829"><ele>774.0</ele><time>2017-02-15T07:15:43Z</time></trkpt><trkpt lat="-23.732047" lon="-46.556939"><ele>777.0</ele><time>2017-02-15T07:16:08Z</time></trkpt><trkpt lat="-23.732058" lon="-46.557047"><ele>773.0</ele><time>2017-02-15T07:16:16Z</time></trkpt><trkpt lat="-23.732078" lon="-46.557144"><ele>770.0</ele><time>2017-02-15T07:16:26Z</time></trkpt><trkpt lat="-23.732093" lon="-46.557244"><ele>772.0</ele><time>2017-02-15T07:16:49Z</time></trkpt><trkpt lat="-23.732089" lon="-46.557352"><ele>773.0</ele><time>2017-02-15T07:16:58Z</time></trkpt><trkpt lat="-23.73206" lon="-46.557453"><ele>773.0</ele><time>2017-02-15T07:17:07Z</time></trkpt><trkpt lat="-23.732053" lon="-46.557559"><ele>773.0</ele><time>2017-02-15T07:17:16Z</time></trkpt><trkpt lat="-23.732047" lon="-46.557666"><ele>773.0</ele><time>2017-02-15T07:17:25Z</time></trkpt><trkpt lat="-23.732077" lon="-46.557569"><ele>768.0</ele><time>2017-02-15T07:18:31Z</time></trkpt><trkpt lat="-23.732068" lon="-46.557462"><ele>769.0</ele><time>2017-02-15T07:18:41Z</time></trkpt><trkpt lat="-23.732111" lon="-46.557375"><ele>770.0</ele><time>2017-02-15T07:18:48Z</time></trkpt><trkpt lat="-23.7322" lon="-46.557418"><ele>773.0</ele><time>2017-02-15T07:19:03Z</time></trkpt><trkpt lat="-23.732296" lon="-46.55746"><ele>772.0</ele><time>2017-02-15T07:19:10Z</time></trkpt><trkpt lat="-23.732366" lon="-46.557526"><ele>772.0</ele><time>2017-02-15T07:19:16Z</time></trkpt><trkpt lat="-23.732342" lon="-46.557623"><ele>773.0</ele><time>2017-02-15T07:19:23Z</time></trkpt><trkpt lat="-23.732381" lon="-46.55772"><ele>770.0</ele><time>2017-02-15T07:20:50Z</time></trkpt><trkpt lat="-23.73244" lon="-46.557801"><ele>770.0</ele><time>2017-02-15T07:20:55Z</time></trkpt><trkpt lat="-23.73247" lon="-46.557904"><ele>771.0</ele><time>2017-02-15T07:21:01Z</time></trkpt><trkpt lat="-23.732557" lon="-46.557942"><ele>773.0</ele><time>2017-02-15T07:21:07Z</time></trkpt><trkpt lat="-23.73263" lon="-46.55801"><ele>774.0</ele><time>2017-02-15T07:21:15Z</time></trkpt><trkpt lat="-23.732715" lon="-46.557977"><ele>780.0</ele><time>2017-02-15T07:22:36Z</time></trkpt><trkpt lat="-23.732737" lon="-46.558091"><ele>775.0</ele><time>2017-02-15T07:23:15Z</time></trkpt><trkpt lat="-23.732796" lon="-46.55818"><ele>775.0</ele><time>2017-02-15T07:23:28Z</time></trkpt><trkpt lat="-23.732855" lon="-46.558256"><ele>776.0</ele><time>2017-02-15T07:23:34Z</time></trkpt><trkpt lat="-23.732909" lon="-46.55837"><ele>775.0</ele><time>2017-02-15T07:23:42Z</time></trkpt><trkpt lat="-23.732992" lon="-46.558425"><ele>776.0</ele><time>2017-02-15T07:23:50Z</time></trkpt><trkpt lat="-23.733062" lon="-46.5585"><ele>773.0</ele><time>2017-02-15T07:24:00Z</time></trkpt><trkpt lat="-23.733154" lon="-46.558532"><ele>773.0</ele><time>2017-02-15T07:24:08Z</time></trkpt><trkpt lat="-23.733234" lon="-46.558583"><ele>778.0</ele><time>2017-02-15T07:24:17Z</time></trkpt><trkpt lat="-23.733294" lon="-46.558662"><ele>777.0</ele><time>2017-02-15T07:24:28Z</time></trkpt><trkpt lat="-23.73337" lon="-46.558731"><ele>773.0</ele><time>2017-02-15T07:24:40Z</time></trkpt><trkpt lat="-23.733426" lon="-46.558812"><ele>771.0</ele><time>2017-02-15T07:24:49Z</time></trkpt><trkpt lat="-23.73349" lon="-46.558891"><ele>771.0</ele><time>2017-02-15T07:25:00Z</time></trkpt><trkpt lat="-23.733571" lon="-46.558941"><ele>772.0</ele><time>2017-02-15T07:25:08Z</time></trkpt><trkpt lat="-23.733596" lon="-46.559038"><ele>774.0</ele><time>2017-02-15T07:25:16Z</time></trkpt><trkpt lat="-23.733678" lon="-46.559103"><ele>775.0</ele><time>2017-02-15T07:25:25Z</time></trkpt><trkpt lat="-23.733766" lon="-46.55913"><ele>778.0</ele><time>2017-02-15T07:25:51Z</time></trkpt><trkpt lat="-23.733867" lon="-46.559138"><ele>777.0</ele><time>2017-02-15T07:26:41Z</time></trkpt><trkpt lat="-23.733932" lon="-46.559063"><ele>781.0</ele><time>2017-02-15T07:26:47Z</time></trkpt><trkpt lat="-23.733831" lon="-46.559051"><ele>783.0</ele><time>2017-02-15T07:26:52Z</time></trkpt><trkpt lat="-23.733747" lon="-46.559104"><ele>783.0</ele><time>2017-02-15T07:26:56Z</time></trkpt><trkpt lat="-23.733835" lon="-46.55913"><ele>790.0</ele><time>2017-02-15T07:27:06Z</time></trkpt><trkpt lat="-23.733759" lon="-46.559189"><ele>788.0</ele><time>2017-02-15T07:27:14Z</time></trkpt><trkpt lat="-23.733846" lon="-46.559217"><ele>783.0</ele><time>2017-02-15T07:34:10Z</time></trkpt><trkpt lat="-23.733921" lon="-46.55929"><ele>781.0</ele><time>2017-02-15T07:34:19Z</time></trkpt><trkpt lat="-23.733967" lon="-46.559383"><ele>787.0</ele><time>2017-02-15T07:34:29Z</time></trkpt><trkpt lat="-23.734036" lon="-46.559466"><ele>790.0</ele><time>2017-02-15T07:34:36Z</time></trkpt><trkpt lat="-23.734131" lon="-46.559507"><ele>787.0</ele><time>2017-02-15T07:34:42Z</time></trkpt><trkpt lat="-23.734234" lon="-46.559536"><ele>783.0</ele><time>2017-02-15T07:34:47Z</time></trkpt><trkpt lat="-23.734315" lon="-46.559588"><ele>781.0</ele><time>2017-02-15T07:34:56Z</time></trkpt><trkpt lat="-23.734371" lon="-46.559665"><ele>778.0</ele><time>2017-02-15T07:35:16Z</time></trkpt><trkpt lat="-23.734471" lon="-46.55968"><ele>774.0</ele><time>2017-02-15T07:35:30Z</time></trkpt><trkpt lat="-23.73457" lon="-46.55967"><ele>771.0</ele><time>2017-02-15T07:35:34Z</time></trkpt><trkpt lat="-23.734578" lon="-46.559773"><ele>772.0</ele><time>2017-02-15T07:35:40Z</time></trkpt><trkpt lat="-23.734619" lon="-46.559863"><ele>771.0</ele><time>2017-02-15T07:35:48Z</time></trkpt><trkpt lat="-23.73465" lon="-46.55996"><ele>774.0</ele><time>2017-02-15T07:35:57Z</time></trkpt><trkpt lat="-23.734735" lon="-46.560008"><ele>775.0</ele><time>2017-02-15T07:36:05Z</time></trkpt><trkpt lat="-23.734792" lon="-46.560096"><ele>775.0</ele><time>2017-02-15T07:36:14Z</time></trkpt><trkpt lat="-23.734833" lon="-46.560186"><ele>772.0</ele><time>2017-02-15T07:36:22Z</time></trkpt><trkpt lat="-23.734858" lon="-46.560286"><ele>773.0</ele><time>2017-02-15T07:36:30Z</time></trkpt><trkpt lat="-23.734923" lon="-46.560359"><ele>780.0</ele><time>2017-02-15T07:36:37Z</time></trkpt><trkpt lat="-23.735006" lon="-46.560409"><ele>776.0</ele><time>2017-02-15T07:36:46Z</time></trkpt><trkpt lat="-23.735071" lon="-46.560487"><ele>772.0</ele><time>2017-02-15T07:36:52Z</time></trkpt><trkpt lat="-23.73516" lon="-46.560503"><ele>774.0</ele><time>2017-02-15T07:37:03Z</time></trkpt><trkpt lat="-23.735253" lon="-46.56054"><ele>778.0</ele><time>2017-02-15T07:37:10Z</time></trkpt><trkpt lat="-23.735259" lon="-46.560644"><ele>777.0</ele><time>2017-02-15T07:37:16Z</time></trkpt><trkpt lat="-23.735254" lon="-46.56075"><ele>778.0</ele><time>2017-02-15T07:37:21Z</time></trkpt><trkpt lat="-23.73534" lon="-46.560719"><ele>780.0</ele><time>2017-02-15T07:37:33Z</time></trkpt><trkpt lat="-23.735425" lon="-46.560756"><ele>778.0</ele><time>2017-02-15T07:37:42Z</time></trkpt><trkpt lat="-23.73547" lon="-46.560853"><ele>772.0</ele><time>2017-02-15T07:37:48Z</time></trkpt><trkpt lat="-23.735556" lon="-46.56089"><ele>776.0</ele><time>2017-02-15T07:39:07Z</time></trkpt><trkpt lat="-23.735632" lon="-46.560963"><ele>782.0</ele><time>2017-02-15T07:39:14Z</time></trkpt><trkpt lat="-23.735726" lon="-46.561032"><ele>776.0</ele><time>2017-02-15T07:39:21Z</time></trkpt><trkpt lat="-23.735819" lon="-46.561022"><ele>775.0</ele><time>2017-02-15T07:39:28Z</time></trkpt><trkpt lat="-23.735885" lon="-46.561103"><ele>774.0</ele><time>2017-02-15T07:39:37Z</time></trkpt><trkpt lat="-23.735934" lon="-46.561195"><ele>779.0</ele><time>2017-02-15T07:39:45Z</time></trkpt><trkpt lat="-23.736022" lon="-46.561223"><ele>778.0</ele><time>2017-02-15T07:39:51Z</time></trkpt><trkpt lat="-23.73612" lon="-46.561219"><ele>781.0</ele><time>2017-02-15T07:39:55Z</time></trkpt><trkpt lat="-23.736117" lon="-46.561333"><ele>787.0</ele><time>2017-02-15T07:41:05Z</time></trkpt><trkpt lat="-23.736157" lon="-46.561434"><ele>784.0</ele><time>2017-02-15T07:41:11Z</time></trkpt><trkpt lat="-23.736224" lon="-46.561511"><ele>785.0</ele><time>2017-02-15T07:41:16Z</time></trkpt><trkpt lat="-23.736309" lon="-46.561574"><ele>786.0</ele><time>2017-02-15T07:41:22Z</time></trkpt><trkpt lat="-23.736344" lon="-46.561676"><ele>789.0</ele><time>2017-02-15T07:41:29Z</time></trkpt><trkpt lat="-23.736406" lon="-46.561757"><ele>791.0</ele><time>2017-02-15T07:41:38Z</time></trkpt><trkpt lat="-23.736478" lon="-46.561817"><ele>793.0</ele><time>2017-02-15T07:41:45Z</time></trkpt><trkpt lat="-23.736574" lon="-46.561824"><ele>795.0</ele><time>2017-02-15T07:41:51Z</time></trkpt><trkpt lat="-23.736657" lon="-46.561864"><ele>802.0</ele><time>2017-02-15T07:41:57Z</time></trkpt><trkpt lat="-23.736706" lon="-46.561954"><ele>805.0</ele><time>2017-02-15T07:42:05Z</time></trkpt><trkpt lat="-23.736749" lon="-46.562042"><ele>798.0</ele><time>2017-02-15T07:42:15Z</time></trkpt><trkpt lat="-23.736825" lon="-46.562105"><ele>801.0</ele><time>2017-02-15T07:42:23Z</time></trkpt><trkpt lat="-23.7369" lon="-46.562161"><ele>803.0</ele><time>2017-02-15T07:42:31Z</time></trkpt><trkpt lat="-23.736939" lon="-46.562252"><ele>806.0</ele><time>2017-02-15T07:42:44Z</time></trkpt><trkpt lat="-23.737026" lon="-46.562289"><ele>796.0</ele><time>2017-02-15T07:43:46Z</time></trkpt><trkpt lat="-23.73711" lon="-46.562344"><ele>792.0</ele><time>2017-02-15T07:43:52Z</time></trkpt><trkpt lat="-23.737137" lon="-46.56244"><ele>798.0</ele><time>2017-02-15T07:44:00Z</time></trkpt><trkpt lat="-23.737135" lon="-46.562538"><ele>799.0</ele><time>2017-02-15T07:44:09Z</time></trkpt><trkpt lat="-23.737165" lon="-46.562634"><ele>802.0</ele><time>2017-02-15T07:44:20Z</time></trkpt><trkpt lat="-23.737243" lon="-46.562698"><ele>804.0</ele><time>2017-02-15T07:44:32Z</time></trkpt><trkpt lat="-23.737349" lon="-46.562778"><ele>792.0</ele><time>2017-02-15T07:44:56Z</time></trkpt><trkpt lat="-23.737438" lon="-46.562821"><ele>793.0</ele><time>2017-02-15T07:45:01Z</time></trkpt><trkpt lat="-23.737525" lon="-46.562853"><ele>797.0</ele><time>2017-02-15T07:45:33Z</time></trkpt><trkpt lat="-23.737625" lon="-46.562891"><ele>798.0</ele><time>2017-02-15T07:45:37Z</time></trkpt><trkpt lat="-23.737713" lon="-46.562933"><ele>800.0</ele><time>2017-02-15T07:45:42Z</time></trkpt><trkpt lat="-23.737765" lon="-46.563014"><ele>804.0</ele><time>2017-02-15T07:45:47Z</time></trkpt><trkpt lat="-23.737838" lon="-46.563079"><ele>808.0</ele><time>2017-02-15T07:45:57Z</time></trkpt><trkpt lat="-23.737921" lon="-46.563132"><ele>813.0</ele><time>2017-02-15T07:46:06Z</time></trkpt><trkpt lat="-23.737869" lon="-46.563214"><ele>810.0</ele><time>2017-02-15T07:46:11Z</time></trkpt><trkpt lat="-23.737967" lon="-46.563234"><ele>808.0</ele><time>2017-02-15T07:46:18Z</time></trkpt><trkpt lat="-23.738057" lon="-46.563269"><ele>809.0</ele><time>2017-02-15T07:46:26Z</time></trkpt><trkpt lat="-23.738148" lon="-46.563297"><ele>806.0</ele><time>2017-02-15T07:46:31Z</time></trkpt><trkpt lat="-23.73824" lon="-46.563334"><ele>808.0</ele><time>2017-02-15T07:46:37Z</time></trkpt><trkpt lat="-23.738319" lon="-46.563397"><ele>813.0</ele><time>2017-02-15T07:46:49Z</time></trkpt><trkpt lat="-23.738367" lon="-46.563482"><ele>802.0</ele><time>2017-02-15T07:47:01Z</time></trkpt><trkpt lat="-23.738394" lon="-46.563582"><ele>804.0</ele><time>2017-02-15T07:47:08Z</time></trkpt><trkpt lat="-23.738294" lon="-46.563658"><ele>794.0</ele><time>2017-02-15T07:47:11Z</time></trkpt><trkpt lat="-23.738422" lon="-46.563727"><ele>796.0</ele><time>2017-02-15T07:47:21Z</time></trkpt><trkpt lat="-23.738504" lon="-46.563795"><ele>801.0</ele><time>2017-02-15T07:47:33Z</time></trkpt><trkpt lat="-23.738594" lon="-46.563762"><ele>809.0</ele><time>2017-02-15T07:47:42Z</time></trkpt><trkpt lat="-23.738685" lon="-46.563737"><ele>811.0</ele><time>2017-02-15T07:47:50Z</time></trkpt><trkpt lat="-23.73877" lon="-46.563787"><ele>811.0</ele><time>2017-02-15T07:47:57Z</time></trkpt><trkpt lat="-23.738853" lon="-46.563842"><ele>813.0</ele><time>2017-02-15T07:48:04Z</time></trkpt><trkpt lat="-23.73895" lon="-46.563847"><ele>813.0</ele><time>2017-02-15T07:48:13Z</time></trkpt><trkpt lat="-23.739031" lon="-46.563892"><ele>808.0</ele><time>2017-02-15T07:48:24Z</time></trkpt><trkpt lat="-23.739116" lon="-46.56385"><ele>809.0</ele><time>2017-02-15T07:48:31Z</time></trkpt><trkpt lat="-23.739193" lon="-46.563766"><ele>807.0</ele><time>2017-02-15T07:48:34Z</time></trkpt><trkpt lat="-23.739255" lon="-46.563864"><ele>807.0</ele><time>2017-02-15T07:48:40Z</time></trkpt><trkpt lat="-23.739316" lon="-46.563955"><ele>808.0</ele><time>2017-02-15T07:48:48Z</time></trkpt><trkpt lat="-23.739392" lon="-46.564009"><ele>802.0</ele><time>2017-02-15T07:48:57Z</time></trkpt><trkpt lat="-23.739454" lon="-46.564082"><ele>806.0</ele><time>2017-02-15T07:49:07Z</time></trkpt><trkpt lat="-23.739546" lon="-46.564089"><ele>805.0</ele><time>2017-02-15T07:49:25Z</time></trkpt><trkpt lat="-23.739588" lon="-46.564182"><ele>809.0</ele><time>2017-02-15T07:50:31Z</time></trkpt><trkpt lat="-23.73965" lon="-46.564281"><ele>812.0</ele><time>2017-02-15T07:50:39Z</time></trkpt><trkpt lat="-23.739693" lon="-46.56437"><ele>812.0</ele><time>2017-02-15T07:50:46Z</time></trkpt><trkpt lat="-23.739699" lon="-46.564468"><ele>816.0</ele><time>2017-02-15T07:50:54Z</time></trkpt><trkpt lat="-23.739712" lon="-46.564571"><ele>814.0</ele><time>2017-02-15T07:51:02Z</time></trkpt><trkpt lat="-23.739747" lon="-46.564664"><ele>814.0</ele><time>2017-02-15T07:51:09Z</time></trkpt><trkpt lat="-23.739686" lon="-46.564739"><ele>819.0</ele><time>2017-02-15T07:51:17Z</time></trkpt><trkpt lat="-23.739648" lon="-46.564838"><ele>820.0</ele><time>2017-02-15T07:51:24Z</time></trkpt><trkpt lat="-23.739625" lon="-46.564939"><ele>819.0</ele><time>2017-02-15T07:51:32Z</time></trkpt><trkpt lat="-23.739612" lon="-46.565044"><ele>817.0</ele><time>2017-02-15T07:51:39Z</time></trkpt><trkpt lat="-23.739586" lon="-46.565157"><ele>816.0</ele><time>2017-02-15T07:51:45Z</time></trkpt><trkpt lat="-23.739522" lon="-46.565228"><ele>816.0</ele><time>2017-02-15T07:51:52Z</time></trkpt><trkpt lat="-23.739492" lon="-46.565328"><ele>817.0</ele><time>2017-02-15T07:52:02Z</time></trkpt><trkpt lat="-23.739435" lon="-46.565408"><ele>816.0</ele><time>2017-02-15T07:52:11Z</time></trkpt><trkpt lat="-23.739421" lon="-46.565512"><ele>815.0</ele><time>2017-02-15T07:52:18Z</time></trkpt><trkpt lat="-23.739408" lon="-46.56561"><ele>818.0</ele><time>2017-02-15T07:52:32Z</time></trkpt><trkpt lat="-23.739387" lon="-46.565709"><ele>820.0</ele><time>2017-02-15T07:52:37Z</time></trkpt><trkpt lat="-23.739356" lon="-46.565818"><ele>823.0</ele><time>2017-02-15T07:52:43Z</time></trkpt><trkpt lat="-23.739267" lon="-46.565864"><ele>822.0</ele><time>2017-02-15T07:52:48Z</time></trkpt><trkpt lat="-23.739192" lon="-46.565927"><ele>819.0</ele><time>2017-02-15T07:52:54Z</time></trkpt><trkpt lat="-23.739142" lon="-46.566012"><ele>817.0</ele><time>2017-02-15T07:53:01Z</time></trkpt><trkpt lat="-23.739068" lon="-46.566071"><ele>813.0</ele><time>2017-02-15T07:53:07Z</time></trkpt><trkpt lat="-23.739072" lon="-46.566183"><ele>817.0</ele><time>2017-02-15T07:53:14Z</time></trkpt><trkpt lat="-23.73902" lon="-46.566269"><ele>818.0</ele><time>2017-02-15T07:53:24Z</time></trkpt><trkpt lat="-23.739097" lon="-46.566357"><ele>819.0</ele><time>2017-02-15T07:53:29Z</time></trkpt><trkpt lat="-23.739027" lon="-46.566422"><ele>819.0</ele><time>2017-02-15T07:54:01Z</time></trkpt><trkpt lat="-23.738936" lon="-46.566437"><ele>817.0</ele><time>2017-02-15T07:54:03Z</time></trkpt><trkpt lat="-23.738839" lon="-46.566483"><ele>816.0</ele><time>2017-02-15T07:54:05Z</time></trkpt><trkpt lat="-23.738741" lon="-46.566514"><ele>817.0</ele><time>2017-02-15T07:54:08Z</time></trkpt><trkpt lat="-23.738768" lon="-46.566609"><ele>815.0</ele><time>2017-02-15T07:54:37Z</time></trkpt><trkpt lat="-23.738726" lon="-46.566705"><ele>814.0</ele><time>2017-02-15T07:54:51Z</time></trkpt><trkpt lat="-23.73867" lon="-46.566783"><ele>812.0</ele><time>2017-02-15T07:54:59Z</time></trkpt><trkpt lat="-23.738626" lon="-46.566872"><ele>812.0</ele><time>2017-02-15T07:55:07Z</time></trkpt><trkpt lat="-23.738575" lon="-46.566955"><ele>811.0</ele><time>2017-02-15T07:55:24Z</time></trkpt><trkpt lat="-23.738558" lon="-46.567055"><ele>808.0</ele><time>2017-02-15T07:56:02Z</time></trkpt><trkpt lat="-23.738571" lon="-46.567161"><ele>821.0</ele><time>2017-02-15T07:56:37Z</time></trkpt><trkpt lat="-23.738524" lon="-46.567252"><ele>817.0</ele><time>2017-02-15T07:56:43Z</time></trkpt><trkpt lat="-23.738458" lon="-46.567323"><ele>811.0</ele><time>2017-02-15T07:56:50Z</time></trkpt><trkpt lat="-23.738369" lon="-46.56738"><ele>811.0</ele><time>2017-02-15T07:56:57Z</time></trkpt><trkpt lat="-23.738331" lon="-46.567471"><ele>814.0</ele><time>2017-02-15T07:57:04Z</time></trkpt><trkpt lat="-23.738278" lon="-46.567559"><ele>810.0</ele><time>2017-02-15T07:57:13Z</time></trkpt><trkpt lat="-23.738214" lon="-46.567635"><ele>811.0</ele><time>2017-02-15T07:57:35Z</time></trkpt><trkpt lat="-23.738153" lon="-46.567726"><ele>807.0</ele><time>2017-02-15T07:57:42Z</time></trkpt><trkpt lat="-23.738108" lon="-46.567817"><ele>808.0</ele><time>2017-02-15T07:57:49Z</time></trkpt><trkpt lat="-23.738087" lon="-46.567915"><ele>812.0</ele><time>2017-02-15T07:58:12Z</time></trkpt><trkpt lat="-23.738007" lon="-46.567995"><ele>806.0</ele><time>2017-02-15T07:59:19Z</time></trkpt><trkpt lat="-23.737931" lon="-46.568063"><ele>801.0</ele><time>2017-02-15T07:59:26Z</time></trkpt><trkpt lat="-23.737872" lon="-46.568141"><ele>803.0</ele><time>2017-02-15T07:59:34Z</time></trkpt><trkpt lat="-23.737832" lon="-46.56823"><ele>802.0</ele><time>2017-02-15T07:59:42Z</time></trkpt><trkpt lat="-23.737838" lon="-46.568339"><ele>802.0</ele><time>2017-02-15T07:59:57Z</time></trkpt><trkpt lat="-23.737855" lon="-46.56844"><ele>806.0</ele><time>2017-02-15T08:00:03Z</time></trkpt><trkpt lat="-23.737841" lon="-46.568545"><ele>804.0</ele><time>2017-02-15T08:00:11Z</time></trkpt><trkpt lat="-23.737876" lon="-46.568648"><ele>802.0</ele><time>2017-02-15T08:00:23Z</time></trkpt><trkpt lat="-23.737872" lon="-46.568751"><ele>801.0</ele><time>2017-02-15T08:00:31Z</time></trkpt><trkpt lat="-23.737931" lon="-46.568858"><ele>803.0</ele><time>2017-02-15T08:02:26Z</time></trkpt><trkpt lat="-23.737965" lon="-46.568951"><ele>802.0</ele><time>2017-02-15T08:02:35Z</time></trkpt><trkpt lat="-23.738011" lon="-46.569044"><ele>801.0</ele><time>2017-02-15T08:02:48Z</time></trkpt><trkpt lat="-23.738074" lon="-46.569124"><ele>803.0</ele><time>2017-02-15T08:02:58Z</time></trkpt><trkpt lat="-23.738161" lon="-46.569163"><ele>803.0</ele><time>2017-02-15T08:03:05Z</time></trkpt><trkpt lat="-23.738262" lon="-46.569159"><ele>804.0</ele><time>2017-02-15T08:03:14Z</time></trkpt><trkpt lat="-23.738354" lon="-46.569185"><ele>804.0</ele><time>2017-02-15T08:03:23Z</time></trkpt><trkpt lat="-23.738446" lon="-46.569197"><ele>801.0</ele><time>2017-02-15T08:03:32Z</time></trkpt><trkpt lat="-23.73854" lon="-46.569203"><ele>794.0</ele><time>2017-02-15T08:03:42Z</time></trkpt><trkpt lat="-23.738637" lon="-46.569223"><ele>796.0</ele><time>2017-02-15T08:03:50Z</time></trkpt><trkpt lat="-23.738724" lon="-46.569196"><ele>793.0</ele><time>2017-02-15T08:03:59Z</time></trkpt><trkpt lat="-23.73882" lon="-46.569217"><ele>793.0</ele><time>2017-02-15T08:04:12Z</time></trkpt><trkpt lat="-23.738918" lon="-46.569235"><ele>793.0</ele><time>2017-02-15T08:04:21Z</time></trkpt><trkpt lat="-23.739014" lon="-46.569212"><ele>786.0</ele><time>2017-02-15T08:04:32Z</time></trkpt><trkpt lat="-23.739101" lon="-46.569239"><ele>784.0</ele><time>2017-02-15T08:04:40Z</time></trkpt><trkpt lat="-23.739201" lon="-46.569246"><ele>787.0</ele><time>2017-02-15T08:04:49Z</time></trkpt><trkpt lat="-23.739282" lon="-46.56929"><ele>785.0</ele><time>2017-02-15T08:04:58Z</time></trkpt><trkpt lat="-23.73936" lon="-46.569341"><ele>787.0</ele><time>2017-02-15T08:05:06Z</time></trkpt><trkpt lat="-23.739443" lon="-46.569396"><ele>794.0</ele><time>2017-02-15T08:05:15Z</time></trkpt><trkpt lat="-23.739497" lon="-46.56948"><ele>793.0</ele><time>2017-02-15T08:05:21Z</time></trkpt><trkpt lat="-23.739564" lon="-46.56957"><ele>793.0</ele><time>2017-02-15T08:05:29Z</time></trkpt><trkpt lat="-23.739634" lon="-46.569635"><ele>790.0</ele><time>2017-02-15T08:05:40Z</time></trkpt><trkpt lat="-23.739711" lon="-46.56969"><ele>789.0</ele><time>2017-02-15T08:05:50Z</time></trkpt><trkpt lat="-23.739793" lon="-46.569749"><ele>795.0</ele><time>2017-02-15T08:06:24Z</time></trkpt><trkpt lat="-23.739874" lon="-46.569803"><ele>796.0</ele><time>2017-02-15T08:06:33Z</time></trkpt><trkpt lat="-23.739943" lon="-46.56988"><ele>795.0</ele><time>2017-02-15T08:06:44Z</time></trkpt><trkpt lat="-23.740012" lon="-46.569957"><ele>794.0</ele><time>2017-02-15T08:06:55Z</time></trkpt><trkpt lat="-23.740074" lon="-46.570041"><ele>790.0</ele><time>2017-02-15T08:07:05Z</time></trkpt><trkpt lat="-23.740112" lon="-46.57013"><ele>786.0</ele><time>2017-02-15T08:07:13Z</time></trkpt><trkpt lat="-23.740086" lon="-46.570233"><ele>793.0</ele><time>2017-02-15T08:07:24Z</time></trkpt><trkpt lat="-23.740134" lon="-46.570322"><ele>791.0</ele><time>2017-02-15T08:07:33Z</time></trkpt><trkpt lat="-23.740158" lon="-46.570423"><ele>796.0</ele><time>2017-02-15T08:07:42Z</time></trkpt><trkpt lat="-23.740183" lon="-46.570522"><ele>792.0</ele><time>2017-02-15T08:07:50Z</time></trkpt><trkpt lat="-23.740186" lon="-46.570625"><ele>785.0</ele><time>2017-02-15T08:07:59Z</time></trkpt><trkpt lat="-23.740231" lon="-46.570734"><ele>781.0</ele><time>2017-02-15T08:08:10Z</time></trkpt><trkpt lat="-23.740274" lon="-46.570833"><ele>780.0</ele><time>2017-02-15T08:08:19Z</time></trkpt><trkpt lat="-23.740274" lon="-46.570833"><ele>780.0</ele><time>2017-02-15T08:08:19Z</time></trkpt><trkpt lat="-23.740349" lon="-46.570892"><ele>787.0</ele><time>2017-02-15T08:08:27Z</time></trkpt><trkpt lat="-23.740423" lon="-46.570968"><ele>789.0</ele><time>2017-02-15T08:08:36Z</time></trkpt><trkpt lat="-23.740464" lon="-46.571056"><ele>787.0</ele><time>2017-02-15T08:08:43Z</time></trkpt><trkpt lat="-23.74053" lon="-46.571129"><ele>784.0</ele><time>2017-02-15T08:08:51Z</time></trkpt><trkpt lat="-23.740615" lon="-46.571165"><ele>786.0</ele><time>2017-02-15T08:08:59Z</time></trkpt><trkpt lat="-23.740707" lon="-46.571164"><ele>786.0</ele><time>2017-02-15T08:09:06Z</time></trkpt><trkpt lat="-23.740796" lon="-46.571191"><ele>785.0</ele><time>2017-02-15T08:09:16Z</time></trkpt><trkpt lat="-23.740887" lon="-46.571233"><ele>786.0</ele><time>2017-02-15T08:09:24Z</time></trkpt><trkpt lat="-23.740976" lon="-46.571278"><ele>784.0</ele><time>2017-02-15T08:09:36Z</time></trkpt><trkpt lat="-23.741043" lon="-46.571358"><ele>786.0</ele><time>2017-02-15T08:09:47Z</time></trkpt><trkpt lat="-23.741105" lon="-46.571431"><ele>784.0</ele><time>2017-02-15T08:09:56Z</time></trkpt><trkpt lat="-23.741172" lon="-46.571503"><ele>784.0</ele><time>2017-02-15T08:10:06Z</time></trkpt><trkpt lat="-23.741227" lon="-46.571581"><ele>784.0</ele><time>2017-02-15T08:10:13Z</time></trkpt><trkpt lat="-23.741293" lon="-46.571664"><ele>785.0</ele><time>2017-02-15T08:10:22Z</time></trkpt><trkpt lat="-23.741366" lon="-46.571724"><ele>788.0</ele><time>2017-02-15T08:10:31Z</time></trkpt><trkpt lat="-23.741341" lon="-46.571831"><ele>793.0</ele><time>2017-02-15T08:14:34Z</time></trkpt><trkpt lat="-23.741359" lon="-46.57193"><ele>796.0</ele><time>2017-02-15T08:14:38Z</time></trkpt><trkpt lat="-23.741419" lon="-46.572005"><ele>792.0</ele><time>2017-02-15T08:14:47Z</time></trkpt><trkpt lat="-23.741469" lon="-46.572099"><ele>790.0</ele><time>2017-02-15T08:15:03Z</time></trkpt><trkpt lat="-23.741504" lon="-46.572196"><ele>784.0</ele><time>2017-02-15T08:15:11Z</time></trkpt><trkpt lat="-23.741533" lon="-46.572292"><ele>786.0</ele><time>2017-02-15T08:15:18Z</time></trkpt><trkpt lat="-23.741553" lon="-46.572389"><ele>789.0</ele><time>2017-02-15T08:15:25Z</time></trkpt><trkpt lat="-23.741587" lon="-46.572491"><ele>791.0</ele><time>2017-02-15T08:15:33Z</time></trkpt><trkpt lat="-23.741583" lon="-46.572593"><ele>789.0</ele><time>2017-02-15T08:15:41Z</time></trkpt><trkpt lat="-23.741612" lon="-46.572691"><ele>787.0</ele><time>2017-02-15T08:15:49Z</time></trkpt><trkpt lat="-23.741647" lon="-46.572792"><ele>786.0</ele><time>2017-02-15T08:15:59Z</time></trkpt><trkpt lat="-23.741699" lon="-46.572873"><ele>783.0</ele><time>2017-02-15T08:16:09Z</time></trkpt><trkpt lat="-23.741798" lon="-46.572886"><ele>790.0</ele><time>2017-02-15T08:16:47Z</time></trkpt><trkpt lat="-23.741854" lon="-46.572977"><ele>791.0</ele><time>2017-02-15T08:16:54Z</time></trkpt><trkpt lat="-23.741825" lon="-46.573082"><ele>790.0</ele><time>2017-02-15T08:17:02Z</time></trkpt><trkpt lat="-23.741835" lon="-46.57319"><ele>783.0</ele><time>2017-02-15T08:17:10Z</time></trkpt><trkpt lat="-23.741806" lon="-46.573288"><ele>778.0</ele><time>2017-02-15T08:17:17Z</time></trkpt><trkpt lat="-23.741878" lon="-46.573357"><ele>782.0</ele><time>2017-02-15T08:17:38Z</time></trkpt><trkpt lat="-23.741906" lon="-46.573463"><ele>782.0</ele><time>2017-02-15T08:17:44Z</time></trkpt><trkpt lat="-23.741898" lon="-46.573567"><ele>784.0</ele><time>2017-02-15T08:17:50Z</time></trkpt><trkpt lat="-23.741876" lon="-46.573673"><ele>788.0</ele><time>2017-02-15T08:17:57Z</time></trkpt><trkpt lat="-23.741877" lon="-46.573775"><ele>786.0</ele><time>2017-02-15T08:18:04Z</time></trkpt><trkpt lat="-23.741883" lon="-46.573876"><ele>791.0</ele><time>2017-02-15T08:18:13Z</time></trkpt><trkpt lat="-23.741856" lon="-46.573981"><ele>790.0</ele><time>2017-02-15T08:18:23Z</time></trkpt><trkpt lat="-23.741835" lon="-46.574088"><ele>788.0</ele><time>2017-02-15T08:18:50Z</time></trkpt><trkpt lat="-23.741813" lon="-46.574189"><ele>786.0</ele><time>2017-02-15T08:18:58Z</time></trkpt><trkpt lat="-23.741801" lon="-46.574293"><ele>783.0</ele><time>2017-02-15T08:19:59Z</time></trkpt><trkpt lat="-23.741778" lon="-46.574394"><ele>782.0</ele><time>2017-02-15T08:20:09Z</time></trkpt><trkpt lat="-23.741755" lon="-46.5745"><ele>781.0</ele><time>2017-02-15T08:20:17Z</time></trkpt><trkpt lat="-23.741721" lon="-46.574591"><ele>783.0</ele><time>2017-02-15T08:20:24Z</time></trkpt><trkpt lat="-23.741681" lon="-46.574685"><ele>780.0</ele><time>2017-02-15T08:20:32Z</time></trkpt><trkpt lat="-23.741661" lon="-46.574792"><ele>782.0</ele><time>2017-02-15T08:20:42Z</time></trkpt><trkpt lat="-23.741632" lon="-46.57489"><ele>780.0</ele><time>2017-02-15T08:20:50Z</time></trkpt><trkpt lat="-23.741571" lon="-46.574973"><ele>782.0</ele><time>2017-02-15T08:20:59Z</time></trkpt><trkpt lat="-23.741585" lon="-46.575082"><ele>785.0</ele><time>2017-02-15T08:21:06Z</time></trkpt><trkpt lat="-23.741588" lon="-46.575187"><ele>786.0</ele><time>2017-02-15T08:21:18Z</time></trkpt><trkpt lat="-23.741558" lon="-46.575283"><ele>788.0</ele><time>2017-02-15T08:21:26Z</time></trkpt><trkpt lat="-23.741548" lon="-46.575381"><ele>786.0</ele><time>2017-02-15T08:21:33Z</time></trkpt><trkpt lat="-23.741563" lon="-46.575486"><ele>788.0</ele><time>2017-02-15T08:21:40Z</time></trkpt><trkpt lat="-23.74156" lon="-46.575585"><ele>791.0</ele><time>2017-02-15T08:21:50Z</time></trkpt><trkpt lat="-23.741558" lon="-46.575697"><ele>795.0</ele><time>2017-02-15T08:22:23Z</time></trkpt><trkpt lat="-23.741547" lon="-46.575806"><ele>795.0</ele><time>2017-02-15T08:22:30Z</time></trkpt><trkpt lat="-23.741525" lon="-46.575909"><ele>799.0</ele><time>2017-02-15T08:22:39Z</time></trkpt><trkpt lat="-23.741558" lon="-46.576008"><ele>798.0</ele><time>2017-02-15T08:22:48Z</time></trkpt><trkpt lat="-23.741594" lon="-46.576112"><ele>798.0</ele><time>2017-02-15T08:22:58Z</time></trkpt><trkpt lat="-23.741565" lon="-46.57621"><ele>799.0</ele><time>2017-02-15T08:23:06Z</time></trkpt><trkpt lat="-23.741587" lon="-46.576323"><ele>801.0</ele><time>2017-02-15T08:23:16Z</time></trkpt><trkpt lat="-23.741571" lon="-46.57642"><ele>800.0</ele><time>2017-02-15T08:23:36Z</time></trkpt><trkpt lat="-23.741616" lon="-46.576519"><ele>802.0</ele><time>2017-02-15T08:23:44Z</time></trkpt><trkpt lat="-23.74164" lon="-46.576623"><ele>804.0</ele><time>2017-02-15T08:23:50Z</time></trkpt><trkpt lat="-23.741677" lon="-46.576713"><ele>801.0</ele><time>2017-02-15T08:23:59Z</time></trkpt><trkpt lat="-23.741711" lon="-46.576811"><ele>796.0</ele><time>2017-02-15T08:24:05Z</time></trkpt><trkpt lat="-23.741793" lon="-46.576852"><ele>801.0</ele><time>2017-02-15T08:24:13Z</time></trkpt><trkpt lat="-23.741837" lon="-46.576941"><ele>794.0</ele><time>2017-02-15T08:24:46Z</time></trkpt><trkpt lat="-23.74192" lon="-46.577006"><ele>797.0</ele><time>2017-02-15T08:24:59Z</time></trkpt><trkpt lat="-23.741969" lon="-46.577098"><ele>798.0</ele><time>2017-02-15T08:25:07Z</time></trkpt><trkpt lat="-23.742059" lon="-46.577128"><ele>797.0</ele><time>2017-02-15T08:25:14Z</time></trkpt><trkpt lat="-23.742147" lon="-46.577162"><ele>796.0</ele><time>2017-02-15T08:25:21Z</time></trkpt><trkpt lat="-23.742209" lon="-46.577242"><ele>796.0</ele><time>2017-02-15T08:27:14Z</time></trkpt><trkpt lat="-23.74229" lon="-46.577295"><ele>789.0</ele><time>2017-02-15T08:27:25Z</time></trkpt><trkpt lat="-23.742367" lon="-46.577353"><ele>795.0</ele><time>2017-02-15T08:27:32Z</time></trkpt><trkpt lat="-23.742436" lon="-46.577429"><ele>794.0</ele><time>2017-02-15T08:27:40Z</time></trkpt><trkpt lat="-23.742519" lon="-46.577473"><ele>789.0</ele><time>2017-02-15T08:27:48Z</time></trkpt><trkpt lat="-23.742572" lon="-46.577555"><ele>791.0</ele><time>2017-02-15T08:28:27Z</time></trkpt><trkpt lat="-23.742635" lon="-46.577634"><ele>790.0</ele><time>2017-02-15T08:28:34Z</time></trkpt><trkpt lat="-23.742688" lon="-46.577715"><ele>788.0</ele><time>2017-02-15T08:28:42Z</time></trkpt><trkpt lat="-23.742728" lon="-46.577804"><ele>787.0</ele><time>2017-02-15T08:28:50Z</time></trkpt><trkpt lat="-23.742777" lon="-46.5779"><ele>787.0</ele><time>2017-02-15T08:28:59Z</time></trkpt><trkpt lat="-23.742814" lon="-46.57799"><ele>786.0</ele><time>2017-02-15T08:29:09Z</time></trkpt><trkpt lat="-23.742855" lon="-46.578084"><ele>790.0</ele><time>2017-02-15T08:29:37Z</time></trkpt><trkpt lat="-23.742942" lon="-46.578126"><ele>796.0</ele><time>2017-02-15T08:30:06Z</time></trkpt><trkpt lat="-23.743033" lon="-46.578118"><ele>789.0</ele><time>2017-02-15T08:30:17Z</time></trkpt><trkpt lat="-23.742952" lon="-46.57818"><ele>793.0</ele><time>2017-02-15T08:33:06Z</time></trkpt><trkpt lat="-23.742946" lon="-46.57828"><ele>791.0</ele><time>2017-02-15T08:33:22Z</time></trkpt><trkpt lat="-23.742915" lon="-46.578384"><ele>792.0</ele><time>2017-02-15T08:34:23Z</time></trkpt><trkpt lat="-23.742892" lon="-46.578486"><ele>791.0</ele><time>2017-02-15T08:34:34Z</time></trkpt><trkpt lat="-23.742893" lon="-46.578589"><ele>795.0</ele><time>2017-02-15T08:34:44Z</time></trkpt><trkpt lat="-23.742933" lon="-46.578687"><ele>798.0</ele><time>2017-02-15T08:34:51Z</time></trkpt><trkpt lat="-23.742863" lon="-46.578755"><ele>808.0</ele><time>2017-02-15T08:35:19Z</time></trkpt><trkpt lat="-23.74295" lon="-46.5787"><ele>795.0</ele><time>2017-02-15T08:35:40Z</time></trkpt><trkpt lat="-23.743033" lon="-46.578636"><ele>793.0</ele><time>2017-02-15T08:35:49Z</time></trkpt><trkpt lat="-23.743116" lon="-46.578582"><ele>790.0</ele><time>2017-02-15T08:35:56Z</time></trkpt><trkpt lat="-23.743203" lon="-46.578548"><ele>791.0</ele><time>2017-02-15T08:36:02Z</time></trkpt><trkpt lat="-23.743296" lon="-46.578506"><ele>790.0</ele><time>2017-02-15T08:36:09Z</time></trkpt><trkpt lat="-23.743377" lon="-46.57845"><ele>788.0</ele><time>2017-02-15T08:36:18Z</time></trkpt><trkpt lat="-23.743467" lon="-46.578401"><ele>790.0</ele><time>2017-02-15T08:36:26Z</time></trkpt><trkpt lat="-23.743543" lon="-46.578343"><ele>786.0</ele><time>2017-02-15T08:36:33Z</time></trkpt><trkpt lat="-23.743619" lon="-46.578288"><ele>780.0</ele><time>2017-02-15T08:36:40Z</time></trkpt><trkpt lat="-23.743693" lon="-46.578213"><ele>781.0</ele><time>2017-02-15T08:36:49Z</time></trkpt><trkpt lat="-23.743769" lon="-46.578154"><ele>782.0</ele><time>2017-02-15T08:36:58Z</time></trkpt><trkpt lat="-23.743844" lon="-46.578081"><ele>777.0</ele><time>2017-02-15T08:37:07Z</time></trkpt><trkpt lat="-23.743957" lon="-46.578004"><ele>776.0</ele><time>2017-02-15T08:37:17Z</time></trkpt><trkpt lat="-23.744032" lon="-46.57794"><ele>776.0</ele><time>2017-02-15T08:37:25Z</time></trkpt><trkpt lat="-23.744119" lon="-46.577896"><ele>777.0</ele><time>2017-02-15T08:37:35Z</time></trkpt><trkpt lat="-23.744223" lon="-46.577905"><ele>777.0</ele><time>2017-02-15T08:37:45Z</time></trkpt><trkpt lat="-23.744314" lon="-46.577932"><ele>777.0</ele><time>2017-02-15T08:37:53Z</time></trkpt><trkpt lat="-23.744397" lon="-46.577992"><ele>779.0</ele><time>2017-02-15T08:38:02Z</time></trkpt><trkpt lat="-23.744473" lon="-46.578058"><ele>782.0</ele><time>2017-02-15T08:38:11Z</time></trkpt><trkpt lat="-23.744562" lon="-46.578086"><ele>784.0</ele><time>2017-02-15T08:38:43Z</time></trkpt><trkpt lat="-23.744628" lon="-46.578169"><ele>789.0</ele><time>2017-02-15T08:38:54Z</time></trkpt><trkpt lat="-23.744715" lon="-46.578226"><ele>788.0</ele><time>2017-02-15T08:39:04Z</time></trkpt><trkpt lat="-23.744802" lon="-46.578263"><ele>785.0</ele><time>2017-02-15T08:39:22Z</time></trkpt><trkpt lat="-23.744881" lon="-46.578322"><ele>771.0</ele><time>2017-02-15T08:46:57Z</time></trkpt><trkpt lat="-23.744928" lon="-46.578406"><ele>773.0</ele><time>2017-02-15T08:47:16Z</time></trkpt><trkpt lat="-23.744976" lon="-46.578316"><ele>772.0</ele><time>2017-02-15T08:47:42Z</time></trkpt><trkpt lat="-23.744998" lon="-46.578218"><ele>772.0</ele><time>2017-02-15T08:47:50Z</time></trkpt><trkpt lat="-23.745041" lon="-46.578124"><ele>770.0</ele><time>2017-02-15T08:47:58Z</time></trkpt><trkpt lat="-23.744959" lon="-46.57817"><ele>775.0</ele><time>2017-02-15T08:49:16Z</time></trkpt><trkpt lat="-23.744916" lon="-46.578257"><ele>779.0</ele><time>2017-02-15T08:52:13Z</time></trkpt><trkpt lat="-23.74497" lon="-46.578338"><ele>780.0</ele><time>2017-02-15T09:05:33Z</time></trkpt><trkpt lat="-23.745029" lon="-46.578413"><ele>778.0</ele><time>2017-02-15T09:05:45Z</time></trkpt><trkpt lat="-23.745101" lon="-46.578473"><ele>775.0</ele><time>2017-02-15T09:06:11Z</time></trkpt><trkpt lat="-23.745181" lon="-46.578538"><ele>772.0</ele><time>2017-02-15T09:06:21Z</time></trkpt><trkpt lat="-23.745247" lon="-46.57862"><ele>773.0</ele><time>2017-02-15T09:06:30Z</time></trkpt><trkpt lat="-23.745328" lon="-46.578679"><ele>775.0</ele><time>2017-02-15T09:06:39Z</time></trkpt><trkpt lat="-23.745412" lon="-46.578734"><ele>774.0</ele><time>2017-02-15T09:06:48Z</time></trkpt><trkpt lat="-23.745495" lon="-46.578796"><ele>771.0</ele><time>2017-02-15T09:06:57Z</time></trkpt><trkpt lat="-23.745582" lon="-46.578847"><ele>770.0</ele><time>2017-02-15T09:07:05Z</time></trkpt><trkpt lat="-23.745637" lon="-46.578925"><ele>772.0</ele><time>2017-02-15T09:07:14Z</time></trkpt><trkpt lat="-23.745733" lon="-46.578903"><ele>775.0</ele><time>2017-02-15T09:07:23Z</time></trkpt><trkpt lat="-23.745827" lon="-46.578893"><ele>770.0</ele><time>2017-02-15T09:07:39Z</time></trkpt><trkpt lat="-23.745916" lon="-46.578865"><ele>770.0</ele><time>2017-02-15T09:08:52Z</time></trkpt><trkpt lat="-23.746002" lon="-46.578808"><ele>772.0</ele><time>2017-02-15T09:09:00Z</time></trkpt><trkpt lat="-23.746102" lon="-46.578782"><ele>775.0</ele><time>2017-02-15T09:09:06Z</time></trkpt><trkpt lat="-23.746184" lon="-46.578732"><ele>772.0</ele><time>2017-02-15T09:09:14Z</time></trkpt><trkpt lat="-23.746289" lon="-46.578737"><ele>769.0</ele><time>2017-02-15T09:10:30Z</time></trkpt><trkpt lat="-23.746385" lon="-46.57874"><ele>771.0</ele><time>2017-02-15T09:10:37Z</time></trkpt><trkpt lat="-23.746482" lon="-46.578727"><ele>770.0</ele><time>2017-02-15T09:10:46Z</time></trkpt><trkpt lat="-23.746562" lon="-46.578681"><ele>765.0</ele><time>2017-02-15T09:11:34Z</time></trkpt><trkpt lat="-23.746656" lon="-46.578653"><ele>770.0</ele><time>2017-02-15T09:11:39Z</time></trkpt><trkpt lat="-23.74675" lon="-46.578616"><ele>768.0</ele><time>2017-02-15T09:11:47Z</time></trkpt><trkpt lat="-23.74685" lon="-46.57862"><ele>769.0</ele><time>2017-02-15T09:11:55Z</time></trkpt><trkpt lat="-23.746954" lon="-46.578591"><ele>769.0</ele><time>2017-02-15T09:12:03Z</time></trkpt><trkpt lat="-23.747047" lon="-46.578546"><ele>767.0</ele><time>2017-02-15T09:12:09Z</time></trkpt><trkpt lat="-23.747143" lon="-46.578539"><ele>768.0</ele><time>2017-02-15T09:12:18Z</time></trkpt><trkpt lat="-23.747227" lon="-46.578493"><ele>770.0</ele><time>2017-02-15T09:12:27Z</time></trkpt><trkpt lat="-23.747318" lon="-46.578446"><ele>772.0</ele><time>2017-02-15T09:12:38Z</time></trkpt><trkpt lat="-23.747422" lon="-46.578444"><ele>771.0</ele><time>2017-02-15T09:12:46Z</time></trkpt><trkpt lat="-23.747514" lon="-46.578429"><ele>773.0</ele><time>2017-02-15T09:12:54Z</time></trkpt><trkpt lat="-23.747602" lon="-46.578398"><ele>771.0</ele><time>2017-02-15T09:13:01Z</time></trkpt><trkpt lat="-23.747693" lon="-46.578375"><ele>770.0</ele><time>2017-02-15T09:13:08Z</time></trkpt><trkpt lat="-23.747792" lon="-46.578376"><ele>770.0</ele><time>2017-02-15T09:13:17Z</time></trkpt><trkpt lat="-23.747889" lon="-46.578392"><ele>770.0</ele><time>2017-02-15T09:13:26Z</time></trkpt><trkpt lat="-23.747975" lon="-46.578345"><ele>771.0</ele><time>2017-02-15T09:13:35Z</time></trkpt><trkpt lat="-23.74807" lon="-46.578335"><ele>773.0</ele><time>2017-02-15T09:13:47Z</time></trkpt><trkpt lat="-23.748157" lon="-46.578303"><ele>769.0</ele><time>2017-02-15T09:13:54Z</time></trkpt><trkpt lat="-23.748243" lon="-46.578252"><ele>765.0</ele><time>2017-02-15T09:14:00Z</time></trkpt><trkpt lat="-23.748337" lon="-46.578221"><ele>768.0</ele><time>2017-02-15T09:14:09Z</time></trkpt><trkpt lat="-23.748433" lon="-46.578218"><ele>765.0</ele><time>2017-02-15T09:14:17Z</time></trkpt><trkpt lat="-23.748502" lon="-46.57829"><ele>766.0</ele><time>2017-02-15T09:14:28Z</time></trkpt><trkpt lat="-23.74853" lon="-46.578389"><ele>767.0</ele><time>2017-02-15T09:14:36Z</time></trkpt><trkpt lat="-23.748536" lon="-46.578497"><ele>769.0</ele><time>2017-02-15T09:14:44Z</time></trkpt><trkpt lat="-23.748523" lon="-46.578598"><ele>768.0</ele><time>2017-02-15T09:14:53Z</time></trkpt><trkpt lat="-23.748531" lon="-46.578703"><ele>768.0</ele><time>2017-02-15T09:15:01Z</time></trkpt><trkpt lat="-23.748551" lon="-46.578802"><ele>769.0</ele><time>2017-02-15T09:15:09Z</time></trkpt><trkpt lat="-23.748565" lon="-46.578906"><ele>770.0</ele><time>2017-02-15T09:15:19Z</time></trkpt><trkpt lat="-23.748518" lon="-46.578996"><ele>770.0</ele><time>2017-02-15T09:15:33Z</time></trkpt><trkpt lat="-23.748425" lon="-46.579005"><ele>768.0</ele><time>2017-02-15T09:19:12Z</time></trkpt><trkpt lat="-23.74852" lon="-46.579047"><ele>770.0</ele><time>2017-02-15T09:20:30Z</time></trkpt><trkpt lat="-23.748573" lon="-46.579134"><ele>770.0</ele><time>2017-02-15T09:21:01Z</time></trkpt><trkpt lat="-23.74859" lon="-46.579236"><ele>768.0</ele><time>2017-02-15T09:21:09Z</time></trkpt><trkpt lat="-23.748597" lon="-46.579355"><ele>766.0</ele><time>2017-02-15T09:21:26Z</time></trkpt><trkpt lat="-23.748608" lon="-46.579455"><ele>759.0</ele><time>2017-02-15T09:21:47Z</time></trkpt><trkpt lat="-23.748624" lon="-46.579561"><ele>759.0</ele><time>2017-02-15T09:21:55Z</time></trkpt><trkpt lat="-23.748641" lon="-46.57967"><ele>761.0</ele><time>2017-02-15T09:22:02Z</time></trkpt><trkpt lat="-23.74866" lon="-46.579775"><ele>762.0</ele><time>2017-02-15T09:22:10Z</time></trkpt><trkpt lat="-23.748672" lon="-46.579873"><ele>763.0</ele><time>2017-02-15T09:22:19Z</time></trkpt><trkpt lat="-23.748635" lon="-46.57977"><ele>761.0</ele><time>2017-02-15T09:22:52Z</time></trkpt><trkpt lat="-23.748655" lon="-46.579869"><ele>762.0</ele><time>2017-02-15T09:23:56Z</time></trkpt><trkpt lat="-23.748673" lon="-46.579968"><ele>760.0</ele><time>2017-02-15T09:24:07Z</time></trkpt><trkpt lat="-23.748683" lon="-46.580078"><ele>762.0</ele><time>2017-02-15T09:24:16Z</time></trkpt><trkpt lat="-23.748683" lon="-46.580178"><ele>760.0</ele><time>2017-02-15T09:24:22Z</time></trkpt><trkpt lat="-23.74867" lon="-46.580276"><ele>761.0</ele><time>2017-02-15T09:24:30Z</time></trkpt><trkpt lat="-23.748679" lon="-46.580381"><ele>762.0</ele><time>2017-02-15T09:24:39Z</time></trkpt><trkpt lat="-23.748671" lon="-46.580489"><ele>765.0</ele><time>2017-02-15T09:24:47Z</time></trkpt><trkpt lat="-23.74868" lon="-46.580599"><ele>763.0</ele><time>2017-02-15T09:24:56Z</time></trkpt><trkpt lat="-23.748674" lon="-46.5807"><ele>763.0</ele><time>2017-02-15T09:25:08Z</time></trkpt><trkpt lat="-23.748662" lon="-46.580805"><ele>765.0</ele><time>2017-02-15T09:25:33Z</time></trkpt><trkpt lat="-23.748665" lon="-46.580911"><ele>764.0</ele><time>2017-02-15T09:25:40Z</time></trkpt><trkpt lat="-23.748664" lon="-46.581025"><ele>765.0</ele><time>2017-02-15T09:25:47Z</time></trkpt><trkpt lat="-23.74868" lon="-46.581123"><ele>763.0</ele><time>2017-02-15T09:25:55Z</time></trkpt><trkpt lat="-23.748708" lon="-46.581218"><ele>761.0</ele><time>2017-02-15T09:26:08Z</time></trkpt><trkpt lat="-23.748696" lon="-46.581316"><ele>762.0</ele><time>2017-02-15T09:26:15Z</time></trkpt><trkpt lat="-23.7487" lon="-46.581424"><ele>758.0</ele><time>2017-02-15T09:26:24Z</time></trkpt><trkpt lat="-23.748721" lon="-46.581526"><ele>760.0</ele><time>2017-02-15T09:26:32Z</time></trkpt><trkpt lat="-23.74872" lon="-46.581627"><ele>759.0</ele><time>2017-02-15T09:26:38Z</time></trkpt><trkpt lat="-23.748737" lon="-46.581726"><ele>760.0</ele><time>2017-02-15T09:26:44Z</time></trkpt><trkpt lat="-23.748753" lon="-46.581828"><ele>761.0</ele><time>2017-02-15T09:26:50Z</time></trkpt><trkpt lat="-23.748779" lon="-46.581925"><ele>759.0</ele><time>2017-02-15T09:26:56Z</time></trkpt><trkpt lat="-23.748798" lon="-46.582036"><ele>759.0</ele><time>2017-02-15T09:27:04Z</time></trkpt><trkpt lat="-23.74882" lon="-46.582143"><ele>758.0</ele><time>2017-02-15T09:27:11Z</time></trkpt><trkpt lat="-23.748834" lon="-46.582252"><ele>759.0</ele><time>2017-02-15T09:27:18Z</time></trkpt><trkpt lat="-23.748868" lon="-46.582351"><ele>757.0</ele><time>2017-02-15T09:27:25Z</time></trkpt><trkpt lat="-23.748919" lon="-46.582444"><ele>756.0</ele><time>2017-02-15T09:27:33Z</time></trkpt><trkpt lat="-23.74897" lon="-46.58253"><ele>755.0</ele><time>2017-02-15T09:27:42Z</time></trkpt><trkpt lat="-23.749021" lon="-46.582617"><ele>754.0</ele><time>2017-02-15T09:27:48Z</time></trkpt><trkpt lat="-23.749038" lon="-46.582724"><ele>757.0</ele><time>2017-02-15T09:27:56Z</time></trkpt><trkpt lat="-23.74908" lon="-46.58282"><ele>758.0</ele><time>2017-02-15T09:28:05Z</time></trkpt><trkpt lat="-23.749133" lon="-46.582917"><ele>759.0</ele><time>2017-02-15T09:28:13Z</time></trkpt><trkpt lat="-23.749169" lon="-46.583013"><ele>760.0</ele><time>2017-02-15T09:28:22Z</time></trkpt><trkpt lat="-23.749193" lon="-46.583116"><ele>760.0</ele><time>2017-02-15T09:28:42Z</time></trkpt><trkpt lat="-23.749218" lon="-46.583217"><ele>759.0</ele><time>2017-02-15T09:28:50Z</time></trkpt><trkpt lat="-23.749272" lon="-46.583296"><ele>759.0</ele><time>2017-02-15T09:28:57Z</time></trkpt><trkpt lat="-23.749324" lon="-46.58338"><ele>756.0</ele><time>2017-02-15T09:29:06Z</time></trkpt><trkpt lat="-23.749381" lon="-46.583473"><ele>758.0</ele><time>2017-02-15T09:29:20Z</time></trkpt><trkpt lat="-23.749434" lon="-46.58357"><ele>760.0</ele><time>2017-02-15T09:29:27Z</time></trkpt><trkpt lat="-23.749485" lon="-46.583656"><ele>759.0</ele><time>2017-02-15T09:29:34Z</time></trkpt><trkpt lat="-23.749537" lon="-46.58374"><ele>761.0</ele><time>2017-02-15T09:29:41Z</time></trkpt><trkpt lat="-23.749622" lon="-46.583799"><ele>760.0</ele><time>2017-02-15T09:29:50Z</time></trkpt><trkpt lat="-23.749679" lon="-46.583885"><ele>759.0</ele><time>2017-02-15T09:29:58Z</time></trkpt><trkpt lat="-23.749736" lon="-46.583973"><ele>760.0</ele><time>2017-02-15T09:30:06Z</time></trkpt><trkpt lat="-23.749797" lon="-46.584059"><ele>760.0</ele><time>2017-02-15T09:30:13Z</time></trkpt><trkpt lat="-23.749855" lon="-46.584144"><ele>761.0</ele><time>2017-02-15T09:30:21Z</time></trkpt><trkpt lat="-23.749938" lon="-46.584197"><ele>759.0</ele><time>2017-02-15T09:30:30Z</time></trkpt><trkpt lat="-23.749979" lon="-46.584293"><ele>757.0</ele><time>2017-02-15T09:30:50Z</time></trkpt><trkpt lat="-23.750058" lon="-46.584356"><ele>758.0</ele><time>2017-02-15T09:30:56Z</time></trkpt><trkpt lat="-23.750142" lon="-46.584413"><ele>754.0</ele><time>2017-02-15T09:31:04Z</time></trkpt><trkpt lat="-23.750218" lon="-46.584486"><ele>756.0</ele><time>2017-02-15T09:31:11Z</time></trkpt><trkpt lat="-23.750309" lon="-46.584502"><ele>755.0</ele><time>2017-02-15T09:31:19Z</time></trkpt><trkpt lat="-23.7504" lon="-46.584514"><ele>755.0</ele><time>2017-02-15T09:31:29Z</time></trkpt><trkpt lat="-23.750455" lon="-46.584593"><ele>757.0</ele><time>2017-02-15T09:31:36Z</time></trkpt><trkpt lat="-23.750545" lon="-46.584669"><ele>757.0</ele><time>2017-02-15T09:31:44Z</time></trkpt><trkpt lat="-23.750622" lon="-46.584732"><ele>755.0</ele><time>2017-02-15T09:31:52Z</time></trkpt><trkpt lat="-23.750713" lon="-46.58478"><ele>754.0</ele><time>2017-02-15T09:32:01Z</time></trkpt><trkpt lat="-23.750808" lon="-46.58481"><ele>751.0</ele><time>2017-02-15T09:32:09Z</time></trkpt><trkpt lat="-23.75087" lon="-46.584892"><ele>752.0</ele><time>2017-02-15T09:32:16Z</time></trkpt><trkpt lat="-23.750959" lon="-46.584908"><ele>755.0</ele><time>2017-02-15T09:32:24Z</time></trkpt><trkpt lat="-23.751048" lon="-46.584963"><ele>755.0</ele><time>2017-02-15T09:32:32Z</time></trkpt><trkpt lat="-23.751125" lon="-46.585028"><ele>754.0</ele><time>2017-02-15T09:32:39Z</time></trkpt><trkpt lat="-23.751204" lon="-46.585091"><ele>755.0</ele><time>2017-02-15T09:32:47Z</time></trkpt><trkpt lat="-23.751295" lon="-46.585148"><ele>761.0</ele><time>2017-02-15T09:33:14Z</time></trkpt><trkpt lat="-23.751361" lon="-46.585217"><ele>756.0</ele><time>2017-02-15T09:33:22Z</time></trkpt><trkpt lat="-23.75146" lon="-46.585232"><ele>754.0</ele><time>2017-02-15T09:33:48Z</time></trkpt><trkpt lat="-23.751471" lon="-46.585236"><ele>753.0</ele><time>2017-02-15T09:33:49Z</time></trkpt><trkpt lat="-23.751567" lon="-46.585248"><ele>754.0</ele><time>2017-02-15T09:34:02Z</time></trkpt><trkpt lat="-23.751663" lon="-46.585293"><ele>758.0</ele><time>2017-02-15T09:34:09Z</time></trkpt><trkpt lat="-23.751751" lon="-46.585319"><ele>757.0</ele><time>2017-02-15T09:34:16Z</time></trkpt><trkpt lat="-23.751842" lon="-46.585287"><ele>755.0</ele><time>2017-02-15T09:34:40Z</time></trkpt><trkpt lat="-23.751896" lon="-46.58537"><ele>758.0</ele><time>2017-02-15T09:36:42Z</time></trkpt><trkpt lat="-23.751984" lon="-46.585435"><ele>759.0</ele><time>2017-02-15T09:36:48Z</time></trkpt><trkpt lat="-23.752089" lon="-46.585445"><ele>756.0</ele><time>2017-02-15T09:36:56Z</time></trkpt><trkpt lat="-23.752182" lon="-46.58546"><ele>759.0</ele><time>2017-02-15T09:37:23Z</time></trkpt><trkpt lat="-23.75227" lon="-46.585512"><ele>758.0</ele><time>2017-02-15T09:37:30Z</time></trkpt><trkpt lat="-23.75236" lon="-46.585546"><ele>758.0</ele><time>2017-02-15T09:37:37Z</time></trkpt><trkpt lat="-23.752448" lon="-46.585579"><ele>760.0</ele><time>2017-02-15T09:37:46Z</time></trkpt><trkpt lat="-23.752542" lon="-46.585573"><ele>759.0</ele><time>2017-02-15T09:38:11Z</time></trkpt><trkpt lat="-23.752631" lon="-46.585594"><ele>759.0</ele><time>2017-02-15T09:38:19Z</time></trkpt><trkpt lat="-23.752734" lon="-46.585616"><ele>759.0</ele><time>2017-02-15T09:38:25Z</time></trkpt><trkpt lat="-23.752835" lon="-46.585615"><ele>760.0</ele><time>2017-02-15T09:38:33Z</time></trkpt><trkpt lat="-23.752943" lon="-46.585622"><ele>762.0</ele><time>2017-02-15T09:38:39Z</time></trkpt><trkpt lat="-23.753042" lon="-46.585627"><ele>763.0</ele><time>2017-02-15T09:38:46Z</time></trkpt><trkpt lat="-23.753139" lon="-46.585645"><ele>764.0</ele><time>2017-02-15T09:38:55Z</time></trkpt><trkpt lat="-23.753232" lon="-46.585648"><ele>761.0</ele><time>2017-02-15T09:39:03Z</time></trkpt><trkpt lat="-23.753325" lon="-46.585669"><ele>759.0</ele><time>2017-02-15T09:39:21Z</time></trkpt><trkpt lat="-23.753416" lon="-46.585692"><ele>760.0</ele><time>2017-02-15T09:39:29Z</time></trkpt><trkpt lat="-23.753511" lon="-46.585725"><ele>767.0</ele><time>2017-02-15T09:39:36Z</time></trkpt><trkpt lat="-23.753607" lon="-46.585736"><ele>764.0</ele><time>2017-02-15T09:39:44Z</time></trkpt><trkpt lat="-23.753706" lon="-46.585741"><ele>763.0</ele><time>2017-02-15T09:39:52Z</time></trkpt><trkpt lat="-23.753808" lon="-46.585748"><ele>762.0</ele><time>2017-02-15T09:40:00Z</time></trkpt><trkpt lat="-23.753897" lon="-46.585769"><ele>763.0</ele><time>2017-02-15T09:40:07Z</time></trkpt><trkpt lat="-23.753988" lon="-46.585748"><ele>760.0</ele><time>2017-02-15T09:40:15Z</time></trkpt><trkpt lat="-23.754078" lon="-46.58577"><ele>761.0</ele><time>2017-02-15T09:40:24Z</time></trkpt><trkpt lat="-23.754169" lon="-46.585804"><ele>766.0</ele><time>2017-02-15T09:40:48Z</time></trkpt><trkpt lat="-23.754231" lon="-46.585727"><ele>762.0</ele><time>2017-02-15T09:40:54Z</time></trkpt><trkpt lat="-23.754318" lon="-46.585775"><ele>764.0</ele><time>2017-02-15T09:41:15Z</time></trkpt><trkpt lat="-23.754414" lon="-46.585791"><ele>765.0</ele><time>2017-02-15T09:41:22Z</time></trkpt><trkpt lat="-23.754504" lon="-46.58585"><ele>767.0</ele><time>2017-02-15T09:41:28Z</time></trkpt><trkpt lat="-23.7546" lon="-46.58589"><ele>767.0</ele><time>2017-02-15T09:41:36Z</time></trkpt><trkpt lat="-23.754693" lon="-46.585891"><ele>769.0</ele><time>2017-02-15T09:41:43Z</time></trkpt><trkpt lat="-23.754792" lon="-46.585906"><ele>766.0</ele><time>2017-02-15T09:41:50Z</time></trkpt><trkpt lat="-23.754883" lon="-46.58586"><ele>763.0</ele><time>2017-02-15T09:41:58Z</time></trkpt><trkpt lat="-23.754973" lon="-46.585879"><ele>765.0</ele><time>2017-02-15T09:42:05Z</time></trkpt><trkpt lat="-23.755066" lon="-46.585873"><ele>766.0</ele><time>2017-02-15T09:42:14Z</time></trkpt><trkpt lat="-23.755149" lon="-46.58593"><ele>767.0</ele><time>2017-02-15T09:42:21Z</time></trkpt><trkpt lat="-23.755232" lon="-46.585991"><ele>771.0</ele><time>2017-02-15T09:42:29Z</time></trkpt><trkpt lat="-23.755316" lon="-46.586035"><ele>774.0</ele><time>2017-02-15T09:42:37Z</time></trkpt><trkpt lat="-23.755405" lon="-46.586016"><ele>774.0</ele><time>2017-02-15T09:42:45Z</time></trkpt><trkpt lat="-23.755496" lon="-46.585975"><ele>770.0</ele><time>2017-02-15T09:43:16Z</time></trkpt><trkpt lat="-23.755589" lon="-46.585996"><ele>770.0</ele><time>2017-02-15T09:43:21Z</time></trkpt><trkpt lat="-23.75569" lon="-46.586001"><ele>772.0</ele><time>2017-02-15T09:43:27Z</time></trkpt><trkpt lat="-23.755784" lon="-46.586014"><ele>772.0</ele><time>2017-02-15T09:43:34Z</time></trkpt><trkpt lat="-23.755865" lon="-46.586072"><ele>772.0</ele><time>2017-02-15T09:43:44Z</time></trkpt><trkpt lat="-23.755958" lon="-46.586101"><ele>769.0</ele><time>2017-02-15T09:43:52Z</time></trkpt><trkpt lat="-23.756033" lon="-46.586162"><ele>770.0</ele><time>2017-02-15T09:43:56Z</time></trkpt><trkpt lat="-23.756082" lon="-46.586251"><ele>769.0</ele><time>2017-02-15T09:43:59Z</time></trkpt><trkpt lat="-23.756157" lon="-46.58619"><ele>771.0</ele><time>2017-02-15T09:44:04Z</time></trkpt><trkpt lat="-23.75624" lon="-46.586151"><ele>774.0</ele><time>2017-02-15T09:44:11Z</time></trkpt><trkpt lat="-23.756336" lon="-46.586166"><ele>772.0</ele><time>2017-02-15T09:44:19Z</time></trkpt><trkpt lat="-23.756434" lon="-46.586177"><ele>779.0</ele><time>2017-02-15T09:44:26Z</time></trkpt><trkpt lat="-23.756525" lon="-46.586133"><ele>774.0</ele><time>2017-02-15T09:45:05Z</time></trkpt><trkpt lat="-23.756616" lon="-46.586128"><ele>775.0</ele><time>2017-02-15T09:45:13Z</time></trkpt><trkpt lat="-23.756707" lon="-46.586131"><ele>775.0</ele><time>2017-02-15T09:45:21Z</time></trkpt><trkpt lat="-23.756812" lon="-46.586134"><ele>773.0</ele><time>2017-02-15T09:45:29Z</time></trkpt><trkpt lat="-23.756908" lon="-46.586168"><ele>777.0</ele><time>2017-02-15T09:45:35Z</time></trkpt><trkpt lat="-23.756994" lon="-46.58621"><ele>777.0</ele><time>2017-02-15T09:45:42Z</time></trkpt><trkpt lat="-23.757084" lon="-46.586215"><ele>776.0</ele><time>2017-02-15T09:45:51Z</time></trkpt><trkpt lat="-23.757183" lon="-46.586213"><ele>777.0</ele><time>2017-02-15T09:45:59Z</time></trkpt><trkpt lat="-23.757285" lon="-46.586213"><ele>777.0</ele><time>2017-02-15T09:46:07Z</time></trkpt><trkpt lat="-23.757384" lon="-46.586225"><ele>774.0</ele><time>2017-02-15T09:46:15Z</time></trkpt><trkpt lat="-23.757472" lon="-46.586251"><ele>773.0</ele><time>2017-02-15T09:46:23Z</time></trkpt><trkpt lat="-23.757564" lon="-46.586247"><ele>769.0</ele><time>2017-02-15T09:46:30Z</time></trkpt><trkpt lat="-23.757666" lon="-46.586244"><ele>768.0</ele><time>2017-02-15T09:46:37Z</time></trkpt><trkpt lat="-23.757762" lon="-46.586242"><ele>774.0</ele><time>2017-02-15T09:46:44Z</time></trkpt><trkpt lat="-23.757855" lon="-46.586251"><ele>776.0</ele><time>2017-02-15T09:46:51Z</time></trkpt><trkpt lat="-23.757945" lon="-46.586252"><ele>781.0</ele><time>2017-02-15T09:46:59Z</time></trkpt><trkpt lat="-23.75804" lon="-46.586264"><ele>777.0</ele><time>2017-02-15T09:47:06Z</time></trkpt><trkpt lat="-23.758134" lon="-46.586286"><ele>773.0</ele><time>2017-02-15T09:47:14Z</time></trkpt><trkpt lat="-23.758233" lon="-46.586287"><ele>778.0</ele><time>2017-02-15T09:47:21Z</time></trkpt><trkpt lat="-23.758318" lon="-46.586328"><ele>775.0</ele><time>2017-02-15T09:47:29Z</time></trkpt><trkpt lat="-23.758414" lon="-46.586335"><ele>775.0</ele><time>2017-02-15T09:47:43Z</time></trkpt><trkpt lat="-23.75851" lon="-46.586337"><ele>773.0</ele><time>2017-02-15T09:48:08Z</time></trkpt><trkpt lat="-23.758603" lon="-46.586355"><ele>772.0</ele><time>2017-02-15T09:48:13Z</time></trkpt><trkpt lat="-23.758702" lon="-46.58638"><ele>765.0</ele><time>2017-02-15T09:48:35Z</time></trkpt><trkpt lat="-23.758796" lon="-46.586359"><ele>767.0</ele><time>2017-02-15T09:48:41Z</time></trkpt><trkpt lat="-23.758881" lon="-46.586323"><ele>768.0</ele><time>2017-02-15T09:48:46Z</time></trkpt><trkpt lat="-23.758983" lon="-46.586319"><ele>767.0</ele><time>2017-02-15T09:48:53Z</time></trkpt><trkpt lat="-23.759079" lon="-46.586284"><ele>769.0</ele><time>2017-02-15T09:49:00Z</time></trkpt><trkpt lat="-23.759149" lon="-46.586351"><ele>766.0</ele><time>2017-02-15T09:49:06Z</time></trkpt><trkpt lat="-23.759243" lon="-46.58634"><ele>767.0</ele><time>2017-02-15T09:49:12Z</time></trkpt><trkpt lat="-23.759338" lon="-46.58636"><ele>768.0</ele><time>2017-02-15T09:49:22Z</time></trkpt><trkpt lat="-23.759415" lon="-46.586432"><ele>768.0</ele><time>2017-02-15T09:49:28Z</time></trkpt><trkpt lat="-23.759505" lon="-46.586404"><ele>767.0</ele><time>2017-02-15T09:49:35Z</time></trkpt><trkpt lat="-23.759592" lon="-46.586434"><ele>762.0</ele><time>2017-02-15T09:49:42Z</time></trkpt><trkpt lat="-23.759687" lon="-46.586412"><ele>767.0</ele><time>2017-02-15T09:49:50Z</time></trkpt><trkpt lat="-23.759785" lon="-46.586424"><ele>765.0</ele><time>2017-02-15T09:49:58Z</time></trkpt><trkpt lat="-23.759877" lon="-46.586446"><ele>762.0</ele><time>2017-02-15T09:50:12Z</time></trkpt><trkpt lat="-23.759974" lon="-46.586459"><ele>763.0</ele><time>2017-02-15T09:50:19Z</time></trkpt><trkpt lat="-23.760066" lon="-46.586465"><ele>762.0</ele><time>2017-02-15T09:50:24Z</time></trkpt><trkpt lat="-23.760167" lon="-46.586465"><ele>764.0</ele><time>2017-02-15T09:50:33Z</time></trkpt><trkpt lat="-23.760177" lon="-46.586574"><ele>763.0</ele><time>2017-02-15T09:50:43Z</time></trkpt><trkpt lat="-23.760117" lon="-46.586662"><ele>761.0</ele><time>2017-02-15T09:50:50Z</time></trkpt><trkpt lat="-23.760086" lon="-46.586761"><ele>760.0</ele><time>2017-02-15T09:50:57Z</time></trkpt><trkpt lat="-23.760105" lon="-46.586864"><ele>761.0</ele><time>2017-02-15T09:51:05Z</time></trkpt><trkpt lat="-23.760143" lon="-46.586965"><ele>761.0</ele><time>2017-02-15T09:52:05Z</time></trkpt><trkpt lat="-23.760093" lon="-46.587056"><ele>762.0</ele><time>2017-02-15T09:52:11Z</time></trkpt><trkpt lat="-23.76006" lon="-46.587154"><ele>762.0</ele><time>2017-02-15T09:52:16Z</time></trkpt><trkpt lat="-23.760022" lon="-46.587251"><ele>761.0</ele><time>2017-02-15T09:52:23Z</time></trkpt><trkpt lat="-23.759959" lon="-46.587325"><ele>766.0</ele><time>2017-02-15T09:52:32Z</time></trkpt><trkpt lat="-23.759912" lon="-46.587413"><ele>770.0</ele><time>2017-02-15T09:52:43Z</time></trkpt><trkpt lat="-23.759829" lon="-46.587472"><ele>771.0</ele><time>2017-02-15T09:52:55Z</time></trkpt><trkpt lat="-23.759757" lon="-46.587544"><ele>770.0</ele><time>2017-02-15T09:53:05Z</time></trkpt><trkpt lat="-23.759724" lon="-46.587638"><ele>770.0</ele><time>2017-02-15T09:53:14Z</time></trkpt><trkpt lat="-23.759662" lon="-46.58772"><ele>771.0</ele><time>2017-02-15T09:53:27Z</time></trkpt><trkpt lat="-23.759607" lon="-46.587806"><ele>775.0</ele><time>2017-02-15T09:53:37Z</time></trkpt><trkpt lat="-23.759548" lon="-46.587882"><ele>773.0</ele><time>2017-02-15T09:53:48Z</time></trkpt><trkpt lat="-23.759467" lon="-46.587946"><ele>774.0</ele><time>2017-02-15T09:53:59Z</time></trkpt><trkpt lat="-23.759387" lon="-46.587997"><ele>778.0</ele><time>2017-02-15T09:54:07Z</time></trkpt><trkpt lat="-23.75934" lon="-46.588093"><ele>778.0</ele><time>2017-02-15T09:54:17Z</time></trkpt><trkpt lat="-23.759294" lon="-46.588179"><ele>779.0</ele><time>2017-02-15T09:54:27Z</time></trkpt><trkpt lat="-23.759238" lon="-46.588263"><ele>780.0</ele><time>2017-02-15T09:54:36Z</time></trkpt><trkpt lat="-23.759155" lon="-46.588314"><ele>779.0</ele><time>2017-02-15T09:54:45Z</time></trkpt><trkpt lat="-23.759103" lon="-46.588407"><ele>781.0</ele><time>2017-02-15T09:54:55Z</time></trkpt><trkpt lat="-23.759047" lon="-46.588489"><ele>781.0</ele><time>2017-02-15T09:55:04Z</time></trkpt><trkpt lat="-23.758982" lon="-46.588561"><ele>781.0</ele><time>2017-02-15T09:55:13Z</time></trkpt><trkpt lat="-23.758915" lon="-46.588628"><ele>780.0</ele><time>2017-02-15T09:55:22Z</time></trkpt><trkpt lat="-23.758872" lon="-46.588715"><ele>781.0</ele><time>2017-02-15T09:55:30Z</time></trkpt><trkpt lat="-23.75877" lon="-46.58884"><ele>784.0</ele><time>2017-02-15T09:56:28Z</time></trkpt><trkpt lat="-23.758715" lon="-46.588929"><ele>787.0</ele><time>2017-02-15T09:56:34Z</time></trkpt><trkpt lat="-23.758619" lon="-46.588979"><ele>788.0</ele><time>2017-02-15T09:56:39Z</time></trkpt><trkpt lat="-23.758575" lon="-46.589074"><ele>786.0</ele><time>2017-02-15T09:56:45Z</time></trkpt><trkpt lat="-23.758528" lon="-46.589164"><ele>782.0</ele><time>2017-02-15T09:56:53Z</time></trkpt><trkpt lat="-23.758469" lon="-46.589243"><ele>782.0</ele><time>2017-02-15T09:57:09Z</time></trkpt><trkpt lat="-23.758418" lon="-46.589327"><ele>782.0</ele><time>2017-02-15T09:57:15Z</time></trkpt><trkpt lat="-23.758367" lon="-46.589422"><ele>780.0</ele><time>2017-02-15T09:57:22Z</time></trkpt><trkpt lat="-23.758311" lon="-46.589516"><ele>783.0</ele><time>2017-02-15T09:57:46Z</time></trkpt><trkpt lat="-23.758252" lon="-46.589598"><ele>782.0</ele><time>2017-02-15T09:57:52Z</time></trkpt><trkpt lat="-23.758182" lon="-46.589673"><ele>777.0</ele><time>2017-02-15T09:58:00Z</time></trkpt><trkpt lat="-23.758116" lon="-46.589752"><ele>777.0</ele><time>2017-02-15T09:58:20Z</time></trkpt><trkpt lat="-23.758133" lon="-46.589849"><ele>777.0</ele><time>2017-02-15T09:58:46Z</time></trkpt><trkpt lat="-23.7582" lon="-46.589931"><ele>779.0</ele><time>2017-02-15T09:58:54Z</time></trkpt><trkpt lat="-23.758189" lon="-46.590036"><ele>781.0</ele><time>2017-02-15T09:59:02Z</time></trkpt><trkpt lat="-23.758134" lon="-46.590121"><ele>781.0</ele><time>2017-02-15T09:59:09Z</time></trkpt><trkpt lat="-23.758065" lon="-46.590192"><ele>778.0</ele><time>2017-02-15T09:59:16Z</time></trkpt><trkpt lat="-23.758002" lon="-46.590267"><ele>777.0</ele><time>2017-02-15T09:59:23Z</time></trkpt><trkpt lat="-23.757948" lon="-46.590351"><ele>773.0</ele><time>2017-02-15T09:59:31Z</time></trkpt><trkpt lat="-23.757892" lon="-46.590441"><ele>772.0</ele><time>2017-02-15T09:59:39Z</time></trkpt><trkpt lat="-23.757849" lon="-46.590533"><ele>772.0</ele><time>2017-02-15T09:59:45Z</time></trkpt><trkpt lat="-23.757856" lon="-46.590636"><ele>773.0</ele><time>2017-02-15T09:59:53Z</time></trkpt><trkpt lat="-23.75789" lon="-46.590737"><ele>773.0</ele><time>2017-02-15T10:00:01Z</time></trkpt><trkpt lat="-23.757885" lon="-46.590847"><ele>771.0</ele><time>2017-02-15T10:00:10Z</time></trkpt><trkpt lat="-23.757886" lon="-46.590955"><ele>771.0</ele><time>2017-02-15T10:00:18Z</time></trkpt><trkpt lat="-23.757868" lon="-46.591062"><ele>771.0</ele><time>2017-02-15T10:00:26Z</time></trkpt><trkpt lat="-23.757825" lon="-46.591157"><ele>769.0</ele><time>2017-02-15T10:00:34Z</time></trkpt><trkpt lat="-23.757771" lon="-46.591245"><ele>769.0</ele><time>2017-02-15T10:00:42Z</time></trkpt><trkpt lat="-23.757718" lon="-46.591324"><ele>769.0</ele><time>2017-02-15T10:00:49Z</time></trkpt><trkpt lat="-23.757686" lon="-46.591427"><ele>769.0</ele><time>2017-02-15T10:00:57Z</time></trkpt><trkpt lat="-23.757692" lon="-46.591529"><ele>768.0</ele><time>2017-02-15T10:01:05Z</time></trkpt><trkpt lat="-23.757717" lon="-46.591626"><ele>765.0</ele><time>2017-02-15T10:01:15Z</time></trkpt><trkpt lat="-23.757751" lon="-46.591721"><ele>765.0</ele><time>2017-02-15T10:01:23Z</time></trkpt><trkpt lat="-23.757787" lon="-46.591815"><ele>763.0</ele><time>2017-02-15T10:01:34Z</time></trkpt><trkpt lat="-23.757818" lon="-46.591912"><ele>764.0</ele><time>2017-02-15T10:01:42Z</time></trkpt><trkpt lat="-23.757847" lon="-46.59202"><ele>766.0</ele><time>2017-02-15T10:01:50Z</time></trkpt><trkpt lat="-23.757872" lon="-46.592119"><ele>768.0</ele><time>2017-02-15T10:03:21Z</time></trkpt><trkpt lat="-23.757894" lon="-46.592219"><ele>769.0</ele><time>2017-02-15T10:03:29Z</time></trkpt><trkpt lat="-23.75793" lon="-46.592309"><ele>770.0</ele><time>2017-02-15T10:03:36Z</time></trkpt><trkpt lat="-23.757961" lon="-46.592403"><ele>768.0</ele><time>2017-02-15T10:04:06Z</time></trkpt><trkpt lat="-23.757987" lon="-46.592498"><ele>771.0</ele><time>2017-02-15T10:04:14Z</time></trkpt><trkpt lat="-23.758014" lon="-46.592593"><ele>771.0</ele><time>2017-02-15T10:04:48Z</time></trkpt><trkpt lat="-23.758035" lon="-46.592701"><ele>773.0</ele><time>2017-02-15T10:04:57Z</time></trkpt><trkpt lat="-23.758064" lon="-46.592796"><ele>770.0</ele><time>2017-02-15T10:05:05Z</time></trkpt><trkpt lat="-23.758113" lon="-46.592881"><ele>770.0</ele><time>2017-02-15T10:05:18Z</time></trkpt><trkpt lat="-23.758139" lon="-46.592981"><ele>770.0</ele><time>2017-02-15T10:09:53Z</time></trkpt><trkpt lat="-23.75817" lon="-46.593078"><ele>771.0</ele><time>2017-02-15T10:10:01Z</time></trkpt><trkpt lat="-23.758205" lon="-46.59318"><ele>774.0</ele><time>2017-02-15T10:10:09Z</time></trkpt><trkpt lat="-23.758263" lon="-46.59327"><ele>774.0</ele><time>2017-02-15T10:10:17Z</time></trkpt><trkpt lat="-23.758238" lon="-46.593368"><ele>773.0</ele><time>2017-02-15T10:10:24Z</time></trkpt><trkpt lat="-23.758257" lon="-46.593466"><ele>771.0</ele><time>2017-02-15T10:10:33Z</time></trkpt><trkpt lat="-23.758321" lon="-46.593556"><ele>776.0</ele><time>2017-02-15T10:10:41Z</time></trkpt><trkpt lat="-23.75835" lon="-46.59365"><ele>777.0</ele><time>2017-02-15T10:10:46Z</time></trkpt><trkpt lat="-23.758361" lon="-46.59375"><ele>775.0</ele><time>2017-02-15T10:10:55Z</time></trkpt><trkpt lat="-23.758425" lon="-46.593831"><ele>774.0</ele><time>2017-02-15T10:11:02Z</time></trkpt><trkpt lat="-23.758508" lon="-46.593889"><ele>773.0</ele><time>2017-02-15T10:11:51Z</time></trkpt><trkpt lat="-23.758595" lon="-46.593924"><ele>769.0</ele><time>2017-02-15T10:11:59Z</time></trkpt><trkpt lat="-23.758694" lon="-46.593942"><ele>769.0</ele><time>2017-02-15T10:12:05Z</time></trkpt><trkpt lat="-23.758779" lon="-46.593981"><ele>768.0</ele><time>2017-02-15T10:12:14Z</time></trkpt><trkpt lat="-23.758863" lon="-46.594021"><ele>772.0</ele><time>2017-02-15T10:12:30Z</time></trkpt><trkpt lat="-23.758941" lon="-46.594086"><ele>772.0</ele><time>2017-02-15T10:12:37Z</time></trkpt><trkpt lat="-23.758992" lon="-46.594177"><ele>769.0</ele><time>2017-02-15T10:12:44Z</time></trkpt><trkpt lat="-23.759027" lon="-46.594277"><ele>772.0</ele><time>2017-02-15T10:12:51Z</time></trkpt><trkpt lat="-23.759066" lon="-46.594376"><ele>774.0</ele><time>2017-02-15T10:12:58Z</time></trkpt><trkpt lat="-23.759069" lon="-46.594477"><ele>776.0</ele><time>2017-02-15T10:13:05Z</time></trkpt><trkpt lat="-23.759084" lon="-46.594584"><ele>777.0</ele><time>2017-02-15T10:13:15Z</time></trkpt><trkpt lat="-23.759135" lon="-46.594665"><ele>776.0</ele><time>2017-02-15T10:13:23Z</time></trkpt><trkpt lat="-23.759193" lon="-46.594745"><ele>778.0</ele><time>2017-02-15T10:13:37Z</time></trkpt><trkpt lat="-23.759286" lon="-46.594745"><ele>775.0</ele><time>2017-02-15T10:13:50Z</time></trkpt><trkpt lat="-23.759373" lon="-46.594703"><ele>773.0</ele><time>2017-02-15T10:13:56Z</time></trkpt><trkpt lat="-23.759466" lon="-46.594687"><ele>777.0</ele><time>2017-02-15T10:14:03Z</time></trkpt><trkpt lat="-23.759565" lon="-46.59465"><ele>776.0</ele><time>2017-02-15T10:14:10Z</time></trkpt><trkpt lat="-23.759649" lon="-46.594607"><ele>776.0</ele><time>2017-02-15T10:14:16Z</time></trkpt><trkpt lat="-23.759735" lon="-46.594563"><ele>777.0</ele><time>2017-02-15T10:14:22Z</time></trkpt><trkpt lat="-23.759834" lon="-46.594545"><ele>776.0</ele><time>2017-02-15T10:14:30Z</time></trkpt><trkpt lat="-23.759922" lon="-46.594568"><ele>779.0</ele><time>2017-02-15T10:14:38Z</time></trkpt><trkpt lat="-23.760019" lon="-46.59455"><ele>778.0</ele><time>2017-02-15T10:14:47Z</time></trkpt><trkpt lat="-23.760106" lon="-46.594513"><ele>775.0</ele><time>2017-02-15T10:14:54Z</time></trkpt><trkpt lat="-23.760192" lon="-46.594483"><ele>776.0</ele><time>2017-02-15T10:15:06Z</time></trkpt><trkpt lat="-23.760287" lon="-46.594453"><ele>776.0</ele><time>2017-02-15T10:15:12Z</time></trkpt><trkpt lat="-23.76039" lon="-46.594417"><ele>780.0</ele><time>2017-02-15T10:15:18Z</time></trkpt><trkpt lat="-23.76048" lon="-46.594402"><ele>780.0</ele><time>2017-02-15T10:15:23Z</time></trkpt><trkpt lat="-23.760577" lon="-46.594405"><ele>784.0</ele><time>2017-02-15T10:15:30Z</time></trkpt><trkpt lat="-23.760674" lon="-46.594386"><ele>785.0</ele><time>2017-02-15T10:15:39Z</time></trkpt><trkpt lat="-23.760768" lon="-46.594393"><ele>782.0</ele><time>2017-02-15T10:15:45Z</time></trkpt><trkpt lat="-23.760861" lon="-46.594413"><ele>779.0</ele><time>2017-02-15T10:15:52Z</time></trkpt><trkpt lat="-23.760959" lon="-46.594411"><ele>782.0</ele><time>2017-02-15T10:15:58Z</time></trkpt><trkpt lat="-23.761056" lon="-46.594397"><ele>781.0</ele><time>2017-02-15T10:16:05Z</time></trkpt><trkpt lat="-23.761153" lon="-46.594408"><ele>782.0</ele><time>2017-02-15T10:16:13Z</time></trkpt><trkpt lat="-23.76124" lon="-46.594433"><ele>783.0</ele><time>2017-02-15T10:16:21Z</time></trkpt><trkpt lat="-23.761335" lon="-46.594417"><ele>785.0</ele><time>2017-02-15T10:16:26Z</time></trkpt><trkpt lat="-23.76143" lon="-46.594414"><ele>783.0</ele><time>2017-02-15T10:16:31Z</time></trkpt><trkpt lat="-23.761525" lon="-46.594444"><ele>779.0</ele><time>2017-02-15T10:16:39Z</time></trkpt><trkpt lat="-23.761627" lon="-46.594422"><ele>782.0</ele><time>2017-02-15T10:16:49Z</time></trkpt><trkpt lat="-23.761728" lon="-46.594427"><ele>778.0</ele><time>2017-02-15T10:16:57Z</time></trkpt><trkpt lat="-23.76182" lon="-46.594466"><ele>768.0</ele><time>2017-02-15T10:17:07Z</time></trkpt><trkpt lat="-23.761908" lon="-46.594506"><ele>762.0</ele><time>2017-02-15T10:17:23Z</time></trkpt><trkpt lat="-23.762" lon="-46.594466"><ele>762.0</ele><time>2017-02-15T10:17:32Z</time></trkpt><trkpt lat="-23.762101" lon="-46.594449"><ele>769.0</ele><time>2017-02-15T10:17:45Z</time></trkpt><trkpt lat="-23.762183" lon="-46.594493"><ele>757.0</ele><time>2017-02-15T10:18:27Z</time></trkpt><trkpt lat="-23.762281" lon="-46.594487"><ele>757.0</ele><time>2017-02-15T10:24:38Z</time></trkpt><trkpt lat="-23.762376" lon="-46.59451"><ele>757.0</ele><time>2017-02-15T10:24:46Z</time></trkpt><trkpt lat="-23.762467" lon="-46.594546"><ele>755.0</ele><time>2017-02-15T10:24:53Z</time></trkpt><trkpt lat="-23.762557" lon="-46.594565"><ele>756.0</ele><time>2017-02-15T10:25:01Z</time></trkpt><trkpt lat="-23.762547" lon="-46.594672"><ele>756.0</ele><time>2017-02-15T10:25:10Z</time></trkpt><trkpt lat="-23.762634" lon="-46.594712"><ele>756.0</ele><time>2017-02-15T10:26:14Z</time></trkpt><trkpt lat="-23.762728" lon="-46.59469"><ele>757.0</ele><time>2017-02-15T10:26:25Z</time></trkpt><trkpt lat="-23.762827" lon="-46.594687"><ele>759.0</ele><time>2017-02-15T10:26:35Z</time></trkpt><trkpt lat="-23.762928" lon="-46.59469"><ele>759.0</ele><time>2017-02-15T10:26:43Z</time></trkpt><trkpt lat="-23.763019" lon="-46.594722"><ele>758.0</ele><time>2017-02-15T10:26:51Z</time></trkpt><trkpt lat="-23.763115" lon="-46.594758"><ele>757.0</ele><time>2017-02-15T10:26:59Z</time></trkpt><trkpt lat="-23.763207" lon="-46.594777"><ele>757.0</ele><time>2017-02-15T10:27:06Z</time></trkpt><trkpt lat="-23.763297" lon="-46.594811"><ele>758.0</ele><time>2017-02-15T10:27:14Z</time></trkpt><trkpt lat="-23.763383" lon="-46.594862"><ele>758.0</ele><time>2017-02-15T10:27:23Z</time></trkpt><trkpt lat="-23.763463" lon="-46.594926"><ele>761.0</ele><time>2017-02-15T10:27:31Z</time></trkpt><trkpt lat="-23.763539" lon="-46.594981"><ele>758.0</ele><time>2017-02-15T10:27:39Z</time></trkpt><trkpt lat="-23.763625" lon="-46.595018"><ele>758.0</ele><time>2017-02-15T10:27:48Z</time></trkpt><trkpt lat="-23.763703" lon="-46.59507"><ele>758.0</ele><time>2017-02-15T10:27:56Z</time></trkpt><trkpt lat="-23.763781" lon="-46.595142"><ele>758.0</ele><time>2017-02-15T10:28:04Z</time></trkpt><trkpt lat="-23.763847" lon="-46.595218"><ele>758.0</ele><time>2017-02-15T10:28:13Z</time></trkpt><trkpt lat="-23.763919" lon="-46.595294"><ele>760.0</ele><time>2017-02-15T10:28:35Z</time></trkpt><trkpt lat="-23.763986" lon="-46.595374"><ele>763.0</ele><time>2017-02-15T10:28:42Z</time></trkpt><trkpt lat="-23.764051" lon="-46.595447"><ele>763.0</ele><time>2017-02-15T10:28:50Z</time></trkpt><trkpt lat="-23.764104" lon="-46.595529"><ele>764.0</ele><time>2017-02-15T10:28:57Z</time></trkpt><trkpt lat="-23.764164" lon="-46.595607"><ele>764.0</ele><time>2017-02-15T10:29:05Z</time></trkpt><trkpt lat="-23.764211" lon="-46.595694"><ele>763.0</ele><time>2017-02-15T10:29:13Z</time></trkpt><trkpt lat="-23.764276" lon="-46.595777"><ele>764.0</ele><time>2017-02-15T10:29:21Z</time></trkpt><trkpt lat="-23.764332" lon="-46.595855"><ele>764.0</ele><time>2017-02-15T10:29:30Z</time></trkpt><trkpt lat="-23.7644" lon="-46.595926"><ele>765.0</ele><time>2017-02-15T10:29:37Z</time></trkpt><trkpt lat="-23.764453" lon="-46.596006"><ele>764.0</ele><time>2017-02-15T10:29:45Z</time></trkpt><trkpt lat="-23.764529" lon="-46.596077"><ele>763.0</ele><time>2017-02-15T10:29:55Z</time></trkpt><trkpt lat="-23.764598" lon="-46.596155"><ele>765.0</ele><time>2017-02-15T10:30:13Z</time></trkpt><trkpt lat="-23.76467" lon="-46.596214"><ele>762.0</ele><time>2017-02-15T10:30:24Z</time></trkpt><trkpt lat="-23.76475" lon="-46.596263"><ele>763.0</ele><time>2017-02-15T10:31:19Z</time></trkpt><trkpt lat="-23.764839" lon="-46.59628"><ele>763.0</ele><time>2017-02-15T10:32:17Z</time></trkpt><trkpt lat="-23.76493" lon="-46.596272"><ele>764.0</ele><time>2017-02-15T10:32:25Z</time></trkpt><trkpt lat="-23.76502" lon="-46.596251"><ele>768.0</ele><time>2017-02-15T10:32:47Z</time></trkpt><trkpt lat="-23.765106" lon="-46.596207"><ele>766.0</ele><time>2017-02-15T10:33:15Z</time></trkpt><trkpt lat="-23.765199" lon="-46.596179"><ele>763.0</ele><time>2017-02-15T10:33:25Z</time></trkpt><trkpt lat="-23.765286" lon="-46.596148"><ele>762.0</ele><time>2017-02-15T10:33:34Z</time></trkpt><trkpt lat="-23.765367" lon="-46.596089"><ele>770.0</ele><time>2017-02-15T10:34:59Z</time></trkpt><trkpt lat="-23.765442" lon="-46.59603"><ele>768.0</ele><time>2017-02-15T10:35:07Z</time></trkpt><trkpt lat="-23.76552" lon="-46.595979"><ele>764.0</ele><time>2017-02-15T10:38:21Z</time></trkpt><trkpt lat="-23.7656" lon="-46.595924"><ele>764.0</ele><time>2017-02-15T10:38:29Z</time></trkpt><trkpt lat="-23.765666" lon="-46.595848"><ele>765.0</ele><time>2017-02-15T10:38:37Z</time></trkpt><trkpt lat="-23.765724" lon="-46.595771"><ele>766.0</ele><time>2017-02-15T10:38:44Z</time></trkpt><trkpt lat="-23.765784" lon="-46.59569"><ele>766.0</ele><time>2017-02-15T10:38:52Z</time></trkpt><trkpt lat="-23.765848" lon="-46.595615"><ele>764.0</ele><time>2017-02-15T10:39:02Z</time></trkpt><trkpt lat="-23.765881" lon="-46.595518"><ele>763.0</ele><time>2017-02-15T10:39:10Z</time></trkpt><trkpt lat="-23.765904" lon="-46.595416"><ele>766.0</ele><time>2017-02-15T10:39:18Z</time></trkpt><trkpt lat="-23.765924" lon="-46.595317"><ele>766.0</ele><time>2017-02-15T10:39:25Z</time></trkpt><trkpt lat="-23.765913" lon="-46.595214"><ele>764.0</ele><time>2017-02-15T10:39:33Z</time></trkpt><trkpt lat="-23.765868" lon="-46.595127"><ele>763.0</ele><time>2017-02-15T10:39:40Z</time></trkpt><trkpt lat="-23.765839" lon="-46.595025"><ele>763.0</ele><time>2017-02-15T10:39:48Z</time></trkpt><trkpt lat="-23.765808" lon="-46.59492"><ele>762.0</ele><time>2017-02-15T10:39:56Z</time></trkpt><trkpt lat="-23.765788" lon="-46.594823"><ele>761.0</ele><time>2017-02-15T10:40:03Z</time></trkpt><trkpt lat="-23.765791" lon="-46.594721"><ele>759.0</ele><time>2017-02-15T10:40:10Z</time></trkpt><trkpt lat="-23.765791" lon="-46.594622"><ele>760.0</ele><time>2017-02-15T10:40:17Z</time></trkpt><trkpt lat="-23.765808" lon="-46.594522"><ele>758.0</ele><time>2017-02-15T10:40:24Z</time></trkpt><trkpt lat="-23.765822" lon="-46.59442"><ele>759.0</ele><time>2017-02-15T10:40:31Z</time></trkpt><trkpt lat="-23.765844" lon="-46.594316"><ele>758.0</ele><time>2017-02-15T10:40:39Z</time></trkpt><trkpt lat="-23.765881" lon="-46.594225"><ele>757.0</ele><time>2017-02-15T10:40:46Z</time></trkpt><trkpt lat="-23.765914" lon="-46.594126"><ele>756.0</ele><time>2017-02-15T10:40:54Z</time></trkpt><trkpt lat="-23.765947" lon="-46.594025"><ele>757.0</ele><time>2017-02-15T10:41:02Z</time></trkpt><trkpt lat="-23.765994" lon="-46.593936"><ele>758.0</ele><time>2017-02-15T10:41:10Z</time></trkpt><trkpt lat="-23.766044" lon="-46.593852"><ele>758.0</ele><time>2017-02-15T10:41:17Z</time></trkpt><trkpt lat="-23.766098" lon="-46.593762"><ele>761.0</ele><time>2017-02-15T10:41:25Z</time></trkpt><trkpt lat="-23.76615" lon="-46.593676"><ele>763.0</ele><time>2017-02-15T10:41:33Z</time></trkpt><trkpt lat="-23.766216" lon="-46.593596"><ele>763.0</ele><time>2017-02-15T10:41:42Z</time></trkpt><trkpt lat="-23.766277" lon="-46.593503"><ele>764.0</ele><time>2017-02-15T10:41:50Z</time></trkpt><trkpt lat="-23.766338" lon="-46.593425"><ele>760.0</ele><time>2017-02-15T10:41:57Z</time></trkpt><trkpt lat="-23.766425" lon="-46.593392"><ele>758.0</ele><time>2017-02-15T10:42:03Z</time></trkpt><trkpt lat="-23.766506" lon="-46.593333"><ele>761.0</ele><time>2017-02-15T10:42:10Z</time></trkpt><trkpt lat="-23.766601" lon="-46.593355"><ele>762.0</ele><time>2017-02-15T10:42:18Z</time></trkpt><trkpt lat="-23.76669" lon="-46.593395"><ele>761.0</ele><time>2017-02-15T10:42:25Z</time></trkpt><trkpt lat="-23.766772" lon="-46.593447"><ele>760.0</ele><time>2017-02-15T10:42:32Z</time></trkpt><trkpt lat="-23.766846" lon="-46.593387"><ele>764.0</ele><time>2017-02-15T10:42:40Z</time></trkpt><trkpt lat="-23.76694" lon="-46.593373"><ele>762.0</ele><time>2017-02-15T10:42:50Z</time></trkpt><trkpt lat="-23.76704" lon="-46.593397"><ele>758.0</ele><time>2017-02-15T10:42:58Z</time></trkpt><trkpt lat="-23.767127" lon="-46.593436"><ele>757.0</ele><time>2017-02-15T10:43:04Z</time></trkpt><trkpt lat="-23.7672" lon="-46.593494"><ele>761.0</ele><time>2017-02-15T10:43:11Z</time></trkpt><trkpt lat="-23.767274" lon="-46.593553"><ele>764.0</ele><time>2017-02-15T10:43:18Z</time></trkpt><trkpt lat="-23.767359" lon="-46.593609"><ele>764.0</ele><time>2017-02-15T10:43:25Z</time></trkpt><trkpt lat="-23.767445" lon="-46.593663"><ele>762.0</ele><time>2017-02-15T10:43:32Z</time></trkpt><trkpt lat="-23.76751" lon="-46.593742"><ele>767.0</ele><time>2017-02-15T10:43:40Z</time></trkpt><trkpt lat="-23.767559" lon="-46.593845"><ele>763.0</ele><time>2017-02-15T10:44:12Z</time></trkpt><trkpt lat="-23.767637" lon="-46.593914"><ele>760.0</ele><time>2017-02-15T10:44:20Z</time></trkpt><trkpt lat="-23.76772" lon="-46.593964"><ele>756.0</ele><time>2017-02-15T10:44:29Z</time></trkpt><trkpt lat="-23.767806" lon="-46.593929"><ele>759.0</ele><time>2017-02-15T10:44:42Z</time></trkpt><trkpt lat="-23.767877" lon="-46.594009"><ele>759.0</ele><time>2017-02-15T10:44:48Z</time></trkpt><trkpt lat="-23.767922" lon="-46.594099"><ele>757.0</ele><time>2017-02-15T10:44:52Z</time></trkpt><trkpt lat="-23.767981" lon="-46.594203"><ele>759.0</ele><time>2017-02-15T10:44:57Z</time></trkpt><trkpt lat="-23.768055" lon="-46.594276"><ele>763.0</ele><time>2017-02-15T10:45:02Z</time></trkpt><trkpt lat="-23.768134" lon="-46.594345"><ele>762.0</ele><time>2017-02-15T10:45:09Z</time></trkpt><trkpt lat="-23.768209" lon="-46.594401"><ele>762.0</ele><time>2017-02-15T10:45:21Z</time></trkpt><trkpt lat="-23.768256" lon="-46.594487"><ele>759.0</ele><time>2017-02-15T10:45:35Z</time></trkpt><trkpt lat="-23.768334" lon="-46.594539"><ele>752.0</ele><time>2017-02-15T10:45:49Z</time></trkpt><trkpt lat="-23.768426" lon="-46.594539"><ele>750.0</ele><time>2017-02-15T10:45:58Z</time></trkpt><trkpt lat="-23.768502" lon="-46.594608"><ele>750.0</ele><time>2017-02-15T10:46:06Z</time></trkpt><trkpt lat="-23.768561" lon="-46.594682"><ele>750.0</ele><time>2017-02-15T10:46:35Z</time></trkpt><trkpt lat="-23.768616" lon="-46.594765"><ele>751.0</ele><time>2017-02-15T10:46:44Z</time></trkpt><trkpt lat="-23.768677" lon="-46.594838"><ele>750.0</ele><time>2017-02-15T10:46:50Z</time></trkpt><trkpt lat="-23.768732" lon="-46.594928"><ele>745.0</ele><time>2017-02-15T10:46:56Z</time></trkpt><trkpt lat="-23.768796" lon="-46.595006"><ele>744.0</ele><time>2017-02-15T10:47:04Z</time></trkpt><trkpt lat="-23.768851" lon="-46.595085"><ele>748.0</ele><time>2017-02-15T10:47:12Z</time></trkpt><trkpt lat="-23.768924" lon="-46.595142"><ele>743.0</ele><time>2017-02-15T10:47:20Z</time></trkpt><trkpt lat="-23.768998" lon="-46.595202"><ele>746.0</ele><time>2017-02-15T10:47:27Z</time></trkpt><trkpt lat="-23.769068" lon="-46.595277"><ele>743.0</ele><time>2017-02-15T10:47:37Z</time></trkpt><trkpt lat="-23.769138" lon="-46.595354"><ele>741.0</ele><time>2017-02-15T10:47:45Z</time></trkpt><trkpt lat="-23.769199" lon="-46.595427"><ele>744.0</ele><time>2017-02-15T10:48:06Z</time></trkpt><trkpt lat="-23.769273" lon="-46.595487"><ele>744.0</ele><time>2017-02-15T10:48:14Z</time></trkpt><trkpt lat="-23.769354" lon="-46.595532"><ele>743.0</ele><time>2017-02-15T10:48:21Z</time></trkpt><trkpt lat="-23.769455" lon="-46.595546"><ele>741.0</ele><time>2017-02-15T10:48:28Z</time></trkpt><trkpt lat="-23.769551" lon="-46.595561"><ele>742.0</ele><time>2017-02-15T10:48:36Z</time></trkpt><trkpt lat="-23.76964" lon="-46.595609"><ele>746.0</ele><time>2017-02-15T10:48:44Z</time></trkpt><trkpt lat="-23.769675" lon="-46.595702"><ele>750.0</ele><time>2017-02-15T10:48:51Z</time></trkpt><trkpt lat="-23.769735" lon="-46.595781"><ele>754.0</ele><time>2017-02-15T10:49:01Z</time></trkpt><trkpt lat="-23.769804" lon="-46.595844"><ele>757.0</ele><time>2017-02-15T10:49:09Z</time></trkpt><trkpt lat="-23.769895" lon="-46.595872"><ele>757.0</ele><time>2017-02-15T10:49:18Z</time></trkpt><trkpt lat="-23.769974" lon="-46.595929"><ele>751.0</ele><time>2017-02-15T10:49:38Z</time></trkpt><trkpt lat="-23.770053" lon="-46.595978"><ele>752.0</ele><time>2017-02-15T10:49:43Z</time></trkpt><trkpt lat="-23.770128" lon="-46.596044"><ele>755.0</ele><time>2017-02-15T10:49:48Z</time></trkpt><trkpt lat="-23.770211" lon="-46.596105"><ele>755.0</ele><time>2017-02-15T10:49:55Z</time></trkpt><trkpt lat="-23.770299" lon="-46.596155"><ele>757.0</ele><time>2017-02-15T10:50:03Z</time></trkpt><trkpt lat="-23.770389" lon="-46.596176"><ele>764.0</ele><time>2017-02-15T10:50:13Z</time></trkpt><trkpt lat="-23.77048" lon="-46.596197"><ele>760.0</ele><time>2017-02-15T10:50:21Z</time></trkpt><trkpt lat="-23.770571" lon="-46.596244"><ele>758.0</ele><time>2017-02-15T10:50:34Z</time></trkpt><trkpt lat="-23.770644" lon="-46.596318"><ele>767.0</ele><time>2017-02-15T10:50:48Z</time></trkpt><trkpt lat="-23.770718" lon="-46.596383"><ele>768.0</ele><time>2017-02-15T10:50:57Z</time></trkpt><trkpt lat="-23.770815" lon="-46.596409"><ele>768.0</ele><time>2017-02-15T10:51:05Z</time></trkpt><trkpt lat="-23.770882" lon="-46.596475"><ele>767.0</ele><time>2017-02-15T10:51:20Z</time></trkpt><trkpt lat="-23.770971" lon="-46.596515"><ele>767.0</ele><time>2017-02-15T10:51:32Z</time></trkpt><trkpt lat="-23.771063" lon="-46.596531"><ele>759.0</ele><time>2017-02-15T10:51:40Z</time></trkpt><trkpt lat="-23.771132" lon="-46.596606"><ele>764.0</ele><time>2017-02-15T10:51:50Z</time></trkpt><trkpt lat="-23.771223" lon="-46.596646"><ele>771.0</ele><time>2017-02-15T10:52:02Z</time></trkpt><trkpt lat="-23.771309" lon="-46.596686"><ele>772.0</ele><time>2017-02-15T10:52:18Z</time></trkpt><trkpt lat="-23.771392" lon="-46.596744"><ele>769.0</ele><time>2017-02-15T10:52:34Z</time></trkpt><trkpt lat="-23.77147" lon="-46.596797"><ele>767.0</ele><time>2017-02-15T10:52:40Z</time></trkpt><trkpt lat="-23.77155" lon="-46.59685"><ele>769.0</ele><time>2017-02-15T10:52:47Z</time></trkpt><trkpt lat="-23.77163" lon="-46.596909"><ele>771.0</ele><time>2017-02-15T10:53:00Z</time></trkpt><trkpt lat="-23.7717" lon="-46.596975"><ele>770.0</ele><time>2017-02-15T10:53:08Z</time></trkpt><trkpt lat="-23.771776" lon="-46.59704"><ele>775.0</ele><time>2017-02-15T10:53:18Z</time></trkpt><trkpt lat="-23.771851" lon="-46.597106"><ele>776.0</ele><time>2017-02-15T10:53:27Z</time></trkpt><trkpt lat="-23.771928" lon="-46.597171"><ele>774.0</ele><time>2017-02-15T10:53:37Z</time></trkpt><trkpt lat="-23.772005" lon="-46.597233"><ele>771.0</ele><time>2017-02-15T10:53:48Z</time></trkpt><trkpt lat="-23.772096" lon="-46.59723"><ele>778.0</ele><time>2017-02-15T10:57:58Z</time></trkpt><trkpt lat="-23.772104" lon="-46.597338"><ele>779.0</ele><time>2017-02-15T11:11:59Z</time></trkpt><trkpt lat="-23.772113" lon="-46.59744"><ele>777.0</ele><time>2017-02-15T11:12:07Z</time></trkpt><trkpt lat="-23.772117" lon="-46.597551"><ele>775.0</ele><time>2017-02-15T11:12:14Z</time></trkpt><trkpt lat="-23.772104" lon="-46.597656"><ele>776.0</ele><time>2017-02-15T11:12:23Z</time></trkpt><trkpt lat="-23.772075" lon="-46.597757"><ele>778.0</ele><time>2017-02-15T11:12:32Z</time></trkpt><trkpt lat="-23.77205" lon="-46.597861"><ele>778.0</ele><time>2017-02-15T11:12:40Z</time></trkpt><trkpt lat="-23.772018" lon="-46.597964"><ele>778.0</ele><time>2017-02-15T11:12:48Z</time></trkpt><trkpt lat="-23.77199" lon="-46.598059"><ele>778.0</ele><time>2017-02-15T11:12:57Z</time></trkpt><trkpt lat="-23.771942" lon="-46.598151"><ele>777.0</ele><time>2017-02-15T11:13:05Z</time></trkpt><trkpt lat="-23.771925" lon="-46.598258"><ele>773.0</ele><time>2017-02-15T11:13:13Z</time></trkpt><trkpt lat="-23.77191" lon="-46.598358"><ele>774.0</ele><time>2017-02-15T11:13:22Z</time></trkpt><trkpt lat="-23.771906" lon="-46.598457"><ele>775.0</ele><time>2017-02-15T11:13:32Z</time></trkpt><trkpt lat="-23.77183" lon="-46.598515"><ele>773.0</ele><time>2017-02-15T11:13:40Z</time></trkpt><trkpt lat="-23.771778" lon="-46.598611"><ele>778.0</ele><time>2017-02-15T11:13:47Z</time></trkpt><trkpt lat="-23.771717" lon="-46.598687"><ele>777.0</ele><time>2017-02-15T11:13:54Z</time></trkpt><trkpt lat="-23.77164" lon="-46.598746"><ele>778.0</ele><time>2017-02-15T11:14:00Z</time></trkpt><trkpt lat="-23.771708" lon="-46.598821"><ele>778.0</ele><time>2017-02-15T11:14:05Z</time></trkpt><trkpt lat="-23.771724" lon="-46.598934"><ele>774.0</ele><time>2017-02-15T11:14:11Z</time></trkpt><trkpt lat="-23.771731" lon="-46.599038"><ele>772.0</ele><time>2017-02-15T11:14:21Z</time></trkpt><trkpt lat="-23.77174" lon="-46.599139"><ele>769.0</ele><time>2017-02-15T11:14:27Z</time></trkpt><trkpt lat="-23.771746" lon="-46.599242"><ele>766.0</ele><time>2017-02-15T11:14:35Z</time></trkpt><trkpt lat="-23.771731" lon="-46.599344"><ele>759.0</ele><time>2017-02-15T11:14:42Z</time></trkpt><trkpt lat="-23.77172" lon="-46.599451"><ele>765.0</ele><time>2017-02-15T11:14:50Z</time></trkpt><trkpt lat="-23.771696" lon="-46.599553"><ele>770.0</ele><time>2017-02-15T11:15:00Z</time></trkpt><trkpt lat="-23.771736" lon="-46.599647"><ele>771.0</ele><time>2017-02-15T11:15:09Z</time></trkpt><trkpt lat="-23.771722" lon="-46.599751"><ele>772.0</ele><time>2017-02-15T11:15:16Z</time></trkpt><trkpt lat="-23.771751" lon="-46.599845"><ele>774.0</ele><time>2017-02-15T11:15:23Z</time></trkpt><trkpt lat="-23.771794" lon="-46.599939"><ele>767.0</ele><time>2017-02-15T11:15:31Z</time></trkpt><trkpt lat="-23.771826" lon="-46.600032"><ele>765.0</ele><time>2017-02-15T11:15:39Z</time></trkpt><trkpt lat="-23.771872" lon="-46.600126"><ele>763.0</ele><time>2017-02-15T11:15:47Z</time></trkpt><trkpt lat="-23.771871" lon="-46.600228"><ele>762.0</ele><time>2017-02-15T11:15:55Z</time></trkpt><trkpt lat="-23.771863" lon="-46.60033"><ele>757.0</ele><time>2017-02-15T11:16:04Z</time></trkpt><trkpt lat="-23.771864" lon="-46.600428"><ele>755.0</ele><time>2017-02-15T11:16:17Z</time></trkpt><trkpt lat="-23.771852" lon="-46.600535"><ele>756.0</ele><time>2017-02-15T11:16:25Z</time></trkpt><trkpt lat="-23.771822" lon="-46.600633"><ele>756.0</ele><time>2017-02-15T11:16:33Z</time></trkpt><trkpt lat="-23.771816" lon="-46.600742"><ele>758.0</ele><time>2017-02-15T11:16:45Z</time></trkpt><trkpt lat="-23.771835" lon="-46.600854"><ele>759.0</ele><time>2017-02-15T11:16:57Z</time></trkpt><trkpt lat="-23.771789" lon="-46.600946"><ele>756.0</ele><time>2017-02-15T11:17:20Z</time></trkpt><trkpt lat="-23.771759" lon="-46.60104"><ele>753.0</ele><time>2017-02-15T11:17:29Z</time></trkpt><trkpt lat="-23.771727" lon="-46.601132"><ele>754.0</ele><time>2017-02-15T11:17:39Z</time></trkpt><trkpt lat="-23.771674" lon="-46.601226"><ele>758.0</ele><time>2017-02-15T11:17:47Z</time></trkpt><trkpt lat="-23.771624" lon="-46.601319"><ele>762.0</ele><time>2017-02-15T11:17:51Z</time></trkpt><trkpt lat="-23.771598" lon="-46.601418"><ele>765.0</ele><time>2017-02-15T11:18:02Z</time></trkpt><trkpt lat="-23.77159" lon="-46.60152"><ele>766.0</ele><time>2017-02-15T11:18:09Z</time></trkpt><trkpt lat="-23.771581" lon="-46.601623"><ele>763.0</ele><time>2017-02-15T11:18:20Z</time></trkpt><trkpt lat="-23.771553" lon="-46.601722"><ele>759.0</ele><time>2017-02-15T11:18:29Z</time></trkpt><trkpt lat="-23.771534" lon="-46.601833"><ele>755.0</ele><time>2017-02-15T11:18:35Z</time></trkpt><trkpt lat="-23.77149" lon="-46.601927"><ele>752.0</ele><time>2017-02-15T11:18:42Z</time></trkpt><trkpt lat="-23.771459" lon="-46.602024"><ele>750.0</ele><time>2017-02-15T11:18:51Z</time></trkpt><trkpt lat="-23.771449" lon="-46.602127"><ele>745.0</ele><time>2017-02-15T11:18:59Z</time></trkpt><trkpt lat="-23.771475" lon="-46.602228"><ele>750.0</ele><time>2017-02-15T11:19:07Z</time></trkpt><trkpt lat="-23.771498" lon="-46.602326"><ele>748.0</ele><time>2017-02-15T11:19:15Z</time></trkpt><trkpt lat="-23.771556" lon="-46.602403"><ele>747.0</ele><time>2017-02-15T11:19:23Z</time></trkpt><trkpt lat="-23.771636" lon="-46.602474"><ele>750.0</ele><time>2017-02-15T11:19:31Z</time></trkpt><trkpt lat="-23.771702" lon="-46.602548"><ele>748.0</ele><time>2017-02-15T11:19:38Z</time></trkpt><trkpt lat="-23.771781" lon="-46.60261"><ele>748.0</ele><time>2017-02-15T11:19:46Z</time></trkpt><trkpt lat="-23.771856" lon="-46.602682"><ele>748.0</ele><time>2017-02-15T11:19:54Z</time></trkpt><trkpt lat="-23.771937" lon="-46.60273"><ele>747.0</ele><time>2017-02-15T11:20:02Z</time></trkpt><trkpt lat="-23.772012" lon="-46.602805"><ele>747.0</ele><time>2017-02-15T11:20:10Z</time></trkpt><trkpt lat="-23.77208" lon="-46.60287"><ele>744.0</ele><time>2017-02-15T11:20:17Z</time></trkpt><trkpt lat="-23.772156" lon="-46.602938"><ele>745.0</ele><time>2017-02-15T11:20:26Z</time></trkpt><trkpt lat="-23.772237" lon="-46.602992"><ele>738.0</ele><time>2017-02-15T11:20:35Z</time></trkpt><trkpt lat="-23.772276" lon="-46.603083"><ele>741.0</ele><time>2017-02-15T11:20:42Z</time></trkpt><trkpt lat="-23.772361" lon="-46.603149"><ele>742.0</ele><time>2017-02-15T11:20:51Z</time></trkpt><trkpt lat="-23.772435" lon="-46.603213"><ele>747.0</ele><time>2017-02-15T11:21:00Z</time></trkpt><trkpt lat="-23.772519" lon="-46.603262"><ele>751.0</ele><time>2017-02-15T11:21:10Z</time></trkpt><trkpt lat="-23.772591" lon="-46.603332"><ele>755.0</ele><time>2017-02-15T11:21:20Z</time></trkpt><trkpt lat="-23.772662" lon="-46.603399"><ele>756.0</ele><time>2017-02-15T11:21:28Z</time></trkpt><trkpt lat="-23.77273" lon="-46.603475"><ele>764.0</ele><time>2017-02-15T11:21:37Z</time></trkpt><trkpt lat="-23.772801" lon="-46.603548"><ele>761.0</ele><time>2017-02-15T11:21:47Z</time></trkpt><trkpt lat="-23.772868" lon="-46.603616"><ele>761.0</ele><time>2017-02-15T11:21:56Z</time></trkpt><trkpt lat="-23.772953" lon="-46.603662"><ele>761.0</ele><time>2017-02-15T11:22:04Z</time></trkpt><trkpt lat="-23.773034" lon="-46.603708"><ele>760.0</ele><time>2017-02-15T11:22:12Z</time></trkpt><trkpt lat="-23.773101" lon="-46.603779"><ele>757.0</ele><time>2017-02-15T11:22:20Z</time></trkpt><trkpt lat="-23.773169" lon="-46.603855"><ele>759.0</ele><time>2017-02-15T11:22:28Z</time></trkpt><trkpt lat="-23.773245" lon="-46.603924"><ele>761.0</ele><time>2017-02-15T11:22:38Z</time></trkpt><trkpt lat="-23.773312" lon="-46.603995"><ele>762.0</ele><time>2017-02-15T11:22:49Z</time></trkpt><trkpt lat="-23.773395" lon="-46.604046"><ele>763.0</ele><time>2017-02-15T11:22:57Z</time></trkpt><trkpt lat="-23.773474" lon="-46.604105"><ele>765.0</ele><time>2017-02-15T11:23:05Z</time></trkpt><trkpt lat="-23.773544" lon="-46.60418"><ele>759.0</ele><time>2017-02-15T11:23:12Z</time></trkpt><trkpt lat="-23.773603" lon="-46.604263"><ele>761.0</ele><time>2017-02-15T11:23:21Z</time></trkpt><trkpt lat="-23.773666" lon="-46.604335"><ele>764.0</ele><time>2017-02-15T11:23:30Z</time></trkpt><trkpt lat="-23.773681" lon="-46.604434"><ele>761.0</ele><time>2017-02-15T11:23:38Z</time></trkpt><trkpt lat="-23.7737" lon="-46.604539"><ele>761.0</ele><time>2017-02-15T11:23:48Z</time></trkpt><trkpt lat="-23.773725" lon="-46.604642"><ele>759.0</ele><time>2017-02-15T11:23:58Z</time></trkpt><trkpt lat="-23.773791" lon="-46.604719"><ele>759.0</ele><time>2017-02-15T11:24:05Z</time></trkpt><trkpt lat="-23.773807" lon="-46.604821"><ele>761.0</ele><time>2017-02-15T11:24:13Z</time></trkpt><trkpt lat="-23.773846" lon="-46.60491"><ele>767.0</ele><time>2017-02-15T11:24:22Z</time></trkpt><trkpt lat="-23.773903" lon="-46.604991"><ele>767.0</ele><time>2017-02-15T11:24:32Z</time></trkpt><trkpt lat="-23.773946" lon="-46.605083"><ele>769.0</ele><time>2017-02-15T11:24:41Z</time></trkpt><trkpt lat="-23.773987" lon="-46.605174"><ele>773.0</ele><time>2017-02-15T11:24:49Z</time></trkpt><trkpt lat="-23.774034" lon="-46.605273"><ele>776.0</ele><time>2017-02-15T11:25:09Z</time></trkpt><trkpt lat="-23.774085" lon="-46.605356"><ele>775.0</ele><time>2017-02-15T11:25:16Z</time></trkpt><trkpt lat="-23.774158" lon="-46.605417"><ele>775.0</ele><time>2017-02-15T11:25:28Z</time></trkpt><trkpt lat="-23.77421" lon="-46.605506"><ele>772.0</ele><time>2017-02-15T11:25:37Z</time></trkpt><trkpt lat="-23.774261" lon="-46.605589"><ele>774.0</ele><time>2017-02-15T11:25:53Z</time></trkpt><trkpt lat="-23.774335" lon="-46.605652"><ele>775.0</ele><time>2017-02-15T11:26:01Z</time></trkpt><trkpt lat="-23.774375" lon="-46.605748"><ele>770.0</ele><time>2017-02-15T11:26:09Z</time></trkpt><trkpt lat="-23.774463" lon="-46.605798"><ele>768.0</ele><time>2017-02-15T11:26:20Z</time></trkpt><trkpt lat="-23.77451" lon="-46.60589"><ele>773.0</ele><time>2017-02-15T11:26:45Z</time></trkpt><trkpt lat="-23.774573" lon="-46.605967"><ele>771.0</ele><time>2017-02-15T11:26:52Z</time></trkpt><trkpt lat="-23.774644" lon="-46.606046"><ele>773.0</ele><time>2017-02-15T11:27:00Z</time></trkpt><trkpt lat="-23.774693" lon="-46.606133"><ele>769.0</ele><time>2017-02-15T11:27:08Z</time></trkpt><trkpt lat="-23.77476" lon="-46.606202"><ele>766.0</ele><time>2017-02-15T11:27:14Z</time></trkpt><trkpt lat="-23.774812" lon="-46.606292"><ele>764.0</ele><time>2017-02-15T11:27:22Z</time></trkpt><trkpt lat="-23.774888" lon="-46.606349"><ele>765.0</ele><time>2017-02-15T11:27:31Z</time></trkpt><trkpt lat="-23.774943" lon="-46.606433"><ele>766.0</ele><time>2017-02-15T11:27:40Z</time></trkpt><trkpt lat="-23.775021" lon="-46.606501"><ele>766.0</ele><time>2017-02-15T11:27:49Z</time></trkpt><trkpt lat="-23.775091" lon="-46.606565"><ele>760.0</ele><time>2017-02-15T11:27:58Z</time></trkpt><trkpt lat="-23.775142" lon="-46.60665"><ele>762.0</ele><time>2017-02-15T11:28:06Z</time></trkpt><trkpt lat="-23.775177" lon="-46.606741"><ele>762.0</ele><time>2017-02-15T11:28:14Z</time></trkpt><trkpt lat="-23.775237" lon="-46.606825"><ele>759.0</ele><time>2017-02-15T11:28:23Z</time></trkpt><trkpt lat="-23.775308" lon="-46.606898"><ele>758.0</ele><time>2017-02-15T11:28:32Z</time></trkpt><trkpt lat="-23.775375" lon="-46.606969"><ele>756.0</ele><time>2017-02-15T11:28:41Z</time></trkpt><trkpt lat="-23.775391" lon="-46.607074"><ele>755.0</ele><time>2017-02-15T11:28:48Z</time></trkpt><trkpt lat="-23.775393" lon="-46.607185"><ele>761.0</ele><time>2017-02-15T11:28:59Z</time></trkpt><trkpt lat="-23.775354" lon="-46.607276"><ele>766.0</ele><time>2017-02-15T11:29:09Z</time></trkpt><trkpt lat="-23.775305" lon="-46.60737"><ele>771.0</ele><time>2017-02-15T11:29:19Z</time></trkpt><trkpt lat="-23.775286" lon="-46.60747"><ele>777.0</ele><time>2017-02-15T11:29:28Z</time></trkpt><trkpt lat="-23.775285" lon="-46.607582"><ele>769.0</ele><time>2017-02-15T11:29:36Z</time></trkpt><trkpt lat="-23.775304" lon="-46.607687"><ele>769.0</ele><time>2017-02-15T11:29:43Z</time></trkpt><trkpt lat="-23.775302" lon="-46.607796"><ele>767.0</ele><time>2017-02-15T11:29:50Z</time></trkpt><trkpt lat="-23.775288" lon="-46.607894"><ele>765.0</ele><time>2017-02-15T11:29:58Z</time></trkpt><trkpt lat="-23.775276" lon="-46.608003"><ele>765.0</ele><time>2017-02-15T11:30:09Z</time></trkpt><trkpt lat="-23.775228" lon="-46.608092"><ele>768.0</ele><time>2017-02-15T11:30:19Z</time></trkpt><trkpt lat="-23.775158" lon="-46.608155"><ele>765.0</ele><time>2017-02-15T11:30:27Z</time></trkpt><trkpt lat="-23.775138" lon="-46.608253"><ele>764.0</ele><time>2017-02-15T11:30:35Z</time></trkpt><trkpt lat="-23.775063" lon="-46.608311"><ele>766.0</ele><time>2017-02-15T11:30:53Z</time></trkpt><trkpt lat="-23.774991" lon="-46.608243"><ele>772.0</ele><time>2017-02-15T11:31:08Z</time></trkpt><trkpt lat="-23.775019" lon="-46.608142"><ele>769.0</ele><time>2017-02-15T11:31:34Z</time></trkpt><trkpt lat="-23.775001" lon="-46.608245"><ele>775.0</ele><time>2017-02-15T11:32:32Z</time></trkpt><trkpt lat="-23.775064" lon="-46.608315"><ele>765.0</ele><time>2017-02-15T11:32:56Z</time></trkpt><trkpt lat="-23.775116" lon="-46.608397"><ele>763.0</ele><time>2017-02-15T11:33:10Z</time></trkpt><trkpt lat="-23.775114" lon="-46.608496"><ele>760.0</ele><time>2017-02-15T11:33:16Z</time></trkpt><trkpt lat="-23.775089" lon="-46.608594"><ele>760.0</ele><time>2017-02-15T11:33:25Z</time></trkpt><trkpt lat="-23.775086" lon="-46.608703"><ele>758.0</ele><time>2017-02-15T11:33:34Z</time></trkpt><trkpt lat="-23.775092" lon="-46.608804"><ele>758.0</ele><time>2017-02-15T11:33:42Z</time></trkpt><trkpt lat="-23.775082" lon="-46.608905"><ele>762.0</ele><time>2017-02-15T11:33:51Z</time></trkpt><trkpt lat="-23.775162" lon="-46.60896"><ele>762.0</ele><time>2017-02-15T11:34:00Z</time></trkpt><trkpt lat="-23.775154" lon="-46.609066"><ele>762.0</ele><time>2017-02-15T11:34:13Z</time></trkpt><trkpt lat="-23.775203" lon="-46.609153"><ele>765.0</ele><time>2017-02-15T11:34:23Z</time></trkpt><trkpt lat="-23.775213" lon="-46.609269"><ele>769.0</ele><time>2017-02-15T11:34:30Z</time></trkpt><trkpt lat="-23.775279" lon="-46.609346"><ele>766.0</ele><time>2017-02-15T11:34:37Z</time></trkpt><trkpt lat="-23.775352" lon="-46.609407"><ele>771.0</ele><time>2017-02-15T11:34:45Z</time></trkpt><trkpt lat="-23.775425" lon="-46.609477"><ele>771.0</ele><time>2017-02-15T11:34:54Z</time></trkpt><trkpt lat="-23.775496" lon="-46.609551"><ele>768.0</ele><time>2017-02-15T11:35:04Z</time></trkpt><trkpt lat="-23.775555" lon="-46.609629"><ele>769.0</ele><time>2017-02-15T11:35:12Z</time></trkpt><trkpt lat="-23.775587" lon="-46.609725"><ele>770.0</ele><time>2017-02-15T11:35:19Z</time></trkpt><trkpt lat="-23.7756" lon="-46.609823"><ele>764.0</ele><time>2017-02-15T11:35:27Z</time></trkpt><trkpt lat="-23.775613" lon="-46.60992"><ele>761.0</ele><time>2017-02-15T11:35:37Z</time></trkpt><trkpt lat="-23.775584" lon="-46.610018"><ele>760.0</ele><time>2017-02-15T11:35:46Z</time></trkpt><trkpt lat="-23.775565" lon="-46.610126"><ele>759.0</ele><time>2017-02-15T11:35:55Z</time></trkpt><trkpt lat="-23.77551" lon="-46.610221"><ele>757.0</ele><time>2017-02-15T11:36:04Z</time></trkpt><trkpt lat="-23.775456" lon="-46.610311"><ele>756.0</ele><time>2017-02-15T11:36:13Z</time></trkpt><trkpt lat="-23.775457" lon="-46.610418"><ele>757.0</ele><time>2017-02-15T11:36:20Z</time></trkpt><trkpt lat="-23.775452" lon="-46.610523"><ele>758.0</ele><time>2017-02-15T11:36:26Z</time></trkpt><trkpt lat="-23.775405" lon="-46.610616"><ele>763.0</ele><time>2017-02-15T11:36:34Z</time></trkpt><trkpt lat="-23.775335" lon="-46.610693"><ele>765.0</ele><time>2017-02-15T11:36:43Z</time></trkpt><trkpt lat="-23.775276" lon="-46.61078"><ele>760.0</ele><time>2017-02-15T11:36:52Z</time></trkpt><trkpt lat="-23.775216" lon="-46.610855"><ele>763.0</ele><time>2017-02-15T11:36:59Z</time></trkpt><trkpt lat="-23.775152" lon="-46.610784"><ele>764.0</ele><time>2017-02-15T11:37:09Z</time></trkpt><trkpt lat="-23.775076" lon="-46.610857"><ele>763.0</ele><time>2017-02-15T11:37:27Z</time></trkpt><trkpt lat="-23.775011" lon="-46.610938"><ele>761.0</ele><time>2017-02-15T11:37:36Z</time></trkpt><trkpt lat="-23.774943" lon="-46.611003"><ele>760.0</ele><time>2017-02-15T11:38:06Z</time></trkpt><trkpt lat="-23.775004" lon="-46.610928"><ele>761.0</ele><time>2017-02-15T11:40:13Z</time></trkpt><trkpt lat="-23.775087" lon="-46.610866"><ele>759.0</ele><time>2017-02-15T11:40:22Z</time></trkpt><trkpt lat="-23.775166" lon="-46.61081"><ele>760.0</ele><time>2017-02-15T11:40:30Z</time></trkpt><trkpt lat="-23.775087" lon="-46.610865"><ele>757.0</ele><time>2017-02-15T11:42:24Z</time></trkpt><trkpt lat="-23.77502" lon="-46.610935"><ele>760.0</ele><time>2017-02-15T11:42:34Z</time></trkpt><trkpt lat="-23.775101" lon="-46.610884"><ele>762.0</ele><time>2017-02-15T11:44:17Z</time></trkpt><trkpt lat="-23.775102" lon="-46.610984"><ele>762.0</ele><time>2017-02-15T11:44:32Z</time></trkpt><trkpt lat="-23.775029" lon="-46.611044"><ele>766.0</ele><time>2017-02-15T11:44:40Z</time></trkpt><trkpt lat="-23.774948" lon="-46.6111"><ele>764.0</ele><time>2017-02-15T11:45:11Z</time></trkpt><trkpt lat="-23.774882" lon="-46.611173"><ele>760.0</ele><time>2017-02-15T11:45:17Z</time></trkpt><trkpt lat="-23.774808" lon="-46.611248"><ele>758.0</ele><time>2017-02-15T11:45:24Z</time></trkpt><trkpt lat="-23.774887" lon="-46.611186"><ele>760.0</ele><time>2017-02-15T11:46:17Z</time></trkpt><trkpt lat="-23.774972" lon="-46.611123"><ele>761.0</ele><time>2017-02-15T11:46:25Z</time></trkpt><trkpt lat="-23.775046" lon="-46.611058"><ele>763.0</ele><time>2017-02-15T11:46:36Z</time></trkpt><trkpt lat="-23.775115" lon="-46.610993"><ele>763.0</ele><time>2017-02-15T11:46:43Z</time></trkpt><trkpt lat="-23.775194" lon="-46.610935"><ele>766.0</ele><time>2017-02-15T11:46:53Z</time></trkpt><trkpt lat="-23.775216" lon="-46.61083"><ele>766.0</ele><time>2017-02-15T11:47:01Z</time></trkpt><trkpt lat="-23.775166" lon="-46.610744"><ele>759.0</ele><time>2017-02-15T11:47:25Z</time></trkpt><trkpt lat="-23.775084" lon="-46.610692"><ele>754.0</ele><time>2017-02-15T11:47:40Z</time></trkpt><trkpt lat="-23.774999" lon="-46.610655"><ele>752.0</ele><time>2017-02-15T11:47:47Z</time></trkpt><trkpt lat="-23.774919" lon="-46.610602"><ele>751.0</ele><time>2017-02-15T11:47:56Z</time></trkpt><trkpt lat="-23.774836" lon="-46.610544"><ele>749.0</ele><time>2017-02-15T11:48:07Z</time></trkpt><trkpt lat="-23.774747" lon="-46.610506"><ele>751.0</ele><time>2017-02-15T11:48:14Z</time></trkpt><trkpt lat="-23.774672" lon="-46.610568"><ele>751.0</ele><time>2017-02-15T11:48:23Z</time></trkpt><trkpt lat="-23.774612" lon="-46.610644"><ele>752.0</ele><time>2017-02-15T11:48:47Z</time></trkpt><trkpt lat="-23.774661" lon="-46.610738"><ele>752.0</ele><time>2017-02-15T11:48:56Z</time></trkpt><trkpt lat="-23.774715" lon="-46.610829"><ele>752.0</ele><time>2017-02-15T11:49:03Z</time></trkpt><trkpt lat="-23.774761" lon="-46.610916"><ele>756.0</ele><time>2017-02-15T11:49:09Z</time></trkpt><trkpt lat="-23.774817" lon="-46.61101"><ele>754.0</ele><time>2017-02-15T11:49:16Z</time></trkpt><trkpt lat="-23.77488" lon="-46.611084"><ele>749.0</ele><time>2017-02-15T11:49:22Z</time></trkpt><trkpt lat="-23.774931" lon="-46.611173"><ele>748.0</ele><time>2017-02-15T11:49:29Z</time></trkpt><trkpt lat="-23.774988" lon="-46.611251"><ele>742.0</ele><time>2017-02-15T11:49:35Z</time></trkpt><trkpt lat="-23.775036" lon="-46.611342"><ele>750.0</ele><time>2017-02-15T11:49:41Z</time></trkpt><trkpt lat="-23.775092" lon="-46.611435"><ele>753.0</ele><time>2017-02-15T11:49:49Z</time></trkpt><trkpt lat="-23.775149" lon="-46.611527"><ele>752.0</ele><time>2017-02-15T11:49:56Z</time></trkpt><trkpt lat="-23.775211" lon="-46.611612"><ele>748.0</ele><time>2017-02-15T11:50:03Z</time></trkpt><trkpt lat="-23.775276" lon="-46.611692"><ele>747.0</ele><time>2017-02-15T11:50:10Z</time></trkpt><trkpt lat="-23.775328" lon="-46.611773"><ele>749.0</ele><time>2017-02-15T11:50:16Z</time></trkpt><trkpt lat="-23.775382" lon="-46.611858"><ele>748.0</ele><time>2017-02-15T11:50:22Z</time></trkpt><trkpt lat="-23.775446" lon="-46.611945"><ele>748.0</ele><time>2017-02-15T11:50:28Z</time></trkpt><trkpt lat="-23.775497" lon="-46.612038"><ele>747.0</ele><time>2017-02-15T11:50:35Z</time></trkpt><trkpt lat="-23.775564" lon="-46.612105"><ele>747.0</ele><time>2017-02-15T11:50:41Z</time></trkpt><trkpt lat="-23.775627" lon="-46.612198"><ele>746.0</ele><time>2017-02-15T11:50:48Z</time></trkpt><trkpt lat="-23.77568" lon="-46.612283"><ele>743.0</ele><time>2017-02-15T11:50:54Z</time></trkpt><trkpt lat="-23.775734" lon="-46.61238"><ele>745.0</ele><time>2017-02-15T11:51:01Z</time></trkpt><trkpt lat="-23.775785" lon="-46.612471"><ele>749.0</ele><time>2017-02-15T11:51:08Z</time></trkpt><trkpt lat="-23.775838" lon="-46.612566"><ele>749.0</ele><time>2017-02-15T11:51:16Z</time></trkpt><trkpt lat="-23.775887" lon="-46.612649"><ele>747.0</ele><time>2017-02-15T11:51:23Z</time></trkpt><trkpt lat="-23.775946" lon="-46.612728"><ele>749.0</ele><time>2017-02-15T11:51:30Z</time></trkpt><trkpt lat="-23.776003" lon="-46.612815"><ele>746.0</ele><time>2017-02-15T11:51:37Z</time></trkpt><trkpt lat="-23.776064" lon="-46.612895"><ele>749.0</ele><time>2017-02-15T11:51:43Z</time></trkpt><trkpt lat="-23.776114" lon="-46.61299"><ele>748.0</ele><time>2017-02-15T11:51:49Z</time></trkpt><trkpt lat="-23.776147" lon="-46.613083"><ele>748.0</ele><time>2017-02-15T11:51:55Z</time></trkpt><trkpt lat="-23.776176" lon="-46.613178"><ele>747.0</ele><time>2017-02-15T11:52:00Z</time></trkpt><trkpt lat="-23.776204" lon="-46.613272"><ele>749.0</ele><time>2017-02-15T11:52:07Z</time></trkpt><trkpt lat="-23.776251" lon="-46.613364"><ele>751.0</ele><time>2017-02-15T11:52:15Z</time></trkpt><trkpt lat="-23.776298" lon="-46.613463"><ele>750.0</ele><time>2017-02-15T11:52:22Z</time></trkpt><trkpt lat="-23.776348" lon="-46.613554"><ele>755.0</ele><time>2017-02-15T11:52:29Z</time></trkpt><trkpt lat="-23.7764" lon="-46.613649"><ele>758.0</ele><time>2017-02-15T11:52:36Z</time></trkpt><trkpt lat="-23.776452" lon="-46.613748"><ele>761.0</ele><time>2017-02-15T11:52:43Z</time></trkpt><trkpt lat="-23.776497" lon="-46.613845"><ele>760.0</ele><time>2017-02-15T11:52:50Z</time></trkpt><trkpt lat="-23.776541" lon="-46.613944"><ele>762.0</ele><time>2017-02-15T11:52:57Z</time></trkpt><trkpt lat="-23.77659" lon="-46.614042"><ele>759.0</ele><time>2017-02-15T11:53:04Z</time></trkpt><trkpt lat="-23.776637" lon="-46.614132"><ele>758.0</ele><time>2017-02-15T11:53:10Z</time></trkpt><trkpt lat="-23.776694" lon="-46.614224"><ele>758.0</ele><time>2017-02-15T11:53:17Z</time></trkpt><trkpt lat="-23.776784" lon="-46.61428"><ele>756.0</ele><time>2017-02-15T11:53:24Z</time></trkpt><trkpt lat="-23.776832" lon="-46.614367"><ele>756.0</ele><time>2017-02-15T11:53:31Z</time></trkpt><trkpt lat="-23.776868" lon="-46.61447"><ele>757.0</ele><time>2017-02-15T11:53:38Z</time></trkpt><trkpt lat="-23.776905" lon="-46.61456"><ele>757.0</ele><time>2017-02-15T11:53:44Z</time></trkpt><trkpt lat="-23.776958" lon="-46.614658"><ele>757.0</ele><time>2017-02-15T11:53:51Z</time></trkpt><trkpt lat="-23.777008" lon="-46.614755"><ele>756.0</ele><time>2017-02-15T11:53:58Z</time></trkpt><trkpt lat="-23.77705" lon="-46.614853"><ele>755.0</ele><time>2017-02-15T11:54:05Z</time></trkpt><trkpt lat="-23.777087" lon="-46.614942"><ele>757.0</ele><time>2017-02-15T11:54:12Z</time></trkpt><trkpt lat="-23.777135" lon="-46.615037"><ele>757.0</ele><time>2017-02-15T11:54:19Z</time></trkpt><trkpt lat="-23.777205" lon="-46.615139"><ele>756.0</ele><time>2017-02-15T11:54:26Z</time></trkpt><trkpt lat="-23.777254" lon="-46.615235"><ele>756.0</ele><time>2017-02-15T11:54:33Z</time></trkpt><trkpt lat="-23.777305" lon="-46.615335"><ele>757.0</ele><time>2017-02-15T11:54:40Z</time></trkpt><trkpt lat="-23.777344" lon="-46.615431"><ele>756.0</ele><time>2017-02-15T11:54:48Z</time></trkpt><trkpt lat="-23.777387" lon="-46.615527"><ele>757.0</ele><time>2017-02-15T11:54:55Z</time></trkpt><trkpt lat="-23.777433" lon="-46.615624"><ele>756.0</ele><time>2017-02-15T11:55:03Z</time></trkpt><trkpt lat="-23.777484" lon="-46.615714"><ele>756.0</ele><time>2017-02-15T11:55:10Z</time></trkpt><trkpt lat="-23.777527" lon="-46.615802"><ele>755.0</ele><time>2017-02-15T11:55:17Z</time></trkpt><trkpt lat="-23.777572" lon="-46.615892"><ele>757.0</ele><time>2017-02-15T11:55:24Z</time></trkpt><trkpt lat="-23.777618" lon="-46.615982"><ele>757.0</ele><time>2017-02-15T11:55:31Z</time></trkpt><trkpt lat="-23.777661" lon="-46.616069"><ele>758.0</ele><time>2017-02-15T11:55:37Z</time></trkpt><trkpt lat="-23.777724" lon="-46.616148"><ele>758.0</ele><time>2017-02-15T11:55:44Z</time></trkpt><trkpt lat="-23.777775" lon="-46.616239"><ele>758.0</ele><time>2017-02-15T11:55:52Z</time></trkpt><trkpt lat="-23.777819" lon="-46.616335"><ele>758.0</ele><time>2017-02-15T11:56:06Z</time></trkpt><trkpt lat="-23.777868" lon="-46.616423"><ele>759.0</ele><time>2017-02-15T11:56:13Z</time></trkpt><trkpt lat="-23.777906" lon="-46.616518"><ele>758.0</ele><time>2017-02-15T11:56:20Z</time></trkpt><trkpt lat="-23.777958" lon="-46.616614"><ele>758.0</ele><time>2017-02-15T11:56:28Z</time></trkpt><trkpt lat="-23.778002" lon="-46.616712"><ele>757.0</ele><time>2017-02-15T11:56:36Z</time></trkpt><trkpt lat="-23.778045" lon="-46.616811"><ele>757.0</ele><time>2017-02-15T11:56:51Z</time></trkpt><trkpt lat="-23.778092" lon="-46.616897"><ele>756.0</ele><time>2017-02-15T11:56:59Z</time></trkpt><trkpt lat="-23.778135" lon="-46.616984"><ele>758.0</ele><time>2017-02-15T11:57:15Z</time></trkpt><trkpt lat="-23.778184" lon="-46.617074"><ele>757.0</ele><time>2017-02-15T11:57:23Z</time></trkpt><trkpt lat="-23.778237" lon="-46.617154"><ele>757.0</ele><time>2017-02-15T11:57:30Z</time></trkpt><trkpt lat="-23.778284" lon="-46.617252"><ele>756.0</ele><time>2017-02-15T11:57:38Z</time></trkpt><trkpt lat="-23.778326" lon="-46.617352"><ele>755.0</ele><time>2017-02-15T11:57:46Z</time></trkpt><trkpt lat="-23.778372" lon="-46.617438"><ele>756.0</ele><time>2017-02-15T11:57:53Z</time></trkpt><trkpt lat="-23.778431" lon="-46.617527"><ele>755.0</ele><time>2017-02-15T11:58:01Z</time></trkpt><trkpt lat="-23.778478" lon="-46.617613"><ele>756.0</ele><time>2017-02-15T11:58:10Z</time></trkpt><trkpt lat="-23.778524" lon="-46.617702"><ele>758.0</ele><time>2017-02-15T11:58:44Z</time></trkpt><trkpt lat="-23.778577" lon="-46.61779"><ele>757.0</ele><time>2017-02-15T11:58:51Z</time></trkpt><trkpt lat="-23.778614" lon="-46.617885"><ele>757.0</ele><time>2017-02-15T11:59:02Z</time></trkpt><trkpt lat="-23.778666" lon="-46.61798"><ele>757.0</ele><time>2017-02-15T11:59:10Z</time></trkpt><trkpt lat="-23.778709" lon="-46.61807"><ele>758.0</ele><time>2017-02-15T11:59:19Z</time></trkpt><trkpt lat="-23.778744" lon="-46.618166"><ele>758.0</ele><time>2017-02-15T11:59:28Z</time></trkpt><trkpt lat="-23.778786" lon="-46.618256"><ele>760.0</ele><time>2017-02-15T11:59:35Z</time></trkpt><trkpt lat="-23.778837" lon="-46.618341"><ele>759.0</ele><time>2017-02-15T11:59:42Z</time></trkpt><trkpt lat="-23.778888" lon="-46.618432"><ele>759.0</ele><time>2017-02-15T11:59:50Z</time></trkpt><trkpt lat="-23.778933" lon="-46.618518"><ele>760.0</ele><time>2017-02-15T11:59:57Z</time></trkpt><trkpt lat="-23.778984" lon="-46.6186"><ele>760.0</ele><time>2017-02-15T12:00:04Z</time></trkpt><trkpt lat="-23.779027" lon="-46.618687"><ele>759.0</ele><time>2017-02-15T12:00:11Z</time></trkpt><trkpt lat="-23.77908" lon="-46.618776"><ele>759.0</ele><time>2017-02-15T12:00:19Z</time></trkpt><trkpt lat="-23.779125" lon="-46.618868"><ele>760.0</ele><time>2017-02-15T12:00:27Z</time></trkpt><trkpt lat="-23.779172" lon="-46.618961"><ele>759.0</ele><time>2017-02-15T12:00:35Z</time></trkpt><trkpt lat="-23.779221" lon="-46.619049"><ele>759.0</ele><time>2017-02-15T12:00:43Z</time></trkpt><trkpt lat="-23.779267" lon="-46.619139"><ele>759.0</ele><time>2017-02-15T12:00:51Z</time></trkpt><trkpt lat="-23.779323" lon="-46.619229"><ele>761.0</ele><time>2017-02-15T12:01:26Z</time></trkpt><trkpt lat="-23.779375" lon="-46.619314"><ele>760.0</ele><time>2017-02-15T12:01:32Z</time></trkpt><trkpt lat="-23.779423" lon="-46.619405"><ele>759.0</ele><time>2017-02-15T12:01:40Z</time></trkpt><trkpt lat="-23.779466" lon="-46.619496"><ele>758.0</ele><time>2017-02-15T12:01:47Z</time></trkpt><trkpt lat="-23.779514" lon="-46.619589"><ele>758.0</ele><time>2017-02-15T12:01:55Z</time></trkpt><trkpt lat="-23.77956" lon="-46.619676"><ele>757.0</ele><time>2017-02-15T12:02:02Z</time></trkpt><trkpt lat="-23.779605" lon="-46.619763"><ele>758.0</ele><time>2017-02-15T12:02:09Z</time></trkpt><trkpt lat="-23.779649" lon="-46.619854"><ele>759.0</ele><time>2017-02-15T12:02:15Z</time></trkpt><trkpt lat="-23.77969" lon="-46.619955"><ele>757.0</ele><time>2017-02-15T12:02:24Z</time></trkpt><trkpt lat="-23.779743" lon="-46.620039"><ele>757.0</ele><time>2017-02-15T12:02:50Z</time></trkpt><trkpt lat="-23.779783" lon="-46.620138"><ele>759.0</ele><time>2017-02-15T12:02:59Z</time></trkpt><trkpt lat="-23.779828" lon="-46.620225"><ele>759.0</ele><time>2017-02-15T12:03:07Z</time></trkpt><trkpt lat="-23.779876" lon="-46.620319"><ele>759.0</ele><time>2017-02-15T12:03:17Z</time></trkpt><trkpt lat="-23.779924" lon="-46.620407"><ele>759.0</ele><time>2017-02-15T12:03:25Z</time></trkpt><trkpt lat="-23.779969" lon="-46.620506"><ele>760.0</ele><time>2017-02-15T12:03:33Z</time></trkpt><trkpt lat="-23.780018" lon="-46.620589"><ele>759.0</ele><time>2017-02-15T12:03:40Z</time></trkpt><trkpt lat="-23.780066" lon="-46.620673"><ele>760.0</ele><time>2017-02-15T12:03:47Z</time></trkpt><trkpt lat="-23.780103" lon="-46.620767"><ele>761.0</ele><time>2017-02-15T12:03:54Z</time></trkpt><trkpt lat="-23.780148" lon="-46.620863"><ele>760.0</ele><time>2017-02-15T12:04:02Z</time></trkpt><trkpt lat="-23.780198" lon="-46.620953"><ele>761.0</ele><time>2017-02-15T12:04:10Z</time></trkpt><trkpt lat="-23.780245" lon="-46.621045"><ele>761.0</ele><time>2017-02-15T12:04:18Z</time></trkpt><trkpt lat="-23.780292" lon="-46.621131"><ele>760.0</ele><time>2017-02-15T12:04:26Z</time></trkpt><trkpt lat="-23.780342" lon="-46.621217"><ele>761.0</ele><time>2017-02-15T12:04:34Z</time></trkpt><trkpt lat="-23.780384" lon="-46.621312"><ele>762.0</ele><time>2017-02-15T12:04:42Z</time></trkpt><trkpt lat="-23.780437" lon="-46.6214"><ele>761.0</ele><time>2017-02-15T12:05:02Z</time></trkpt><trkpt lat="-23.780496" lon="-46.621488"><ele>760.0</ele><time>2017-02-15T12:05:10Z</time></trkpt><trkpt lat="-23.780547" lon="-46.621581"><ele>761.0</ele><time>2017-02-15T12:05:17Z</time></trkpt><trkpt lat="-23.780594" lon="-46.621679"><ele>761.0</ele><time>2017-02-15T12:05:25Z</time></trkpt><trkpt lat="-23.78064" lon="-46.621776"><ele>761.0</ele><time>2017-02-15T12:05:33Z</time></trkpt><trkpt lat="-23.780693" lon="-46.62187"><ele>761.0</ele><time>2017-02-15T12:05:41Z</time></trkpt><trkpt lat="-23.780733" lon="-46.621982"><ele>764.0</ele><time>2017-02-15T12:05:48Z</time></trkpt><trkpt lat="-23.780785" lon="-46.622069"><ele>763.0</ele><time>2017-02-15T12:05:55Z</time></trkpt><trkpt lat="-23.780839" lon="-46.622161"><ele>764.0</ele><time>2017-02-15T12:06:02Z</time></trkpt><trkpt lat="-23.78088" lon="-46.622251"><ele>762.0</ele><time>2017-02-15T12:06:09Z</time></trkpt><trkpt lat="-23.780921" lon="-46.62234"><ele>764.0</ele><time>2017-02-15T12:06:16Z</time></trkpt><trkpt lat="-23.780964" lon="-46.622439"><ele>764.0</ele><time>2017-02-15T12:06:25Z</time></trkpt><trkpt lat="-23.78102" lon="-46.622525"><ele>765.0</ele><time>2017-02-15T12:06:33Z</time></trkpt><trkpt lat="-23.781064" lon="-46.622616"><ele>764.0</ele><time>2017-02-15T12:06:41Z</time></trkpt><trkpt lat="-23.781117" lon="-46.622708"><ele>764.0</ele><time>2017-02-15T12:06:49Z</time></trkpt><trkpt lat="-23.781166" lon="-46.622801"><ele>764.0</ele><time>2017-02-15T12:06:57Z</time></trkpt><trkpt lat="-23.781209" lon="-46.622902"><ele>762.0</ele><time>2017-02-15T12:07:05Z</time></trkpt><trkpt lat="-23.781258" lon="-46.622996"><ele>763.0</ele><time>2017-02-15T12:07:12Z</time></trkpt><trkpt lat="-23.781309" lon="-46.623087"><ele>764.0</ele><time>2017-02-15T12:07:20Z</time></trkpt><trkpt lat="-23.781356" lon="-46.623174"><ele>764.0</ele><time>2017-02-15T12:07:27Z</time></trkpt><trkpt lat="-23.781404" lon="-46.623261"><ele>764.0</ele><time>2017-02-15T12:07:34Z</time></trkpt><trkpt lat="-23.78145" lon="-46.623345"><ele>764.0</ele><time>2017-02-15T12:07:41Z</time></trkpt><trkpt lat="-23.781507" lon="-46.623437"><ele>764.0</ele><time>2017-02-15T12:07:49Z</time></trkpt><trkpt lat="-23.781547" lon="-46.623533"><ele>762.0</ele><time>2017-02-15T12:07:57Z</time></trkpt><trkpt lat="-23.781596" lon="-46.623632"><ele>761.0</ele><time>2017-02-15T12:08:05Z</time></trkpt><trkpt lat="-23.781644" lon="-46.623726"><ele>762.0</ele><time>2017-02-15T12:08:12Z</time></trkpt><trkpt lat="-23.781694" lon="-46.62382"><ele>760.0</ele><time>2017-02-15T12:08:19Z</time></trkpt><trkpt lat="-23.781744" lon="-46.623906"><ele>761.0</ele><time>2017-02-15T12:08:26Z</time></trkpt><trkpt lat="-23.78179" lon="-46.62399"><ele>760.0</ele><time>2017-02-15T12:08:33Z</time></trkpt><trkpt lat="-23.781834" lon="-46.624087"><ele>759.0</ele><time>2017-02-15T12:08:41Z</time></trkpt><trkpt lat="-23.781882" lon="-46.624185"><ele>759.0</ele><time>2017-02-15T12:08:49Z</time></trkpt><trkpt lat="-23.781928" lon="-46.624275"><ele>759.0</ele><time>2017-02-15T12:08:57Z</time></trkpt><trkpt lat="-23.781975" lon="-46.624372"><ele>760.0</ele><time>2017-02-15T12:09:05Z</time></trkpt><trkpt lat="-23.782022" lon="-46.624471"><ele>760.0</ele><time>2017-02-15T12:09:13Z</time></trkpt><trkpt lat="-23.782081" lon="-46.62456"><ele>760.0</ele><time>2017-02-15T12:09:21Z</time></trkpt><trkpt lat="-23.782135" lon="-46.624652"><ele>760.0</ele><time>2017-02-15T12:09:29Z</time></trkpt><trkpt lat="-23.782179" lon="-46.624739"><ele>760.0</ele><time>2017-02-15T12:09:35Z</time></trkpt><trkpt lat="-23.78222" lon="-46.624829"><ele>759.0</ele><time>2017-02-15T12:09:42Z</time></trkpt><trkpt lat="-23.782263" lon="-46.62492"><ele>758.0</ele><time>2017-02-15T12:09:50Z</time></trkpt><trkpt lat="-23.78231" lon="-46.62501"><ele>758.0</ele><time>2017-02-15T12:09:57Z</time></trkpt><trkpt lat="-23.782363" lon="-46.625096"><ele>759.0</ele><time>2017-02-15T12:10:05Z</time></trkpt><trkpt lat="-23.782412" lon="-46.625191"><ele>759.0</ele><time>2017-02-15T12:10:13Z</time></trkpt><trkpt lat="-23.782472" lon="-46.625271"><ele>761.0</ele><time>2017-02-15T12:10:21Z</time></trkpt><trkpt lat="-23.782516" lon="-46.625369"><ele>761.0</ele><time>2017-02-15T12:10:30Z</time></trkpt><trkpt lat="-23.782569" lon="-46.625455"><ele>761.0</ele><time>2017-02-15T12:10:38Z</time></trkpt><trkpt lat="-23.782619" lon="-46.625551"><ele>759.0</ele><time>2017-02-15T12:10:46Z</time></trkpt><trkpt lat="-23.782663" lon="-46.625641"><ele>760.0</ele><time>2017-02-15T12:10:54Z</time></trkpt><trkpt lat="-23.782706" lon="-46.625728"><ele>762.0</ele><time>2017-02-15T12:11:22Z</time></trkpt><trkpt lat="-23.782759" lon="-46.625821"><ele>761.0</ele><time>2017-02-15T12:11:29Z</time></trkpt><trkpt lat="-23.78279" lon="-46.625922"><ele>760.0</ele><time>2017-02-15T12:11:37Z</time></trkpt><trkpt lat="-23.78283" lon="-46.62602"><ele>760.0</ele><time>2017-02-15T12:11:45Z</time></trkpt><trkpt lat="-23.782873" lon="-46.626116"><ele>760.0</ele><time>2017-02-15T12:11:53Z</time></trkpt><trkpt lat="-23.782925" lon="-46.626212"><ele>760.0</ele><time>2017-02-15T12:12:01Z</time></trkpt><trkpt lat="-23.782987" lon="-46.626288"><ele>759.0</ele><time>2017-02-15T12:12:09Z</time></trkpt><trkpt lat="-23.783031" lon="-46.626382"><ele>759.0</ele><time>2017-02-15T12:12:17Z</time></trkpt><trkpt lat="-23.783077" lon="-46.626467"><ele>760.0</ele><time>2017-02-15T12:12:24Z</time></trkpt><trkpt lat="-23.783124" lon="-46.626552"><ele>760.0</ele><time>2017-02-15T12:12:31Z</time></trkpt><trkpt lat="-23.783178" lon="-46.626646"><ele>760.0</ele><time>2017-02-15T12:12:39Z</time></trkpt><trkpt lat="-23.783229" lon="-46.626737"><ele>760.0</ele><time>2017-02-15T12:12:47Z</time></trkpt><trkpt lat="-23.783275" lon="-46.626834"><ele>760.0</ele><time>2017-02-15T12:12:55Z</time></trkpt><trkpt lat="-23.783322" lon="-46.62692"><ele>760.0</ele><time>2017-02-15T12:13:02Z</time></trkpt><trkpt lat="-23.783372" lon="-46.627017"><ele>760.0</ele><time>2017-02-15T12:13:10Z</time></trkpt><trkpt lat="-23.783418" lon="-46.627112"><ele>760.0</ele><time>2017-02-15T12:13:18Z</time></trkpt><trkpt lat="-23.783467" lon="-46.627209"><ele>760.0</ele><time>2017-02-15T12:13:26Z</time></trkpt><trkpt lat="-23.783522" lon="-46.627297"><ele>760.0</ele><time>2017-02-15T12:13:33Z</time></trkpt><trkpt lat="-23.78357" lon="-46.627388"><ele>760.0</ele><time>2017-02-15T12:13:40Z</time></trkpt><trkpt lat="-23.783613" lon="-46.627475"><ele>761.0</ele><time>2017-02-15T12:13:47Z</time></trkpt><trkpt lat="-23.783659" lon="-46.627567"><ele>761.0</ele><time>2017-02-15T12:13:54Z</time></trkpt><trkpt lat="-23.783705" lon="-46.627657"><ele>761.0</ele><time>2017-02-15T12:14:01Z</time></trkpt><trkpt lat="-23.783759" lon="-46.627747"><ele>761.0</ele><time>2017-02-15T12:14:08Z</time></trkpt><trkpt lat="-23.783805" lon="-46.627838"><ele>761.0</ele><time>2017-02-15T12:14:15Z</time></trkpt><trkpt lat="-23.783855" lon="-46.627935"><ele>760.0</ele><time>2017-02-15T12:14:23Z</time></trkpt><trkpt lat="-23.783896" lon="-46.628024"><ele>759.0</ele><time>2017-02-15T12:14:30Z</time></trkpt><trkpt lat="-23.783944" lon="-46.628115"><ele>759.0</ele><time>2017-02-15T12:14:37Z</time></trkpt><trkpt lat="-23.783992" lon="-46.628198"><ele>759.0</ele><time>2017-02-15T12:14:44Z</time></trkpt><trkpt lat="-23.784041" lon="-46.628286"><ele>759.0</ele><time>2017-02-15T12:14:51Z</time></trkpt><trkpt lat="-23.784088" lon="-46.628379"><ele>758.0</ele><time>2017-02-15T12:14:58Z</time></trkpt><trkpt lat="-23.784141" lon="-46.628471"><ele>758.0</ele><time>2017-02-15T12:15:05Z</time></trkpt><trkpt lat="-23.784191" lon="-46.628561"><ele>758.0</ele><time>2017-02-15T12:15:12Z</time></trkpt><trkpt lat="-23.784233" lon="-46.628649"><ele>758.0</ele><time>2017-02-15T12:15:18Z</time></trkpt><trkpt lat="-23.784278" lon="-46.62874"><ele>759.0</ele><time>2017-02-15T12:15:26Z</time></trkpt><trkpt lat="-23.784326" lon="-46.628829"><ele>758.0</ele><time>2017-02-15T12:15:33Z</time></trkpt><trkpt lat="-23.784374" lon="-46.628918"><ele>758.0</ele><time>2017-02-15T12:15:50Z</time></trkpt><trkpt lat="-23.784418" lon="-46.629018"><ele>758.0</ele><time>2017-02-15T12:15:57Z</time></trkpt><trkpt lat="-23.784473" lon="-46.629111"><ele>757.0</ele><time>2017-02-15T12:16:04Z</time></trkpt><trkpt lat="-23.784524" lon="-46.629203"><ele>757.0</ele><time>2017-02-15T12:16:11Z</time></trkpt><trkpt lat="-23.784577" lon="-46.629292"><ele>758.0</ele><time>2017-02-15T12:16:18Z</time></trkpt><trkpt lat="-23.78463" lon="-46.629378"><ele>759.0</ele><time>2017-02-15T12:16:25Z</time></trkpt><trkpt lat="-23.784676" lon="-46.629467"><ele>758.0</ele><time>2017-02-15T12:16:32Z</time></trkpt><trkpt lat="-23.784721" lon="-46.629567"><ele>759.0</ele><time>2017-02-15T12:16:40Z</time></trkpt><trkpt lat="-23.784764" lon="-46.629662"><ele>758.0</ele><time>2017-02-15T12:16:47Z</time></trkpt><trkpt lat="-23.784811" lon="-46.629748"><ele>759.0</ele><time>2017-02-15T12:16:54Z</time></trkpt><trkpt lat="-23.784848" lon="-46.629839"><ele>758.0</ele><time>2017-02-15T12:17:01Z</time></trkpt><trkpt lat="-23.784895" lon="-46.629936"><ele>758.0</ele><time>2017-02-15T12:17:09Z</time></trkpt><trkpt lat="-23.784947" lon="-46.630032"><ele>758.0</ele><time>2017-02-15T12:17:17Z</time></trkpt><trkpt lat="-23.784994" lon="-46.630121"><ele>758.0</ele><time>2017-02-15T12:17:24Z</time></trkpt><trkpt lat="-23.785041" lon="-46.630207"><ele>758.0</ele><time>2017-02-15T12:17:31Z</time></trkpt><trkpt lat="-23.785081" lon="-46.630304"><ele>757.0</ele><time>2017-02-15T12:17:38Z</time></trkpt><trkpt lat="-23.785158" lon="-46.630408"><ele>758.0</ele><time>2017-02-15T12:17:47Z</time></trkpt><trkpt lat="-23.785212" lon="-46.630502"><ele>759.0</ele><time>2017-02-15T12:17:55Z</time></trkpt><trkpt lat="-23.785256" lon="-46.630594"><ele>759.0</ele><time>2017-02-15T12:18:04Z</time></trkpt><trkpt lat="-23.785309" lon="-46.630688"><ele>760.0</ele><time>2017-02-15T12:18:32Z</time></trkpt><trkpt lat="-23.785364" lon="-46.630771"><ele>761.0</ele><time>2017-02-15T12:18:42Z</time></trkpt><trkpt lat="-23.785413" lon="-46.630861"><ele>759.0</ele><time>2017-02-15T12:18:51Z</time></trkpt><trkpt lat="-23.785449" lon="-46.630964"><ele>760.0</ele><time>2017-02-15T12:21:55Z</time></trkpt><trkpt lat="-23.785494" lon="-46.631061"><ele>758.0</ele><time>2017-02-15T12:22:03Z</time></trkpt><trkpt lat="-23.785539" lon="-46.631154"><ele>757.0</ele><time>2017-02-15T12:22:10Z</time></trkpt><trkpt lat="-23.785588" lon="-46.631243"><ele>758.0</ele><time>2017-02-15T12:22:17Z</time></trkpt><trkpt lat="-23.785633" lon="-46.631332"><ele>757.0</ele><time>2017-02-15T12:22:24Z</time></trkpt><trkpt lat="-23.785682" lon="-46.631426"><ele>756.0</ele><time>2017-02-15T12:22:32Z</time></trkpt><trkpt lat="-23.785725" lon="-46.631514"><ele>757.0</ele><time>2017-02-15T12:22:39Z</time></trkpt><trkpt lat="-23.785771" lon="-46.631604"><ele>757.0</ele><time>2017-02-15T12:22:46Z</time></trkpt><trkpt lat="-23.785822" lon="-46.631688"><ele>759.0</ele><time>2017-02-15T12:22:53Z</time></trkpt><trkpt lat="-23.785859" lon="-46.631782"><ele>758.0</ele><time>2017-02-15T12:23:00Z</time></trkpt><trkpt lat="-23.785911" lon="-46.631877"><ele>759.0</ele><time>2017-02-15T12:23:08Z</time></trkpt><trkpt lat="-23.785984" lon="-46.631945"><ele>758.0</ele><time>2017-02-15T12:23:20Z</time></trkpt><trkpt lat="-23.786027" lon="-46.632033"><ele>756.0</ele><time>2017-02-15T12:23:26Z</time></trkpt><trkpt lat="-23.786067" lon="-46.632122"><ele>755.0</ele><time>2017-02-15T12:23:33Z</time></trkpt><trkpt lat="-23.786109" lon="-46.632215"><ele>756.0</ele><time>2017-02-15T12:23:41Z</time></trkpt><trkpt lat="-23.786161" lon="-46.632296"><ele>755.0</ele><time>2017-02-15T12:23:49Z</time></trkpt><trkpt lat="-23.786197" lon="-46.63239"><ele>752.0</ele><time>2017-02-15T12:24:20Z</time></trkpt><trkpt lat="-23.786254" lon="-46.632478"><ele>754.0</ele><time>2017-02-15T12:24:28Z</time></trkpt><trkpt lat="-23.786304" lon="-46.632567"><ele>755.0</ele><time>2017-02-15T12:24:34Z</time></trkpt><trkpt lat="-23.786352" lon="-46.632659"><ele>755.0</ele><time>2017-02-15T12:24:42Z</time></trkpt><trkpt lat="-23.786401" lon="-46.632751"><ele>755.0</ele><time>2017-02-15T12:24:51Z</time></trkpt><trkpt lat="-23.786453" lon="-46.632837"><ele>755.0</ele><time>2017-02-15T12:25:00Z</time></trkpt><trkpt lat="-23.786519" lon="-46.632908"><ele>753.0</ele><time>2017-02-15T12:25:09Z</time></trkpt><trkpt lat="-23.786563" lon="-46.633003"><ele>750.0</ele><time>2017-02-15T12:25:18Z</time></trkpt><trkpt lat="-23.786599" lon="-46.633105"><ele>751.0</ele><time>2017-02-15T12:25:27Z</time></trkpt><trkpt lat="-23.786608" lon="-46.633213"><ele>752.0</ele><time>2017-02-15T12:25:35Z</time></trkpt><trkpt lat="-23.78666" lon="-46.633298"><ele>751.0</ele><time>2017-02-15T12:25:43Z</time></trkpt><trkpt lat="-23.786707" lon="-46.633389"><ele>754.0</ele><time>2017-02-15T12:25:50Z</time></trkpt><trkpt lat="-23.786768" lon="-46.633467"><ele>755.0</ele><time>2017-02-15T12:25:58Z</time></trkpt><trkpt lat="-23.786828" lon="-46.633541"><ele>756.0</ele><time>2017-02-15T12:26:05Z</time></trkpt><trkpt lat="-23.786882" lon="-46.63363"><ele>756.0</ele><time>2017-02-15T12:26:14Z</time></trkpt><trkpt lat="-23.78692" lon="-46.633721"><ele>757.0</ele><time>2017-02-15T12:26:28Z</time></trkpt><trkpt lat="-23.786961" lon="-46.633817"><ele>759.0</ele><time>2017-02-15T12:26:36Z</time></trkpt><trkpt lat="-23.787012" lon="-46.633899"><ele>760.0</ele><time>2017-02-15T12:26:43Z</time></trkpt><trkpt lat="-23.787079" lon="-46.633979"><ele>758.0</ele><time>2017-02-15T12:26:50Z</time></trkpt><trkpt lat="-23.787121" lon="-46.634071"><ele>757.0</ele><time>2017-02-15T12:26:57Z</time></trkpt><trkpt lat="-23.787156" lon="-46.634169"><ele>758.0</ele><time>2017-02-15T12:27:05Z</time></trkpt><trkpt lat="-23.787199" lon="-46.634258"><ele>758.0</ele><time>2017-02-15T12:27:13Z</time></trkpt><trkpt lat="-23.787246" lon="-46.634352"><ele>759.0</ele><time>2017-02-15T12:27:21Z</time></trkpt><trkpt lat="-23.787296" lon="-46.634447"><ele>760.0</ele><time>2017-02-15T12:27:29Z</time></trkpt><trkpt lat="-23.787338" lon="-46.634541"><ele>761.0</ele><time>2017-02-15T12:27:38Z</time></trkpt><trkpt lat="-23.787393" lon="-46.634619"><ele>762.0</ele><time>2017-02-15T12:27:46Z</time></trkpt><trkpt lat="-23.787429" lon="-46.634712"><ele>763.0</ele><time>2017-02-15T12:28:03Z</time></trkpt><trkpt lat="-23.787479" lon="-46.634798"><ele>762.0</ele><time>2017-02-15T12:28:10Z</time></trkpt><trkpt lat="-23.787528" lon="-46.634889"><ele>763.0</ele><time>2017-02-15T12:28:18Z</time></trkpt><trkpt lat="-23.787571" lon="-46.63498"><ele>762.0</ele><time>2017-02-15T12:28:26Z</time></trkpt><trkpt lat="-23.787626" lon="-46.635069"><ele>763.0</ele><time>2017-02-15T12:28:35Z</time></trkpt><trkpt lat="-23.787678" lon="-46.635164"><ele>762.0</ele><time>2017-02-15T12:28:43Z</time></trkpt><trkpt lat="-23.787735" lon="-46.635267"><ele>763.0</ele><time>2017-02-15T12:28:51Z</time></trkpt><trkpt lat="-23.787783" lon="-46.635355"><ele>764.0</ele><time>2017-02-15T12:29:00Z</time></trkpt><trkpt lat="-23.787832" lon="-46.635445"><ele>765.0</ele><time>2017-02-15T12:29:08Z</time></trkpt><trkpt lat="-23.787878" lon="-46.635543"><ele>765.0</ele><time>2017-02-15T12:29:17Z</time></trkpt><trkpt lat="-23.787924" lon="-46.635641"><ele>764.0</ele><time>2017-02-15T12:29:26Z</time></trkpt><trkpt lat="-23.787981" lon="-46.635719"><ele>765.0</ele><time>2017-02-15T12:29:34Z</time></trkpt><trkpt lat="-23.788031" lon="-46.635811"><ele>764.0</ele><time>2017-02-15T12:29:42Z</time></trkpt><trkpt lat="-23.788072" lon="-46.635909"><ele>763.0</ele><time>2017-02-15T12:29:50Z</time></trkpt><trkpt lat="-23.788122" lon="-46.635998"><ele>763.0</ele><time>2017-02-15T12:29:58Z</time></trkpt><trkpt lat="-23.788171" lon="-46.636092"><ele>762.0</ele><time>2017-02-15T12:30:06Z</time></trkpt><trkpt lat="-23.788212" lon="-46.636186"><ele>763.0</ele><time>2017-02-15T12:30:14Z</time></trkpt><trkpt lat="-23.78826" lon="-46.636283"><ele>764.0</ele><time>2017-02-15T12:30:22Z</time></trkpt><trkpt lat="-23.788304" lon="-46.636378"><ele>763.0</ele><time>2017-02-15T12:30:31Z</time></trkpt><trkpt lat="-23.788348" lon="-46.636473"><ele>763.0</ele><time>2017-02-15T12:30:41Z</time></trkpt><trkpt lat="-23.788381" lon="-46.636566"><ele>764.0</ele><time>2017-02-15T12:30:50Z</time></trkpt><trkpt lat="-23.788451" lon="-46.636628"><ele>767.0</ele><time>2017-02-15T12:31:21Z</time></trkpt><trkpt lat="-23.78846" lon="-46.63673"><ele>765.0</ele><time>2017-02-15T12:31:29Z</time></trkpt><trkpt lat="-23.788498" lon="-46.636828"><ele>764.0</ele><time>2017-02-15T12:31:37Z</time></trkpt><trkpt lat="-23.788551" lon="-46.636913"><ele>764.0</ele><time>2017-02-15T12:31:45Z</time></trkpt><trkpt lat="-23.788606" lon="-46.636998"><ele>764.0</ele><time>2017-02-15T12:31:53Z</time></trkpt><trkpt lat="-23.78864" lon="-46.637091"><ele>766.0</ele><time>2017-02-15T12:32:01Z</time></trkpt><trkpt lat="-23.788696" lon="-46.637178"><ele>764.0</ele><time>2017-02-15T12:32:09Z</time></trkpt><trkpt lat="-23.788737" lon="-46.637268"><ele>763.0</ele><time>2017-02-15T12:32:16Z</time></trkpt><trkpt lat="-23.78877" lon="-46.637369"><ele>763.0</ele><time>2017-02-15T12:32:24Z</time></trkpt><trkpt lat="-23.788805" lon="-46.637471"><ele>764.0</ele><time>2017-02-15T12:32:32Z</time></trkpt><trkpt lat="-23.788846" lon="-46.637561"><ele>765.0</ele><time>2017-02-15T12:32:39Z</time></trkpt><trkpt lat="-23.788894" lon="-46.637658"><ele>769.0</ele><time>2017-02-15T12:32:47Z</time></trkpt><trkpt lat="-23.788939" lon="-46.637748"><ele>768.0</ele><time>2017-02-15T12:32:54Z</time></trkpt><trkpt lat="-23.788968" lon="-46.637851"><ele>766.0</ele><time>2017-02-15T12:33:02Z</time></trkpt><trkpt lat="-23.789014" lon="-46.63794"><ele>766.0</ele><time>2017-02-15T12:33:10Z</time></trkpt><trkpt lat="-23.78907" lon="-46.638031"><ele>769.0</ele><time>2017-02-15T12:33:18Z</time></trkpt><trkpt lat="-23.789106" lon="-46.638122"><ele>771.0</ele><time>2017-02-15T12:33:29Z</time></trkpt><trkpt lat="-23.789139" lon="-46.638226"><ele>766.0</ele><time>2017-02-15T12:33:38Z</time></trkpt><trkpt lat="-23.789149" lon="-46.638326"><ele>764.0</ele><time>2017-02-15T12:33:46Z</time></trkpt><trkpt lat="-23.7892" lon="-46.63842"><ele>765.0</ele><time>2017-02-15T12:33:54Z</time></trkpt><trkpt lat="-23.789255" lon="-46.638508"><ele>769.0</ele><time>2017-02-15T12:34:02Z</time></trkpt><trkpt lat="-23.789287" lon="-46.638603"><ele>771.0</ele><time>2017-02-15T12:34:10Z</time></trkpt><trkpt lat="-23.789299" lon="-46.638701"><ele>771.0</ele><time>2017-02-15T12:34:17Z</time></trkpt><trkpt lat="-23.789343" lon="-46.638797"><ele>770.0</ele><time>2017-02-15T12:34:25Z</time></trkpt><trkpt lat="-23.789404" lon="-46.638879"><ele>769.0</ele><time>2017-02-15T12:34:32Z</time></trkpt><trkpt lat="-23.789427" lon="-46.638987"><ele>769.0</ele><time>2017-02-15T12:34:40Z</time></trkpt><trkpt lat="-23.789473" lon="-46.639073"><ele>767.0</ele><time>2017-02-15T12:34:46Z</time></trkpt><trkpt lat="-23.789502" lon="-46.639166"><ele>768.0</ele><time>2017-02-15T12:34:53Z</time></trkpt><trkpt lat="-23.789537" lon="-46.639257"><ele>771.0</ele><time>2017-02-15T12:35:01Z</time></trkpt><trkpt lat="-23.789568" lon="-46.639355"><ele>770.0</ele><time>2017-02-15T12:35:09Z</time></trkpt><trkpt lat="-23.789617" lon="-46.639454"><ele>768.0</ele><time>2017-02-15T12:35:17Z</time></trkpt><trkpt lat="-23.789654" lon="-46.639557"><ele>769.0</ele><time>2017-02-15T12:35:25Z</time></trkpt><trkpt lat="-23.789683" lon="-46.639659"><ele>767.0</ele><time>2017-02-15T12:35:33Z</time></trkpt><trkpt lat="-23.789708" lon="-46.639758"><ele>766.0</ele><time>2017-02-15T12:35:41Z</time></trkpt><trkpt lat="-23.789739" lon="-46.639862"><ele>769.0</ele><time>2017-02-15T12:35:49Z</time></trkpt><trkpt lat="-23.789782" lon="-46.639951"><ele>771.0</ele><time>2017-02-15T12:35:56Z</time></trkpt><trkpt lat="-23.789817" lon="-46.640053"><ele>773.0</ele><time>2017-02-15T12:36:04Z</time></trkpt><trkpt lat="-23.789852" lon="-46.640152"><ele>774.0</ele><time>2017-02-15T12:36:12Z</time></trkpt><trkpt lat="-23.789876" lon="-46.640265"><ele>775.0</ele><time>2017-02-15T12:36:19Z</time></trkpt><trkpt lat="-23.789913" lon="-46.640367"><ele>772.0</ele><time>2017-02-15T12:36:27Z</time></trkpt><trkpt lat="-23.78995" lon="-46.640463"><ele>768.0</ele><time>2017-02-15T12:36:36Z</time></trkpt><trkpt lat="-23.790026" lon="-46.640533"><ele>771.0</ele><time>2017-02-15T12:36:48Z</time></trkpt><trkpt lat="-23.790394" lon="-46.640669"><ele>749.0</ele><time>2017-02-15T12:40:02Z</time></trkpt><trkpt lat="-23.790487" lon="-46.640678"><ele>762.0</ele><time>2017-02-15T12:40:36Z</time></trkpt><trkpt lat="-23.790532" lon="-46.640588"><ele>763.0</ele><time>2017-02-15T12:40:45Z</time></trkpt><trkpt lat="-23.790579" lon="-46.640695"><ele>769.0</ele><time>2017-02-15T12:41:34Z</time></trkpt><trkpt lat="-23.790604" lon="-46.640789"><ele>767.0</ele><time>2017-02-15T12:41:38Z</time></trkpt><trkpt lat="-23.790631" lon="-46.640886"><ele>765.0</ele><time>2017-02-15T12:41:43Z</time></trkpt><trkpt lat="-23.790642" lon="-46.640997"><ele>766.0</ele><time>2017-02-15T12:41:50Z</time></trkpt><trkpt lat="-23.790618" lon="-46.6411"><ele>764.0</ele><time>2017-02-15T12:41:58Z</time></trkpt><trkpt lat="-23.790581" lon="-46.641201"><ele>763.0</ele><time>2017-02-15T12:42:06Z</time></trkpt><trkpt lat="-23.790536" lon="-46.641297"><ele>763.0</ele><time>2017-02-15T12:42:14Z</time></trkpt><trkpt lat="-23.790478" lon="-46.641377"><ele>762.0</ele><time>2017-02-15T12:42:22Z</time></trkpt><trkpt lat="-23.790416" lon="-46.641452"><ele>764.0</ele><time>2017-02-15T12:42:43Z</time></trkpt><trkpt lat="-23.790336" lon="-46.641513"><ele>759.0</ele><time>2017-02-15T12:42:58Z</time></trkpt><trkpt lat="-23.790245" lon="-46.641514"><ele>758.0</ele><time>2017-02-15T12:43:06Z</time></trkpt><trkpt lat="-23.790159" lon="-46.641579"><ele>749.0</ele><time>2017-02-15T12:43:59Z</time></trkpt><trkpt lat="-23.790066" lon="-46.641618"><ele>750.0</ele><time>2017-02-15T12:44:02Z</time></trkpt><trkpt lat="-23.789978" lon="-46.641657"><ele>750.0</ele><time>2017-02-15T12:44:06Z</time></trkpt><trkpt lat="-23.789896" lon="-46.641711"><ele>751.0</ele><time>2017-02-15T12:44:44Z</time></trkpt><trkpt lat="-23.78981" lon="-46.641678"><ele>754.0</ele><time>2017-02-15T12:44:58Z</time></trkpt><trkpt lat="-23.789709" lon="-46.641734"><ele>764.0</ele><time>2017-02-15T12:45:11Z</time></trkpt><trkpt lat="-23.789621" lon="-46.641764"><ele>763.0</ele><time>2017-02-15T12:45:16Z</time></trkpt><trkpt lat="-23.789527" lon="-46.641787"><ele>764.0</ele><time>2017-02-15T12:45:38Z</time></trkpt><trkpt lat="-23.789437" lon="-46.641813"><ele>764.0</ele><time>2017-02-15T12:45:44Z</time></trkpt><trkpt lat="-23.78935" lon="-46.641842"><ele>764.0</ele><time>2017-02-15T12:45:52Z</time></trkpt><trkpt lat="-23.789251" lon="-46.64182"><ele>764.0</ele><time>2017-02-15T12:46:02Z</time></trkpt><trkpt lat="-23.789297" lon="-46.641729"><ele>768.0</ele><time>2017-02-15T12:46:15Z</time></trkpt><trkpt lat="-23.789236" lon="-46.641807"><ele>768.0</ele><time>2017-02-15T12:47:02Z</time></trkpt><trkpt lat="-23.789151" lon="-46.64184"><ele>766.0</ele><time>2017-02-15T12:47:11Z</time></trkpt><trkpt lat="-23.789056" lon="-46.641859"><ele>766.0</ele><time>2017-02-15T12:47:19Z</time></trkpt><trkpt lat="-23.78897" lon="-46.641891"><ele>767.0</ele><time>2017-02-15T12:47:28Z</time></trkpt><trkpt lat="-23.788875" lon="-46.641925"><ele>767.0</ele><time>2017-02-15T12:47:35Z</time></trkpt><trkpt lat="-23.788776" lon="-46.641959"><ele>774.0</ele><time>2017-02-15T12:47:49Z</time></trkpt><trkpt lat="-23.788686" lon="-46.641963"><ele>769.0</ele><time>2017-02-15T12:47:56Z</time></trkpt><trkpt lat="-23.788588" lon="-46.641951"><ele>773.0</ele><time>2017-02-15T12:48:04Z</time></trkpt><trkpt lat="-23.788491" lon="-46.641963"><ele>774.0</ele><time>2017-02-15T12:48:12Z</time></trkpt><trkpt lat="-23.788404" lon="-46.641999"><ele>774.0</ele><time>2017-02-15T12:48:21Z</time></trkpt><trkpt lat="-23.788311" lon="-46.642038"><ele>772.0</ele><time>2017-02-15T12:49:27Z</time></trkpt><trkpt lat="-23.788221" lon="-46.642078"><ele>774.0</ele><time>2017-02-15T12:49:34Z</time></trkpt><trkpt lat="-23.788134" lon="-46.642118"><ele>772.0</ele><time>2017-02-15T12:49:42Z</time></trkpt><trkpt lat="-23.788035" lon="-46.642169"><ele>771.0</ele><time>2017-02-15T12:49:50Z</time></trkpt><trkpt lat="-23.787945" lon="-46.642216"><ele>777.0</ele><time>2017-02-15T13:02:53Z</time></trkpt><trkpt lat="-23.787878" lon="-46.642295"><ele>775.0</ele><time>2017-02-15T13:03:02Z</time></trkpt><trkpt lat="-23.787812" lon="-46.642368"><ele>775.0</ele><time>2017-02-15T13:03:10Z</time></trkpt><trkpt lat="-23.78774" lon="-46.642446"><ele>776.0</ele><time>2017-02-15T13:03:18Z</time></trkpt><trkpt lat="-23.787668" lon="-46.642513"><ele>777.0</ele><time>2017-02-15T13:03:26Z</time></trkpt><trkpt lat="-23.78762" lon="-46.642596"><ele>777.0</ele><time>2017-02-15T13:03:34Z</time></trkpt><trkpt lat="-23.787554" lon="-46.642673"><ele>779.0</ele><time>2017-02-15T13:03:43Z</time></trkpt><trkpt lat="-23.787482" lon="-46.642752"><ele>778.0</ele><time>2017-02-15T13:03:53Z</time></trkpt><trkpt lat="-23.787422" lon="-46.642833"><ele>775.0</ele><time>2017-02-15T13:04:01Z</time></trkpt><trkpt lat="-23.787345" lon="-46.642904"><ele>779.0</ele><time>2017-02-15T13:04:09Z</time></trkpt><trkpt lat="-23.787263" lon="-46.642967"><ele>778.0</ele><time>2017-02-15T13:04:17Z</time></trkpt><trkpt lat="-23.787187" lon="-46.64303"><ele>780.0</ele><time>2017-02-15T13:04:24Z</time></trkpt><trkpt lat="-23.787147" lon="-46.643119"><ele>778.0</ele><time>2017-02-15T13:04:33Z</time></trkpt><trkpt lat="-23.787102" lon="-46.643207"><ele>779.0</ele><time>2017-02-15T13:04:40Z</time></trkpt><trkpt lat="-23.787011" lon="-46.643216"><ele>780.0</ele><time>2017-02-15T13:04:47Z</time></trkpt><trkpt lat="-23.786949" lon="-46.643296"><ele>780.0</ele><time>2017-02-15T13:04:55Z</time></trkpt><trkpt lat="-23.786918" lon="-46.643404"><ele>781.0</ele><time>2017-02-15T13:05:01Z</time></trkpt><trkpt lat="-23.786857" lon="-46.643477"><ele>779.0</ele><time>2017-02-15T13:05:08Z</time></trkpt><trkpt lat="-23.786758" lon="-46.643456"><ele>779.0</ele><time>2017-02-15T13:05:15Z</time></trkpt><trkpt lat="-23.786673" lon="-46.643492"><ele>782.0</ele><time>2017-02-15T13:05:23Z</time></trkpt><trkpt lat="-23.786602" lon="-46.643556"><ele>783.0</ele><time>2017-02-15T13:05:31Z</time></trkpt><trkpt lat="-23.786511" lon="-46.643597"><ele>786.0</ele><time>2017-02-15T13:05:40Z</time></trkpt><trkpt lat="-23.786423" lon="-46.643619"><ele>786.0</ele><time>2017-02-15T13:05:51Z</time></trkpt><trkpt lat="-23.786339" lon="-46.643657"><ele>785.0</ele><time>2017-02-15T13:05:58Z</time></trkpt><trkpt lat="-23.786235" lon="-46.643647"><ele>779.0</ele><time>2017-02-15T13:06:05Z</time></trkpt><trkpt lat="-23.786135" lon="-46.643665"><ele>776.0</ele><time>2017-02-15T13:06:12Z</time></trkpt><trkpt lat="-23.786062" lon="-46.643597"><ele>778.0</ele><time>2017-02-15T13:06:18Z</time></trkpt><trkpt lat="-23.78597" lon="-46.643597"><ele>776.0</ele><time>2017-02-15T13:06:24Z</time></trkpt><trkpt lat="-23.785878" lon="-46.643612"><ele>779.0</ele><time>2017-02-15T13:06:33Z</time></trkpt><trkpt lat="-23.785791" lon="-46.643647"><ele>774.0</ele><time>2017-02-15T13:06:40Z</time></trkpt><trkpt lat="-23.785692" lon="-46.643668"><ele>775.0</ele><time>2017-02-15T13:06:48Z</time></trkpt><trkpt lat="-23.785608" lon="-46.643721"><ele>775.0</ele><time>2017-02-15T13:06:57Z</time></trkpt><trkpt lat="-23.785522" lon="-46.643757"><ele>778.0</ele><time>2017-02-15T13:07:05Z</time></trkpt><trkpt lat="-23.785427" lon="-46.643744"><ele>772.0</ele><time>2017-02-15T13:07:13Z</time></trkpt><trkpt lat="-23.785351" lon="-46.643804"><ele>773.0</ele><time>2017-02-15T13:07:21Z</time></trkpt><trkpt lat="-23.785262" lon="-46.643846"><ele>774.0</ele><time>2017-02-15T13:07:31Z</time></trkpt><trkpt lat="-23.78517" lon="-46.643861"><ele>771.0</ele><time>2017-02-15T13:07:39Z</time></trkpt><trkpt lat="-23.785064" lon="-46.6439"><ele>774.0</ele><time>2017-02-15T13:07:50Z</time></trkpt><trkpt lat="-23.784978" lon="-46.64393"><ele>773.0</ele><time>2017-02-15T13:07:58Z</time></trkpt><trkpt lat="-23.784902" lon="-46.643993"><ele>770.0</ele><time>2017-02-15T13:08:06Z</time></trkpt><trkpt lat="-23.7848" lon="-46.643999"><ele>771.0</ele><time>2017-02-15T13:08:17Z</time></trkpt><trkpt lat="-23.784719" lon="-46.644045"><ele>773.0</ele><time>2017-02-15T13:08:26Z</time></trkpt><trkpt lat="-23.784636" lon="-46.644088"><ele>772.0</ele><time>2017-02-15T13:08:35Z</time></trkpt><trkpt lat="-23.784545" lon="-46.644107"><ele>773.0</ele><time>2017-02-15T13:08:43Z</time></trkpt><trkpt lat="-23.784459" lon="-46.644143"><ele>772.0</ele><time>2017-02-15T13:08:51Z</time></trkpt><trkpt lat="-23.78438" lon="-46.644202"><ele>775.0</ele><time>2017-02-15T13:08:58Z</time></trkpt><trkpt lat="-23.784289" lon="-46.644215"><ele>774.0</ele><time>2017-02-15T13:09:07Z</time></trkpt><trkpt lat="-23.784199" lon="-46.644263"><ele>781.0</ele><time>2017-02-15T13:09:15Z</time></trkpt><trkpt lat="-23.784096" lon="-46.644271"><ele>776.0</ele><time>2017-02-15T13:09:23Z</time></trkpt><trkpt lat="-23.784028" lon="-46.644349"><ele>774.0</ele><time>2017-02-15T13:09:31Z</time></trkpt><trkpt lat="-23.783972" lon="-46.644431"><ele>776.0</ele><time>2017-02-15T13:09:38Z</time></trkpt><trkpt lat="-23.783898" lon="-46.644497"><ele>775.0</ele><time>2017-02-15T13:09:46Z</time></trkpt><trkpt lat="-23.783801" lon="-46.644515"><ele>772.0</ele><time>2017-02-15T13:09:53Z</time></trkpt><trkpt lat="-23.783744" lon="-46.644592"><ele>771.0</ele><time>2017-02-15T13:10:02Z</time></trkpt><trkpt lat="-23.783688" lon="-46.644674"><ele>768.0</ele><time>2017-02-15T13:10:10Z</time></trkpt><trkpt lat="-23.783593" lon="-46.644678"><ele>765.0</ele><time>2017-02-15T13:10:18Z</time></trkpt><trkpt lat="-23.783512" lon="-46.644745"><ele>769.0</ele><time>2017-02-15T13:10:26Z</time></trkpt><trkpt lat="-23.783455" lon="-46.644822"><ele>764.0</ele><time>2017-02-15T13:10:33Z</time></trkpt><trkpt lat="-23.783358" lon="-46.644837"><ele>758.0</ele><time>2017-02-15T13:10:56Z</time></trkpt><trkpt lat="-23.783279" lon="-46.64489"><ele>758.0</ele><time>2017-02-15T13:11:12Z</time></trkpt><trkpt lat="-23.783211" lon="-46.644957"><ele>759.0</ele><time>2017-02-15T13:11:23Z</time></trkpt><trkpt lat="-23.783143" lon="-46.64503"><ele>760.0</ele><time>2017-02-15T13:11:30Z</time></trkpt><trkpt lat="-23.783067" lon="-46.645085"><ele>759.0</ele><time>2017-02-15T13:11:38Z</time></trkpt><trkpt lat="-23.782994" lon="-46.645155"><ele>761.0</ele><time>2017-02-15T13:11:46Z</time></trkpt><trkpt lat="-23.782928" lon="-46.645235"><ele>765.0</ele><time>2017-02-15T13:11:55Z</time></trkpt><trkpt lat="-23.78285" lon="-46.645299"><ele>759.0</ele><time>2017-02-15T13:12:03Z</time></trkpt><trkpt lat="-23.782778" lon="-46.645363"><ele>756.0</ele><time>2017-02-15T13:12:11Z</time></trkpt><trkpt lat="-23.782695" lon="-46.645421"><ele>755.0</ele><time>2017-02-15T13:12:20Z</time></trkpt><trkpt lat="-23.782632" lon="-46.6455"><ele>757.0</ele><time>2017-02-15T13:12:29Z</time></trkpt><trkpt lat="-23.782561" lon="-46.64557"><ele>758.0</ele><time>2017-02-15T13:12:37Z</time></trkpt><trkpt lat="-23.782478" lon="-46.64562"><ele>755.0</ele><time>2017-02-15T13:12:46Z</time></trkpt><trkpt lat="-23.782439" lon="-46.645715"><ele>756.0</ele><time>2017-02-15T13:12:56Z</time></trkpt><trkpt lat="-23.782346" lon="-46.645707"><ele>753.0</ele><time>2017-02-15T13:13:04Z</time></trkpt><trkpt lat="-23.782401" lon="-46.64562"><ele>761.0</ele><time>2017-02-15T13:55:50Z</time></trkpt><trkpt lat="-23.782336" lon="-46.64569"><ele>761.0</ele><time>2017-02-15T13:56:08Z</time></trkpt><trkpt lat="-23.782287" lon="-46.645776"><ele>764.0</ele><time>2017-02-15T13:56:34Z</time></trkpt><trkpt lat="-23.782219" lon="-46.645851"><ele>760.0</ele><time>2017-02-15T13:56:44Z</time></trkpt><trkpt lat="-23.782132" lon="-46.645903"><ele>760.0</ele><time>2017-02-15T13:56:52Z</time></trkpt><trkpt lat="-23.782064" lon="-46.645969"><ele>763.0</ele><time>2017-02-15T13:57:00Z</time></trkpt><trkpt lat="-23.781975" lon="-46.64602"><ele>764.0</ele><time>2017-02-15T13:57:10Z</time></trkpt><trkpt lat="-23.781892" lon="-46.646063"><ele>763.0</ele><time>2017-02-15T13:57:19Z</time></trkpt><trkpt lat="-23.781795" lon="-46.646091"><ele>764.0</ele><time>2017-02-15T13:57:29Z</time></trkpt><trkpt lat="-23.781705" lon="-46.646121"><ele>765.0</ele><time>2017-02-15T13:57:38Z</time></trkpt><trkpt lat="-23.781623" lon="-46.646169"><ele>766.0</ele><time>2017-02-15T13:57:46Z</time></trkpt><trkpt lat="-23.781526" lon="-46.6462"><ele>765.0</ele><time>2017-02-15T13:57:54Z</time></trkpt><trkpt lat="-23.781426" lon="-46.646211"><ele>763.0</ele><time>2017-02-15T13:58:03Z</time></trkpt><trkpt lat="-23.781331" lon="-46.646231"><ele>764.0</ele><time>2017-02-15T13:58:11Z</time></trkpt><trkpt lat="-23.781232" lon="-46.646251"><ele>765.0</ele><time>2017-02-15T13:58:21Z</time></trkpt><trkpt lat="-23.781142" lon="-46.646284"><ele>767.0</ele><time>2017-02-15T13:58:31Z</time></trkpt><trkpt lat="-23.781042" lon="-46.646295"><ele>764.0</ele><time>2017-02-15T13:58:40Z</time></trkpt><trkpt lat="-23.780954" lon="-46.646336"><ele>765.0</ele><time>2017-02-15T13:58:52Z</time></trkpt><trkpt lat="-23.781005" lon="-46.646418"><ele>768.0</ele><time>2017-02-15T13:59:09Z</time></trkpt><trkpt lat="-23.780924" lon="-46.64647"><ele>766.0</ele><time>2017-02-15T13:59:29Z</time></trkpt><trkpt lat="-23.780903" lon="-46.646351"><ele>765.0</ele><time>2017-02-15T14:03:23Z</time></trkpt><trkpt lat="-23.780815" lon="-46.646319"><ele>764.0</ele><time>2017-02-15T14:03:31Z</time></trkpt><trkpt lat="-23.780724" lon="-46.646343"><ele>764.0</ele><time>2017-02-15T14:03:39Z</time></trkpt><trkpt lat="-23.780637" lon="-46.646374"><ele>762.0</ele><time>2017-02-15T14:03:47Z</time></trkpt><trkpt lat="-23.780551" lon="-46.646409"><ele>763.0</ele><time>2017-02-15T14:03:56Z</time></trkpt><trkpt lat="-23.78046" lon="-46.646422"><ele>765.0</ele><time>2017-02-15T14:04:04Z</time></trkpt><trkpt lat="-23.780375" lon="-46.646469"><ele>765.0</ele><time>2017-02-15T14:04:15Z</time></trkpt><trkpt lat="-23.780263" lon="-46.64647"><ele>768.0</ele><time>2017-02-15T14:04:26Z</time></trkpt><trkpt lat="-23.780174" lon="-46.646495"><ele>769.0</ele><time>2017-02-15T14:04:34Z</time></trkpt><trkpt lat="-23.780075" lon="-46.646498"><ele>767.0</ele><time>2017-02-15T14:04:43Z</time></trkpt><trkpt lat="-23.779983" lon="-46.646489"><ele>765.0</ele><time>2017-02-15T14:04:52Z</time></trkpt><trkpt lat="-23.779888" lon="-46.646509"><ele>765.0</ele><time>2017-02-15T14:05:00Z</time></trkpt><trkpt lat="-23.779793" lon="-46.646494"><ele>764.0</ele><time>2017-02-15T14:05:09Z</time></trkpt><trkpt lat="-23.779694" lon="-46.646511"><ele>761.0</ele><time>2017-02-15T14:05:18Z</time></trkpt><trkpt lat="-23.779608" lon="-46.646481"><ele>762.0</ele><time>2017-02-15T14:05:29Z</time></trkpt><trkpt lat="-23.779514" lon="-46.646481"><ele>764.0</ele><time>2017-02-15T14:05:42Z</time></trkpt><trkpt lat="-23.77942" lon="-46.646489"><ele>766.0</ele><time>2017-02-15T14:05:48Z</time></trkpt><trkpt lat="-23.779325" lon="-46.646515"><ele>765.0</ele><time>2017-02-15T14:05:54Z</time></trkpt><trkpt lat="-23.779253" lon="-46.646576"><ele>764.0</ele><time>2017-02-15T14:06:01Z</time></trkpt><trkpt lat="-23.779163" lon="-46.646573"><ele>766.0</ele><time>2017-02-15T14:06:10Z</time></trkpt><trkpt lat="-23.779062" lon="-46.646576"><ele>765.0</ele><time>2017-02-15T14:06:18Z</time></trkpt><trkpt lat="-23.778965" lon="-46.646567"><ele>767.0</ele><time>2017-02-15T14:06:27Z</time></trkpt><trkpt lat="-23.778868" lon="-46.646557"><ele>767.0</ele><time>2017-02-15T14:06:36Z</time></trkpt><trkpt lat="-23.778777" lon="-46.646597"><ele>767.0</ele><time>2017-02-15T14:06:44Z</time></trkpt><trkpt lat="-23.778684" lon="-46.646633"><ele>766.0</ele><time>2017-02-15T14:06:52Z</time></trkpt><trkpt lat="-23.778588" lon="-46.646657"><ele>766.0</ele><time>2017-02-15T14:07:02Z</time></trkpt><trkpt lat="-23.778501" lon="-46.646701"><ele>767.0</ele><time>2017-02-15T14:07:11Z</time></trkpt><trkpt lat="-23.778417" lon="-46.646761"><ele>769.0</ele><time>2017-02-15T14:07:19Z</time></trkpt><trkpt lat="-23.778341" lon="-46.646816"><ele>772.0</ele><time>2017-02-15T14:07:28Z</time></trkpt><trkpt lat="-23.778247" lon="-46.646847"><ele>772.0</ele><time>2017-02-15T14:07:37Z</time></trkpt><trkpt lat="-23.778172" lon="-46.646904"><ele>764.0</ele><time>2017-02-15T14:07:44Z</time></trkpt><trkpt lat="-23.778096" lon="-46.64697"><ele>760.0</ele><time>2017-02-15T14:07:52Z</time></trkpt><trkpt lat="-23.778024" lon="-46.647032"><ele>759.0</ele><time>2017-02-15T14:08:01Z</time></trkpt><trkpt lat="-23.777944" lon="-46.647087"><ele>760.0</ele><time>2017-02-15T14:08:10Z</time></trkpt><trkpt lat="-23.777847" lon="-46.647111"><ele>760.0</ele><time>2017-02-15T14:08:18Z</time></trkpt><trkpt lat="-23.777758" lon="-46.647159"><ele>761.0</ele><time>2017-02-15T14:08:27Z</time></trkpt><trkpt lat="-23.777676" lon="-46.647199"><ele>761.0</ele><time>2017-02-15T14:08:35Z</time></trkpt><trkpt lat="-23.777587" lon="-46.647221"><ele>762.0</ele><time>2017-02-15T14:08:43Z</time></trkpt><trkpt lat="-23.777491" lon="-46.647224"><ele>760.0</ele><time>2017-02-15T14:08:53Z</time></trkpt><trkpt lat="-23.777396" lon="-46.647216"><ele>761.0</ele><time>2017-02-15T14:09:01Z</time></trkpt><trkpt lat="-23.777302" lon="-46.647211"><ele>764.0</ele><time>2017-02-15T14:09:08Z</time></trkpt><trkpt lat="-23.777192" lon="-46.647196"><ele>762.0</ele><time>2017-02-15T14:09:16Z</time></trkpt><trkpt lat="-23.777098" lon="-46.647171"><ele>762.0</ele><time>2017-02-15T14:09:24Z</time></trkpt><trkpt lat="-23.777005" lon="-46.647148"><ele>761.0</ele><time>2017-02-15T14:09:32Z</time></trkpt><trkpt lat="-23.776913" lon="-46.64712"><ele>763.0</ele><time>2017-02-15T14:09:40Z</time></trkpt><trkpt lat="-23.776825" lon="-46.64709"><ele>765.0</ele><time>2017-02-15T14:09:48Z</time></trkpt><trkpt lat="-23.776728" lon="-46.647069"><ele>765.0</ele><time>2017-02-15T14:09:57Z</time></trkpt><trkpt lat="-23.776631" lon="-46.647049"><ele>762.0</ele><time>2017-02-15T14:10:05Z</time></trkpt><trkpt lat="-23.776533" lon="-46.647034"><ele>763.0</ele><time>2017-02-15T14:10:13Z</time></trkpt><trkpt lat="-23.776442" lon="-46.647009"><ele>764.0</ele><time>2017-02-15T14:10:21Z</time></trkpt><trkpt lat="-23.776343" lon="-46.646988"><ele>761.0</ele><time>2017-02-15T14:10:29Z</time></trkpt><trkpt lat="-23.776245" lon="-46.646969"><ele>759.0</ele><time>2017-02-15T14:10:38Z</time></trkpt><trkpt lat="-23.776154" lon="-46.64694"><ele>758.0</ele><time>2017-02-15T14:10:46Z</time></trkpt><trkpt lat="-23.776065" lon="-46.646895"><ele>758.0</ele><time>2017-02-15T14:10:54Z</time></trkpt><trkpt lat="-23.775984" lon="-46.646847"><ele>758.0</ele><time>2017-02-15T14:11:02Z</time></trkpt><trkpt lat="-23.775903" lon="-46.646802"><ele>757.0</ele><time>2017-02-15T14:11:10Z</time></trkpt><trkpt lat="-23.775819" lon="-46.646765"><ele>757.0</ele><time>2017-02-15T14:11:18Z</time></trkpt><trkpt lat="-23.775729" lon="-46.646722"><ele>755.0</ele><time>2017-02-15T14:11:26Z</time></trkpt><trkpt lat="-23.775652" lon="-46.646669"><ele>754.0</ele><time>2017-02-15T14:11:44Z</time></trkpt><trkpt lat="-23.775561" lon="-46.64663"><ele>754.0</ele><time>2017-02-15T14:11:54Z</time></trkpt><trkpt lat="-23.775457" lon="-46.646596"><ele>755.0</ele><time>2017-02-15T14:12:04Z</time></trkpt><trkpt lat="-23.775366" lon="-46.646577"><ele>756.0</ele><time>2017-02-15T14:12:13Z</time></trkpt><trkpt lat="-23.775269" lon="-46.646556"><ele>757.0</ele><time>2017-02-15T14:12:22Z</time></trkpt><trkpt lat="-23.775176" lon="-46.646517"><ele>757.0</ele><time>2017-02-15T14:12:31Z</time></trkpt><trkpt lat="-23.775082" lon="-46.646486"><ele>756.0</ele><time>2017-02-15T14:12:39Z</time></trkpt><trkpt lat="-23.774991" lon="-46.64645"><ele>758.0</ele><time>2017-02-15T14:12:47Z</time></trkpt><trkpt lat="-23.774909" lon="-46.646405"><ele>758.0</ele><time>2017-02-15T14:12:55Z</time></trkpt><trkpt lat="-23.774821" lon="-46.646355"><ele>757.0</ele><time>2017-02-15T14:13:05Z</time></trkpt><trkpt lat="-23.774727" lon="-46.646333"><ele>762.0</ele><time>2017-02-15T14:13:13Z</time></trkpt><trkpt lat="-23.77463" lon="-46.646309"><ele>762.0</ele><time>2017-02-15T14:13:21Z</time></trkpt><trkpt lat="-23.774545" lon="-46.646257"><ele>764.0</ele><time>2017-02-15T14:13:30Z</time></trkpt><trkpt lat="-23.774469" lon="-46.646189"><ele>763.0</ele><time>2017-02-15T14:13:38Z</time></trkpt><trkpt lat="-23.774379" lon="-46.646155"><ele>765.0</ele><time>2017-02-15T14:13:47Z</time></trkpt><trkpt lat="-23.774286" lon="-46.646118"><ele>766.0</ele><time>2017-02-15T14:13:57Z</time></trkpt><trkpt lat="-23.774193" lon="-46.646073"><ele>769.0</ele><time>2017-02-15T14:14:07Z</time></trkpt><trkpt lat="-23.774117" lon="-46.646008"><ele>767.0</ele><time>2017-02-15T14:14:16Z</time></trkpt><trkpt lat="-23.774024" lon="-46.645985"><ele>766.0</ele><time>2017-02-15T14:14:24Z</time></trkpt><trkpt lat="-23.773931" lon="-46.645984"><ele>763.0</ele><time>2017-02-15T14:14:32Z</time></trkpt><trkpt lat="-23.773836" lon="-46.646003"><ele>761.0</ele><time>2017-02-15T14:14:40Z</time></trkpt><trkpt lat="-23.773751" lon="-46.646057"><ele>764.0</ele><time>2017-02-15T14:14:48Z</time></trkpt><trkpt lat="-23.773673" lon="-46.646121"><ele>766.0</ele><time>2017-02-15T14:14:56Z</time></trkpt><trkpt lat="-23.773592" lon="-46.646178"><ele>769.0</ele><time>2017-02-15T14:15:05Z</time></trkpt><trkpt lat="-23.773521" lon="-46.646258"><ele>767.0</ele><time>2017-02-15T14:15:14Z</time></trkpt><trkpt lat="-23.77348" lon="-46.646351"><ele>768.0</ele><time>2017-02-15T14:15:22Z</time></trkpt><trkpt lat="-23.773421" lon="-46.646438"><ele>766.0</ele><time>2017-02-15T14:15:31Z</time></trkpt><trkpt lat="-23.773378" lon="-46.646525"><ele>765.0</ele><time>2017-02-15T14:15:39Z</time></trkpt><trkpt lat="-23.773335" lon="-46.646614"><ele>763.0</ele><time>2017-02-15T14:15:47Z</time></trkpt><trkpt lat="-23.773274" lon="-46.646692"><ele>763.0</ele><time>2017-02-15T14:15:56Z</time></trkpt><trkpt lat="-23.773218" lon="-46.64678"><ele>759.0</ele><time>2017-02-15T14:16:05Z</time></trkpt><trkpt lat="-23.773163" lon="-46.64687"><ele>761.0</ele><time>2017-02-15T14:16:13Z</time></trkpt><trkpt lat="-23.773117" lon="-46.646967"><ele>761.0</ele><time>2017-02-15T14:16:21Z</time></trkpt><trkpt lat="-23.773084" lon="-46.647066"><ele>759.0</ele><time>2017-02-15T14:16:30Z</time></trkpt><trkpt lat="-23.773029" lon="-46.647157"><ele>761.0</ele><time>2017-02-15T14:16:38Z</time></trkpt><trkpt lat="-23.772977" lon="-46.647249"><ele>762.0</ele><time>2017-02-15T14:16:46Z</time></trkpt><trkpt lat="-23.772933" lon="-46.647342"><ele>764.0</ele><time>2017-02-15T14:16:55Z</time></trkpt><trkpt lat="-23.77286" lon="-46.647414"><ele>764.0</ele><time>2017-02-15T14:17:03Z</time></trkpt><trkpt lat="-23.772815" lon="-46.647505"><ele>765.0</ele><time>2017-02-15T14:17:12Z</time></trkpt><trkpt lat="-23.772771" lon="-46.647604"><ele>767.0</ele><time>2017-02-15T14:17:22Z</time></trkpt><trkpt lat="-23.772691" lon="-46.647668"><ele>763.0</ele><time>2017-02-15T14:17:31Z</time></trkpt><trkpt lat="-23.772631" lon="-46.647743"><ele>766.0</ele><time>2017-02-15T14:17:55Z</time></trkpt><trkpt lat="-23.772619" lon="-46.647841"><ele>767.0</ele><time>2017-02-15T14:18:02Z</time></trkpt><trkpt lat="-23.772578" lon="-46.647939"><ele>768.0</ele><time>2017-02-15T14:18:10Z</time></trkpt><trkpt lat="-23.772519" lon="-46.648022"><ele>765.0</ele><time>2017-02-15T14:18:18Z</time></trkpt><trkpt lat="-23.772461" lon="-46.648098"><ele>764.0</ele><time>2017-02-15T14:18:25Z</time></trkpt><trkpt lat="-23.772394" lon="-46.648179"><ele>762.0</ele><time>2017-02-15T14:18:33Z</time></trkpt><trkpt lat="-23.772336" lon="-46.648261"><ele>765.0</ele><time>2017-02-15T14:18:40Z</time></trkpt><trkpt lat="-23.77229" lon="-46.648348"><ele>765.0</ele><time>2017-02-15T14:18:48Z</time></trkpt><trkpt lat="-23.772253" lon="-46.648448"><ele>767.0</ele><time>2017-02-15T14:18:56Z</time></trkpt><trkpt lat="-23.772206" lon="-46.648543"><ele>767.0</ele><time>2017-02-15T14:19:04Z</time></trkpt><trkpt lat="-23.772142" lon="-46.648626"><ele>766.0</ele><time>2017-02-15T14:19:12Z</time></trkpt><trkpt lat="-23.772077" lon="-46.648704"><ele>766.0</ele><time>2017-02-15T14:19:19Z</time></trkpt><trkpt lat="-23.772026" lon="-46.648791"><ele>765.0</ele><time>2017-02-15T14:19:28Z</time></trkpt><trkpt lat="-23.771967" lon="-46.64888"><ele>764.0</ele><time>2017-02-15T14:19:37Z</time></trkpt><trkpt lat="-23.771937" lon="-46.648987"><ele>763.0</ele><time>2017-02-15T14:19:46Z</time></trkpt><trkpt lat="-23.771895" lon="-46.649078"><ele>764.0</ele><time>2017-02-15T14:19:53Z</time></trkpt><trkpt lat="-23.771844" lon="-46.649179"><ele>763.0</ele><time>2017-02-15T14:20:00Z</time></trkpt><trkpt lat="-23.771812" lon="-46.649273"><ele>764.0</ele><time>2017-02-15T14:20:09Z</time></trkpt><trkpt lat="-23.771748" lon="-46.649349"><ele>762.0</ele><time>2017-02-15T14:20:16Z</time></trkpt><trkpt lat="-23.771673" lon="-46.649412"><ele>761.0</ele><time>2017-02-15T14:20:24Z</time></trkpt><trkpt lat="-23.771585" lon="-46.649453"><ele>762.0</ele><time>2017-02-15T14:20:58Z</time></trkpt><trkpt lat="-23.771488" lon="-46.649448"><ele>762.0</ele><time>2017-02-15T14:21:04Z</time></trkpt><trkpt lat="-23.771389" lon="-46.649441"><ele>763.0</ele><time>2017-02-15T14:21:09Z</time></trkpt><trkpt lat="-23.77129" lon="-46.649421"><ele>763.0</ele><time>2017-02-15T14:21:17Z</time></trkpt><trkpt lat="-23.771205" lon="-46.649386"><ele>763.0</ele><time>2017-02-15T14:21:23Z</time></trkpt><trkpt lat="-23.771117" lon="-46.64935"><ele>765.0</ele><time>2017-02-15T14:21:31Z</time></trkpt><trkpt lat="-23.771022" lon="-46.64932"><ele>766.0</ele><time>2017-02-15T14:21:39Z</time></trkpt><trkpt lat="-23.770926" lon="-46.6493"><ele>764.0</ele><time>2017-02-15T14:21:47Z</time></trkpt><trkpt lat="-23.770846" lon="-46.649249"><ele>766.0</ele><time>2017-02-15T14:21:56Z</time></trkpt><trkpt lat="-23.770778" lon="-46.649182"><ele>767.0</ele><time>2017-02-15T14:22:05Z</time></trkpt><trkpt lat="-23.770681" lon="-46.649173"><ele>766.0</ele><time>2017-02-15T14:22:13Z</time></trkpt><trkpt lat="-23.77061" lon="-46.649112"><ele>767.0</ele><time>2017-02-15T14:22:20Z</time></trkpt><trkpt lat="-23.770516" lon="-46.649082"><ele>764.0</ele><time>2017-02-15T14:22:31Z</time></trkpt><trkpt lat="-23.770427" lon="-46.649062"><ele>767.0</ele><time>2017-02-15T14:22:38Z</time></trkpt><trkpt lat="-23.770341" lon="-46.649021"><ele>768.0</ele><time>2017-02-15T14:22:45Z</time></trkpt><trkpt lat="-23.77025" lon="-46.648984"><ele>768.0</ele><time>2017-02-15T14:22:51Z</time></trkpt><trkpt lat="-23.770152" lon="-46.648998"><ele>767.0</ele><time>2017-02-15T14:23:00Z</time></trkpt><trkpt lat="-23.770063" lon="-46.64896"><ele>768.0</ele><time>2017-02-15T14:23:15Z</time></trkpt><trkpt lat="-23.769973" lon="-46.64893"><ele>767.0</ele><time>2017-02-15T14:23:21Z</time></trkpt><trkpt lat="-23.769874" lon="-46.648925"><ele>764.0</ele><time>2017-02-15T14:23:28Z</time></trkpt><trkpt lat="-23.769776" lon="-46.648905"><ele>764.0</ele><time>2017-02-15T14:23:36Z</time></trkpt><trkpt lat="-23.769676" lon="-46.648931"><ele>765.0</ele><time>2017-02-15T14:23:44Z</time></trkpt><trkpt lat="-23.769592" lon="-46.648979"><ele>766.0</ele><time>2017-02-15T14:23:54Z</time></trkpt><trkpt lat="-23.769502" lon="-46.648983"><ele>764.0</ele><time>2017-02-15T14:24:44Z</time></trkpt><trkpt lat="-23.76941" lon="-46.649012"><ele>761.0</ele><time>2017-02-15T14:24:49Z</time></trkpt><trkpt lat="-23.769331" lon="-46.649066"><ele>764.0</ele><time>2017-02-15T14:24:57Z</time></trkpt><trkpt lat="-23.769298" lon="-46.64916"><ele>764.0</ele><time>2017-02-15T14:25:04Z</time></trkpt><trkpt lat="-23.769236" lon="-46.649238"><ele>766.0</ele><time>2017-02-15T14:25:13Z</time></trkpt><trkpt lat="-23.769166" lon="-46.649307"><ele>765.0</ele><time>2017-02-15T14:25:25Z</time></trkpt><trkpt lat="-23.769088" lon="-46.64937"><ele>768.0</ele><time>2017-02-15T14:25:35Z</time></trkpt><trkpt lat="-23.769008" lon="-46.649434"><ele>766.0</ele><time>2017-02-15T14:25:44Z</time></trkpt><trkpt lat="-23.768933" lon="-46.649493"><ele>766.0</ele><time>2017-02-15T14:25:54Z</time></trkpt><trkpt lat="-23.768858" lon="-46.64956"><ele>765.0</ele><time>2017-02-15T14:26:02Z</time></trkpt><trkpt lat="-23.768794" lon="-46.649632"><ele>763.0</ele><time>2017-02-15T14:26:09Z</time></trkpt><trkpt lat="-23.768706" lon="-46.649665"><ele>760.0</ele><time>2017-02-15T14:26:18Z</time></trkpt><trkpt lat="-23.768612" lon="-46.649691"><ele>762.0</ele><time>2017-02-15T14:26:27Z</time></trkpt><trkpt lat="-23.768538" lon="-46.649755"><ele>762.0</ele><time>2017-02-15T14:26:38Z</time></trkpt><trkpt lat="-23.768473" lon="-46.64983"><ele>763.0</ele><time>2017-02-15T14:26:47Z</time></trkpt><trkpt lat="-23.768398" lon="-46.649898"><ele>762.0</ele><time>2017-02-15T14:27:18Z</time></trkpt><trkpt lat="-23.768308" lon="-46.649949"><ele>762.0</ele><time>2017-02-15T14:27:26Z</time></trkpt><trkpt lat="-23.768244" lon="-46.65002"><ele>761.0</ele><time>2017-02-15T14:27:34Z</time></trkpt><trkpt lat="-23.768165" lon="-46.650079"><ele>763.0</ele><time>2017-02-15T14:27:43Z</time></trkpt><trkpt lat="-23.768093" lon="-46.650145"><ele>762.0</ele><time>2017-02-15T14:27:53Z</time></trkpt><trkpt lat="-23.768011" lon="-46.650193"><ele>758.0</ele><time>2017-02-15T14:28:04Z</time></trkpt><trkpt lat="-23.767937" lon="-46.650257"><ele>759.0</ele><time>2017-02-15T14:28:13Z</time></trkpt><trkpt lat="-23.767856" lon="-46.650317"><ele>760.0</ele><time>2017-02-15T14:28:22Z</time></trkpt><trkpt lat="-23.767783" lon="-46.650379"><ele>762.0</ele><time>2017-02-15T14:28:30Z</time></trkpt><trkpt lat="-23.767706" lon="-46.650433"><ele>758.0</ele><time>2017-02-15T14:28:40Z</time></trkpt><trkpt lat="-23.767622" lon="-46.650476"><ele>757.0</ele><time>2017-02-15T14:28:49Z</time></trkpt><trkpt lat="-23.767528" lon="-46.650469"><ele>751.0</ele><time>2017-02-15T14:29:16Z</time></trkpt><trkpt lat="-23.767437" lon="-46.650451"><ele>748.0</ele><time>2017-02-15T14:29:28Z</time></trkpt></trkseg></trk><trk><name><![CDATA[Ilha do Bororé - Pedreira]]></name><trkseg><trkpt lat="-23.755307" lon="-46.6803"><ele>880.0</ele><time>2017-02-16T08:10:53Z</time></trkpt><trkpt lat="-23.755227" lon="-46.680397"><ele>879.0</ele><time>2017-02-16T08:10:55Z</time></trkpt><trkpt lat="-23.75543" lon="-46.680419"><ele>789.0</ele><time>2017-02-16T08:10:58Z</time></trkpt><trkpt lat="-23.75564" lon="-46.680496"><ele>682.0</ele><time>2017-02-16T08:10:59Z</time></trkpt><trkpt lat="-23.755545" lon="-46.680522"><ele>680.0</ele><time>2017-02-16T08:11:03Z</time></trkpt><trkpt lat="-23.755489" lon="-46.680418"><ele>682.0</ele><time>2017-02-16T08:11:04Z</time></trkpt><trkpt lat="-23.755567" lon="-46.680469"><ele>699.0</ele><time>2017-02-16T08:11:16Z</time></trkpt><trkpt lat="-23.755621" lon="-46.680553"><ele>712.0</ele><time>2017-02-16T08:11:24Z</time></trkpt><trkpt lat="-23.755679" lon="-46.680629"><ele>722.0</ele><time>2017-02-16T08:11:31Z</time></trkpt><trkpt lat="-23.755736" lon="-46.680706"><ele>732.0</ele><time>2017-02-16T08:11:38Z</time></trkpt><trkpt lat="-23.755815" lon="-46.680778"><ele>743.0</ele><time>2017-02-16T08:11:45Z</time></trkpt><trkpt lat="-23.755878" lon="-46.680849"><ele>753.0</ele><time>2017-02-16T08:11:52Z</time></trkpt><trkpt lat="-23.755939" lon="-46.680923"><ele>762.0</ele><time>2017-02-16T08:12:01Z</time></trkpt><trkpt lat="-23.75602" lon="-46.680977"><ele>784.0</ele><time>2017-02-16T08:12:23Z</time></trkpt><trkpt lat="-23.755936" lon="-46.680938"><ele>798.0</ele><time>2017-02-16T08:13:48Z</time></trkpt><trkpt lat="-23.755854" lon="-46.680988"><ele>788.0</ele><time>2017-02-16T08:14:53Z</time></trkpt><trkpt lat="-23.755767" lon="-46.681021"><ele>796.0</ele><time>2017-02-16T08:15:03Z</time></trkpt><trkpt lat="-23.755686" lon="-46.68108"><ele>795.0</ele><time>2017-02-16T08:15:08Z</time></trkpt><trkpt lat="-23.755603" lon="-46.681146"><ele>792.0</ele><time>2017-02-16T08:15:14Z</time></trkpt><trkpt lat="-23.755546" lon="-46.681237"><ele>795.0</ele><time>2017-02-16T08:15:22Z</time></trkpt><trkpt lat="-23.755478" lon="-46.681316"><ele>796.0</ele><time>2017-02-16T08:15:32Z</time></trkpt><trkpt lat="-23.755427" lon="-46.681409"><ele>794.0</ele><time>2017-02-16T08:15:41Z</time></trkpt><trkpt lat="-23.755381" lon="-46.681503"><ele>799.0</ele><time>2017-02-16T08:15:50Z</time></trkpt><trkpt lat="-23.755291" lon="-46.681545"><ele>781.0</ele><time>2017-02-16T08:16:21Z</time></trkpt><trkpt lat="-23.755197" lon="-46.681538"><ele>788.0</ele><time>2017-02-16T08:16:36Z</time></trkpt><trkpt lat="-23.755125" lon="-46.681473"><ele>786.0</ele><time>2017-02-16T08:16:48Z</time></trkpt><trkpt lat="-23.755097" lon="-46.681378"><ele>795.0</ele><time>2017-02-16T08:16:58Z</time></trkpt><trkpt lat="-23.755026" lon="-46.6813"><ele>794.0</ele><time>2017-02-16T08:17:07Z</time></trkpt><trkpt lat="-23.754941" lon="-46.681236"><ele>793.0</ele><time>2017-02-16T08:17:14Z</time></trkpt><trkpt lat="-23.754869" lon="-46.681167"><ele>793.0</ele><time>2017-02-16T08:17:21Z</time></trkpt><trkpt lat="-23.754796" lon="-46.681099"><ele>791.0</ele><time>2017-02-16T08:17:28Z</time></trkpt><trkpt lat="-23.754728" lon="-46.681024"><ele>790.0</ele><time>2017-02-16T08:17:37Z</time></trkpt><trkpt lat="-23.754637" lon="-46.681071"><ele>793.0</ele><time>2017-02-16T08:17:46Z</time></trkpt><trkpt lat="-23.754545" lon="-46.681095"><ele>793.0</ele><time>2017-02-16T08:17:53Z</time></trkpt><trkpt lat="-23.754604" lon="-46.68102"><ele>792.0</ele><time>2017-02-16T08:17:58Z</time></trkpt><trkpt lat="-23.754615" lon="-46.681122"><ele>790.0</ele><time>2017-02-16T08:18:03Z</time></trkpt><trkpt lat="-23.754575" lon="-46.681237"><ele>791.0</ele><time>2017-02-16T08:18:09Z</time></trkpt><trkpt lat="-23.754515" lon="-46.68131"><ele>787.0</ele><time>2017-02-16T08:18:14Z</time></trkpt><trkpt lat="-23.754448" lon="-46.681379"><ele>784.0</ele><time>2017-02-16T08:18:19Z</time></trkpt><trkpt lat="-23.754351" lon="-46.681363"><ele>778.0</ele><time>2017-02-16T08:18:25Z</time></trkpt><trkpt lat="-23.754288" lon="-46.68128"><ele>775.0</ele><time>2017-02-16T08:18:31Z</time></trkpt><trkpt lat="-23.754227" lon="-46.681196"><ele>779.0</ele><time>2017-02-16T08:18:41Z</time></trkpt><trkpt lat="-23.754248" lon="-46.681293"><ele>778.0</ele><time>2017-02-16T08:18:59Z</time></trkpt><trkpt lat="-23.754266" lon="-46.681399"><ele>778.0</ele><time>2017-02-16T08:19:08Z</time></trkpt><trkpt lat="-23.754233" lon="-46.681494"><ele>780.0</ele><time>2017-02-16T08:19:15Z</time></trkpt><trkpt lat="-23.754152" lon="-46.681561"><ele>777.0</ele><time>2017-02-16T08:19:23Z</time></trkpt><trkpt lat="-23.754123" lon="-46.681662"><ele>775.0</ele><time>2017-02-16T08:19:31Z</time></trkpt><trkpt lat="-23.754042" lon="-46.681724"><ele>771.0</ele><time>2017-02-16T08:19:37Z</time></trkpt><trkpt lat="-23.754031" lon="-46.681825"><ele>777.0</ele><time>2017-02-16T08:19:44Z</time></trkpt><trkpt lat="-23.753944" lon="-46.681878"><ele>781.0</ele><time>2017-02-16T08:19:52Z</time></trkpt><trkpt lat="-23.753862" lon="-46.681924"><ele>779.0</ele><time>2017-02-16T08:19:59Z</time></trkpt><trkpt lat="-23.753818" lon="-46.68201"><ele>773.0</ele><time>2017-02-16T08:20:06Z</time></trkpt><trkpt lat="-23.753758" lon="-46.682099"><ele>782.0</ele><time>2017-02-16T08:20:14Z</time></trkpt><trkpt lat="-23.753675" lon="-46.682158"><ele>774.0</ele><time>2017-02-16T08:20:23Z</time></trkpt><trkpt lat="-23.753605" lon="-46.682236"><ele>775.0</ele><time>2017-02-16T08:20:30Z</time></trkpt><trkpt lat="-23.753539" lon="-46.682308"><ele>769.0</ele><time>2017-02-16T08:20:37Z</time></trkpt><trkpt lat="-23.753471" lon="-46.682377"><ele>779.0</ele><time>2017-02-16T08:20:44Z</time></trkpt><trkpt lat="-23.753411" lon="-46.682463"><ele>773.0</ele><time>2017-02-16T08:20:51Z</time></trkpt><trkpt lat="-23.753316" lon="-46.682478"><ele>768.0</ele><time>2017-02-16T08:21:02Z</time></trkpt><trkpt lat="-23.753247" lon="-46.682408"><ele>764.0</ele><time>2017-02-16T08:21:11Z</time></trkpt><trkpt lat="-23.753177" lon="-46.682344"><ele>767.0</ele><time>2017-02-16T08:21:19Z</time></trkpt><trkpt lat="-23.753103" lon="-46.682281"><ele>770.0</ele><time>2017-02-16T08:21:26Z</time></trkpt><trkpt lat="-23.753014" lon="-46.682302"><ele>771.0</ele><time>2017-02-16T08:21:44Z</time></trkpt><trkpt lat="-23.753" lon="-46.682404"><ele>770.0</ele><time>2017-02-16T08:21:50Z</time></trkpt><trkpt lat="-23.752974" lon="-46.68251"><ele>767.0</ele><time>2017-02-16T08:21:57Z</time></trkpt><trkpt lat="-23.752948" lon="-46.682614"><ele>768.0</ele><time>2017-02-16T08:22:04Z</time></trkpt><trkpt lat="-23.752871" lon="-46.682666"><ele>764.0</ele><time>2017-02-16T08:22:14Z</time></trkpt><trkpt lat="-23.752806" lon="-46.682748"><ele>762.0</ele><time>2017-02-16T08:22:22Z</time></trkpt><trkpt lat="-23.752736" lon="-46.682827"><ele>755.0</ele><time>2017-02-16T08:22:31Z</time></trkpt><trkpt lat="-23.752704" lon="-46.682922"><ele>752.0</ele><time>2017-02-16T08:22:38Z</time></trkpt><trkpt lat="-23.75266" lon="-46.683021"><ele>756.0</ele><time>2017-02-16T08:22:54Z</time></trkpt><trkpt lat="-23.752618" lon="-46.683113"><ele>752.0</ele><time>2017-02-16T08:23:08Z</time></trkpt><trkpt lat="-23.752625" lon="-46.683215"><ele>751.0</ele><time>2017-02-16T08:23:15Z</time></trkpt><trkpt lat="-23.752636" lon="-46.683313"><ele>747.0</ele><time>2017-02-16T08:23:22Z</time></trkpt><trkpt lat="-23.752665" lon="-46.683424"><ele>751.0</ele><time>2017-02-16T08:23:28Z</time></trkpt><trkpt lat="-23.752711" lon="-46.683519"><ele>754.0</ele><time>2017-02-16T08:23:35Z</time></trkpt><trkpt lat="-23.752743" lon="-46.683626"><ele>754.0</ele><time>2017-02-16T08:23:42Z</time></trkpt><trkpt lat="-23.752791" lon="-46.683725"><ele>758.0</ele><time>2017-02-16T08:23:49Z</time></trkpt><trkpt lat="-23.752828" lon="-46.683839"><ele>755.0</ele><time>2017-02-16T08:24:22Z</time></trkpt><trkpt lat="-23.752855" lon="-46.683933"><ele>755.0</ele><time>2017-02-16T08:24:33Z</time></trkpt><trkpt lat="-23.752862" lon="-46.684043"><ele>762.0</ele><time>2017-02-16T08:26:03Z</time></trkpt><trkpt lat="-23.75287" lon="-46.684142"><ele>760.0</ele><time>2017-02-16T08:26:11Z</time></trkpt><trkpt lat="-23.752873" lon="-46.684247"><ele>758.0</ele><time>2017-02-16T08:26:19Z</time></trkpt><trkpt lat="-23.752937" lon="-46.684321"><ele>756.0</ele><time>2017-02-16T08:26:26Z</time></trkpt><trkpt lat="-23.752936" lon="-46.684434"><ele>754.0</ele><time>2017-02-16T08:26:34Z</time></trkpt><trkpt lat="-23.752988" lon="-46.684519"><ele>755.0</ele><time>2017-02-16T08:26:41Z</time></trkpt><trkpt lat="-23.753032" lon="-46.684605"><ele>756.0</ele><time>2017-02-16T08:26:47Z</time></trkpt><trkpt lat="-23.753092" lon="-46.684699"><ele>759.0</ele><time>2017-02-16T08:26:53Z</time></trkpt><trkpt lat="-23.75312" lon="-46.684799"><ele>764.0</ele><time>2017-02-16T08:27:03Z</time></trkpt><trkpt lat="-23.753072" lon="-46.684893"><ele>762.0</ele><time>2017-02-16T08:27:16Z</time></trkpt><trkpt lat="-23.753102" lon="-46.685005"><ele>760.0</ele><time>2017-02-16T08:27:24Z</time></trkpt><trkpt lat="-23.7531" lon="-46.685107"><ele>759.0</ele><time>2017-02-16T08:27:32Z</time></trkpt><trkpt lat="-23.753131" lon="-46.685205"><ele>761.0</ele><time>2017-02-16T08:27:38Z</time></trkpt><trkpt lat="-23.753194" lon="-46.685287"><ele>757.0</ele><time>2017-02-16T08:27:43Z</time></trkpt><trkpt lat="-23.753236" lon="-46.685383"><ele>760.0</ele><time>2017-02-16T08:27:50Z</time></trkpt><trkpt lat="-23.753252" lon="-46.685487"><ele>759.0</ele><time>2017-02-16T08:27:59Z</time></trkpt><trkpt lat="-23.753301" lon="-46.68557"><ele>758.0</ele><time>2017-02-16T08:28:05Z</time></trkpt><trkpt lat="-23.753353" lon="-46.685658"><ele>754.0</ele><time>2017-02-16T08:28:12Z</time></trkpt><trkpt lat="-23.753453" lon="-46.685682"><ele>749.0</ele><time>2017-02-16T08:28:19Z</time></trkpt><trkpt lat="-23.753547" lon="-46.68572"><ele>734.0</ele><time>2017-02-16T08:28:32Z</time></trkpt><trkpt lat="-23.753549" lon="-46.68582"><ele>730.0</ele><time>2017-02-16T08:28:38Z</time></trkpt><trkpt lat="-23.753517" lon="-46.685915"><ele>738.0</ele><time>2017-02-16T08:28:43Z</time></trkpt><trkpt lat="-23.753511" lon="-46.686024"><ele>740.0</ele><time>2017-02-16T08:28:49Z</time></trkpt><trkpt lat="-23.753492" lon="-46.686126"><ele>743.0</ele><time>2017-02-16T08:28:57Z</time></trkpt><trkpt lat="-23.75352" lon="-46.686233"><ele>742.0</ele><time>2017-02-16T08:29:05Z</time></trkpt><trkpt lat="-23.753563" lon="-46.686327"><ele>741.0</ele><time>2017-02-16T08:29:12Z</time></trkpt><trkpt lat="-23.753616" lon="-46.686412"><ele>740.0</ele><time>2017-02-16T08:29:20Z</time></trkpt><trkpt lat="-23.753633" lon="-46.686517"><ele>743.0</ele><time>2017-02-16T08:29:27Z</time></trkpt><trkpt lat="-23.753637" lon="-46.686625"><ele>742.0</ele><time>2017-02-16T08:29:39Z</time></trkpt><trkpt lat="-23.753694" lon="-46.686719"><ele>749.0</ele><time>2017-02-16T08:29:43Z</time></trkpt><trkpt lat="-23.753754" lon="-46.686813"><ele>752.0</ele><time>2017-02-16T08:30:06Z</time></trkpt><trkpt lat="-23.753787" lon="-46.686909"><ele>744.0</ele><time>2017-02-16T08:30:13Z</time></trkpt><trkpt lat="-23.75371" lon="-46.686977"><ele>739.0</ele><time>2017-02-16T08:30:50Z</time></trkpt><trkpt lat="-23.753727" lon="-46.687078"><ele>735.0</ele><time>2017-02-16T08:30:57Z</time></trkpt><trkpt lat="-23.753757" lon="-46.687183"><ele>732.0</ele><time>2017-02-16T08:31:05Z</time></trkpt><trkpt lat="-23.753749" lon="-46.687293"><ele>748.0</ele><time>2017-02-16T08:31:12Z</time></trkpt><trkpt lat="-23.753715" lon="-46.687395"><ele>756.0</ele><time>2017-02-16T08:31:17Z</time></trkpt><trkpt lat="-23.753677" lon="-46.68749"><ele>756.0</ele><time>2017-02-16T08:31:22Z</time></trkpt><trkpt lat="-23.753649" lon="-46.687588"><ele>753.0</ele><time>2017-02-16T08:31:53Z</time></trkpt><trkpt lat="-23.753604" lon="-46.687679"><ele>756.0</ele><time>2017-02-16T08:32:00Z</time></trkpt><trkpt lat="-23.753538" lon="-46.687763"><ele>762.0</ele><time>2017-02-16T08:32:31Z</time></trkpt><trkpt lat="-23.753483" lon="-46.687858"><ele>761.0</ele><time>2017-02-16T08:32:39Z</time></trkpt><trkpt lat="-23.753415" lon="-46.687938"><ele>763.0</ele><time>2017-02-16T08:32:47Z</time></trkpt><trkpt lat="-23.753355" lon="-46.688011"><ele>763.0</ele><time>2017-02-16T08:32:54Z</time></trkpt><trkpt lat="-23.753308" lon="-46.6881"><ele>763.0</ele><time>2017-02-16T08:33:03Z</time></trkpt><trkpt lat="-23.753251" lon="-46.68818"><ele>762.0</ele><time>2017-02-16T08:33:11Z</time></trkpt><trkpt lat="-23.753192" lon="-46.688267"><ele>762.0</ele><time>2017-02-16T08:33:19Z</time></trkpt><trkpt lat="-23.753162" lon="-46.68837"><ele>761.0</ele><time>2017-02-16T08:33:30Z</time></trkpt><trkpt lat="-23.753105" lon="-46.688452"><ele>762.0</ele><time>2017-02-16T08:33:39Z</time></trkpt><trkpt lat="-23.753056" lon="-46.688537"><ele>759.0</ele><time>2017-02-16T08:34:04Z</time></trkpt><trkpt lat="-23.752963" lon="-46.68853"><ele>761.0</ele><time>2017-02-16T08:36:08Z</time></trkpt><trkpt lat="-23.75288" lon="-46.68858"><ele>766.0</ele><time>2017-02-16T08:36:13Z</time></trkpt><trkpt lat="-23.752789" lon="-46.688595"><ele>777.0</ele><time>2017-02-16T08:36:33Z</time></trkpt><trkpt lat="-23.752732" lon="-46.688514"><ele>779.0</ele><time>2017-02-16T08:36:40Z</time></trkpt><trkpt lat="-23.752633" lon="-46.688494"><ele>777.0</ele><time>2017-02-16T08:36:47Z</time></trkpt><trkpt lat="-23.752532" lon="-46.68846"><ele>776.0</ele><time>2017-02-16T08:36:56Z</time></trkpt><trkpt lat="-23.752446" lon="-46.688418"><ele>770.0</ele><time>2017-02-16T08:37:02Z</time></trkpt><trkpt lat="-23.75236" lon="-46.68838"><ele>771.0</ele><time>2017-02-16T08:37:09Z</time></trkpt><trkpt lat="-23.75227" lon="-46.688339"><ele>765.0</ele><time>2017-02-16T08:37:19Z</time></trkpt><trkpt lat="-23.752176" lon="-46.688317"><ele>764.0</ele><time>2017-02-16T08:37:28Z</time></trkpt><trkpt lat="-23.752106" lon="-46.688249"><ele>761.0</ele><time>2017-02-16T08:37:37Z</time></trkpt><trkpt lat="-23.752012" lon="-46.688234"><ele>763.0</ele><time>2017-02-16T08:37:45Z</time></trkpt><trkpt lat="-23.751915" lon="-46.688263"><ele>766.0</ele><time>2017-02-16T08:37:53Z</time></trkpt><trkpt lat="-23.75182" lon="-46.68825"><ele>765.0</ele><time>2017-02-16T08:38:00Z</time></trkpt><trkpt lat="-23.751737" lon="-46.688199"><ele>769.0</ele><time>2017-02-16T08:38:09Z</time></trkpt><trkpt lat="-23.751653" lon="-46.688158"><ele>762.0</ele><time>2017-02-16T08:38:18Z</time></trkpt><trkpt lat="-23.751552" lon="-46.688157"><ele>755.0</ele><time>2017-02-16T08:38:26Z</time></trkpt><trkpt lat="-23.751461" lon="-46.688158"><ele>760.0</ele><time>2017-02-16T08:38:56Z</time></trkpt><trkpt lat="-23.751364" lon="-46.688129"><ele>757.0</ele><time>2017-02-16T08:39:05Z</time></trkpt><trkpt lat="-23.751262" lon="-46.688125"><ele>756.0</ele><time>2017-02-16T08:39:13Z</time></trkpt><trkpt lat="-23.75116" lon="-46.688134"><ele>764.0</ele><time>2017-02-16T08:39:20Z</time></trkpt><trkpt lat="-23.75106" lon="-46.688146"><ele>760.0</ele><time>2017-02-16T08:39:28Z</time></trkpt><trkpt lat="-23.750966" lon="-46.688149"><ele>760.0</ele><time>2017-02-16T08:39:37Z</time></trkpt><trkpt lat="-23.750864" lon="-46.68814"><ele>756.0</ele><time>2017-02-16T08:39:46Z</time></trkpt><trkpt lat="-23.750765" lon="-46.688138"><ele>762.0</ele><time>2017-02-16T08:39:55Z</time></trkpt><trkpt lat="-23.750677" lon="-46.688106"><ele>758.0</ele><time>2017-02-16T08:40:02Z</time></trkpt><trkpt lat="-23.750588" lon="-46.688095"><ele>760.0</ele><time>2017-02-16T08:40:11Z</time></trkpt><trkpt lat="-23.750492" lon="-46.688068"><ele>758.0</ele><time>2017-02-16T08:40:26Z</time></trkpt><trkpt lat="-23.750393" lon="-46.688075"><ele>758.0</ele><time>2017-02-16T08:40:31Z</time></trkpt><trkpt lat="-23.750309" lon="-46.688028"><ele>754.0</ele><time>2017-02-16T08:40:39Z</time></trkpt><trkpt lat="-23.750215" lon="-46.687981"><ele>757.0</ele><time>2017-02-16T08:40:47Z</time></trkpt><trkpt lat="-23.750122" lon="-46.687947"><ele>760.0</ele><time>2017-02-16T08:40:54Z</time></trkpt><trkpt lat="-23.750104" lon="-46.687835"><ele>761.0</ele><time>2017-02-16T08:41:01Z</time></trkpt><trkpt lat="-23.750104" lon="-46.687835"><ele>761.0</ele><time>2017-02-16T08:41:01Z</time></trkpt><trkpt lat="-23.750048" lon="-46.687743"><ele>763.0</ele><time>2017-02-16T08:41:08Z</time></trkpt><trkpt lat="-23.749997" lon="-46.687659"><ele>762.0</ele><time>2017-02-16T08:41:14Z</time></trkpt><trkpt lat="-23.749914" lon="-46.687603"><ele>761.0</ele><time>2017-02-16T08:41:40Z</time></trkpt><trkpt lat="-23.74984" lon="-46.687539"><ele>759.0</ele><time>2017-02-16T08:41:46Z</time></trkpt><trkpt lat="-23.749769" lon="-46.687465"><ele>757.0</ele><time>2017-02-16T08:41:53Z</time></trkpt><trkpt lat="-23.74969" lon="-46.687408"><ele>760.0</ele><time>2017-02-16T08:42:00Z</time></trkpt><trkpt lat="-23.749615" lon="-46.687343"><ele>761.0</ele><time>2017-02-16T08:42:10Z</time></trkpt><trkpt lat="-23.749521" lon="-46.687332"><ele>759.0</ele><time>2017-02-16T08:42:18Z</time></trkpt><trkpt lat="-23.749424" lon="-46.687352"><ele>755.0</ele><time>2017-02-16T08:43:11Z</time></trkpt><trkpt lat="-23.749331" lon="-46.687361"><ele>759.0</ele><time>2017-02-16T08:43:16Z</time></trkpt><trkpt lat="-23.749237" lon="-46.687359"><ele>759.0</ele><time>2017-02-16T08:43:56Z</time></trkpt><trkpt lat="-23.749137" lon="-46.687365"><ele>770.0</ele><time>2017-02-16T08:44:02Z</time></trkpt><trkpt lat="-23.74904" lon="-46.687399"><ele>773.0</ele><time>2017-02-16T08:44:09Z</time></trkpt><trkpt lat="-23.748937" lon="-46.687423"><ele>778.0</ele><time>2017-02-16T08:44:16Z</time></trkpt><trkpt lat="-23.748847" lon="-46.687439"><ele>780.0</ele><time>2017-02-16T08:44:23Z</time></trkpt><trkpt lat="-23.748749" lon="-46.687453"><ele>775.0</ele><time>2017-02-16T08:44:33Z</time></trkpt><trkpt lat="-23.748655" lon="-46.687428"><ele>773.0</ele><time>2017-02-16T08:44:43Z</time></trkpt><trkpt lat="-23.748564" lon="-46.687444"><ele>777.0</ele><time>2017-02-16T08:44:51Z</time></trkpt><trkpt lat="-23.748472" lon="-46.687451"><ele>781.0</ele><time>2017-02-16T08:44:58Z</time></trkpt><trkpt lat="-23.748381" lon="-46.687466"><ele>773.0</ele><time>2017-02-16T08:45:06Z</time></trkpt><trkpt lat="-23.748288" lon="-46.687474"><ele>778.0</ele><time>2017-02-16T08:45:16Z</time></trkpt><trkpt lat="-23.748198" lon="-46.68751"><ele>781.0</ele><time>2017-02-16T08:45:25Z</time></trkpt><trkpt lat="-23.748107" lon="-46.687522"><ele>788.0</ele><time>2017-02-16T08:45:32Z</time></trkpt><trkpt lat="-23.748013" lon="-46.687517"><ele>783.0</ele><time>2017-02-16T08:45:40Z</time></trkpt><trkpt lat="-23.747922" lon="-46.687541"><ele>783.0</ele><time>2017-02-16T08:45:49Z</time></trkpt><trkpt lat="-23.747839" lon="-46.687589"><ele>781.0</ele><time>2017-02-16T08:45:55Z</time></trkpt><trkpt lat="-23.747742" lon="-46.68761"><ele>778.0</ele><time>2017-02-16T08:46:03Z</time></trkpt><trkpt lat="-23.747646" lon="-46.687603"><ele>775.0</ele><time>2017-02-16T08:46:15Z</time></trkpt><trkpt lat="-23.747553" lon="-46.687594"><ele>779.0</ele><time>2017-02-16T08:46:22Z</time></trkpt><trkpt lat="-23.747462" lon="-46.68761"><ele>780.0</ele><time>2017-02-16T08:46:28Z</time></trkpt><trkpt lat="-23.747367" lon="-46.687598"><ele>776.0</ele><time>2017-02-16T08:46:38Z</time></trkpt><trkpt lat="-23.747283" lon="-46.687645"><ele>777.0</ele><time>2017-02-16T08:46:46Z</time></trkpt><trkpt lat="-23.747191" lon="-46.687644"><ele>771.0</ele><time>2017-02-16T08:46:56Z</time></trkpt><trkpt lat="-23.747101" lon="-46.687633"><ele>769.0</ele><time>2017-02-16T08:47:04Z</time></trkpt><trkpt lat="-23.747014" lon="-46.687685"><ele>772.0</ele><time>2017-02-16T08:47:13Z</time></trkpt><trkpt lat="-23.746923" lon="-46.687697"><ele>772.0</ele><time>2017-02-16T08:51:50Z</time></trkpt><trkpt lat="-23.746853" lon="-46.687763"><ele>781.0</ele><time>2017-02-16T08:59:44Z</time></trkpt><trkpt lat="-23.74677" lon="-46.687826"><ele>776.0</ele><time>2017-02-16T08:59:51Z</time></trkpt><trkpt lat="-23.746684" lon="-46.687874"><ele>780.0</ele><time>2017-02-16T08:59:59Z</time></trkpt><trkpt lat="-23.746601" lon="-46.687942"><ele>776.0</ele><time>2017-02-16T09:00:07Z</time></trkpt><trkpt lat="-23.746533" lon="-46.688026"><ele>782.0</ele><time>2017-02-16T09:00:14Z</time></trkpt><trkpt lat="-23.746451" lon="-46.688083"><ele>779.0</ele><time>2017-02-16T09:00:21Z</time></trkpt><trkpt lat="-23.746383" lon="-46.688154"><ele>776.0</ele><time>2017-02-16T09:00:28Z</time></trkpt><trkpt lat="-23.746302" lon="-46.688225"><ele>778.0</ele><time>2017-02-16T09:00:36Z</time></trkpt><trkpt lat="-23.746236" lon="-46.688303"><ele>780.0</ele><time>2017-02-16T09:00:44Z</time></trkpt><trkpt lat="-23.746164" lon="-46.688379"><ele>780.0</ele><time>2017-02-16T09:00:51Z</time></trkpt><trkpt lat="-23.746067" lon="-46.688419"><ele>778.0</ele><time>2017-02-16T09:01:00Z</time></trkpt><trkpt lat="-23.745993" lon="-46.688476"><ele>777.0</ele><time>2017-02-16T09:01:06Z</time></trkpt><trkpt lat="-23.74594" lon="-46.688559"><ele>779.0</ele><time>2017-02-16T09:01:14Z</time></trkpt><trkpt lat="-23.745885" lon="-46.688642"><ele>783.0</ele><time>2017-02-16T09:01:22Z</time></trkpt><trkpt lat="-23.745813" lon="-46.688715"><ele>784.0</ele><time>2017-02-16T09:01:32Z</time></trkpt><trkpt lat="-23.745747" lon="-46.688798"><ele>782.0</ele><time>2017-02-16T09:01:41Z</time></trkpt><trkpt lat="-23.745705" lon="-46.688887"><ele>781.0</ele><time>2017-02-16T09:01:48Z</time></trkpt><trkpt lat="-23.745684" lon="-46.688994"><ele>787.0</ele><time>2017-02-16T09:01:56Z</time></trkpt><trkpt lat="-23.745656" lon="-46.689096"><ele>786.0</ele><time>2017-02-16T09:02:03Z</time></trkpt><trkpt lat="-23.745591" lon="-46.689168"><ele>787.0</ele><time>2017-02-16T09:02:10Z</time></trkpt><trkpt lat="-23.745512" lon="-46.689118"><ele>785.0</ele><time>2017-02-16T09:03:03Z</time></trkpt><trkpt lat="-23.745485" lon="-46.689215"><ele>785.0</ele><time>2017-02-16T09:03:33Z</time></trkpt><trkpt lat="-23.745391" lon="-46.689238"><ele>787.0</ele><time>2017-02-16T09:03:40Z</time></trkpt><trkpt lat="-23.745315" lon="-46.689306"><ele>787.0</ele><time>2017-02-16T09:03:47Z</time></trkpt><trkpt lat="-23.745234" lon="-46.689358"><ele>791.0</ele><time>2017-02-16T09:03:55Z</time></trkpt><trkpt lat="-23.745192" lon="-46.689447"><ele>789.0</ele><time>2017-02-16T09:04:02Z</time></trkpt><trkpt lat="-23.74517" lon="-46.68955"><ele>784.0</ele><time>2017-02-16T09:04:10Z</time></trkpt><trkpt lat="-23.745134" lon="-46.689653"><ele>786.0</ele><time>2017-02-16T09:04:18Z</time></trkpt><trkpt lat="-23.745038" lon="-46.689698"><ele>792.0</ele><time>2017-02-16T09:04:27Z</time></trkpt><trkpt lat="-23.744947" lon="-46.689724"><ele>799.0</ele><time>2017-02-16T09:04:35Z</time></trkpt><trkpt lat="-23.744928" lon="-46.689831"><ele>797.0</ele><time>2017-02-16T09:04:49Z</time></trkpt><trkpt lat="-23.744869" lon="-46.68991"><ele>796.0</ele><time>2017-02-16T09:04:56Z</time></trkpt><trkpt lat="-23.744809" lon="-46.689986"><ele>800.0</ele><time>2017-02-16T09:05:05Z</time></trkpt><trkpt lat="-23.74475" lon="-46.690075"><ele>801.0</ele><time>2017-02-16T09:05:11Z</time></trkpt><trkpt lat="-23.744657" lon="-46.690108"><ele>805.0</ele><time>2017-02-16T09:05:19Z</time></trkpt><trkpt lat="-23.744605" lon="-46.690201"><ele>805.0</ele><time>2017-02-16T09:05:28Z</time></trkpt><trkpt lat="-23.744567" lon="-46.690315"><ele>804.0</ele><time>2017-02-16T09:05:54Z</time></trkpt><trkpt lat="-23.744494" lon="-46.690377"><ele>803.0</ele><time>2017-02-16T09:06:02Z</time></trkpt><trkpt lat="-23.744424" lon="-46.690453"><ele>803.0</ele><time>2017-02-16T09:06:12Z</time></trkpt><trkpt lat="-23.744334" lon="-46.690506"><ele>801.0</ele><time>2017-02-16T09:06:20Z</time></trkpt><trkpt lat="-23.744274" lon="-46.690584"><ele>803.0</ele><time>2017-02-16T09:06:27Z</time></trkpt><trkpt lat="-23.744212" lon="-46.690665"><ele>803.0</ele><time>2017-02-16T09:06:35Z</time></trkpt><trkpt lat="-23.744122" lon="-46.690715"><ele>802.0</ele><time>2017-02-16T09:06:45Z</time></trkpt><trkpt lat="-23.744081" lon="-46.690806"><ele>801.0</ele><time>2017-02-16T09:06:53Z</time></trkpt><trkpt lat="-23.744078" lon="-46.690928"><ele>800.0</ele><time>2017-02-16T09:06:59Z</time></trkpt><trkpt lat="-23.744033" lon="-46.691013"><ele>797.0</ele><time>2017-02-16T09:07:05Z</time></trkpt><trkpt lat="-23.743938" lon="-46.691001"><ele>803.0</ele><time>2017-02-16T09:07:11Z</time></trkpt><trkpt lat="-23.743866" lon="-46.691061"><ele>802.0</ele><time>2017-02-16T09:07:19Z</time></trkpt><trkpt lat="-23.74378" lon="-46.691114"><ele>807.0</ele><time>2017-02-16T09:07:28Z</time></trkpt><trkpt lat="-23.74369" lon="-46.691126"><ele>806.0</ele><time>2017-02-16T09:07:36Z</time></trkpt><trkpt lat="-23.743639" lon="-46.69121"><ele>810.0</ele><time>2017-02-16T09:07:44Z</time></trkpt><trkpt lat="-23.743589" lon="-46.691311"><ele>810.0</ele><time>2017-02-16T09:07:53Z</time></trkpt><trkpt lat="-23.743565" lon="-46.691407"><ele>806.0</ele><time>2017-02-16T09:08:14Z</time></trkpt><trkpt lat="-23.743467" lon="-46.691429"><ele>812.0</ele><time>2017-02-16T09:08:21Z</time></trkpt><trkpt lat="-23.743375" lon="-46.691449"><ele>810.0</ele><time>2017-02-16T09:08:29Z</time></trkpt><trkpt lat="-23.743309" lon="-46.691531"><ele>809.0</ele><time>2017-02-16T09:08:37Z</time></trkpt><trkpt lat="-23.74325" lon="-46.691609"><ele>814.0</ele><time>2017-02-16T09:08:45Z</time></trkpt><trkpt lat="-23.74316" lon="-46.691581"><ele>819.0</ele><time>2017-02-16T09:08:50Z</time></trkpt><trkpt lat="-23.743064" lon="-46.691601"><ele>818.0</ele><time>2017-02-16T09:08:57Z</time></trkpt><trkpt lat="-23.743001" lon="-46.691682"><ele>819.0</ele><time>2017-02-16T09:09:05Z</time></trkpt><trkpt lat="-23.74294" lon="-46.691763"><ele>817.0</ele><time>2017-02-16T09:09:14Z</time></trkpt><trkpt lat="-23.742868" lon="-46.691824"><ele>812.0</ele><time>2017-02-16T09:09:21Z</time></trkpt><trkpt lat="-23.74277" lon="-46.691806"><ele>817.0</ele><time>2017-02-16T09:09:30Z</time></trkpt><trkpt lat="-23.742677" lon="-46.691828"><ele>815.0</ele><time>2017-02-16T09:09:40Z</time></trkpt><trkpt lat="-23.742584" lon="-46.691831"><ele>821.0</ele><time>2017-02-16T09:09:48Z</time></trkpt><trkpt lat="-23.74249" lon="-46.691864"><ele>822.0</ele><time>2017-02-16T09:09:55Z</time></trkpt><trkpt lat="-23.742397" lon="-46.691874"><ele>823.0</ele><time>2017-02-16T09:10:04Z</time></trkpt><trkpt lat="-23.742301" lon="-46.691854"><ele>829.0</ele><time>2017-02-16T09:10:12Z</time></trkpt><trkpt lat="-23.742212" lon="-46.691817"><ele>809.0</ele><time>2017-02-16T09:10:20Z</time></trkpt><trkpt lat="-23.742125" lon="-46.691784"><ele>822.0</ele><time>2017-02-16T09:10:59Z</time></trkpt><trkpt lat="-23.742035" lon="-46.691774"><ele>819.0</ele><time>2017-02-16T09:11:08Z</time></trkpt><trkpt lat="-23.741952" lon="-46.691817"><ele>820.0</ele><time>2017-02-16T09:15:43Z</time></trkpt><trkpt lat="-23.741857" lon="-46.69179"><ele>819.0</ele><time>2017-02-16T09:15:50Z</time></trkpt><trkpt lat="-23.741762" lon="-46.691767"><ele>817.0</ele><time>2017-02-16T09:15:56Z</time></trkpt><trkpt lat="-23.741685" lon="-46.691708"><ele>814.0</ele><time>2017-02-16T09:16:06Z</time></trkpt><trkpt lat="-23.741588" lon="-46.691689"><ele>821.0</ele><time>2017-02-16T09:16:15Z</time></trkpt><trkpt lat="-23.741523" lon="-46.691613"><ele>813.0</ele><time>2017-02-16T09:16:24Z</time></trkpt><trkpt lat="-23.741441" lon="-46.69157"><ele>810.0</ele><time>2017-02-16T09:16:35Z</time></trkpt><trkpt lat="-23.741335" lon="-46.691554"><ele>811.0</ele><time>2017-02-16T09:16:42Z</time></trkpt><trkpt lat="-23.741247" lon="-46.691517"><ele>806.0</ele><time>2017-02-16T09:16:49Z</time></trkpt><trkpt lat="-23.741164" lon="-46.691475"><ele>804.0</ele><time>2017-02-16T09:16:57Z</time></trkpt><trkpt lat="-23.741065" lon="-46.691439"><ele>807.0</ele><time>2017-02-16T09:17:03Z</time></trkpt><trkpt lat="-23.740973" lon="-46.691406"><ele>804.0</ele><time>2017-02-16T09:17:09Z</time></trkpt><trkpt lat="-23.740873" lon="-46.691398"><ele>804.0</ele><time>2017-02-16T09:17:17Z</time></trkpt><trkpt lat="-23.740782" lon="-46.69138"><ele>799.0</ele><time>2017-02-16T09:17:26Z</time></trkpt><trkpt lat="-23.74068" lon="-46.691365"><ele>801.0</ele><time>2017-02-16T09:17:35Z</time></trkpt><trkpt lat="-23.740583" lon="-46.691374"><ele>805.0</ele><time>2017-02-16T09:17:42Z</time></trkpt><trkpt lat="-23.740487" lon="-46.691382"><ele>803.0</ele><time>2017-02-16T09:17:51Z</time></trkpt><trkpt lat="-23.740389" lon="-46.691382"><ele>804.0</ele><time>2017-02-16T09:17:59Z</time></trkpt><trkpt lat="-23.740302" lon="-46.691407"><ele>801.0</ele><time>2017-02-16T09:18:06Z</time></trkpt><trkpt lat="-23.740201" lon="-46.691418"><ele>803.0</ele><time>2017-02-16T09:18:15Z</time></trkpt><trkpt lat="-23.740099" lon="-46.691425"><ele>800.0</ele><time>2017-02-16T09:18:23Z</time></trkpt><trkpt lat="-23.740004" lon="-46.69143"><ele>800.0</ele><time>2017-02-16T09:18:29Z</time></trkpt><trkpt lat="-23.739899" lon="-46.69144"><ele>799.0</ele><time>2017-02-16T09:18:36Z</time></trkpt><trkpt lat="-23.739807" lon="-46.691472"><ele>798.0</ele><time>2017-02-16T09:18:47Z</time></trkpt><trkpt lat="-23.739709" lon="-46.691468"><ele>795.0</ele><time>2017-02-16T09:18:55Z</time></trkpt><trkpt lat="-23.739616" lon="-46.691483"><ele>793.0</ele><time>2017-02-16T09:19:04Z</time></trkpt><trkpt lat="-23.739524" lon="-46.691499"><ele>795.0</ele><time>2017-02-16T09:19:13Z</time></trkpt><trkpt lat="-23.739428" lon="-46.691488"><ele>789.0</ele><time>2017-02-16T09:20:03Z</time></trkpt><trkpt lat="-23.739325" lon="-46.691503"><ele>786.0</ele><time>2017-02-16T09:20:12Z</time></trkpt><trkpt lat="-23.739246" lon="-46.691556"><ele>788.0</ele><time>2017-02-16T09:20:17Z</time></trkpt><trkpt lat="-23.739146" lon="-46.691585"><ele>786.0</ele><time>2017-02-16T09:20:25Z</time></trkpt><trkpt lat="-23.739047" lon="-46.691604"><ele>788.0</ele><time>2017-02-16T09:20:32Z</time></trkpt><trkpt lat="-23.738955" lon="-46.69162"><ele>789.0</ele><time>2017-02-16T09:20:38Z</time></trkpt><trkpt lat="-23.738869" lon="-46.691664"><ele>790.0</ele><time>2017-02-16T09:20:46Z</time></trkpt><trkpt lat="-23.73878" lon="-46.691719"><ele>788.0</ele><time>2017-02-16T09:20:58Z</time></trkpt><trkpt lat="-23.738695" lon="-46.691757"><ele>787.0</ele><time>2017-02-16T09:21:06Z</time></trkpt><trkpt lat="-23.738605" lon="-46.691799"><ele>787.0</ele><time>2017-02-16T09:21:14Z</time></trkpt><trkpt lat="-23.738522" lon="-46.691838"><ele>784.0</ele><time>2017-02-16T09:21:25Z</time></trkpt><trkpt lat="-23.738429" lon="-46.691902"><ele>782.0</ele><time>2017-02-16T09:21:39Z</time></trkpt><trkpt lat="-23.738348" lon="-46.691975"><ele>781.0</ele><time>2017-02-16T09:21:44Z</time></trkpt><trkpt lat="-23.738279" lon="-46.692053"><ele>779.0</ele><time>2017-02-16T09:21:51Z</time></trkpt><trkpt lat="-23.738205" lon="-46.692131"><ele>778.0</ele><time>2017-02-16T09:21:59Z</time></trkpt><trkpt lat="-23.738143" lon="-46.692216"><ele>778.0</ele><time>2017-02-16T09:22:12Z</time></trkpt><trkpt lat="-23.738079" lon="-46.692288"><ele>778.0</ele><time>2017-02-16T09:22:18Z</time></trkpt><trkpt lat="-23.737992" lon="-46.692355"><ele>778.0</ele><time>2017-02-16T09:22:24Z</time></trkpt><trkpt lat="-23.737935" lon="-46.692445"><ele>782.0</ele><time>2017-02-16T09:22:39Z</time></trkpt><trkpt lat="-23.737857" lon="-46.692511"><ele>775.0</ele><time>2017-02-16T09:22:54Z</time></trkpt><trkpt lat="-23.737771" lon="-46.692576"><ele>776.0</ele><time>2017-02-16T09:23:00Z</time></trkpt><trkpt lat="-23.737691" lon="-46.692645"><ele>774.0</ele><time>2017-02-16T09:23:07Z</time></trkpt><trkpt lat="-23.73764" lon="-46.69273"><ele>778.0</ele><time>2017-02-16T09:23:17Z</time></trkpt><trkpt lat="-23.737578" lon="-46.692804"><ele>775.0</ele><time>2017-02-16T09:23:24Z</time></trkpt><trkpt lat="-23.737504" lon="-46.69287"><ele>773.0</ele><time>2017-02-16T09:23:30Z</time></trkpt><trkpt lat="-23.737437" lon="-46.692947"><ele>771.0</ele><time>2017-02-16T09:23:54Z</time></trkpt><trkpt lat="-23.737357" lon="-46.693018"><ele>765.0</ele><time>2017-02-16T09:24:27Z</time></trkpt><trkpt lat="-23.737295" lon="-46.693093"><ele>763.0</ele><time>2017-02-16T09:24:33Z</time></trkpt><trkpt lat="-23.737233" lon="-46.693181"><ele>761.0</ele><time>2017-02-16T09:24:39Z</time></trkpt><trkpt lat="-23.737171" lon="-46.693276"><ele>762.0</ele><time>2017-02-16T09:24:46Z</time></trkpt><trkpt lat="-23.737108" lon="-46.693348"><ele>765.0</ele><time>2017-02-16T09:24:51Z</time></trkpt><trkpt lat="-23.737041" lon="-46.693414"><ele>765.0</ele><time>2017-02-16T09:24:57Z</time></trkpt><trkpt lat="-23.736977" lon="-46.69349"><ele>767.0</ele><time>2017-02-16T09:25:10Z</time></trkpt><trkpt lat="-23.736913" lon="-46.693573"><ele>774.0</ele><time>2017-02-16T09:25:18Z</time></trkpt><trkpt lat="-23.736851" lon="-46.693655"><ele>768.0</ele><time>2017-02-16T09:25:23Z</time></trkpt><trkpt lat="-23.736767" lon="-46.693701"><ele>760.0</ele><time>2017-02-16T09:25:29Z</time></trkpt><trkpt lat="-23.736687" lon="-46.693752"><ele>758.0</ele><time>2017-02-16T09:25:36Z</time></trkpt><trkpt lat="-23.736637" lon="-46.693848"><ele>761.0</ele><time>2017-02-16T09:25:43Z</time></trkpt><trkpt lat="-23.736588" lon="-46.693938"><ele>760.0</ele><time>2017-02-16T09:25:52Z</time></trkpt><trkpt lat="-23.736507" lon="-46.693994"><ele>761.0</ele><time>2017-02-16T09:25:59Z</time></trkpt><trkpt lat="-23.736416" lon="-46.694068"><ele>761.0</ele><time>2017-02-16T09:26:06Z</time></trkpt><trkpt lat="-23.736351" lon="-46.694146"><ele>763.0</ele><time>2017-02-16T09:26:23Z</time></trkpt><trkpt lat="-23.736294" lon="-46.694223"><ele>760.0</ele><time>2017-02-16T09:26:29Z</time></trkpt><trkpt lat="-23.736214" lon="-46.694293"><ele>757.0</ele><time>2017-02-16T09:26:36Z</time></trkpt><trkpt lat="-23.736149" lon="-46.694365"><ele>758.0</ele><time>2017-02-16T09:26:42Z</time></trkpt><trkpt lat="-23.736068" lon="-46.694431"><ele>756.0</ele><time>2017-02-16T09:26:50Z</time></trkpt><trkpt lat="-23.736002" lon="-46.694515"><ele>758.0</ele><time>2017-02-16T09:26:56Z</time></trkpt><trkpt lat="-23.735982" lon="-46.694611"><ele>763.0</ele><time>2017-02-16T09:27:11Z</time></trkpt><trkpt lat="-23.735917" lon="-46.694681"><ele>759.0</ele><time>2017-02-16T09:27:18Z</time></trkpt><trkpt lat="-23.735841" lon="-46.694745"><ele>755.0</ele><time>2017-02-16T09:27:23Z</time></trkpt><trkpt lat="-23.735762" lon="-46.694793"><ele>758.0</ele><time>2017-02-16T09:27:30Z</time></trkpt><trkpt lat="-23.735689" lon="-46.69487"><ele>761.0</ele><time>2017-02-16T09:27:37Z</time></trkpt><trkpt lat="-23.735627" lon="-46.694954"><ele>765.0</ele><time>2017-02-16T09:27:45Z</time></trkpt><trkpt lat="-23.735576" lon="-46.695047"><ele>765.0</ele><time>2017-02-16T09:27:51Z</time></trkpt><trkpt lat="-23.735514" lon="-46.695129"><ele>763.0</ele><time>2017-02-16T09:27:59Z</time></trkpt><trkpt lat="-23.735435" lon="-46.69518"><ele>762.0</ele><time>2017-02-16T09:28:07Z</time></trkpt><trkpt lat="-23.735374" lon="-46.695266"><ele>768.0</ele><time>2017-02-16T09:36:19Z</time></trkpt><trkpt lat="-23.735303" lon="-46.695338"><ele>769.0</ele><time>2017-02-16T09:36:25Z</time></trkpt><trkpt lat="-23.735224" lon="-46.6954"><ele>766.0</ele><time>2017-02-16T09:36:32Z</time></trkpt><trkpt lat="-23.735153" lon="-46.695465"><ele>768.0</ele><time>2017-02-16T09:36:40Z</time></trkpt><trkpt lat="-23.735096" lon="-46.695552"><ele>770.0</ele><time>2017-02-16T09:37:45Z</time></trkpt><trkpt lat="-23.735045" lon="-46.695637"><ele>768.0</ele><time>2017-02-16T09:37:50Z</time></trkpt><trkpt lat="-23.73497" lon="-46.695692"><ele>765.0</ele><time>2017-02-16T09:37:57Z</time></trkpt><trkpt lat="-23.734929" lon="-46.69578"><ele>768.0</ele><time>2017-02-16T09:38:16Z</time></trkpt><trkpt lat="-23.734995" lon="-46.695685"><ele>765.0</ele><time>2017-02-16T09:39:41Z</time></trkpt><trkpt lat="-23.735038" lon="-46.695578"><ele>765.0</ele><time>2017-02-16T09:39:46Z</time></trkpt><trkpt lat="-23.734994" lon="-46.695476"><ele>764.0</ele><time>2017-02-16T09:39:52Z</time></trkpt><trkpt lat="-23.734937" lon="-46.695391"><ele>763.0</ele><time>2017-02-16T09:39:59Z</time></trkpt><trkpt lat="-23.734868" lon="-46.69532"><ele>770.0</ele><time>2017-02-16T09:40:09Z</time></trkpt><trkpt lat="-23.734831" lon="-46.695217"><ele>769.0</ele><time>2017-02-16T09:40:16Z</time></trkpt><trkpt lat="-23.734785" lon="-46.695123"><ele>765.0</ele><time>2017-02-16T09:40:22Z</time></trkpt><trkpt lat="-23.734693" lon="-46.695075"><ele>763.0</ele><time>2017-02-16T09:40:30Z</time></trkpt><trkpt lat="-23.734623" lon="-46.695002"><ele>765.0</ele><time>2017-02-16T09:40:38Z</time></trkpt><trkpt lat="-23.734534" lon="-46.694934"><ele>763.0</ele><time>2017-02-16T09:40:48Z</time></trkpt><trkpt lat="-23.734484" lon="-46.694849"><ele>766.0</ele><time>2017-02-16T09:40:55Z</time></trkpt><trkpt lat="-23.734413" lon="-46.694773"><ele>766.0</ele><time>2017-02-16T09:41:02Z</time></trkpt><trkpt lat="-23.734349" lon="-46.694702"><ele>767.0</ele><time>2017-02-16T09:41:10Z</time></trkpt><trkpt lat="-23.734387" lon="-46.694611"><ele>763.0</ele><time>2017-02-16T09:41:18Z</time></trkpt><trkpt lat="-23.734479" lon="-46.694573"><ele>763.0</ele><time>2017-02-16T09:41:34Z</time></trkpt><trkpt lat="-23.734566" lon="-46.694534"><ele>759.0</ele><time>2017-02-16T09:41:44Z</time></trkpt><trkpt lat="-23.734652" lon="-46.694465"><ele>761.0</ele><time>2017-02-16T09:41:53Z</time></trkpt><trkpt lat="-23.734735" lon="-46.694396"><ele>761.0</ele><time>2017-02-16T09:42:27Z</time></trkpt><trkpt lat="-23.734775" lon="-46.694299"><ele>755.0</ele><time>2017-02-16T09:42:33Z</time></trkpt><trkpt lat="-23.734847" lon="-46.694219"><ele>759.0</ele><time>2017-02-16T09:42:39Z</time></trkpt><trkpt lat="-23.734878" lon="-46.694116"><ele>761.0</ele><time>2017-02-16T09:42:46Z</time></trkpt><trkpt lat="-23.734921" lon="-46.694027"><ele>761.0</ele><time>2017-02-16T09:42:54Z</time></trkpt><trkpt lat="-23.734913" lon="-46.693919"><ele>756.0</ele><time>2017-02-16T09:43:02Z</time></trkpt><trkpt lat="-23.734952" lon="-46.693827"><ele>757.0</ele><time>2017-02-16T09:43:18Z</time></trkpt><trkpt lat="-23.735046" lon="-46.693801"><ele>758.0</ele><time>2017-02-16T09:43:26Z</time></trkpt><trkpt lat="-23.735099" lon="-46.693708"><ele>758.0</ele><time>2017-02-16T09:43:35Z</time></trkpt><trkpt lat="-23.735031" lon="-46.693634"><ele>761.0</ele><time>2017-02-16T09:44:15Z</time></trkpt><trkpt lat="-23.734932" lon="-46.693632"><ele>761.0</ele><time>2017-02-16T09:44:49Z</time></trkpt><trkpt lat="-23.734883" lon="-46.693545"><ele>763.0</ele><time>2017-02-16T09:45:04Z</time></trkpt><trkpt lat="-23.73492" lon="-46.693445"><ele>763.0</ele><time>2017-02-16T09:45:11Z</time></trkpt><trkpt lat="-23.734989" lon="-46.693371"><ele>764.0</ele><time>2017-02-16T09:45:17Z</time></trkpt><trkpt lat="-23.735059" lon="-46.693298"><ele>766.0</ele><time>2017-02-16T09:45:23Z</time></trkpt><trkpt lat="-23.735128" lon="-46.693211"><ele>767.0</ele><time>2017-02-16T09:45:29Z</time></trkpt><trkpt lat="-23.735108" lon="-46.693108"><ele>764.0</ele><time>2017-02-16T09:46:18Z</time></trkpt><trkpt lat="-23.735146" lon="-46.693011"><ele>762.0</ele><time>2017-02-16T09:46:22Z</time></trkpt><trkpt lat="-23.735152" lon="-46.69291"><ele>758.0</ele><time>2017-02-16T09:46:26Z</time></trkpt><trkpt lat="-23.735174" lon="-46.69281"><ele>763.0</ele><time>2017-02-16T09:46:35Z</time></trkpt><trkpt lat="-23.735237" lon="-46.692734"><ele>766.0</ele><time>2017-02-16T09:46:40Z</time></trkpt><trkpt lat="-23.735279" lon="-46.692641"><ele>767.0</ele><time>2017-02-16T09:46:46Z</time></trkpt><trkpt lat="-23.735339" lon="-46.692566"><ele>762.0</ele><time>2017-02-16T09:46:56Z</time></trkpt><trkpt lat="-23.735379" lon="-46.692466"><ele>767.0</ele><time>2017-02-16T09:47:06Z</time></trkpt><trkpt lat="-23.735423" lon="-46.69236"><ele>765.0</ele><time>2017-02-16T09:47:16Z</time></trkpt><trkpt lat="-23.735447" lon="-46.69226"><ele>762.0</ele><time>2017-02-16T09:47:25Z</time></trkpt><trkpt lat="-23.735383" lon="-46.692179"><ele>763.0</ele><time>2017-02-16T09:47:34Z</time></trkpt><trkpt lat="-23.735376" lon="-46.692075"><ele>761.0</ele><time>2017-02-16T09:47:40Z</time></trkpt><trkpt lat="-23.735356" lon="-46.691971"><ele>762.0</ele><time>2017-02-16T09:47:49Z</time></trkpt><trkpt lat="-23.735375" lon="-46.691874"><ele>767.0</ele><time>2017-02-16T09:47:56Z</time></trkpt><trkpt lat="-23.735353" lon="-46.691776"><ele>776.0</ele><time>2017-02-16T09:48:07Z</time></trkpt><trkpt lat="-23.7354" lon="-46.691687"><ele>775.0</ele><time>2017-02-16T09:48:14Z</time></trkpt><trkpt lat="-23.735353" lon="-46.691592"><ele>776.0</ele><time>2017-02-16T09:49:30Z</time></trkpt><trkpt lat="-23.735321" lon="-46.691485"><ele>774.0</ele><time>2017-02-16T09:49:39Z</time></trkpt><trkpt lat="-23.735262" lon="-46.691407"><ele>774.0</ele><time>2017-02-16T09:49:48Z</time></trkpt><trkpt lat="-23.73528" lon="-46.691305"><ele>775.0</ele><time>2017-02-16T09:50:10Z</time></trkpt><trkpt lat="-23.735227" lon="-46.691223"><ele>766.0</ele><time>2017-02-16T09:50:46Z</time></trkpt><trkpt lat="-23.735181" lon="-46.691134"><ele>767.0</ele><time>2017-02-16T09:50:54Z</time></trkpt><trkpt lat="-23.735149" lon="-46.69103"><ele>767.0</ele><time>2017-02-16T09:51:02Z</time></trkpt><trkpt lat="-23.735091" lon="-46.690942"><ele>764.0</ele><time>2017-02-16T09:51:09Z</time></trkpt><trkpt lat="-23.735081" lon="-46.690839"><ele>766.0</ele><time>2017-02-16T09:51:16Z</time></trkpt><trkpt lat="-23.735064" lon="-46.690735"><ele>765.0</ele><time>2017-02-16T09:51:25Z</time></trkpt><trkpt lat="-23.735051" lon="-46.690636"><ele>768.0</ele><time>2017-02-16T09:51:37Z</time></trkpt><trkpt lat="-23.735021" lon="-46.69054"><ele>770.0</ele><time>2017-02-16T09:51:43Z</time></trkpt><trkpt lat="-23.734982" lon="-46.690447"><ele>771.0</ele><time>2017-02-16T09:51:52Z</time></trkpt><trkpt lat="-23.734932" lon="-46.690359"><ele>771.0</ele><time>2017-02-16T09:52:00Z</time></trkpt><trkpt lat="-23.734875" lon="-46.690273"><ele>768.0</ele><time>2017-02-16T09:52:06Z</time></trkpt><trkpt lat="-23.734891" lon="-46.690176"><ele>767.0</ele><time>2017-02-16T09:52:12Z</time></trkpt><trkpt lat="-23.734821" lon="-46.690086"><ele>765.0</ele><time>2017-02-16T09:52:22Z</time></trkpt><trkpt lat="-23.734892" lon="-46.690021"><ele>764.0</ele><time>2017-02-16T09:52:29Z</time></trkpt><trkpt lat="-23.73489" lon="-46.68992"><ele>766.0</ele><time>2017-02-16T09:52:43Z</time></trkpt><trkpt lat="-23.734856" lon="-46.689827"><ele>764.0</ele><time>2017-02-16T09:52:53Z</time></trkpt><trkpt lat="-23.734822" lon="-46.689729"><ele>774.0</ele><time>2017-02-16T09:53:05Z</time></trkpt><trkpt lat="-23.734794" lon="-46.689622"><ele>774.0</ele><time>2017-02-16T09:53:27Z</time></trkpt><trkpt lat="-23.734765" lon="-46.689527"><ele>778.0</ele><time>2017-02-16T09:53:34Z</time></trkpt><trkpt lat="-23.734734" lon="-46.689416"><ele>782.0</ele><time>2017-02-16T09:53:40Z</time></trkpt><trkpt lat="-23.734683" lon="-46.689316"><ele>785.0</ele><time>2017-02-16T09:53:45Z</time></trkpt><trkpt lat="-23.734644" lon="-46.689215"><ele>781.0</ele><time>2017-02-16T09:53:52Z</time></trkpt><trkpt lat="-23.734603" lon="-46.689123"><ele>775.0</ele><time>2017-02-16T09:53:58Z</time></trkpt><trkpt lat="-23.734593" lon="-46.689017"><ele>774.0</ele><time>2017-02-16T09:54:17Z</time></trkpt><trkpt lat="-23.734575" lon="-46.688917"><ele>780.0</ele><time>2017-02-16T09:54:28Z</time></trkpt><trkpt lat="-23.734486" lon="-46.688868"><ele>777.0</ele><time>2017-02-16T09:54:36Z</time></trkpt><trkpt lat="-23.73439" lon="-46.68884"><ele>781.0</ele><time>2017-02-16T09:54:44Z</time></trkpt><trkpt lat="-23.734304" lon="-46.688805"><ele>783.0</ele><time>2017-02-16T09:54:52Z</time></trkpt><trkpt lat="-23.734215" lon="-46.688784"><ele>780.0</ele><time>2017-02-16T09:54:59Z</time></trkpt><trkpt lat="-23.734118" lon="-46.688794"><ele>782.0</ele><time>2017-02-16T09:55:07Z</time></trkpt><trkpt lat="-23.73402" lon="-46.688787"><ele>785.0</ele><time>2017-02-16T09:55:16Z</time></trkpt><trkpt lat="-23.733929" lon="-46.688754"><ele>785.0</ele><time>2017-02-16T09:55:25Z</time></trkpt><trkpt lat="-23.733836" lon="-46.688717"><ele>784.0</ele><time>2017-02-16T09:55:34Z</time></trkpt><trkpt lat="-23.733746" lon="-46.688683"><ele>787.0</ele><time>2017-02-16T09:56:10Z</time></trkpt><trkpt lat="-23.733654" lon="-46.688678"><ele>784.0</ele><time>2017-02-16T09:56:17Z</time></trkpt><trkpt lat="-23.733565" lon="-46.688632"><ele>780.0</ele><time>2017-02-16T09:56:33Z</time></trkpt><trkpt lat="-23.733471" lon="-46.688673"><ele>788.0</ele><time>2017-02-16T09:56:41Z</time></trkpt><trkpt lat="-23.733377" lon="-46.688692"><ele>787.0</ele><time>2017-02-16T09:56:50Z</time></trkpt><trkpt lat="-23.733287" lon="-46.688706"><ele>784.0</ele><time>2017-02-16T09:57:01Z</time></trkpt><trkpt lat="-23.733196" lon="-46.688666"><ele>785.0</ele><time>2017-02-16T09:57:09Z</time></trkpt><trkpt lat="-23.733105" lon="-46.68861"><ele>784.0</ele><time>2017-02-16T09:57:18Z</time></trkpt><trkpt lat="-23.73303" lon="-46.688538"><ele>785.0</ele><time>2017-02-16T09:57:23Z</time></trkpt><trkpt lat="-23.732933" lon="-46.688506"><ele>782.0</ele><time>2017-02-16T09:57:30Z</time></trkpt><trkpt lat="-23.73283" lon="-46.688479"><ele>779.0</ele><time>2017-02-16T09:57:37Z</time></trkpt><trkpt lat="-23.73273" lon="-46.688463"><ele>782.0</ele><time>2017-02-16T09:57:47Z</time></trkpt><trkpt lat="-23.732643" lon="-46.688504"><ele>794.0</ele><time>2017-02-16T09:57:57Z</time></trkpt><trkpt lat="-23.732552" lon="-46.688485"><ele>797.0</ele><time>2017-02-16T09:58:05Z</time></trkpt><trkpt lat="-23.732457" lon="-46.688444"><ele>795.0</ele><time>2017-02-16T09:58:13Z</time></trkpt><trkpt lat="-23.732364" lon="-46.688407"><ele>802.0</ele><time>2017-02-16T09:58:20Z</time></trkpt><trkpt lat="-23.732271" lon="-46.688396"><ele>805.0</ele><time>2017-02-16T09:58:35Z</time></trkpt><trkpt lat="-23.732194" lon="-46.688341"><ele>792.0</ele><time>2017-02-16T09:58:40Z</time></trkpt><trkpt lat="-23.732113" lon="-46.688268"><ele>790.0</ele><time>2017-02-16T09:58:45Z</time></trkpt><trkpt lat="-23.732036" lon="-46.688208"><ele>784.0</ele><time>2017-02-16T09:58:52Z</time></trkpt><trkpt lat="-23.731945" lon="-46.688181"><ele>787.0</ele><time>2017-02-16T09:58:59Z</time></trkpt><trkpt lat="-23.731855" lon="-46.688143"><ele>784.0</ele><time>2017-02-16T09:59:08Z</time></trkpt><trkpt lat="-23.731763" lon="-46.688133"><ele>787.0</ele><time>2017-02-16T09:59:17Z</time></trkpt><trkpt lat="-23.731672" lon="-46.688096"><ele>787.0</ele><time>2017-02-16T09:59:25Z</time></trkpt><trkpt lat="-23.73158" lon="-46.68809"><ele>788.0</ele><time>2017-02-16T09:59:33Z</time></trkpt><trkpt lat="-23.73149" lon="-46.68806"><ele>790.0</ele><time>2017-02-16T09:59:43Z</time></trkpt><trkpt lat="-23.731392" lon="-46.688069"><ele>790.0</ele><time>2017-02-16T09:59:53Z</time></trkpt><trkpt lat="-23.731295" lon="-46.688064"><ele>789.0</ele><time>2017-02-16T10:00:03Z</time></trkpt><trkpt lat="-23.731208" lon="-46.688014"><ele>793.0</ele><time>2017-02-16T10:00:11Z</time></trkpt><trkpt lat="-23.731116" lon="-46.687996"><ele>792.0</ele><time>2017-02-16T10:00:19Z</time></trkpt><trkpt lat="-23.731022" lon="-46.687969"><ele>792.0</ele><time>2017-02-16T10:00:27Z</time></trkpt><trkpt lat="-23.730933" lon="-46.688"><ele>793.0</ele><time>2017-02-16T10:00:36Z</time></trkpt><trkpt lat="-23.730833" lon="-46.687979"><ele>791.0</ele><time>2017-02-16T10:00:46Z</time></trkpt><trkpt lat="-23.730743" lon="-46.687962"><ele>792.0</ele><time>2017-02-16T10:00:51Z</time></trkpt><trkpt lat="-23.73066" lon="-46.688001"><ele>791.0</ele><time>2017-02-16T10:01:00Z</time></trkpt><trkpt lat="-23.730581" lon="-46.688055"><ele>794.0</ele><time>2017-02-16T10:01:08Z</time></trkpt><trkpt lat="-23.730487" lon="-46.688097"><ele>793.0</ele><time>2017-02-16T10:01:16Z</time></trkpt><trkpt lat="-23.730404" lon="-46.688155"><ele>795.0</ele><time>2017-02-16T10:01:25Z</time></trkpt><trkpt lat="-23.730325" lon="-46.688218"><ele>795.0</ele><time>2017-02-16T10:01:35Z</time></trkpt><trkpt lat="-23.730248" lon="-46.688284"><ele>792.0</ele><time>2017-02-16T10:01:45Z</time></trkpt><trkpt lat="-23.730161" lon="-46.688341"><ele>797.0</ele><time>2017-02-16T10:01:53Z</time></trkpt><trkpt lat="-23.730087" lon="-46.688408"><ele>794.0</ele><time>2017-02-16T10:02:02Z</time></trkpt><trkpt lat="-23.729999" lon="-46.688461"><ele>795.0</ele><time>2017-02-16T10:02:11Z</time></trkpt><trkpt lat="-23.729902" lon="-46.688462"><ele>795.0</ele><time>2017-02-16T10:04:16Z</time></trkpt><trkpt lat="-23.729868" lon="-46.68837"><ele>792.0</ele><time>2017-02-16T10:05:28Z</time></trkpt><trkpt lat="-23.729795" lon="-46.688286"><ele>792.0</ele><time>2017-02-16T10:05:45Z</time></trkpt><trkpt lat="-23.729776" lon="-46.688189"><ele>788.0</ele><time>2017-02-16T10:05:50Z</time></trkpt><trkpt lat="-23.729749" lon="-46.688076"><ele>792.0</ele><time>2017-02-16T10:05:57Z</time></trkpt><trkpt lat="-23.729677" lon="-46.687995"><ele>793.0</ele><time>2017-02-16T10:06:04Z</time></trkpt><trkpt lat="-23.729634" lon="-46.687899"><ele>793.0</ele><time>2017-02-16T10:06:11Z</time></trkpt><trkpt lat="-23.729592" lon="-46.68781"><ele>795.0</ele><time>2017-02-16T10:06:18Z</time></trkpt><trkpt lat="-23.729534" lon="-46.687725"><ele>794.0</ele><time>2017-02-16T10:06:28Z</time></trkpt><trkpt lat="-23.729474" lon="-46.687637"><ele>793.0</ele><time>2017-02-16T10:06:36Z</time></trkpt><trkpt lat="-23.729442" lon="-46.687533"><ele>796.0</ele><time>2017-02-16T10:06:43Z</time></trkpt><trkpt lat="-23.729397" lon="-46.68744"><ele>797.0</ele><time>2017-02-16T10:06:51Z</time></trkpt><trkpt lat="-23.729346" lon="-46.687356"><ele>794.0</ele><time>2017-02-16T10:06:59Z</time></trkpt><trkpt lat="-23.729316" lon="-46.687261"><ele>794.0</ele><time>2017-02-16T10:07:08Z</time></trkpt><trkpt lat="-23.729238" lon="-46.687201"><ele>793.0</ele><time>2017-02-16T10:07:17Z</time></trkpt><trkpt lat="-23.729203" lon="-46.687109"><ele>796.0</ele><time>2017-02-16T10:07:24Z</time></trkpt><trkpt lat="-23.729139" lon="-46.687036"><ele>795.0</ele><time>2017-02-16T10:07:31Z</time></trkpt><trkpt lat="-23.729107" lon="-46.686931"><ele>798.0</ele><time>2017-02-16T10:07:40Z</time></trkpt><trkpt lat="-23.729042" lon="-46.686855"><ele>801.0</ele><time>2017-02-16T10:07:47Z</time></trkpt><trkpt lat="-23.729008" lon="-46.68676"><ele>800.0</ele><time>2017-02-16T10:07:54Z</time></trkpt><trkpt lat="-23.728989" lon="-46.686653"><ele>798.0</ele><time>2017-02-16T10:08:03Z</time></trkpt><trkpt lat="-23.728932" lon="-46.686564"><ele>795.0</ele><time>2017-02-16T10:08:11Z</time></trkpt><trkpt lat="-23.728865" lon="-46.686496"><ele>799.0</ele><time>2017-02-16T10:08:17Z</time></trkpt><trkpt lat="-23.728816" lon="-46.686403"><ele>798.0</ele><time>2017-02-16T10:08:24Z</time></trkpt><trkpt lat="-23.728787" lon="-46.686301"><ele>797.0</ele><time>2017-02-16T10:08:35Z</time></trkpt><trkpt lat="-23.728752" lon="-46.686195"><ele>795.0</ele><time>2017-02-16T10:08:42Z</time></trkpt><trkpt lat="-23.728705" lon="-46.68611"><ele>791.0</ele><time>2017-02-16T10:08:50Z</time></trkpt><trkpt lat="-23.728639" lon="-46.686031"><ele>796.0</ele><time>2017-02-16T10:09:00Z</time></trkpt><trkpt lat="-23.728566" lon="-46.685968"><ele>796.0</ele><time>2017-02-16T10:09:07Z</time></trkpt><trkpt lat="-23.728522" lon="-46.685866"><ele>794.0</ele><time>2017-02-16T10:09:14Z</time></trkpt><trkpt lat="-23.728475" lon="-46.685779"><ele>797.0</ele><time>2017-02-16T10:09:22Z</time></trkpt><trkpt lat="-23.728389" lon="-46.685748"><ele>797.0</ele><time>2017-02-16T10:09:30Z</time></trkpt><trkpt lat="-23.728292" lon="-46.68577"><ele>797.0</ele><time>2017-02-16T10:09:38Z</time></trkpt><trkpt lat="-23.728201" lon="-46.685788"><ele>801.0</ele><time>2017-02-16T10:09:53Z</time></trkpt><trkpt lat="-23.72811" lon="-46.685771"><ele>798.0</ele><time>2017-02-16T10:10:10Z</time></trkpt><trkpt lat="-23.728049" lon="-46.685844"><ele>802.0</ele><time>2017-02-16T10:10:46Z</time></trkpt><trkpt lat="-23.72793" lon="-46.685846"><ele>801.0</ele><time>2017-02-16T10:10:51Z</time></trkpt><trkpt lat="-23.727837" lon="-46.685867"><ele>802.0</ele><time>2017-02-16T10:10:55Z</time></trkpt><trkpt lat="-23.727769" lon="-46.68579"><ele>800.0</ele><time>2017-02-16T10:11:15Z</time></trkpt><trkpt lat="-23.727674" lon="-46.685784"><ele>797.0</ele><time>2017-02-16T10:11:24Z</time></trkpt><trkpt lat="-23.727581" lon="-46.685791"><ele>796.0</ele><time>2017-02-16T10:11:32Z</time></trkpt><trkpt lat="-23.727484" lon="-46.685756"><ele>797.0</ele><time>2017-02-16T10:11:47Z</time></trkpt><trkpt lat="-23.727431" lon="-46.685668"><ele>797.0</ele><time>2017-02-16T10:11:53Z</time></trkpt><trkpt lat="-23.727342" lon="-46.685632"><ele>800.0</ele><time>2017-02-16T10:12:03Z</time></trkpt><trkpt lat="-23.727247" lon="-46.685602"><ele>796.0</ele><time>2017-02-16T10:12:11Z</time></trkpt><trkpt lat="-23.727152" lon="-46.685627"><ele>799.0</ele><time>2017-02-16T10:12:18Z</time></trkpt><trkpt lat="-23.727049" lon="-46.685608"><ele>799.0</ele><time>2017-02-16T10:12:27Z</time></trkpt><trkpt lat="-23.726962" lon="-46.685638"><ele>801.0</ele><time>2017-02-16T10:12:33Z</time></trkpt><trkpt lat="-23.727007" lon="-46.685553"><ele>791.0</ele><time>2017-02-16T10:12:49Z</time></trkpt><trkpt lat="-23.726912" lon="-46.685529"><ele>790.0</ele><time>2017-02-16T10:13:19Z</time></trkpt><trkpt lat="-23.726889" lon="-46.685426"><ele>800.0</ele><time>2017-02-16T10:13:31Z</time></trkpt><trkpt lat="-23.726947" lon="-46.685344"><ele>800.0</ele><time>2017-02-16T10:13:41Z</time></trkpt><trkpt lat="-23.727003" lon="-46.685236"><ele>803.0</ele><time>2017-02-16T10:13:50Z</time></trkpt><trkpt lat="-23.726981" lon="-46.685138"><ele>801.0</ele><time>2017-02-16T10:13:56Z</time></trkpt><trkpt lat="-23.726961" lon="-46.685042"><ele>801.0</ele><time>2017-02-16T10:14:03Z</time></trkpt><trkpt lat="-23.726965" lon="-46.684943"><ele>801.0</ele><time>2017-02-16T10:14:11Z</time></trkpt><trkpt lat="-23.726926" lon="-46.684842"><ele>800.0</ele><time>2017-02-16T10:14:32Z</time></trkpt><trkpt lat="-23.726912" lon="-46.684735"><ele>802.0</ele><time>2017-02-16T10:14:40Z</time></trkpt><trkpt lat="-23.726905" lon="-46.684633"><ele>799.0</ele><time>2017-02-16T10:14:47Z</time></trkpt><trkpt lat="-23.72686" lon="-46.684538"><ele>801.0</ele><time>2017-02-16T10:14:58Z</time></trkpt><trkpt lat="-23.726787" lon="-46.684602"><ele>804.0</ele><time>2017-02-16T10:15:47Z</time></trkpt><trkpt lat="-23.726759" lon="-46.68472"><ele>804.0</ele><time>2017-02-16T10:15:55Z</time></trkpt><trkpt lat="-23.726829" lon="-46.684821"><ele>802.0</ele><time>2017-02-16T10:16:02Z</time></trkpt><trkpt lat="-23.726893" lon="-46.684898"><ele>804.0</ele><time>2017-02-16T10:16:07Z</time></trkpt><trkpt lat="-23.726792" lon="-46.684945"><ele>802.0</ele><time>2017-02-16T10:16:12Z</time></trkpt><trkpt lat="-23.726706" lon="-46.684991"><ele>802.0</ele><time>2017-02-16T10:16:17Z</time></trkpt><trkpt lat="-23.72661" lon="-46.684966"><ele>801.0</ele><time>2017-02-16T10:16:27Z</time></trkpt><trkpt lat="-23.726528" lon="-46.685011"><ele>803.0</ele><time>2017-02-16T10:16:40Z</time></trkpt><trkpt lat="-23.726524" lon="-46.685127"><ele>801.0</ele><time>2017-02-16T10:34:29Z</time></trkpt><trkpt lat="-23.726484" lon="-46.685234"><ele>801.0</ele><time>2017-02-16T10:34:34Z</time></trkpt><trkpt lat="-23.726511" lon="-46.685333"><ele>807.0</ele><time>2017-02-16T10:34:50Z</time></trkpt><trkpt lat="-23.726424" lon="-46.685365"><ele>809.0</ele><time>2017-02-16T10:36:45Z</time></trkpt><trkpt lat="-23.726331" lon="-46.685389"><ele>813.0</ele><time>2017-02-16T10:36:54Z</time></trkpt><trkpt lat="-23.726235" lon="-46.685336"><ele>805.0</ele><time>2017-02-16T10:37:03Z</time></trkpt><trkpt lat="-23.726167" lon="-46.685247"><ele>800.0</ele><time>2017-02-16T10:37:07Z</time></trkpt><trkpt lat="-23.726092" lon="-46.685187"><ele>803.0</ele><time>2017-02-16T10:37:13Z</time></trkpt><trkpt lat="-23.725997" lon="-46.685142"><ele>806.0</ele><time>2017-02-16T10:37:19Z</time></trkpt><trkpt lat="-23.725922" lon="-46.685074"><ele>806.0</ele><time>2017-02-16T10:37:26Z</time></trkpt><trkpt lat="-23.725864" lon="-46.684998"><ele>810.0</ele><time>2017-02-16T10:37:34Z</time></trkpt><trkpt lat="-23.72578" lon="-46.685047"><ele>810.0</ele><time>2017-02-16T10:37:43Z</time></trkpt><trkpt lat="-23.725773" lon="-46.685161"><ele>820.0</ele><time>2017-02-16T10:37:50Z</time></trkpt><trkpt lat="-23.725718" lon="-46.685251"><ele>814.0</ele><time>2017-02-16T10:37:55Z</time></trkpt><trkpt lat="-23.725635" lon="-46.685303"><ele>813.0</ele><time>2017-02-16T10:38:00Z</time></trkpt><trkpt lat="-23.725594" lon="-46.685394"><ele>814.0</ele><time>2017-02-16T10:38:04Z</time></trkpt><trkpt lat="-23.725531" lon="-46.685484"><ele>815.0</ele><time>2017-02-16T10:38:17Z</time></trkpt><trkpt lat="-23.725471" lon="-46.685572"><ele>809.0</ele><time>2017-02-16T10:38:20Z</time></trkpt><trkpt lat="-23.725405" lon="-46.685676"><ele>809.0</ele><time>2017-02-16T10:38:23Z</time></trkpt><trkpt lat="-23.725361" lon="-46.685762"><ele>806.0</ele><time>2017-02-16T10:38:28Z</time></trkpt><trkpt lat="-23.725307" lon="-46.68585"><ele>800.0</ele><time>2017-02-16T10:38:36Z</time></trkpt><trkpt lat="-23.725249" lon="-46.685928"><ele>795.0</ele><time>2017-02-16T10:38:43Z</time></trkpt><trkpt lat="-23.725157" lon="-46.685981"><ele>791.0</ele><time>2017-02-16T10:38:52Z</time></trkpt><trkpt lat="-23.72511" lon="-46.686081"><ele>790.0</ele><time>2017-02-16T10:39:00Z</time></trkpt><trkpt lat="-23.725067" lon="-46.68618"><ele>789.0</ele><time>2017-02-16T10:39:08Z</time></trkpt><trkpt lat="-23.725053" lon="-46.686277"><ele>790.0</ele><time>2017-02-16T10:39:16Z</time></trkpt><trkpt lat="-23.72497" lon="-46.686316"><ele>793.0</ele><time>2017-02-16T10:39:24Z</time></trkpt><trkpt lat="-23.72491" lon="-46.686404"><ele>793.0</ele><time>2017-02-16T10:39:34Z</time></trkpt><trkpt lat="-23.72483" lon="-46.686463"><ele>794.0</ele><time>2017-02-16T10:39:42Z</time></trkpt><trkpt lat="-23.724746" lon="-46.68653"><ele>792.0</ele><time>2017-02-16T10:39:49Z</time></trkpt><trkpt lat="-23.724655" lon="-46.686559"><ele>791.0</ele><time>2017-02-16T10:39:55Z</time></trkpt><trkpt lat="-23.724571" lon="-46.686611"><ele>786.0</ele><time>2017-02-16T10:40:04Z</time></trkpt><trkpt lat="-23.724486" lon="-46.686652"><ele>787.0</ele><time>2017-02-16T10:40:12Z</time></trkpt><trkpt lat="-23.724397" lon="-46.6867"><ele>787.0</ele><time>2017-02-16T10:40:19Z</time></trkpt><trkpt lat="-23.724311" lon="-46.686743"><ele>783.0</ele><time>2017-02-16T10:40:28Z</time></trkpt><trkpt lat="-23.724235" lon="-46.686807"><ele>782.0</ele><time>2017-02-16T10:40:35Z</time></trkpt><trkpt lat="-23.724246" lon="-46.686906"><ele>777.0</ele><time>2017-02-16T10:40:42Z</time></trkpt><trkpt lat="-23.724149" lon="-46.686885"><ele>783.0</ele><time>2017-02-16T10:42:47Z</time></trkpt><trkpt lat="-23.724051" lon="-46.686904"><ele>785.0</ele><time>2017-02-16T10:42:55Z</time></trkpt><trkpt lat="-23.724" lon="-46.686994"><ele>783.0</ele><time>2017-02-16T10:43:02Z</time></trkpt><trkpt lat="-23.723911" lon="-46.687006"><ele>780.0</ele><time>2017-02-16T10:43:10Z</time></trkpt><trkpt lat="-23.723812" lon="-46.687029"><ele>778.0</ele><time>2017-02-16T10:43:20Z</time></trkpt><trkpt lat="-23.723706" lon="-46.687059"><ele>780.0</ele><time>2017-02-16T10:43:26Z</time></trkpt><trkpt lat="-23.723639" lon="-46.68714"><ele>777.0</ele><time>2017-02-16T10:43:32Z</time></trkpt><trkpt lat="-23.723559" lon="-46.687199"><ele>776.0</ele><time>2017-02-16T10:43:40Z</time></trkpt><trkpt lat="-23.723457" lon="-46.687206"><ele>783.0</ele><time>2017-02-16T10:43:52Z</time></trkpt><trkpt lat="-23.723364" lon="-46.687284"><ele>782.0</ele><time>2017-02-16T10:43:59Z</time></trkpt><trkpt lat="-23.723259" lon="-46.687346"><ele>780.0</ele><time>2017-02-16T10:44:04Z</time></trkpt><trkpt lat="-23.723219" lon="-46.68745"><ele>784.0</ele><time>2017-02-16T10:44:26Z</time></trkpt><trkpt lat="-23.723142" lon="-46.687513"><ele>781.0</ele><time>2017-02-16T10:44:30Z</time></trkpt><trkpt lat="-23.723083" lon="-46.687598"><ele>777.0</ele><time>2017-02-16T10:44:36Z</time></trkpt><trkpt lat="-23.72303" lon="-46.687685"><ele>775.0</ele><time>2017-02-16T10:44:45Z</time></trkpt><trkpt lat="-23.722928" lon="-46.687683"><ele>778.0</ele><time>2017-02-16T10:44:55Z</time></trkpt><trkpt lat="-23.722847" lon="-46.687745"><ele>778.0</ele><time>2017-02-16T10:45:07Z</time></trkpt><trkpt lat="-23.722748" lon="-46.687778"><ele>777.0</ele><time>2017-02-16T10:45:13Z</time></trkpt><trkpt lat="-23.722648" lon="-46.687795"><ele>776.0</ele><time>2017-02-16T10:45:19Z</time></trkpt><trkpt lat="-23.722573" lon="-46.687854"><ele>773.0</ele><time>2017-02-16T10:45:28Z</time></trkpt><trkpt lat="-23.722491" lon="-46.687913"><ele>774.0</ele><time>2017-02-16T10:45:37Z</time></trkpt><trkpt lat="-23.722402" lon="-46.687973"><ele>776.0</ele><time>2017-02-16T10:45:48Z</time></trkpt><trkpt lat="-23.722308" lon="-46.688026"><ele>782.0</ele><time>2017-02-16T10:45:57Z</time></trkpt><trkpt lat="-23.722146" lon="-46.687955"><ele>775.0</ele><time>2017-02-16T10:46:09Z</time></trkpt><trkpt lat="-23.722074" lon="-46.688032"><ele>778.0</ele><time>2017-02-16T10:46:17Z</time></trkpt><trkpt lat="-23.72199" lon="-46.688072"><ele>778.0</ele><time>2017-02-16T10:46:25Z</time></trkpt><trkpt lat="-23.721892" lon="-46.688062"><ele>774.0</ele><time>2017-02-16T10:46:31Z</time></trkpt><trkpt lat="-23.721792" lon="-46.688039"><ele>774.0</ele><time>2017-02-16T10:46:37Z</time></trkpt><trkpt lat="-23.721697" lon="-46.688059"><ele>774.0</ele><time>2017-02-16T10:46:46Z</time></trkpt><trkpt lat="-23.72163" lon="-46.688139"><ele>773.0</ele><time>2017-02-16T10:46:58Z</time></trkpt><trkpt lat="-23.721558" lon="-46.688219"><ele>772.0</ele><time>2017-02-16T10:47:05Z</time></trkpt><trkpt lat="-23.721519" lon="-46.688313"><ele>775.0</ele><time>2017-02-16T10:47:11Z</time></trkpt><trkpt lat="-23.721549" lon="-46.688417"><ele>774.0</ele><time>2017-02-16T10:47:15Z</time></trkpt><trkpt lat="-23.721535" lon="-46.688523"><ele>772.0</ele><time>2017-02-16T10:47:20Z</time></trkpt><trkpt lat="-23.721458" lon="-46.688582"><ele>767.0</ele><time>2017-02-16T10:47:30Z</time></trkpt><trkpt lat="-23.721418" lon="-46.688671"><ele>771.0</ele><time>2017-02-16T10:47:38Z</time></trkpt><trkpt lat="-23.721422" lon="-46.688771"><ele>775.0</ele><time>2017-02-16T10:47:45Z</time></trkpt><trkpt lat="-23.721442" lon="-46.688871"><ele>775.0</ele><time>2017-02-16T10:47:55Z</time></trkpt><trkpt lat="-23.72136" lon="-46.688915"><ele>781.0</ele><time>2017-02-16T10:48:33Z</time></trkpt><trkpt lat="-23.721272" lon="-46.688968"><ele>785.0</ele><time>2017-02-16T10:48:40Z</time></trkpt><trkpt lat="-23.721175" lon="-46.688992"><ele>778.0</ele><time>2017-02-16T10:48:47Z</time></trkpt><trkpt lat="-23.721095" lon="-46.689059"><ele>772.0</ele><time>2017-02-16T10:48:51Z</time></trkpt><trkpt lat="-23.721063" lon="-46.689154"><ele>774.0</ele><time>2017-02-16T10:49:47Z</time></trkpt><trkpt lat="-23.720985" lon="-46.689206"><ele>768.0</ele><time>2017-02-16T10:50:08Z</time></trkpt><trkpt lat="-23.720895" lon="-46.689205"><ele>770.0</ele><time>2017-02-16T10:50:31Z</time></trkpt><trkpt lat="-23.720801" lon="-46.689246"><ele>771.0</ele><time>2017-02-16T10:50:52Z</time></trkpt><trkpt lat="-23.720858" lon="-46.689323"><ele>770.0</ele><time>2017-02-16T10:52:41Z</time></trkpt><trkpt lat="-23.720756" lon="-46.689338"><ele>773.0</ele><time>2017-02-16T10:53:55Z</time></trkpt><trkpt lat="-23.720681" lon="-46.689268"><ele>776.0</ele><time>2017-02-16T10:54:26Z</time></trkpt><trkpt lat="-23.720577" lon="-46.689283"><ele>774.0</ele><time>2017-02-16T10:55:11Z</time></trkpt><trkpt lat="-23.720469" lon="-46.689314"><ele>772.0</ele><time>2017-02-16T10:55:16Z</time></trkpt><trkpt lat="-23.720378" lon="-46.689312"><ele>768.0</ele><time>2017-02-16T10:55:20Z</time></trkpt><trkpt lat="-23.720264" lon="-46.689327"><ele>765.0</ele><time>2017-02-16T10:55:24Z</time></trkpt><trkpt lat="-23.720164" lon="-46.689342"><ele>768.0</ele><time>2017-02-16T10:55:30Z</time></trkpt><trkpt lat="-23.720078" lon="-46.689376"><ele>768.0</ele><time>2017-02-16T10:55:36Z</time></trkpt><trkpt lat="-23.719983" lon="-46.689396"><ele>773.0</ele><time>2017-02-16T10:55:45Z</time></trkpt><trkpt lat="-23.719883" lon="-46.689408"><ele>769.0</ele><time>2017-02-16T10:55:52Z</time></trkpt><trkpt lat="-23.7198" lon="-46.689461"><ele>772.0</ele><time>2017-02-16T10:56:00Z</time></trkpt><trkpt lat="-23.719715" lon="-46.689517"><ele>770.0</ele><time>2017-02-16T10:56:08Z</time></trkpt><trkpt lat="-23.719632" lon="-46.68956"><ele>768.0</ele><time>2017-02-16T10:56:13Z</time></trkpt><trkpt lat="-23.719539" lon="-46.689605"><ele>770.0</ele><time>2017-02-16T10:56:28Z</time></trkpt><trkpt lat="-23.719448" lon="-46.689642"><ele>776.0</ele><time>2017-02-16T10:56:37Z</time></trkpt><trkpt lat="-23.719349" lon="-46.689662"><ele>771.0</ele><time>2017-02-16T10:56:46Z</time></trkpt><trkpt lat="-23.719255" lon="-46.689698"><ele>769.0</ele><time>2017-02-16T10:56:54Z</time></trkpt><trkpt lat="-23.71916" lon="-46.68974"><ele>763.0</ele><time>2017-02-16T10:57:11Z</time></trkpt><trkpt lat="-23.719068" lon="-46.689782"><ele>763.0</ele><time>2017-02-16T10:57:16Z</time></trkpt><trkpt lat="-23.718991" lon="-46.689835"><ele>764.0</ele><time>2017-02-16T10:57:20Z</time></trkpt><trkpt lat="-23.71891" lon="-46.689887"><ele>767.0</ele><time>2017-02-16T10:57:26Z</time></trkpt><trkpt lat="-23.718815" lon="-46.689911"><ele>764.0</ele><time>2017-02-16T10:57:35Z</time></trkpt><trkpt lat="-23.718729" lon="-46.689965"><ele>767.0</ele><time>2017-02-16T10:57:42Z</time></trkpt><trkpt lat="-23.718644" lon="-46.690007"><ele>767.0</ele><time>2017-02-16T10:57:51Z</time></trkpt><trkpt lat="-23.718553" lon="-46.69005"><ele>766.0</ele><time>2017-02-16T10:57:58Z</time></trkpt><trkpt lat="-23.718468" lon="-46.690103"><ele>766.0</ele><time>2017-02-16T10:58:06Z</time></trkpt><trkpt lat="-23.718376" lon="-46.690108"><ele>764.0</ele><time>2017-02-16T10:58:13Z</time></trkpt><trkpt lat="-23.718282" lon="-46.690122"><ele>764.0</ele><time>2017-02-16T10:58:19Z</time></trkpt><trkpt lat="-23.71823" lon="-46.690206"><ele>758.0</ele><time>2017-02-16T10:58:39Z</time></trkpt><trkpt lat="-23.718156" lon="-46.690272"><ele>764.0</ele><time>2017-02-16T10:58:48Z</time></trkpt><trkpt lat="-23.718073" lon="-46.690329"><ele>765.0</ele><time>2017-02-16T10:58:57Z</time></trkpt><trkpt lat="-23.717997" lon="-46.690383"><ele>765.0</ele><time>2017-02-16T10:59:05Z</time></trkpt><trkpt lat="-23.717914" lon="-46.690434"><ele>766.0</ele><time>2017-02-16T10:59:14Z</time></trkpt><trkpt lat="-23.717835" lon="-46.690483"><ele>770.0</ele><time>2017-02-16T10:59:23Z</time></trkpt><trkpt lat="-23.717778" lon="-46.690566"><ele>767.0</ele><time>2017-02-16T10:59:32Z</time></trkpt><trkpt lat="-23.717701" lon="-46.690641"><ele>770.0</ele><time>2017-02-16T10:59:41Z</time></trkpt><trkpt lat="-23.717614" lon="-46.690667"><ele>766.0</ele><time>2017-02-16T10:59:49Z</time></trkpt><trkpt lat="-23.717524" lon="-46.690691"><ele>765.0</ele><time>2017-02-16T10:59:58Z</time></trkpt><trkpt lat="-23.717444" lon="-46.690736"><ele>772.0</ele><time>2017-02-16T11:00:05Z</time></trkpt><trkpt lat="-23.71735" lon="-46.690779"><ele>770.0</ele><time>2017-02-16T11:00:11Z</time></trkpt><trkpt lat="-23.717254" lon="-46.690763"><ele>763.0</ele><time>2017-02-16T11:00:21Z</time></trkpt><trkpt lat="-23.717158" lon="-46.690746"><ele>762.0</ele><time>2017-02-16T11:00:29Z</time></trkpt><trkpt lat="-23.717061" lon="-46.690744"><ele>764.0</ele><time>2017-02-16T11:00:37Z</time></trkpt><trkpt lat="-23.716975" lon="-46.690703"><ele>767.0</ele><time>2017-02-16T11:00:43Z</time></trkpt><trkpt lat="-23.716899" lon="-46.690622"><ele>770.0</ele><time>2017-02-16T11:00:52Z</time></trkpt><trkpt lat="-23.716811" lon="-46.690588"><ele>771.0</ele><time>2017-02-16T11:00:57Z</time></trkpt><trkpt lat="-23.716716" lon="-46.690584"><ele>770.0</ele><time>2017-02-16T11:01:05Z</time></trkpt><trkpt lat="-23.716627" lon="-46.690546"><ele>771.0</ele><time>2017-02-16T11:01:13Z</time></trkpt><trkpt lat="-23.716533" lon="-46.690544"><ele>772.0</ele><time>2017-02-16T11:01:39Z</time></trkpt><trkpt lat="-23.716444" lon="-46.690502"><ele>771.0</ele><time>2017-02-16T11:01:46Z</time></trkpt><trkpt lat="-23.716365" lon="-46.690453"><ele>772.0</ele><time>2017-02-16T11:01:53Z</time></trkpt><trkpt lat="-23.716273" lon="-46.69046"><ele>769.0</ele><time>2017-02-16T11:02:01Z</time></trkpt><trkpt lat="-23.716179" lon="-46.690425"><ele>770.0</ele><time>2017-02-16T11:02:13Z</time></trkpt><trkpt lat="-23.716108" lon="-46.690354"><ele>772.0</ele><time>2017-02-16T11:02:21Z</time></trkpt><trkpt lat="-23.716017" lon="-46.690344"><ele>767.0</ele><time>2017-02-16T11:02:29Z</time></trkpt><trkpt lat="-23.71592" lon="-46.690315"><ele>768.0</ele><time>2017-02-16T11:02:34Z</time></trkpt><trkpt lat="-23.715829" lon="-46.690313"><ele>765.0</ele><time>2017-02-16T11:02:38Z</time></trkpt><trkpt lat="-23.715783" lon="-46.690217"><ele>772.0</ele><time>2017-02-16T11:02:53Z</time></trkpt><trkpt lat="-23.715685" lon="-46.69021"><ele>774.0</ele><time>2017-02-16T11:02:58Z</time></trkpt><trkpt lat="-23.715596" lon="-46.690179"><ele>770.0</ele><time>2017-02-16T11:03:06Z</time></trkpt><trkpt lat="-23.715496" lon="-46.690192"><ele>776.0</ele><time>2017-02-16T11:03:15Z</time></trkpt><trkpt lat="-23.715406" lon="-46.690144"><ele>765.0</ele><time>2017-02-16T11:03:25Z</time></trkpt><trkpt lat="-23.715295" lon="-46.690147"><ele>763.0</ele><time>2017-02-16T11:03:31Z</time></trkpt><trkpt lat="-23.715204" lon="-46.690095"><ele>762.0</ele><time>2017-02-16T11:03:39Z</time></trkpt><trkpt lat="-23.715121" lon="-46.690054"><ele>761.0</ele><time>2017-02-16T11:03:47Z</time></trkpt><trkpt lat="-23.715023" lon="-46.690067"><ele>764.0</ele><time>2017-02-16T11:03:55Z</time></trkpt><trkpt lat="-23.71492" lon="-46.690063"><ele>765.0</ele><time>2017-02-16T11:04:00Z</time></trkpt><trkpt lat="-23.714862" lon="-46.689974"><ele>763.0</ele><time>2017-02-16T11:04:09Z</time></trkpt><trkpt lat="-23.714775" lon="-46.689921"><ele>765.0</ele><time>2017-02-16T11:04:18Z</time></trkpt><trkpt lat="-23.714692" lon="-46.689866"><ele>763.0</ele><time>2017-02-16T11:04:25Z</time></trkpt><trkpt lat="-23.71462" lon="-46.689803"><ele>767.0</ele><time>2017-02-16T11:04:32Z</time></trkpt><trkpt lat="-23.714529" lon="-46.689782"><ele>766.0</ele><time>2017-02-16T11:04:40Z</time></trkpt><trkpt lat="-23.714447" lon="-46.68974"><ele>768.0</ele><time>2017-02-16T11:04:48Z</time></trkpt><trkpt lat="-23.714346" lon="-46.689709"><ele>767.0</ele><time>2017-02-16T11:04:56Z</time></trkpt><trkpt lat="-23.714256" lon="-46.689685"><ele>768.0</ele><time>2017-02-16T11:05:04Z</time></trkpt><trkpt lat="-23.714166" lon="-46.689658"><ele>764.0</ele><time>2017-02-16T11:05:13Z</time></trkpt><trkpt lat="-23.71407" lon="-46.689629"><ele>767.0</ele><time>2017-02-16T11:05:21Z</time></trkpt><trkpt lat="-23.71398" lon="-46.689589"><ele>764.0</ele><time>2017-02-16T11:05:32Z</time></trkpt><trkpt lat="-23.713886" lon="-46.689615"><ele>767.0</ele><time>2017-02-16T11:05:42Z</time></trkpt><trkpt lat="-23.713795" lon="-46.689599"><ele>767.0</ele><time>2017-02-16T11:05:52Z</time></trkpt><trkpt lat="-23.713712" lon="-46.689552"><ele>767.0</ele><time>2017-02-16T11:06:00Z</time></trkpt><trkpt lat="-23.713639" lon="-46.689489"><ele>768.0</ele><time>2017-02-16T11:06:09Z</time></trkpt><trkpt lat="-23.713556" lon="-46.68943"><ele>774.0</ele><time>2017-02-16T11:06:18Z</time></trkpt><trkpt lat="-23.713466" lon="-46.689404"><ele>777.0</ele><time>2017-02-16T11:06:25Z</time></trkpt><trkpt lat="-23.713389" lon="-46.689349"><ele>775.0</ele><time>2017-02-16T11:06:35Z</time></trkpt><trkpt lat="-23.713287" lon="-46.68935"><ele>772.0</ele><time>2017-02-16T11:06:44Z</time></trkpt><trkpt lat="-23.713198" lon="-46.689398"><ele>783.0</ele><time>2017-02-16T11:07:27Z</time></trkpt><trkpt lat="-23.713166" lon="-46.689301"><ele>780.0</ele><time>2017-02-16T11:07:58Z</time></trkpt><trkpt lat="-23.713084" lon="-46.689258"><ele>778.0</ele><time>2017-02-16T11:12:09Z</time></trkpt><trkpt lat="-23.712992" lon="-46.689256"><ele>784.0</ele><time>2017-02-16T11:15:43Z</time></trkpt><trkpt lat="-23.712894" lon="-46.689267"><ele>779.0</ele><time>2017-02-16T11:16:13Z</time></trkpt><trkpt lat="-23.712825" lon="-46.6892"><ele>774.0</ele><time>2017-02-16T11:16:21Z</time></trkpt><trkpt lat="-23.712729" lon="-46.689172"><ele>771.0</ele><time>2017-02-16T11:16:30Z</time></trkpt><trkpt lat="-23.712632" lon="-46.689182"><ele>774.0</ele><time>2017-02-16T11:16:37Z</time></trkpt><trkpt lat="-23.712533" lon="-46.689159"><ele>776.0</ele><time>2017-02-16T11:16:44Z</time></trkpt><trkpt lat="-23.712446" lon="-46.689127"><ele>772.0</ele><time>2017-02-16T11:16:53Z</time></trkpt><trkpt lat="-23.712349" lon="-46.689095"><ele>774.0</ele><time>2017-02-16T11:17:01Z</time></trkpt><trkpt lat="-23.712248" lon="-46.689093"><ele>776.0</ele><time>2017-02-16T11:17:08Z</time></trkpt><trkpt lat="-23.712155" lon="-46.689104"><ele>775.0</ele><time>2017-02-16T11:17:18Z</time></trkpt><trkpt lat="-23.712062" lon="-46.689096"><ele>775.0</ele><time>2017-02-16T11:17:26Z</time></trkpt><trkpt lat="-23.711973" lon="-46.689046"><ele>772.0</ele><time>2017-02-16T11:17:35Z</time></trkpt><trkpt lat="-23.711896" lon="-46.688981"><ele>771.0</ele><time>2017-02-16T11:17:42Z</time></trkpt><trkpt lat="-23.711802" lon="-46.689001"><ele>773.0</ele><time>2017-02-16T11:17:49Z</time></trkpt><trkpt lat="-23.7117" lon="-46.688996"><ele>774.0</ele><time>2017-02-16T11:17:57Z</time></trkpt><trkpt lat="-23.711611" lon="-46.688951"><ele>775.0</ele><time>2017-02-16T11:18:04Z</time></trkpt><trkpt lat="-23.711521" lon="-46.68892"><ele>771.0</ele><time>2017-02-16T11:18:11Z</time></trkpt><trkpt lat="-23.711615" lon="-46.688897"><ele>767.0</ele><time>2017-02-16T11:37:38Z</time></trkpt><trkpt lat="-23.711524" lon="-46.688946"><ele>771.0</ele><time>2017-02-16T11:39:00Z</time></trkpt><trkpt lat="-23.711429" lon="-46.688935"><ele>777.0</ele><time>2017-02-16T11:43:27Z</time></trkpt><trkpt lat="-23.711335" lon="-46.6889"><ele>771.0</ele><time>2017-02-16T11:43:44Z</time></trkpt><trkpt lat="-23.711244" lon="-46.688868"><ele>771.0</ele><time>2017-02-16T11:43:52Z</time></trkpt><trkpt lat="-23.711151" lon="-46.688833"><ele>771.0</ele><time>2017-02-16T11:43:59Z</time></trkpt><trkpt lat="-23.711059" lon="-46.688802"><ele>770.0</ele><time>2017-02-16T11:44:09Z</time></trkpt><trkpt lat="-23.710964" lon="-46.688784"><ele>766.0</ele><time>2017-02-16T11:44:17Z</time></trkpt><trkpt lat="-23.710873" lon="-46.688767"><ele>765.0</ele><time>2017-02-16T11:44:27Z</time></trkpt><trkpt lat="-23.710783" lon="-46.688787"><ele>764.0</ele><time>2017-02-16T11:44:35Z</time></trkpt><trkpt lat="-23.710698" lon="-46.68875"><ele>761.0</ele><time>2017-02-16T11:44:43Z</time></trkpt><trkpt lat="-23.710736" lon="-46.688656"><ele>761.0</ele><time>2017-02-16T11:44:55Z</time></trkpt><trkpt lat="-23.710826" lon="-46.688611"><ele>757.0</ele><time>2017-02-16T11:45:03Z</time></trkpt><trkpt lat="-23.710883" lon="-46.68853"><ele>759.0</ele><time>2017-02-16T11:45:12Z</time></trkpt><trkpt lat="-23.710826" lon="-46.688446"><ele>759.0</ele><time>2017-02-16T11:45:20Z</time></trkpt><trkpt lat="-23.710786" lon="-46.688352"><ele>756.0</ele><time>2017-02-16T11:45:27Z</time></trkpt><trkpt lat="-23.710758" lon="-46.688252"><ele>751.0</ele><time>2017-02-16T11:45:35Z</time></trkpt><trkpt lat="-23.710671" lon="-46.688196"><ele>756.0</ele><time>2017-02-16T11:45:42Z</time></trkpt><trkpt lat="-23.710654" lon="-46.68809"><ele>754.0</ele><time>2017-02-16T11:45:49Z</time></trkpt><trkpt lat="-23.710599" lon="-46.688008"><ele>759.0</ele><time>2017-02-16T11:45:57Z</time></trkpt><trkpt lat="-23.710504" lon="-46.688028"><ele>758.0</ele><time>2017-02-16T11:46:04Z</time></trkpt><trkpt lat="-23.710413" lon="-46.68804"><ele>750.0</ele><time>2017-02-16T11:46:14Z</time></trkpt><trkpt lat="-23.71033" lon="-46.688097"><ele>747.0</ele><time>2017-02-16T11:46:22Z</time></trkpt><trkpt lat="-23.710246" lon="-46.688136"><ele>751.0</ele><time>2017-02-16T11:46:30Z</time></trkpt><trkpt lat="-23.710159" lon="-46.688189"><ele>745.0</ele><time>2017-02-16T11:46:39Z</time></trkpt><trkpt lat="-23.710084" lon="-46.688247"><ele>748.0</ele><time>2017-02-16T11:46:47Z</time></trkpt><trkpt lat="-23.710004" lon="-46.688195"><ele>754.0</ele><time>2017-02-16T11:47:18Z</time></trkpt><trkpt lat="-23.709918" lon="-46.688237"><ele>754.0</ele><time>2017-02-16T11:47:27Z</time></trkpt><trkpt lat="-23.709831" lon="-46.688265"><ele>750.0</ele><time>2017-02-16T11:47:36Z</time></trkpt><trkpt lat="-23.709737" lon="-46.688289"><ele>760.0</ele><time>2017-02-16T11:47:43Z</time></trkpt><trkpt lat="-23.709648" lon="-46.68832"><ele>758.0</ele><time>2017-02-16T11:47:50Z</time></trkpt><trkpt lat="-23.709547" lon="-46.688353"><ele>756.0</ele><time>2017-02-16T11:47:55Z</time></trkpt><trkpt lat="-23.70946" lon="-46.688383"><ele>751.0</ele><time>2017-02-16T11:48:01Z</time></trkpt><trkpt lat="-23.70939" lon="-46.688451"><ele>750.0</ele><time>2017-02-16T11:48:12Z</time></trkpt><trkpt lat="-23.709329" lon="-46.688538"><ele>748.0</ele><time>2017-02-16T11:48:20Z</time></trkpt><trkpt lat="-23.70928" lon="-46.688627"><ele>744.0</ele><time>2017-02-16T11:48:29Z</time></trkpt><trkpt lat="-23.709216" lon="-46.6887"><ele>746.0</ele><time>2017-02-16T11:48:38Z</time></trkpt><trkpt lat="-23.70923" lon="-46.688797"><ele>744.0</ele><time>2017-02-16T11:49:07Z</time></trkpt><trkpt lat="-23.709167" lon="-46.688714"><ele>745.0</ele><time>2017-02-16T11:49:21Z</time></trkpt><trkpt lat="-23.709075" lon="-46.688735"><ele>751.0</ele><time>2017-02-16T11:49:38Z</time></trkpt><trkpt lat="-23.708985" lon="-46.688761"><ele>753.0</ele><time>2017-02-16T11:50:08Z</time></trkpt><trkpt lat="-23.70889" lon="-46.688797"><ele>757.0</ele><time>2017-02-16T11:50:14Z</time></trkpt><trkpt lat="-23.708793" lon="-46.688777"><ele>759.0</ele><time>2017-02-16T11:50:20Z</time></trkpt><trkpt lat="-23.708725" lon="-46.688696"><ele>754.0</ele><time>2017-02-16T11:50:28Z</time></trkpt><trkpt lat="-23.708627" lon="-46.688676"><ele>757.0</ele><time>2017-02-16T11:50:49Z</time></trkpt><trkpt lat="-23.708539" lon="-46.688648"><ele>755.0</ele><time>2017-02-16T11:50:55Z</time></trkpt><trkpt lat="-23.708444" lon="-46.688619"><ele>758.0</ele><time>2017-02-16T11:51:02Z</time></trkpt><trkpt lat="-23.708348" lon="-46.688602"><ele>751.0</ele><time>2017-02-16T11:51:09Z</time></trkpt><trkpt lat="-23.708255" lon="-46.68855"><ele>751.0</ele><time>2017-02-16T11:51:17Z</time></trkpt><trkpt lat="-23.708158" lon="-46.688547"><ele>751.0</ele><time>2017-02-16T11:51:24Z</time></trkpt><trkpt lat="-23.708071" lon="-46.688503"><ele>753.0</ele><time>2017-02-16T11:51:31Z</time></trkpt><trkpt lat="-23.708009" lon="-46.688419"><ele>746.0</ele><time>2017-02-16T11:51:41Z</time></trkpt><trkpt lat="-23.707923" lon="-46.688376"><ele>754.0</ele><time>2017-02-16T11:51:49Z</time></trkpt><trkpt lat="-23.707833" lon="-46.688328"><ele>751.0</ele><time>2017-02-16T11:51:58Z</time></trkpt><trkpt lat="-23.707742" lon="-46.688308"><ele>763.0</ele><time>2017-02-16T11:52:05Z</time></trkpt><trkpt lat="-23.707665" lon="-46.688245"><ele>748.0</ele><time>2017-02-16T11:53:51Z</time></trkpt><trkpt lat="-23.707596" lon="-46.688162"><ele>748.0</ele><time>2017-02-16T11:53:58Z</time></trkpt><trkpt lat="-23.707519" lon="-46.688102"><ele>747.0</ele><time>2017-02-16T11:54:06Z</time></trkpt><trkpt lat="-23.707425" lon="-46.688088"><ele>752.0</ele><time>2017-02-16T11:54:13Z</time></trkpt><trkpt lat="-23.707335" lon="-46.688102"><ele>752.0</ele><time>2017-02-16T11:54:19Z</time></trkpt><trkpt lat="-23.707299" lon="-46.688194"><ele>750.0</ele><time>2017-02-16T11:54:26Z</time></trkpt><trkpt lat="-23.70721" lon="-46.68817"><ele>744.0</ele><time>2017-02-16T11:55:08Z</time></trkpt><trkpt lat="-23.707117" lon="-46.688145"><ele>749.0</ele><time>2017-02-16T11:55:51Z</time></trkpt><trkpt lat="-23.707017" lon="-46.688124"><ele>746.0</ele><time>2017-02-16T11:56:00Z</time></trkpt><trkpt lat="-23.706914" lon="-46.688147"><ele>745.0</ele><time>2017-02-16T11:56:06Z</time></trkpt><trkpt lat="-23.706819" lon="-46.688176"><ele>746.0</ele><time>2017-02-16T11:56:13Z</time></trkpt><trkpt lat="-23.706721" lon="-46.68817"><ele>750.0</ele><time>2017-02-16T11:56:22Z</time></trkpt><trkpt lat="-23.706635" lon="-46.688127"><ele>748.0</ele><time>2017-02-16T11:56:31Z</time></trkpt><trkpt lat="-23.706547" lon="-46.688094"><ele>752.0</ele><time>2017-02-16T11:56:38Z</time></trkpt><trkpt lat="-23.706479" lon="-46.688018"><ele>750.0</ele><time>2017-02-16T11:56:44Z</time></trkpt><trkpt lat="-23.70638" lon="-46.687996"><ele>755.0</ele><time>2017-02-16T11:56:52Z</time></trkpt><trkpt lat="-23.706288" lon="-46.687959"><ele>760.0</ele><time>2017-02-16T11:56:59Z</time></trkpt><trkpt lat="-23.706194" lon="-46.687934"><ele>754.0</ele><time>2017-02-16T11:57:07Z</time></trkpt><trkpt lat="-23.706115" lon="-46.687882"><ele>751.0</ele><time>2017-02-16T11:57:14Z</time></trkpt><trkpt lat="-23.706021" lon="-46.68789"><ele>749.0</ele><time>2017-02-16T11:57:21Z</time></trkpt><trkpt lat="-23.705922" lon="-46.687863"><ele>749.0</ele><time>2017-02-16T11:57:29Z</time></trkpt><trkpt lat="-23.70587" lon="-46.68778"><ele>749.0</ele><time>2017-02-16T11:57:36Z</time></trkpt><trkpt lat="-23.705793" lon="-46.687709"><ele>751.0</ele><time>2017-02-16T11:57:44Z</time></trkpt><trkpt lat="-23.7057" lon="-46.687687"><ele>756.0</ele><time>2017-02-16T11:57:50Z</time></trkpt><trkpt lat="-23.705614" lon="-46.687638"><ele>745.0</ele><time>2017-02-16T11:57:58Z</time></trkpt><trkpt lat="-23.705563" lon="-46.687554"><ele>746.0</ele><time>2017-02-16T11:58:04Z</time></trkpt><trkpt lat="-23.705467" lon="-46.687544"><ele>746.0</ele><time>2017-02-16T11:58:13Z</time></trkpt><trkpt lat="-23.70537" lon="-46.687517"><ele>748.0</ele><time>2017-02-16T11:58:19Z</time></trkpt><trkpt lat="-23.705287" lon="-46.687456"><ele>739.0</ele><time>2017-02-16T11:58:27Z</time></trkpt><trkpt lat="-23.705205" lon="-46.687402"><ele>742.0</ele><time>2017-02-16T11:58:34Z</time></trkpt><trkpt lat="-23.705115" lon="-46.68736"><ele>743.0</ele><time>2017-02-16T11:58:42Z</time></trkpt><trkpt lat="-23.705037" lon="-46.687307"><ele>741.0</ele><time>2017-02-16T11:58:52Z</time></trkpt><trkpt lat="-23.704949" lon="-46.687283"><ele>742.0</ele><time>2017-02-16T11:59:02Z</time></trkpt><trkpt lat="-23.704846" lon="-46.687259"><ele>744.0</ele><time>2017-02-16T11:59:12Z</time></trkpt><trkpt lat="-23.704764" lon="-46.687201"><ele>739.0</ele><time>2017-02-16T11:59:19Z</time></trkpt><trkpt lat="-23.704681" lon="-46.687141"><ele>745.0</ele><time>2017-02-16T11:59:27Z</time></trkpt><trkpt lat="-23.704605" lon="-46.687059"><ele>770.0</ele><time>2017-02-16T11:59:34Z</time></trkpt><trkpt lat="-23.704548" lon="-46.686979"><ele>753.0</ele><time>2017-02-16T11:59:41Z</time></trkpt><trkpt lat="-23.704458" lon="-46.686952"><ele>740.0</ele><time>2017-02-16T11:59:51Z</time></trkpt><trkpt lat="-23.704394" lon="-46.686878"><ele>731.0</ele><time>2017-02-16T12:00:01Z</time></trkpt><trkpt lat="-23.704315" lon="-46.686807"><ele>732.0</ele><time>2017-02-16T12:00:09Z</time></trkpt><trkpt lat="-23.704231" lon="-46.686754"><ele>738.0</ele><time>2017-02-16T12:00:19Z</time></trkpt><trkpt lat="-23.704171" lon="-46.686672"><ele>741.0</ele><time>2017-02-16T12:00:28Z</time></trkpt><trkpt lat="-23.704097" lon="-46.686591"><ele>741.0</ele><time>2017-02-16T12:00:37Z</time></trkpt><trkpt lat="-23.70404" lon="-46.686497"><ele>761.0</ele><time>2017-02-16T12:00:45Z</time></trkpt><trkpt lat="-23.704001" lon="-46.686403"><ele>743.0</ele><time>2017-02-16T12:00:54Z</time></trkpt><trkpt lat="-23.703967" lon="-46.686298"><ele>744.0</ele><time>2017-02-16T12:01:03Z</time></trkpt><trkpt lat="-23.703882" lon="-46.686266"><ele>744.0</ele><time>2017-02-16T12:01:09Z</time></trkpt><trkpt lat="-23.703797" lon="-46.686202"><ele>743.0</ele><time>2017-02-16T12:01:59Z</time></trkpt><trkpt lat="-23.703732" lon="-46.686121"><ele>739.0</ele><time>2017-02-16T12:02:04Z</time></trkpt><trkpt lat="-23.703648" lon="-46.686046"><ele>738.0</ele><time>2017-02-16T12:02:08Z</time></trkpt><trkpt lat="-23.703554" lon="-46.68598"><ele>741.0</ele><time>2017-02-16T12:02:12Z</time></trkpt><trkpt lat="-23.703507" lon="-46.685887"><ele>750.0</ele><time>2017-02-16T12:02:16Z</time></trkpt><trkpt lat="-23.703431" lon="-46.685822"><ele>744.0</ele><time>2017-02-16T12:02:53Z</time></trkpt><trkpt lat="-23.70339" lon="-46.685722"><ele>737.0</ele><time>2017-02-16T12:03:01Z</time></trkpt><trkpt lat="-23.703348" lon="-46.685626"><ele>732.0</ele><time>2017-02-16T12:03:08Z</time></trkpt><trkpt lat="-23.703294" lon="-46.685547"><ele>731.0</ele><time>2017-02-16T12:03:15Z</time></trkpt><trkpt lat="-23.70322" lon="-46.685486"><ele>730.0</ele><time>2017-02-16T12:03:21Z</time></trkpt><trkpt lat="-23.703145" lon="-46.68543"><ele>726.0</ele><time>2017-02-16T12:03:27Z</time></trkpt><trkpt lat="-23.703058" lon="-46.685381"><ele>725.0</ele><time>2017-02-16T12:03:35Z</time></trkpt><trkpt lat="-23.70297" lon="-46.685356"><ele>728.0</ele><time>2017-02-16T12:03:42Z</time></trkpt><trkpt lat="-23.702874" lon="-46.68533"><ele>727.0</ele><time>2017-02-16T12:03:51Z</time></trkpt><trkpt lat="-23.702775" lon="-46.6853"><ele>726.0</ele><time>2017-02-16T12:04:00Z</time></trkpt><trkpt lat="-23.702675" lon="-46.685274"><ele>728.0</ele><time>2017-02-16T12:04:07Z</time></trkpt><trkpt lat="-23.702587" lon="-46.685249"><ele>730.0</ele><time>2017-02-16T12:04:13Z</time></trkpt><trkpt lat="-23.702497" lon="-46.685232"><ele>733.0</ele><time>2017-02-16T12:04:20Z</time></trkpt><trkpt lat="-23.702402" lon="-46.685199"><ele>735.0</ele><time>2017-02-16T12:04:27Z</time></trkpt><trkpt lat="-23.702308" lon="-46.685188"><ele>736.0</ele><time>2017-02-16T12:04:35Z</time></trkpt><trkpt lat="-23.702216" lon="-46.685191"><ele>735.0</ele><time>2017-02-16T12:04:48Z</time></trkpt><trkpt lat="-23.702118" lon="-46.685173"><ele>738.0</ele><time>2017-02-16T12:04:54Z</time></trkpt><trkpt lat="-23.702031" lon="-46.685141"><ele>734.0</ele><time>2017-02-16T12:05:00Z</time></trkpt><trkpt lat="-23.701952" lon="-46.685094"><ele>737.0</ele><time>2017-02-16T12:05:06Z</time></trkpt><trkpt lat="-23.70186" lon="-46.685068"><ele>734.0</ele><time>2017-02-16T12:05:14Z</time></trkpt><trkpt lat="-23.701767" lon="-46.685049"><ele>733.0</ele><time>2017-02-16T12:05:22Z</time></trkpt><trkpt lat="-23.701671" lon="-46.685026"><ele>733.0</ele><time>2017-02-16T12:05:32Z</time></trkpt><trkpt lat="-23.70158" lon="-46.684974"><ele>732.0</ele><time>2017-02-16T12:05:40Z</time></trkpt><trkpt lat="-23.701487" lon="-46.684934"><ele>732.0</ele><time>2017-02-16T12:05:48Z</time></trkpt><trkpt lat="-23.701394" lon="-46.684919"><ele>734.0</ele><time>2017-02-16T12:05:56Z</time></trkpt><trkpt lat="-23.701306" lon="-46.684898"><ele>734.0</ele><time>2017-02-16T12:06:03Z</time></trkpt><trkpt lat="-23.701214" lon="-46.684883"><ele>732.0</ele><time>2017-02-16T12:06:12Z</time></trkpt><trkpt lat="-23.701113" lon="-46.684861"><ele>733.0</ele><time>2017-02-16T12:06:21Z</time></trkpt><trkpt lat="-23.701026" lon="-46.684823"><ele>729.0</ele><time>2017-02-16T12:06:46Z</time></trkpt><trkpt lat="-23.700936" lon="-46.684804"><ele>729.0</ele><time>2017-02-16T12:06:53Z</time></trkpt><trkpt lat="-23.700841" lon="-46.684801"><ele>731.0</ele><time>2017-02-16T12:08:07Z</time></trkpt><trkpt lat="-23.70075" lon="-46.684817"><ele>735.0</ele><time>2017-02-16T12:08:42Z</time></trkpt><trkpt lat="-23.700661" lon="-46.684788"><ele>734.0</ele><time>2017-02-16T12:08:53Z</time></trkpt><trkpt lat="-23.700565" lon="-46.684757"><ele>734.0</ele><time>2017-02-16T12:09:01Z</time></trkpt><trkpt lat="-23.700471" lon="-46.68473"><ele>733.0</ele><time>2017-02-16T12:09:09Z</time></trkpt><trkpt lat="-23.700377" lon="-46.684705"><ele>735.0</ele><time>2017-02-16T12:09:17Z</time></trkpt><trkpt lat="-23.700291" lon="-46.684666"><ele>732.0</ele><time>2017-02-16T12:09:50Z</time></trkpt><trkpt lat="-23.700191" lon="-46.684672"><ele>736.0</ele><time>2017-02-16T12:10:31Z</time></trkpt><trkpt lat="-23.700094" lon="-46.684644"><ele>735.0</ele><time>2017-02-16T12:10:40Z</time></trkpt><trkpt lat="-23.700002" lon="-46.684605"><ele>732.0</ele><time>2017-02-16T12:10:49Z</time></trkpt><trkpt lat="-23.699914" lon="-46.684582"><ele>731.0</ele><time>2017-02-16T12:10:58Z</time></trkpt><trkpt lat="-23.699814" lon="-46.684551"><ele>728.0</ele><time>2017-02-16T12:11:06Z</time></trkpt><trkpt lat="-23.699721" lon="-46.684525"><ele>726.0</ele><time>2017-02-16T12:11:14Z</time></trkpt><trkpt lat="-23.699629" lon="-46.684487"><ele>723.0</ele><time>2017-02-16T12:11:23Z</time></trkpt><trkpt lat="-23.699536" lon="-46.684455"><ele>727.0</ele><time>2017-02-16T12:11:36Z</time></trkpt><trkpt lat="-23.699445" lon="-46.684466"><ele>728.0</ele><time>2017-02-16T12:11:41Z</time></trkpt><trkpt lat="-23.699353" lon="-46.684454"><ele>726.0</ele><time>2017-02-16T12:11:47Z</time></trkpt><trkpt lat="-23.699257" lon="-46.684429"><ele>724.0</ele><time>2017-02-16T12:11:55Z</time></trkpt><trkpt lat="-23.699166" lon="-46.684417"><ele>727.0</ele><time>2017-02-16T12:12:02Z</time></trkpt><trkpt lat="-23.699068" lon="-46.68439"><ele>726.0</ele><time>2017-02-16T12:12:09Z</time></trkpt><trkpt lat="-23.698979" lon="-46.684364"><ele>724.0</ele><time>2017-02-16T12:12:16Z</time></trkpt><trkpt lat="-23.698887" lon="-46.684331"><ele>725.0</ele><time>2017-02-16T12:12:24Z</time></trkpt><trkpt lat="-23.698799" lon="-46.684302"><ele>724.0</ele><time>2017-02-16T12:12:31Z</time></trkpt><trkpt lat="-23.698706" lon="-46.684285"><ele>725.0</ele><time>2017-02-16T12:12:39Z</time></trkpt><trkpt lat="-23.698612" lon="-46.684276"><ele>727.0</ele><time>2017-02-16T12:12:47Z</time></trkpt><trkpt lat="-23.698523" lon="-46.684245"><ele>724.0</ele><time>2017-02-16T12:12:55Z</time></trkpt><trkpt lat="-23.698427" lon="-46.684237"><ele>726.0</ele><time>2017-02-16T12:13:03Z</time></trkpt><trkpt lat="-23.698337" lon="-46.684207"><ele>726.0</ele><time>2017-02-16T12:13:10Z</time></trkpt><trkpt lat="-23.698232" lon="-46.684186"><ele>726.0</ele><time>2017-02-16T12:13:30Z</time></trkpt><trkpt lat="-23.698136" lon="-46.684171"><ele>725.0</ele><time>2017-02-16T12:13:36Z</time></trkpt><trkpt lat="-23.698039" lon="-46.684146"><ele>724.0</ele><time>2017-02-16T12:13:44Z</time></trkpt><trkpt lat="-23.697949" lon="-46.684121"><ele>725.0</ele><time>2017-02-16T12:13:52Z</time></trkpt><trkpt lat="-23.697855" lon="-46.684112"><ele>725.0</ele><time>2017-02-16T12:14:00Z</time></trkpt><trkpt lat="-23.697765" lon="-46.684089"><ele>723.0</ele><time>2017-02-16T12:14:07Z</time></trkpt><trkpt lat="-23.697665" lon="-46.684069"><ele>725.0</ele><time>2017-02-16T12:14:14Z</time></trkpt><trkpt lat="-23.69757" lon="-46.684063"><ele>728.0</ele><time>2017-02-16T12:14:21Z</time></trkpt><trkpt lat="-23.697481" lon="-46.684033"><ele>729.0</ele><time>2017-02-16T12:14:28Z</time></trkpt><trkpt lat="-23.697385" lon="-46.684042"><ele>731.0</ele><time>2017-02-16T12:14:36Z</time></trkpt><trkpt lat="-23.697286" lon="-46.684005"><ele>736.0</ele><time>2017-02-16T12:14:46Z</time></trkpt><trkpt lat="-23.697184" lon="-46.684048"><ele>731.0</ele><time>2017-02-16T12:14:51Z</time></trkpt><trkpt lat="-23.697095" lon="-46.684017"><ele>728.0</ele><time>2017-02-16T12:14:56Z</time></trkpt><trkpt lat="-23.69711" lon="-46.683908"><ele>735.0</ele><time>2017-02-16T12:15:01Z</time></trkpt><trkpt lat="-23.697007" lon="-46.683902"><ele>742.0</ele><time>2017-02-16T12:15:09Z</time></trkpt><trkpt lat="-23.696888" lon="-46.683899"><ele>743.0</ele><time>2017-02-16T12:15:14Z</time></trkpt><trkpt lat="-23.696788" lon="-46.683902"><ele>743.0</ele><time>2017-02-16T12:15:19Z</time></trkpt><trkpt lat="-23.696687" lon="-46.683914"><ele>739.0</ele><time>2017-02-16T12:15:26Z</time></trkpt><trkpt lat="-23.69663" lon="-46.683837"><ele>737.0</ele><time>2017-02-16T12:15:37Z</time></trkpt><trkpt lat="-23.696532" lon="-46.683835"><ele>735.0</ele><time>2017-02-16T12:15:46Z</time></trkpt><trkpt lat="-23.69645" lon="-46.683792"><ele>736.0</ele><time>2017-02-16T12:15:56Z</time></trkpt><trkpt lat="-23.696364" lon="-46.683849"><ele>733.0</ele><time>2017-02-16T12:16:01Z</time></trkpt><trkpt lat="-23.696295" lon="-46.683782"><ele>735.0</ele><time>2017-02-16T12:16:08Z</time></trkpt><trkpt lat="-23.696192" lon="-46.683782"><ele>736.0</ele><time>2017-02-16T12:16:16Z</time></trkpt><trkpt lat="-23.696095" lon="-46.68375"><ele>736.0</ele><time>2017-02-16T12:16:21Z</time></trkpt><trkpt lat="-23.696018" lon="-46.683689"><ele>731.0</ele><time>2017-02-16T12:16:31Z</time></trkpt><trkpt lat="-23.695931" lon="-46.683661"><ele>731.0</ele><time>2017-02-16T12:16:39Z</time></trkpt><trkpt lat="-23.695838" lon="-46.683631"><ele>727.0</ele><time>2017-02-16T12:16:48Z</time></trkpt><trkpt lat="-23.695734" lon="-46.683612"><ele>726.0</ele><time>2017-02-16T12:16:56Z</time></trkpt><trkpt lat="-23.695646" lon="-46.683637"><ele>723.0</ele><time>2017-02-16T12:17:00Z</time></trkpt><trkpt lat="-23.695567" lon="-46.683584"><ele>718.0</ele><time>2017-02-16T12:17:07Z</time></trkpt><trkpt lat="-23.695472" lon="-46.683541"><ele>724.0</ele><time>2017-02-16T12:17:15Z</time></trkpt><trkpt lat="-23.695372" lon="-46.683504"><ele>733.0</ele><time>2017-02-16T12:17:25Z</time></trkpt><trkpt lat="-23.695276" lon="-46.683515"><ele>733.0</ele><time>2017-02-16T12:17:31Z</time></trkpt><trkpt lat="-23.695202" lon="-46.683445"><ele>734.0</ele><time>2017-02-16T12:17:39Z</time></trkpt><trkpt lat="-23.695132" lon="-46.683375"><ele>733.0</ele><time>2017-02-16T12:17:48Z</time></trkpt><trkpt lat="-23.695044" lon="-46.683331"><ele>734.0</ele><time>2017-02-16T12:17:57Z</time></trkpt><trkpt lat="-23.694954" lon="-46.683292"><ele>735.0</ele><time>2017-02-16T12:18:04Z</time></trkpt><trkpt lat="-23.694876" lon="-46.683221"><ele>737.0</ele><time>2017-02-16T12:18:12Z</time></trkpt><trkpt lat="-23.69483" lon="-46.683117"><ele>731.0</ele><time>2017-02-16T12:18:18Z</time></trkpt><trkpt lat="-23.694782" lon="-46.683031"><ele>726.0</ele><time>2017-02-16T12:18:35Z</time></trkpt><trkpt lat="-23.694752" lon="-46.682937"><ele>724.0</ele><time>2017-02-16T12:18:39Z</time></trkpt><trkpt lat="-23.694708" lon="-46.682848"><ele>723.0</ele><time>2017-02-16T12:18:44Z</time></trkpt><trkpt lat="-23.694673" lon="-46.682756"><ele>723.0</ele><time>2017-02-16T12:18:49Z</time></trkpt><trkpt lat="-23.694624" lon="-46.682664"><ele>727.0</ele><time>2017-02-16T12:18:53Z</time></trkpt><trkpt lat="-23.694586" lon="-46.682574"><ele>725.0</ele><time>2017-02-16T12:18:59Z</time></trkpt><trkpt lat="-23.694531" lon="-46.682487"><ele>722.0</ele><time>2017-02-16T12:19:10Z</time></trkpt><trkpt lat="-23.694481" lon="-46.682399"><ele>720.0</ele><time>2017-02-16T12:19:19Z</time></trkpt><trkpt lat="-23.6945" lon="-46.68229"><ele>723.0</ele><time>2017-02-16T12:19:58Z</time></trkpt><trkpt lat="-23.694512" lon="-46.682187"><ele>724.0</ele><time>2017-02-16T12:20:04Z</time></trkpt><trkpt lat="-23.69452" lon="-46.682071"><ele>724.0</ele><time>2017-02-16T12:20:12Z</time></trkpt><trkpt lat="-23.694532" lon="-46.681971"><ele>723.0</ele><time>2017-02-16T12:20:18Z</time></trkpt><trkpt lat="-23.694542" lon="-46.681869"><ele>721.0</ele><time>2017-02-16T12:20:25Z</time></trkpt><trkpt lat="-23.694565" lon="-46.681746"><ele>725.0</ele><time>2017-02-16T12:20:35Z</time></trkpt><trkpt lat="-23.694587" lon="-46.681647"><ele>727.0</ele><time>2017-02-16T12:20:43Z</time></trkpt><trkpt lat="-23.694609" lon="-46.681542"><ele>727.0</ele><time>2017-02-16T12:20:51Z</time></trkpt><trkpt lat="-23.694628" lon="-46.681438"><ele>728.0</ele><time>2017-02-16T12:20:59Z</time></trkpt><trkpt lat="-23.694653" lon="-46.681331"><ele>727.0</ele><time>2017-02-16T12:21:07Z</time></trkpt><trkpt lat="-23.694675" lon="-46.681236"><ele>726.0</ele><time>2017-02-16T12:21:15Z</time></trkpt><trkpt lat="-23.694697" lon="-46.681133"><ele>725.0</ele><time>2017-02-16T12:21:23Z</time></trkpt><trkpt lat="-23.694714" lon="-46.681027"><ele>725.0</ele><time>2017-02-16T12:21:31Z</time></trkpt><trkpt lat="-23.694731" lon="-46.680925"><ele>726.0</ele><time>2017-02-16T12:21:39Z</time></trkpt><trkpt lat="-23.694754" lon="-46.680827"><ele>725.0</ele><time>2017-02-16T12:21:47Z</time></trkpt><trkpt lat="-23.694766" lon="-46.680721"><ele>725.0</ele><time>2017-02-16T12:21:55Z</time></trkpt><trkpt lat="-23.69478" lon="-46.680623"><ele>727.0</ele><time>2017-02-16T12:22:03Z</time></trkpt><trkpt lat="-23.694797" lon="-46.680523"><ele>727.0</ele><time>2017-02-16T12:22:11Z</time></trkpt><trkpt lat="-23.694814" lon="-46.680415"><ele>729.0</ele><time>2017-02-16T12:22:20Z</time></trkpt><trkpt lat="-23.694818" lon="-46.680313"><ele>730.0</ele><time>2017-02-16T12:22:28Z</time></trkpt><trkpt lat="-23.694842" lon="-46.680212"><ele>727.0</ele><time>2017-02-16T12:22:38Z</time></trkpt><trkpt lat="-23.694868" lon="-46.680112"><ele>726.0</ele><time>2017-02-16T12:22:45Z</time></trkpt><trkpt lat="-23.694885" lon="-46.680004"><ele>726.0</ele><time>2017-02-16T12:22:54Z</time></trkpt><trkpt lat="-23.6949" lon="-46.679901"><ele>727.0</ele><time>2017-02-16T12:23:02Z</time></trkpt><trkpt lat="-23.694924" lon="-46.679798"><ele>723.0</ele><time>2017-02-16T12:23:10Z</time></trkpt><trkpt lat="-23.694943" lon="-46.679701"><ele>725.0</ele><time>2017-02-16T12:23:18Z</time></trkpt><trkpt lat="-23.694986" lon="-46.67961"><ele>721.0</ele><time>2017-02-16T12:23:29Z</time></trkpt><trkpt lat="-23.694987" lon="-46.679502"><ele>717.0</ele><time>2017-02-16T12:23:36Z</time></trkpt><trkpt lat="-23.694987" lon="-46.67939"><ele>720.0</ele><time>2017-02-16T12:23:43Z</time></trkpt><trkpt lat="-23.694991" lon="-46.679279"><ele>720.0</ele><time>2017-02-16T12:23:50Z</time></trkpt><trkpt lat="-23.695061" lon="-46.679205"><ele>724.0</ele><time>2017-02-16T12:23:57Z</time></trkpt><trkpt lat="-23.695125" lon="-46.679132"><ele>722.0</ele><time>2017-02-16T12:24:05Z</time></trkpt><trkpt lat="-23.695133" lon="-46.679027"><ele>722.0</ele><time>2017-02-16T12:24:15Z</time></trkpt><trkpt lat="-23.695087" lon="-46.678922"><ele>730.0</ele><time>2017-02-16T12:24:23Z</time></trkpt><trkpt lat="-23.695096" lon="-46.678813"><ele>736.0</ele><time>2017-02-16T12:24:28Z</time></trkpt><trkpt lat="-23.695059" lon="-46.678705"><ele>732.0</ele><time>2017-02-16T12:24:34Z</time></trkpt><trkpt lat="-23.695049" lon="-46.678593"><ele>729.0</ele><time>2017-02-16T12:24:39Z</time></trkpt><trkpt lat="-23.695157" lon="-46.67857"><ele>729.0</ele><time>2017-02-16T12:24:45Z</time></trkpt><trkpt lat="-23.695159" lon="-46.67846"><ele>727.0</ele><time>2017-02-16T12:24:53Z</time></trkpt><trkpt lat="-23.695185" lon="-46.678365"><ele>729.0</ele><time>2017-02-16T12:25:01Z</time></trkpt><trkpt lat="-23.695222" lon="-46.678266"><ele>725.0</ele><time>2017-02-16T12:25:09Z</time></trkpt><trkpt lat="-23.69525" lon="-46.678169"><ele>724.0</ele><time>2017-02-16T12:25:16Z</time></trkpt><trkpt lat="-23.695256" lon="-46.678069"><ele>725.0</ele><time>2017-02-16T12:25:24Z</time></trkpt><trkpt lat="-23.695264" lon="-46.677965"><ele>728.0</ele><time>2017-02-16T12:25:33Z</time></trkpt><trkpt lat="-23.695281" lon="-46.677864"><ele>730.0</ele><time>2017-02-16T12:25:41Z</time></trkpt><trkpt lat="-23.695303" lon="-46.677755"><ele>724.0</ele><time>2017-02-16T12:25:50Z</time></trkpt><trkpt lat="-23.695338" lon="-46.677655"><ele>723.0</ele><time>2017-02-16T12:25:58Z</time></trkpt><trkpt lat="-23.695378" lon="-46.677566"><ele>724.0</ele><time>2017-02-16T12:26:09Z</time></trkpt><trkpt lat="-23.695386" lon="-46.677453"><ele>723.0</ele><time>2017-02-16T12:26:17Z</time></trkpt><trkpt lat="-23.695378" lon="-46.677336"><ele>723.0</ele><time>2017-02-16T12:26:23Z</time></trkpt><trkpt lat="-23.695422" lon="-46.677247"><ele>729.0</ele><time>2017-02-16T12:27:34Z</time></trkpt><trkpt lat="-23.695429" lon="-46.677144"><ele>731.0</ele><time>2017-02-16T12:27:40Z</time></trkpt><trkpt lat="-23.695446" lon="-46.677043"><ele>730.0</ele><time>2017-02-16T12:27:47Z</time></trkpt><trkpt lat="-23.695492" lon="-46.676955"><ele>731.0</ele><time>2017-02-16T12:28:17Z</time></trkpt><trkpt lat="-23.6955" lon="-46.676846"><ele>731.0</ele><time>2017-02-16T12:28:26Z</time></trkpt><trkpt lat="-23.695572" lon="-46.676782"><ele>731.0</ele><time>2017-02-16T12:28:32Z</time></trkpt><trkpt lat="-23.695603" lon="-46.676687"><ele>731.0</ele><time>2017-02-16T12:28:39Z</time></trkpt><trkpt lat="-23.69564" lon="-46.676588"><ele>731.0</ele><time>2017-02-16T12:29:01Z</time></trkpt><trkpt lat="-23.695597" lon="-46.676488"><ele>732.0</ele><time>2017-02-16T12:29:11Z</time></trkpt><trkpt lat="-23.69551" lon="-46.676463"><ele>734.0</ele><time>2017-02-16T12:29:19Z</time></trkpt><trkpt lat="-23.695449" lon="-46.676375"><ele>730.0</ele><time>2017-02-16T12:29:28Z</time></trkpt><trkpt lat="-23.695504" lon="-46.676289"><ele>731.0</ele><time>2017-02-16T12:29:38Z</time></trkpt><trkpt lat="-23.695581" lon="-46.676223"><ele>735.0</ele><time>2017-02-16T12:29:49Z</time></trkpt><trkpt lat="-23.695661" lon="-46.676163"><ele>738.0</ele><time>2017-02-16T12:30:02Z</time></trkpt><trkpt lat="-23.695727" lon="-46.676087"><ele>739.0</ele><time>2017-02-16T12:30:10Z</time></trkpt><trkpt lat="-23.695812" lon="-46.676034"><ele>741.0</ele><time>2017-02-16T12:30:19Z</time></trkpt><trkpt lat="-23.695868" lon="-46.675955"><ele>736.0</ele><time>2017-02-16T12:30:26Z</time></trkpt><trkpt lat="-23.695908" lon="-46.675855"><ele>733.0</ele><time>2017-02-16T12:30:43Z</time></trkpt><trkpt lat="-23.695987" lon="-46.675798"><ele>736.0</ele><time>2017-02-16T12:30:52Z</time></trkpt><trkpt lat="-23.696053" lon="-46.675717"><ele>738.0</ele><time>2017-02-16T12:31:08Z</time></trkpt><trkpt lat="-23.696071" lon="-46.675617"><ele>738.0</ele><time>2017-02-16T12:31:17Z</time></trkpt><trkpt lat="-23.696149" lon="-46.675539"><ele>739.0</ele><time>2017-02-16T12:31:23Z</time></trkpt><trkpt lat="-23.696202" lon="-46.675448"><ele>737.0</ele><time>2017-02-16T12:31:31Z</time></trkpt><trkpt lat="-23.696259" lon="-46.675367"><ele>738.0</ele><time>2017-02-16T12:31:38Z</time></trkpt><trkpt lat="-23.696298" lon="-46.675274"><ele>737.0</ele><time>2017-02-16T12:31:46Z</time></trkpt><trkpt lat="-23.696362" lon="-46.675183"><ele>733.0</ele><time>2017-02-16T12:31:59Z</time></trkpt><trkpt lat="-23.696398" lon="-46.675089"><ele>735.0</ele><time>2017-02-16T12:32:04Z</time></trkpt><trkpt lat="-23.696474" lon="-46.675016"><ele>734.0</ele><time>2017-02-16T12:32:10Z</time></trkpt><trkpt lat="-23.69651" lon="-46.674914"><ele>737.0</ele><time>2017-02-16T12:32:17Z</time></trkpt><trkpt lat="-23.69654" lon="-46.67482"><ele>738.0</ele><time>2017-02-16T12:32:26Z</time></trkpt><trkpt lat="-23.696591" lon="-46.674728"><ele>739.0</ele><time>2017-02-16T12:32:37Z</time></trkpt><trkpt lat="-23.696645" lon="-46.674647"><ele>738.0</ele><time>2017-02-16T12:32:44Z</time></trkpt><trkpt lat="-23.696669" lon="-46.674545"><ele>735.0</ele><time>2017-02-16T12:32:51Z</time></trkpt><trkpt lat="-23.696712" lon="-46.674452"><ele>735.0</ele><time>2017-02-16T12:32:58Z</time></trkpt><trkpt lat="-23.696744" lon="-46.674354"><ele>734.0</ele><time>2017-02-16T12:33:07Z</time></trkpt><trkpt lat="-23.696801" lon="-46.674264"><ele>734.0</ele><time>2017-02-16T12:33:14Z</time></trkpt><trkpt lat="-23.696846" lon="-46.674178"><ele>733.0</ele><time>2017-02-16T12:33:20Z</time></trkpt><trkpt lat="-23.696834" lon="-46.674075"><ele>730.0</ele><time>2017-02-16T12:33:29Z</time></trkpt><trkpt lat="-23.696875" lon="-46.67398"><ele>735.0</ele><time>2017-02-16T12:33:47Z</time></trkpt><trkpt lat="-23.696894" lon="-46.673873"><ele>735.0</ele><time>2017-02-16T12:33:55Z</time></trkpt><trkpt lat="-23.696939" lon="-46.673774"><ele>736.0</ele><time>2017-02-16T12:34:03Z</time></trkpt><trkpt lat="-23.696972" lon="-46.673674"><ele>736.0</ele><time>2017-02-16T12:34:13Z</time></trkpt><trkpt lat="-23.696978" lon="-46.673571"><ele>735.0</ele><time>2017-02-16T12:34:21Z</time></trkpt><trkpt lat="-23.696995" lon="-46.673468"><ele>735.0</ele><time>2017-02-16T12:34:29Z</time></trkpt><trkpt lat="-23.696997" lon="-46.673363"><ele>736.0</ele><time>2017-02-16T12:34:37Z</time></trkpt><trkpt lat="-23.696937" lon="-46.673282"><ele>733.0</ele><time>2017-02-16T12:34:45Z</time></trkpt><trkpt lat="-23.696997" lon="-46.673191"><ele>733.0</ele><time>2017-02-16T12:34:52Z</time></trkpt><trkpt lat="-23.696996" lon="-46.673084"><ele>734.0</ele><time>2017-02-16T12:35:00Z</time></trkpt><trkpt lat="-23.697006" lon="-46.672975"><ele>733.0</ele><time>2017-02-16T12:35:09Z</time></trkpt><trkpt lat="-23.697038" lon="-46.672873"><ele>736.0</ele><time>2017-02-16T12:35:17Z</time></trkpt><trkpt lat="-23.696951" lon="-46.672843"><ele>735.0</ele><time>2017-02-16T12:35:22Z</time></trkpt><trkpt lat="-23.696972" lon="-46.672742"><ele>736.0</ele><time>2017-02-16T12:35:31Z</time></trkpt><trkpt lat="-23.696994" lon="-46.672647"><ele>736.0</ele><time>2017-02-16T12:35:38Z</time></trkpt><trkpt lat="-23.696991" lon="-46.672548"><ele>737.0</ele><time>2017-02-16T12:35:46Z</time></trkpt><trkpt lat="-23.696989" lon="-46.672438"><ele>737.0</ele><time>2017-02-16T12:35:54Z</time></trkpt><trkpt lat="-23.697031" lon="-46.672338"><ele>739.0</ele><time>2017-02-16T12:36:01Z</time></trkpt><trkpt lat="-23.69703" lon="-46.672231"><ele>741.0</ele><time>2017-02-16T12:36:10Z</time></trkpt><trkpt lat="-23.697017" lon="-46.672128"><ele>738.0</ele><time>2017-02-16T12:36:19Z</time></trkpt><trkpt lat="-23.697035" lon="-46.672026"><ele>737.0</ele><time>2017-02-16T12:36:29Z</time></trkpt><trkpt lat="-23.697032" lon="-46.671927"><ele>738.0</ele><time>2017-02-16T12:36:38Z</time></trkpt><trkpt lat="-23.697016" lon="-46.671821"><ele>739.0</ele><time>2017-02-16T12:36:48Z</time></trkpt><trkpt lat="-23.697019" lon="-46.671721"><ele>739.0</ele><time>2017-02-16T12:36:58Z</time></trkpt><trkpt lat="-23.697" lon="-46.671619"><ele>740.0</ele><time>2017-02-16T12:37:05Z</time></trkpt><trkpt lat="-23.696982" lon="-46.671521"><ele>741.0</ele><time>2017-02-16T12:37:12Z</time></trkpt><trkpt lat="-23.696957" lon="-46.671418"><ele>737.0</ele><time>2017-02-16T12:37:20Z</time></trkpt><trkpt lat="-23.696974" lon="-46.671314"><ele>740.0</ele><time>2017-02-16T12:37:28Z</time></trkpt><trkpt lat="-23.697016" lon="-46.671214"><ele>743.0</ele><time>2017-02-16T12:37:36Z</time></trkpt><trkpt lat="-23.697033" lon="-46.671114"><ele>740.0</ele><time>2017-02-16T12:37:44Z</time></trkpt><trkpt lat="-23.697069" lon="-46.67101"><ele>738.0</ele><time>2017-02-16T12:37:53Z</time></trkpt><trkpt lat="-23.697053" lon="-46.670903"><ele>739.0</ele><time>2017-02-16T12:38:02Z</time></trkpt><trkpt lat="-23.69705" lon="-46.670793"><ele>739.0</ele><time>2017-02-16T12:38:10Z</time></trkpt><trkpt lat="-23.697098" lon="-46.670697"><ele>739.0</ele><time>2017-02-16T12:38:17Z</time></trkpt><trkpt lat="-23.697068" lon="-46.670595"><ele>743.0</ele><time>2017-02-16T12:38:27Z</time></trkpt><trkpt lat="-23.697029" lon="-46.670499"><ele>743.0</ele><time>2017-02-16T12:38:37Z</time></trkpt><trkpt lat="-23.697033" lon="-46.670396"><ele>745.0</ele><time>2017-02-16T12:38:47Z</time></trkpt><trkpt lat="-23.697087" lon="-46.6703"><ele>743.0</ele><time>2017-02-16T12:38:53Z</time></trkpt><trkpt lat="-23.697089" lon="-46.670198"><ele>746.0</ele><time>2017-02-16T12:39:02Z</time></trkpt><trkpt lat="-23.697071" lon="-46.670097"><ele>748.0</ele><time>2017-02-16T12:39:11Z</time></trkpt><trkpt lat="-23.69705" lon="-46.669998"><ele>748.0</ele><time>2017-02-16T12:39:19Z</time></trkpt><trkpt lat="-23.697038" lon="-46.669897"><ele>749.0</ele><time>2017-02-16T12:40:12Z</time></trkpt><trkpt lat="-23.696994" lon="-46.669806"><ele>756.0</ele><time>2017-02-16T12:40:20Z</time></trkpt><trkpt lat="-23.696932" lon="-46.669723"><ele>758.0</ele><time>2017-02-16T12:40:29Z</time></trkpt><trkpt lat="-23.696867" lon="-46.669642"><ele>752.0</ele><time>2017-02-16T12:40:38Z</time></trkpt><trkpt lat="-23.696807" lon="-46.669554"><ele>749.0</ele><time>2017-02-16T12:40:47Z</time></trkpt><trkpt lat="-23.696733" lon="-46.669483"><ele>751.0</ele><time>2017-02-16T12:40:55Z</time></trkpt><trkpt lat="-23.6967" lon="-46.66939"><ele>755.0</ele><time>2017-02-16T12:41:03Z</time></trkpt><trkpt lat="-23.696648" lon="-46.669306"><ele>756.0</ele><time>2017-02-16T12:41:14Z</time></trkpt><trkpt lat="-23.696613" lon="-46.66921"><ele>757.0</ele><time>2017-02-16T12:41:24Z</time></trkpt><trkpt lat="-23.696571" lon="-46.669114"><ele>757.0</ele><time>2017-02-16T12:41:33Z</time></trkpt><trkpt lat="-23.696515" lon="-46.669029"><ele>758.0</ele><time>2017-02-16T12:41:43Z</time></trkpt><trkpt lat="-23.696456" lon="-46.668949"><ele>768.0</ele><time>2017-02-16T12:41:53Z</time></trkpt><trkpt lat="-23.69641" lon="-46.668859"><ele>769.0</ele><time>2017-02-16T12:42:03Z</time></trkpt><trkpt lat="-23.696379" lon="-46.668763"><ele>771.0</ele><time>2017-02-16T12:42:13Z</time></trkpt><trkpt lat="-23.696318" lon="-46.668679"><ele>772.0</ele><time>2017-02-16T12:42:24Z</time></trkpt><trkpt lat="-23.696244" lon="-46.668618"><ele>775.0</ele><time>2017-02-16T12:42:35Z</time></trkpt><trkpt lat="-23.696144" lon="-46.668596"><ele>772.0</ele><time>2017-02-16T12:42:45Z</time></trkpt><trkpt lat="-23.696065" lon="-46.668531"><ele>772.0</ele><time>2017-02-16T12:42:53Z</time></trkpt><trkpt lat="-23.695966" lon="-46.668515"><ele>771.0</ele><time>2017-02-16T12:43:01Z</time></trkpt><trkpt lat="-23.695877" lon="-46.668479"><ele>772.0</ele><time>2017-02-16T12:43:09Z</time></trkpt><trkpt lat="-23.695791" lon="-46.668449"><ele>772.0</ele><time>2017-02-16T12:43:17Z</time></trkpt><trkpt lat="-23.6957" lon="-46.66841"><ele>772.0</ele><time>2017-02-16T12:43:27Z</time></trkpt><trkpt lat="-23.695618" lon="-46.668357"><ele>771.0</ele><time>2017-02-16T12:43:35Z</time></trkpt><trkpt lat="-23.695527" lon="-46.668318"><ele>768.0</ele><time>2017-02-16T12:43:43Z</time></trkpt><trkpt lat="-23.695428" lon="-46.668294"><ele>766.0</ele><time>2017-02-16T12:43:51Z</time></trkpt><trkpt lat="-23.695349" lon="-46.668234"><ele>767.0</ele><time>2017-02-16T12:44:04Z</time></trkpt><trkpt lat="-23.695267" lon="-46.66819"><ele>767.0</ele><time>2017-02-16T12:44:19Z</time></trkpt><trkpt lat="-23.695181" lon="-46.668139"><ele>765.0</ele><time>2017-02-16T12:44:27Z</time></trkpt><trkpt lat="-23.695092" lon="-46.668107"><ele>769.0</ele><time>2017-02-16T12:44:34Z</time></trkpt><trkpt lat="-23.695" lon="-46.668073"><ele>771.0</ele><time>2017-02-16T12:44:45Z</time></trkpt><trkpt lat="-23.694909" lon="-46.668047"><ele>772.0</ele><time>2017-02-16T12:44:52Z</time></trkpt><trkpt lat="-23.694816" lon="-46.668002"><ele>772.0</ele><time>2017-02-16T12:45:00Z</time></trkpt><trkpt lat="-23.694722" lon="-46.667993"><ele>776.0</ele><time>2017-02-16T12:45:08Z</time></trkpt><trkpt lat="-23.694659" lon="-46.667922"><ele>776.0</ele><time>2017-02-16T12:45:37Z</time></trkpt><trkpt lat="-23.694685" lon="-46.667825"><ele>776.0</ele><time>2017-02-16T12:45:47Z</time></trkpt><trkpt lat="-23.694693" lon="-46.667708"><ele>774.0</ele><time>2017-02-16T12:45:55Z</time></trkpt><trkpt lat="-23.694705" lon="-46.667598"><ele>775.0</ele><time>2017-02-16T12:46:02Z</time></trkpt><trkpt lat="-23.694746" lon="-46.66751"><ele>774.0</ele><time>2017-02-16T12:46:09Z</time></trkpt><trkpt lat="-23.694799" lon="-46.667421"><ele>773.0</ele><time>2017-02-16T12:46:17Z</time></trkpt><trkpt lat="-23.694846" lon="-46.667334"><ele>775.0</ele><time>2017-02-16T12:46:25Z</time></trkpt><trkpt lat="-23.694888" lon="-46.667243"><ele>775.0</ele><time>2017-02-16T12:46:35Z</time></trkpt><trkpt lat="-23.694836" lon="-46.667152"><ele>773.0</ele><time>2017-02-16T12:47:02Z</time></trkpt><trkpt lat="-23.69474" lon="-46.667143"><ele>774.0</ele><time>2017-02-16T12:47:12Z</time></trkpt><trkpt lat="-23.694639" lon="-46.667136"><ele>769.0</ele><time>2017-02-16T12:47:21Z</time></trkpt><trkpt lat="-23.694544" lon="-46.667144"><ele>768.0</ele><time>2017-02-16T12:47:30Z</time></trkpt><trkpt lat="-23.694444" lon="-46.667141"><ele>768.0</ele><time>2017-02-16T12:47:58Z</time></trkpt><trkpt lat="-23.694348" lon="-46.667108"><ele>769.0</ele><time>2017-02-16T12:48:07Z</time></trkpt><trkpt lat="-23.694298" lon="-46.667022"><ele>769.0</ele><time>2017-02-16T12:48:18Z</time></trkpt><trkpt lat="-23.694313" lon="-46.666917"><ele>767.0</ele><time>2017-02-16T12:48:28Z</time></trkpt><trkpt lat="-23.694313" lon="-46.666814"><ele>767.0</ele><time>2017-02-16T12:48:36Z</time></trkpt><trkpt lat="-23.694257" lon="-46.666732"><ele>769.0</ele><time>2017-02-16T12:48:45Z</time></trkpt><trkpt lat="-23.694186" lon="-46.666663"><ele>764.0</ele><time>2017-02-16T12:48:54Z</time></trkpt><trkpt lat="-23.694108" lon="-46.666605"><ele>766.0</ele><time>2017-02-16T12:49:03Z</time></trkpt><trkpt lat="-23.694024" lon="-46.666552"><ele>769.0</ele><time>2017-02-16T12:49:14Z</time></trkpt><trkpt lat="-23.693935" lon="-46.66652"><ele>767.0</ele><time>2017-02-16T12:49:25Z</time></trkpt><trkpt lat="-23.693844" lon="-46.666495"><ele>775.0</ele><time>2017-02-16T12:49:33Z</time></trkpt><trkpt lat="-23.693756" lon="-46.666449"><ele>778.0</ele><time>2017-02-16T12:49:44Z</time></trkpt><trkpt lat="-23.693669" lon="-46.666407"><ele>781.0</ele><time>2017-02-16T12:49:55Z</time></trkpt><trkpt lat="-23.693587" lon="-46.666357"><ele>786.0</ele><time>2017-02-16T12:50:05Z</time></trkpt><trkpt lat="-23.693532" lon="-46.666277"><ele>788.0</ele><time>2017-02-16T12:50:19Z</time></trkpt><trkpt lat="-23.69359" lon="-46.666191"><ele>776.0</ele><time>2017-02-16T12:50:46Z</time></trkpt><trkpt lat="-23.693621" lon="-46.66609"><ele>773.0</ele><time>2017-02-16T12:52:11Z</time></trkpt><trkpt lat="-23.693601" lon="-46.666202"><ele>779.0</ele><time>2017-02-16T12:52:16Z</time></trkpt><trkpt lat="-23.69363" lon="-46.666314"><ele>779.0</ele><time>2017-02-16T12:52:21Z</time></trkpt><trkpt lat="-23.693594" lon="-46.666421"><ele>781.0</ele><time>2017-02-16T12:52:28Z</time></trkpt><trkpt lat="-23.693525" lon="-46.666487"><ele>782.0</ele><time>2017-02-16T12:52:37Z</time></trkpt><trkpt lat="-23.69294" lon="-46.666192"><ele>784.0</ele><time>2017-02-16T12:53:36Z</time></trkpt><trkpt lat="-23.693043" lon="-46.666233"><ele>784.0</ele><time>2017-02-16T12:53:38Z</time></trkpt><trkpt lat="-23.693093" lon="-46.666315"><ele>786.0</ele><time>2017-02-16T12:53:40Z</time></trkpt><trkpt lat="-23.693279" lon="-46.666492"><ele>785.0</ele><time>2017-02-16T12:53:41Z</time></trkpt></trkseg></trk><trk><name><![CDATA[Pedreira - Campo Limpo]]></name><trkseg><trkpt lat="-23.689778" lon="-46.667225"><ele>754.0</ele><time>2017-02-17T07:17:12Z</time></trkpt><trkpt lat="-23.689785" lon="-46.667335"><ele>755.0</ele><time>2017-02-17T07:17:40Z</time></trkpt><trkpt lat="-23.689742" lon="-46.667425"><ele>760.0</ele><time>2017-02-17T07:17:46Z</time></trkpt><trkpt lat="-23.689743" lon="-46.667533"><ele>759.0</ele><time>2017-02-17T07:17:53Z</time></trkpt><trkpt lat="-23.689755" lon="-46.66764"><ele>757.0</ele><time>2017-02-17T07:18:00Z</time></trkpt><trkpt lat="-23.689785" lon="-46.66774"><ele>758.0</ele><time>2017-02-17T07:18:08Z</time></trkpt><trkpt lat="-23.689823" lon="-46.667832"><ele>759.0</ele><time>2017-02-17T07:18:17Z</time></trkpt><trkpt lat="-23.689835" lon="-46.667932"><ele>763.0</ele><time>2017-02-17T07:19:40Z</time></trkpt><trkpt lat="-23.68981" lon="-46.668033"><ele>760.0</ele><time>2017-02-17T07:19:48Z</time></trkpt><trkpt lat="-23.689783" lon="-46.668131"><ele>751.0</ele><time>2017-02-17T07:20:55Z</time></trkpt><trkpt lat="-23.689756" lon="-46.668247"><ele>753.0</ele><time>2017-02-17T07:21:01Z</time></trkpt><trkpt lat="-23.689745" lon="-46.668346"><ele>755.0</ele><time>2017-02-17T07:21:07Z</time></trkpt><trkpt lat="-23.689736" lon="-46.668449"><ele>753.0</ele><time>2017-02-17T07:21:14Z</time></trkpt><trkpt lat="-23.689773" lon="-46.668548"><ele>753.0</ele><time>2017-02-17T07:21:24Z</time></trkpt><trkpt lat="-23.689808" lon="-46.668638"><ele>754.0</ele><time>2017-02-17T07:21:34Z</time></trkpt><trkpt lat="-23.68976" lon="-46.668735"><ele>754.0</ele><time>2017-02-17T07:21:42Z</time></trkpt><trkpt lat="-23.68975" lon="-46.66884"><ele>760.0</ele><time>2017-02-17T07:21:50Z</time></trkpt><trkpt lat="-23.689716" lon="-46.668932"><ele>758.0</ele><time>2017-02-17T07:21:58Z</time></trkpt><trkpt lat="-23.689731" lon="-46.669047"><ele>751.0</ele><time>2017-02-17T07:22:06Z</time></trkpt><trkpt lat="-23.689792" lon="-46.669133"><ele>746.0</ele><time>2017-02-17T07:22:16Z</time></trkpt><trkpt lat="-23.689858" lon="-46.669209"><ele>746.0</ele><time>2017-02-17T07:22:25Z</time></trkpt><trkpt lat="-23.689933" lon="-46.669279"><ele>742.0</ele><time>2017-02-17T07:22:33Z</time></trkpt><trkpt lat="-23.690001" lon="-46.66935"><ele>740.0</ele><time>2017-02-17T07:22:43Z</time></trkpt><trkpt lat="-23.690069" lon="-46.669416"><ele>742.0</ele><time>2017-02-17T07:22:51Z</time></trkpt><trkpt lat="-23.690112" lon="-46.669503"><ele>744.0</ele><time>2017-02-17T07:22:57Z</time></trkpt><trkpt lat="-23.690207" lon="-46.669527"><ele>744.0</ele><time>2017-02-17T07:23:11Z</time></trkpt><trkpt lat="-23.690259" lon="-46.669615"><ele>738.0</ele><time>2017-02-17T07:23:17Z</time></trkpt><trkpt lat="-23.69027" lon="-46.669722"><ele>746.0</ele><time>2017-02-17T07:23:22Z</time></trkpt><trkpt lat="-23.690334" lon="-46.669806"><ele>749.0</ele><time>2017-02-17T07:23:30Z</time></trkpt><trkpt lat="-23.690365" lon="-46.669899"><ele>751.0</ele><time>2017-02-17T07:23:37Z</time></trkpt><trkpt lat="-23.690457" lon="-46.669918"><ele>752.0</ele><time>2017-02-17T07:23:44Z</time></trkpt><trkpt lat="-23.690501" lon="-46.670007"><ele>749.0</ele><time>2017-02-17T07:23:53Z</time></trkpt><trkpt lat="-23.690537" lon="-46.670103"><ele>745.0</ele><time>2017-02-17T07:24:00Z</time></trkpt><trkpt lat="-23.690622" lon="-46.670161"><ele>751.0</ele><time>2017-02-17T07:24:09Z</time></trkpt><trkpt lat="-23.690707" lon="-46.670211"><ele>752.0</ele><time>2017-02-17T07:24:16Z</time></trkpt><trkpt lat="-23.690797" lon="-46.670239"><ele>751.0</ele><time>2017-02-17T07:24:22Z</time></trkpt><trkpt lat="-23.690894" lon="-46.670269"><ele>756.0</ele><time>2017-02-17T07:24:29Z</time></trkpt><trkpt lat="-23.690967" lon="-46.67034"><ele>750.0</ele><time>2017-02-17T07:24:37Z</time></trkpt><trkpt lat="-23.69101" lon="-46.670434"><ele>750.0</ele><time>2017-02-17T07:24:47Z</time></trkpt><trkpt lat="-23.691083" lon="-46.670496"><ele>750.0</ele><time>2017-02-17T07:24:56Z</time></trkpt><trkpt lat="-23.691088" lon="-46.670597"><ele>747.0</ele><time>2017-02-17T07:25:04Z</time></trkpt><trkpt lat="-23.691094" lon="-46.670702"><ele>747.0</ele><time>2017-02-17T07:25:11Z</time></trkpt><trkpt lat="-23.691171" lon="-46.67076"><ele>743.0</ele><time>2017-02-17T07:25:18Z</time></trkpt><trkpt lat="-23.691235" lon="-46.670832"><ele>740.0</ele><time>2017-02-17T07:25:26Z</time></trkpt><trkpt lat="-23.691299" lon="-46.670904"><ele>740.0</ele><time>2017-02-17T07:25:36Z</time></trkpt><trkpt lat="-23.691322" lon="-46.671003"><ele>739.0</ele><time>2017-02-17T07:25:45Z</time></trkpt><trkpt lat="-23.691341" lon="-46.671103"><ele>736.0</ele><time>2017-02-17T07:25:56Z</time></trkpt><trkpt lat="-23.691408" lon="-46.671171"><ele>738.0</ele><time>2017-02-17T07:26:05Z</time></trkpt><trkpt lat="-23.691472" lon="-46.671254"><ele>743.0</ele><time>2017-02-17T07:26:14Z</time></trkpt><trkpt lat="-23.691466" lon="-46.671371"><ele>742.0</ele><time>2017-02-17T07:26:42Z</time></trkpt><trkpt lat="-23.691505" lon="-46.67147"><ele>745.0</ele><time>2017-02-17T07:26:50Z</time></trkpt><trkpt lat="-23.691559" lon="-46.67156"><ele>749.0</ele><time>2017-02-17T07:27:15Z</time></trkpt><trkpt lat="-23.691617" lon="-46.671641"><ele>749.0</ele><time>2017-02-17T07:27:24Z</time></trkpt><trkpt lat="-23.691669" lon="-46.67173"><ele>749.0</ele><time>2017-02-17T07:27:33Z</time></trkpt><trkpt lat="-23.691707" lon="-46.671825"><ele>747.0</ele><time>2017-02-17T07:27:43Z</time></trkpt><trkpt lat="-23.69176" lon="-46.671911"><ele>747.0</ele><time>2017-02-17T07:27:52Z</time></trkpt><trkpt lat="-23.691787" lon="-46.672012"><ele>748.0</ele><time>2017-02-17T07:28:38Z</time></trkpt><trkpt lat="-23.691854" lon="-46.672079"><ele>745.0</ele><time>2017-02-17T07:28:47Z</time></trkpt><trkpt lat="-23.691896" lon="-46.672171"><ele>744.0</ele><time>2017-02-17T07:28:57Z</time></trkpt><trkpt lat="-23.691935" lon="-46.672259"><ele>747.0</ele><time>2017-02-17T07:29:32Z</time></trkpt><trkpt lat="-23.691939" lon="-46.672157"><ele>745.0</ele><time>2017-02-17T07:30:22Z</time></trkpt><trkpt lat="-23.692007" lon="-46.672227"><ele>746.0</ele><time>2017-02-17T07:31:44Z</time></trkpt><trkpt lat="-23.692084" lon="-46.672292"><ele>746.0</ele><time>2017-02-17T07:31:50Z</time></trkpt><trkpt lat="-23.692135" lon="-46.672382"><ele>750.0</ele><time>2017-02-17T07:31:57Z</time></trkpt><trkpt lat="-23.69216" lon="-46.672482"><ele>750.0</ele><time>2017-02-17T07:32:24Z</time></trkpt><trkpt lat="-23.692197" lon="-46.672574"><ele>749.0</ele><time>2017-02-17T07:32:32Z</time></trkpt><trkpt lat="-23.692266" lon="-46.672638"><ele>748.0</ele><time>2017-02-17T07:32:55Z</time></trkpt><trkpt lat="-23.692352" lon="-46.672688"><ele>745.0</ele><time>2017-02-17T07:33:06Z</time></trkpt><trkpt lat="-23.692402" lon="-46.67277"><ele>743.0</ele><time>2017-02-17T07:33:12Z</time></trkpt><trkpt lat="-23.692454" lon="-46.672855"><ele>740.0</ele><time>2017-02-17T07:33:20Z</time></trkpt><trkpt lat="-23.692509" lon="-46.672946"><ele>739.0</ele><time>2017-02-17T07:33:29Z</time></trkpt><trkpt lat="-23.692551" lon="-46.673034"><ele>738.0</ele><time>2017-02-17T07:33:38Z</time></trkpt><trkpt lat="-23.692593" lon="-46.673134"><ele>738.0</ele><time>2017-02-17T07:33:46Z</time></trkpt><trkpt lat="-23.692611" lon="-46.673232"><ele>742.0</ele><time>2017-02-17T07:33:53Z</time></trkpt><trkpt lat="-23.692676" lon="-46.673307"><ele>740.0</ele><time>2017-02-17T07:34:02Z</time></trkpt><trkpt lat="-23.692743" lon="-46.673382"><ele>737.0</ele><time>2017-02-17T07:34:11Z</time></trkpt><trkpt lat="-23.692832" lon="-46.673423"><ele>734.0</ele><time>2017-02-17T07:34:20Z</time></trkpt><trkpt lat="-23.692873" lon="-46.673526"><ele>737.0</ele><time>2017-02-17T07:34:28Z</time></trkpt><trkpt lat="-23.692907" lon="-46.673621"><ele>737.0</ele><time>2017-02-17T07:34:36Z</time></trkpt><trkpt lat="-23.692816" lon="-46.67366"><ele>738.0</ele><time>2017-02-17T07:35:17Z</time></trkpt><trkpt lat="-23.692736" lon="-46.673716"><ele>737.0</ele><time>2017-02-17T07:35:25Z</time></trkpt><trkpt lat="-23.692661" lon="-46.673773"><ele>733.0</ele><time>2017-02-17T07:35:37Z</time></trkpt><trkpt lat="-23.692575" lon="-46.673821"><ele>739.0</ele><time>2017-02-17T07:35:46Z</time></trkpt><trkpt lat="-23.692516" lon="-46.673906"><ele>746.0</ele><time>2017-02-17T07:35:58Z</time></trkpt><trkpt lat="-23.692411" lon="-46.673915"><ele>738.0</ele><time>2017-02-17T07:36:07Z</time></trkpt><trkpt lat="-23.692319" lon="-46.673946"><ele>734.0</ele><time>2017-02-17T07:36:25Z</time></trkpt><trkpt lat="-23.692245" lon="-46.674007"><ele>734.0</ele><time>2017-02-17T07:36:34Z</time></trkpt><trkpt lat="-23.692157" lon="-46.674067"><ele>730.0</ele><time>2017-02-17T07:36:41Z</time></trkpt><trkpt lat="-23.692074" lon="-46.674116"><ele>733.0</ele><time>2017-02-17T07:36:53Z</time></trkpt><trkpt lat="-23.692027" lon="-46.674202"><ele>734.0</ele><time>2017-02-17T07:37:49Z</time></trkpt><trkpt lat="-23.691939" lon="-46.674229"><ele>736.0</ele><time>2017-02-17T07:38:33Z</time></trkpt><trkpt lat="-23.691939" lon="-46.674229"><ele>736.0</ele><time>2017-02-17T07:38:33Z</time></trkpt><trkpt lat="-23.691865" lon="-46.674324"><ele>739.0</ele><time>2017-02-17T07:38:44Z</time></trkpt><trkpt lat="-23.691918" lon="-46.674403"><ele>733.0</ele><time>2017-02-17T07:39:15Z</time></trkpt><trkpt lat="-23.691843" lon="-46.674346"><ele>742.0</ele><time>2017-02-17T07:39:33Z</time></trkpt><trkpt lat="-23.691757" lon="-46.674388"><ele>744.0</ele><time>2017-02-17T07:39:40Z</time></trkpt><trkpt lat="-23.691663" lon="-46.674423"><ele>747.0</ele><time>2017-02-17T07:39:49Z</time></trkpt><trkpt lat="-23.69157" lon="-46.674449"><ele>742.0</ele><time>2017-02-17T07:40:05Z</time></trkpt><trkpt lat="-23.691477" lon="-46.674476"><ele>741.0</ele><time>2017-02-17T07:40:36Z</time></trkpt><trkpt lat="-23.691407" lon="-46.674547"><ele>743.0</ele><time>2017-02-17T07:40:41Z</time></trkpt><trkpt lat="-23.691329" lon="-46.674604"><ele>745.0</ele><time>2017-02-17T07:40:48Z</time></trkpt><trkpt lat="-23.691256" lon="-46.674675"><ele>747.0</ele><time>2017-02-17T07:40:56Z</time></trkpt><trkpt lat="-23.691166" lon="-46.674729"><ele>748.0</ele><time>2017-02-17T07:41:30Z</time></trkpt><trkpt lat="-23.69106" lon="-46.674753"><ele>733.0</ele><time>2017-02-17T07:41:37Z</time></trkpt><trkpt lat="-23.690976" lon="-46.674792"><ele>731.0</ele><time>2017-02-17T07:41:58Z</time></trkpt><trkpt lat="-23.690964" lon="-46.674895"><ele>742.0</ele><time>2017-02-17T07:42:29Z</time></trkpt><trkpt lat="-23.690997" lon="-46.674996"><ele>750.0</ele><time>2017-02-17T07:42:39Z</time></trkpt><trkpt lat="-23.691051" lon="-46.675082"><ele>749.0</ele><time>2017-02-17T07:42:46Z</time></trkpt><trkpt lat="-23.691008" lon="-46.675179"><ele>742.0</ele><time>2017-02-17T07:43:17Z</time></trkpt><trkpt lat="-23.691015" lon="-46.675281"><ele>745.0</ele><time>2017-02-17T07:43:24Z</time></trkpt><trkpt lat="-23.691022" lon="-46.675383"><ele>743.0</ele><time>2017-02-17T07:43:35Z</time></trkpt><trkpt lat="-23.691035" lon="-46.675486"><ele>738.0</ele><time>2017-02-17T07:43:42Z</time></trkpt><trkpt lat="-23.691056" lon="-46.675583"><ele>738.0</ele><time>2017-02-17T07:43:51Z</time></trkpt><trkpt lat="-23.691109" lon="-46.675668"><ele>736.0</ele><time>2017-02-17T07:44:00Z</time></trkpt><trkpt lat="-23.691089" lon="-46.67577"><ele>735.0</ele><time>2017-02-17T07:44:10Z</time></trkpt><trkpt lat="-23.691127" lon="-46.675864"><ele>734.0</ele><time>2017-02-17T07:44:21Z</time></trkpt><trkpt lat="-23.691145" lon="-46.675969"><ele>736.0</ele><time>2017-02-17T07:44:30Z</time></trkpt><trkpt lat="-23.691154" lon="-46.676075"><ele>736.0</ele><time>2017-02-17T07:44:40Z</time></trkpt><trkpt lat="-23.691182" lon="-46.676179"><ele>745.0</ele><time>2017-02-17T07:44:51Z</time></trkpt><trkpt lat="-23.69123" lon="-46.676267"><ele>741.0</ele><time>2017-02-17T07:45:01Z</time></trkpt><trkpt lat="-23.691219" lon="-46.676365"><ele>744.0</ele><time>2017-02-17T07:45:10Z</time></trkpt><trkpt lat="-23.691221" lon="-46.676467"><ele>744.0</ele><time>2017-02-17T07:45:21Z</time></trkpt><trkpt lat="-23.691264" lon="-46.676562"><ele>752.0</ele><time>2017-02-17T07:45:34Z</time></trkpt><trkpt lat="-23.69129" lon="-46.676659"><ele>752.0</ele><time>2017-02-17T07:45:43Z</time></trkpt><trkpt lat="-23.691272" lon="-46.676759"><ele>760.0</ele><time>2017-02-17T07:45:52Z</time></trkpt><trkpt lat="-23.691249" lon="-46.676865"><ele>761.0</ele><time>2017-02-17T07:46:00Z</time></trkpt><trkpt lat="-23.691266" lon="-46.676968"><ele>756.0</ele><time>2017-02-17T07:46:09Z</time></trkpt><trkpt lat="-23.691305" lon="-46.677059"><ele>751.0</ele><time>2017-02-17T07:46:17Z</time></trkpt><trkpt lat="-23.691352" lon="-46.677164"><ele>752.0</ele><time>2017-02-17T07:46:27Z</time></trkpt><trkpt lat="-23.691363" lon="-46.677265"><ele>750.0</ele><time>2017-02-17T07:46:36Z</time></trkpt><trkpt lat="-23.691408" lon="-46.677354"><ele>749.0</ele><time>2017-02-17T07:46:45Z</time></trkpt><trkpt lat="-23.691436" lon="-46.677455"><ele>745.0</ele><time>2017-02-17T07:46:54Z</time></trkpt><trkpt lat="-23.691409" lon="-46.677557"><ele>740.0</ele><time>2017-02-17T07:47:01Z</time></trkpt><trkpt lat="-23.691452" lon="-46.677651"><ele>741.0</ele><time>2017-02-17T07:47:11Z</time></trkpt><trkpt lat="-23.69136" lon="-46.677689"><ele>735.0</ele><time>2017-02-17T07:48:25Z</time></trkpt><trkpt lat="-23.69127" lon="-46.677695"><ele>735.0</ele><time>2017-02-17T07:48:40Z</time></trkpt><trkpt lat="-23.691204" lon="-46.677764"><ele>734.0</ele><time>2017-02-17T07:48:55Z</time></trkpt><trkpt lat="-23.691113" lon="-46.677804"><ele>737.0</ele><time>2017-02-17T07:49:05Z</time></trkpt><trkpt lat="-23.691018" lon="-46.677809"><ele>737.0</ele><time>2017-02-17T07:49:13Z</time></trkpt><trkpt lat="-23.690918" lon="-46.677808"><ele>741.0</ele><time>2017-02-17T07:49:20Z</time></trkpt><trkpt lat="-23.690824" lon="-46.67783"><ele>747.0</ele><time>2017-02-17T07:49:28Z</time></trkpt><trkpt lat="-23.690731" lon="-46.67785"><ele>742.0</ele><time>2017-02-17T07:49:35Z</time></trkpt><trkpt lat="-23.690634" lon="-46.677863"><ele>742.0</ele><time>2017-02-17T07:49:43Z</time></trkpt><trkpt lat="-23.690549" lon="-46.677907"><ele>747.0</ele><time>2017-02-17T07:49:57Z</time></trkpt><trkpt lat="-23.690457" lon="-46.677918"><ele>741.0</ele><time>2017-02-17T07:50:05Z</time></trkpt><trkpt lat="-23.690357" lon="-46.677918"><ele>744.0</ele><time>2017-02-17T07:50:13Z</time></trkpt><trkpt lat="-23.690297" lon="-46.678001"><ele>750.0</ele><time>2017-02-17T07:50:21Z</time></trkpt><trkpt lat="-23.690239" lon="-46.678081"><ele>745.0</ele><time>2017-02-17T07:50:28Z</time></trkpt><trkpt lat="-23.690173" lon="-46.678154"><ele>747.0</ele><time>2017-02-17T07:50:36Z</time></trkpt><trkpt lat="-23.690104" lon="-46.678228"><ele>743.0</ele><time>2017-02-17T07:50:43Z</time></trkpt><trkpt lat="-23.690019" lon="-46.678287"><ele>745.0</ele><time>2017-02-17T07:50:51Z</time></trkpt><trkpt lat="-23.690063" lon="-46.678387"><ele>749.0</ele><time>2017-02-17T07:50:57Z</time></trkpt><trkpt lat="-23.68999" lon="-46.678451"><ele>749.0</ele><time>2017-02-17T07:51:03Z</time></trkpt><trkpt lat="-23.689923" lon="-46.678522"><ele>750.0</ele><time>2017-02-17T07:51:19Z</time></trkpt><trkpt lat="-23.689876" lon="-46.67861"><ele>750.0</ele><time>2017-02-17T07:51:28Z</time></trkpt><trkpt lat="-23.689798" lon="-46.678669"><ele>743.0</ele><time>2017-02-17T07:51:35Z</time></trkpt><trkpt lat="-23.689748" lon="-46.67876"><ele>744.0</ele><time>2017-02-17T07:51:43Z</time></trkpt><trkpt lat="-23.689702" lon="-46.678856"><ele>744.0</ele><time>2017-02-17T07:51:52Z</time></trkpt><trkpt lat="-23.689624" lon="-46.678914"><ele>741.0</ele><time>2017-02-17T07:52:01Z</time></trkpt><trkpt lat="-23.689562" lon="-46.679008"><ele>745.0</ele><time>2017-02-17T07:52:09Z</time></trkpt><trkpt lat="-23.689494" lon="-46.679073"><ele>744.0</ele><time>2017-02-17T07:52:15Z</time></trkpt><trkpt lat="-23.689419" lon="-46.679141"><ele>746.0</ele><time>2017-02-17T07:52:26Z</time></trkpt><trkpt lat="-23.689349" lon="-46.679205"><ele>745.0</ele><time>2017-02-17T07:52:33Z</time></trkpt><trkpt lat="-23.689282" lon="-46.679284"><ele>742.0</ele><time>2017-02-17T07:52:46Z</time></trkpt><trkpt lat="-23.689241" lon="-46.679375"><ele>744.0</ele><time>2017-02-17T07:52:51Z</time></trkpt><trkpt lat="-23.689175" lon="-46.679448"><ele>745.0</ele><time>2017-02-17T07:52:58Z</time></trkpt><trkpt lat="-23.689152" lon="-46.679545"><ele>746.0</ele><time>2017-02-17T07:53:06Z</time></trkpt><trkpt lat="-23.689088" lon="-46.679616"><ele>744.0</ele><time>2017-02-17T07:53:17Z</time></trkpt><trkpt lat="-23.689023" lon="-46.679689"><ele>747.0</ele><time>2017-02-17T07:53:31Z</time></trkpt><trkpt lat="-23.688979" lon="-46.679785"><ele>737.0</ele><time>2017-02-17T07:53:38Z</time></trkpt><trkpt lat="-23.688896" lon="-46.679832"><ele>734.0</ele><time>2017-02-17T07:53:46Z</time></trkpt><trkpt lat="-23.68882" lon="-46.679887"><ele>738.0</ele><time>2017-02-17T07:53:54Z</time></trkpt><trkpt lat="-23.688726" lon="-46.679932"><ele>740.0</ele><time>2017-02-17T07:54:06Z</time></trkpt><trkpt lat="-23.688632" lon="-46.679961"><ele>739.0</ele><time>2017-02-17T07:54:12Z</time></trkpt><trkpt lat="-23.688565" lon="-46.68004"><ele>742.0</ele><time>2017-02-17T07:54:21Z</time></trkpt><trkpt lat="-23.688482" lon="-46.680086"><ele>740.0</ele><time>2017-02-17T07:54:30Z</time></trkpt><trkpt lat="-23.688409" lon="-46.680146"><ele>737.0</ele><time>2017-02-17T07:54:39Z</time></trkpt><trkpt lat="-23.688331" lon="-46.680198"><ele>737.0</ele><time>2017-02-17T07:54:46Z</time></trkpt><trkpt lat="-23.688243" lon="-46.680227"><ele>731.0</ele><time>2017-02-17T07:54:55Z</time></trkpt><trkpt lat="-23.688153" lon="-46.680258"><ele>724.0</ele><time>2017-02-17T07:55:03Z</time></trkpt><trkpt lat="-23.68805" lon="-46.680289"><ele>723.0</ele><time>2017-02-17T07:55:12Z</time></trkpt><trkpt lat="-23.68803" lon="-46.680386"><ele>731.0</ele><time>2017-02-17T07:55:19Z</time></trkpt><trkpt lat="-23.687943" lon="-46.680439"><ele>729.0</ele><time>2017-02-17T07:55:38Z</time></trkpt><trkpt lat="-23.687849" lon="-46.68046"><ele>730.0</ele><time>2017-02-17T07:55:43Z</time></trkpt><trkpt lat="-23.687753" lon="-46.680456"><ele>727.0</ele><time>2017-02-17T07:55:49Z</time></trkpt><trkpt lat="-23.687663" lon="-46.680475"><ele>729.0</ele><time>2017-02-17T07:55:56Z</time></trkpt><trkpt lat="-23.687578" lon="-46.680535"><ele>735.0</ele><time>2017-02-17T07:56:11Z</time></trkpt><trkpt lat="-23.687485" lon="-46.680545"><ele>735.0</ele><time>2017-02-17T07:56:19Z</time></trkpt><trkpt lat="-23.687393" lon="-46.680516"><ele>734.0</ele><time>2017-02-17T07:56:32Z</time></trkpt><trkpt lat="-23.687301" lon="-46.680538"><ele>740.0</ele><time>2017-02-17T07:56:43Z</time></trkpt><trkpt lat="-23.68721" lon="-46.680582"><ele>740.0</ele><time>2017-02-17T07:56:52Z</time></trkpt><trkpt lat="-23.687131" lon="-46.680635"><ele>733.0</ele><time>2017-02-17T07:57:00Z</time></trkpt><trkpt lat="-23.687034" lon="-46.680664"><ele>735.0</ele><time>2017-02-17T07:57:09Z</time></trkpt><trkpt lat="-23.686944" lon="-46.680707"><ele>743.0</ele><time>2017-02-17T07:57:17Z</time></trkpt><trkpt lat="-23.686853" lon="-46.680726"><ele>743.0</ele><time>2017-02-17T07:57:25Z</time></trkpt><trkpt lat="-23.686757" lon="-46.680732"><ele>740.0</ele><time>2017-02-17T07:57:32Z</time></trkpt><trkpt lat="-23.68666" lon="-46.680733"><ele>743.0</ele><time>2017-02-17T07:57:40Z</time></trkpt><trkpt lat="-23.686563" lon="-46.680739"><ele>741.0</ele><time>2017-02-17T07:57:50Z</time></trkpt><trkpt lat="-23.686466" lon="-46.680735"><ele>740.0</ele><time>2017-02-17T07:57:59Z</time></trkpt><trkpt lat="-23.686373" lon="-46.68074"><ele>739.0</ele><time>2017-02-17T07:58:06Z</time></trkpt><trkpt lat="-23.686289" lon="-46.680699"><ele>737.0</ele><time>2017-02-17T07:58:14Z</time></trkpt><trkpt lat="-23.686195" lon="-46.680701"><ele>735.0</ele><time>2017-02-17T07:58:22Z</time></trkpt><trkpt lat="-23.686106" lon="-46.680665"><ele>738.0</ele><time>2017-02-17T07:58:32Z</time></trkpt><trkpt lat="-23.686011" lon="-46.680661"><ele>740.0</ele><time>2017-02-17T07:58:40Z</time></trkpt><trkpt lat="-23.685914" lon="-46.680653"><ele>745.0</ele><time>2017-02-17T07:58:48Z</time></trkpt><trkpt lat="-23.685821" lon="-46.680634"><ele>744.0</ele><time>2017-02-17T07:58:55Z</time></trkpt><trkpt lat="-23.685725" lon="-46.680629"><ele>744.0</ele><time>2017-02-17T07:59:03Z</time></trkpt><trkpt lat="-23.685625" lon="-46.68063"><ele>741.0</ele><time>2017-02-17T07:59:14Z</time></trkpt><trkpt lat="-23.685534" lon="-46.680618"><ele>742.0</ele><time>2017-02-17T07:59:21Z</time></trkpt><trkpt lat="-23.685437" lon="-46.680606"><ele>740.0</ele><time>2017-02-17T07:59:28Z</time></trkpt><trkpt lat="-23.685344" lon="-46.680614"><ele>744.0</ele><time>2017-02-17T07:59:36Z</time></trkpt><trkpt lat="-23.68525" lon="-46.680606"><ele>743.0</ele><time>2017-02-17T07:59:44Z</time></trkpt><trkpt lat="-23.685156" lon="-46.680596"><ele>744.0</ele><time>2017-02-17T07:59:52Z</time></trkpt><trkpt lat="-23.685065" lon="-46.680594"><ele>737.0</ele><time>2017-02-17T08:00:19Z</time></trkpt><trkpt lat="-23.684978" lon="-46.680624"><ele>740.0</ele><time>2017-02-17T08:00:27Z</time></trkpt><trkpt lat="-23.68489" lon="-46.680662"><ele>742.0</ele><time>2017-02-17T08:00:35Z</time></trkpt><trkpt lat="-23.684801" lon="-46.680704"><ele>738.0</ele><time>2017-02-17T08:00:42Z</time></trkpt><trkpt lat="-23.684703" lon="-46.680741"><ele>740.0</ele><time>2017-02-17T08:00:49Z</time></trkpt><trkpt lat="-23.684611" lon="-46.680762"><ele>743.0</ele><time>2017-02-17T08:00:58Z</time></trkpt><trkpt lat="-23.68452" lon="-46.680809"><ele>748.0</ele><time>2017-02-17T08:01:06Z</time></trkpt><trkpt lat="-23.684432" lon="-46.68085"><ele>750.0</ele><time>2017-02-17T08:01:17Z</time></trkpt><trkpt lat="-23.684331" lon="-46.68087"><ele>750.0</ele><time>2017-02-17T08:01:25Z</time></trkpt><trkpt lat="-23.684246" lon="-46.680914"><ele>748.0</ele><time>2017-02-17T08:01:33Z</time></trkpt><trkpt lat="-23.684153" lon="-46.680941"><ele>737.0</ele><time>2017-02-17T08:01:41Z</time></trkpt><trkpt lat="-23.684059" lon="-46.680984"><ele>740.0</ele><time>2017-02-17T08:01:49Z</time></trkpt><trkpt lat="-23.683986" lon="-46.681046"><ele>749.0</ele><time>2017-02-17T08:01:57Z</time></trkpt><trkpt lat="-23.68394" lon="-46.681131"><ele>748.0</ele><time>2017-02-17T08:02:03Z</time></trkpt><trkpt lat="-23.683851" lon="-46.681146"><ele>748.0</ele><time>2017-02-17T08:02:10Z</time></trkpt><trkpt lat="-23.683755" lon="-46.681132"><ele>740.0</ele><time>2017-02-17T08:02:16Z</time></trkpt><trkpt lat="-23.683669" lon="-46.68118"><ele>739.0</ele><time>2017-02-17T08:02:25Z</time></trkpt><trkpt lat="-23.683588" lon="-46.681236"><ele>737.0</ele><time>2017-02-17T08:02:36Z</time></trkpt><trkpt lat="-23.683492" lon="-46.681284"><ele>732.0</ele><time>2017-02-17T08:02:44Z</time></trkpt><trkpt lat="-23.683394" lon="-46.681326"><ele>722.0</ele><time>2017-02-17T08:02:51Z</time></trkpt><trkpt lat="-23.683307" lon="-46.681373"><ele>729.0</ele><time>2017-02-17T08:03:00Z</time></trkpt><trkpt lat="-23.683214" lon="-46.681408"><ele>734.0</ele><time>2017-02-17T08:03:08Z</time></trkpt><trkpt lat="-23.683129" lon="-46.68147"><ele>731.0</ele><time>2017-02-17T08:03:16Z</time></trkpt><trkpt lat="-23.683039" lon="-46.68152"><ele>731.0</ele><time>2017-02-17T08:03:25Z</time></trkpt><trkpt lat="-23.682949" lon="-46.681574"><ele>725.0</ele><time>2017-02-17T08:03:32Z</time></trkpt><trkpt lat="-23.682858" lon="-46.681618"><ele>721.0</ele><time>2017-02-17T08:03:39Z</time></trkpt><trkpt lat="-23.682769" lon="-46.681645"><ele>724.0</ele><time>2017-02-17T08:03:51Z</time></trkpt><trkpt lat="-23.682698" lon="-46.681718"><ele>731.0</ele><time>2017-02-17T08:03:59Z</time></trkpt><trkpt lat="-23.682623" lon="-46.681776"><ele>737.0</ele><time>2017-02-17T08:04:13Z</time></trkpt><trkpt lat="-23.682537" lon="-46.681823"><ele>738.0</ele><time>2017-02-17T08:04:21Z</time></trkpt><trkpt lat="-23.682444" lon="-46.681859"><ele>739.0</ele><time>2017-02-17T08:04:29Z</time></trkpt><trkpt lat="-23.682351" lon="-46.681893"><ele>741.0</ele><time>2017-02-17T08:04:37Z</time></trkpt><trkpt lat="-23.682261" lon="-46.681939"><ele>740.0</ele><time>2017-02-17T08:04:47Z</time></trkpt><trkpt lat="-23.68217" lon="-46.681965"><ele>733.0</ele><time>2017-02-17T08:04:56Z</time></trkpt><trkpt lat="-23.682074" lon="-46.68199"><ele>727.0</ele><time>2017-02-17T08:05:09Z</time></trkpt><trkpt lat="-23.681993" lon="-46.682044"><ele>730.0</ele><time>2017-02-17T08:05:15Z</time></trkpt><trkpt lat="-23.681921" lon="-46.682108"><ele>733.0</ele><time>2017-02-17T08:05:28Z</time></trkpt><trkpt lat="-23.68184" lon="-46.682156"><ele>733.0</ele><time>2017-02-17T08:05:39Z</time></trkpt><trkpt lat="-23.681743" lon="-46.682166"><ele>730.0</ele><time>2017-02-17T08:06:05Z</time></trkpt><trkpt lat="-23.68165" lon="-46.682189"><ele>728.0</ele><time>2017-02-17T08:06:12Z</time></trkpt><trkpt lat="-23.681557" lon="-46.682217"><ele>726.0</ele><time>2017-02-17T08:06:18Z</time></trkpt><trkpt lat="-23.681484" lon="-46.682287"><ele>726.0</ele><time>2017-02-17T08:06:26Z</time></trkpt><trkpt lat="-23.681456" lon="-46.682384"><ele>730.0</ele><time>2017-02-17T08:06:35Z</time></trkpt><trkpt lat="-23.681351" lon="-46.68239"><ele>723.0</ele><time>2017-02-17T08:06:42Z</time></trkpt><trkpt lat="-23.681257" lon="-46.68239"><ele>722.0</ele><time>2017-02-17T08:06:49Z</time></trkpt><trkpt lat="-23.6812" lon="-46.682476"><ele>727.0</ele><time>2017-02-17T08:06:56Z</time></trkpt><trkpt lat="-23.681143" lon="-46.682553"><ele>730.0</ele><time>2017-02-17T08:07:14Z</time></trkpt><trkpt lat="-23.681041" lon="-46.682616"><ele>727.0</ele><time>2017-02-17T08:07:24Z</time></trkpt><trkpt lat="-23.680971" lon="-46.682687"><ele>731.0</ele><time>2017-02-17T08:07:33Z</time></trkpt><trkpt lat="-23.680909" lon="-46.682772"><ele>742.0</ele><time>2017-02-17T08:07:41Z</time></trkpt><trkpt lat="-23.680879" lon="-46.682869"><ele>744.0</ele><time>2017-02-17T08:07:49Z</time></trkpt><trkpt lat="-23.680811" lon="-46.682936"><ele>744.0</ele><time>2017-02-17T08:07:57Z</time></trkpt><trkpt lat="-23.680731" lon="-46.682998"><ele>747.0</ele><time>2017-02-17T08:08:05Z</time></trkpt><trkpt lat="-23.680668" lon="-46.683079"><ele>750.0</ele><time>2017-02-17T08:08:17Z</time></trkpt><trkpt lat="-23.680604" lon="-46.683163"><ele>744.0</ele><time>2017-02-17T08:08:27Z</time></trkpt><trkpt lat="-23.680539" lon="-46.683238"><ele>740.0</ele><time>2017-02-17T08:08:43Z</time></trkpt><trkpt lat="-23.680472" lon="-46.683329"><ele>738.0</ele><time>2017-02-17T0